<?xml version='1.0' encoding='UTF-8'?><gpx version="1.1" creator="JPX - https://github.com/jenetics/jpx" xmlns="http://www.topografix.com/GPX/1/1"><trk><trkseg><trkpt lat="32.9869925" lon="9.6377333"><ele>211.33333333333331</ele><time>2026-04-29T07:22:09.572Z</time></trkpt><trkpt lat="32.9869247" lon="9.637808"><ele>211.66666666666666</ele><time>2026-04-29T07:22:11.567Z</time></trkpt><trkpt lat="32.9868666" lon="9.6378713"><ele>212.0</ele><time>2026-04-29T07:22:13.591Z</time></trkpt><trkpt lat="32.9868027" lon="9.6379451"><ele>212.33333333333331</ele><time>2026-04-29T07:22:15.568Z</time></trkpt><trkpt lat="32.9867499" lon="9.6380014"><ele>212.66666666666666</ele><time>2026-04-29T07:22:17.582Z</time></trkpt><trkpt lat="32.9866825" lon="9.6380122"><ele>213.0</ele><time>2026-04-29T07:22:20.579Z</time></trkpt><trkpt lat="32.9865947" lon="9.6379768"><ele>213.0</ele><time>2026-04-29T07:22:22.572Z</time></trkpt><trkpt lat="32.9865094" lon="9.6379238"><ele>213.0</ele><time>2026-04-29T07:22:23.576Z</time></trkpt><trkpt lat="32.9863823" lon="9.6378435"><ele>213.0</ele><time>2026-04-29T07:22:24.583Z</time></trkpt><trkpt lat="32.9862655" lon="9.6377734"><ele>213.0</ele><time>2026-04-29T07:22:25.584Z</time></trkpt><trkpt lat="32.9861841" lon="9.6377259"><ele>212.8</ele><time>2026-04-29T07:22:26.583Z</time></trkpt><trkpt lat="32.986116" lon="9.6376994"><ele>212.60000000000002</ele><time>2026-04-29T07:22:27.563Z</time></trkpt><trkpt lat="32.9860249" lon="9.6376461"><ele>212.39999999999998</ele><time>2026-04-29T07:22:29.575Z</time></trkpt><trkpt lat="32.9859304" lon="9.6376059"><ele>212.2</ele><time>2026-04-29T07:22:31.584Z</time></trkpt><trkpt lat="32.9858363" lon="9.6375496"><ele>212.0</ele><time>2026-04-29T07:22:33.583Z</time></trkpt><trkpt lat="32.9857556" lon="9.6375067"><ele>212.39999999999998</ele><time>2026-04-29T07:22:35.587Z</time></trkpt><trkpt lat="32.9856729" lon="9.6374588"><ele>212.79999999999998</ele><time>2026-04-29T07:22:37.579Z</time></trkpt><trkpt lat="32.9855887" lon="9.6374022"><ele>213.2</ele><time>2026-04-29T07:22:39.57Z</time></trkpt><trkpt lat="32.9854887" lon="9.6373396"><ele>213.6</ele><time>2026-04-29T07:22:41.57Z</time></trkpt><trkpt lat="32.9853851" lon="9.6372816"><ele>214.0</ele><time>2026-04-29T07:22:43.569Z</time></trkpt><trkpt lat="32.9852796" lon="9.6372212"><ele>214.0</ele><time>2026-04-29T07:22:45.575Z</time></trkpt><trkpt lat="32.985166" lon="9.6371677"><ele>213.99999999999997</ele><time>2026-04-29T07:22:47.557Z</time></trkpt><trkpt lat="32.9850458" lon="9.6371055"><ele>213.99999999999997</ele><time>2026-04-29T07:22:49.559Z</time></trkpt><trkpt lat="32.9849832" lon="9.6370652"><ele>214.0</ele><time>2026-04-29T07:22:50.571Z</time></trkpt><trkpt lat="32.9849228" lon="9.6370201"><ele>214.0</ele><time>2026-04-29T07:22:51.563Z</time></trkpt><trkpt lat="32.9848571" lon="9.6369827"><ele>213.33333333333331</ele><time>2026-04-29T07:22:52.574Z</time></trkpt><trkpt lat="32.9847927" lon="9.6369502"><ele>212.66666666666666</ele><time>2026-04-29T07:22:53.572Z</time></trkpt><trkpt lat="32.9847186" lon="9.6369106"><ele>212.0</ele><time>2026-04-29T07:22:54.564Z</time></trkpt><trkpt lat="32.9846519" lon="9.6368679"><ele>211.33333333333331</ele><time>2026-04-29T07:22:55.581Z</time></trkpt><trkpt lat="32.9845772" lon="9.6368278"><ele>210.66666666666666</ele><time>2026-04-29T07:22:56.569Z</time></trkpt><trkpt lat="32.9845006" lon="9.6367927"><ele>210.0</ele><time>2026-04-29T07:22:57.58Z</time></trkpt><trkpt lat="32.9844162" lon="9.6367568"><ele>210.0</ele><time>2026-04-29T07:22:58.577Z</time></trkpt><trkpt lat="32.9843332" lon="9.6367106"><ele>210.0</ele><time>2026-04-29T07:22:59.558Z</time></trkpt><trkpt lat="32.9842499" lon="9.6366618"><ele>210.0</ele><time>2026-04-29T07:23:00.582Z</time></trkpt><trkpt lat="32.9841654" lon="9.6366129"><ele>210.0</ele><time>2026-04-29T07:23:01.559Z</time></trkpt><trkpt lat="32.9840881" lon="9.6365618"><ele>210.0</ele><time>2026-04-29T07:23:02.57Z</time></trkpt><trkpt lat="32.9840121" lon="9.6365123"><ele>210.16666666666666</ele><time>2026-04-29T07:23:03.566Z</time></trkpt><trkpt lat="32.9839338" lon="9.6364668"><ele>210.33333333333331</ele><time>2026-04-29T07:23:04.573Z</time></trkpt><trkpt lat="32.9838523" lon="9.636422"><ele>210.5</ele><time>2026-04-29T07:23:05.568Z</time></trkpt><trkpt lat="32.9837679" lon="9.6363817"><ele>210.66666666666666</ele><time>2026-04-29T07:23:06.571Z</time></trkpt><trkpt lat="32.9836821" lon="9.6363388"><ele>210.83333333333331</ele><time>2026-04-29T07:23:07.556Z</time></trkpt><trkpt lat="32.9836022" lon="9.6362984"><ele>211.0</ele><time>2026-04-29T07:23:08.567Z</time></trkpt><trkpt lat="32.983531" lon="9.6362616"><ele>210.99999999999997</ele><time>2026-04-29T07:23:09.567Z</time></trkpt><trkpt lat="32.9834685" lon="9.6362221"><ele>211.0</ele><time>2026-04-29T07:23:10.577Z</time></trkpt><trkpt lat="32.9833764" lon="9.6361653"><ele>211.0</ele><time>2026-04-29T07:23:12.594Z</time></trkpt><trkpt lat="32.9832688" lon="9.6361163"><ele>211.0</ele><time>2026-04-29T07:23:14.57Z</time></trkpt><trkpt lat="32.9832069" lon="9.6360923"><ele>210.99999999999997</ele><time>2026-04-29T07:23:15.595Z</time></trkpt><trkpt lat="32.9831496" lon="9.636057"><ele>211.0</ele><time>2026-04-29T07:23:16.558Z</time></trkpt><trkpt lat="32.9830493" lon="9.6360298"><ele>211.33333333333331</ele><time>2026-04-29T07:23:18.567Z</time></trkpt><trkpt lat="32.9829476" lon="9.6360831"><ele>211.66666666666666</ele><time>2026-04-29T07:23:20.572Z</time></trkpt><trkpt lat="32.9829055" lon="9.6361389"><ele>212.0</ele><time>2026-04-29T07:23:21.577Z</time></trkpt><trkpt lat="32.9828753" lon="9.6362165"><ele>212.33333333333331</ele><time>2026-04-29T07:23:22.578Z</time></trkpt><trkpt lat="32.9828576" lon="9.6363137"><ele>212.66666666666666</ele><time>2026-04-29T07:23:23.567Z</time></trkpt><trkpt lat="32.9828264" lon="9.636411"><ele>213.0</ele><time>2026-04-29T07:23:24.563Z</time></trkpt><trkpt lat="32.9827876" lon="9.6365089"><ele>213.0</ele><time>2026-04-29T07:23:25.572Z</time></trkpt><trkpt lat="32.982745" lon="9.6366071"><ele>213.0</ele><time>2026-04-29T07:23:26.582Z</time></trkpt><trkpt lat="32.9827085" lon="9.636707"><ele>213.0</ele><time>2026-04-29T07:23:27.589Z</time></trkpt><trkpt lat="32.9826695" lon="9.6368104"><ele>213.0</ele><time>2026-04-29T07:23:28.562Z</time></trkpt><trkpt lat="32.982628" lon="9.6369218"><ele>213.0</ele><time>2026-04-29T07:23:29.566Z</time></trkpt><trkpt lat="32.9825799" lon="9.6370391"><ele>212.75</ele><time>2026-04-29T07:23:30.573Z</time></trkpt><trkpt lat="32.982534" lon="9.637158"><ele>212.5</ele><time>2026-04-29T07:23:31.565Z</time></trkpt><trkpt lat="32.9824811" lon="9.6372782"><ele>212.25</ele><time>2026-04-29T07:23:32.557Z</time></trkpt><trkpt lat="32.9824302" lon="9.6374039"><ele>212.0</ele><time>2026-04-29T07:23:33.569Z</time></trkpt><trkpt lat="32.9823797" lon="9.6375346"><ele>212.0</ele><time>2026-04-29T07:23:34.569Z</time></trkpt><trkpt lat="32.9823289" lon="9.6376586"><ele>212.0</ele><time>2026-04-29T07:23:35.578Z</time></trkpt><trkpt lat="32.9822815" lon="9.6377869"><ele>212.0</ele><time>2026-04-29T07:23:36.577Z</time></trkpt><trkpt lat="32.9822279" lon="9.6379194"><ele>212.0</ele><time>2026-04-29T07:23:37.566Z</time></trkpt><trkpt lat="32.9821719" lon="9.6380495"><ele>211.5</ele><time>2026-04-29T07:23:38.577Z</time></trkpt><trkpt lat="32.9821171" lon="9.6381872"><ele>211.0</ele><time>2026-04-29T07:23:39.568Z</time></trkpt><trkpt lat="32.9820611" lon="9.6383194"><ele>210.5</ele><time>2026-04-29T07:23:40.589Z</time></trkpt><trkpt lat="32.9820108" lon="9.6384546"><ele>210.0</ele><time>2026-04-29T07:23:41.582Z</time></trkpt><trkpt lat="32.981959" lon="9.6385902"><ele>210.5</ele><time>2026-04-29T07:23:42.566Z</time></trkpt><trkpt lat="32.9819014" lon="9.6387267"><ele>211.0</ele><time>2026-04-29T07:23:43.569Z</time></trkpt><trkpt lat="32.9818461" lon="9.6388601"><ele>211.5</ele><time>2026-04-29T07:23:44.584Z</time></trkpt><trkpt lat="32.9817906" lon="9.6389973"><ele>212.0</ele><time>2026-04-29T07:23:45.588Z</time></trkpt><trkpt lat="32.9817376" lon="9.6391374"><ele>212.0</ele><time>2026-04-29T07:23:46.568Z</time></trkpt><trkpt lat="32.9816796" lon="9.6392762"><ele>212.0</ele><time>2026-04-29T07:23:47.556Z</time></trkpt><trkpt lat="32.981621" lon="9.6394077"><ele>212.0</ele><time>2026-04-29T07:23:48.571Z</time></trkpt><trkpt lat="32.9815718" lon="9.6395325"><ele>212.0</ele><time>2026-04-29T07:23:49.565Z</time></trkpt><trkpt lat="32.9815229" lon="9.6396539"><ele>212.0</ele><time>2026-04-29T07:23:50.57Z</time></trkpt><trkpt lat="32.9814674" lon="9.6397737"><ele>212.0</ele><time>2026-04-29T07:23:51.585Z</time></trkpt><trkpt lat="32.9814157" lon="9.6398895"><ele>212.0</ele><time>2026-04-29T07:23:52.586Z</time></trkpt><trkpt lat="32.9813693" lon="9.6400096"><ele>212.0</ele><time>2026-04-29T07:23:53.556Z</time></trkpt><trkpt lat="32.9813264" lon="9.6401285"><ele>212.0</ele><time>2026-04-29T07:23:54.58Z</time></trkpt><trkpt lat="32.9812794" lon="9.6402432"><ele>212.2</ele><time>2026-04-29T07:23:55.56Z</time></trkpt><trkpt lat="32.9812333" lon="9.6403614"><ele>212.39999999999998</ele><time>2026-04-29T07:23:56.571Z</time></trkpt><trkpt lat="32.9811847" lon="9.6404818"><ele>212.60000000000002</ele><time>2026-04-29T07:23:57.563Z</time></trkpt><trkpt lat="32.9811359" lon="9.6406073"><ele>212.8</ele><time>2026-04-29T07:23:58.582Z</time></trkpt><trkpt lat="32.9810839" lon="9.6407248"><ele>213.0</ele><time>2026-04-29T07:23:59.581Z</time></trkpt><trkpt lat="32.9810265" lon="9.6408372"><ele>213.0</ele><time>2026-04-29T07:24:00.575Z</time></trkpt><trkpt lat="32.980971" lon="9.6409531"><ele>213.0</ele><time>2026-04-29T07:24:01.579Z</time></trkpt><trkpt lat="32.9809172" lon="9.6410676"><ele>213.0</ele><time>2026-04-29T07:24:02.564Z</time></trkpt><trkpt lat="32.9808403" lon="9.641172"><ele>213.0</ele><time>2026-04-29T07:24:03.593Z</time></trkpt><trkpt lat="32.9807477" lon="9.6412743"><ele>212.75</ele><time>2026-04-29T07:24:04.573Z</time></trkpt><trkpt lat="32.9806584" lon="9.6413807"><ele>212.5</ele><time>2026-04-29T07:24:05.568Z</time></trkpt><trkpt lat="32.980572" lon="9.6414855"><ele>212.25</ele><time>2026-04-29T07:24:06.574Z</time></trkpt><trkpt lat="32.9804837" lon="9.6415865"><ele>212.0</ele><time>2026-04-29T07:24:07.575Z</time></trkpt><trkpt lat="32.9803922" lon="9.6416849"><ele>212.0</ele><time>2026-04-29T07:24:08.578Z</time></trkpt><trkpt lat="32.9803074" lon="9.6417809"><ele>212.0</ele><time>2026-04-29T07:24:09.581Z</time></trkpt><trkpt lat="32.9802263" lon="9.6418732"><ele>212.0</ele><time>2026-04-29T07:24:10.58Z</time></trkpt><trkpt lat="32.9801365" lon="9.6419742"><ele>212.0</ele><time>2026-04-29T07:24:11.571Z</time></trkpt><trkpt lat="32.9800432" lon="9.6420595"><ele>210.75</ele><time>2026-04-29T07:24:12.583Z</time></trkpt><trkpt lat="32.9799483" lon="9.6421408"><ele>209.5</ele><time>2026-04-29T07:24:13.568Z</time></trkpt><trkpt lat="32.9798549" lon="9.642228"><ele>208.25</ele><time>2026-04-29T07:24:14.575Z</time></trkpt><trkpt lat="32.9797642" lon="9.6423208"><ele>207.0</ele><time>2026-04-29T07:24:15.576Z</time></trkpt><trkpt lat="32.9796769" lon="9.6424143"><ele>207.0</ele><time>2026-04-29T07:24:16.574Z</time></trkpt><trkpt lat="32.9795948" lon="9.642509"><ele>207.0</ele><time>2026-04-29T07:24:17.565Z</time></trkpt><trkpt lat="32.9795169" lon="9.6425966"><ele>207.0</ele><time>2026-04-29T07:24:18.57Z</time></trkpt><trkpt lat="32.9794472" lon="9.6426918"><ele>207.0</ele><time>2026-04-29T07:24:19.579Z</time></trkpt><trkpt lat="32.9793773" lon="9.642798"><ele>207.0</ele><time>2026-04-29T07:24:20.581Z</time></trkpt><trkpt lat="32.9793162" lon="9.642935"><ele>207.75</ele><time>2026-04-29T07:24:21.587Z</time></trkpt><trkpt lat="32.9792636" lon="9.6430876"><ele>208.5</ele><time>2026-04-29T07:24:22.593Z</time></trkpt><trkpt lat="32.979209" lon="9.6432524"><ele>209.25</ele><time>2026-04-29T07:24:23.586Z</time></trkpt><trkpt lat="32.9791442" lon="9.6434204"><ele>210.0</ele><time>2026-04-29T07:24:24.576Z</time></trkpt><trkpt lat="32.9790738" lon="9.6435815"><ele>210.0</ele><time>2026-04-29T07:24:25.579Z</time></trkpt><trkpt lat="32.9789997" lon="9.6437356"><ele>210.0</ele><time>2026-04-29T07:24:26.574Z</time></trkpt><trkpt lat="32.9789234" lon="9.6438894"><ele>210.0</ele><time>2026-04-29T07:24:27.572Z</time></trkpt><trkpt lat="32.9788451" lon="9.6440388"><ele>210.0</ele><time>2026-04-29T07:24:28.568Z</time></trkpt><trkpt lat="32.9787698" lon="9.6441864"><ele>210.0</ele><time>2026-04-29T07:24:29.571Z</time></trkpt><trkpt lat="32.9786915" lon="9.6443304"><ele>210.0</ele><time>2026-04-29T07:24:30.58Z</time></trkpt><trkpt lat="32.9786142" lon="9.6444713"><ele>210.0</ele><time>2026-04-29T07:24:31.582Z</time></trkpt><trkpt lat="32.9785399" lon="9.6446085"><ele>210.0</ele><time>2026-04-29T07:24:32.577Z</time></trkpt><trkpt lat="32.9784675" lon="9.6447463"><ele>210.0</ele><time>2026-04-29T07:24:33.574Z</time></trkpt><trkpt lat="32.9783991" lon="9.6448755"><ele>210.0</ele><time>2026-04-29T07:24:34.585Z</time></trkpt><trkpt lat="32.9783309" lon="9.6450048"><ele>210.0</ele><time>2026-04-29T07:24:35.583Z</time></trkpt><trkpt lat="32.9782665" lon="9.6451291"><ele>210.0</ele><time>2026-04-29T07:24:36.596Z</time></trkpt><trkpt lat="32.9782058" lon="9.6452529"><ele>210.0</ele><time>2026-04-29T07:24:37.556Z</time></trkpt><trkpt lat="32.9781464" lon="9.6453723"><ele>210.0</ele><time>2026-04-29T07:24:38.575Z</time></trkpt><trkpt lat="32.978088" lon="9.6454877"><ele>210.0</ele><time>2026-04-29T07:24:39.562Z</time></trkpt><trkpt lat="32.9780277" lon="9.6456012"><ele>210.0</ele><time>2026-04-29T07:24:40.576Z</time></trkpt><trkpt lat="32.9779773" lon="9.6457104"><ele>210.0</ele><time>2026-04-29T07:24:41.574Z</time></trkpt><trkpt lat="32.9779328" lon="9.6458103"><ele>210.0</ele><time>2026-04-29T07:24:42.578Z</time></trkpt><trkpt lat="32.977892" lon="9.6459"><ele>210.0</ele><time>2026-04-29T07:24:43.57Z</time></trkpt><trkpt lat="32.9778553" lon="9.6459711"><ele>210.0</ele><time>2026-04-29T07:24:44.58Z</time></trkpt><trkpt lat="32.9778058" lon="9.6460927"><ele>210.0</ele><time>2026-04-29T07:24:46.57Z</time></trkpt><trkpt lat="32.9778044" lon="9.646227"><ele>210.0</ele><time>2026-04-29T07:24:48.596Z</time></trkpt><trkpt lat="32.9778381" lon="9.6462917"><ele>210.0</ele><time>2026-04-29T07:24:49.574Z</time></trkpt><trkpt lat="32.9778847" lon="9.6463574"><ele>210.0</ele><time>2026-04-29T07:24:50.581Z</time></trkpt><trkpt lat="32.9779391" lon="9.6464268"><ele>210.0</ele><time>2026-04-29T07:24:51.563Z</time></trkpt><trkpt lat="32.9780101" lon="9.6464981"><ele>210.0</ele><time>2026-04-29T07:24:52.588Z</time></trkpt><trkpt lat="32.9780883" lon="9.6465713"><ele>210.0</ele><time>2026-04-29T07:24:53.579Z</time></trkpt><trkpt lat="32.9781654" lon="9.6466589"><ele>210.0</ele><time>2026-04-29T07:24:54.562Z</time></trkpt><trkpt lat="32.9782557" lon="9.6467501"><ele>210.0</ele><time>2026-04-29T07:24:55.577Z</time></trkpt><trkpt lat="32.9783451" lon="9.6468364"><ele>210.0</ele><time>2026-04-29T07:24:56.596Z</time></trkpt><trkpt lat="32.9784373" lon="9.6469259"><ele>210.0</ele><time>2026-04-29T07:24:57.563Z</time></trkpt><trkpt lat="32.9785297" lon="9.6470233"><ele>210.0</ele><time>2026-04-29T07:24:58.576Z</time></trkpt><trkpt lat="32.9786257" lon="9.6471225"><ele>210.25</ele><time>2026-04-29T07:24:59.567Z</time></trkpt><trkpt lat="32.9787189" lon="9.6472162"><ele>210.5</ele><time>2026-04-29T07:25:00.588Z</time></trkpt><trkpt lat="32.978811" lon="9.647312"><ele>210.75</ele><time>2026-04-29T07:25:01.573Z</time></trkpt><trkpt lat="32.9789027" lon="9.6474132"><ele>211.0</ele><time>2026-04-29T07:25:02.576Z</time></trkpt><trkpt lat="32.9789915" lon="9.6475116"><ele>211.0</ele><time>2026-04-29T07:25:03.581Z</time></trkpt><trkpt lat="32.9790811" lon="9.6476046"><ele>211.0</ele><time>2026-04-29T07:25:04.577Z</time></trkpt><trkpt lat="32.9791678" lon="9.6476996"><ele>211.0</ele><time>2026-04-29T07:25:05.58Z</time></trkpt><trkpt lat="32.9792598" lon="9.6477914"><ele>211.0</ele><time>2026-04-29T07:25:06.59Z</time></trkpt><trkpt lat="32.9793471" lon="9.6478877"><ele>211.25</ele><time>2026-04-29T07:25:07.568Z</time></trkpt><trkpt lat="32.9794363" lon="9.6479796"><ele>211.5</ele><time>2026-04-29T07:25:08.569Z</time></trkpt><trkpt lat="32.9795297" lon="9.6480738"><ele>211.75</ele><time>2026-04-29T07:25:09.578Z</time></trkpt><trkpt lat="32.979624" lon="9.6481743"><ele>212.0</ele><time>2026-04-29T07:25:10.58Z</time></trkpt><trkpt lat="32.9797184" lon="9.6482734"><ele>212.0</ele><time>2026-04-29T07:25:11.584Z</time></trkpt><trkpt lat="32.979815" lon="9.6483801"><ele>212.0</ele><time>2026-04-29T07:25:12.578Z</time></trkpt><trkpt lat="32.9799169" lon="9.648493"><ele>212.0</ele><time>2026-04-29T07:25:13.576Z</time></trkpt><trkpt lat="32.9800258" lon="9.6486074"><ele>212.0</ele><time>2026-04-29T07:25:14.587Z</time></trkpt><trkpt lat="32.9801381" lon="9.6487227"><ele>212.33333333333334</ele><time>2026-04-29T07:25:15.552Z</time></trkpt><trkpt lat="32.9802535" lon="9.6488406"><ele>212.66666666666669</ele><time>2026-04-29T07:25:16.567Z</time></trkpt><trkpt lat="32.9803708" lon="9.6489584"><ele>213.0</ele><time>2026-04-29T07:25:17.549Z</time></trkpt><trkpt lat="32.980483" lon="9.6490774"><ele>213.0</ele><time>2026-04-29T07:25:18.596Z</time></trkpt><trkpt lat="32.9805977" lon="9.6492049"><ele>213.0</ele><time>2026-04-29T07:25:19.6Z</time></trkpt><trkpt lat="32.9807132" lon="9.6493259"><ele>213.0</ele><time>2026-04-29T07:25:20.587Z</time></trkpt><trkpt lat="32.9808292" lon="9.6494449"><ele>213.0</ele><time>2026-04-29T07:25:21.595Z</time></trkpt><trkpt lat="32.9809426" lon="9.6495657"><ele>213.0</ele><time>2026-04-29T07:25:22.592Z</time></trkpt><trkpt lat="32.9810563" lon="9.6496898"><ele>213.0</ele><time>2026-04-29T07:25:23.596Z</time></trkpt><trkpt lat="32.9811693" lon="9.6498156"><ele>213.0</ele><time>2026-04-29T07:25:24.587Z</time></trkpt><trkpt lat="32.9812847" lon="9.649937"><ele>213.0</ele><time>2026-04-29T07:25:25.602Z</time></trkpt><trkpt lat="32.9813986" lon="9.650055"><ele>213.0</ele><time>2026-04-29T07:25:26.574Z</time></trkpt><trkpt lat="32.9815104" lon="9.6501779"><ele>213.5</ele><time>2026-04-29T07:25:27.583Z</time></trkpt><trkpt lat="32.9816221" lon="9.6502975"><ele>214.0</ele><time>2026-04-29T07:25:28.604Z</time></trkpt><trkpt lat="32.9817294" lon="9.6504158"><ele>214.5</ele><time>2026-04-29T07:25:29.602Z</time></trkpt><trkpt lat="32.9818392" lon="9.6505329"><ele>215.0</ele><time>2026-04-29T07:25:30.571Z</time></trkpt><trkpt lat="32.9819508" lon="9.6506423"><ele>215.33333333333334</ele><time>2026-04-29T07:25:31.598Z</time></trkpt><trkpt lat="32.9820589" lon="9.6507642"><ele>215.66666666666669</ele><time>2026-04-29T07:25:32.566Z</time></trkpt><trkpt lat="32.9821714" lon="9.6508895"><ele>216.0</ele><time>2026-04-29T07:25:33.565Z</time></trkpt><trkpt lat="32.9822737" lon="9.651031"><ele>215.66666666666669</ele><time>2026-04-29T07:25:34.582Z</time></trkpt><trkpt lat="32.9823739" lon="9.6511795"><ele>215.33333333333334</ele><time>2026-04-29T07:25:35.57Z</time></trkpt><trkpt lat="32.9824695" lon="9.6513221"><ele>215.0</ele><time>2026-04-29T07:25:36.575Z</time></trkpt><trkpt lat="32.9825705" lon="9.6514763"><ele>214.33333333333334</ele><time>2026-04-29T07:25:37.566Z</time></trkpt><trkpt lat="32.9826607" lon="9.651637"><ele>213.66666666666669</ele><time>2026-04-29T07:25:38.563Z</time></trkpt><trkpt lat="32.9827478" lon="9.6517903"><ele>213.0</ele><time>2026-04-29T07:25:39.571Z</time></trkpt><trkpt lat="32.9828358" lon="9.6519419"><ele>212.66666666666669</ele><time>2026-04-29T07:25:40.575Z</time></trkpt><trkpt lat="32.9829214" lon="9.6520897"><ele>212.33333333333334</ele><time>2026-04-29T07:25:41.574Z</time></trkpt><trkpt lat="32.9830064" lon="9.6522415"><ele>212.0</ele><time>2026-04-29T07:25:42.577Z</time></trkpt><trkpt lat="32.9830882" lon="9.6523995"><ele>212.0</ele><time>2026-04-29T07:25:43.564Z</time></trkpt><trkpt lat="32.9831586" lon="9.6525701"><ele>212.0</ele><time>2026-04-29T07:25:44.582Z</time></trkpt><trkpt lat="32.9832302" lon="9.6527401"><ele>212.0</ele><time>2026-04-29T07:25:45.578Z</time></trkpt><trkpt lat="32.9833087" lon="9.6529187"><ele>212.33333333333334</ele><time>2026-04-29T07:25:46.581Z</time></trkpt><trkpt lat="32.9833818" lon="9.6530976"><ele>212.66666666666669</ele><time>2026-04-29T07:25:47.568Z</time></trkpt><trkpt lat="32.983455" lon="9.6532785"><ele>213.0</ele><time>2026-04-29T07:25:48.588Z</time></trkpt><trkpt lat="32.9835321" lon="9.6534607"><ele>213.33333333333331</ele><time>2026-04-29T07:25:49.579Z</time></trkpt><trkpt lat="32.983611" lon="9.6536447"><ele>213.66666666666666</ele><time>2026-04-29T07:25:50.56Z</time></trkpt><trkpt lat="32.9836874" lon="9.6538329"><ele>214.0</ele><time>2026-04-29T07:25:51.577Z</time></trkpt><trkpt lat="32.983769" lon="9.6540222"><ele>214.0</ele><time>2026-04-29T07:25:52.565Z</time></trkpt><trkpt lat="32.9838492" lon="9.6542129"><ele>214.0</ele><time>2026-04-29T07:25:53.567Z</time></trkpt><trkpt lat="32.9839279" lon="9.6544021"><ele>214.0</ele><time>2026-04-29T07:25:54.581Z</time></trkpt><trkpt lat="32.9840101" lon="9.6545953"><ele>214.0</ele><time>2026-04-29T07:25:55.583Z</time></trkpt><trkpt lat="32.9840891" lon="9.6547978"><ele>214.0</ele><time>2026-04-29T07:25:56.569Z</time></trkpt><trkpt lat="32.9841675" lon="9.6550042"><ele>214.0</ele><time>2026-04-29T07:25:57.581Z</time></trkpt><trkpt lat="32.9842484" lon="9.6552025"><ele>214.0</ele><time>2026-04-29T07:25:58.568Z</time></trkpt><trkpt lat="32.9843258" lon="9.6554006"><ele>214.0</ele><time>2026-04-29T07:25:59.581Z</time></trkpt><trkpt lat="32.9844081" lon="9.655595"><ele>214.0</ele><time>2026-04-29T07:26:00.57Z</time></trkpt><trkpt lat="32.9844856" lon="9.6557892"><ele>214.0</ele><time>2026-04-29T07:26:01.586Z</time></trkpt><trkpt lat="32.9845674" lon="9.6559766"><ele>214.0</ele><time>2026-04-29T07:26:02.564Z</time></trkpt><trkpt lat="32.9846491" lon="9.6561654"><ele>214.0</ele><time>2026-04-29T07:26:03.555Z</time></trkpt><trkpt lat="32.984729" lon="9.6563514"><ele>214.33333333333331</ele><time>2026-04-29T07:26:04.572Z</time></trkpt><trkpt lat="32.9848119" lon="9.6565384"><ele>214.66666666666669</ele><time>2026-04-29T07:26:05.559Z</time></trkpt><trkpt lat="32.9848939" lon="9.6567229"><ele>215.0</ele><time>2026-04-29T07:26:06.616Z</time></trkpt><trkpt lat="32.9849789" lon="9.6569043"><ele>214.0</ele><time>2026-04-29T07:26:07.57Z</time></trkpt><trkpt lat="32.9850641" lon="9.6570767"><ele>213.0</ele><time>2026-04-29T07:26:08.579Z</time></trkpt><trkpt lat="32.9851505" lon="9.6572533"><ele>212.0</ele><time>2026-04-29T07:26:09.574Z</time></trkpt><trkpt lat="32.9852404" lon="9.6574257"><ele>212.0</ele><time>2026-04-29T07:26:10.561Z</time></trkpt><trkpt lat="32.9853326" lon="9.6575966"><ele>212.0</ele><time>2026-04-29T07:26:11.576Z</time></trkpt><trkpt lat="32.9854282" lon="9.6577669"><ele>212.0</ele><time>2026-04-29T07:26:12.573Z</time></trkpt><trkpt lat="32.9855358" lon="9.6579366"><ele>212.33333333333334</ele><time>2026-04-29T07:26:13.568Z</time></trkpt><trkpt lat="32.9856379" lon="9.6581084"><ele>212.66666666666669</ele><time>2026-04-29T07:26:14.564Z</time></trkpt><trkpt lat="32.9857414" lon="9.6582884"><ele>213.0</ele><time>2026-04-29T07:26:15.588Z</time></trkpt><trkpt lat="32.9858496" lon="9.6584604"><ele>212.0</ele><time>2026-04-29T07:26:16.554Z</time></trkpt><trkpt lat="32.9859609" lon="9.6586375"><ele>211.0</ele><time>2026-04-29T07:26:17.553Z</time></trkpt><trkpt lat="32.9860838" lon="9.6588155"><ele>210.0</ele><time>2026-04-29T07:26:18.566Z</time></trkpt><trkpt lat="32.9862218" lon="9.6590035"><ele>210.0</ele><time>2026-04-29T07:26:19.56Z</time></trkpt><trkpt lat="32.9863589" lon="9.6591845"><ele>210.0</ele><time>2026-04-29T07:26:20.571Z</time></trkpt><trkpt lat="32.9864996" lon="9.659366"><ele>210.0</ele><time>2026-04-29T07:26:21.57Z</time></trkpt><trkpt lat="32.986638" lon="9.6595512"><ele>210.0</ele><time>2026-04-29T07:26:22.572Z</time></trkpt><trkpt lat="32.9867751" lon="9.6597362"><ele>210.0</ele><time>2026-04-29T07:26:23.579Z</time></trkpt><trkpt lat="32.9869143" lon="9.659923"><ele>210.0</ele><time>2026-04-29T07:26:24.565Z</time></trkpt><trkpt lat="32.9870514" lon="9.6601033"><ele>210.0</ele><time>2026-04-29T07:26:25.576Z</time></trkpt><trkpt lat="32.9871856" lon="9.6602815"><ele>210.0</ele><time>2026-04-29T07:26:26.591Z</time></trkpt><trkpt lat="32.9873181" lon="9.6604519"><ele>210.0</ele><time>2026-04-29T07:26:27.575Z</time></trkpt><trkpt lat="32.9874505" lon="9.6606183"><ele>210.66666666666669</ele><time>2026-04-29T07:26:28.573Z</time></trkpt><trkpt lat="32.9875784" lon="9.6607767"><ele>211.33333333333334</ele><time>2026-04-29T07:26:29.574Z</time></trkpt><trkpt lat="32.9877063" lon="9.6609407"><ele>212.0</ele><time>2026-04-29T07:26:30.579Z</time></trkpt><trkpt lat="32.9878335" lon="9.6611056"><ele>212.0</ele><time>2026-04-29T07:26:31.575Z</time></trkpt><trkpt lat="32.9879563" lon="9.6612706"><ele>212.0</ele><time>2026-04-29T07:26:32.571Z</time></trkpt><trkpt lat="32.9880849" lon="9.6614346"><ele>212.0</ele><time>2026-04-29T07:26:33.578Z</time></trkpt><trkpt lat="32.9882101" lon="9.6615978"><ele>212.0</ele><time>2026-04-29T07:26:34.575Z</time></trkpt><trkpt lat="32.9883419" lon="9.6617717"><ele>212.0</ele><time>2026-04-29T07:26:35.577Z</time></trkpt><trkpt lat="32.9884793" lon="9.6619509"><ele>212.0</ele><time>2026-04-29T07:26:36.577Z</time></trkpt><trkpt lat="32.988619" lon="9.6621311"><ele>211.66666666666669</ele><time>2026-04-29T07:26:37.58Z</time></trkpt><trkpt lat="32.9887609" lon="9.6623169"><ele>211.33333333333331</ele><time>2026-04-29T07:26:38.588Z</time></trkpt><trkpt lat="32.9888973" lon="9.6625029"><ele>211.0</ele><time>2026-04-29T07:26:39.574Z</time></trkpt><trkpt lat="32.9890399" lon="9.6626925"><ele>211.66666666666666</ele><time>2026-04-29T07:26:40.583Z</time></trkpt><trkpt lat="32.989182" lon="9.6628783"><ele>212.33333333333331</ele><time>2026-04-29T07:26:41.573Z</time></trkpt><trkpt lat="32.9893255" lon="9.6630637"><ele>213.0</ele><time>2026-04-29T07:26:42.585Z</time></trkpt><trkpt lat="32.989469" lon="9.6632474"><ele>213.0</ele><time>2026-04-29T07:26:43.574Z</time></trkpt><trkpt lat="32.989607" lon="9.6634317"><ele>213.0</ele><time>2026-04-29T07:26:44.568Z</time></trkpt><trkpt lat="32.9897422" lon="9.6636191"><ele>213.0</ele><time>2026-04-29T07:26:45.576Z</time></trkpt><trkpt lat="32.9898806" lon="9.6637932"><ele>213.33333333333331</ele><time>2026-04-29T07:26:46.581Z</time></trkpt><trkpt lat="32.9900151" lon="9.6639677"><ele>213.66666666666666</ele><time>2026-04-29T07:26:47.565Z</time></trkpt><trkpt lat="32.9901514" lon="9.6641431"><ele>214.0</ele><time>2026-04-29T07:26:48.571Z</time></trkpt><trkpt lat="32.990294" lon="9.6643178"><ele>214.0</ele><time>2026-04-29T07:26:49.57Z</time></trkpt><trkpt lat="32.990436" lon="9.6644908"><ele>214.0</ele><time>2026-04-29T07:26:50.581Z</time></trkpt><trkpt lat="32.9905805" lon="9.6646761"><ele>214.0</ele><time>2026-04-29T07:26:51.568Z</time></trkpt><trkpt lat="32.9907257" lon="9.6648578"><ele>214.0</ele><time>2026-04-29T07:26:52.566Z</time></trkpt><trkpt lat="32.9908702" lon="9.6650435"><ele>214.0</ele><time>2026-04-29T07:26:53.566Z</time></trkpt><trkpt lat="32.9910114" lon="9.6652355"><ele>214.0</ele><time>2026-04-29T07:26:54.577Z</time></trkpt><trkpt lat="32.9911517" lon="9.6654188"><ele>214.33333333333331</ele><time>2026-04-29T07:26:55.59Z</time></trkpt><trkpt lat="32.9912899" lon="9.6656039"><ele>214.66666666666669</ele><time>2026-04-29T07:26:56.563Z</time></trkpt><trkpt lat="32.9914272" lon="9.6658002"><ele>215.0</ele><time>2026-04-29T07:26:57.569Z</time></trkpt><trkpt lat="32.9915761" lon="9.6659999"><ele>215.5</ele><time>2026-04-29T07:26:58.575Z</time></trkpt><trkpt lat="32.9917284" lon="9.6662005"><ele>216.0</ele><time>2026-04-29T07:26:59.585Z</time></trkpt><trkpt lat="32.9918831" lon="9.6664099"><ele>216.0</ele><time>2026-04-29T07:27:00.567Z</time></trkpt><trkpt lat="32.9920403" lon="9.6666169"><ele>216.0</ele><time>2026-04-29T07:27:01.573Z</time></trkpt><trkpt lat="32.9921969" lon="9.6668246"><ele>216.0</ele><time>2026-04-29T07:27:02.574Z</time></trkpt><trkpt lat="32.9923516" lon="9.6670327"><ele>216.0</ele><time>2026-04-29T07:27:03.583Z</time></trkpt><trkpt lat="32.9924992" lon="9.6672461"><ele>216.0</ele><time>2026-04-29T07:27:04.574Z</time></trkpt><trkpt lat="32.9926461" lon="9.6674575"><ele>216.0</ele><time>2026-04-29T07:27:05.57Z</time></trkpt><trkpt lat="32.9927902" lon="9.6676766"><ele>215.5</ele><time>2026-04-29T07:27:06.568Z</time></trkpt><trkpt lat="32.9929354" lon="9.6678898"><ele>215.0</ele><time>2026-04-29T07:27:07.578Z</time></trkpt><trkpt lat="32.9930799" lon="9.6681014"><ele>215.0</ele><time>2026-04-29T07:27:08.573Z</time></trkpt><trkpt lat="32.9932142" lon="9.6683087"><ele>215.0</ele><time>2026-04-29T07:27:09.572Z</time></trkpt><trkpt lat="32.9933293" lon="9.6685119"><ele>215.0</ele><time>2026-04-29T07:27:10.578Z</time></trkpt><trkpt lat="32.9934337" lon="9.6687041"><ele>215.33333333333334</ele><time>2026-04-29T07:27:11.572Z</time></trkpt><trkpt lat="32.9935294" lon="9.6688795"><ele>215.66666666666669</ele><time>2026-04-29T07:27:12.571Z</time></trkpt><trkpt lat="32.9936284" lon="9.6690456"><ele>216.0</ele><time>2026-04-29T07:27:13.585Z</time></trkpt><trkpt lat="32.9937212" lon="9.6692129"><ele>216.0</ele><time>2026-04-29T07:27:14.579Z</time></trkpt><trkpt lat="32.9938144" lon="9.6693939"><ele>216.0</ele><time>2026-04-29T07:27:15.577Z</time></trkpt><trkpt lat="32.993908" lon="9.6695906"><ele>216.0</ele><time>2026-04-29T07:27:16.574Z</time></trkpt><trkpt lat="32.9940069" lon="9.6698007"><ele>216.0</ele><time>2026-04-29T07:27:17.57Z</time></trkpt><trkpt lat="32.9941061" lon="9.6700138"><ele>216.0</ele><time>2026-04-29T07:27:18.568Z</time></trkpt><trkpt lat="32.9942063" lon="9.6702343"><ele>216.0</ele><time>2026-04-29T07:27:19.565Z</time></trkpt><trkpt lat="32.9943111" lon="9.6704589"><ele>216.0</ele><time>2026-04-29T07:27:20.576Z</time></trkpt><trkpt lat="32.9944122" lon="9.6707009"><ele>216.0</ele><time>2026-04-29T07:27:21.58Z</time></trkpt><trkpt lat="32.994512" lon="9.6709411"><ele>216.0</ele><time>2026-04-29T07:27:22.581Z</time></trkpt><trkpt lat="32.9946205" lon="9.6711814"><ele>216.0</ele><time>2026-04-29T07:27:23.564Z</time></trkpt><trkpt lat="32.9947337" lon="9.6714159"><ele>216.0</ele><time>2026-04-29T07:27:24.579Z</time></trkpt><trkpt lat="32.994852" lon="9.6716535"><ele>216.0</ele><time>2026-04-29T07:27:25.574Z</time></trkpt><trkpt lat="32.9949663" lon="9.6718947"><ele>217.0</ele><time>2026-04-29T07:27:26.577Z</time></trkpt><trkpt lat="32.9950812" lon="9.6721398"><ele>218.0</ele><time>2026-04-29T07:27:27.604Z</time></trkpt><trkpt lat="32.9951963" lon="9.6723801"><ele>218.0</ele><time>2026-04-29T07:27:28.585Z</time></trkpt><trkpt lat="32.9953078" lon="9.6726198"><ele>218.0</ele><time>2026-04-29T07:27:29.572Z</time></trkpt><trkpt lat="32.9954204" lon="9.6728541"><ele>218.0</ele><time>2026-04-29T07:27:30.575Z</time></trkpt><trkpt lat="32.9955332" lon="9.6730888"><ele>218.0</ele><time>2026-04-29T07:27:31.57Z</time></trkpt><trkpt lat="32.9956438" lon="9.6733321"><ele>218.0</ele><time>2026-04-29T07:27:32.575Z</time></trkpt><trkpt lat="32.9957505" lon="9.6735769"><ele>218.0</ele><time>2026-04-29T07:27:33.576Z</time></trkpt><trkpt lat="32.9958637" lon="9.6738184"><ele>218.0</ele><time>2026-04-29T07:27:34.589Z</time></trkpt><trkpt lat="32.9959778" lon="9.6740592"><ele>218.0</ele><time>2026-04-29T07:27:35.574Z</time></trkpt><trkpt lat="32.9960886" lon="9.6743073"><ele>217.5</ele><time>2026-04-29T07:27:36.582Z</time></trkpt><trkpt lat="32.9961992" lon="9.67455"><ele>217.0</ele><time>2026-04-29T07:27:37.571Z</time></trkpt><trkpt lat="32.9963078" lon="9.6747897"><ele>217.0</ele><time>2026-04-29T07:27:38.605Z</time></trkpt><trkpt lat="32.9964152" lon="9.675031"><ele>217.0</ele><time>2026-04-29T07:27:39.572Z</time></trkpt><trkpt lat="32.9965255" lon="9.6752669"><ele>217.5</ele><time>2026-04-29T07:27:40.571Z</time></trkpt><trkpt lat="32.9966368" lon="9.6755115"><ele>218.0</ele><time>2026-04-29T07:27:41.572Z</time></trkpt><trkpt lat="32.9967448" lon="9.6757565"><ele>219.5</ele><time>2026-04-29T07:27:42.578Z</time></trkpt><trkpt lat="32.9968566" lon="9.6760035"><ele>221.0</ele><time>2026-04-29T07:27:43.592Z</time></trkpt><trkpt lat="32.9969642" lon="9.6762484"><ele>221.0</ele><time>2026-04-29T07:27:44.576Z</time></trkpt><trkpt lat="32.9970644" lon="9.6764964"><ele>221.0</ele><time>2026-04-29T07:27:45.585Z</time></trkpt><trkpt lat="32.9971613" lon="9.676749"><ele>221.5</ele><time>2026-04-29T07:27:46.576Z</time></trkpt><trkpt lat="32.9972528" lon="9.6769957"><ele>222.0</ele><time>2026-04-29T07:27:47.588Z</time></trkpt><trkpt lat="32.9973504" lon="9.6772442"><ele>222.0</ele><time>2026-04-29T07:27:48.577Z</time></trkpt><trkpt lat="32.9974448" lon="9.6774971"><ele>222.0</ele><time>2026-04-29T07:27:49.573Z</time></trkpt><trkpt lat="32.9975303" lon="9.6777524"><ele>221.5</ele><time>2026-04-29T07:27:50.573Z</time></trkpt><trkpt lat="32.9976146" lon="9.6780118"><ele>221.0</ele><time>2026-04-29T07:27:51.582Z</time></trkpt><trkpt lat="32.9976991" lon="9.6782674"><ele>221.0</ele><time>2026-04-29T07:27:52.582Z</time></trkpt><trkpt lat="32.9977785" lon="9.6785206"><ele>221.0</ele><time>2026-04-29T07:27:53.581Z</time></trkpt><trkpt lat="32.9978529" lon="9.6787732"><ele>221.0</ele><time>2026-04-29T07:27:54.581Z</time></trkpt><trkpt lat="32.9979212" lon="9.6790257"><ele>221.0</ele><time>2026-04-29T07:27:55.585Z</time></trkpt><trkpt lat="32.9979815" lon="9.6792749"><ele>221.0</ele><time>2026-04-29T07:27:56.587Z</time></trkpt><trkpt lat="32.9980371" lon="9.679529"><ele>221.33333333333334</ele><time>2026-04-29T07:27:57.585Z</time></trkpt><trkpt lat="32.9980918" lon="9.6797809"><ele>221.66666666666669</ele><time>2026-04-29T07:27:58.571Z</time></trkpt><trkpt lat="32.9981475" lon="9.680027"><ele>222.0</ele><time>2026-04-29T07:27:59.581Z</time></trkpt><trkpt lat="32.9982009" lon="9.6802722"><ele>222.0</ele><time>2026-04-29T07:28:00.576Z</time></trkpt><trkpt lat="32.9982536" lon="9.6805143"><ele>222.0</ele><time>2026-04-29T07:28:01.57Z</time></trkpt><trkpt lat="32.9983041" lon="9.6807574"><ele>222.0</ele><time>2026-04-29T07:28:02.585Z</time></trkpt><trkpt lat="32.9983523" lon="9.6810014"><ele>222.0</ele><time>2026-04-29T07:28:03.577Z</time></trkpt><trkpt lat="32.9984025" lon="9.681251"><ele>222.0</ele><time>2026-04-29T07:28:04.586Z</time></trkpt><trkpt lat="32.9984589" lon="9.6814961"><ele>222.0</ele><time>2026-04-29T07:28:05.563Z</time></trkpt><trkpt lat="32.9985132" lon="9.6817522"><ele>222.33333333333331</ele><time>2026-04-29T07:28:06.576Z</time></trkpt><trkpt lat="32.9985622" lon="9.6820048"><ele>222.66666666666666</ele><time>2026-04-29T07:28:07.58Z</time></trkpt><trkpt lat="32.9986135" lon="9.6822534"><ele>223.0</ele><time>2026-04-29T07:28:08.565Z</time></trkpt><trkpt lat="32.9986605" lon="9.6825009"><ele>223.0</ele><time>2026-04-29T07:28:09.572Z</time></trkpt><trkpt lat="32.998709" lon="9.6827509"><ele>223.0</ele><time>2026-04-29T07:28:10.573Z</time></trkpt><trkpt lat="32.9987586" lon="9.6829986"><ele>223.0</ele><time>2026-04-29T07:28:11.571Z</time></trkpt><trkpt lat="32.9988047" lon="9.6832502"><ele>223.0</ele><time>2026-04-29T07:28:12.563Z</time></trkpt><trkpt lat="32.9988559" lon="9.6835039"><ele>223.0</ele><time>2026-04-29T07:28:13.58Z</time></trkpt><trkpt lat="32.9989051" lon="9.6837569"><ele>223.0</ele><time>2026-04-29T07:28:14.586Z</time></trkpt><trkpt lat="32.9989532" lon="9.6840094"><ele>223.0</ele><time>2026-04-29T07:28:15.573Z</time></trkpt><trkpt lat="32.9990042" lon="9.6842627"><ele>223.0</ele><time>2026-04-29T07:28:16.574Z</time></trkpt><trkpt lat="32.9990549" lon="9.6845246"><ele>223.0</ele><time>2026-04-29T07:28:17.577Z</time></trkpt><trkpt lat="32.9991058" lon="9.684787"><ele>223.0</ele><time>2026-04-29T07:28:18.584Z</time></trkpt><trkpt lat="32.9991645" lon="9.6850403"><ele>223.0</ele><time>2026-04-29T07:28:19.579Z</time></trkpt><trkpt lat="32.9992206" lon="9.6852984"><ele>223.0</ele><time>2026-04-29T07:28:20.578Z</time></trkpt><trkpt lat="32.9992727" lon="9.6855554"><ele>223.0</ele><time>2026-04-29T07:28:21.574Z</time></trkpt><trkpt lat="32.9993222" lon="9.6858109"><ele>223.0</ele><time>2026-04-29T07:28:22.574Z</time></trkpt><trkpt lat="32.9993746" lon="9.686068"><ele>223.0</ele><time>2026-04-29T07:28:23.585Z</time></trkpt><trkpt lat="32.9994294" lon="9.6863208"><ele>222.66666666666666</ele><time>2026-04-29T07:28:24.58Z</time></trkpt><trkpt lat="32.9994825" lon="9.6865742"><ele>222.33333333333331</ele><time>2026-04-29T07:28:25.584Z</time></trkpt><trkpt lat="32.999536" lon="9.6868178"><ele>222.0</ele><time>2026-04-29T07:28:26.575Z</time></trkpt><trkpt lat="32.9995851" lon="9.6870588"><ele>222.66666666666669</ele><time>2026-04-29T07:28:27.582Z</time></trkpt><trkpt lat="32.9996267" lon="9.6873046"><ele>223.33333333333334</ele><time>2026-04-29T07:28:28.566Z</time></trkpt><trkpt lat="32.9996741" lon="9.6875488"><ele>224.0</ele><time>2026-04-29T07:28:29.577Z</time></trkpt><trkpt lat="32.999719" lon="9.6878013"><ele>224.33333333333334</ele><time>2026-04-29T07:28:30.561Z</time></trkpt><trkpt lat="32.9997715" lon="9.6880491"><ele>224.66666666666669</ele><time>2026-04-29T07:28:31.57Z</time></trkpt><trkpt lat="32.9998208" lon="9.6882939"><ele>225.0</ele><time>2026-04-29T07:28:32.592Z</time></trkpt><trkpt lat="32.9998718" lon="9.6885375"><ele>224.33333333333331</ele><time>2026-04-29T07:28:33.573Z</time></trkpt><trkpt lat="32.9999232" lon="9.688783"><ele>223.66666666666666</ele><time>2026-04-29T07:28:34.578Z</time></trkpt><trkpt lat="32.9999754" lon="9.6890297"><ele>223.0</ele><time>2026-04-29T07:28:35.568Z</time></trkpt><trkpt lat="33.0000289" lon="9.6892688"><ele>223.0</ele><time>2026-04-29T07:28:36.573Z</time></trkpt><trkpt lat="33.0000808" lon="9.6895087"><ele>223.0</ele><time>2026-04-29T07:28:37.579Z</time></trkpt><trkpt lat="33.000123" lon="9.6897452"><ele>223.0</ele><time>2026-04-29T07:28:38.566Z</time></trkpt><trkpt lat="33.0001684" lon="9.6899795"><ele>223.0</ele><time>2026-04-29T07:28:39.573Z</time></trkpt><trkpt lat="33.0002173" lon="9.690214"><ele>223.0</ele><time>2026-04-29T07:28:40.576Z</time></trkpt><trkpt lat="33.0002623" lon="9.6904536"><ele>223.0</ele><time>2026-04-29T07:28:41.582Z</time></trkpt><trkpt lat="33.0003075" lon="9.6906965"><ele>222.66666666666666</ele><time>2026-04-29T07:28:42.57Z</time></trkpt><trkpt lat="33.0003522" lon="9.690943"><ele>222.33333333333331</ele><time>2026-04-29T07:28:43.571Z</time></trkpt><trkpt lat="33.0004031" lon="9.6911928"><ele>222.0</ele><time>2026-04-29T07:28:44.579Z</time></trkpt><trkpt lat="33.0004553" lon="9.6914405"><ele>222.0</ele><time>2026-04-29T07:28:45.572Z</time></trkpt><trkpt lat="33.0005061" lon="9.6916853"><ele>222.0</ele><time>2026-04-29T07:28:46.571Z</time></trkpt><trkpt lat="33.0005579" lon="9.6919377"><ele>222.0</ele><time>2026-04-29T07:28:47.586Z</time></trkpt><trkpt lat="33.0006089" lon="9.6921869"><ele>222.33333333333331</ele><time>2026-04-29T07:28:48.584Z</time></trkpt><trkpt lat="33.0006694" lon="9.6924338"><ele>222.66666666666666</ele><time>2026-04-29T07:28:49.577Z</time></trkpt><trkpt lat="33.0007311" lon="9.6926783"><ele>223.0</ele><time>2026-04-29T07:28:50.588Z</time></trkpt><trkpt lat="33.0008003" lon="9.6929266"><ele>222.66666666666666</ele><time>2026-04-29T07:28:51.565Z</time></trkpt><trkpt lat="33.0008698" lon="9.6931655"><ele>222.33333333333331</ele><time>2026-04-29T07:28:52.579Z</time></trkpt><trkpt lat="33.0009328" lon="9.6934024"><ele>222.0</ele><time>2026-04-29T07:28:53.589Z</time></trkpt><trkpt lat="33.0009986" lon="9.6936329"><ele>222.0</ele><time>2026-04-29T07:28:54.567Z</time></trkpt><trkpt lat="33.0010703" lon="9.6938566"><ele>222.0</ele><time>2026-04-29T07:28:55.577Z</time></trkpt><trkpt lat="33.001152" lon="9.6940796"><ele>222.0</ele><time>2026-04-29T07:28:56.597Z</time></trkpt><trkpt lat="33.0012375" lon="9.6943038"><ele>222.0</ele><time>2026-04-29T07:28:57.588Z</time></trkpt><trkpt lat="33.0013233" lon="9.6945306"><ele>222.0</ele><time>2026-04-29T07:28:58.578Z</time></trkpt><trkpt lat="33.0014093" lon="9.6947575"><ele>222.0</ele><time>2026-04-29T07:28:59.575Z</time></trkpt><trkpt lat="33.0014991" lon="9.6949758"><ele>222.0</ele><time>2026-04-29T07:29:00.568Z</time></trkpt><trkpt lat="33.0015928" lon="9.6951915"><ele>222.0</ele><time>2026-04-29T07:29:01.575Z</time></trkpt><trkpt lat="33.0016892" lon="9.6954038"><ele>222.0</ele><time>2026-04-29T07:29:02.581Z</time></trkpt><trkpt lat="33.0017853" lon="9.6956123"><ele>222.0</ele><time>2026-04-29T07:29:03.574Z</time></trkpt><trkpt lat="33.0018854" lon="9.6958237"><ele>222.0</ele><time>2026-04-29T07:29:04.576Z</time></trkpt><trkpt lat="33.0019895" lon="9.6960361"><ele>222.0</ele><time>2026-04-29T07:29:05.581Z</time></trkpt><trkpt lat="33.0020932" lon="9.6962442"><ele>221.33333333333331</ele><time>2026-04-29T07:29:06.575Z</time></trkpt><trkpt lat="33.0022" lon="9.6964462"><ele>220.66666666666666</ele><time>2026-04-29T07:29:07.58Z</time></trkpt><trkpt lat="33.0023066" lon="9.6966425"><ele>220.0</ele><time>2026-04-29T07:29:08.567Z</time></trkpt><trkpt lat="33.0024116" lon="9.6968469"><ele>218.33333333333331</ele><time>2026-04-29T07:29:09.568Z</time></trkpt><trkpt lat="33.0025245" lon="9.6970512"><ele>216.66666666666669</ele><time>2026-04-29T07:29:10.567Z</time></trkpt><trkpt lat="33.0026515" lon="9.6972556"><ele>215.0</ele><time>2026-04-29T07:29:11.587Z</time></trkpt><trkpt lat="33.0027846" lon="9.6974677"><ele>215.0</ele><time>2026-04-29T07:29:12.584Z</time></trkpt><trkpt lat="33.0029174" lon="9.6976849"><ele>215.0</ele><time>2026-04-29T07:29:13.589Z</time></trkpt><trkpt lat="33.0030577" lon="9.6979029"><ele>214.5</ele><time>2026-04-29T07:29:14.594Z</time></trkpt><trkpt lat="33.0032037" lon="9.6981115"><ele>214.0</ele><time>2026-04-29T07:29:15.588Z</time></trkpt><trkpt lat="33.0033529" lon="9.6983192"><ele>214.0</ele><time>2026-04-29T07:29:16.58Z</time></trkpt><trkpt lat="33.0035061" lon="9.6985241"><ele>214.0</ele><time>2026-04-29T07:29:17.595Z</time></trkpt><trkpt lat="33.0036517" lon="9.6987304"><ele>214.5</ele><time>2026-04-29T07:29:18.575Z</time></trkpt><trkpt lat="33.0037978" lon="9.6989369"><ele>215.0</ele><time>2026-04-29T07:29:19.578Z</time></trkpt><trkpt lat="33.003942" lon="9.699142"><ele>215.0</ele><time>2026-04-29T07:29:20.565Z</time></trkpt><trkpt lat="33.0040852" lon="9.6993459"><ele>215.0</ele><time>2026-04-29T07:29:21.58Z</time></trkpt><trkpt lat="33.0042283" lon="9.699551"><ele>215.0</ele><time>2026-04-29T07:29:22.587Z</time></trkpt><trkpt lat="33.0043787" lon="9.6997493"><ele>215.0</ele><time>2026-04-29T07:29:23.571Z</time></trkpt><trkpt lat="33.0045224" lon="9.699951"><ele>215.0</ele><time>2026-04-29T07:29:24.583Z</time></trkpt><trkpt lat="33.004665" lon="9.7001516"><ele>215.0</ele><time>2026-04-29T07:29:25.571Z</time></trkpt><trkpt lat="33.0048051" lon="9.7003515"><ele>214.66666666666669</ele><time>2026-04-29T07:29:26.56Z</time></trkpt><trkpt lat="33.0049446" lon="9.7005479"><ele>214.33333333333331</ele><time>2026-04-29T07:29:27.564Z</time></trkpt><trkpt lat="33.0050828" lon="9.7007376"><ele>214.0</ele><time>2026-04-29T07:29:28.581Z</time></trkpt><trkpt lat="33.0052174" lon="9.7009287"><ele>213.66666666666666</ele><time>2026-04-29T07:29:29.573Z</time></trkpt><trkpt lat="33.0053504" lon="9.7011206"><ele>213.33333333333331</ele><time>2026-04-29T07:29:30.577Z</time></trkpt><trkpt lat="33.0054838" lon="9.7013073"><ele>213.0</ele><time>2026-04-29T07:29:31.585Z</time></trkpt><trkpt lat="33.0056095" lon="9.7014944"><ele>213.0</ele><time>2026-04-29T07:29:32.576Z</time></trkpt><trkpt lat="33.0057394" lon="9.7016804"><ele>213.0</ele><time>2026-04-29T07:29:33.578Z</time></trkpt><trkpt lat="33.00587" lon="9.70186"><ele>213.0</ele><time>2026-04-29T07:29:34.584Z</time></trkpt><trkpt lat="33.0059941" lon="9.7020409"><ele>213.33333333333331</ele><time>2026-04-29T07:29:35.585Z</time></trkpt><trkpt lat="33.0061155" lon="9.7022248"><ele>213.66666666666666</ele><time>2026-04-29T07:29:36.576Z</time></trkpt><trkpt lat="33.006242" lon="9.7024107"><ele>214.0</ele><time>2026-04-29T07:29:37.564Z</time></trkpt><trkpt lat="33.0063705" lon="9.7025947"><ele>214.33333333333331</ele><time>2026-04-29T07:29:38.57Z</time></trkpt><trkpt lat="33.0064966" lon="9.7027665"><ele>214.66666666666669</ele><time>2026-04-29T07:29:39.573Z</time></trkpt><trkpt lat="33.006618" lon="9.7029353"><ele>215.0</ele><time>2026-04-29T07:29:40.554Z</time></trkpt><trkpt lat="33.0067378" lon="9.703104"><ele>215.33333333333334</ele><time>2026-04-29T07:29:41.583Z</time></trkpt><trkpt lat="33.0068554" lon="9.7032709"><ele>215.66666666666669</ele><time>2026-04-29T07:29:42.579Z</time></trkpt><trkpt lat="33.0069719" lon="9.7034416"><ele>216.0</ele><time>2026-04-29T07:29:43.583Z</time></trkpt><trkpt lat="33.0070874" lon="9.7036112"><ele>215.0</ele><time>2026-04-29T07:29:44.584Z</time></trkpt><trkpt lat="33.007207" lon="9.7037831"><ele>214.0</ele><time>2026-04-29T07:29:45.563Z</time></trkpt><trkpt lat="33.00733" lon="9.7039599"><ele>213.0</ele><time>2026-04-29T07:29:46.573Z</time></trkpt><trkpt lat="33.0074537" lon="9.7041362"><ele>213.0</ele><time>2026-04-29T07:29:47.577Z</time></trkpt><trkpt lat="33.0075806" lon="9.7043124"><ele>213.0</ele><time>2026-04-29T07:29:48.59Z</time></trkpt><trkpt lat="33.0077013" lon="9.7044708"><ele>213.0</ele><time>2026-04-29T07:29:49.589Z</time></trkpt><trkpt lat="33.0078231" lon="9.7046403"><ele>213.0</ele><time>2026-04-29T07:29:50.564Z</time></trkpt><trkpt lat="33.0079611" lon="9.7048231"><ele>213.0</ele><time>2026-04-29T07:29:51.598Z</time></trkpt><trkpt lat="33.0081153" lon="9.7050392"><ele>213.0</ele><time>2026-04-29T07:29:52.568Z</time></trkpt><trkpt lat="33.0082789" lon="9.7052789"><ele>213.5</ele><time>2026-04-29T07:29:53.583Z</time></trkpt><trkpt lat="33.0084522" lon="9.7055271"><ele>214.0</ele><time>2026-04-29T07:29:54.585Z</time></trkpt><trkpt lat="33.0086296" lon="9.7057864"><ele>214.0</ele><time>2026-04-29T07:29:55.574Z</time></trkpt><trkpt lat="33.0088087" lon="9.7060482"><ele>214.0</ele><time>2026-04-29T07:29:56.576Z</time></trkpt><trkpt lat="33.008978" lon="9.7062905"><ele>214.0</ele><time>2026-04-29T07:29:57.584Z</time></trkpt><trkpt lat="33.0091445" lon="9.7065258"><ele>214.0</ele><time>2026-04-29T07:29:58.574Z</time></trkpt><trkpt lat="33.0092985" lon="9.7067525"><ele>213.5</ele><time>2026-04-29T07:29:59.575Z</time></trkpt><trkpt lat="33.0094556" lon="9.7069747"><ele>213.0</ele><time>2026-04-29T07:30:00.571Z</time></trkpt><trkpt lat="33.0096093" lon="9.707186"><ele>213.0</ele><time>2026-04-29T07:30:01.583Z</time></trkpt><trkpt lat="33.0097609" lon="9.7073963"><ele>213.0</ele><time>2026-04-29T07:30:02.569Z</time></trkpt><trkpt lat="33.0099075" lon="9.707613"><ele>213.0</ele><time>2026-04-29T07:30:03.582Z</time></trkpt><trkpt lat="33.0100525" lon="9.7078213"><ele>213.0</ele><time>2026-04-29T07:30:04.59Z</time></trkpt><trkpt lat="33.010195" lon="9.7080265"><ele>213.0</ele><time>2026-04-29T07:30:05.567Z</time></trkpt><trkpt lat="33.0103405" lon="9.7082372"><ele>213.0</ele><time>2026-04-29T07:30:06.576Z</time></trkpt><trkpt lat="33.0104854" lon="9.7084417"><ele>214.0</ele><time>2026-04-29T07:30:07.589Z</time></trkpt><trkpt lat="33.0106333" lon="9.7086486"><ele>215.0</ele><time>2026-04-29T07:30:08.579Z</time></trkpt><trkpt lat="33.0107806" lon="9.708855"><ele>215.5</ele><time>2026-04-29T07:30:09.587Z</time></trkpt><trkpt lat="33.0109306" lon="9.7090702"><ele>216.0</ele><time>2026-04-29T07:30:10.573Z</time></trkpt><trkpt lat="33.0110812" lon="9.7092832"><ele>217.0</ele><time>2026-04-29T07:30:11.595Z</time></trkpt><trkpt lat="33.0112311" lon="9.7094948"><ele>218.0</ele><time>2026-04-29T07:30:12.576Z</time></trkpt><trkpt lat="33.0113823" lon="9.7097064"><ele>218.0</ele><time>2026-04-29T07:30:13.586Z</time></trkpt><trkpt lat="33.0115392" lon="9.7099266"><ele>218.0</ele><time>2026-04-29T07:30:14.575Z</time></trkpt><trkpt lat="33.011692" lon="9.7101395"><ele>217.5</ele><time>2026-04-29T07:30:15.572Z</time></trkpt><trkpt lat="33.0118399" lon="9.7103539"><ele>217.0</ele><time>2026-04-29T07:30:16.589Z</time></trkpt><trkpt lat="33.011994" lon="9.7105682"><ele>217.0</ele><time>2026-04-29T07:30:17.578Z</time></trkpt><trkpt lat="33.0121424" lon="9.7107867"><ele>217.0</ele><time>2026-04-29T07:30:18.574Z</time></trkpt><trkpt lat="33.0122949" lon="9.7110013"><ele>216.5</ele><time>2026-04-29T07:30:19.567Z</time></trkpt><trkpt lat="33.0124512" lon="9.7112161"><ele>216.0</ele><time>2026-04-29T07:30:20.58Z</time></trkpt><trkpt lat="33.0126054" lon="9.7114374"><ele>216.0</ele><time>2026-04-29T07:30:21.587Z</time></trkpt><trkpt lat="33.0127605" lon="9.7116554"><ele>216.0</ele><time>2026-04-29T07:30:22.578Z</time></trkpt><trkpt lat="33.0129142" lon="9.7118678"><ele>216.5</ele><time>2026-04-29T07:30:23.578Z</time></trkpt><trkpt lat="33.0130692" lon="9.712083"><ele>217.0</ele><time>2026-04-29T07:30:24.578Z</time></trkpt><trkpt lat="33.0132201" lon="9.7123015"><ele>216.5</ele><time>2026-04-29T07:30:25.583Z</time></trkpt><trkpt lat="33.0133762" lon="9.7125161"><ele>216.0</ele><time>2026-04-29T07:30:26.586Z</time></trkpt><trkpt lat="33.0135367" lon="9.7127288"><ele>216.5</ele><time>2026-04-29T07:30:27.586Z</time></trkpt><trkpt lat="33.0136923" lon="9.7129502"><ele>217.0</ele><time>2026-04-29T07:30:28.587Z</time></trkpt><trkpt lat="33.013842" lon="9.7131667"><ele>217.0</ele><time>2026-04-29T07:30:29.569Z</time></trkpt><trkpt lat="33.0139976" lon="9.7133819"><ele>217.0</ele><time>2026-04-29T07:30:30.561Z</time></trkpt><trkpt lat="33.0141439" lon="9.7136025"><ele>216.5</ele><time>2026-04-29T07:30:31.57Z</time></trkpt><trkpt lat="33.0142889" lon="9.7138205"><ele>216.0</ele><time>2026-04-29T07:30:32.568Z</time></trkpt><trkpt lat="33.0144463" lon="9.7140341"><ele>216.0</ele><time>2026-04-29T07:30:33.564Z</time></trkpt><trkpt lat="33.0146062" lon="9.7142477"><ele>216.0</ele><time>2026-04-29T07:30:34.558Z</time></trkpt><trkpt lat="33.0147623" lon="9.7144594"><ele>216.0</ele><time>2026-04-29T07:30:35.566Z</time></trkpt><trkpt lat="33.0149086" lon="9.714676"><ele>216.0</ele><time>2026-04-29T07:30:36.563Z</time></trkpt><trkpt lat="33.015057" lon="9.7148862"><ele>217.0</ele><time>2026-04-29T07:30:37.575Z</time></trkpt><trkpt lat="33.0152118" lon="9.7150947"><ele>218.0</ele><time>2026-04-29T07:30:38.58Z</time></trkpt><trkpt lat="33.0153706" lon="9.715304"><ele>218.0</ele><time>2026-04-29T07:30:39.564Z</time></trkpt><trkpt lat="33.0155131" lon="9.715522"><ele>218.0</ele><time>2026-04-29T07:30:40.57Z</time></trkpt><trkpt lat="33.0156531" lon="9.715733"><ele>218.0</ele><time>2026-04-29T07:30:41.579Z</time></trkpt><trkpt lat="33.0157993" lon="9.7159369"><ele>218.0</ele><time>2026-04-29T07:30:42.583Z</time></trkpt><trkpt lat="33.0159447" lon="9.7161479"><ele>219.33333333333334</ele><time>2026-04-29T07:30:43.563Z</time></trkpt><trkpt lat="33.0160808" lon="9.7163571"><ele>220.66666666666669</ele><time>2026-04-29T07:30:44.575Z</time></trkpt><trkpt lat="33.0162288" lon="9.7165561"><ele>222.0</ele><time>2026-04-29T07:30:45.576Z</time></trkpt><trkpt lat="33.0163803" lon="9.7167466"><ele>222.33333333333331</ele><time>2026-04-29T07:30:46.569Z</time></trkpt><trkpt lat="33.0165132" lon="9.7169425"><ele>222.66666666666666</ele><time>2026-04-29T07:30:47.566Z</time></trkpt><trkpt lat="33.0166472" lon="9.717145"><ele>223.0</ele><time>2026-04-29T07:30:48.58Z</time></trkpt><trkpt lat="33.0167793" lon="9.717338"><ele>224.0</ele><time>2026-04-29T07:30:49.572Z</time></trkpt><trkpt lat="33.016917" lon="9.7175273"><ele>225.0</ele><time>2026-04-29T07:30:50.573Z</time></trkpt><trkpt lat="33.0170551" lon="9.7177172"><ele>226.0</ele><time>2026-04-29T07:30:51.563Z</time></trkpt><trkpt lat="33.0171959" lon="9.7179147"><ele>226.0</ele><time>2026-04-29T07:30:52.572Z</time></trkpt><trkpt lat="33.0173398" lon="9.7181117"><ele>226.0</ele><time>2026-04-29T07:30:53.559Z</time></trkpt><trkpt lat="33.0174726" lon="9.7183022"><ele>226.0</ele><time>2026-04-29T07:30:54.576Z</time></trkpt><trkpt lat="33.017603" lon="9.7184934"><ele>226.0</ele><time>2026-04-29T07:30:55.578Z</time></trkpt><trkpt lat="33.0177337" lon="9.7186773"><ele>226.0</ele><time>2026-04-29T07:30:56.586Z</time></trkpt><trkpt lat="33.0178628" lon="9.71886"><ele>226.0</ele><time>2026-04-29T07:30:57.575Z</time></trkpt><trkpt lat="33.0179833" lon="9.7190404"><ele>226.0</ele><time>2026-04-29T07:30:58.565Z</time></trkpt><trkpt lat="33.0181107" lon="9.7192166"><ele>226.0</ele><time>2026-04-29T07:30:59.576Z</time></trkpt><trkpt lat="33.0182309" lon="9.7193892"><ele>226.0</ele><time>2026-04-29T07:31:00.568Z</time></trkpt><trkpt lat="33.0183531" lon="9.7195681"><ele>225.66666666666666</ele><time>2026-04-29T07:31:01.578Z</time></trkpt><trkpt lat="33.0184874" lon="9.7197481"><ele>225.33333333333331</ele><time>2026-04-29T07:31:02.585Z</time></trkpt><trkpt lat="33.0186297" lon="9.7199407"><ele>225.0</ele><time>2026-04-29T07:31:03.574Z</time></trkpt><trkpt lat="33.0187728" lon="9.720142"><ele>225.0</ele><time>2026-04-29T07:31:04.578Z</time></trkpt><trkpt lat="33.0189159" lon="9.7203402"><ele>225.0</ele><time>2026-04-29T07:31:05.577Z</time></trkpt><trkpt lat="33.019063" lon="9.7205442"><ele>225.0</ele><time>2026-04-29T07:31:06.56Z</time></trkpt><trkpt lat="33.019205" lon="9.7207432"><ele>224.5</ele><time>2026-04-29T07:31:07.579Z</time></trkpt><trkpt lat="33.0193496" lon="9.7209541"><ele>224.0</ele><time>2026-04-29T07:31:08.581Z</time></trkpt><trkpt lat="33.0194962" lon="9.7211544"><ele>224.0</ele><time>2026-04-29T07:31:09.567Z</time></trkpt><trkpt lat="33.0196437" lon="9.7213586"><ele>224.0</ele><time>2026-04-29T07:31:10.57Z</time></trkpt><trkpt lat="33.0197926" lon="9.7215712"><ele>224.0</ele><time>2026-04-29T07:31:11.559Z</time></trkpt><trkpt lat="33.0199436" lon="9.7217853"><ele>224.0</ele><time>2026-04-29T07:31:12.585Z</time></trkpt><trkpt lat="33.0200923" lon="9.7219958"><ele>223.5</ele><time>2026-04-29T07:31:13.568Z</time></trkpt><trkpt lat="33.0202432" lon="9.722207"><ele>223.0</ele><time>2026-04-29T07:31:14.571Z</time></trkpt><trkpt lat="33.0203932" lon="9.7224178"><ele>223.0</ele><time>2026-04-29T07:31:15.583Z</time></trkpt><trkpt lat="33.020543" lon="9.7226326"><ele>223.0</ele><time>2026-04-29T07:31:16.569Z</time></trkpt><trkpt lat="33.0206924" lon="9.7228586"><ele>222.5</ele><time>2026-04-29T07:31:17.579Z</time></trkpt><trkpt lat="33.0208385" lon="9.7230909"><ele>222.0</ele><time>2026-04-29T07:31:18.591Z</time></trkpt><trkpt lat="33.0209929" lon="9.7233173"><ele>222.0</ele><time>2026-04-29T07:31:19.564Z</time></trkpt><trkpt lat="33.0211519" lon="9.7235403"><ele>222.0</ele><time>2026-04-29T07:31:20.587Z</time></trkpt><trkpt lat="33.0213105" lon="9.7237571"><ele>223.0</ele><time>2026-04-29T07:31:21.568Z</time></trkpt><trkpt lat="33.0214617" lon="9.7239789"><ele>224.0</ele><time>2026-04-29T07:31:22.583Z</time></trkpt><trkpt lat="33.0216172" lon="9.7241943"><ele>223.0</ele><time>2026-04-29T07:31:23.571Z</time></trkpt><trkpt lat="33.021771" lon="9.7244122"><ele>222.0</ele><time>2026-04-29T07:31:24.575Z</time></trkpt><trkpt lat="33.021921" lon="9.7246266"><ele>222.0</ele><time>2026-04-29T07:31:25.577Z</time></trkpt><trkpt lat="33.022074" lon="9.7248365"><ele>222.0</ele><time>2026-04-29T07:31:26.568Z</time></trkpt><trkpt lat="33.0222215" lon="9.7250426"><ele>222.0</ele><time>2026-04-29T07:31:27.594Z</time></trkpt><trkpt lat="33.0223714" lon="9.725246"><ele>222.0</ele><time>2026-04-29T07:31:28.569Z</time></trkpt><trkpt lat="33.0225127" lon="9.7254558"><ele>222.0</ele><time>2026-04-29T07:31:29.579Z</time></trkpt><trkpt lat="33.0226547" lon="9.7256564"><ele>222.0</ele><time>2026-04-29T07:31:30.586Z</time></trkpt><trkpt lat="33.0227934" lon="9.7258482"><ele>222.0</ele><time>2026-04-29T07:31:31.568Z</time></trkpt><trkpt lat="33.0229329" lon="9.7260485"><ele>222.0</ele><time>2026-04-29T07:31:32.561Z</time></trkpt><trkpt lat="33.0230695" lon="9.7262591"><ele>222.0</ele><time>2026-04-29T07:31:33.576Z</time></trkpt><trkpt lat="33.02321" lon="9.7264632"><ele>222.0</ele><time>2026-04-29T07:31:34.577Z</time></trkpt><trkpt lat="33.023356" lon="9.726664"><ele>221.0</ele><time>2026-04-29T07:31:35.571Z</time></trkpt><trkpt lat="33.0235019" lon="9.7268665"><ele>220.0</ele><time>2026-04-29T07:31:36.569Z</time></trkpt><trkpt lat="33.0236509" lon="9.727069"><ele>219.5</ele><time>2026-04-29T07:31:37.567Z</time></trkpt><trkpt lat="33.0238012" lon="9.7272783"><ele>219.0</ele><time>2026-04-29T07:31:38.587Z</time></trkpt><trkpt lat="33.0239489" lon="9.7274842"><ele>219.0</ele><time>2026-04-29T07:31:39.568Z</time></trkpt><trkpt lat="33.0240979" lon="9.727692"><ele>219.0</ele><time>2026-04-29T07:31:40.576Z</time></trkpt><trkpt lat="33.0242428" lon="9.7279004"><ele>219.0</ele><time>2026-04-29T07:31:41.574Z</time></trkpt><trkpt lat="33.0243878" lon="9.7281066"><ele>219.0</ele><time>2026-04-29T07:31:42.573Z</time></trkpt><trkpt lat="33.0245351" lon="9.7283131"><ele>219.0</ele><time>2026-04-29T07:31:43.569Z</time></trkpt><trkpt lat="33.0246825" lon="9.728528"><ele>219.0</ele><time>2026-04-29T07:31:44.586Z</time></trkpt><trkpt lat="33.0248255" lon="9.7287435"><ele>219.33333333333331</ele><time>2026-04-29T07:31:45.565Z</time></trkpt><trkpt lat="33.0249743" lon="9.7289476"><ele>219.66666666666666</ele><time>2026-04-29T07:31:46.598Z</time></trkpt><trkpt lat="33.0251246" lon="9.7291421"><ele>220.0</ele><time>2026-04-29T07:31:47.566Z</time></trkpt><trkpt lat="33.0252717" lon="9.7293371"><ele>220.33333333333331</ele><time>2026-04-29T07:31:48.571Z</time></trkpt><trkpt lat="33.0254062" lon="9.7295342"><ele>220.66666666666669</ele><time>2026-04-29T07:31:49.584Z</time></trkpt><trkpt lat="33.0255395" lon="9.7297354"><ele>221.0</ele><time>2026-04-29T07:31:50.566Z</time></trkpt><trkpt lat="33.0256752" lon="9.7299261"><ele>221.0</ele><time>2026-04-29T07:31:51.561Z</time></trkpt><trkpt lat="33.0258127" lon="9.7301242"><ele>221.0</ele><time>2026-04-29T07:31:52.576Z</time></trkpt><trkpt lat="33.0259497" lon="9.7303227"><ele>221.0</ele><time>2026-04-29T07:31:53.576Z</time></trkpt><trkpt lat="33.0260951" lon="9.7305234"><ele>221.0</ele><time>2026-04-29T07:31:54.576Z</time></trkpt><trkpt lat="33.0262437" lon="9.7307172"><ele>221.0</ele><time>2026-04-29T07:31:55.569Z</time></trkpt><trkpt lat="33.0263881" lon="9.7309125"><ele>221.0</ele><time>2026-04-29T07:31:56.571Z</time></trkpt><trkpt lat="33.0265344" lon="9.7310997"><ele>221.33333333333334</ele><time>2026-04-29T07:31:57.564Z</time></trkpt><trkpt lat="33.0266747" lon="9.7312887"><ele>221.66666666666669</ele><time>2026-04-29T07:31:58.574Z</time></trkpt><trkpt lat="33.0268075" lon="9.7314773"><ele>222.0</ele><time>2026-04-29T07:31:59.587Z</time></trkpt><trkpt lat="33.0269452" lon="9.7316648"><ele>222.0</ele><time>2026-04-29T07:32:00.583Z</time></trkpt><trkpt lat="33.0270792" lon="9.7318513"><ele>222.0</ele><time>2026-04-29T07:32:01.581Z</time></trkpt><trkpt lat="33.0272035" lon="9.7320578"><ele>222.0</ele><time>2026-04-29T07:32:02.578Z</time></trkpt><trkpt lat="33.0273244" lon="9.7322564"><ele>222.0</ele><time>2026-04-29T07:32:03.576Z</time></trkpt><trkpt lat="33.0274492" lon="9.732454"><ele>222.0</ele><time>2026-04-29T07:32:04.58Z</time></trkpt><trkpt lat="33.0275743" lon="9.7326547"><ele>222.0</ele><time>2026-04-29T07:32:05.568Z</time></trkpt><trkpt lat="33.0276972" lon="9.7328569"><ele>223.0</ele><time>2026-04-29T07:32:06.566Z</time></trkpt><trkpt lat="33.0278084" lon="9.7330524"><ele>224.0</ele><time>2026-04-29T07:32:07.579Z</time></trkpt><trkpt lat="33.0279189" lon="9.7332523"><ele>225.0</ele><time>2026-04-29T07:32:08.589Z</time></trkpt><trkpt lat="33.0280301" lon="9.7334581"><ele>225.33333333333331</ele><time>2026-04-29T07:32:09.574Z</time></trkpt><trkpt lat="33.028141" lon="9.7336627"><ele>225.66666666666666</ele><time>2026-04-29T07:32:10.574Z</time></trkpt><trkpt lat="33.0282455" lon="9.7338679"><ele>226.0</ele><time>2026-04-29T07:32:11.577Z</time></trkpt><trkpt lat="33.0283456" lon="9.7340783"><ele>226.0</ele><time>2026-04-29T07:32:12.581Z</time></trkpt><trkpt lat="33.0284484" lon="9.7342947"><ele>226.0</ele><time>2026-04-29T07:32:13.569Z</time></trkpt><trkpt lat="33.028546" lon="9.7345127"><ele>226.0</ele><time>2026-04-29T07:32:14.583Z</time></trkpt><trkpt lat="33.0286432" lon="9.7347301"><ele>225.66666666666666</ele><time>2026-04-29T07:32:15.582Z</time></trkpt><trkpt lat="33.0287423" lon="9.7349499"><ele>225.33333333333331</ele><time>2026-04-29T07:32:16.574Z</time></trkpt><trkpt lat="33.0288348" lon="9.7351782"><ele>225.0</ele><time>2026-04-29T07:32:17.576Z</time></trkpt><trkpt lat="33.0289153" lon="9.735404"><ele>225.0</ele><time>2026-04-29T07:32:18.579Z</time></trkpt><trkpt lat="33.0290018" lon="9.735624"><ele>225.0</ele><time>2026-04-29T07:32:19.586Z</time></trkpt><trkpt lat="33.0290899" lon="9.735842"><ele>225.0</ele><time>2026-04-29T07:32:20.578Z</time></trkpt><trkpt lat="33.0291654" lon="9.7360612"><ele>225.33333333333331</ele><time>2026-04-29T07:32:21.581Z</time></trkpt><trkpt lat="33.0292385" lon="9.7362866"><ele>225.66666666666666</ele><time>2026-04-29T07:32:22.572Z</time></trkpt><trkpt lat="33.0293163" lon="9.7365038"><ele>226.0</ele><time>2026-04-29T07:32:23.568Z</time></trkpt><trkpt lat="33.0293924" lon="9.73672"><ele>226.33333333333331</ele><time>2026-04-29T07:32:24.584Z</time></trkpt><trkpt lat="33.0294659" lon="9.7369411"><ele>226.66666666666669</ele><time>2026-04-29T07:32:25.578Z</time></trkpt><trkpt lat="33.0295403" lon="9.7371573"><ele>227.0</ele><time>2026-04-29T07:32:26.578Z</time></trkpt><trkpt lat="33.0296113" lon="9.7373743"><ele>227.0</ele><time>2026-04-29T07:32:27.572Z</time></trkpt><trkpt lat="33.0296831" lon="9.7375877"><ele>227.0</ele><time>2026-04-29T07:32:28.572Z</time></trkpt><trkpt lat="33.0297545" lon="9.7378004"><ele>227.0</ele><time>2026-04-29T07:32:29.571Z</time></trkpt><trkpt lat="33.0298247" lon="9.7380086"><ele>226.66666666666669</ele><time>2026-04-29T07:32:30.577Z</time></trkpt><trkpt lat="33.0298922" lon="9.7382156"><ele>226.33333333333331</ele><time>2026-04-29T07:32:31.594Z</time></trkpt><trkpt lat="33.0299603" lon="9.7384154"><ele>226.0</ele><time>2026-04-29T07:32:32.572Z</time></trkpt><trkpt lat="33.0300355" lon="9.7386108"><ele>226.66666666666666</ele><time>2026-04-29T07:32:33.598Z</time></trkpt><trkpt lat="33.0301044" lon="9.7388128"><ele>227.33333333333331</ele><time>2026-04-29T07:32:34.586Z</time></trkpt><trkpt lat="33.0301694" lon="9.7390159"><ele>228.0</ele><time>2026-04-29T07:32:35.581Z</time></trkpt><trkpt lat="33.0302421" lon="9.7392172"><ele>227.0</ele><time>2026-04-29T07:32:36.576Z</time></trkpt><trkpt lat="33.030316" lon="9.7394293"><ele>226.0</ele><time>2026-04-29T07:32:37.591Z</time></trkpt><trkpt lat="33.0303895" lon="9.7396354"><ele>225.0</ele><time>2026-04-29T07:32:38.582Z</time></trkpt><trkpt lat="33.0304666" lon="9.7398472"><ele>225.0</ele><time>2026-04-29T07:32:39.58Z</time></trkpt><trkpt lat="33.0305395" lon="9.7400633"><ele>225.0</ele><time>2026-04-29T07:32:40.567Z</time></trkpt><trkpt lat="33.030617" lon="9.7402939"><ele>225.0</ele><time>2026-04-29T07:32:41.58Z</time></trkpt><trkpt lat="33.0307081" lon="9.7405404"><ele>225.5</ele><time>2026-04-29T07:32:42.586Z</time></trkpt><trkpt lat="33.0308068" lon="9.7407942"><ele>226.0</ele><time>2026-04-29T07:32:43.584Z</time></trkpt><trkpt lat="33.0309006" lon="9.7410538"><ele>226.0</ele><time>2026-04-29T07:32:44.571Z</time></trkpt><trkpt lat="33.0309895" lon="9.7413127"><ele>226.0</ele><time>2026-04-29T07:32:45.576Z</time></trkpt><trkpt lat="33.03108" lon="9.7415709"><ele>226.0</ele><time>2026-04-29T07:32:46.584Z</time></trkpt><trkpt lat="33.0311739" lon="9.7418266"><ele>226.0</ele><time>2026-04-29T07:32:47.583Z</time></trkpt><trkpt lat="33.0312673" lon="9.7420835"><ele>225.66666666666666</ele><time>2026-04-29T07:32:48.585Z</time></trkpt><trkpt lat="33.0313609" lon="9.7423294"><ele>225.33333333333331</ele><time>2026-04-29T07:32:49.565Z</time></trkpt><trkpt lat="33.0314468" lon="9.7425694"><ele>225.0</ele><time>2026-04-29T07:32:50.585Z</time></trkpt><trkpt lat="33.0315368" lon="9.7428116"><ele>225.33333333333331</ele><time>2026-04-29T07:32:51.586Z</time></trkpt><trkpt lat="33.0316171" lon="9.7430529"><ele>225.66666666666666</ele><time>2026-04-29T07:32:52.584Z</time></trkpt><trkpt lat="33.031704" lon="9.7432977"><ele>226.0</ele><time>2026-04-29T07:32:53.588Z</time></trkpt><trkpt lat="33.0317876" lon="9.74354"><ele>226.33333333333331</ele><time>2026-04-29T07:32:54.577Z</time></trkpt><trkpt lat="33.0318711" lon="9.7437659"><ele>226.66666666666669</ele><time>2026-04-29T07:32:55.586Z</time></trkpt><trkpt lat="33.0319491" lon="9.7439947"><ele>227.0</ele><time>2026-04-29T07:32:56.582Z</time></trkpt><trkpt lat="33.032028" lon="9.7442258"><ele>226.66666666666669</ele><time>2026-04-29T07:32:57.571Z</time></trkpt><trkpt lat="33.0321056" lon="9.7444553"><ele>226.33333333333331</ele><time>2026-04-29T07:32:58.592Z</time></trkpt><trkpt lat="33.032186" lon="9.7446816"><ele>226.0</ele><time>2026-04-29T07:32:59.566Z</time></trkpt><trkpt lat="33.032269" lon="9.7449094"><ele>226.0</ele><time>2026-04-29T07:33:00.589Z</time></trkpt><trkpt lat="33.0323501" lon="9.745143"><ele>226.0</ele><time>2026-04-29T07:33:01.56Z</time></trkpt><trkpt lat="33.0324313" lon="9.7453853"><ele>226.0</ele><time>2026-04-29T07:33:02.574Z</time></trkpt><trkpt lat="33.032521" lon="9.7456485"><ele>226.5</ele><time>2026-04-29T07:33:03.582Z</time></trkpt><trkpt lat="33.032603" lon="9.7459251"><ele>227.0</ele><time>2026-04-29T07:33:04.583Z</time></trkpt><trkpt lat="33.0326885" lon="9.7462121"><ele>227.0</ele><time>2026-04-29T07:33:05.569Z</time></trkpt><trkpt lat="33.0327814" lon="9.7465004"><ele>227.0</ele><time>2026-04-29T07:33:06.576Z</time></trkpt><trkpt lat="33.0328819" lon="9.7467781"><ele>228.0</ele><time>2026-04-29T07:33:07.616Z</time></trkpt><trkpt lat="33.0329796" lon="9.7470502"><ele>229.0</ele><time>2026-04-29T07:33:08.594Z</time></trkpt><trkpt lat="33.0330759" lon="9.7473224"><ele>229.0</ele><time>2026-04-29T07:33:09.571Z</time></trkpt><trkpt lat="33.0331667" lon="9.7475883"><ele>229.0</ele><time>2026-04-29T07:33:10.578Z</time></trkpt><trkpt lat="33.0332586" lon="9.747849"><ele>229.0</ele><time>2026-04-29T07:33:11.569Z</time></trkpt><trkpt lat="33.0333485" lon="9.7481041"><ele>229.0</ele><time>2026-04-29T07:33:12.575Z</time></trkpt><trkpt lat="33.0334386" lon="9.7483556"><ele>229.66666666666666</ele><time>2026-04-29T07:33:13.586Z</time></trkpt><trkpt lat="33.0335232" lon="9.7485991"><ele>230.33333333333331</ele><time>2026-04-29T07:33:14.574Z</time></trkpt><trkpt lat="33.033604" lon="9.7488259"><ele>231.0</ele><time>2026-04-29T07:33:15.584Z</time></trkpt><trkpt lat="33.0336856" lon="9.7490543"><ele>231.0</ele><time>2026-04-29T07:33:16.574Z</time></trkpt><trkpt lat="33.033767" lon="9.7492823"><ele>231.0</ele><time>2026-04-29T07:33:17.574Z</time></trkpt><trkpt lat="33.0338446" lon="9.7495106"><ele>231.0</ele><time>2026-04-29T07:33:18.583Z</time></trkpt><trkpt lat="33.0339233" lon="9.7497285"><ele>230.33333333333331</ele><time>2026-04-29T07:33:19.578Z</time></trkpt><trkpt lat="33.0339957" lon="9.7499448"><ele>229.66666666666666</ele><time>2026-04-29T07:33:20.587Z</time></trkpt><trkpt lat="33.0340686" lon="9.7501523"><ele>229.0</ele><time>2026-04-29T07:33:21.581Z</time></trkpt><trkpt lat="33.0341421" lon="9.7503641"><ele>230.33333333333331</ele><time>2026-04-29T07:33:22.568Z</time></trkpt><trkpt lat="33.034213" lon="9.75057"><ele>231.66666666666669</ele><time>2026-04-29T07:33:23.57Z</time></trkpt><trkpt lat="33.0342931" lon="9.7507797"><ele>233.0</ele><time>2026-04-29T07:33:24.588Z</time></trkpt><trkpt lat="33.0343743" lon="9.7509845"><ele>232.33333333333334</ele><time>2026-04-29T07:33:25.592Z</time></trkpt><trkpt lat="33.0344526" lon="9.7511807"><ele>231.66666666666669</ele><time>2026-04-29T07:33:26.575Z</time></trkpt><trkpt lat="33.0345415" lon="9.7513695"><ele>231.0</ele><time>2026-04-29T07:33:27.573Z</time></trkpt><trkpt lat="33.034619" lon="9.7515728"><ele>231.0</ele><time>2026-04-29T07:33:28.583Z</time></trkpt><trkpt lat="33.0347057" lon="9.7517752"><ele>231.0</ele><time>2026-04-29T07:33:29.586Z</time></trkpt><trkpt lat="33.0347939" lon="9.7519801"><ele>231.0</ele><time>2026-04-29T07:33:30.572Z</time></trkpt><trkpt lat="33.0348908" lon="9.7521727"><ele>231.33333333333331</ele><time>2026-04-29T07:33:31.578Z</time></trkpt><trkpt lat="33.0349871" lon="9.7523679"><ele>231.66666666666666</ele><time>2026-04-29T07:33:32.57Z</time></trkpt><trkpt lat="33.0350731" lon="9.7525516"><ele>232.0</ele><time>2026-04-29T07:33:33.563Z</time></trkpt><trkpt lat="33.0351677" lon="9.7527299"><ele>232.33333333333331</ele><time>2026-04-29T07:33:34.576Z</time></trkpt><trkpt lat="33.0352639" lon="9.7529037"><ele>232.66666666666669</ele><time>2026-04-29T07:33:35.591Z</time></trkpt><trkpt lat="33.0353644" lon="9.753087"><ele>233.0</ele><time>2026-04-29T07:33:36.592Z</time></trkpt><trkpt lat="33.035468" lon="9.7532722"><ele>233.0</ele><time>2026-04-29T07:33:37.582Z</time></trkpt><trkpt lat="33.0355722" lon="9.7534566"><ele>233.0</ele><time>2026-04-29T07:33:38.575Z</time></trkpt><trkpt lat="33.0356773" lon="9.7536408"><ele>233.0</ele><time>2026-04-29T07:33:39.578Z</time></trkpt><trkpt lat="33.0357824" lon="9.7538274"><ele>232.33333333333334</ele><time>2026-04-29T07:33:40.575Z</time></trkpt><trkpt lat="33.0358932" lon="9.7540006"><ele>231.66666666666669</ele><time>2026-04-29T07:33:41.57Z</time></trkpt><trkpt lat="33.0360001" lon="9.7541713"><ele>231.0</ele><time>2026-04-29T07:33:42.584Z</time></trkpt><trkpt lat="33.0361099" lon="9.7543451"><ele>231.66666666666669</ele><time>2026-04-29T07:33:43.578Z</time></trkpt><trkpt lat="33.0362268" lon="9.7545179"><ele>232.33333333333334</ele><time>2026-04-29T07:33:44.578Z</time></trkpt><trkpt lat="33.0363496" lon="9.754694"><ele>233.0</ele><time>2026-04-29T07:33:45.589Z</time></trkpt><trkpt lat="33.036478" lon="9.7548663"><ele>233.0</ele><time>2026-04-29T07:33:46.578Z</time></trkpt><trkpt lat="33.0366068" lon="9.7550369"><ele>233.0</ele><time>2026-04-29T07:33:47.592Z</time></trkpt><trkpt lat="33.0367318" lon="9.7552078"><ele>233.0</ele><time>2026-04-29T07:33:48.577Z</time></trkpt><trkpt lat="33.0368536" lon="9.7553807"><ele>233.33333333333334</ele><time>2026-04-29T07:33:49.573Z</time></trkpt><trkpt lat="33.0369734" lon="9.7555528"><ele>233.66666666666669</ele><time>2026-04-29T07:33:50.587Z</time></trkpt><trkpt lat="33.0371008" lon="9.7557197"><ele>234.0</ele><time>2026-04-29T07:33:51.573Z</time></trkpt><trkpt lat="33.0372219" lon="9.755888"><ele>234.33333333333331</ele><time>2026-04-29T07:33:52.57Z</time></trkpt><trkpt lat="33.0373421" lon="9.756058"><ele>234.66666666666666</ele><time>2026-04-29T07:33:53.577Z</time></trkpt><trkpt lat="33.0374614" lon="9.7562309"><ele>235.0</ele><time>2026-04-29T07:33:54.577Z</time></trkpt><trkpt lat="33.0375868" lon="9.7564053"><ele>234.33333333333331</ele><time>2026-04-29T07:33:55.598Z</time></trkpt><trkpt lat="33.0377132" lon="9.7565716"><ele>233.66666666666669</ele><time>2026-04-29T07:33:56.575Z</time></trkpt><trkpt lat="33.0378326" lon="9.7567398"><ele>233.0</ele><time>2026-04-29T07:33:57.579Z</time></trkpt><trkpt lat="33.0379582" lon="9.7569034"><ele>233.0</ele><time>2026-04-29T07:33:58.589Z</time></trkpt><trkpt lat="33.0380794" lon="9.7570701"><ele>233.0</ele><time>2026-04-29T07:33:59.592Z</time></trkpt><trkpt lat="33.0382027" lon="9.7572439"><ele>233.0</ele><time>2026-04-29T07:34:00.588Z</time></trkpt><trkpt lat="33.0383192" lon="9.7574154"><ele>233.0</ele><time>2026-04-29T07:34:01.586Z</time></trkpt><trkpt lat="33.038439" lon="9.7575838"><ele>233.0</ele><time>2026-04-29T07:34:02.576Z</time></trkpt><trkpt lat="33.0385622" lon="9.7577505"><ele>233.0</ele><time>2026-04-29T07:34:03.581Z</time></trkpt><trkpt lat="33.0386811" lon="9.7579177"><ele>233.66666666666669</ele><time>2026-04-29T07:34:04.591Z</time></trkpt><trkpt lat="33.0387965" lon="9.7580852"><ele>234.33333333333331</ele><time>2026-04-29T07:34:05.581Z</time></trkpt><trkpt lat="33.0389183" lon="9.758254"><ele>235.0</ele><time>2026-04-29T07:34:06.557Z</time></trkpt><trkpt lat="33.0390382" lon="9.758418"><ele>235.0</ele><time>2026-04-29T07:34:07.571Z</time></trkpt><trkpt lat="33.039157" lon="9.7585831"><ele>235.0</ele><time>2026-04-29T07:34:08.582Z</time></trkpt><trkpt lat="33.0392732" lon="9.7587473"><ele>235.0</ele><time>2026-04-29T07:34:09.565Z</time></trkpt><trkpt lat="33.0393929" lon="9.7589184"><ele>235.0</ele><time>2026-04-29T07:34:10.587Z</time></trkpt><trkpt lat="33.0395108" lon="9.7590831"><ele>235.0</ele><time>2026-04-29T07:34:11.584Z</time></trkpt><trkpt lat="33.0396304" lon="9.7592525"><ele>235.0</ele><time>2026-04-29T07:34:12.582Z</time></trkpt><trkpt lat="33.0397556" lon="9.7594259"><ele>235.0</ele><time>2026-04-29T07:34:13.593Z</time></trkpt><trkpt lat="33.0398749" lon="9.7595975"><ele>235.0</ele><time>2026-04-29T07:34:14.588Z</time></trkpt><trkpt lat="33.0399929" lon="9.7597608"><ele>235.0</ele><time>2026-04-29T07:34:15.597Z</time></trkpt><trkpt lat="33.0401089" lon="9.759928"><ele>235.0</ele><time>2026-04-29T07:34:16.566Z</time></trkpt><trkpt lat="33.0402241" lon="9.7600944"><ele>235.0</ele><time>2026-04-29T07:34:17.569Z</time></trkpt><trkpt lat="33.0403394" lon="9.7602733"><ele>235.0</ele><time>2026-04-29T07:34:18.576Z</time></trkpt><trkpt lat="33.040452" lon="9.7604496"><ele>235.0</ele><time>2026-04-29T07:34:19.578Z</time></trkpt><trkpt lat="33.0405618" lon="9.7606412"><ele>235.0</ele><time>2026-04-29T07:34:20.583Z</time></trkpt><trkpt lat="33.0406598" lon="9.7608256"><ele>235.0</ele><time>2026-04-29T07:34:21.574Z</time></trkpt><trkpt lat="33.0407528" lon="9.7610103"><ele>235.0</ele><time>2026-04-29T07:34:22.579Z</time></trkpt><trkpt lat="33.0408407" lon="9.761194"><ele>235.0</ele><time>2026-04-29T07:34:23.579Z</time></trkpt><trkpt lat="33.0409324" lon="9.7613809"><ele>235.0</ele><time>2026-04-29T07:34:24.573Z</time></trkpt><trkpt lat="33.0410199" lon="9.761577"><ele>235.0</ele><time>2026-04-29T07:34:25.575Z</time></trkpt><trkpt lat="33.041106" lon="9.7617755"><ele>235.0</ele><time>2026-04-29T07:34:26.574Z</time></trkpt><trkpt lat="33.0411904" lon="9.7619746"><ele>235.0</ele><time>2026-04-29T07:34:27.574Z</time></trkpt><trkpt lat="33.0412738" lon="9.762169"><ele>235.0</ele><time>2026-04-29T07:34:28.572Z</time></trkpt><trkpt lat="33.0413498" lon="9.7623605"><ele>235.0</ele><time>2026-04-29T07:34:29.59Z</time></trkpt><trkpt lat="33.0414261" lon="9.762558"><ele>235.0</ele><time>2026-04-29T07:34:30.599Z</time></trkpt><trkpt lat="33.0414997" lon="9.7627529"><ele>235.0</ele><time>2026-04-29T07:34:31.58Z</time></trkpt><trkpt lat="33.0415681" lon="9.7629492"><ele>235.0</ele><time>2026-04-29T07:34:32.578Z</time></trkpt><trkpt lat="33.0416377" lon="9.7631386"><ele>235.0</ele><time>2026-04-29T07:34:33.58Z</time></trkpt><trkpt lat="33.0416958" lon="9.7633302"><ele>235.33333333333331</ele><time>2026-04-29T07:34:34.583Z</time></trkpt><trkpt lat="33.041754" lon="9.7635273"><ele>235.66666666666669</ele><time>2026-04-29T07:34:35.56Z</time></trkpt><trkpt lat="33.0418069" lon="9.7637242"><ele>236.0</ele><time>2026-04-29T07:34:36.582Z</time></trkpt><trkpt lat="33.0418621" lon="9.7639239"><ele>235.66666666666669</ele><time>2026-04-29T07:34:37.568Z</time></trkpt><trkpt lat="33.0419152" lon="9.7641201"><ele>235.33333333333331</ele><time>2026-04-29T07:34:38.587Z</time></trkpt><trkpt lat="33.0419632" lon="9.764317"><ele>235.0</ele><time>2026-04-29T07:34:39.583Z</time></trkpt><trkpt lat="33.0420126" lon="9.7645116"><ele>235.0</ele><time>2026-04-29T07:34:40.58Z</time></trkpt><trkpt lat="33.042057" lon="9.7647093"><ele>235.0</ele><time>2026-04-29T07:34:41.586Z</time></trkpt><trkpt lat="33.0421008" lon="9.7649175"><ele>235.0</ele><time>2026-04-29T07:34:42.576Z</time></trkpt><trkpt lat="33.0421425" lon="9.7651263"><ele>235.33333333333331</ele><time>2026-04-29T07:34:43.579Z</time></trkpt><trkpt lat="33.0421821" lon="9.7653364"><ele>235.66666666666669</ele><time>2026-04-29T07:34:44.563Z</time></trkpt><trkpt lat="33.042221" lon="9.765545"><ele>236.0</ele><time>2026-04-29T07:34:45.572Z</time></trkpt><trkpt lat="33.042254" lon="9.765752"><ele>236.0</ele><time>2026-04-29T07:34:46.575Z</time></trkpt><trkpt lat="33.0422869" lon="9.7659602"><ele>236.0</ele><time>2026-04-29T07:34:47.584Z</time></trkpt><trkpt lat="33.0423154" lon="9.7661719"><ele>236.0</ele><time>2026-04-29T07:34:48.567Z</time></trkpt><trkpt lat="33.0423351" lon="9.7663818"><ele>236.0</ele><time>2026-04-29T07:34:49.599Z</time></trkpt><trkpt lat="33.0423521" lon="9.766589"><ele>236.0</ele><time>2026-04-29T07:34:50.578Z</time></trkpt><trkpt lat="33.0423628" lon="9.7668039"><ele>236.0</ele><time>2026-04-29T07:34:51.574Z</time></trkpt><trkpt lat="33.0423715" lon="9.7670205"><ele>236.0</ele><time>2026-04-29T07:34:52.581Z</time></trkpt><trkpt lat="33.0423813" lon="9.7672379"><ele>236.0</ele><time>2026-04-29T07:34:53.567Z</time></trkpt><trkpt lat="33.0423945" lon="9.7674551"><ele>236.0</ele><time>2026-04-29T07:34:54.563Z</time></trkpt><trkpt lat="33.0424044" lon="9.7676815"><ele>236.33333333333334</ele><time>2026-04-29T07:34:55.569Z</time></trkpt><trkpt lat="33.0424064" lon="9.767905"><ele>236.66666666666669</ele><time>2026-04-29T07:34:56.568Z</time></trkpt><trkpt lat="33.0424043" lon="9.7681331"><ele>237.0</ele><time>2026-04-29T07:34:57.577Z</time></trkpt><trkpt lat="33.0424006" lon="9.7683622"><ele>237.33333333333331</ele><time>2026-04-29T07:34:58.577Z</time></trkpt><trkpt lat="33.0423963" lon="9.7685896"><ele>237.66666666666666</ele><time>2026-04-29T07:34:59.575Z</time></trkpt><trkpt lat="33.0423893" lon="9.7688165"><ele>238.0</ele><time>2026-04-29T07:35:00.583Z</time></trkpt><trkpt lat="33.0423791" lon="9.7690413"><ele>238.0</ele><time>2026-04-29T07:35:01.571Z</time></trkpt><trkpt lat="33.0423644" lon="9.7692749"><ele>238.0</ele><time>2026-04-29T07:35:02.583Z</time></trkpt><trkpt lat="33.0423458" lon="9.7695089"><ele>238.0</ele><time>2026-04-29T07:35:03.592Z</time></trkpt><trkpt lat="33.0423259" lon="9.7697416"><ele>238.33333333333331</ele><time>2026-04-29T07:35:04.571Z</time></trkpt><trkpt lat="33.0423039" lon="9.7699729"><ele>238.66666666666669</ele><time>2026-04-29T07:35:05.597Z</time></trkpt><trkpt lat="33.0422821" lon="9.7702044"><ele>239.0</ele><time>2026-04-29T07:35:06.59Z</time></trkpt><trkpt lat="33.0422629" lon="9.7704374"><ele>238.33333333333334</ele><time>2026-04-29T07:35:07.581Z</time></trkpt><trkpt lat="33.0422426" lon="9.7706699"><ele>237.66666666666669</ele><time>2026-04-29T07:35:08.583Z</time></trkpt><trkpt lat="33.042225" lon="9.7708962"><ele>237.0</ele><time>2026-04-29T07:35:09.57Z</time></trkpt><trkpt lat="33.0422049" lon="9.7711259"><ele>236.66666666666669</ele><time>2026-04-29T07:35:10.588Z</time></trkpt><trkpt lat="33.0421822" lon="9.7713538"><ele>236.33333333333334</ele><time>2026-04-29T07:35:11.575Z</time></trkpt><trkpt lat="33.0421591" lon="9.7715814"><ele>236.0</ele><time>2026-04-29T07:35:12.581Z</time></trkpt><trkpt lat="33.0421437" lon="9.7718087"><ele>237.0</ele><time>2026-04-29T07:35:13.57Z</time></trkpt><trkpt lat="33.0421231" lon="9.7720402"><ele>238.0</ele><time>2026-04-29T07:35:14.567Z</time></trkpt><trkpt lat="33.042105" lon="9.772265"><ele>239.0</ele><time>2026-04-29T07:35:15.565Z</time></trkpt><trkpt lat="33.0420877" lon="9.7724849"><ele>238.66666666666669</ele><time>2026-04-29T07:35:16.588Z</time></trkpt><trkpt lat="33.0420683" lon="9.7727027"><ele>238.33333333333331</ele><time>2026-04-29T07:35:17.575Z</time></trkpt><trkpt lat="33.0420503" lon="9.7729167"><ele>238.0</ele><time>2026-04-29T07:35:18.577Z</time></trkpt><trkpt lat="33.0420311" lon="9.7731314"><ele>238.0</ele><time>2026-04-29T07:35:19.565Z</time></trkpt><trkpt lat="33.0420143" lon="9.7733437"><ele>238.0</ele><time>2026-04-29T07:35:20.579Z</time></trkpt><trkpt lat="33.0419952" lon="9.7735587"><ele>238.0</ele><time>2026-04-29T07:35:21.585Z</time></trkpt><trkpt lat="33.041979" lon="9.7737714"><ele>238.0</ele><time>2026-04-29T07:35:22.583Z</time></trkpt><trkpt lat="33.0419596" lon="9.7739916"><ele>238.0</ele><time>2026-04-29T07:35:23.567Z</time></trkpt><trkpt lat="33.0419393" lon="9.7742123"><ele>238.0</ele><time>2026-04-29T07:35:24.569Z</time></trkpt><trkpt lat="33.0419198" lon="9.7744335"><ele>239.33333333333331</ele><time>2026-04-29T07:35:25.582Z</time></trkpt><trkpt lat="33.0419004" lon="9.7746538"><ele>240.66666666666669</ele><time>2026-04-29T07:35:26.567Z</time></trkpt><trkpt lat="33.0418787" lon="9.7748752"><ele>242.0</ele><time>2026-04-29T07:35:27.586Z</time></trkpt><trkpt lat="33.0418581" lon="9.7750937"><ele>242.0</ele><time>2026-04-29T07:35:28.592Z</time></trkpt><trkpt lat="33.0418363" lon="9.7753081"><ele>242.0</ele><time>2026-04-29T07:35:29.576Z</time></trkpt><trkpt lat="33.0418153" lon="9.7755243"><ele>242.0</ele><time>2026-04-29T07:35:30.576Z</time></trkpt><trkpt lat="33.0417959" lon="9.7757381"><ele>242.0</ele><time>2026-04-29T07:35:31.582Z</time></trkpt><trkpt lat="33.0417762" lon="9.7759478"><ele>242.0</ele><time>2026-04-29T07:35:32.589Z</time></trkpt><trkpt lat="33.0417566" lon="9.7761572"><ele>242.0</ele><time>2026-04-29T07:35:33.574Z</time></trkpt><trkpt lat="33.0417408" lon="9.7763629"><ele>241.33333333333334</ele><time>2026-04-29T07:35:34.569Z</time></trkpt><trkpt lat="33.0417214" lon="9.7765648"><ele>240.66666666666669</ele><time>2026-04-29T07:35:35.565Z</time></trkpt><trkpt lat="33.0417027" lon="9.7767618"><ele>240.0</ele><time>2026-04-29T07:35:36.581Z</time></trkpt><trkpt lat="33.0416837" lon="9.7769521"><ele>239.75</ele><time>2026-04-29T07:35:37.568Z</time></trkpt><trkpt lat="33.0416693" lon="9.777125"><ele>239.5</ele><time>2026-04-29T07:35:38.567Z</time></trkpt><trkpt lat="33.0416559" lon="9.777272"><ele>239.25</ele><time>2026-04-29T07:35:39.575Z</time></trkpt><trkpt lat="33.0416437" lon="9.7774068"><ele>239.0</ele><time>2026-04-29T07:35:40.577Z</time></trkpt><trkpt lat="33.0416347" lon="9.7775292"><ele>239.16666666666669</ele><time>2026-04-29T07:35:41.582Z</time></trkpt><trkpt lat="33.0416268" lon="9.7776356"><ele>239.33333333333334</ele><time>2026-04-29T07:35:42.579Z</time></trkpt><trkpt lat="33.0416179" lon="9.777729"><ele>239.5</ele><time>2026-04-29T07:35:43.566Z</time></trkpt><trkpt lat="33.0416123" lon="9.777806"><ele>239.66666666666669</ele><time>2026-04-29T07:35:44.572Z</time></trkpt><trkpt lat="33.0416112" lon="9.7779113"><ele>239.83333333333334</ele><time>2026-04-29T07:35:46.576Z</time></trkpt><trkpt lat="33.041658" lon="9.7780008"><ele>240.0</ele><time>2026-04-29T07:35:48.57Z</time></trkpt><trkpt lat="33.0417656" lon="9.7780277"><ele>240.0</ele><time>2026-04-29T07:35:50.597Z</time></trkpt><trkpt lat="33.0418412" lon="9.7780172"><ele>240.0</ele><time>2026-04-29T07:35:51.572Z</time></trkpt><trkpt lat="33.0419298" lon="9.7779996"><ele>240.0</ele><time>2026-04-29T07:35:52.578Z</time></trkpt><trkpt lat="33.0420509" lon="9.7779832"><ele>240.0</ele><time>2026-04-29T07:35:53.567Z</time></trkpt><trkpt lat="33.0422074" lon="9.7779753"><ele>240.0</ele><time>2026-04-29T07:35:54.587Z</time></trkpt><trkpt lat="33.0423397" lon="9.7779755"><ele>240.0</ele><time>2026-04-29T07:35:55.588Z</time></trkpt><trkpt lat="33.042448" lon="9.7779741"><ele>240.0</ele><time>2026-04-29T07:35:56.576Z</time></trkpt><trkpt lat="33.0425522" lon="9.7779756"><ele>240.0</ele><time>2026-04-29T07:35:57.576Z</time></trkpt><trkpt lat="33.0426615" lon="9.7779841"><ele>240.0</ele><time>2026-04-29T07:35:58.59Z</time></trkpt><trkpt lat="33.0427637" lon="9.7779746"><ele>240.0</ele><time>2026-04-29T07:35:59.572Z</time></trkpt><trkpt lat="33.0428707" lon="9.7779702"><ele>239.6</ele><time>2026-04-29T07:36:00.574Z</time></trkpt><trkpt lat="33.0429786" lon="9.7779679"><ele>239.2</ele><time>2026-04-29T07:36:01.582Z</time></trkpt><trkpt lat="33.0430835" lon="9.7779583"><ele>238.8</ele><time>2026-04-29T07:36:02.576Z</time></trkpt><trkpt lat="33.0431888" lon="9.7779537"><ele>238.4</ele><time>2026-04-29T07:36:03.566Z</time></trkpt><trkpt lat="33.0432997" lon="9.7779537"><ele>238.0</ele><time>2026-04-29T07:36:04.557Z</time></trkpt><trkpt lat="33.0434131" lon="9.7779492"><ele>238.0</ele><time>2026-04-29T07:36:05.575Z</time></trkpt><trkpt lat="33.0435278" lon="9.7779375"><ele>238.0</ele><time>2026-04-29T07:36:06.571Z</time></trkpt><trkpt lat="33.043652" lon="9.7779316"><ele>238.0</ele><time>2026-04-29T07:36:07.586Z</time></trkpt><trkpt lat="33.0437772" lon="9.7779249"><ele>238.0</ele><time>2026-04-29T07:36:08.573Z</time></trkpt><trkpt lat="33.0439042" lon="9.7779164"><ele>238.0</ele><time>2026-04-29T07:36:09.568Z</time></trkpt><trkpt lat="33.0440392" lon="9.777911"><ele>238.0</ele><time>2026-04-29T07:36:10.579Z</time></trkpt><trkpt lat="33.044186" lon="9.7778992"><ele>238.0</ele><time>2026-04-29T07:36:11.584Z</time></trkpt><trkpt lat="33.0443389" lon="9.7778915"><ele>238.0</ele><time>2026-04-29T07:36:12.565Z</time></trkpt><trkpt lat="33.0444857" lon="9.7778779"><ele>238.0</ele><time>2026-04-29T07:36:13.575Z</time></trkpt><trkpt lat="33.0446342" lon="9.777863"><ele>238.0</ele><time>2026-04-29T07:36:14.584Z</time></trkpt><trkpt lat="33.0447828" lon="9.777852"><ele>238.0</ele><time>2026-04-29T07:36:15.579Z</time></trkpt><trkpt lat="33.0449304" lon="9.7778382"><ele>238.0</ele><time>2026-04-29T07:36:16.579Z</time></trkpt><trkpt lat="33.0450728" lon="9.7778262"><ele>237.25</ele><time>2026-04-29T07:36:17.578Z</time></trkpt><trkpt lat="33.04522" lon="9.7778128"><ele>236.5</ele><time>2026-04-29T07:36:18.582Z</time></trkpt><trkpt lat="33.0453673" lon="9.7777921"><ele>235.75</ele><time>2026-04-29T07:36:19.575Z</time></trkpt><trkpt lat="33.0455105" lon="9.7777647"><ele>235.0</ele><time>2026-04-29T07:36:20.581Z</time></trkpt><trkpt lat="33.0456551" lon="9.7777484"><ele>235.0</ele><time>2026-04-29T07:36:21.572Z</time></trkpt><trkpt lat="33.0457929" lon="9.777738"><ele>235.0</ele><time>2026-04-29T07:36:22.57Z</time></trkpt><trkpt lat="33.0459175" lon="9.7777209"><ele>235.0</ele><time>2026-04-29T07:36:23.561Z</time></trkpt><trkpt lat="33.0460418" lon="9.777709"><ele>235.0</ele><time>2026-04-29T07:36:24.59Z</time></trkpt><trkpt lat="33.046164" lon="9.7777001"><ele>234.25</ele><time>2026-04-29T07:36:25.59Z</time></trkpt><trkpt lat="33.0462817" lon="9.777691"><ele>233.5</ele><time>2026-04-29T07:36:26.563Z</time></trkpt><trkpt lat="33.0464002" lon="9.7776733"><ele>232.75</ele><time>2026-04-29T07:36:27.574Z</time></trkpt><trkpt lat="33.046521" lon="9.7776527"><ele>232.0</ele><time>2026-04-29T07:36:28.625Z</time></trkpt><trkpt lat="33.0466457" lon="9.7776297"><ele>232.0</ele><time>2026-04-29T07:36:29.578Z</time></trkpt><trkpt lat="33.0467677" lon="9.7776097"><ele>232.0</ele><time>2026-04-29T07:36:30.617Z</time></trkpt><trkpt lat="33.0468884" lon="9.7776029"><ele>232.0</ele><time>2026-04-29T07:36:31.572Z</time></trkpt><trkpt lat="33.0470084" lon="9.7775969"><ele>232.0</ele><time>2026-04-29T07:36:32.574Z</time></trkpt><trkpt lat="33.0471335" lon="9.7775981"><ele>232.0</ele><time>2026-04-29T07:36:33.576Z</time></trkpt><trkpt lat="33.047259" lon="9.7775974"><ele>232.0</ele><time>2026-04-29T07:36:34.575Z</time></trkpt><trkpt lat="33.0473915" lon="9.7775885"><ele>232.0</ele><time>2026-04-29T07:36:35.582Z</time></trkpt><trkpt lat="33.0475331" lon="9.7775758"><ele>232.0</ele><time>2026-04-29T07:36:36.589Z</time></trkpt><trkpt lat="33.0476642" lon="9.7775597"><ele>231.75</ele><time>2026-04-29T07:36:37.582Z</time></trkpt><trkpt lat="33.0477924" lon="9.7775452"><ele>231.5</ele><time>2026-04-29T07:36:38.609Z</time></trkpt><trkpt lat="33.0479181" lon="9.7775336"><ele>231.25</ele><time>2026-04-29T07:36:39.582Z</time></trkpt><trkpt lat="33.0480444" lon="9.7775128"><ele>231.0</ele><time>2026-04-29T07:36:40.589Z</time></trkpt><trkpt lat="33.0481793" lon="9.7774908"><ele>230.75</ele><time>2026-04-29T07:36:41.587Z</time></trkpt><trkpt lat="33.0483174" lon="9.7774741"><ele>230.5</ele><time>2026-04-29T07:36:42.578Z</time></trkpt><trkpt lat="33.0484539" lon="9.777456"><ele>230.25</ele><time>2026-04-29T07:36:43.559Z</time></trkpt><trkpt lat="33.0485926" lon="9.7774367"><ele>230.0</ele><time>2026-04-29T07:36:44.567Z</time></trkpt><trkpt lat="33.0487344" lon="9.7774156"><ele>230.0</ele><time>2026-04-29T07:36:45.588Z</time></trkpt><trkpt lat="33.0488805" lon="9.7773942"><ele>230.0</ele><time>2026-04-29T07:36:46.573Z</time></trkpt><trkpt lat="33.0490249" lon="9.7773711"><ele>230.0</ele><time>2026-04-29T07:36:47.584Z</time></trkpt><trkpt lat="33.0491744" lon="9.7773535"><ele>230.0</ele><time>2026-04-29T07:36:48.586Z</time></trkpt><trkpt lat="33.0493259" lon="9.7773293"><ele>229.66666666666669</ele><time>2026-04-29T07:36:49.582Z</time></trkpt><trkpt lat="33.0494805" lon="9.7773056"><ele>229.33333333333331</ele><time>2026-04-29T07:36:50.59Z</time></trkpt><trkpt lat="33.0496326" lon="9.7772831"><ele>229.0</ele><time>2026-04-29T07:36:51.575Z</time></trkpt><trkpt lat="33.0497914" lon="9.7772663"><ele>229.0</ele><time>2026-04-29T07:36:52.575Z</time></trkpt><trkpt lat="33.0499509" lon="9.777245"><ele>229.0</ele><time>2026-04-29T07:36:53.565Z</time></trkpt><trkpt lat="33.0501093" lon="9.7772224"><ele>229.0</ele><time>2026-04-29T07:36:54.58Z</time></trkpt><trkpt lat="33.0502682" lon="9.777204"><ele>229.66666666666666</ele><time>2026-04-29T07:36:55.592Z</time></trkpt><trkpt lat="33.0504261" lon="9.7771824"><ele>230.33333333333331</ele><time>2026-04-29T07:36:56.56Z</time></trkpt><trkpt lat="33.0505847" lon="9.7771564"><ele>231.0</ele><time>2026-04-29T07:36:57.553Z</time></trkpt><trkpt lat="33.0507456" lon="9.7771317"><ele>231.66666666666669</ele><time>2026-04-29T07:36:58.576Z</time></trkpt><trkpt lat="33.0509044" lon="9.7771106"><ele>232.33333333333334</ele><time>2026-04-29T07:36:59.576Z</time></trkpt><trkpt lat="33.0510656" lon="9.7770921"><ele>233.0</ele><time>2026-04-29T07:37:00.571Z</time></trkpt><trkpt lat="33.0512321" lon="9.7770668"><ele>233.0</ele><time>2026-04-29T07:37:01.547Z</time></trkpt><trkpt lat="33.0514011" lon="9.7770405"><ele>233.0</ele><time>2026-04-29T07:37:02.572Z</time></trkpt><trkpt lat="33.0515713" lon="9.7770158"><ele>233.0</ele><time>2026-04-29T07:37:03.578Z</time></trkpt><trkpt lat="33.0517485" lon="9.7769899"><ele>233.0</ele><time>2026-04-29T07:37:04.567Z</time></trkpt><trkpt lat="33.0519227" lon="9.7769687"><ele>233.0</ele><time>2026-04-29T07:37:05.572Z</time></trkpt><trkpt lat="33.0520974" lon="9.7769463"><ele>233.0</ele><time>2026-04-29T07:37:06.562Z</time></trkpt><trkpt lat="33.0522698" lon="9.7769273"><ele>233.0</ele><time>2026-04-29T07:37:07.584Z</time></trkpt><trkpt lat="33.0524397" lon="9.7769099"><ele>233.0</ele><time>2026-04-29T07:37:08.587Z</time></trkpt><trkpt lat="33.0526032" lon="9.7768943"><ele>233.0</ele><time>2026-04-29T07:37:09.612Z</time></trkpt><trkpt lat="33.0527595" lon="9.7768801"><ele>232.66666666666669</ele><time>2026-04-29T07:37:10.582Z</time></trkpt><trkpt lat="33.0529129" lon="9.7768589"><ele>232.33333333333331</ele><time>2026-04-29T07:37:11.578Z</time></trkpt><trkpt lat="33.053069" lon="9.7768365"><ele>232.0</ele><time>2026-04-29T07:37:12.577Z</time></trkpt><trkpt lat="33.0532226" lon="9.7768133"><ele>231.66666666666666</ele><time>2026-04-29T07:37:13.585Z</time></trkpt><trkpt lat="33.0533795" lon="9.776791"><ele>231.33333333333331</ele><time>2026-04-29T07:37:14.586Z</time></trkpt><trkpt lat="33.0535361" lon="9.7767703"><ele>231.0</ele><time>2026-04-29T07:37:15.58Z</time></trkpt><trkpt lat="33.0536898" lon="9.7767514"><ele>231.0</ele><time>2026-04-29T07:37:16.57Z</time></trkpt><trkpt lat="33.0538524" lon="9.7767353"><ele>231.0</ele><time>2026-04-29T07:37:17.576Z</time></trkpt><trkpt lat="33.0540028" lon="9.7767186"><ele>231.0</ele><time>2026-04-29T07:37:18.581Z</time></trkpt><trkpt lat="33.0541448" lon="9.7766991"><ele>231.25</ele><time>2026-04-29T07:37:19.588Z</time></trkpt><trkpt lat="33.0542843" lon="9.7766791"><ele>231.5</ele><time>2026-04-29T07:37:20.594Z</time></trkpt><trkpt lat="33.0544232" lon="9.7766629"><ele>231.75</ele><time>2026-04-29T07:37:21.602Z</time></trkpt><trkpt lat="33.0545639" lon="9.7766465"><ele>232.0</ele><time>2026-04-29T07:37:22.597Z</time></trkpt><trkpt lat="33.054705" lon="9.7766268"><ele>232.0</ele><time>2026-04-29T07:37:23.556Z</time></trkpt><trkpt lat="33.0548455" lon="9.7766059"><ele>232.0</ele><time>2026-04-29T07:37:24.577Z</time></trkpt><trkpt lat="33.0549833" lon="9.7765842"><ele>232.0</ele><time>2026-04-29T07:37:25.577Z</time></trkpt><trkpt lat="33.0551222" lon="9.776567"><ele>232.0</ele><time>2026-04-29T07:37:26.573Z</time></trkpt><trkpt lat="33.0552643" lon="9.776552"><ele>231.25</ele><time>2026-04-29T07:37:27.593Z</time></trkpt><trkpt lat="33.0554072" lon="9.7765406"><ele>230.5</ele><time>2026-04-29T07:37:28.594Z</time></trkpt><trkpt lat="33.0555489" lon="9.7765266"><ele>229.75</ele><time>2026-04-29T07:37:29.567Z</time></trkpt><trkpt lat="33.0556908" lon="9.7765095"><ele>229.0</ele><time>2026-04-29T07:37:30.572Z</time></trkpt><trkpt lat="33.0558303" lon="9.7764875"><ele>229.0</ele><time>2026-04-29T07:37:31.563Z</time></trkpt><trkpt lat="33.0559754" lon="9.7764649"><ele>229.0</ele><time>2026-04-29T07:37:32.559Z</time></trkpt><trkpt lat="33.0561175" lon="9.7764414"><ele>229.0</ele><time>2026-04-29T07:37:33.565Z</time></trkpt><trkpt lat="33.0562635" lon="9.7764152"><ele>229.0</ele><time>2026-04-29T07:37:34.572Z</time></trkpt><trkpt lat="33.0564082" lon="9.7763834"><ele>229.0</ele><time>2026-04-29T07:37:35.552Z</time></trkpt><trkpt lat="33.0565588" lon="9.7763548"><ele>229.0</ele><time>2026-04-29T07:37:36.559Z</time></trkpt><trkpt lat="33.0567037" lon="9.7763328"><ele>229.0</ele><time>2026-04-29T07:37:37.561Z</time></trkpt><trkpt lat="33.0568431" lon="9.7763141"><ele>229.0</ele><time>2026-04-29T07:37:38.557Z</time></trkpt><trkpt lat="33.0569937" lon="9.7762901"><ele>229.0</ele><time>2026-04-29T07:37:39.587Z</time></trkpt><trkpt lat="33.057139" lon="9.7762601"><ele>229.0</ele><time>2026-04-29T07:37:40.58Z</time></trkpt><trkpt lat="33.0572796" lon="9.7762328"><ele>229.0</ele><time>2026-04-29T07:37:41.594Z</time></trkpt><trkpt lat="33.0574197" lon="9.7762049"><ele>229.0</ele><time>2026-04-29T07:37:42.576Z</time></trkpt><trkpt lat="33.0575597" lon="9.7761762"><ele>229.25</ele><time>2026-04-29T07:37:43.575Z</time></trkpt><trkpt lat="33.0577002" lon="9.7761507"><ele>229.5</ele><time>2026-04-29T07:37:44.567Z</time></trkpt><trkpt lat="33.0578417" lon="9.7761256"><ele>229.75</ele><time>2026-04-29T07:37:45.575Z</time></trkpt><trkpt lat="33.0579786" lon="9.7760983"><ele>230.0</ele><time>2026-04-29T07:37:46.588Z</time></trkpt><trkpt lat="33.0581203" lon="9.7760618"><ele>230.0</ele><time>2026-04-29T07:37:47.583Z</time></trkpt><trkpt lat="33.0582618" lon="9.7760215"><ele>230.0</ele><time>2026-04-29T07:37:48.587Z</time></trkpt><trkpt lat="33.0584048" lon="9.7759849"><ele>230.0</ele><time>2026-04-29T07:37:49.574Z</time></trkpt><trkpt lat="33.0585465" lon="9.7759557"><ele>230.0</ele><time>2026-04-29T07:37:50.584Z</time></trkpt><trkpt lat="33.0586802" lon="9.7759282"><ele>230.0</ele><time>2026-04-29T07:37:51.584Z</time></trkpt><trkpt lat="33.0588066" lon="9.7759034"><ele>230.0</ele><time>2026-04-29T07:37:52.588Z</time></trkpt><trkpt lat="33.058939" lon="9.7758853"><ele>230.0</ele><time>2026-04-29T07:37:53.585Z</time></trkpt><trkpt lat="33.059072" lon="9.7758686"><ele>230.0</ele><time>2026-04-29T07:37:54.571Z</time></trkpt><trkpt lat="33.0592008" lon="9.7758496"><ele>230.0</ele><time>2026-04-29T07:37:55.588Z</time></trkpt><trkpt lat="33.0593298" lon="9.7758293"><ele>230.0</ele><time>2026-04-29T07:37:56.581Z</time></trkpt><trkpt lat="33.0594482" lon="9.7757978"><ele>230.0</ele><time>2026-04-29T07:37:57.585Z</time></trkpt><trkpt lat="33.0595704" lon="9.775772"><ele>230.0</ele><time>2026-04-29T07:37:58.587Z</time></trkpt><trkpt lat="33.059696" lon="9.7757479"><ele>230.0</ele><time>2026-04-29T07:37:59.571Z</time></trkpt><trkpt lat="33.0598242" lon="9.7757223"><ele>230.0</ele><time>2026-04-29T07:38:00.592Z</time></trkpt><trkpt lat="33.0599583" lon="9.775696"><ele>230.0</ele><time>2026-04-29T07:38:01.574Z</time></trkpt><trkpt lat="33.0600957" lon="9.7756736"><ele>230.0</ele><time>2026-04-29T07:38:02.584Z</time></trkpt><trkpt lat="33.0602385" lon="9.7756598"><ele>231.0</ele><time>2026-04-29T07:38:03.568Z</time></trkpt><trkpt lat="33.0603793" lon="9.775638"><ele>232.0</ele><time>2026-04-29T07:38:04.571Z</time></trkpt><trkpt lat="33.0605196" lon="9.7756129"><ele>233.0</ele><time>2026-04-29T07:38:05.574Z</time></trkpt><trkpt lat="33.0606665" lon="9.7755848"><ele>234.0</ele><time>2026-04-29T07:38:06.581Z</time></trkpt><trkpt lat="33.0608144" lon="9.7755555"><ele>234.66666666666669</ele><time>2026-04-29T07:38:07.571Z</time></trkpt><trkpt lat="33.0609633" lon="9.7755292"><ele>235.33333333333334</ele><time>2026-04-29T07:38:08.586Z</time></trkpt><trkpt lat="33.0611137" lon="9.7754988"><ele>236.0</ele><time>2026-04-29T07:38:09.577Z</time></trkpt><trkpt lat="33.0612677" lon="9.7754757"><ele>236.0</ele><time>2026-04-29T07:38:10.573Z</time></trkpt><trkpt lat="33.0614249" lon="9.7754547"><ele>236.0</ele><time>2026-04-29T07:38:11.592Z</time></trkpt><trkpt lat="33.0615895" lon="9.7754403"><ele>236.0</ele><time>2026-04-29T07:38:12.571Z</time></trkpt><trkpt lat="33.0617578" lon="9.7754263"><ele>236.33333333333334</ele><time>2026-04-29T07:38:13.585Z</time></trkpt><trkpt lat="33.0619283" lon="9.7754132"><ele>236.66666666666669</ele><time>2026-04-29T07:38:14.577Z</time></trkpt><trkpt lat="33.062092" lon="9.7753926"><ele>237.0</ele><time>2026-04-29T07:38:15.582Z</time></trkpt><trkpt lat="33.0622568" lon="9.7753754"><ele>237.0</ele><time>2026-04-29T07:38:16.558Z</time></trkpt><trkpt lat="33.0624267" lon="9.7753633"><ele>237.0</ele><time>2026-04-29T07:38:17.583Z</time></trkpt><trkpt lat="33.062594" lon="9.7753519"><ele>237.0</ele><time>2026-04-29T07:38:18.573Z</time></trkpt><trkpt lat="33.0627673" lon="9.7753363"><ele>237.0</ele><time>2026-04-29T07:38:19.584Z</time></trkpt><trkpt lat="33.0629402" lon="9.7753219"><ele>237.0</ele><time>2026-04-29T07:38:20.58Z</time></trkpt><trkpt lat="33.063112" lon="9.7753103"><ele>237.0</ele><time>2026-04-29T07:38:21.576Z</time></trkpt><trkpt lat="33.0632835" lon="9.7752975"><ele>237.0</ele><time>2026-04-29T07:38:22.58Z</time></trkpt><trkpt lat="33.0634472" lon="9.7752849"><ele>237.0</ele><time>2026-04-29T07:38:23.588Z</time></trkpt><trkpt lat="33.0636091" lon="9.7752672"><ele>237.0</ele><time>2026-04-29T07:38:24.575Z</time></trkpt><trkpt lat="33.0637665" lon="9.7752464"><ele>237.0</ele><time>2026-04-29T07:38:25.583Z</time></trkpt><trkpt lat="33.0639287" lon="9.7752326"><ele>237.0</ele><time>2026-04-29T07:38:26.594Z</time></trkpt><trkpt lat="33.0640802" lon="9.7752166"><ele>237.0</ele><time>2026-04-29T07:38:27.575Z</time></trkpt><trkpt lat="33.0642351" lon="9.7751994"><ele>237.66666666666669</ele><time>2026-04-29T07:38:28.585Z</time></trkpt><trkpt lat="33.06439" lon="9.7751784"><ele>238.33333333333334</ele><time>2026-04-29T07:38:29.574Z</time></trkpt><trkpt lat="33.0645502" lon="9.7751607"><ele>239.0</ele><time>2026-04-29T07:38:30.582Z</time></trkpt><trkpt lat="33.064706" lon="9.7751407"><ele>239.0</ele><time>2026-04-29T07:38:31.584Z</time></trkpt><trkpt lat="33.0648562" lon="9.7751222"><ele>239.0</ele><time>2026-04-29T07:38:32.571Z</time></trkpt><trkpt lat="33.0650098" lon="9.7751111"><ele>239.0</ele><time>2026-04-29T07:38:33.57Z</time></trkpt><trkpt lat="33.065171" lon="9.7751021"><ele>239.66666666666669</ele><time>2026-04-29T07:38:34.586Z</time></trkpt><trkpt lat="33.06533" lon="9.7750905"><ele>240.33333333333331</ele><time>2026-04-29T07:38:35.587Z</time></trkpt><trkpt lat="33.0654923" lon="9.7750839"><ele>241.0</ele><time>2026-04-29T07:38:36.579Z</time></trkpt><trkpt lat="33.0656497" lon="9.7750829"><ele>241.33333333333331</ele><time>2026-04-29T07:38:37.583Z</time></trkpt><trkpt lat="33.0658093" lon="9.7750824"><ele>241.66666666666669</ele><time>2026-04-29T07:38:38.581Z</time></trkpt><trkpt lat="33.0659722" lon="9.7750836"><ele>242.0</ele><time>2026-04-29T07:38:39.588Z</time></trkpt><trkpt lat="33.0661397" lon="9.7750846"><ele>242.0</ele><time>2026-04-29T07:38:40.565Z</time></trkpt><trkpt lat="33.0663073" lon="9.7750871"><ele>242.0</ele><time>2026-04-29T07:38:41.583Z</time></trkpt><trkpt lat="33.0664742" lon="9.7750876"><ele>242.0</ele><time>2026-04-29T07:38:42.582Z</time></trkpt><trkpt lat="33.0666426" lon="9.7750889"><ele>242.33333333333334</ele><time>2026-04-29T07:38:43.575Z</time></trkpt><trkpt lat="33.0668135" lon="9.7750884"><ele>242.66666666666669</ele><time>2026-04-29T07:38:44.567Z</time></trkpt><trkpt lat="33.0669906" lon="9.7750892"><ele>243.0</ele><time>2026-04-29T07:38:45.585Z</time></trkpt><trkpt lat="33.0671659" lon="9.7750891"><ele>243.0</ele><time>2026-04-29T07:38:46.58Z</time></trkpt><trkpt lat="33.0673369" lon="9.7750919"><ele>243.0</ele><time>2026-04-29T07:38:47.569Z</time></trkpt><trkpt lat="33.0675032" lon="9.7750967"><ele>243.0</ele><time>2026-04-29T07:38:48.574Z</time></trkpt><trkpt lat="33.0676647" lon="9.7751048"><ele>242.66666666666669</ele><time>2026-04-29T07:38:49.574Z</time></trkpt><trkpt lat="33.0678246" lon="9.7751156"><ele>242.33333333333334</ele><time>2026-04-29T07:38:50.576Z</time></trkpt><trkpt lat="33.0679756" lon="9.7751207"><ele>242.0</ele><time>2026-04-29T07:38:51.572Z</time></trkpt><trkpt lat="33.0681157" lon="9.7751347"><ele>242.0</ele><time>2026-04-29T07:38:52.579Z</time></trkpt><trkpt lat="33.0682379" lon="9.7751541"><ele>242.0</ele><time>2026-04-29T07:38:53.577Z</time></trkpt><trkpt lat="33.0683502" lon="9.7751673"><ele>242.0</ele><time>2026-04-29T07:38:54.582Z</time></trkpt><trkpt lat="33.0684471" lon="9.7751829"><ele>242.0</ele><time>2026-04-29T07:38:55.58Z</time></trkpt><trkpt lat="33.0685299" lon="9.7752"><ele>242.0</ele><time>2026-04-29T07:38:56.581Z</time></trkpt><trkpt lat="33.068595" lon="9.7752084"><ele>241.33333333333334</ele><time>2026-04-29T07:38:57.562Z</time></trkpt><trkpt lat="33.0686667" lon="9.7752336"><ele>240.66666666666669</ele><time>2026-04-29T07:38:59.574Z</time></trkpt><trkpt lat="33.0687331" lon="9.7752539"><ele>240.0</ele><time>2026-04-29T07:39:03.558Z</time></trkpt><trkpt lat="33.068835" lon="9.7752514"><ele>239.33333333333331</ele><time>2026-04-29T07:40:15.595Z</time></trkpt><trkpt lat="33.068899" lon="9.7752636"><ele>238.66666666666666</ele><time>2026-04-29T07:40:16.578Z</time></trkpt><trkpt lat="33.068973" lon="9.775274"><ele>238.0</ele><time>2026-04-29T07:40:17.592Z</time></trkpt><trkpt lat="33.0690474" lon="9.7752846"><ele>238.83333333333331</ele><time>2026-04-29T07:40:18.59Z</time></trkpt><trkpt lat="33.0691175" lon="9.7752989"><ele>239.66666666666666</ele><time>2026-04-29T07:40:19.587Z</time></trkpt><trkpt lat="33.0691816" lon="9.7753078"><ele>240.5</ele><time>2026-04-29T07:40:20.589Z</time></trkpt><trkpt lat="33.0692508" lon="9.7753103"><ele>241.33333333333331</ele><time>2026-04-29T07:40:21.599Z</time></trkpt><trkpt lat="33.0693284" lon="9.7753147"><ele>242.16666666666666</ele><time>2026-04-29T07:40:22.594Z</time></trkpt><trkpt lat="33.0694151" lon="9.7753263"><ele>243.0</ele><time>2026-04-29T07:40:23.569Z</time></trkpt><trkpt lat="33.0695115" lon="9.7753353"><ele>243.0</ele><time>2026-04-29T07:40:24.581Z</time></trkpt><trkpt lat="33.069605" lon="9.7753517"><ele>243.0</ele><time>2026-04-29T07:40:25.589Z</time></trkpt><trkpt lat="33.0697066" lon="9.7753638"><ele>243.0</ele><time>2026-04-29T07:40:26.573Z</time></trkpt><trkpt lat="33.0698006" lon="9.7753766"><ele>243.0</ele><time>2026-04-29T07:40:27.589Z</time></trkpt><trkpt lat="33.069893" lon="9.7753835"><ele>243.0</ele><time>2026-04-29T07:40:28.573Z</time></trkpt><trkpt lat="33.0699867" lon="9.775393"><ele>243.2</ele><time>2026-04-29T07:40:29.571Z</time></trkpt><trkpt lat="33.0700808" lon="9.7754116"><ele>243.4</ele><time>2026-04-29T07:40:30.587Z</time></trkpt><trkpt lat="33.0701825" lon="9.7754265"><ele>243.59999999999997</ele><time>2026-04-29T07:40:31.591Z</time></trkpt><trkpt lat="33.0702819" lon="9.7754429"><ele>243.79999999999998</ele><time>2026-04-29T07:40:32.589Z</time></trkpt><trkpt lat="33.0703786" lon="9.7754586"><ele>244.0</ele><time>2026-04-29T07:40:33.567Z</time></trkpt><trkpt lat="33.0704855" lon="9.7754697"><ele>244.0</ele><time>2026-04-29T07:40:34.568Z</time></trkpt><trkpt lat="33.0705965" lon="9.7754765"><ele>243.99999999999997</ele><time>2026-04-29T07:40:35.569Z</time></trkpt><trkpt lat="33.0707053" lon="9.7754883"><ele>243.99999999999997</ele><time>2026-04-29T07:40:36.58Z</time></trkpt><trkpt lat="33.0708131" lon="9.7754966"><ele>244.0</ele><time>2026-04-29T07:40:37.564Z</time></trkpt><trkpt lat="33.0709308" lon="9.7755122"><ele>244.0</ele><time>2026-04-29T07:40:38.609Z</time></trkpt><trkpt lat="33.071044" lon="9.7755164"><ele>244.39999999999998</ele><time>2026-04-29T07:40:39.584Z</time></trkpt><trkpt lat="33.0711524" lon="9.7755205"><ele>244.79999999999998</ele><time>2026-04-29T07:40:40.574Z</time></trkpt><trkpt lat="33.0712532" lon="9.7755247"><ele>245.20000000000002</ele><time>2026-04-29T07:40:41.583Z</time></trkpt><trkpt lat="33.0713502" lon="9.7755314"><ele>245.60000000000002</ele><time>2026-04-29T07:40:42.593Z</time></trkpt><trkpt lat="33.0714439" lon="9.775543"><ele>246.0</ele><time>2026-04-29T07:40:43.604Z</time></trkpt><trkpt lat="33.07154" lon="9.7755482"><ele>246.20000000000002</ele><time>2026-04-29T07:40:44.583Z</time></trkpt><trkpt lat="33.071637" lon="9.7755542"><ele>246.40000000000003</ele><time>2026-04-29T07:40:45.575Z</time></trkpt><trkpt lat="33.0717344" lon="9.7755569"><ele>246.6</ele><time>2026-04-29T07:40:46.587Z</time></trkpt><trkpt lat="33.07183" lon="9.7755553"><ele>246.8</ele><time>2026-04-29T07:40:47.592Z</time></trkpt><trkpt lat="33.0719358" lon="9.7755594"><ele>247.0</ele><time>2026-04-29T07:40:48.571Z</time></trkpt><trkpt lat="33.0720506" lon="9.7755696"><ele>247.0</ele><time>2026-04-29T07:40:49.57Z</time></trkpt><trkpt lat="33.0721735" lon="9.7755765"><ele>247.0</ele><time>2026-04-29T07:40:50.563Z</time></trkpt><trkpt lat="33.0722982" lon="9.7755755"><ele>247.0</ele><time>2026-04-29T07:40:51.593Z</time></trkpt><trkpt lat="33.0724296" lon="9.7755795"><ele>247.0</ele><time>2026-04-29T07:40:52.578Z</time></trkpt><trkpt lat="33.0725701" lon="9.7755798"><ele>246.25</ele><time>2026-04-29T07:40:53.578Z</time></trkpt><trkpt lat="33.0727124" lon="9.775582"><ele>245.5</ele><time>2026-04-29T07:40:54.577Z</time></trkpt><trkpt lat="33.0728567" lon="9.7755858"><ele>244.75</ele><time>2026-04-29T07:40:55.57Z</time></trkpt><trkpt lat="33.0729998" lon="9.7755868"><ele>244.0</ele><time>2026-04-29T07:40:56.565Z</time></trkpt><trkpt lat="33.073143" lon="9.775587"><ele>244.33333333333331</ele><time>2026-04-29T07:40:57.585Z</time></trkpt><trkpt lat="33.0732951" lon="9.7755891"><ele>244.66666666666669</ele><time>2026-04-29T07:40:58.594Z</time></trkpt><trkpt lat="33.0734465" lon="9.7755875"><ele>245.0</ele><time>2026-04-29T07:40:59.58Z</time></trkpt><trkpt lat="33.073602" lon="9.7755895"><ele>245.0</ele><time>2026-04-29T07:41:00.578Z</time></trkpt><trkpt lat="33.0737595" lon="9.7755892"><ele>245.0</ele><time>2026-04-29T07:41:01.578Z</time></trkpt><trkpt lat="33.0739229" lon="9.7755892"><ele>245.0</ele><time>2026-04-29T07:41:02.572Z</time></trkpt><trkpt lat="33.0740918" lon="9.7755866"><ele>245.33333333333334</ele><time>2026-04-29T07:41:03.579Z</time></trkpt><trkpt lat="33.0742641" lon="9.7755872"><ele>245.66666666666669</ele><time>2026-04-29T07:41:04.58Z</time></trkpt><trkpt lat="33.0744422" lon="9.7755788"><ele>246.0</ele><time>2026-04-29T07:41:05.579Z</time></trkpt><trkpt lat="33.0746184" lon="9.7755695"><ele>246.0</ele><time>2026-04-29T07:41:06.577Z</time></trkpt><trkpt lat="33.0747967" lon="9.7755651"><ele>246.0</ele><time>2026-04-29T07:41:07.579Z</time></trkpt><trkpt lat="33.0749713" lon="9.7755604"><ele>246.0</ele><time>2026-04-29T07:41:08.578Z</time></trkpt><trkpt lat="33.0751455" lon="9.7755534"><ele>246.66666666666669</ele><time>2026-04-29T07:41:09.576Z</time></trkpt><trkpt lat="33.0753324" lon="9.7755476"><ele>247.33333333333334</ele><time>2026-04-29T07:41:10.581Z</time></trkpt><trkpt lat="33.075516" lon="9.7755358"><ele>248.0</ele><time>2026-04-29T07:41:11.575Z</time></trkpt><trkpt lat="33.0756974" lon="9.775527"><ele>248.0</ele><time>2026-04-29T07:41:12.578Z</time></trkpt><trkpt lat="33.0758816" lon="9.77552"><ele>248.0</ele><time>2026-04-29T07:41:13.595Z</time></trkpt><trkpt lat="33.0760677" lon="9.7755035"><ele>248.0</ele><time>2026-04-29T07:41:14.597Z</time></trkpt><trkpt lat="33.0762539" lon="9.7754865"><ele>248.0</ele><time>2026-04-29T07:41:15.591Z</time></trkpt><trkpt lat="33.0764341" lon="9.7754711"><ele>248.0</ele><time>2026-04-29T07:41:16.556Z</time></trkpt><trkpt lat="33.0766171" lon="9.7754554"><ele>248.0</ele><time>2026-04-29T07:41:17.564Z</time></trkpt><trkpt lat="33.0767921" lon="9.7754346"><ele>247.66666666666669</ele><time>2026-04-29T07:41:18.571Z</time></trkpt><trkpt lat="33.0769698" lon="9.7754059"><ele>247.33333333333331</ele><time>2026-04-29T07:41:19.566Z</time></trkpt><trkpt lat="33.0771479" lon="9.7753858"><ele>247.0</ele><time>2026-04-29T07:41:20.579Z</time></trkpt><trkpt lat="33.0773258" lon="9.7753641"><ele>246.66666666666666</ele><time>2026-04-29T07:41:21.579Z</time></trkpt><trkpt lat="33.0775081" lon="9.7753405"><ele>246.33333333333331</ele><time>2026-04-29T07:41:22.564Z</time></trkpt><trkpt lat="33.0776905" lon="9.7753105"><ele>246.0</ele><time>2026-04-29T07:41:23.575Z</time></trkpt><trkpt lat="33.0778673" lon="9.775276"><ele>246.0</ele><time>2026-04-29T07:41:24.589Z</time></trkpt><trkpt lat="33.0780472" lon="9.7752391"><ele>246.0</ele><time>2026-04-29T07:41:25.568Z</time></trkpt><trkpt lat="33.0782358" lon="9.7752085"><ele>246.0</ele><time>2026-04-29T07:41:26.568Z</time></trkpt><trkpt lat="33.0784241" lon="9.7751806"><ele>246.33333333333331</ele><time>2026-04-29T07:41:27.614Z</time></trkpt><trkpt lat="33.0786197" lon="9.775152"><ele>246.66666666666666</ele><time>2026-04-29T07:41:28.584Z</time></trkpt><trkpt lat="33.0788142" lon="9.7751208"><ele>247.0</ele><time>2026-04-29T07:41:29.593Z</time></trkpt><trkpt lat="33.0790116" lon="9.7750932"><ele>247.0</ele><time>2026-04-29T07:41:30.579Z</time></trkpt><trkpt lat="33.0792106" lon="9.7750695"><ele>247.0</ele><time>2026-04-29T07:41:31.574Z</time></trkpt><trkpt lat="33.0794132" lon="9.775042"><ele>247.0</ele><time>2026-04-29T07:41:32.57Z</time></trkpt><trkpt lat="33.0796127" lon="9.7750089"><ele>247.0</ele><time>2026-04-29T07:41:33.569Z</time></trkpt><trkpt lat="33.079809" lon="9.7749712"><ele>247.0</ele><time>2026-04-29T07:41:34.566Z</time></trkpt><trkpt lat="33.0800105" lon="9.7749305"><ele>247.0</ele><time>2026-04-29T07:41:35.573Z</time></trkpt><trkpt lat="33.0802071" lon="9.7748953"><ele>246.66666666666666</ele><time>2026-04-29T07:41:36.591Z</time></trkpt><trkpt lat="33.0804035" lon="9.7748647"><ele>246.33333333333331</ele><time>2026-04-29T07:41:37.57Z</time></trkpt><trkpt lat="33.0806009" lon="9.7748251"><ele>246.0</ele><time>2026-04-29T07:41:38.567Z</time></trkpt><trkpt lat="33.0808016" lon="9.7747915"><ele>246.0</ele><time>2026-04-29T07:41:39.553Z</time></trkpt><trkpt lat="33.0809997" lon="9.774758"><ele>246.0</ele><time>2026-04-29T07:41:40.584Z</time></trkpt><trkpt lat="33.0812002" lon="9.7747201"><ele>246.0</ele><time>2026-04-29T07:41:41.589Z</time></trkpt><trkpt lat="33.0813986" lon="9.7746836"><ele>246.0</ele><time>2026-04-29T07:41:42.58Z</time></trkpt><trkpt lat="33.0815978" lon="9.7746425"><ele>246.0</ele><time>2026-04-29T07:41:43.572Z</time></trkpt><trkpt lat="33.0817927" lon="9.7745985"><ele>246.0</ele><time>2026-04-29T07:41:44.574Z</time></trkpt><trkpt lat="33.0819886" lon="9.774556"><ele>246.66666666666669</ele><time>2026-04-29T07:41:45.581Z</time></trkpt><trkpt lat="33.0821788" lon="9.7745162"><ele>247.33333333333334</ele><time>2026-04-29T07:41:46.577Z</time></trkpt><trkpt lat="33.0823754" lon="9.7744769"><ele>248.0</ele><time>2026-04-29T07:41:47.558Z</time></trkpt><trkpt lat="33.0825685" lon="9.7744306"><ele>248.66666666666669</ele><time>2026-04-29T07:41:48.587Z</time></trkpt><trkpt lat="33.0827682" lon="9.7743856"><ele>249.33333333333331</ele><time>2026-04-29T07:41:49.584Z</time></trkpt><trkpt lat="33.0829678" lon="9.7743411"><ele>250.0</ele><time>2026-04-29T07:41:50.571Z</time></trkpt><trkpt lat="33.0831694" lon="9.7742939"><ele>249.0</ele><time>2026-04-29T07:41:51.585Z</time></trkpt><trkpt lat="33.0833663" lon="9.7742473"><ele>248.0</ele><time>2026-04-29T07:41:52.583Z</time></trkpt><trkpt lat="33.0835586" lon="9.7742015"><ele>247.0</ele><time>2026-04-29T07:41:53.571Z</time></trkpt><trkpt lat="33.0837554" lon="9.7741526"><ele>247.0</ele><time>2026-04-29T07:41:54.596Z</time></trkpt><trkpt lat="33.0839477" lon="9.7741092"><ele>247.0</ele><time>2026-04-29T07:41:55.592Z</time></trkpt><trkpt lat="33.0841414" lon="9.7740634"><ele>247.0</ele><time>2026-04-29T07:41:56.565Z</time></trkpt><trkpt lat="33.0843424" lon="9.7740194"><ele>247.0</ele><time>2026-04-29T07:41:57.569Z</time></trkpt><trkpt lat="33.0845385" lon="9.773977"><ele>247.0</ele><time>2026-04-29T07:41:58.583Z</time></trkpt><trkpt lat="33.0847309" lon="9.7739334"><ele>247.0</ele><time>2026-04-29T07:41:59.566Z</time></trkpt><trkpt lat="33.0849257" lon="9.7738887"><ele>247.0</ele><time>2026-04-29T07:42:00.579Z</time></trkpt><trkpt lat="33.0851181" lon="9.773844"><ele>247.0</ele><time>2026-04-29T07:42:01.568Z</time></trkpt><trkpt lat="33.0853111" lon="9.7738007"><ele>247.0</ele><time>2026-04-29T07:42:02.579Z</time></trkpt><trkpt lat="33.0855002" lon="9.773763"><ele>247.0</ele><time>2026-04-29T07:42:03.584Z</time></trkpt><trkpt lat="33.0856866" lon="9.7737252"><ele>247.0</ele><time>2026-04-29T07:42:04.577Z</time></trkpt><trkpt lat="33.0858707" lon="9.7736845"><ele>247.0</ele><time>2026-04-29T07:42:05.566Z</time></trkpt><trkpt lat="33.0860549" lon="9.7736392"><ele>246.33333333333331</ele><time>2026-04-29T07:42:06.565Z</time></trkpt><trkpt lat="33.0862338" lon="9.7736034"><ele>245.66666666666669</ele><time>2026-04-29T07:42:07.572Z</time></trkpt><trkpt lat="33.0864123" lon="9.7735643"><ele>245.0</ele><time>2026-04-29T07:42:08.586Z</time></trkpt><trkpt lat="33.0865911" lon="9.7735242"><ele>244.66666666666669</ele><time>2026-04-29T07:42:09.581Z</time></trkpt><trkpt lat="33.0867629" lon="9.7734894"><ele>244.33333333333331</ele><time>2026-04-29T07:42:10.568Z</time></trkpt><trkpt lat="33.0869251" lon="9.7734581"><ele>244.0</ele><time>2026-04-29T07:42:11.575Z</time></trkpt><trkpt lat="33.0870796" lon="9.7734227"><ele>244.0</ele><time>2026-04-29T07:42:12.621Z</time></trkpt><trkpt lat="33.08723" lon="9.7733869"><ele>244.0</ele><time>2026-04-29T07:42:13.573Z</time></trkpt><trkpt lat="33.0873667" lon="9.7733558"><ele>244.0</ele><time>2026-04-29T07:42:14.587Z</time></trkpt><trkpt lat="33.0874875" lon="9.773325"><ele>244.0</ele><time>2026-04-29T07:42:15.572Z</time></trkpt><trkpt lat="33.0875965" lon="9.7732972"><ele>243.79999999999998</ele><time>2026-04-29T07:42:16.592Z</time></trkpt><trkpt lat="33.0876981" lon="9.7732726"><ele>243.59999999999997</ele><time>2026-04-29T07:42:17.569Z</time></trkpt><trkpt lat="33.0877823" lon="9.7732502"><ele>243.4</ele><time>2026-04-29T07:42:18.575Z</time></trkpt><trkpt lat="33.0878677" lon="9.773225"><ele>243.2</ele><time>2026-04-29T07:42:19.568Z</time></trkpt><trkpt lat="33.0879615" lon="9.7732005"><ele>243.0</ele><time>2026-04-29T07:42:20.584Z</time></trkpt><trkpt lat="33.0880651" lon="9.7731759"><ele>243.0</ele><time>2026-04-29T07:42:21.575Z</time></trkpt><trkpt lat="33.0881725" lon="9.7731507"><ele>243.0</ele><time>2026-04-29T07:42:22.579Z</time></trkpt><trkpt lat="33.0882993" lon="9.7731237"><ele>243.0</ele><time>2026-04-29T07:42:23.571Z</time></trkpt><trkpt lat="33.0884467" lon="9.7730893"><ele>243.0</ele><time>2026-04-29T07:42:24.575Z</time></trkpt><trkpt lat="33.0885942" lon="9.7730528"><ele>243.5</ele><time>2026-04-29T07:42:25.574Z</time></trkpt><trkpt lat="33.0887347" lon="9.7730111"><ele>244.0</ele><time>2026-04-29T07:42:26.581Z</time></trkpt><trkpt lat="33.0888795" lon="9.7729746"><ele>244.5</ele><time>2026-04-29T07:42:27.58Z</time></trkpt><trkpt lat="33.0890202" lon="9.7729378"><ele>245.0</ele><time>2026-04-29T07:42:28.557Z</time></trkpt><trkpt lat="33.0891622" lon="9.772901"><ele>245.25</ele><time>2026-04-29T07:42:29.567Z</time></trkpt><trkpt lat="33.0893032" lon="9.7728684"><ele>245.5</ele><time>2026-04-29T07:42:30.586Z</time></trkpt><trkpt lat="33.0894458" lon="9.7728262"><ele>245.75</ele><time>2026-04-29T07:42:31.597Z</time></trkpt><trkpt lat="33.0895937" lon="9.7727928"><ele>246.0</ele><time>2026-04-29T07:42:32.586Z</time></trkpt><trkpt lat="33.0897478" lon="9.7727575"><ele>246.0</ele><time>2026-04-29T07:42:33.611Z</time></trkpt><trkpt lat="33.0899051" lon="9.7727224"><ele>246.0</ele><time>2026-04-29T07:42:34.568Z</time></trkpt><trkpt lat="33.0900587" lon="9.7726886"><ele>246.0</ele><time>2026-04-29T07:42:35.566Z</time></trkpt><trkpt lat="33.090216" lon="9.7726555"><ele>247.0</ele><time>2026-04-29T07:42:36.569Z</time></trkpt><trkpt lat="33.0903796" lon="9.7726303"><ele>248.0</ele><time>2026-04-29T07:42:37.569Z</time></trkpt><trkpt lat="33.090543" lon="9.772611"><ele>249.0</ele><time>2026-04-29T07:42:38.568Z</time></trkpt><trkpt lat="33.0907049" lon="9.7725818"><ele>251.0</ele><time>2026-04-29T07:42:39.575Z</time></trkpt><trkpt lat="33.0908724" lon="9.7725612"><ele>253.0</ele><time>2026-04-29T07:42:40.578Z</time></trkpt><trkpt lat="33.0910301" lon="9.7725371"><ele>255.0</ele><time>2026-04-29T07:42:41.586Z</time></trkpt><trkpt lat="33.0911918" lon="9.7725136"><ele>255.0</ele><time>2026-04-29T07:42:42.584Z</time></trkpt><trkpt lat="33.0913551" lon="9.7724773"><ele>255.0</ele><time>2026-04-29T07:42:43.584Z</time></trkpt><trkpt lat="33.0915247" lon="9.772433"><ele>255.0</ele><time>2026-04-29T07:42:44.575Z</time></trkpt><trkpt lat="33.0916901" lon="9.7723863"><ele>254.33333333333331</ele><time>2026-04-29T07:42:45.608Z</time></trkpt><trkpt lat="33.091863" lon="9.7723271"><ele>253.66666666666666</ele><time>2026-04-29T07:42:46.561Z</time></trkpt><trkpt lat="33.0920429" lon="9.7722653"><ele>253.0</ele><time>2026-04-29T07:42:47.578Z</time></trkpt><trkpt lat="33.0922205" lon="9.7721944"><ele>253.0</ele><time>2026-04-29T07:42:48.58Z</time></trkpt><trkpt lat="33.0924026" lon="9.7721214"><ele>253.0</ele><time>2026-04-29T07:42:49.6Z</time></trkpt><trkpt lat="33.0925829" lon="9.7720404"><ele>253.0</ele><time>2026-04-29T07:42:50.58Z</time></trkpt><trkpt lat="33.0927613" lon="9.7719517"><ele>252.66666666666666</ele><time>2026-04-29T07:42:51.578Z</time></trkpt><trkpt lat="33.0929379" lon="9.7718654"><ele>252.33333333333331</ele><time>2026-04-29T07:42:52.567Z</time></trkpt><trkpt lat="33.0931163" lon="9.7717802"><ele>252.0</ele><time>2026-04-29T07:42:53.59Z</time></trkpt><trkpt lat="33.0932972" lon="9.7716883"><ele>251.33333333333331</ele><time>2026-04-29T07:42:54.581Z</time></trkpt><trkpt lat="33.0934714" lon="9.7715895"><ele>250.66666666666666</ele><time>2026-04-29T07:42:55.566Z</time></trkpt><trkpt lat="33.0936445" lon="9.7714905"><ele>250.0</ele><time>2026-04-29T07:42:56.583Z</time></trkpt><trkpt lat="33.093818" lon="9.7713843"><ele>250.0</ele><time>2026-04-29T07:42:57.568Z</time></trkpt><trkpt lat="33.093988" lon="9.771288"><ele>250.0</ele><time>2026-04-29T07:42:58.562Z</time></trkpt><trkpt lat="33.0941577" lon="9.7711958"><ele>250.0</ele><time>2026-04-29T07:42:59.591Z</time></trkpt><trkpt lat="33.0943202" lon="9.7711021"><ele>249.66666666666666</ele><time>2026-04-29T07:43:00.58Z</time></trkpt><trkpt lat="33.0944847" lon="9.7710006"><ele>249.33333333333331</ele><time>2026-04-29T07:43:01.58Z</time></trkpt><trkpt lat="33.0946466" lon="9.7709041"><ele>249.0</ele><time>2026-04-29T07:43:02.573Z</time></trkpt><trkpt lat="33.0948089" lon="9.7708104"><ele>248.66666666666669</ele><time>2026-04-29T07:43:03.568Z</time></trkpt><trkpt lat="33.0949728" lon="9.7707196"><ele>248.33333333333334</ele><time>2026-04-29T07:43:04.582Z</time></trkpt><trkpt lat="33.0951392" lon="9.770634"><ele>248.0</ele><time>2026-04-29T07:43:05.577Z</time></trkpt><trkpt lat="33.0953079" lon="9.7705463"><ele>248.0</ele><time>2026-04-29T07:43:06.591Z</time></trkpt><trkpt lat="33.0954765" lon="9.7704601"><ele>248.0</ele><time>2026-04-29T07:43:07.582Z</time></trkpt><trkpt lat="33.0956484" lon="9.7703758"><ele>248.0</ele><time>2026-04-29T07:43:08.568Z</time></trkpt><trkpt lat="33.0958251" lon="9.7702984"><ele>248.0</ele><time>2026-04-29T07:43:09.57Z</time></trkpt><trkpt lat="33.0960046" lon="9.770227"><ele>248.0</ele><time>2026-04-29T07:43:10.578Z</time></trkpt><trkpt lat="33.0961891" lon="9.7701523"><ele>248.0</ele><time>2026-04-29T07:43:11.58Z</time></trkpt><trkpt lat="33.0963743" lon="9.7700841"><ele>247.33333333333334</ele><time>2026-04-29T07:43:12.591Z</time></trkpt><trkpt lat="33.0965627" lon="9.7700192"><ele>246.66666666666669</ele><time>2026-04-29T07:43:13.554Z</time></trkpt><trkpt lat="33.0967587" lon="9.7699485"><ele>246.0</ele><time>2026-04-29T07:43:14.561Z</time></trkpt><trkpt lat="33.0969511" lon="9.7698808"><ele>245.66666666666669</ele><time>2026-04-29T07:43:15.572Z</time></trkpt><trkpt lat="33.0971485" lon="9.7698173"><ele>245.33333333333334</ele><time>2026-04-29T07:43:16.599Z</time></trkpt><trkpt lat="33.0973406" lon="9.7697562"><ele>245.0</ele><time>2026-04-29T07:43:17.598Z</time></trkpt><trkpt lat="33.0975378" lon="9.7697027"><ele>244.66666666666669</ele><time>2026-04-29T07:43:18.575Z</time></trkpt><trkpt lat="33.0977389" lon="9.7696665"><ele>244.33333333333331</ele><time>2026-04-29T07:43:19.591Z</time></trkpt><trkpt lat="33.0979365" lon="9.7696463"><ele>244.0</ele><time>2026-04-29T07:43:20.577Z</time></trkpt><trkpt lat="33.098137" lon="9.7696365"><ele>242.66666666666666</ele><time>2026-04-29T07:43:21.577Z</time></trkpt><trkpt lat="33.0983394" lon="9.7696385"><ele>241.33333333333331</ele><time>2026-04-29T07:43:22.599Z</time></trkpt><trkpt lat="33.0985364" lon="9.7696374"><ele>240.0</ele><time>2026-04-29T07:43:23.571Z</time></trkpt><trkpt lat="33.0987401" lon="9.7696446"><ele>240.0</ele><time>2026-04-29T07:43:24.579Z</time></trkpt><trkpt lat="33.0989471" lon="9.7696436"><ele>240.0</ele><time>2026-04-29T07:43:25.569Z</time></trkpt><trkpt lat="33.0991473" lon="9.7696437"><ele>240.0</ele><time>2026-04-29T07:43:26.576Z</time></trkpt><trkpt lat="33.0993522" lon="9.7696442"><ele>240.0</ele><time>2026-04-29T07:43:27.56Z</time></trkpt><trkpt lat="33.0995537" lon="9.7696482"><ele>240.0</ele><time>2026-04-29T07:43:28.571Z</time></trkpt><trkpt lat="33.0997576" lon="9.7696493"><ele>240.0</ele><time>2026-04-29T07:43:29.578Z</time></trkpt><trkpt lat="33.0999621" lon="9.7696488"><ele>239.66666666666669</ele><time>2026-04-29T07:43:30.567Z</time></trkpt><trkpt lat="33.1001685" lon="9.7696516"><ele>239.33333333333334</ele><time>2026-04-29T07:43:31.586Z</time></trkpt><trkpt lat="33.1003798" lon="9.769651"><ele>239.0</ele><time>2026-04-29T07:43:32.603Z</time></trkpt><trkpt lat="33.1005895" lon="9.7696523"><ele>238.66666666666669</ele><time>2026-04-29T07:43:33.573Z</time></trkpt><trkpt lat="33.1008001" lon="9.7696535"><ele>238.33333333333331</ele><time>2026-04-29T07:43:34.577Z</time></trkpt><trkpt lat="33.1010068" lon="9.7696554"><ele>238.0</ele><time>2026-04-29T07:43:35.592Z</time></trkpt><trkpt lat="33.1012149" lon="9.7696498"><ele>238.0</ele><time>2026-04-29T07:43:36.582Z</time></trkpt><trkpt lat="33.101424" lon="9.7696509"><ele>238.0</ele><time>2026-04-29T07:43:37.592Z</time></trkpt><trkpt lat="33.1016386" lon="9.7696556"><ele>238.0</ele><time>2026-04-29T07:43:38.579Z</time></trkpt><trkpt lat="33.1018493" lon="9.7696624"><ele>237.33333333333331</ele><time>2026-04-29T07:43:39.584Z</time></trkpt><trkpt lat="33.1020569" lon="9.7696681"><ele>236.66666666666669</ele><time>2026-04-29T07:43:40.568Z</time></trkpt><trkpt lat="33.1022632" lon="9.7696717"><ele>236.0</ele><time>2026-04-29T07:43:41.582Z</time></trkpt><trkpt lat="33.1024748" lon="9.769672"><ele>235.33333333333334</ele><time>2026-04-29T07:43:42.576Z</time></trkpt><trkpt lat="33.1026807" lon="9.7696765"><ele>234.66666666666669</ele><time>2026-04-29T07:43:43.578Z</time></trkpt><trkpt lat="33.1028913" lon="9.76969"><ele>234.0</ele><time>2026-04-29T07:43:44.578Z</time></trkpt><trkpt lat="33.1031055" lon="9.7697033"><ele>234.0</ele><time>2026-04-29T07:43:45.573Z</time></trkpt><trkpt lat="33.1033192" lon="9.7697121"><ele>234.0</ele><time>2026-04-29T07:43:46.584Z</time></trkpt><trkpt lat="33.1035328" lon="9.769709"><ele>234.0</ele><time>2026-04-29T07:43:47.587Z</time></trkpt><trkpt lat="33.1037457" lon="9.7697047"><ele>234.0</ele><time>2026-04-29T07:43:48.577Z</time></trkpt><trkpt lat="33.1039599" lon="9.7697074"><ele>234.0</ele><time>2026-04-29T07:43:49.579Z</time></trkpt><trkpt lat="33.1041705" lon="9.7697053"><ele>234.0</ele><time>2026-04-29T07:43:50.579Z</time></trkpt><trkpt lat="33.1043818" lon="9.7697044"><ele>233.33333333333331</ele><time>2026-04-29T07:43:51.578Z</time></trkpt><trkpt lat="33.10459" lon="9.7697136"><ele>232.66666666666666</ele><time>2026-04-29T07:43:52.582Z</time></trkpt><trkpt lat="33.1047992" lon="9.7697225"><ele>232.0</ele><time>2026-04-29T07:43:53.574Z</time></trkpt><trkpt lat="33.1050133" lon="9.7697339"><ele>232.0</ele><time>2026-04-29T07:43:54.567Z</time></trkpt><trkpt lat="33.1052252" lon="9.7697435"><ele>232.0</ele><time>2026-04-29T07:43:55.564Z</time></trkpt><trkpt lat="33.1054332" lon="9.7697565"><ele>232.0</ele><time>2026-04-29T07:43:56.589Z</time></trkpt><trkpt lat="33.1056448" lon="9.7697686"><ele>231.33333333333331</ele><time>2026-04-29T07:43:57.564Z</time></trkpt><trkpt lat="33.10585" lon="9.7697822"><ele>230.66666666666669</ele><time>2026-04-29T07:43:58.563Z</time></trkpt><trkpt lat="33.1060611" lon="9.769797"><ele>230.0</ele><time>2026-04-29T07:43:59.585Z</time></trkpt><trkpt lat="33.1062678" lon="9.7698038"><ele>230.0</ele><time>2026-04-29T07:44:00.575Z</time></trkpt><trkpt lat="33.1064842" lon="9.7697981"><ele>230.0</ele><time>2026-04-29T07:44:01.585Z</time></trkpt><trkpt lat="33.1066914" lon="9.7697732"><ele>230.0</ele><time>2026-04-29T07:44:02.586Z</time></trkpt><trkpt lat="33.1068991" lon="9.7697413"><ele>230.0</ele><time>2026-04-29T07:44:03.578Z</time></trkpt><trkpt lat="33.1071022" lon="9.7697095"><ele>230.0</ele><time>2026-04-29T07:44:04.572Z</time></trkpt><trkpt lat="33.1073045" lon="9.7696712"><ele>230.0</ele><time>2026-04-29T07:44:05.588Z</time></trkpt><trkpt lat="33.1075045" lon="9.7696275"><ele>229.66666666666669</ele><time>2026-04-29T07:44:06.576Z</time></trkpt><trkpt lat="33.1077048" lon="9.7695867"><ele>229.33333333333331</ele><time>2026-04-29T07:44:07.563Z</time></trkpt><trkpt lat="33.1079011" lon="9.769549"><ele>229.0</ele><time>2026-04-29T07:44:08.583Z</time></trkpt><trkpt lat="33.1081" lon="9.7695075"><ele>229.33333333333331</ele><time>2026-04-29T07:44:09.578Z</time></trkpt><trkpt lat="33.1082943" lon="9.7694642"><ele>229.66666666666669</ele><time>2026-04-29T07:44:10.561Z</time></trkpt><trkpt lat="33.1084823" lon="9.7694148"><ele>230.0</ele><time>2026-04-29T07:44:11.562Z</time></trkpt><trkpt lat="33.1086626" lon="9.7693686"><ele>229.0</ele><time>2026-04-29T07:44:12.599Z</time></trkpt><trkpt lat="33.1088338" lon="9.7693324"><ele>228.0</ele><time>2026-04-29T07:44:13.575Z</time></trkpt><trkpt lat="33.108983" lon="9.7693015"><ele>227.0</ele><time>2026-04-29T07:44:14.584Z</time></trkpt><trkpt lat="33.1091213" lon="9.7692708"><ele>226.75</ele><time>2026-04-29T07:44:15.576Z</time></trkpt><trkpt lat="33.1092633" lon="9.7692415"><ele>226.5</ele><time>2026-04-29T07:44:16.589Z</time></trkpt><trkpt lat="33.1094092" lon="9.7692086"><ele>226.25</ele><time>2026-04-29T07:44:17.582Z</time></trkpt><trkpt lat="33.1095563" lon="9.7691748"><ele>226.0</ele><time>2026-04-29T07:44:18.583Z</time></trkpt><trkpt lat="33.1097062" lon="9.7691392"><ele>226.0</ele><time>2026-04-29T07:44:19.577Z</time></trkpt><trkpt lat="33.1098534" lon="9.7690988"><ele>226.0</ele><time>2026-04-29T07:44:20.589Z</time></trkpt><trkpt lat="33.1100007" lon="9.7690696"><ele>226.0</ele><time>2026-04-29T07:44:21.58Z</time></trkpt><trkpt lat="33.1101489" lon="9.7690405"><ele>227.0</ele><time>2026-04-29T07:44:22.59Z</time></trkpt><trkpt lat="33.1103017" lon="9.7690173"><ele>228.0</ele><time>2026-04-29T07:44:23.573Z</time></trkpt><trkpt lat="33.1104493" lon="9.7689926"><ele>229.0</ele><time>2026-04-29T07:44:24.57Z</time></trkpt><trkpt lat="33.110596" lon="9.7689664"><ele>229.66666666666666</ele><time>2026-04-29T07:44:25.574Z</time></trkpt><trkpt lat="33.1107529" lon="9.7689434"><ele>230.33333333333331</ele><time>2026-04-29T07:44:26.584Z</time></trkpt><trkpt lat="33.1109176" lon="9.7689231"><ele>231.0</ele><time>2026-04-29T07:44:27.577Z</time></trkpt><trkpt lat="33.1110843" lon="9.7688957"><ele>231.0</ele><time>2026-04-29T07:44:28.569Z</time></trkpt><trkpt lat="33.1112524" lon="9.7688657"><ele>231.0</ele><time>2026-04-29T07:44:29.572Z</time></trkpt><trkpt lat="33.1114231" lon="9.7688348"><ele>231.0</ele><time>2026-04-29T07:44:30.592Z</time></trkpt><trkpt lat="33.1115968" lon="9.768794"><ele>231.66666666666669</ele><time>2026-04-29T07:44:31.564Z</time></trkpt><trkpt lat="33.1117728" lon="9.7687475"><ele>232.33333333333334</ele><time>2026-04-29T07:44:32.581Z</time></trkpt><trkpt lat="33.1119482" lon="9.7686989"><ele>233.0</ele><time>2026-04-29T07:44:33.559Z</time></trkpt><trkpt lat="33.1121212" lon="9.7686481"><ele>233.0</ele><time>2026-04-29T07:44:34.582Z</time></trkpt><trkpt lat="33.112303" lon="9.7685917"><ele>233.0</ele><time>2026-04-29T07:44:35.559Z</time></trkpt><trkpt lat="33.1124929" lon="9.7685295"><ele>233.0</ele><time>2026-04-29T07:44:36.57Z</time></trkpt><trkpt lat="33.1126913" lon="9.7684807"><ele>233.0</ele><time>2026-04-29T07:44:37.579Z</time></trkpt><trkpt lat="33.1128946" lon="9.7684422"><ele>233.0</ele><time>2026-04-29T07:44:38.563Z</time></trkpt><trkpt lat="33.1130988" lon="9.7683966"><ele>233.0</ele><time>2026-04-29T07:44:39.572Z</time></trkpt><trkpt lat="33.1132959" lon="9.7683431"><ele>234.0</ele><time>2026-04-29T07:44:40.585Z</time></trkpt><trkpt lat="33.1135007" lon="9.7682945"><ele>235.0</ele><time>2026-04-29T07:44:41.562Z</time></trkpt><trkpt lat="33.1137094" lon="9.7682559"><ele>236.0</ele><time>2026-04-29T07:44:42.581Z</time></trkpt><trkpt lat="33.1139166" lon="9.7682199"><ele>236.0</ele><time>2026-04-29T07:44:43.59Z</time></trkpt><trkpt lat="33.1141198" lon="9.7681859"><ele>236.0</ele><time>2026-04-29T07:44:44.601Z</time></trkpt><trkpt lat="33.1143295" lon="9.7681612"><ele>236.0</ele><time>2026-04-29T07:44:45.564Z</time></trkpt><trkpt lat="33.1145398" lon="9.7681333"><ele>236.0</ele><time>2026-04-29T07:44:46.585Z</time></trkpt><trkpt lat="33.1147387" lon="9.7681123"><ele>236.0</ele><time>2026-04-29T07:44:47.579Z</time></trkpt><trkpt lat="33.1149431" lon="9.7680953"><ele>236.0</ele><time>2026-04-29T07:44:48.593Z</time></trkpt><trkpt lat="33.1151542" lon="9.7680763"><ele>236.33333333333334</ele><time>2026-04-29T07:44:49.579Z</time></trkpt><trkpt lat="33.1153594" lon="9.7680504"><ele>236.66666666666669</ele><time>2026-04-29T07:44:50.567Z</time></trkpt><trkpt lat="33.115573" lon="9.768027"><ele>237.0</ele><time>2026-04-29T07:44:51.578Z</time></trkpt><trkpt lat="33.1157814" lon="9.7680032"><ele>237.0</ele><time>2026-04-29T07:44:52.577Z</time></trkpt><trkpt lat="33.1159969" lon="9.767979"><ele>237.0</ele><time>2026-04-29T07:44:53.572Z</time></trkpt><trkpt lat="33.1162143" lon="9.7679533"><ele>237.0</ele><time>2026-04-29T07:44:54.578Z</time></trkpt><trkpt lat="33.116425" lon="9.7679205"><ele>237.0</ele><time>2026-04-29T07:44:55.563Z</time></trkpt><trkpt lat="33.116642" lon="9.7678854"><ele>237.0</ele><time>2026-04-29T07:44:56.573Z</time></trkpt><trkpt lat="33.1168605" lon="9.7678547"><ele>237.0</ele><time>2026-04-29T07:44:57.557Z</time></trkpt><trkpt lat="33.1170723" lon="9.7678261"><ele>237.0</ele><time>2026-04-29T07:44:58.575Z</time></trkpt><trkpt lat="33.1172873" lon="9.7677981"><ele>237.0</ele><time>2026-04-29T07:44:59.564Z</time></trkpt><trkpt lat="33.1174991" lon="9.7677613"><ele>237.0</ele><time>2026-04-29T07:45:00.586Z</time></trkpt><trkpt lat="33.1177138" lon="9.7677295"><ele>237.0</ele><time>2026-04-29T07:45:01.572Z</time></trkpt><trkpt lat="33.1179304" lon="9.7677007"><ele>237.0</ele><time>2026-04-29T07:45:02.572Z</time></trkpt><trkpt lat="33.11814" lon="9.7676668"><ele>237.0</ele><time>2026-04-29T07:45:03.581Z</time></trkpt><trkpt lat="33.1183552" lon="9.767625"><ele>237.33333333333331</ele><time>2026-04-29T07:45:04.576Z</time></trkpt><trkpt lat="33.1185661" lon="9.7675795"><ele>237.66666666666666</ele><time>2026-04-29T07:45:05.584Z</time></trkpt><trkpt lat="33.1187771" lon="9.7675347"><ele>238.0</ele><time>2026-04-29T07:45:06.587Z</time></trkpt><trkpt lat="33.1189911" lon="9.7674865"><ele>237.66666666666666</ele><time>2026-04-29T07:45:07.577Z</time></trkpt><trkpt lat="33.1192062" lon="9.7674443"><ele>237.33333333333331</ele><time>2026-04-29T07:45:08.591Z</time></trkpt><trkpt lat="33.1194251" lon="9.7673986"><ele>237.0</ele><time>2026-04-29T07:45:09.585Z</time></trkpt><trkpt lat="33.1196398" lon="9.7673529"><ele>237.0</ele><time>2026-04-29T07:45:10.579Z</time></trkpt><trkpt lat="33.1198463" lon="9.767311"><ele>237.0</ele><time>2026-04-29T07:45:11.576Z</time></trkpt><trkpt lat="33.1200544" lon="9.7672636"><ele>237.0</ele><time>2026-04-29T07:45:12.605Z</time></trkpt><trkpt lat="33.1202638" lon="9.7672148"><ele>237.0</ele><time>2026-04-29T07:45:13.562Z</time></trkpt><trkpt lat="33.1204666" lon="9.7671643"><ele>237.0</ele><time>2026-04-29T07:45:14.578Z</time></trkpt><trkpt lat="33.1206709" lon="9.7671096"><ele>237.0</ele><time>2026-04-29T07:45:15.571Z</time></trkpt><trkpt lat="33.1208714" lon="9.7670486"><ele>237.0</ele><time>2026-04-29T07:45:16.582Z</time></trkpt><trkpt lat="33.1210732" lon="9.7669884"><ele>237.0</ele><time>2026-04-29T07:45:17.567Z</time></trkpt><trkpt lat="33.1212756" lon="9.7669369"><ele>237.0</ele><time>2026-04-29T07:45:18.575Z</time></trkpt><trkpt lat="33.1214734" lon="9.7668828"><ele>236.33333333333331</ele><time>2026-04-29T07:45:19.576Z</time></trkpt><trkpt lat="33.121678" lon="9.7668258"><ele>235.66666666666666</ele><time>2026-04-29T07:45:20.587Z</time></trkpt><trkpt lat="33.1218765" lon="9.7667569"><ele>235.0</ele><time>2026-04-29T07:45:21.592Z</time></trkpt><trkpt lat="33.1220662" lon="9.7666811"><ele>235.0</ele><time>2026-04-29T07:45:22.569Z</time></trkpt><trkpt lat="33.1222607" lon="9.7665952"><ele>235.0</ele><time>2026-04-29T07:45:23.576Z</time></trkpt><trkpt lat="33.1224483" lon="9.766504"><ele>235.0</ele><time>2026-04-29T07:45:24.58Z</time></trkpt><trkpt lat="33.1226344" lon="9.7664059"><ele>235.33333333333331</ele><time>2026-04-29T07:45:25.555Z</time></trkpt><trkpt lat="33.1228244" lon="9.7663098"><ele>235.66666666666669</ele><time>2026-04-29T07:45:26.567Z</time></trkpt><trkpt lat="33.1230188" lon="9.7662176"><ele>236.0</ele><time>2026-04-29T07:45:27.574Z</time></trkpt><trkpt lat="33.1232073" lon="9.7661211"><ele>236.0</ele><time>2026-04-29T07:45:28.57Z</time></trkpt><trkpt lat="33.1233951" lon="9.766027"><ele>236.0</ele><time>2026-04-29T07:45:29.574Z</time></trkpt><trkpt lat="33.123593" lon="9.7659369"><ele>236.0</ele><time>2026-04-29T07:45:30.587Z</time></trkpt><trkpt lat="33.1237925" lon="9.7658535"><ele>236.0</ele><time>2026-04-29T07:45:31.57Z</time></trkpt><trkpt lat="33.1239861" lon="9.7657727"><ele>236.0</ele><time>2026-04-29T07:45:32.583Z</time></trkpt><trkpt lat="33.1241814" lon="9.7656911"><ele>236.0</ele><time>2026-04-29T07:45:33.567Z</time></trkpt><trkpt lat="33.1243807" lon="9.765617"><ele>236.33333333333334</ele><time>2026-04-29T07:45:34.579Z</time></trkpt><trkpt lat="33.1245797" lon="9.7655468"><ele>236.66666666666669</ele><time>2026-04-29T07:45:35.579Z</time></trkpt><trkpt lat="33.1247747" lon="9.7654758"><ele>237.0</ele><time>2026-04-29T07:45:36.57Z</time></trkpt><trkpt lat="33.1249705" lon="9.7654054"><ele>237.33333333333331</ele><time>2026-04-29T07:45:37.592Z</time></trkpt><trkpt lat="33.1251655" lon="9.7653544"><ele>237.66666666666666</ele><time>2026-04-29T07:45:38.58Z</time></trkpt><trkpt lat="33.1253673" lon="9.7653169"><ele>238.0</ele><time>2026-04-29T07:45:39.575Z</time></trkpt><trkpt lat="33.1255691" lon="9.7652918"><ele>237.66666666666666</ele><time>2026-04-29T07:45:40.58Z</time></trkpt><trkpt lat="33.1257757" lon="9.7652894"><ele>237.33333333333331</ele><time>2026-04-29T07:45:41.588Z</time></trkpt><trkpt lat="33.1259847" lon="9.7653099"><ele>237.0</ele><time>2026-04-29T07:45:42.586Z</time></trkpt><trkpt lat="33.126177" lon="9.7653317"><ele>237.0</ele><time>2026-04-29T07:45:43.586Z</time></trkpt><trkpt lat="33.1263699" lon="9.7653515"><ele>237.0</ele><time>2026-04-29T07:45:44.588Z</time></trkpt><trkpt lat="33.1265586" lon="9.7653712"><ele>237.0</ele><time>2026-04-29T07:45:45.601Z</time></trkpt><trkpt lat="33.1267372" lon="9.7653837"><ele>237.33333333333331</ele><time>2026-04-29T07:45:46.576Z</time></trkpt><trkpt lat="33.1269104" lon="9.7653857"><ele>237.66666666666666</ele><time>2026-04-29T07:45:47.582Z</time></trkpt><trkpt lat="33.1270706" lon="9.7653892"><ele>238.0</ele><time>2026-04-29T07:45:48.577Z</time></trkpt><trkpt lat="33.1272183" lon="9.7653912"><ele>238.0</ele><time>2026-04-29T07:45:49.572Z</time></trkpt><trkpt lat="33.1273656" lon="9.7653955"><ele>238.0</ele><time>2026-04-29T07:45:50.581Z</time></trkpt><trkpt lat="33.1275266" lon="9.7654062"><ele>238.0</ele><time>2026-04-29T07:45:51.576Z</time></trkpt><trkpt lat="33.1277053" lon="9.7654162"><ele>237.66666666666666</ele><time>2026-04-29T07:45:52.582Z</time></trkpt><trkpt lat="33.1278812" lon="9.7654234"><ele>237.33333333333331</ele><time>2026-04-29T07:45:53.573Z</time></trkpt><trkpt lat="33.1280549" lon="9.7654311"><ele>237.0</ele><time>2026-04-29T07:45:54.565Z</time></trkpt><trkpt lat="33.1282208" lon="9.7654228"><ele>237.0</ele><time>2026-04-29T07:45:55.562Z</time></trkpt><trkpt lat="33.1283899" lon="9.7653969"><ele>237.0</ele><time>2026-04-29T07:45:56.581Z</time></trkpt><trkpt lat="33.1285646" lon="9.7653633"><ele>237.0</ele><time>2026-04-29T07:45:57.583Z</time></trkpt><trkpt lat="33.1287436" lon="9.7653188"><ele>237.0</ele><time>2026-04-29T07:45:58.581Z</time></trkpt><trkpt lat="33.1289185" lon="9.7652487"><ele>237.0</ele><time>2026-04-29T07:45:59.581Z</time></trkpt><trkpt lat="33.129092" lon="9.7651744"><ele>237.0</ele><time>2026-04-29T07:46:00.599Z</time></trkpt><trkpt lat="33.1292618" lon="9.7650987"><ele>236.33333333333331</ele><time>2026-04-29T07:46:01.571Z</time></trkpt><trkpt lat="33.1294358" lon="9.7650265"><ele>235.66666666666666</ele><time>2026-04-29T07:46:02.591Z</time></trkpt><trkpt lat="33.1296082" lon="9.7649527"><ele>235.0</ele><time>2026-04-29T07:46:03.586Z</time></trkpt><trkpt lat="33.1297817" lon="9.7648767"><ele>234.0</ele><time>2026-04-29T07:46:04.582Z</time></trkpt><trkpt lat="33.1299583" lon="9.7648088"><ele>233.0</ele><time>2026-04-29T07:46:05.585Z</time></trkpt><trkpt lat="33.1301397" lon="9.7647451"><ele>232.0</ele><time>2026-04-29T07:46:06.575Z</time></trkpt><trkpt lat="33.1303142" lon="9.7646782"><ele>232.0</ele><time>2026-04-29T07:46:07.588Z</time></trkpt><trkpt lat="33.1304905" lon="9.7646059"><ele>232.0</ele><time>2026-04-29T07:46:08.588Z</time></trkpt><trkpt lat="33.1306712" lon="9.7645374"><ele>232.0</ele><time>2026-04-29T07:46:09.584Z</time></trkpt><trkpt lat="33.1308507" lon="9.7644694"><ele>232.0</ele><time>2026-04-29T07:46:10.573Z</time></trkpt><trkpt lat="33.1310284" lon="9.7644065"><ele>232.0</ele><time>2026-04-29T07:46:11.573Z</time></trkpt><trkpt lat="33.1312034" lon="9.7643449"><ele>232.0</ele><time>2026-04-29T07:46:12.574Z</time></trkpt><trkpt lat="33.1313752" lon="9.7642829"><ele>232.0</ele><time>2026-04-29T07:46:13.574Z</time></trkpt><trkpt lat="33.1315474" lon="9.7642217"><ele>232.0</ele><time>2026-04-29T07:46:14.593Z</time></trkpt><trkpt lat="33.1317201" lon="9.7641599"><ele>232.0</ele><time>2026-04-29T07:46:15.555Z</time></trkpt><trkpt lat="33.1318921" lon="9.7640962"><ele>231.33333333333331</ele><time>2026-04-29T07:46:16.576Z</time></trkpt><trkpt lat="33.1320731" lon="9.7640358"><ele>230.66666666666669</ele><time>2026-04-29T07:46:17.584Z</time></trkpt><trkpt lat="33.1322604" lon="9.7639874"><ele>230.0</ele><time>2026-04-29T07:46:18.587Z</time></trkpt><trkpt lat="33.1324543" lon="9.7639423"><ele>229.66666666666669</ele><time>2026-04-29T07:46:19.576Z</time></trkpt><trkpt lat="33.132654" lon="9.7639021"><ele>229.33333333333331</ele><time>2026-04-29T07:46:20.563Z</time></trkpt><trkpt lat="33.1328523" lon="9.7638634"><ele>229.0</ele><time>2026-04-29T07:46:21.572Z</time></trkpt><trkpt lat="33.1330607" lon="9.7638241"><ele>229.33333333333331</ele><time>2026-04-29T07:46:22.598Z</time></trkpt><trkpt lat="33.1332583" lon="9.763783"><ele>229.66666666666669</ele><time>2026-04-29T07:46:23.595Z</time></trkpt><trkpt lat="33.1334518" lon="9.7637416"><ele>230.0</ele><time>2026-04-29T07:46:24.57Z</time></trkpt><trkpt lat="33.133631" lon="9.7637129"><ele>230.0</ele><time>2026-04-29T07:46:25.589Z</time></trkpt><trkpt lat="33.1337942" lon="9.7636868"><ele>230.0</ele><time>2026-04-29T07:46:26.587Z</time></trkpt><trkpt lat="33.1339411" lon="9.7636671"><ele>230.0</ele><time>2026-04-29T07:46:27.586Z</time></trkpt><trkpt lat="33.134074" lon="9.7636544"><ele>230.0</ele><time>2026-04-29T07:46:28.579Z</time></trkpt><trkpt lat="33.1342005" lon="9.7636473"><ele>229.25</ele><time>2026-04-29T07:46:29.578Z</time></trkpt><trkpt lat="33.1343226" lon="9.7636418"><ele>228.5</ele><time>2026-04-29T07:46:30.592Z</time></trkpt><trkpt lat="33.1344355" lon="9.7636328"><ele>227.75</ele><time>2026-04-29T07:46:31.577Z</time></trkpt><trkpt lat="33.1345399" lon="9.7636348"><ele>227.0</ele><time>2026-04-29T07:46:32.595Z</time></trkpt><trkpt lat="33.1346531" lon="9.7636229"><ele>227.0</ele><time>2026-04-29T07:46:33.585Z</time></trkpt><trkpt lat="33.134805" lon="9.7636237"><ele>227.0</ele><time>2026-04-29T07:46:34.578Z</time></trkpt><trkpt lat="33.1349628" lon="9.7636241"><ele>227.0</ele><time>2026-04-29T07:46:35.566Z</time></trkpt><trkpt lat="33.1351154" lon="9.7636279"><ele>227.0</ele><time>2026-04-29T07:46:36.583Z</time></trkpt><trkpt lat="33.1352769" lon="9.7636322"><ele>227.0</ele><time>2026-04-29T07:46:37.58Z</time></trkpt><trkpt lat="33.1354385" lon="9.7636384"><ele>227.0</ele><time>2026-04-29T07:46:38.567Z</time></trkpt><trkpt lat="33.1355953" lon="9.7636501"><ele>227.33333333333334</ele><time>2026-04-29T07:46:39.576Z</time></trkpt><trkpt lat="33.1357597" lon="9.7636524"><ele>227.66666666666669</ele><time>2026-04-29T07:46:40.572Z</time></trkpt><trkpt lat="33.1359334" lon="9.7636529"><ele>228.0</ele><time>2026-04-29T07:46:41.582Z</time></trkpt><trkpt lat="33.1361096" lon="9.7636621"><ele>228.0</ele><time>2026-04-29T07:46:42.588Z</time></trkpt><trkpt lat="33.1362932" lon="9.7636711"><ele>228.0</ele><time>2026-04-29T07:46:43.567Z</time></trkpt><trkpt lat="33.1364784" lon="9.7636772"><ele>228.0</ele><time>2026-04-29T07:46:44.563Z</time></trkpt><trkpt lat="33.1366599" lon="9.7636733"><ele>227.0</ele><time>2026-04-29T07:46:45.576Z</time></trkpt><trkpt lat="33.1368484" lon="9.763657"><ele>226.0</ele><time>2026-04-29T07:46:46.565Z</time></trkpt><trkpt lat="33.1370347" lon="9.763626"><ele>225.0</ele><time>2026-04-29T07:46:47.561Z</time></trkpt><trkpt lat="33.1372206" lon="9.7635908"><ele>224.33333333333331</ele><time>2026-04-29T07:46:48.562Z</time></trkpt><trkpt lat="33.1374051" lon="9.763541"><ele>223.66666666666666</ele><time>2026-04-29T07:46:49.562Z</time></trkpt><trkpt lat="33.1375881" lon="9.7634783"><ele>223.0</ele><time>2026-04-29T07:46:50.576Z</time></trkpt><trkpt lat="33.1377619" lon="9.7634149"><ele>224.0</ele><time>2026-04-29T07:46:51.578Z</time></trkpt><trkpt lat="33.1379396" lon="9.7633541"><ele>225.0</ele><time>2026-04-29T07:46:52.586Z</time></trkpt><trkpt lat="33.1381195" lon="9.7632929"><ele>226.0</ele><time>2026-04-29T07:46:53.571Z</time></trkpt><trkpt lat="33.1382986" lon="9.7632329"><ele>226.0</ele><time>2026-04-29T07:46:54.574Z</time></trkpt><trkpt lat="33.138479" lon="9.7631805"><ele>226.0</ele><time>2026-04-29T07:46:55.573Z</time></trkpt><trkpt lat="33.1386579" lon="9.7631242"><ele>226.0</ele><time>2026-04-29T07:46:56.574Z</time></trkpt><trkpt lat="33.1388405" lon="9.76308"><ele>226.0</ele><time>2026-04-29T07:46:57.565Z</time></trkpt><trkpt lat="33.1390209" lon="9.7630396"><ele>226.0</ele><time>2026-04-29T07:46:58.585Z</time></trkpt><trkpt lat="33.1392058" lon="9.7630095"><ele>226.0</ele><time>2026-04-29T07:46:59.582Z</time></trkpt><trkpt lat="33.1393983" lon="9.7629916"><ele>225.66666666666666</ele><time>2026-04-29T07:47:00.572Z</time></trkpt><trkpt lat="33.1395854" lon="9.7629802"><ele>225.33333333333331</ele><time>2026-04-29T07:47:01.583Z</time></trkpt><trkpt lat="33.1397759" lon="9.7629697"><ele>225.0</ele><time>2026-04-29T07:47:02.579Z</time></trkpt><trkpt lat="33.1399669" lon="9.7629675"><ele>225.0</ele><time>2026-04-29T07:47:03.579Z</time></trkpt><trkpt lat="33.1401602" lon="9.7629732"><ele>225.0</ele><time>2026-04-29T07:47:04.597Z</time></trkpt><trkpt lat="33.1403465" lon="9.7629698"><ele>225.0</ele><time>2026-04-29T07:47:05.572Z</time></trkpt><trkpt lat="33.1405412" lon="9.7629609"><ele>225.0</ele><time>2026-04-29T07:47:06.567Z</time></trkpt><trkpt lat="33.1407314" lon="9.762951"><ele>225.0</ele><time>2026-04-29T07:47:07.59Z</time></trkpt><trkpt lat="33.1409224" lon="9.7629444"><ele>225.0</ele><time>2026-04-29T07:47:08.588Z</time></trkpt><trkpt lat="33.1411171" lon="9.7629426"><ele>225.0</ele><time>2026-04-29T07:47:09.581Z</time></trkpt><trkpt lat="33.1413144" lon="9.7629319"><ele>225.0</ele><time>2026-04-29T07:47:10.58Z</time></trkpt><trkpt lat="33.1415171" lon="9.7629152"><ele>225.0</ele><time>2026-04-29T07:47:11.575Z</time></trkpt><trkpt lat="33.141714" lon="9.7628956"><ele>224.66666666666669</ele><time>2026-04-29T07:47:12.582Z</time></trkpt><trkpt lat="33.1419141" lon="9.7628803"><ele>224.33333333333334</ele><time>2026-04-29T07:47:13.586Z</time></trkpt><trkpt lat="33.1421109" lon="9.7628543"><ele>224.0</ele><time>2026-04-29T07:47:14.606Z</time></trkpt><trkpt lat="33.1423036" lon="9.7628366"><ele>224.33333333333334</ele><time>2026-04-29T07:47:15.547Z</time></trkpt><trkpt lat="33.1424967" lon="9.7628187"><ele>224.66666666666669</ele><time>2026-04-29T07:47:16.562Z</time></trkpt><trkpt lat="33.1426851" lon="9.7627998"><ele>225.0</ele><time>2026-04-29T07:47:17.568Z</time></trkpt><trkpt lat="33.1428757" lon="9.7627771"><ele>225.0</ele><time>2026-04-29T07:47:18.572Z</time></trkpt><trkpt lat="33.1430672" lon="9.7627551"><ele>225.0</ele><time>2026-04-29T07:47:19.56Z</time></trkpt><trkpt lat="33.143256" lon="9.7627334"><ele>225.0</ele><time>2026-04-29T07:47:20.572Z</time></trkpt><trkpt lat="33.1434428" lon="9.7627122"><ele>224.33333333333331</ele><time>2026-04-29T07:47:21.559Z</time></trkpt><trkpt lat="33.1436252" lon="9.7626866"><ele>223.66666666666666</ele><time>2026-04-29T07:47:22.571Z</time></trkpt><trkpt lat="33.143814" lon="9.7626624"><ele>223.0</ele><time>2026-04-29T07:47:23.592Z</time></trkpt><trkpt lat="33.1439988" lon="9.7626406"><ele>222.33333333333331</ele><time>2026-04-29T07:47:24.574Z</time></trkpt><trkpt lat="33.1441849" lon="9.7626176"><ele>221.66666666666669</ele><time>2026-04-29T07:47:25.586Z</time></trkpt><trkpt lat="33.144367" lon="9.7625983"><ele>221.0</ele><time>2026-04-29T07:47:26.574Z</time></trkpt><trkpt lat="33.1445451" lon="9.7625748"><ele>221.0</ele><time>2026-04-29T07:47:27.58Z</time></trkpt><trkpt lat="33.1447129" lon="9.76256"><ele>221.0</ele><time>2026-04-29T07:47:28.569Z</time></trkpt><trkpt lat="33.1448676" lon="9.7625426"><ele>221.0</ele><time>2026-04-29T07:47:29.564Z</time></trkpt><trkpt lat="33.1450243" lon="9.7625284"><ele>221.0</ele><time>2026-04-29T07:47:30.574Z</time></trkpt><trkpt lat="33.1451871" lon="9.762512"><ele>221.0</ele><time>2026-04-29T07:47:31.57Z</time></trkpt><trkpt lat="33.145346" lon="9.7624886"><ele>221.0</ele><time>2026-04-29T07:47:32.571Z</time></trkpt><trkpt lat="33.1454968" lon="9.7624548"><ele>221.0</ele><time>2026-04-29T07:47:33.578Z</time></trkpt><trkpt lat="33.1456515" lon="9.7624206"><ele>221.0</ele><time>2026-04-29T07:47:34.58Z</time></trkpt><trkpt lat="33.1458139" lon="9.7623892"><ele>221.0</ele><time>2026-04-29T07:47:35.568Z</time></trkpt><trkpt lat="33.1459826" lon="9.7623512"><ele>222.33333333333334</ele><time>2026-04-29T07:47:36.571Z</time></trkpt><trkpt lat="33.1461555" lon="9.7622977"><ele>223.66666666666669</ele><time>2026-04-29T07:47:37.577Z</time></trkpt><trkpt lat="33.1463251" lon="9.7622421"><ele>225.0</ele><time>2026-04-29T07:47:38.572Z</time></trkpt><trkpt lat="33.1464995" lon="9.7621893"><ele>224.33333333333331</ele><time>2026-04-29T07:47:39.554Z</time></trkpt><trkpt lat="33.146675" lon="9.7621357"><ele>223.66666666666666</ele><time>2026-04-29T07:47:40.564Z</time></trkpt><trkpt lat="33.1468473" lon="9.7620756"><ele>223.0</ele><time>2026-04-29T07:47:41.582Z</time></trkpt><trkpt lat="33.1470131" lon="9.7620114"><ele>223.0</ele><time>2026-04-29T07:47:42.557Z</time></trkpt><trkpt lat="33.1471777" lon="9.761942"><ele>223.0</ele><time>2026-04-29T07:47:43.571Z</time></trkpt><trkpt lat="33.1473364" lon="9.7618707"><ele>223.0</ele><time>2026-04-29T07:47:44.579Z</time></trkpt><trkpt lat="33.1474919" lon="9.7618039"><ele>223.33333333333331</ele><time>2026-04-29T07:47:45.587Z</time></trkpt><trkpt lat="33.1476494" lon="9.761736"><ele>223.66666666666669</ele><time>2026-04-29T07:47:46.575Z</time></trkpt><trkpt lat="33.1478056" lon="9.7616706"><ele>224.0</ele><time>2026-04-29T07:47:47.57Z</time></trkpt><trkpt lat="33.1479648" lon="9.7616038"><ele>224.0</ele><time>2026-04-29T07:47:48.569Z</time></trkpt><trkpt lat="33.1481266" lon="9.7615335"><ele>224.0</ele><time>2026-04-29T07:47:49.553Z</time></trkpt><trkpt lat="33.1482861" lon="9.7614688"><ele>224.0</ele><time>2026-04-29T07:47:50.58Z</time></trkpt><trkpt lat="33.1484423" lon="9.7614035"><ele>224.66666666666669</ele><time>2026-04-29T07:47:51.592Z</time></trkpt><trkpt lat="33.1486018" lon="9.7613337"><ele>225.33333333333331</ele><time>2026-04-29T07:47:52.572Z</time></trkpt><trkpt lat="33.1487654" lon="9.7612617"><ele>226.0</ele><time>2026-04-29T07:47:53.57Z</time></trkpt><trkpt lat="33.1489303" lon="9.7611896"><ele>226.0</ele><time>2026-04-29T07:47:54.585Z</time></trkpt><trkpt lat="33.1490953" lon="9.7611214"><ele>226.0</ele><time>2026-04-29T07:47:55.575Z</time></trkpt><trkpt lat="33.149262" lon="9.7610483"><ele>226.0</ele><time>2026-04-29T07:47:56.577Z</time></trkpt><trkpt lat="33.1494292" lon="9.7609778"><ele>225.66666666666666</ele><time>2026-04-29T07:47:57.59Z</time></trkpt><trkpt lat="33.1496013" lon="9.7609122"><ele>225.33333333333331</ele><time>2026-04-29T07:47:58.58Z</time></trkpt><trkpt lat="33.1497763" lon="9.7608429"><ele>225.0</ele><time>2026-04-29T07:47:59.575Z</time></trkpt><trkpt lat="33.1499487" lon="9.7607839"><ele>224.66666666666669</ele><time>2026-04-29T07:48:00.6Z</time></trkpt><trkpt lat="33.1501284" lon="9.7607346"><ele>224.33333333333334</ele><time>2026-04-29T07:48:01.564Z</time></trkpt><trkpt lat="33.1503134" lon="9.7606902"><ele>224.0</ele><time>2026-04-29T07:48:02.575Z</time></trkpt><trkpt lat="33.1504951" lon="9.7606435"><ele>224.0</ele><time>2026-04-29T07:48:03.578Z</time></trkpt><trkpt lat="33.1506772" lon="9.7605963"><ele>224.0</ele><time>2026-04-29T07:48:04.586Z</time></trkpt><trkpt lat="33.1508572" lon="9.7605472"><ele>224.0</ele><time>2026-04-29T07:48:05.589Z</time></trkpt><trkpt lat="33.1510387" lon="9.7605021"><ele>224.0</ele><time>2026-04-29T07:48:06.566Z</time></trkpt><trkpt lat="33.1512216" lon="9.7604618"><ele>224.0</ele><time>2026-04-29T07:48:07.575Z</time></trkpt><trkpt lat="33.1514073" lon="9.7604185"><ele>224.0</ele><time>2026-04-29T07:48:08.586Z</time></trkpt><trkpt lat="33.1515887" lon="9.760382"><ele>224.33333333333334</ele><time>2026-04-29T07:48:09.583Z</time></trkpt><trkpt lat="33.1517668" lon="9.7603437"><ele>224.66666666666669</ele><time>2026-04-29T07:48:10.578Z</time></trkpt><trkpt lat="33.1519459" lon="9.760303"><ele>225.0</ele><time>2026-04-29T07:48:11.574Z</time></trkpt><trkpt lat="33.1521205" lon="9.7602637"><ele>225.0</ele><time>2026-04-29T07:48:12.58Z</time></trkpt><trkpt lat="33.1522972" lon="9.7602208"><ele>225.0</ele><time>2026-04-29T07:48:13.571Z</time></trkpt><trkpt lat="33.1524788" lon="9.7601846"><ele>225.0</ele><time>2026-04-29T07:48:14.577Z</time></trkpt><trkpt lat="33.1526562" lon="9.7601473"><ele>224.0</ele><time>2026-04-29T07:48:15.58Z</time></trkpt><trkpt lat="33.1528303" lon="9.7601144"><ele>223.0</ele><time>2026-04-29T07:48:16.572Z</time></trkpt><trkpt lat="33.1530047" lon="9.7600829"><ele>222.0</ele><time>2026-04-29T07:48:17.566Z</time></trkpt><trkpt lat="33.153175" lon="9.7600492"><ele>222.33333333333331</ele><time>2026-04-29T07:48:18.569Z</time></trkpt><trkpt lat="33.1533454" lon="9.7600217"><ele>222.66666666666666</ele><time>2026-04-29T07:48:19.58Z</time></trkpt><trkpt lat="33.1535242" lon="9.7600058"><ele>223.0</ele><time>2026-04-29T07:48:20.626Z</time></trkpt><trkpt lat="33.1537024" lon="9.7600136"><ele>223.0</ele><time>2026-04-29T07:48:21.637Z</time></trkpt><trkpt lat="33.1538738" lon="9.7600487"><ele>223.0</ele><time>2026-04-29T07:48:22.598Z</time></trkpt><trkpt lat="33.1540483" lon="9.7600993"><ele>223.0</ele><time>2026-04-29T07:48:23.573Z</time></trkpt><trkpt lat="33.1542185" lon="9.7601595"><ele>222.66666666666666</ele><time>2026-04-29T07:48:24.574Z</time></trkpt><trkpt lat="33.1543887" lon="9.7602165"><ele>222.33333333333331</ele><time>2026-04-29T07:48:25.56Z</time></trkpt><trkpt lat="33.1545593" lon="9.7602586"><ele>222.0</ele><time>2026-04-29T07:48:26.586Z</time></trkpt><trkpt lat="33.154742" lon="9.7602867"><ele>222.33333333333331</ele><time>2026-04-29T07:48:27.583Z</time></trkpt><trkpt lat="33.1549162" lon="9.7603033"><ele>222.66666666666666</ele><time>2026-04-29T07:48:28.584Z</time></trkpt><trkpt lat="33.1550913" lon="9.7603062"><ele>223.0</ele><time>2026-04-29T07:48:29.574Z</time></trkpt><trkpt lat="33.1552603" lon="9.7602993"><ele>223.0</ele><time>2026-04-29T07:48:30.583Z</time></trkpt><trkpt lat="33.155432" lon="9.7602843"><ele>223.0</ele><time>2026-04-29T07:48:31.571Z</time></trkpt><trkpt lat="33.1555983" lon="9.760254"><ele>223.0</ele><time>2026-04-29T07:48:32.639Z</time></trkpt><trkpt lat="33.155768" lon="9.7602211"><ele>223.0</ele><time>2026-04-29T07:48:33.573Z</time></trkpt><trkpt lat="33.1559366" lon="9.7601874"><ele>223.0</ele><time>2026-04-29T07:48:34.57Z</time></trkpt><trkpt lat="33.1561074" lon="9.7601554"><ele>223.0</ele><time>2026-04-29T07:48:35.56Z</time></trkpt><trkpt lat="33.1562785" lon="9.7601217"><ele>223.0</ele><time>2026-04-29T07:48:36.586Z</time></trkpt><trkpt lat="33.1564503" lon="9.7600934"><ele>223.0</ele><time>2026-04-29T07:48:37.588Z</time></trkpt><trkpt lat="33.1566214" lon="9.7600716"><ele>223.0</ele><time>2026-04-29T07:48:38.575Z</time></trkpt><trkpt lat="33.15679" lon="9.7600504"><ele>222.66666666666666</ele><time>2026-04-29T07:48:39.576Z</time></trkpt><trkpt lat="33.1569567" lon="9.7600301"><ele>222.33333333333331</ele><time>2026-04-29T07:48:40.583Z</time></trkpt><trkpt lat="33.1571256" lon="9.7600074"><ele>222.0</ele><time>2026-04-29T07:48:41.569Z</time></trkpt><trkpt lat="33.1572978" lon="9.7599867"><ele>222.33333333333331</ele><time>2026-04-29T07:48:42.583Z</time></trkpt><trkpt lat="33.1574685" lon="9.7599689"><ele>222.66666666666666</ele><time>2026-04-29T07:48:43.582Z</time></trkpt><trkpt lat="33.1576329" lon="9.759956"><ele>223.0</ele><time>2026-04-29T07:48:44.58Z</time></trkpt><trkpt lat="33.1577971" lon="9.7599419"><ele>223.0</ele><time>2026-04-29T07:48:45.598Z</time></trkpt><trkpt lat="33.1579612" lon="9.7599221"><ele>223.0</ele><time>2026-04-29T07:48:46.578Z</time></trkpt><trkpt lat="33.1581273" lon="9.7598987"><ele>223.0</ele><time>2026-04-29T07:48:47.578Z</time></trkpt><trkpt lat="33.1582933" lon="9.7598815"><ele>223.0</ele><time>2026-04-29T07:48:48.577Z</time></trkpt><trkpt lat="33.1584588" lon="9.7598651"><ele>223.0</ele><time>2026-04-29T07:48:49.584Z</time></trkpt><trkpt lat="33.1586217" lon="9.7598471"><ele>223.0</ele><time>2026-04-29T07:48:50.567Z</time></trkpt><trkpt lat="33.1587844" lon="9.7598359"><ele>223.0</ele><time>2026-04-29T07:48:51.556Z</time></trkpt><trkpt lat="33.1589462" lon="9.7598236"><ele>223.0</ele><time>2026-04-29T07:48:52.564Z</time></trkpt><trkpt lat="33.1591074" lon="9.7598155"><ele>223.0</ele><time>2026-04-29T07:48:53.586Z</time></trkpt><trkpt lat="33.1592673" lon="9.7598042"><ele>223.66666666666666</ele><time>2026-04-29T07:48:54.575Z</time></trkpt><trkpt lat="33.1594298" lon="9.7597912"><ele>224.33333333333331</ele><time>2026-04-29T07:48:55.576Z</time></trkpt><trkpt lat="33.1595964" lon="9.7597864"><ele>225.0</ele><time>2026-04-29T07:48:56.575Z</time></trkpt><trkpt lat="33.1597606" lon="9.7597773"><ele>225.66666666666669</ele><time>2026-04-29T07:48:57.576Z</time></trkpt><trkpt lat="33.1599248" lon="9.7597648"><ele>226.33333333333334</ele><time>2026-04-29T07:48:58.573Z</time></trkpt><trkpt lat="33.1600835" lon="9.7597516"><ele>227.0</ele><time>2026-04-29T07:48:59.56Z</time></trkpt><trkpt lat="33.160248" lon="9.7597378"><ele>227.0</ele><time>2026-04-29T07:49:00.574Z</time></trkpt><trkpt lat="33.1604136" lon="9.7597231"><ele>227.0</ele><time>2026-04-29T07:49:01.549Z</time></trkpt><trkpt lat="33.1605782" lon="9.759708"><ele>227.0</ele><time>2026-04-29T07:49:02.556Z</time></trkpt><trkpt lat="33.1607427" lon="9.7596881"><ele>226.66666666666669</ele><time>2026-04-29T07:49:03.565Z</time></trkpt><trkpt lat="33.1609036" lon="9.7596669"><ele>226.33333333333331</ele><time>2026-04-29T07:49:04.57Z</time></trkpt><trkpt lat="33.1610648" lon="9.7596425"><ele>226.0</ele><time>2026-04-29T07:49:05.568Z</time></trkpt><trkpt lat="33.1612223" lon="9.7596118"><ele>226.0</ele><time>2026-04-29T07:49:06.574Z</time></trkpt><trkpt lat="33.1613843" lon="9.7595797"><ele>226.0</ele><time>2026-04-29T07:49:07.568Z</time></trkpt><trkpt lat="33.1615373" lon="9.7595458"><ele>226.0</ele><time>2026-04-29T07:49:08.572Z</time></trkpt><trkpt lat="33.1616893" lon="9.7595138"><ele>226.33333333333331</ele><time>2026-04-29T07:49:09.573Z</time></trkpt><trkpt lat="33.1618422" lon="9.7594831"><ele>226.66666666666669</ele><time>2026-04-29T07:49:10.562Z</time></trkpt><trkpt lat="33.1619962" lon="9.7594521"><ele>227.0</ele><time>2026-04-29T07:49:11.567Z</time></trkpt><trkpt lat="33.1621568" lon="9.7594202"><ele>227.0</ele><time>2026-04-29T07:49:12.584Z</time></trkpt><trkpt lat="33.1623165" lon="9.7593851"><ele>227.0</ele><time>2026-04-29T07:49:13.567Z</time></trkpt><trkpt lat="33.1624756" lon="9.7593501"><ele>227.0</ele><time>2026-04-29T07:49:14.576Z</time></trkpt><trkpt lat="33.1626352" lon="9.7593144"><ele>226.66666666666669</ele><time>2026-04-29T07:49:15.569Z</time></trkpt><trkpt lat="33.1627984" lon="9.7592786"><ele>226.33333333333331</ele><time>2026-04-29T07:49:16.581Z</time></trkpt><trkpt lat="33.1629621" lon="9.7592445"><ele>226.0</ele><time>2026-04-29T07:49:17.561Z</time></trkpt><trkpt lat="33.1631276" lon="9.7592093"><ele>226.0</ele><time>2026-04-29T07:49:18.578Z</time></trkpt><trkpt lat="33.1632895" lon="9.7591789"><ele>226.0</ele><time>2026-04-29T07:49:19.564Z</time></trkpt><trkpt lat="33.1634581" lon="9.7591447"><ele>226.0</ele><time>2026-04-29T07:49:20.586Z</time></trkpt><trkpt lat="33.1636283" lon="9.7591178"><ele>226.0</ele><time>2026-04-29T07:49:21.584Z</time></trkpt><trkpt lat="33.1637971" lon="9.7590865"><ele>226.0</ele><time>2026-04-29T07:49:22.569Z</time></trkpt><trkpt lat="33.1639636" lon="9.7590534"><ele>226.0</ele><time>2026-04-29T07:49:23.575Z</time></trkpt><trkpt lat="33.1641358" lon="9.7590171"><ele>226.0</ele><time>2026-04-29T07:49:24.584Z</time></trkpt><trkpt lat="33.1643119" lon="9.7589836"><ele>226.0</ele><time>2026-04-29T07:49:25.57Z</time></trkpt><trkpt lat="33.1644819" lon="9.758952"><ele>226.0</ele><time>2026-04-29T07:49:26.581Z</time></trkpt><trkpt lat="33.1646546" lon="9.7589184"><ele>226.0</ele><time>2026-04-29T07:49:27.559Z</time></trkpt><trkpt lat="33.1648312" lon="9.7588838"><ele>226.0</ele><time>2026-04-29T07:49:28.578Z</time></trkpt><trkpt lat="33.1650067" lon="9.75885"><ele>226.0</ele><time>2026-04-29T07:49:29.585Z</time></trkpt><trkpt lat="33.1651778" lon="9.7588161"><ele>226.0</ele><time>2026-04-29T07:49:30.57Z</time></trkpt><trkpt lat="33.1653571" lon="9.7587849"><ele>226.0</ele><time>2026-04-29T07:49:31.574Z</time></trkpt><trkpt lat="33.165532" lon="9.7587536"><ele>226.0</ele><time>2026-04-29T07:49:32.572Z</time></trkpt><trkpt lat="33.1657065" lon="9.7587192"><ele>225.66666666666666</ele><time>2026-04-29T07:49:33.569Z</time></trkpt><trkpt lat="33.165878" lon="9.7586866"><ele>225.33333333333331</ele><time>2026-04-29T07:49:34.566Z</time></trkpt><trkpt lat="33.1660317" lon="9.7586599"><ele>225.0</ele><time>2026-04-29T07:49:35.561Z</time></trkpt><trkpt lat="33.1661539" lon="9.7586367"><ele>225.0</ele><time>2026-04-29T07:49:36.565Z</time></trkpt><trkpt lat="33.1662621" lon="9.7586153"><ele>225.0</ele><time>2026-04-29T07:49:37.588Z</time></trkpt><trkpt lat="33.1663804" lon="9.758591"><ele>225.0</ele><time>2026-04-29T07:49:38.571Z</time></trkpt><trkpt lat="33.1665094" lon="9.7585604"><ele>225.0</ele><time>2026-04-29T07:49:39.565Z</time></trkpt><trkpt lat="33.166649" lon="9.7585321"><ele>225.0</ele><time>2026-04-29T07:49:40.567Z</time></trkpt><trkpt lat="33.1667886" lon="9.758506"><ele>225.0</ele><time>2026-04-29T07:49:41.568Z</time></trkpt><trkpt lat="33.1669322" lon="9.7584879"><ele>225.0</ele><time>2026-04-29T07:49:42.58Z</time></trkpt><trkpt lat="33.1670721" lon="9.7584618"><ele>225.0</ele><time>2026-04-29T07:49:43.587Z</time></trkpt><trkpt lat="33.1672068" lon="9.7584314"><ele>225.0</ele><time>2026-04-29T07:49:44.577Z</time></trkpt><trkpt lat="33.1673499" lon="9.7583979"><ele>225.0</ele><time>2026-04-29T07:49:45.574Z</time></trkpt><trkpt lat="33.1674941" lon="9.7583617"><ele>225.0</ele><time>2026-04-29T07:49:46.583Z</time></trkpt><trkpt lat="33.1676446" lon="9.7583263"><ele>225.0</ele><time>2026-04-29T07:49:47.571Z</time></trkpt><trkpt lat="33.1677907" lon="9.758288"><ele>226.0</ele><time>2026-04-29T07:49:48.579Z</time></trkpt><trkpt lat="33.1679376" lon="9.7582351"><ele>227.0</ele><time>2026-04-29T07:49:49.577Z</time></trkpt><trkpt lat="33.1680821" lon="9.7581674"><ele>228.0</ele><time>2026-04-29T07:49:50.573Z</time></trkpt><trkpt lat="33.1682244" lon="9.7580867"><ele>228.0</ele><time>2026-04-29T07:49:51.582Z</time></trkpt><trkpt lat="33.1683652" lon="9.757999"><ele>228.0</ele><time>2026-04-29T07:49:52.592Z</time></trkpt><trkpt lat="33.1685057" lon="9.7579008"><ele>228.0</ele><time>2026-04-29T07:49:53.578Z</time></trkpt><trkpt lat="33.1686384" lon="9.7577997"><ele>227.33333333333331</ele><time>2026-04-29T07:49:54.564Z</time></trkpt><trkpt lat="33.1687734" lon="9.757688"><ele>226.66666666666666</ele><time>2026-04-29T07:49:55.579Z</time></trkpt><trkpt lat="33.1689143" lon="9.7575772"><ele>226.0</ele><time>2026-04-29T07:49:56.578Z</time></trkpt><trkpt lat="33.1690559" lon="9.7574757"><ele>225.33333333333331</ele><time>2026-04-29T07:49:57.574Z</time></trkpt><trkpt lat="33.1692056" lon="9.7573876"><ele>224.66666666666669</ele><time>2026-04-29T07:49:58.576Z</time></trkpt><trkpt lat="33.1693668" lon="9.7573193"><ele>224.0</ele><time>2026-04-29T07:49:59.571Z</time></trkpt><trkpt lat="33.1695265" lon="9.75726"><ele>224.0</ele><time>2026-04-29T07:50:00.582Z</time></trkpt><trkpt lat="33.1696926" lon="9.7572061"><ele>224.0</ele><time>2026-04-29T07:50:01.571Z</time></trkpt><trkpt lat="33.1698598" lon="9.7571619"><ele>224.0</ele><time>2026-04-29T07:50:02.564Z</time></trkpt><trkpt lat="33.1700355" lon="9.757125"><ele>223.0</ele><time>2026-04-29T07:50:03.57Z</time></trkpt><trkpt lat="33.1702132" lon="9.7571004"><ele>222.0</ele><time>2026-04-29T07:50:04.595Z</time></trkpt><trkpt lat="33.170385" lon="9.7570811"><ele>221.0</ele><time>2026-04-29T07:50:05.56Z</time></trkpt><trkpt lat="33.1705574" lon="9.757062"><ele>221.33333333333334</ele><time>2026-04-29T07:50:06.559Z</time></trkpt><trkpt lat="33.1707286" lon="9.757051"><ele>221.66666666666669</ele><time>2026-04-29T07:50:07.558Z</time></trkpt><trkpt lat="33.1709077" lon="9.7570463"><ele>222.0</ele><time>2026-04-29T07:50:08.575Z</time></trkpt><trkpt lat="33.171078" lon="9.7570516"><ele>222.0</ele><time>2026-04-29T07:50:09.562Z</time></trkpt><trkpt lat="33.171248" lon="9.7570529"><ele>222.0</ele><time>2026-04-29T07:50:10.566Z</time></trkpt><trkpt lat="33.1714176" lon="9.7570427"><ele>222.0</ele><time>2026-04-29T07:50:11.584Z</time></trkpt><trkpt lat="33.1715924" lon="9.7570254"><ele>222.0</ele><time>2026-04-29T07:50:12.578Z</time></trkpt><trkpt lat="33.1717565" lon="9.7569956"><ele>222.0</ele><time>2026-04-29T07:50:13.573Z</time></trkpt><trkpt lat="33.1719195" lon="9.7569546"><ele>222.0</ele><time>2026-04-29T07:50:14.559Z</time></trkpt><trkpt lat="33.1720972" lon="9.7569131"><ele>222.0</ele><time>2026-04-29T07:50:15.568Z</time></trkpt><trkpt lat="33.1722809" lon="9.7568847"><ele>222.0</ele><time>2026-04-29T07:50:16.564Z</time></trkpt><trkpt lat="33.1724588" lon="9.7568608"><ele>222.0</ele><time>2026-04-29T07:50:17.563Z</time></trkpt><trkpt lat="33.1726388" lon="9.7568308"><ele>221.33333333333331</ele><time>2026-04-29T07:50:18.562Z</time></trkpt><trkpt lat="33.1728152" lon="9.756796"><ele>220.66666666666666</ele><time>2026-04-29T07:50:19.573Z</time></trkpt><trkpt lat="33.1729872" lon="9.7567686"><ele>220.0</ele><time>2026-04-29T07:50:20.574Z</time></trkpt><trkpt lat="33.1731471" lon="9.7567453"><ele>220.25</ele><time>2026-04-29T07:50:21.572Z</time></trkpt><trkpt lat="33.1732804" lon="9.7567278"><ele>220.5</ele><time>2026-04-29T07:50:22.583Z</time></trkpt><trkpt lat="33.1733957" lon="9.7567153"><ele>220.75</ele><time>2026-04-29T07:50:23.575Z</time></trkpt><trkpt lat="33.1735111" lon="9.7567084"><ele>221.0</ele><time>2026-04-29T07:50:24.565Z</time></trkpt><trkpt lat="33.1736459" lon="9.756708"><ele>221.0</ele><time>2026-04-29T07:50:25.568Z</time></trkpt><trkpt lat="33.1737829" lon="9.7567042"><ele>221.0</ele><time>2026-04-29T07:50:26.561Z</time></trkpt><trkpt lat="33.1739267" lon="9.7567008"><ele>221.0</ele><time>2026-04-29T07:50:27.563Z</time></trkpt><trkpt lat="33.1740742" lon="9.7567002"><ele>221.0</ele><time>2026-04-29T07:50:28.578Z</time></trkpt><trkpt lat="33.1742277" lon="9.7567014"><ele>221.5</ele><time>2026-04-29T07:50:29.572Z</time></trkpt><trkpt lat="33.1743811" lon="9.7567075"><ele>222.0</ele><time>2026-04-29T07:50:30.557Z</time></trkpt><trkpt lat="33.1745334" lon="9.7567086"><ele>222.5</ele><time>2026-04-29T07:50:31.584Z</time></trkpt><trkpt lat="33.1746749" lon="9.7567075"><ele>223.0</ele><time>2026-04-29T07:50:32.57Z</time></trkpt><trkpt lat="33.1748128" lon="9.7567132"><ele>223.75</ele><time>2026-04-29T07:50:33.581Z</time></trkpt><trkpt lat="33.1749404" lon="9.7567098"><ele>224.5</ele><time>2026-04-29T07:50:34.579Z</time></trkpt><trkpt lat="33.1750739" lon="9.7567075"><ele>225.25</ele><time>2026-04-29T07:50:35.586Z</time></trkpt><trkpt lat="33.1752062" lon="9.7567033"><ele>226.0</ele><time>2026-04-29T07:50:36.565Z</time></trkpt><trkpt lat="33.1753387" lon="9.7566945"><ele>226.0</ele><time>2026-04-29T07:50:37.568Z</time></trkpt><trkpt lat="33.1754694" lon="9.7566874"><ele>226.0</ele><time>2026-04-29T07:50:38.603Z</time></trkpt><trkpt lat="33.1755984" lon="9.7566693"><ele>226.0</ele><time>2026-04-29T07:50:39.565Z</time></trkpt><trkpt lat="33.1757152" lon="9.7566508"><ele>226.0</ele><time>2026-04-29T07:50:40.581Z</time></trkpt><trkpt lat="33.1758408" lon="9.7566335"><ele>226.25</ele><time>2026-04-29T07:50:41.564Z</time></trkpt><trkpt lat="33.1759585" lon="9.7566209"><ele>226.5</ele><time>2026-04-29T07:50:42.579Z</time></trkpt><trkpt lat="33.176085" lon="9.7566028"><ele>226.75</ele><time>2026-04-29T07:50:43.578Z</time></trkpt><trkpt lat="33.1762203" lon="9.756581"><ele>227.0</ele><time>2026-04-29T07:50:44.595Z</time></trkpt><trkpt lat="33.1763655" lon="9.7565659"><ele>227.0</ele><time>2026-04-29T07:50:45.564Z</time></trkpt><trkpt lat="33.1765162" lon="9.7565448"><ele>227.0</ele><time>2026-04-29T07:50:46.565Z</time></trkpt><trkpt lat="33.1766732" lon="9.7565175"><ele>227.0</ele><time>2026-04-29T07:50:47.566Z</time></trkpt><trkpt lat="33.1768357" lon="9.756484"><ele>227.33333333333334</ele><time>2026-04-29T07:50:48.571Z</time></trkpt><trkpt lat="33.177001" lon="9.7564507"><ele>227.66666666666669</ele><time>2026-04-29T07:50:49.575Z</time></trkpt><trkpt lat="33.1771786" lon="9.7564101"><ele>228.0</ele><time>2026-04-29T07:50:50.569Z</time></trkpt><trkpt lat="33.1773501" lon="9.7563743"><ele>228.0</ele><time>2026-04-29T07:50:51.57Z</time></trkpt><trkpt lat="33.1775234" lon="9.756337"><ele>228.0</ele><time>2026-04-29T07:50:52.604Z</time></trkpt><trkpt lat="33.1776952" lon="9.7562878"><ele>228.0</ele><time>2026-04-29T07:50:53.576Z</time></trkpt><trkpt lat="33.1778667" lon="9.7562295"><ele>228.0</ele><time>2026-04-29T07:50:54.585Z</time></trkpt><trkpt lat="33.1780318" lon="9.7561652"><ele>228.0</ele><time>2026-04-29T07:50:55.565Z</time></trkpt><trkpt lat="33.1782092" lon="9.7560945"><ele>228.0</ele><time>2026-04-29T07:50:56.62Z</time></trkpt><trkpt lat="33.1783833" lon="9.7560223"><ele>228.33333333333331</ele><time>2026-04-29T07:50:57.582Z</time></trkpt><trkpt lat="33.17856" lon="9.755953"><ele>228.66666666666666</ele><time>2026-04-29T07:50:58.576Z</time></trkpt><trkpt lat="33.1787397" lon="9.7558787"><ele>229.0</ele><time>2026-04-29T07:50:59.569Z</time></trkpt><trkpt lat="33.1789191" lon="9.7558103"><ele>229.0</ele><time>2026-04-29T07:51:00.555Z</time></trkpt><trkpt lat="33.1790988" lon="9.7557397"><ele>229.0</ele><time>2026-04-29T07:51:01.579Z</time></trkpt><trkpt lat="33.179274" lon="9.7556715"><ele>229.0</ele><time>2026-04-29T07:51:02.554Z</time></trkpt><trkpt lat="33.1794493" lon="9.7556112"><ele>229.0</ele><time>2026-04-29T07:51:03.576Z</time></trkpt><trkpt lat="33.1796289" lon="9.7555643"><ele>229.0</ele><time>2026-04-29T07:51:04.563Z</time></trkpt><trkpt lat="33.1798116" lon="9.7555224"><ele>229.0</ele><time>2026-04-29T07:51:05.558Z</time></trkpt><trkpt lat="33.1799925" lon="9.7554803"><ele>228.33333333333331</ele><time>2026-04-29T07:51:06.572Z</time></trkpt><trkpt lat="33.1801724" lon="9.7554473"><ele>227.66666666666669</ele><time>2026-04-29T07:51:07.567Z</time></trkpt><trkpt lat="33.1803525" lon="9.755413"><ele>227.0</ele><time>2026-04-29T07:51:08.578Z</time></trkpt><trkpt lat="33.1805278" lon="9.7553777"><ele>227.0</ele><time>2026-04-29T07:51:09.568Z</time></trkpt><trkpt lat="33.1807059" lon="9.7553475"><ele>227.0</ele><time>2026-04-29T07:51:10.563Z</time></trkpt><trkpt lat="33.1808825" lon="9.7553225"><ele>227.0</ele><time>2026-04-29T07:51:11.566Z</time></trkpt><trkpt lat="33.1810616" lon="9.7553172"><ele>227.0</ele><time>2026-04-29T07:51:12.57Z</time></trkpt><trkpt lat="33.1812442" lon="9.7553216"><ele>227.0</ele><time>2026-04-29T07:51:13.579Z</time></trkpt><trkpt lat="33.1814206" lon="9.7553348"><ele>227.0</ele><time>2026-04-29T07:51:14.569Z</time></trkpt><trkpt lat="33.1816047" lon="9.7553509"><ele>227.0</ele><time>2026-04-29T07:51:15.564Z</time></trkpt><trkpt lat="33.1817753" lon="9.7553741"><ele>227.0</ele><time>2026-04-29T07:51:16.569Z</time></trkpt><trkpt lat="33.181951" lon="9.7553974"><ele>227.0</ele><time>2026-04-29T07:51:17.58Z</time></trkpt><trkpt lat="33.1821284" lon="9.7554098"><ele>227.0</ele><time>2026-04-29T07:51:18.577Z</time></trkpt><trkpt lat="33.1823011" lon="9.7554224"><ele>227.0</ele><time>2026-04-29T07:51:19.583Z</time></trkpt><trkpt lat="33.1824711" lon="9.7554281"><ele>227.0</ele><time>2026-04-29T07:51:20.577Z</time></trkpt><trkpt lat="33.1826482" lon="9.7554212"><ele>228.0</ele><time>2026-04-29T07:51:21.57Z</time></trkpt><trkpt lat="33.1828201" lon="9.7554071"><ele>229.0</ele><time>2026-04-29T07:51:22.589Z</time></trkpt><trkpt lat="33.1829909" lon="9.755391"><ele>230.0</ele><time>2026-04-29T07:51:23.571Z</time></trkpt><trkpt lat="33.1831598" lon="9.7553667"><ele>230.0</ele><time>2026-04-29T07:51:24.583Z</time></trkpt><trkpt lat="33.1833313" lon="9.7553321"><ele>230.0</ele><time>2026-04-29T07:51:25.572Z</time></trkpt><trkpt lat="33.1835002" lon="9.7553068"><ele>230.0</ele><time>2026-04-29T07:51:26.576Z</time></trkpt><trkpt lat="33.183669" lon="9.7552727"><ele>230.0</ele><time>2026-04-29T07:51:27.573Z</time></trkpt><trkpt lat="33.183833" lon="9.7552405"><ele>230.0</ele><time>2026-04-29T07:51:28.584Z</time></trkpt><trkpt lat="33.1839943" lon="9.7552097"><ele>230.0</ele><time>2026-04-29T07:51:29.583Z</time></trkpt><trkpt lat="33.1841575" lon="9.755177"><ele>230.33333333333334</ele><time>2026-04-29T07:51:30.582Z</time></trkpt><trkpt lat="33.1843124" lon="9.7551472"><ele>230.66666666666669</ele><time>2026-04-29T07:51:31.588Z</time></trkpt><trkpt lat="33.184474" lon="9.7551145"><ele>231.0</ele><time>2026-04-29T07:51:32.567Z</time></trkpt><trkpt lat="33.1846344" lon="9.7550756"><ele>231.0</ele><time>2026-04-29T07:51:33.56Z</time></trkpt><trkpt lat="33.1847957" lon="9.7550423"><ele>231.0</ele><time>2026-04-29T07:51:34.566Z</time></trkpt><trkpt lat="33.1849591" lon="9.7550025"><ele>231.0</ele><time>2026-04-29T07:51:35.594Z</time></trkpt><trkpt lat="33.1851261" lon="9.754968"><ele>230.66666666666669</ele><time>2026-04-29T07:51:36.575Z</time></trkpt><trkpt lat="33.1852941" lon="9.7549377"><ele>230.33333333333334</ele><time>2026-04-29T07:51:37.567Z</time></trkpt><trkpt lat="33.1854607" lon="9.7549079"><ele>230.0</ele><time>2026-04-29T07:51:38.566Z</time></trkpt><trkpt lat="33.1856308" lon="9.7548779"><ele>229.66666666666669</ele><time>2026-04-29T07:51:39.569Z</time></trkpt><trkpt lat="33.1857977" lon="9.7548452"><ele>229.33333333333331</ele><time>2026-04-29T07:51:40.579Z</time></trkpt><trkpt lat="33.1859635" lon="9.7548116"><ele>229.0</ele><time>2026-04-29T07:51:41.582Z</time></trkpt><trkpt lat="33.1861273" lon="9.7547787"><ele>229.0</ele><time>2026-04-29T07:51:42.573Z</time></trkpt><trkpt lat="33.1862924" lon="9.7547447"><ele>229.0</ele><time>2026-04-29T07:51:43.564Z</time></trkpt><trkpt lat="33.1864586" lon="9.754705"><ele>229.0</ele><time>2026-04-29T07:51:44.57Z</time></trkpt><trkpt lat="33.1866205" lon="9.7546683"><ele>229.0</ele><time>2026-04-29T07:51:45.575Z</time></trkpt><trkpt lat="33.1867777" lon="9.7546349"><ele>229.0</ele><time>2026-04-29T07:51:46.596Z</time></trkpt><trkpt lat="33.1869313" lon="9.7546053"><ele>229.0</ele><time>2026-04-29T07:51:47.555Z</time></trkpt><trkpt lat="33.1870857" lon="9.7545723"><ele>229.0</ele><time>2026-04-29T07:51:48.568Z</time></trkpt><trkpt lat="33.1872357" lon="9.7545438"><ele>229.0</ele><time>2026-04-29T07:51:49.573Z</time></trkpt><trkpt lat="33.1873838" lon="9.754511"><ele>229.0</ele><time>2026-04-29T07:51:50.577Z</time></trkpt><trkpt lat="33.1875328" lon="9.7544801"><ele>228.75</ele><time>2026-04-29T07:51:51.559Z</time></trkpt><trkpt lat="33.1876847" lon="9.7544573"><ele>228.5</ele><time>2026-04-29T07:51:52.577Z</time></trkpt><trkpt lat="33.1878336" lon="9.7544345"><ele>228.25</ele><time>2026-04-29T07:51:53.565Z</time></trkpt><trkpt lat="33.1879749" lon="9.7544167"><ele>228.0</ele><time>2026-04-29T07:51:54.58Z</time></trkpt><trkpt lat="33.1881095" lon="9.7544003"><ele>228.25</ele><time>2026-04-29T07:51:55.576Z</time></trkpt><trkpt lat="33.1882303" lon="9.7543819"><ele>228.5</ele><time>2026-04-29T07:51:56.567Z</time></trkpt><trkpt lat="33.1883442" lon="9.754367"><ele>228.75</ele><time>2026-04-29T07:51:57.586Z</time></trkpt><trkpt lat="33.1884578" lon="9.7543457"><ele>229.0</ele><time>2026-04-29T07:51:58.575Z</time></trkpt><trkpt lat="33.1885739" lon="9.7543185"><ele>229.0</ele><time>2026-04-29T07:51:59.556Z</time></trkpt><trkpt lat="33.1886939" lon="9.7542932"><ele>229.0</ele><time>2026-04-29T07:52:00.565Z</time></trkpt><trkpt lat="33.1888138" lon="9.754262"><ele>229.0</ele><time>2026-04-29T07:52:01.574Z</time></trkpt><trkpt lat="33.1889356" lon="9.7542356"><ele>229.0</ele><time>2026-04-29T07:52:02.587Z</time></trkpt><trkpt lat="33.1890523" lon="9.7542142"><ele>228.75</ele><time>2026-04-29T07:52:03.576Z</time></trkpt><trkpt lat="33.189169" lon="9.75419"><ele>228.5</ele><time>2026-04-29T07:52:04.577Z</time></trkpt><trkpt lat="33.1892894" lon="9.7541663"><ele>228.25</ele><time>2026-04-29T07:52:05.556Z</time></trkpt><trkpt lat="33.189416" lon="9.7541371"><ele>228.0</ele><time>2026-04-29T07:52:06.565Z</time></trkpt><trkpt lat="33.1895471" lon="9.7541107"><ele>228.0</ele><time>2026-04-29T07:52:07.553Z</time></trkpt><trkpt lat="33.1896854" lon="9.7540827"><ele>228.0</ele><time>2026-04-29T07:52:08.569Z</time></trkpt><trkpt lat="33.1898289" lon="9.7540556"><ele>228.0</ele><time>2026-04-29T07:52:09.565Z</time></trkpt><trkpt lat="33.189971" lon="9.7540196"><ele>228.0</ele><time>2026-04-29T07:52:10.588Z</time></trkpt><trkpt lat="33.1901243" lon="9.7539924"><ele>227.66666666666669</ele><time>2026-04-29T07:52:11.585Z</time></trkpt><trkpt lat="33.190284" lon="9.7539631"><ele>227.33333333333334</ele><time>2026-04-29T07:52:12.568Z</time></trkpt><trkpt lat="33.1904379" lon="9.7539367"><ele>227.0</ele><time>2026-04-29T07:52:13.571Z</time></trkpt><trkpt lat="33.1905946" lon="9.7539129"><ele>227.66666666666669</ele><time>2026-04-29T07:52:14.588Z</time></trkpt><trkpt lat="33.1907528" lon="9.7538975"><ele>228.33333333333331</ele><time>2026-04-29T07:52:15.567Z</time></trkpt><trkpt lat="33.1909068" lon="9.7538729"><ele>229.0</ele><time>2026-04-29T07:52:16.567Z</time></trkpt><trkpt lat="33.1910559" lon="9.7538483"><ele>229.0</ele><time>2026-04-29T07:52:17.558Z</time></trkpt><trkpt lat="33.1912024" lon="9.7538237"><ele>229.0</ele><time>2026-04-29T07:52:18.579Z</time></trkpt><trkpt lat="33.1913425" lon="9.7537971"><ele>229.0</ele><time>2026-04-29T07:52:19.566Z</time></trkpt><trkpt lat="33.191484" lon="9.7537725"><ele>229.0</ele><time>2026-04-29T07:52:20.587Z</time></trkpt><trkpt lat="33.1916278" lon="9.7537468"><ele>229.5</ele><time>2026-04-29T07:52:21.572Z</time></trkpt><trkpt lat="33.1917656" lon="9.7537155"><ele>230.0</ele><time>2026-04-29T07:52:22.576Z</time></trkpt><trkpt lat="33.1919084" lon="9.7536923"><ele>230.5</ele><time>2026-04-29T07:52:23.571Z</time></trkpt><trkpt lat="33.192048" lon="9.7536686"><ele>231.0</ele><time>2026-04-29T07:52:24.572Z</time></trkpt><trkpt lat="33.192184" lon="9.7536417"><ele>231.0</ele><time>2026-04-29T07:52:25.58Z</time></trkpt><trkpt lat="33.1923232" lon="9.7536141"><ele>231.0</ele><time>2026-04-29T07:52:26.578Z</time></trkpt><trkpt lat="33.1924641" lon="9.7535874"><ele>231.0</ele><time>2026-04-29T07:52:27.575Z</time></trkpt><trkpt lat="33.1926015" lon="9.7535645"><ele>231.0</ele><time>2026-04-29T07:52:28.56Z</time></trkpt><trkpt lat="33.1927383" lon="9.7535404"><ele>230.75</ele><time>2026-04-29T07:52:29.569Z</time></trkpt><trkpt lat="33.1928719" lon="9.7535129"><ele>230.5</ele><time>2026-04-29T07:52:30.575Z</time></trkpt><trkpt lat="33.1930149" lon="9.753488"><ele>230.25</ele><time>2026-04-29T07:52:31.584Z</time></trkpt><trkpt lat="33.193158" lon="9.7534578"><ele>230.0</ele><time>2026-04-29T07:52:32.587Z</time></trkpt><trkpt lat="33.1933107" lon="9.7534249"><ele>230.0</ele><time>2026-04-29T07:52:33.576Z</time></trkpt><trkpt lat="33.1934687" lon="9.7533941"><ele>230.0</ele><time>2026-04-29T07:52:34.554Z</time></trkpt><trkpt lat="33.1936309" lon="9.753358"><ele>230.0</ele><time>2026-04-29T07:52:35.575Z</time></trkpt><trkpt lat="33.1938023" lon="9.7533282"><ele>230.0</ele><time>2026-04-29T07:52:36.577Z</time></trkpt><trkpt lat="33.1939725" lon="9.7532905"><ele>230.0</ele><time>2026-04-29T07:52:37.548Z</time></trkpt><trkpt lat="33.1941427" lon="9.7532546"><ele>230.0</ele><time>2026-04-29T07:52:38.563Z</time></trkpt><trkpt lat="33.1943084" lon="9.7532209"><ele>230.33333333333334</ele><time>2026-04-29T07:52:39.563Z</time></trkpt><trkpt lat="33.194478" lon="9.753184"><ele>230.66666666666669</ele><time>2026-04-29T07:52:40.563Z</time></trkpt><trkpt lat="33.1946418" lon="9.7531441"><ele>231.0</ele><time>2026-04-29T07:52:41.555Z</time></trkpt><trkpt lat="33.1948116" lon="9.7531112"><ele>230.66666666666669</ele><time>2026-04-29T07:52:42.562Z</time></trkpt><trkpt lat="33.194986" lon="9.7530796"><ele>230.33333333333334</ele><time>2026-04-29T07:52:43.545Z</time></trkpt><trkpt lat="33.1951689" lon="9.7530451"><ele>230.0</ele><time>2026-04-29T07:52:44.574Z</time></trkpt><trkpt lat="33.1953529" lon="9.7530079"><ele>230.0</ele><time>2026-04-29T07:52:45.574Z</time></trkpt><trkpt lat="33.1955372" lon="9.7529722"><ele>230.0</ele><time>2026-04-29T07:52:46.572Z</time></trkpt><trkpt lat="33.1957214" lon="9.7529368"><ele>230.0</ele><time>2026-04-29T07:52:47.58Z</time></trkpt><trkpt lat="33.1959088" lon="9.7529006"><ele>230.0</ele><time>2026-04-29T07:52:48.583Z</time></trkpt><trkpt lat="33.1960981" lon="9.7528681"><ele>230.0</ele><time>2026-04-29T07:52:49.567Z</time></trkpt><trkpt lat="33.1962849" lon="9.7528313"><ele>230.0</ele><time>2026-04-29T07:52:50.57Z</time></trkpt><trkpt lat="33.1964731" lon="9.7527944"><ele>230.0</ele><time>2026-04-29T07:52:51.581Z</time></trkpt><trkpt lat="33.1966609" lon="9.7527546"><ele>230.0</ele><time>2026-04-29T07:52:52.57Z</time></trkpt><trkpt lat="33.1968503" lon="9.7527108"><ele>230.0</ele><time>2026-04-29T07:52:53.569Z</time></trkpt><trkpt lat="33.1970445" lon="9.7526739"><ele>230.0</ele><time>2026-04-29T07:52:54.58Z</time></trkpt><trkpt lat="33.197236" lon="9.7526414"><ele>230.0</ele><time>2026-04-29T07:52:55.573Z</time></trkpt><trkpt lat="33.1974248" lon="9.7526099"><ele>230.0</ele><time>2026-04-29T07:52:56.591Z</time></trkpt><trkpt lat="33.1976138" lon="9.752576"><ele>230.0</ele><time>2026-04-29T07:52:57.579Z</time></trkpt><trkpt lat="33.1978" lon="9.7525419"><ele>230.0</ele><time>2026-04-29T07:52:58.565Z</time></trkpt><trkpt lat="33.1979828" lon="9.7525044"><ele>230.0</ele><time>2026-04-29T07:52:59.579Z</time></trkpt><trkpt lat="33.1981591" lon="9.752467"><ele>230.33333333333334</ele><time>2026-04-29T07:53:00.574Z</time></trkpt><trkpt lat="33.1983332" lon="9.7524314"><ele>230.66666666666669</ele><time>2026-04-29T07:53:01.588Z</time></trkpt><trkpt lat="33.1985008" lon="9.7523918"><ele>231.0</ele><time>2026-04-29T07:53:02.581Z</time></trkpt><trkpt lat="33.1986578" lon="9.7523612"><ele>231.0</ele><time>2026-04-29T07:53:03.573Z</time></trkpt><trkpt lat="33.1988013" lon="9.7523303"><ele>231.0</ele><time>2026-04-29T07:53:04.589Z</time></trkpt><trkpt lat="33.1989425" lon="9.7523033"><ele>231.0</ele><time>2026-04-29T07:53:05.568Z</time></trkpt><trkpt lat="33.1990879" lon="9.7522756"><ele>231.0</ele><time>2026-04-29T07:53:06.567Z</time></trkpt><trkpt lat="33.1992391" lon="9.7522473"><ele>231.0</ele><time>2026-04-29T07:53:07.559Z</time></trkpt><trkpt lat="33.1993642" lon="9.7522241"><ele>231.0</ele><time>2026-04-29T07:53:08.564Z</time></trkpt><trkpt lat="33.1994686" lon="9.7522122"><ele>231.0</ele><time>2026-04-29T07:53:09.575Z</time></trkpt><trkpt lat="33.1995818" lon="9.7521914"><ele>231.0</ele><time>2026-04-29T07:53:10.565Z</time></trkpt><trkpt lat="33.199705" lon="9.7521682"><ele>231.0</ele><time>2026-04-29T07:53:11.564Z</time></trkpt><trkpt lat="33.1998332" lon="9.7521435"><ele>231.0</ele><time>2026-04-29T07:53:12.579Z</time></trkpt><trkpt lat="33.1999669" lon="9.7521229"><ele>231.0</ele><time>2026-04-29T07:53:13.566Z</time></trkpt><trkpt lat="33.2001037" lon="9.7520981"><ele>231.0</ele><time>2026-04-29T07:53:14.583Z</time></trkpt><trkpt lat="33.2002515" lon="9.7520742"><ele>231.0</ele><time>2026-04-29T07:53:15.569Z</time></trkpt><trkpt lat="33.2003951" lon="9.7520331"><ele>231.0</ele><time>2026-04-29T07:53:16.624Z</time></trkpt><trkpt lat="33.2005355" lon="9.7519933"><ele>231.0</ele><time>2026-04-29T07:53:17.567Z</time></trkpt><trkpt lat="33.200682" lon="9.7519465"><ele>231.0</ele><time>2026-04-29T07:53:18.575Z</time></trkpt><trkpt lat="33.2008287" lon="9.7518861"><ele>230.66666666666669</ele><time>2026-04-29T07:53:19.561Z</time></trkpt><trkpt lat="33.2009781" lon="9.7518119"><ele>230.33333333333334</ele><time>2026-04-29T07:53:20.563Z</time></trkpt><trkpt lat="33.2011296" lon="9.7517347"><ele>230.0</ele><time>2026-04-29T07:53:21.559Z</time></trkpt><trkpt lat="33.2012771" lon="9.7516569"><ele>230.0</ele><time>2026-04-29T07:53:22.567Z</time></trkpt><trkpt lat="33.2014131" lon="9.7515699"><ele>230.0</ele><time>2026-04-29T07:53:23.571Z</time></trkpt><trkpt lat="33.2015588" lon="9.7514851"><ele>230.0</ele><time>2026-04-29T07:53:24.571Z</time></trkpt><trkpt lat="33.2017061" lon="9.7513962"><ele>230.0</ele><time>2026-04-29T07:53:25.564Z</time></trkpt><trkpt lat="33.2018598" lon="9.7513118"><ele>230.0</ele><time>2026-04-29T07:53:26.59Z</time></trkpt><trkpt lat="33.2020172" lon="9.7512365"><ele>230.0</ele><time>2026-04-29T07:53:27.575Z</time></trkpt><trkpt lat="33.2021775" lon="9.751172"><ele>230.0</ele><time>2026-04-29T07:53:28.577Z</time></trkpt><trkpt lat="33.2023508" lon="9.7511201"><ele>230.0</ele><time>2026-04-29T07:53:29.578Z</time></trkpt><trkpt lat="33.20253" lon="9.7510886"><ele>230.0</ele><time>2026-04-29T07:53:30.567Z</time></trkpt><trkpt lat="33.2027099" lon="9.7510624"><ele>230.0</ele><time>2026-04-29T07:53:31.56Z</time></trkpt><trkpt lat="33.202895" lon="9.7510402"><ele>230.0</ele><time>2026-04-29T07:53:32.579Z</time></trkpt><trkpt lat="33.2030695" lon="9.751021"><ele>230.0</ele><time>2026-04-29T07:53:33.582Z</time></trkpt><trkpt lat="33.2032527" lon="9.7510244"><ele>230.33333333333334</ele><time>2026-04-29T07:53:34.568Z</time></trkpt><trkpt lat="33.2034387" lon="9.751043"><ele>230.66666666666669</ele><time>2026-04-29T07:53:35.555Z</time></trkpt><trkpt lat="33.2036198" lon="9.7510623"><ele>231.0</ele><time>2026-04-29T07:53:36.582Z</time></trkpt><trkpt lat="33.2038011" lon="9.7510684"><ele>231.0</ele><time>2026-04-29T07:53:37.572Z</time></trkpt><trkpt lat="33.2039786" lon="9.7510706"><ele>231.0</ele><time>2026-04-29T07:53:38.565Z</time></trkpt><trkpt lat="33.2041598" lon="9.7510532"><ele>231.0</ele><time>2026-04-29T07:53:39.571Z</time></trkpt><trkpt lat="33.2043355" lon="9.7510353"><ele>230.33333333333331</ele><time>2026-04-29T07:53:40.575Z</time></trkpt><trkpt lat="33.2045159" lon="9.7510112"><ele>229.66666666666666</ele><time>2026-04-29T07:53:41.579Z</time></trkpt><trkpt lat="33.2046989" lon="9.7509768"><ele>229.0</ele><time>2026-04-29T07:53:42.56Z</time></trkpt><trkpt lat="33.2048823" lon="9.7509448"><ele>228.66666666666666</ele><time>2026-04-29T07:53:43.607Z</time></trkpt><trkpt lat="33.2050668" lon="9.750908"><ele>228.33333333333331</ele><time>2026-04-29T07:53:44.565Z</time></trkpt><trkpt lat="33.2052547" lon="9.7508751"><ele>228.0</ele><time>2026-04-29T07:53:45.566Z</time></trkpt><trkpt lat="33.2054408" lon="9.7508452"><ele>228.0</ele><time>2026-04-29T07:53:46.595Z</time></trkpt><trkpt lat="33.2056202" lon="9.7508183"><ele>228.0</ele><time>2026-04-29T07:53:47.568Z</time></trkpt><trkpt lat="33.2057958" lon="9.7507863"><ele>228.0</ele><time>2026-04-29T07:53:48.585Z</time></trkpt><trkpt lat="33.205966" lon="9.750754"><ele>228.5</ele><time>2026-04-29T07:53:49.565Z</time></trkpt><trkpt lat="33.2061325" lon="9.7507176"><ele>229.0</ele><time>2026-04-29T07:53:50.594Z</time></trkpt><trkpt lat="33.2062757" lon="9.750684"><ele>229.5</ele><time>2026-04-29T07:53:51.561Z</time></trkpt><trkpt lat="33.2064036" lon="9.7506474"><ele>230.0</ele><time>2026-04-29T07:53:52.56Z</time></trkpt><trkpt lat="33.2065172" lon="9.7506166"><ele>230.0</ele><time>2026-04-29T07:53:53.57Z</time></trkpt><trkpt lat="33.2066215" lon="9.750582"><ele>230.0</ele><time>2026-04-29T07:53:54.57Z</time></trkpt><trkpt lat="33.2067167" lon="9.7505499"><ele>230.0</ele><time>2026-04-29T07:53:55.565Z</time></trkpt><trkpt lat="33.2068152" lon="9.7505294"><ele>230.0</ele><time>2026-04-29T07:53:56.582Z</time></trkpt><trkpt lat="33.206912" lon="9.750511"><ele>230.0</ele><time>2026-04-29T07:53:57.57Z</time></trkpt><trkpt lat="33.2070201" lon="9.7504988"><ele>230.0</ele><time>2026-04-29T07:53:58.597Z</time></trkpt><trkpt lat="33.2071284" lon="9.7504821"><ele>230.0</ele><time>2026-04-29T07:53:59.584Z</time></trkpt><trkpt lat="33.2072406" lon="9.7504645"><ele>230.0</ele><time>2026-04-29T07:54:00.568Z</time></trkpt><trkpt lat="33.2073475" lon="9.7504438"><ele>230.0</ele><time>2026-04-29T07:54:01.581Z</time></trkpt><trkpt lat="33.2074496" lon="9.7504262"><ele>230.0</ele><time>2026-04-29T07:54:02.576Z</time></trkpt><trkpt lat="33.2075529" lon="9.7504011"><ele>230.0</ele><time>2026-04-29T07:54:03.575Z</time></trkpt><trkpt lat="33.2076526" lon="9.7503753"><ele>230.0</ele><time>2026-04-29T07:54:04.566Z</time></trkpt><trkpt lat="33.2077484" lon="9.7503478"><ele>230.0</ele><time>2026-04-29T07:54:05.572Z</time></trkpt><trkpt lat="33.207843" lon="9.7503223"><ele>230.0</ele><time>2026-04-29T07:54:06.57Z</time></trkpt><trkpt lat="33.2079406" lon="9.7503032"><ele>230.0</ele><time>2026-04-29T07:54:07.563Z</time></trkpt><trkpt lat="33.2080442" lon="9.750282"><ele>230.0</ele><time>2026-04-29T07:54:08.556Z</time></trkpt><trkpt lat="33.2081496" lon="9.7502571"><ele>230.0</ele><time>2026-04-29T07:54:09.567Z</time></trkpt><trkpt lat="33.2082688" lon="9.7502391"><ele>230.0</ele><time>2026-04-29T07:54:10.57Z</time></trkpt><trkpt lat="33.2083888" lon="9.7502189"><ele>230.0</ele><time>2026-04-29T07:54:11.565Z</time></trkpt><trkpt lat="33.208508" lon="9.750202"><ele>230.25</ele><time>2026-04-29T07:54:12.567Z</time></trkpt><trkpt lat="33.2086376" lon="9.7501847"><ele>230.5</ele><time>2026-04-29T07:54:13.571Z</time></trkpt><trkpt lat="33.2087775" lon="9.7501654"><ele>230.75</ele><time>2026-04-29T07:54:14.573Z</time></trkpt><trkpt lat="33.2089213" lon="9.7501435"><ele>231.0</ele><time>2026-04-29T07:54:15.577Z</time></trkpt><trkpt lat="33.209057" lon="9.7501132"><ele>231.0</ele><time>2026-04-29T07:54:16.568Z</time></trkpt><trkpt lat="33.2091756" lon="9.7500845"><ele>231.0</ele><time>2026-04-29T07:54:17.578Z</time></trkpt><trkpt lat="33.2092935" lon="9.7500617"><ele>231.0</ele><time>2026-04-29T07:54:18.596Z</time></trkpt><trkpt lat="33.2094093" lon="9.7500449"><ele>231.0</ele><time>2026-04-29T07:54:19.569Z</time></trkpt><trkpt lat="33.2095112" lon="9.750022"><ele>231.0</ele><time>2026-04-29T07:54:20.591Z</time></trkpt><trkpt lat="33.2096073" lon="9.7499971"><ele>231.0</ele><time>2026-04-29T07:54:21.577Z</time></trkpt><trkpt lat="33.2096932" lon="9.7499794"><ele>231.0</ele><time>2026-04-29T07:54:22.583Z</time></trkpt><trkpt lat="33.2097719" lon="9.7499599"><ele>231.0</ele><time>2026-04-29T07:54:23.566Z</time></trkpt><trkpt lat="33.2098518" lon="9.7499454"><ele>231.0</ele><time>2026-04-29T07:54:24.571Z</time></trkpt><trkpt lat="33.2099295" lon="9.7499288"><ele>231.0</ele><time>2026-04-29T07:54:25.567Z</time></trkpt><trkpt lat="33.2100048" lon="9.7499147"><ele>231.28571428571428</ele><time>2026-04-29T07:54:26.574Z</time></trkpt><trkpt lat="33.2100722" lon="9.7499014"><ele>231.57142857142856</ele><time>2026-04-29T07:54:27.567Z</time></trkpt><trkpt lat="33.2101396" lon="9.7498889"><ele>231.85714285714286</ele><time>2026-04-29T07:54:28.563Z</time></trkpt><trkpt lat="33.2102033" lon="9.7498786"><ele>232.14285714285714</ele><time>2026-04-29T07:54:29.576Z</time></trkpt><trkpt lat="33.2102679" lon="9.7498691"><ele>232.42857142857142</ele><time>2026-04-29T07:54:30.571Z</time></trkpt><trkpt lat="33.2103467" lon="9.7498569"><ele>232.71428571428572</ele><time>2026-04-29T07:54:31.571Z</time></trkpt><trkpt lat="33.2104419" lon="9.7498346"><ele>233.0</ele><time>2026-04-29T07:54:32.587Z</time></trkpt><trkpt lat="33.2105376" lon="9.7498199"><ele>233.0</ele><time>2026-04-29T07:54:33.568Z</time></trkpt><trkpt lat="33.2106374" lon="9.7498012"><ele>233.0</ele><time>2026-04-29T07:54:34.572Z</time></trkpt><trkpt lat="33.2107411" lon="9.7497848"><ele>233.0</ele><time>2026-04-29T07:54:35.566Z</time></trkpt><trkpt lat="33.2108483" lon="9.749765"><ele>233.0</ele><time>2026-04-29T07:54:36.582Z</time></trkpt><trkpt lat="33.210962" lon="9.7497369"><ele>233.0</ele><time>2026-04-29T07:54:37.576Z</time></trkpt><trkpt lat="33.2110762" lon="9.7497171"><ele>232.5</ele><time>2026-04-29T07:54:38.561Z</time></trkpt><trkpt lat="33.211191" lon="9.7496988"><ele>232.0</ele><time>2026-04-29T07:54:39.565Z</time></trkpt><trkpt lat="33.2113127" lon="9.7496781"><ele>231.5</ele><time>2026-04-29T07:54:40.564Z</time></trkpt><trkpt lat="33.2114628" lon="9.7496577"><ele>231.0</ele><time>2026-04-29T07:54:41.563Z</time></trkpt><trkpt lat="33.2116427" lon="9.7496262"><ele>231.0</ele><time>2026-04-29T07:54:42.573Z</time></trkpt><trkpt lat="33.2118141" lon="9.7495931"><ele>231.0</ele><time>2026-04-29T07:54:43.565Z</time></trkpt><trkpt lat="33.2119791" lon="9.7495658"><ele>231.0</ele><time>2026-04-29T07:54:44.587Z</time></trkpt><trkpt lat="33.2121436" lon="9.7495335"><ele>231.0</ele><time>2026-04-29T07:54:45.57Z</time></trkpt><trkpt lat="33.2123066" lon="9.7495002"><ele>231.0</ele><time>2026-04-29T07:54:46.562Z</time></trkpt><trkpt lat="33.2124655" lon="9.7494653"><ele>231.0</ele><time>2026-04-29T07:54:47.571Z</time></trkpt><trkpt lat="33.2126302" lon="9.7494259"><ele>231.0</ele><time>2026-04-29T07:54:48.566Z</time></trkpt><trkpt lat="33.2127887" lon="9.7493947"><ele>231.0</ele><time>2026-04-29T07:54:49.556Z</time></trkpt><trkpt lat="33.212949" lon="9.7493654"><ele>231.0</ele><time>2026-04-29T07:54:50.579Z</time></trkpt><trkpt lat="33.2131093" lon="9.7493402"><ele>231.0</ele><time>2026-04-29T07:54:51.579Z</time></trkpt><trkpt lat="33.21327" lon="9.7493093"><ele>231.0</ele><time>2026-04-29T07:54:52.575Z</time></trkpt><trkpt lat="33.2134205" lon="9.7492787"><ele>231.0</ele><time>2026-04-29T07:54:53.563Z</time></trkpt><trkpt lat="33.2135647" lon="9.7492526"><ele>231.0</ele><time>2026-04-29T07:54:54.588Z</time></trkpt><trkpt lat="33.213712" lon="9.7492341"><ele>231.0</ele><time>2026-04-29T07:54:55.59Z</time></trkpt><trkpt lat="33.2138485" lon="9.7492187"><ele>231.0</ele><time>2026-04-29T07:54:56.56Z</time></trkpt><trkpt lat="33.2139766" lon="9.7491946"><ele>231.0</ele><time>2026-04-29T07:54:57.605Z</time></trkpt><trkpt lat="33.2141176" lon="9.7491623"><ele>231.0</ele><time>2026-04-29T07:54:58.566Z</time></trkpt><trkpt lat="33.2142636" lon="9.7491347"><ele>231.0</ele><time>2026-04-29T07:54:59.583Z</time></trkpt><trkpt lat="33.2144085" lon="9.749118"><ele>231.0</ele><time>2026-04-29T07:55:00.542Z</time></trkpt><trkpt lat="33.2145476" lon="9.7491096"><ele>231.0</ele><time>2026-04-29T07:55:01.628Z</time></trkpt><trkpt lat="33.2146718" lon="9.7490933"><ele>231.0</ele><time>2026-04-29T07:55:02.571Z</time></trkpt><trkpt lat="33.2148006" lon="9.7490611"><ele>231.0</ele><time>2026-04-29T07:55:03.56Z</time></trkpt><trkpt lat="33.2149376" lon="9.7490275"><ele>231.0</ele><time>2026-04-29T07:55:04.583Z</time></trkpt><trkpt lat="33.2150862" lon="9.7489898"><ele>231.0</ele><time>2026-04-29T07:55:05.572Z</time></trkpt><trkpt lat="33.2152506" lon="9.7489665"><ele>231.33333333333331</ele><time>2026-04-29T07:55:06.574Z</time></trkpt><trkpt lat="33.215429" lon="9.7489356"><ele>231.66666666666666</ele><time>2026-04-29T07:55:07.57Z</time></trkpt><trkpt lat="33.2156122" lon="9.7489022"><ele>232.0</ele><time>2026-04-29T07:55:08.569Z</time></trkpt><trkpt lat="33.2158012" lon="9.7488633"><ele>231.33333333333331</ele><time>2026-04-29T07:55:09.568Z</time></trkpt><trkpt lat="33.2159902" lon="9.7488232"><ele>230.66666666666669</ele><time>2026-04-29T07:55:10.579Z</time></trkpt><trkpt lat="33.21618" lon="9.7487847"><ele>230.0</ele><time>2026-04-29T07:55:11.57Z</time></trkpt><trkpt lat="33.2163711" lon="9.7487418"><ele>229.66666666666669</ele><time>2026-04-29T07:55:12.572Z</time></trkpt><trkpt lat="33.2165603" lon="9.7487025"><ele>229.33333333333331</ele><time>2026-04-29T07:55:13.58Z</time></trkpt><trkpt lat="33.2167491" lon="9.7486643"><ele>229.0</ele><time>2026-04-29T07:55:14.553Z</time></trkpt><trkpt lat="33.2169299" lon="9.7486307"><ele>229.0</ele><time>2026-04-29T07:55:15.559Z</time></trkpt><trkpt lat="33.2171016" lon="9.7485904"><ele>229.0</ele><time>2026-04-29T07:55:16.554Z</time></trkpt><trkpt lat="33.2172704" lon="9.7485482"><ele>229.0</ele><time>2026-04-29T07:55:17.569Z</time></trkpt><trkpt lat="33.217423" lon="9.7485084"><ele>229.33333333333331</ele><time>2026-04-29T07:55:18.564Z</time></trkpt><trkpt lat="33.2175711" lon="9.7484657"><ele>229.66666666666669</ele><time>2026-04-29T07:55:19.564Z</time></trkpt><trkpt lat="33.2177376" lon="9.7484263"><ele>230.0</ele><time>2026-04-29T07:55:20.576Z</time></trkpt><trkpt lat="33.2179091" lon="9.7483897"><ele>230.0</ele><time>2026-04-29T07:55:21.572Z</time></trkpt><trkpt lat="33.2180782" lon="9.7483483"><ele>230.0</ele><time>2026-04-29T07:55:22.56Z</time></trkpt><trkpt lat="33.2182451" lon="9.748301"><ele>230.0</ele><time>2026-04-29T07:55:23.571Z</time></trkpt><trkpt lat="33.2184166" lon="9.7482455"><ele>229.66666666666669</ele><time>2026-04-29T07:55:24.578Z</time></trkpt><trkpt lat="33.2185857" lon="9.7481895"><ele>229.33333333333331</ele><time>2026-04-29T07:55:25.574Z</time></trkpt><trkpt lat="33.2187547" lon="9.7481393"><ele>229.0</ele><time>2026-04-29T07:55:26.572Z</time></trkpt><trkpt lat="33.2189264" lon="9.7480898"><ele>229.0</ele><time>2026-04-29T07:55:27.558Z</time></trkpt><trkpt lat="33.2190905" lon="9.7480365"><ele>229.0</ele><time>2026-04-29T07:55:28.562Z</time></trkpt><trkpt lat="33.2192602" lon="9.7479832"><ele>229.0</ele><time>2026-04-29T07:55:29.556Z</time></trkpt><trkpt lat="33.2194236" lon="9.7479334"><ele>229.0</ele><time>2026-04-29T07:55:30.566Z</time></trkpt><trkpt lat="33.2195784" lon="9.7478801"><ele>229.0</ele><time>2026-04-29T07:55:31.557Z</time></trkpt><trkpt lat="33.2197346" lon="9.7478183"><ele>229.0</ele><time>2026-04-29T07:55:32.562Z</time></trkpt><trkpt lat="33.2198921" lon="9.7477753"><ele>228.33333333333331</ele><time>2026-04-29T07:55:33.573Z</time></trkpt><trkpt lat="33.220061" lon="9.7477417"><ele>227.66666666666669</ele><time>2026-04-29T07:55:34.595Z</time></trkpt><trkpt lat="33.2202441" lon="9.7477056"><ele>227.0</ele><time>2026-04-29T07:55:35.572Z</time></trkpt><trkpt lat="33.2204238" lon="9.7476562"><ele>227.0</ele><time>2026-04-29T07:55:36.575Z</time></trkpt><trkpt lat="33.2206055" lon="9.7476047"><ele>227.0</ele><time>2026-04-29T07:55:37.565Z</time></trkpt><trkpt lat="33.2207903" lon="9.7475644"><ele>227.0</ele><time>2026-04-29T07:55:38.545Z</time></trkpt><trkpt lat="33.2209818" lon="9.7475171"><ele>227.33333333333334</ele><time>2026-04-29T07:55:39.558Z</time></trkpt><trkpt lat="33.2211661" lon="9.7474684"><ele>227.66666666666669</ele><time>2026-04-29T07:55:40.556Z</time></trkpt><trkpt lat="33.2213543" lon="9.7474227"><ele>228.0</ele><time>2026-04-29T07:55:41.572Z</time></trkpt><trkpt lat="33.2215429" lon="9.7473802"><ele>228.33333333333331</ele><time>2026-04-29T07:55:42.567Z</time></trkpt><trkpt lat="33.2217276" lon="9.7473421"><ele>228.66666666666666</ele><time>2026-04-29T07:55:43.566Z</time></trkpt><trkpt lat="33.2219093" lon="9.747303"><ele>229.0</ele><time>2026-04-29T07:55:44.562Z</time></trkpt><trkpt lat="33.2220866" lon="9.7472653"><ele>229.0</ele><time>2026-04-29T07:55:45.581Z</time></trkpt><trkpt lat="33.2222695" lon="9.7472306"><ele>229.0</ele><time>2026-04-29T07:55:46.561Z</time></trkpt><trkpt lat="33.2224555" lon="9.7471985"><ele>229.0</ele><time>2026-04-29T07:55:47.57Z</time></trkpt><trkpt lat="33.2226414" lon="9.7471678"><ele>229.0</ele><time>2026-04-29T07:55:48.564Z</time></trkpt><trkpt lat="33.2228266" lon="9.7471369"><ele>229.0</ele><time>2026-04-29T07:55:49.567Z</time></trkpt><trkpt lat="33.2230109" lon="9.7470989"><ele>229.0</ele><time>2026-04-29T07:55:50.557Z</time></trkpt><trkpt lat="33.2231964" lon="9.7470598"><ele>229.0</ele><time>2026-04-29T07:55:51.568Z</time></trkpt><trkpt lat="33.2233832" lon="9.7470258"><ele>229.0</ele><time>2026-04-29T07:55:52.579Z</time></trkpt><trkpt lat="33.2235743" lon="9.746987"><ele>229.0</ele><time>2026-04-29T07:55:53.568Z</time></trkpt><trkpt lat="33.2237652" lon="9.7469515"><ele>229.0</ele><time>2026-04-29T07:55:54.578Z</time></trkpt><trkpt lat="33.2239513" lon="9.7469099"><ele>229.0</ele><time>2026-04-29T07:55:55.57Z</time></trkpt><trkpt lat="33.2241362" lon="9.7468744"><ele>229.0</ele><time>2026-04-29T07:55:56.569Z</time></trkpt><trkpt lat="33.2243228" lon="9.7468458"><ele>228.66666666666666</ele><time>2026-04-29T07:55:57.564Z</time></trkpt><trkpt lat="33.2245085" lon="9.7468202"><ele>228.33333333333331</ele><time>2026-04-29T07:55:58.59Z</time></trkpt><trkpt lat="33.2246843" lon="9.7467917"><ele>228.0</ele><time>2026-04-29T07:55:59.568Z</time></trkpt><trkpt lat="33.2248514" lon="9.7467683"><ele>228.0</ele><time>2026-04-29T07:56:00.608Z</time></trkpt><trkpt lat="33.2250111" lon="9.746743"><ele>228.0</ele><time>2026-04-29T07:56:01.625Z</time></trkpt><trkpt lat="33.225158" lon="9.7467204"><ele>228.0</ele><time>2026-04-29T07:56:02.571Z</time></trkpt><trkpt lat="33.2252967" lon="9.7466979"><ele>228.0</ele><time>2026-04-29T07:56:03.582Z</time></trkpt><trkpt lat="33.2254294" lon="9.7466861"><ele>228.0</ele><time>2026-04-29T07:56:04.573Z</time></trkpt><trkpt lat="33.2255622" lon="9.7466622"><ele>228.0</ele><time>2026-04-29T07:56:05.569Z</time></trkpt><trkpt lat="33.2256863" lon="9.7466193"><ele>228.0</ele><time>2026-04-29T07:56:06.585Z</time></trkpt><trkpt lat="33.2258218" lon="9.7465876"><ele>228.0</ele><time>2026-04-29T07:56:07.59Z</time></trkpt><trkpt lat="33.2259679" lon="9.746555"><ele>228.0</ele><time>2026-04-29T07:56:08.584Z</time></trkpt><trkpt lat="33.226129" lon="9.7465244"><ele>228.0</ele><time>2026-04-29T07:56:09.559Z</time></trkpt><trkpt lat="33.2263001" lon="9.7464949"><ele>228.0</ele><time>2026-04-29T07:56:10.583Z</time></trkpt><trkpt lat="33.2264788" lon="9.7464576"><ele>228.0</ele><time>2026-04-29T07:56:11.555Z</time></trkpt><trkpt lat="33.2266593" lon="9.7464225"><ele>228.0</ele><time>2026-04-29T07:56:12.562Z</time></trkpt><trkpt lat="33.2268386" lon="9.7463926"><ele>228.0</ele><time>2026-04-29T07:56:13.576Z</time></trkpt><trkpt lat="33.227014" lon="9.7463608"><ele>228.0</ele><time>2026-04-29T07:56:14.57Z</time></trkpt><trkpt lat="33.2271876" lon="9.7463323"><ele>228.0</ele><time>2026-04-29T07:56:15.583Z</time></trkpt><trkpt lat="33.2273619" lon="9.746296"><ele>228.0</ele><time>2026-04-29T07:56:16.582Z</time></trkpt><trkpt lat="33.2275352" lon="9.7462605"><ele>227.33333333333331</ele><time>2026-04-29T07:56:17.565Z</time></trkpt><trkpt lat="33.2277012" lon="9.7462225"><ele>226.66666666666666</ele><time>2026-04-29T07:56:18.578Z</time></trkpt><trkpt lat="33.2278614" lon="9.7461807"><ele>226.0</ele><time>2026-04-29T07:56:19.56Z</time></trkpt><trkpt lat="33.2280238" lon="9.7461347"><ele>225.66666666666666</ele><time>2026-04-29T07:56:20.587Z</time></trkpt><trkpt lat="33.228187" lon="9.7461086"><ele>225.33333333333331</ele><time>2026-04-29T07:56:21.564Z</time></trkpt><trkpt lat="33.2283588" lon="9.7461033"><ele>225.0</ele><time>2026-04-29T07:56:22.569Z</time></trkpt><trkpt lat="33.2285501" lon="9.7461005"><ele>225.0</ele><time>2026-04-29T07:56:23.564Z</time></trkpt><trkpt lat="33.2287379" lon="9.7460859"><ele>225.0</ele><time>2026-04-29T07:56:24.574Z</time></trkpt><trkpt lat="33.2289315" lon="9.7460491"><ele>225.0</ele><time>2026-04-29T07:56:25.56Z</time></trkpt><trkpt lat="33.2291342" lon="9.7460112"><ele>225.66666666666669</ele><time>2026-04-29T07:56:26.571Z</time></trkpt><trkpt lat="33.229339" lon="9.7459799"><ele>226.33333333333334</ele><time>2026-04-29T07:56:27.58Z</time></trkpt><trkpt lat="33.22955" lon="9.7459478"><ele>227.0</ele><time>2026-04-29T07:56:28.569Z</time></trkpt><trkpt lat="33.2297643" lon="9.7459099"><ele>226.66666666666669</ele><time>2026-04-29T07:56:29.578Z</time></trkpt><trkpt lat="33.2299802" lon="9.7458718"><ele>226.33333333333331</ele><time>2026-04-29T07:56:30.581Z</time></trkpt><trkpt lat="33.2301879" lon="9.7458345"><ele>226.0</ele><time>2026-04-29T07:56:31.568Z</time></trkpt><trkpt lat="33.2303947" lon="9.7457947"><ele>226.0</ele><time>2026-04-29T07:56:32.56Z</time></trkpt><trkpt lat="33.2305972" lon="9.7457557"><ele>226.0</ele><time>2026-04-29T07:56:33.569Z</time></trkpt><trkpt lat="33.2307963" lon="9.7457148"><ele>226.0</ele><time>2026-04-29T07:56:34.565Z</time></trkpt><trkpt lat="33.230997" lon="9.7456751"><ele>226.0</ele><time>2026-04-29T07:56:35.588Z</time></trkpt><trkpt lat="33.2311962" lon="9.7456347"><ele>226.0</ele><time>2026-04-29T07:56:36.574Z</time></trkpt><trkpt lat="33.2313961" lon="9.7455948"><ele>226.0</ele><time>2026-04-29T07:56:37.578Z</time></trkpt><trkpt lat="33.2315989" lon="9.7455467"><ele>226.33333333333331</ele><time>2026-04-29T07:56:38.565Z</time></trkpt><trkpt lat="33.2318032" lon="9.7455091"><ele>226.66666666666669</ele><time>2026-04-29T07:56:39.567Z</time></trkpt><trkpt lat="33.2320151" lon="9.745466"><ele>227.0</ele><time>2026-04-29T07:56:40.58Z</time></trkpt><trkpt lat="33.2322217" lon="9.7454286"><ele>226.33333333333334</ele><time>2026-04-29T07:56:41.583Z</time></trkpt><trkpt lat="33.2324278" lon="9.7453891"><ele>225.66666666666669</ele><time>2026-04-29T07:56:42.577Z</time></trkpt><trkpt lat="33.232637" lon="9.7453505"><ele>225.0</ele><time>2026-04-29T07:56:43.557Z</time></trkpt><trkpt lat="33.232844" lon="9.7453111"><ele>225.0</ele><time>2026-04-29T07:56:44.575Z</time></trkpt><trkpt lat="33.2330519" lon="9.7452675"><ele>225.0</ele><time>2026-04-29T07:56:45.573Z</time></trkpt><trkpt lat="33.2332529" lon="9.7452245"><ele>225.0</ele><time>2026-04-29T07:56:46.581Z</time></trkpt><trkpt lat="33.2334546" lon="9.7451797"><ele>225.0</ele><time>2026-04-29T07:56:47.557Z</time></trkpt><trkpt lat="33.2336564" lon="9.7451393"><ele>225.0</ele><time>2026-04-29T07:56:48.553Z</time></trkpt><trkpt lat="33.2338596" lon="9.7450985"><ele>225.0</ele><time>2026-04-29T07:56:49.562Z</time></trkpt><trkpt lat="33.2340608" lon="9.7450548"><ele>225.0</ele><time>2026-04-29T07:56:50.559Z</time></trkpt><trkpt lat="33.2342683" lon="9.7450229"><ele>225.0</ele><time>2026-04-29T07:56:51.551Z</time></trkpt><trkpt lat="33.2344754" lon="9.7449846"><ele>225.0</ele><time>2026-04-29T07:56:52.556Z</time></trkpt><trkpt lat="33.2346758" lon="9.7449451"><ele>225.0</ele><time>2026-04-29T07:56:53.564Z</time></trkpt><trkpt lat="33.2348818" lon="9.7449048"><ele>225.0</ele><time>2026-04-29T07:56:54.557Z</time></trkpt><trkpt lat="33.23509" lon="9.7448585"><ele>225.0</ele><time>2026-04-29T07:56:55.566Z</time></trkpt><trkpt lat="33.2352926" lon="9.7448188"><ele>225.0</ele><time>2026-04-29T07:56:56.582Z</time></trkpt><trkpt lat="33.2354963" lon="9.7447817"><ele>225.0</ele><time>2026-04-29T07:56:57.562Z</time></trkpt><trkpt lat="33.2357018" lon="9.7447394"><ele>225.0</ele><time>2026-04-29T07:56:58.568Z</time></trkpt><trkpt lat="33.2359036" lon="9.7446996"><ele>224.66666666666669</ele><time>2026-04-29T07:56:59.568Z</time></trkpt><trkpt lat="33.2361065" lon="9.7446649"><ele>224.33333333333334</ele><time>2026-04-29T07:57:00.557Z</time></trkpt><trkpt lat="33.2363065" lon="9.7446265"><ele>224.0</ele><time>2026-04-29T07:57:01.586Z</time></trkpt><trkpt lat="33.2365093" lon="9.7445838"><ele>224.0</ele><time>2026-04-29T07:57:02.572Z</time></trkpt><trkpt lat="33.2367169" lon="9.7445392"><ele>224.0</ele><time>2026-04-29T07:57:03.573Z</time></trkpt><trkpt lat="33.236918" lon="9.7444917"><ele>224.0</ele><time>2026-04-29T07:57:04.577Z</time></trkpt><trkpt lat="33.2371227" lon="9.7444496"><ele>224.0</ele><time>2026-04-29T07:57:05.561Z</time></trkpt><trkpt lat="33.2373212" lon="9.7444099"><ele>224.0</ele><time>2026-04-29T07:57:06.575Z</time></trkpt><trkpt lat="33.2375112" lon="9.7443714"><ele>224.0</ele><time>2026-04-29T07:57:07.574Z</time></trkpt><trkpt lat="33.2376928" lon="9.7443325"><ele>224.0</ele><time>2026-04-29T07:57:08.575Z</time></trkpt><trkpt lat="33.2378686" lon="9.7443025"><ele>224.0</ele><time>2026-04-29T07:57:09.564Z</time></trkpt><trkpt lat="33.2380381" lon="9.744284"><ele>224.0</ele><time>2026-04-29T07:57:10.578Z</time></trkpt><trkpt lat="33.2381973" lon="9.7442742"><ele>223.66666666666669</ele><time>2026-04-29T07:57:11.553Z</time></trkpt><trkpt lat="33.2383473" lon="9.7442666"><ele>223.33333333333331</ele><time>2026-04-29T07:57:12.581Z</time></trkpt><trkpt lat="33.2385007" lon="9.7442792"><ele>223.0</ele><time>2026-04-29T07:57:13.573Z</time></trkpt><trkpt lat="33.2386514" lon="9.7443103"><ele>223.0</ele><time>2026-04-29T07:57:14.56Z</time></trkpt><trkpt lat="33.238798" lon="9.7443488"><ele>223.0</ele><time>2026-04-29T07:57:15.57Z</time></trkpt><trkpt lat="33.2389212" lon="9.7443785"><ele>223.0</ele><time>2026-04-29T07:57:16.583Z</time></trkpt><trkpt lat="33.2390212" lon="9.7444024"><ele>223.0</ele><time>2026-04-29T07:57:17.574Z</time></trkpt><trkpt lat="33.2391119" lon="9.7444201"><ele>223.75</ele><time>2026-04-29T07:57:18.578Z</time></trkpt><trkpt lat="33.2392048" lon="9.7444316"><ele>224.5</ele><time>2026-04-29T07:57:19.559Z</time></trkpt><trkpt lat="33.2393143" lon="9.744444"><ele>225.25</ele><time>2026-04-29T07:57:20.571Z</time></trkpt><trkpt lat="33.2394328" lon="9.7444519"><ele>226.0</ele><time>2026-04-29T07:57:21.561Z</time></trkpt><trkpt lat="33.2395603" lon="9.7444579"><ele>226.0</ele><time>2026-04-29T07:57:22.568Z</time></trkpt><trkpt lat="33.2397014" lon="9.7444472"><ele>226.0</ele><time>2026-04-29T07:57:23.564Z</time></trkpt><trkpt lat="33.2398376" lon="9.7444212"><ele>226.0</ele><time>2026-04-29T07:57:24.57Z</time></trkpt><trkpt lat="33.2399667" lon="9.7443919"><ele>226.0</ele><time>2026-04-29T07:57:25.557Z</time></trkpt><trkpt lat="33.2400994" lon="9.7443569"><ele>225.75</ele><time>2026-04-29T07:57:26.566Z</time></trkpt><trkpt lat="33.2402395" lon="9.7443146"><ele>225.5</ele><time>2026-04-29T07:57:27.585Z</time></trkpt><trkpt lat="33.2403882" lon="9.7442994"><ele>225.25</ele><time>2026-04-29T07:57:28.571Z</time></trkpt><trkpt lat="33.2405408" lon="9.7442737"><ele>225.0</ele><time>2026-04-29T07:57:29.566Z</time></trkpt><trkpt lat="33.2406926" lon="9.7442383"><ele>225.0</ele><time>2026-04-29T07:57:30.577Z</time></trkpt><trkpt lat="33.2408611" lon="9.7441621"><ele>225.0</ele><time>2026-04-29T07:57:31.565Z</time></trkpt><trkpt lat="33.2410311" lon="9.7440709"><ele>225.0</ele><time>2026-04-29T07:57:32.566Z</time></trkpt><trkpt lat="33.2411966" lon="9.7439728"><ele>225.0</ele><time>2026-04-29T07:57:33.567Z</time></trkpt><trkpt lat="33.2413598" lon="9.7438797"><ele>225.0</ele><time>2026-04-29T07:57:34.568Z</time></trkpt><trkpt lat="33.2415234" lon="9.7437899"><ele>225.0</ele><time>2026-04-29T07:57:35.587Z</time></trkpt><trkpt lat="33.2416892" lon="9.7437002"><ele>225.33333333333331</ele><time>2026-04-29T07:57:36.572Z</time></trkpt><trkpt lat="33.2418624" lon="9.7436266"><ele>225.66666666666666</ele><time>2026-04-29T07:57:37.569Z</time></trkpt><trkpt lat="33.2420376" lon="9.7435552"><ele>226.0</ele><time>2026-04-29T07:57:38.569Z</time></trkpt><trkpt lat="33.2422142" lon="9.7434946"><ele>225.0</ele><time>2026-04-29T07:57:39.576Z</time></trkpt><trkpt lat="33.2423936" lon="9.7434368"><ele>224.0</ele><time>2026-04-29T07:57:40.564Z</time></trkpt><trkpt lat="33.2425662" lon="9.7433852"><ele>223.0</ele><time>2026-04-29T07:57:41.571Z</time></trkpt><trkpt lat="33.2427241" lon="9.7433376"><ele>223.0</ele><time>2026-04-29T07:57:42.574Z</time></trkpt><trkpt lat="33.242875" lon="9.743292"><ele>223.0</ele><time>2026-04-29T07:57:43.572Z</time></trkpt><trkpt lat="33.2430225" lon="9.7432393"><ele>223.0</ele><time>2026-04-29T07:57:44.568Z</time></trkpt><trkpt lat="33.243171" lon="9.7431863"><ele>221.66666666666666</ele><time>2026-04-29T07:57:45.579Z</time></trkpt><trkpt lat="33.2433261" lon="9.7431536"><ele>220.33333333333331</ele><time>2026-04-29T07:57:46.58Z</time></trkpt><trkpt lat="33.2434937" lon="9.7431362"><ele>219.0</ele><time>2026-04-29T07:57:47.573Z</time></trkpt><trkpt lat="33.2436649" lon="9.7431181"><ele>219.0</ele><time>2026-04-29T07:57:48.572Z</time></trkpt><trkpt lat="33.2438276" lon="9.7430919"><ele>219.0</ele><time>2026-04-29T07:57:49.578Z</time></trkpt><trkpt lat="33.2439997" lon="9.7430544"><ele>219.0</ele><time>2026-04-29T07:57:50.58Z</time></trkpt><trkpt lat="33.2441699" lon="9.7430161"><ele>219.0</ele><time>2026-04-29T07:57:51.571Z</time></trkpt><trkpt lat="33.2443406" lon="9.7429866"><ele>219.0</ele><time>2026-04-29T07:57:52.56Z</time></trkpt><trkpt lat="33.2445021" lon="9.7429614"><ele>219.0</ele><time>2026-04-29T07:57:53.572Z</time></trkpt><trkpt lat="33.2446554" lon="9.7429201"><ele>218.75</ele><time>2026-04-29T07:57:54.58Z</time></trkpt><trkpt lat="33.2448109" lon="9.7428829"><ele>218.5</ele><time>2026-04-29T07:57:55.578Z</time></trkpt><trkpt lat="33.2449456" lon="9.7428599"><ele>218.25</ele><time>2026-04-29T07:57:56.562Z</time></trkpt><trkpt lat="33.2450745" lon="9.7428435"><ele>218.0</ele><time>2026-04-29T07:57:57.566Z</time></trkpt><trkpt lat="33.2452002" lon="9.7428308"><ele>218.0</ele><time>2026-04-29T07:57:58.57Z</time></trkpt><trkpt lat="33.2453204" lon="9.7428108"><ele>218.0</ele><time>2026-04-29T07:57:59.564Z</time></trkpt><trkpt lat="33.2454415" lon="9.7427876"><ele>218.0</ele><time>2026-04-29T07:58:00.556Z</time></trkpt><trkpt lat="33.2455706" lon="9.742766"><ele>218.0</ele><time>2026-04-29T07:58:01.577Z</time></trkpt><trkpt lat="33.2457186" lon="9.7427428"><ele>218.0</ele><time>2026-04-29T07:58:02.564Z</time></trkpt><trkpt lat="33.2458769" lon="9.7427236"><ele>218.0</ele><time>2026-04-29T07:58:03.57Z</time></trkpt><trkpt lat="33.2460377" lon="9.7426969"><ele>218.0</ele><time>2026-04-29T07:58:04.582Z</time></trkpt><trkpt lat="33.2461962" lon="9.7426703"><ele>218.0</ele><time>2026-04-29T07:58:05.56Z</time></trkpt><trkpt lat="33.246362" lon="9.7426339"><ele>218.0</ele><time>2026-04-29T07:58:06.579Z</time></trkpt><trkpt lat="33.2465311" lon="9.7425985"><ele>218.0</ele><time>2026-04-29T07:58:07.572Z</time></trkpt><trkpt lat="33.2467012" lon="9.7425744"><ele>218.0</ele><time>2026-04-29T07:58:08.582Z</time></trkpt><trkpt lat="33.2468684" lon="9.7425584"><ele>218.0</ele><time>2026-04-29T07:58:09.582Z</time></trkpt><trkpt lat="33.2470408" lon="9.7425274"><ele>218.0</ele><time>2026-04-29T07:58:10.596Z</time></trkpt><trkpt lat="33.2472116" lon="9.7424972"><ele>218.0</ele><time>2026-04-29T07:58:11.567Z</time></trkpt><trkpt lat="33.2473855" lon="9.7424682"><ele>218.0</ele><time>2026-04-29T07:58:12.567Z</time></trkpt><trkpt lat="33.2475625" lon="9.7424419"><ele>218.0</ele><time>2026-04-29T07:58:13.585Z</time></trkpt><trkpt lat="33.2477381" lon="9.7424158"><ele>218.0</ele><time>2026-04-29T07:58:14.571Z</time></trkpt><trkpt lat="33.2479186" lon="9.7423828"><ele>218.0</ele><time>2026-04-29T07:58:15.571Z</time></trkpt><trkpt lat="33.2480986" lon="9.742356"><ele>218.0</ele><time>2026-04-29T07:58:16.57Z</time></trkpt><trkpt lat="33.248282" lon="9.7423283"><ele>218.0</ele><time>2026-04-29T07:58:17.571Z</time></trkpt><trkpt lat="33.2484605" lon="9.7423029"><ele>218.0</ele><time>2026-04-29T07:58:18.567Z</time></trkpt><trkpt lat="33.2486426" lon="9.7422823"><ele>218.0</ele><time>2026-04-29T07:58:19.57Z</time></trkpt><trkpt lat="33.2488304" lon="9.7422601"><ele>218.0</ele><time>2026-04-29T07:58:20.587Z</time></trkpt><trkpt lat="33.2490243" lon="9.7422329"><ele>218.0</ele><time>2026-04-29T07:58:21.558Z</time></trkpt><trkpt lat="33.249218" lon="9.7422061"><ele>218.0</ele><time>2026-04-29T07:58:22.575Z</time></trkpt><trkpt lat="33.2494085" lon="9.7421799"><ele>218.0</ele><time>2026-04-29T07:58:23.591Z</time></trkpt><trkpt lat="33.2495987" lon="9.7421562"><ele>218.0</ele><time>2026-04-29T07:58:24.577Z</time></trkpt><trkpt lat="33.2497975" lon="9.7421281"><ele>218.0</ele><time>2026-04-29T07:58:25.573Z</time></trkpt><trkpt lat="33.2499886" lon="9.7420993"><ele>218.33333333333334</ele><time>2026-04-29T07:58:26.58Z</time></trkpt><trkpt lat="33.250178" lon="9.7420768"><ele>218.66666666666669</ele><time>2026-04-29T07:58:27.576Z</time></trkpt><trkpt lat="33.2503718" lon="9.7420515"><ele>219.0</ele><time>2026-04-29T07:58:28.577Z</time></trkpt><trkpt lat="33.250562" lon="9.7420212"><ele>219.0</ele><time>2026-04-29T07:58:29.567Z</time></trkpt><trkpt lat="33.2507527" lon="9.7419942"><ele>219.0</ele><time>2026-04-29T07:58:30.568Z</time></trkpt><trkpt lat="33.2509322" lon="9.7419597"><ele>219.0</ele><time>2026-04-29T07:58:31.571Z</time></trkpt><trkpt lat="33.2511033" lon="9.7419244"><ele>219.0</ele><time>2026-04-29T07:58:32.566Z</time></trkpt><trkpt lat="33.2512735" lon="9.7418916"><ele>219.0</ele><time>2026-04-29T07:58:33.56Z</time></trkpt><trkpt lat="33.2514431" lon="9.7418651"><ele>219.0</ele><time>2026-04-29T07:58:34.575Z</time></trkpt><trkpt lat="33.2516169" lon="9.7418376"><ele>218.66666666666669</ele><time>2026-04-29T07:58:35.566Z</time></trkpt><trkpt lat="33.251791" lon="9.7418029"><ele>218.33333333333334</ele><time>2026-04-29T07:58:36.589Z</time></trkpt><trkpt lat="33.2519642" lon="9.7417712"><ele>218.0</ele><time>2026-04-29T07:58:37.58Z</time></trkpt><trkpt lat="33.2521314" lon="9.7417406"><ele>219.0</ele><time>2026-04-29T07:58:38.568Z</time></trkpt><trkpt lat="33.2523012" lon="9.7417155"><ele>220.0</ele><time>2026-04-29T07:58:39.56Z</time></trkpt><trkpt lat="33.2524601" lon="9.741702"><ele>221.0</ele><time>2026-04-29T07:58:40.591Z</time></trkpt><trkpt lat="33.2526185" lon="9.741693"><ele>221.0</ele><time>2026-04-29T07:58:41.58Z</time></trkpt><trkpt lat="33.2527776" lon="9.7416885"><ele>221.0</ele><time>2026-04-29T07:58:42.57Z</time></trkpt><trkpt lat="33.2529256" lon="9.7416845"><ele>221.0</ele><time>2026-04-29T07:58:43.586Z</time></trkpt><trkpt lat="33.2530646" lon="9.7416823"><ele>221.0</ele><time>2026-04-29T07:58:44.575Z</time></trkpt><trkpt lat="33.2531956" lon="9.7416782"><ele>220.5</ele><time>2026-04-29T07:58:45.583Z</time></trkpt><trkpt lat="33.2533221" lon="9.7416775"><ele>220.0</ele><time>2026-04-29T07:58:46.565Z</time></trkpt><trkpt lat="33.2534496" lon="9.7416745"><ele>219.5</ele><time>2026-04-29T07:58:47.585Z</time></trkpt><trkpt lat="33.25358" lon="9.7416717"><ele>219.0</ele><time>2026-04-29T07:58:48.576Z</time></trkpt><trkpt lat="33.2537261" lon="9.741669"><ele>219.0</ele><time>2026-04-29T07:58:49.577Z</time></trkpt><trkpt lat="33.253881" lon="9.7416602"><ele>219.0</ele><time>2026-04-29T07:58:50.583Z</time></trkpt><trkpt lat="33.254037" lon="9.7416508"><ele>219.0</ele><time>2026-04-29T07:58:51.577Z</time></trkpt><trkpt lat="33.2542018" lon="9.7416315"><ele>220.0</ele><time>2026-04-29T07:58:52.559Z</time></trkpt><trkpt lat="33.2543747" lon="9.7416133"><ele>221.0</ele><time>2026-04-29T07:58:53.57Z</time></trkpt><trkpt lat="33.2545494" lon="9.7415855"><ele>222.0</ele><time>2026-04-29T07:58:54.568Z</time></trkpt><trkpt lat="33.2547273" lon="9.7415564"><ele>221.66666666666669</ele><time>2026-04-29T07:58:55.591Z</time></trkpt><trkpt lat="33.2549099" lon="9.7415197"><ele>221.33333333333334</ele><time>2026-04-29T07:58:56.572Z</time></trkpt><trkpt lat="33.2550946" lon="9.7414816"><ele>221.0</ele><time>2026-04-29T07:58:57.569Z</time></trkpt><trkpt lat="33.2552816" lon="9.7414448"><ele>221.0</ele><time>2026-04-29T07:58:58.566Z</time></trkpt><trkpt lat="33.2554718" lon="9.7414075"><ele>221.0</ele><time>2026-04-29T07:58:59.575Z</time></trkpt><trkpt lat="33.255662" lon="9.7413705"><ele>221.0</ele><time>2026-04-29T07:59:00.549Z</time></trkpt><trkpt lat="33.2558623" lon="9.7413241"><ele>221.0</ele><time>2026-04-29T07:59:01.572Z</time></trkpt><trkpt lat="33.2560601" lon="9.7412806"><ele>221.0</ele><time>2026-04-29T07:59:02.565Z</time></trkpt><trkpt lat="33.2562589" lon="9.7412421"><ele>221.0</ele><time>2026-04-29T07:59:03.559Z</time></trkpt><trkpt lat="33.2564611" lon="9.7412073"><ele>221.0</ele><time>2026-04-29T07:59:04.571Z</time></trkpt><trkpt lat="33.2566592" lon="9.7411636"><ele>221.0</ele><time>2026-04-29T07:59:05.568Z</time></trkpt><trkpt lat="33.2568581" lon="9.7411265"><ele>221.0</ele><time>2026-04-29T07:59:06.577Z</time></trkpt><trkpt lat="33.2570557" lon="9.7410906"><ele>221.0</ele><time>2026-04-29T07:59:07.568Z</time></trkpt><trkpt lat="33.2572475" lon="9.7410543"><ele>221.0</ele><time>2026-04-29T07:59:08.584Z</time></trkpt><trkpt lat="33.2574457" lon="9.7410086"><ele>221.0</ele><time>2026-04-29T07:59:09.585Z</time></trkpt><trkpt lat="33.2576413" lon="9.7409669"><ele>220.66666666666669</ele><time>2026-04-29T07:59:10.579Z</time></trkpt><trkpt lat="33.2578403" lon="9.740945"><ele>220.33333333333331</ele><time>2026-04-29T07:59:11.579Z</time></trkpt><trkpt lat="33.2580367" lon="9.7409208"><ele>220.0</ele><time>2026-04-29T07:59:12.573Z</time></trkpt><trkpt lat="33.2582383" lon="9.7408714"><ele>220.66666666666666</ele><time>2026-04-29T07:59:13.584Z</time></trkpt><trkpt lat="33.2584344" lon="9.7408356"><ele>221.33333333333331</ele><time>2026-04-29T07:59:14.572Z</time></trkpt><trkpt lat="33.2586359" lon="9.7408126"><ele>222.0</ele><time>2026-04-29T07:59:15.569Z</time></trkpt><trkpt lat="33.258835" lon="9.7407714"><ele>222.0</ele><time>2026-04-29T07:59:16.576Z</time></trkpt><trkpt lat="33.2590313" lon="9.7407233"><ele>222.0</ele><time>2026-04-29T07:59:17.575Z</time></trkpt><trkpt lat="33.2592366" lon="9.7406839"><ele>222.0</ele><time>2026-04-29T07:59:18.567Z</time></trkpt><trkpt lat="33.2594404" lon="9.7406568"><ele>222.0</ele><time>2026-04-29T07:59:19.577Z</time></trkpt><trkpt lat="33.2596469" lon="9.7406075"><ele>222.0</ele><time>2026-04-29T07:59:20.569Z</time></trkpt><trkpt lat="33.2598506" lon="9.7405563"><ele>222.0</ele><time>2026-04-29T07:59:21.566Z</time></trkpt><trkpt lat="33.2600559" lon="9.7405234"><ele>222.33333333333331</ele><time>2026-04-29T07:59:22.555Z</time></trkpt><trkpt lat="33.2602557" lon="9.7404936"><ele>222.66666666666666</ele><time>2026-04-29T07:59:23.568Z</time></trkpt><trkpt lat="33.2604613" lon="9.7404542"><ele>223.0</ele><time>2026-04-29T07:59:24.56Z</time></trkpt><trkpt lat="33.2606618" lon="9.7403861"><ele>222.33333333333331</ele><time>2026-04-29T07:59:25.563Z</time></trkpt><trkpt lat="33.2608717" lon="9.7403322"><ele>221.66666666666669</ele><time>2026-04-29T07:59:26.564Z</time></trkpt><trkpt lat="33.2610883" lon="9.7403042"><ele>221.0</ele><time>2026-04-29T07:59:27.561Z</time></trkpt><trkpt lat="33.2612997" lon="9.7402815"><ele>221.0</ele><time>2026-04-29T07:59:28.573Z</time></trkpt><trkpt lat="33.2615105" lon="9.740245"><ele>221.0</ele><time>2026-04-29T07:59:29.563Z</time></trkpt><trkpt lat="33.2617178" lon="9.7401908"><ele>221.0</ele><time>2026-04-29T07:59:30.579Z</time></trkpt><trkpt lat="33.26193" lon="9.7401452"><ele>221.33333333333334</ele><time>2026-04-29T07:59:31.565Z</time></trkpt><trkpt lat="33.2621374" lon="9.7401182"><ele>221.66666666666669</ele><time>2026-04-29T07:59:32.551Z</time></trkpt><trkpt lat="33.2623424" lon="9.7400898"><ele>222.0</ele><time>2026-04-29T07:59:33.568Z</time></trkpt><trkpt lat="33.2625395" lon="9.7400455"><ele>222.0</ele><time>2026-04-29T07:59:34.562Z</time></trkpt><trkpt lat="33.2627392" lon="9.7400077"><ele>222.0</ele><time>2026-04-29T07:59:35.562Z</time></trkpt><trkpt lat="33.2629366" lon="9.7399782"><ele>222.0</ele><time>2026-04-29T07:59:36.57Z</time></trkpt><trkpt lat="33.2631408" lon="9.7399635"><ele>222.0</ele><time>2026-04-29T07:59:37.569Z</time></trkpt><trkpt lat="33.2633392" lon="9.7399286"><ele>222.0</ele><time>2026-04-29T07:59:38.576Z</time></trkpt><trkpt lat="33.2635375" lon="9.7398649"><ele>222.0</ele><time>2026-04-29T07:59:39.568Z</time></trkpt><trkpt lat="33.2637471" lon="9.7398275"><ele>221.0</ele><time>2026-04-29T07:59:40.576Z</time></trkpt><trkpt lat="33.263954" lon="9.7397986"><ele>220.0</ele><time>2026-04-29T07:59:41.563Z</time></trkpt><trkpt lat="33.264163" lon="9.7397482"><ele>219.0</ele><time>2026-04-29T07:59:42.551Z</time></trkpt><trkpt lat="33.2643674" lon="9.7396826"><ele>219.0</ele><time>2026-04-29T07:59:43.568Z</time></trkpt><trkpt lat="33.264568" lon="9.7396428"><ele>219.0</ele><time>2026-04-29T07:59:44.582Z</time></trkpt><trkpt lat="33.2647553" lon="9.7396306"><ele>219.0</ele><time>2026-04-29T07:59:45.573Z</time></trkpt><trkpt lat="33.2649445" lon="9.7395995"><ele>219.0</ele><time>2026-04-29T07:59:46.579Z</time></trkpt><trkpt lat="33.2651215" lon="9.7395497"><ele>219.0</ele><time>2026-04-29T07:59:47.557Z</time></trkpt><trkpt lat="33.2652989" lon="9.7395021"><ele>219.0</ele><time>2026-04-29T07:59:48.617Z</time></trkpt><trkpt lat="33.2654777" lon="9.7394761"><ele>219.33333333333331</ele><time>2026-04-29T07:59:49.567Z</time></trkpt><trkpt lat="33.2656429" lon="9.7394504"><ele>219.66666666666666</ele><time>2026-04-29T07:59:50.566Z</time></trkpt><trkpt lat="33.2658039" lon="9.7394282"><ele>220.0</ele><time>2026-04-29T07:59:51.562Z</time></trkpt><trkpt lat="33.2659519" lon="9.7394005"><ele>220.0</ele><time>2026-04-29T07:59:52.582Z</time></trkpt><trkpt lat="33.2660885" lon="9.7393684"><ele>220.0</ele><time>2026-04-29T07:59:53.563Z</time></trkpt><trkpt lat="33.2662188" lon="9.7393463"><ele>220.0</ele><time>2026-04-29T07:59:54.566Z</time></trkpt><trkpt lat="33.2663273" lon="9.7393269"><ele>220.0</ele><time>2026-04-29T07:59:55.557Z</time></trkpt><trkpt lat="33.2664396" lon="9.7393035"><ele>220.0</ele><time>2026-04-29T07:59:56.576Z</time></trkpt><trkpt lat="33.2665567" lon="9.7392842"><ele>220.0</ele><time>2026-04-29T07:59:57.562Z</time></trkpt><trkpt lat="33.2666931" lon="9.7392627"><ele>220.0</ele><time>2026-04-29T07:59:58.574Z</time></trkpt><trkpt lat="33.2668375" lon="9.7392355"><ele>220.0</ele><time>2026-04-29T07:59:59.562Z</time></trkpt><trkpt lat="33.266993" lon="9.7392102"><ele>220.0</ele><time>2026-04-29T08:00:00.558Z</time></trkpt><trkpt lat="33.2671518" lon="9.7391783"><ele>220.0</ele><time>2026-04-29T08:00:01.565Z</time></trkpt><trkpt lat="33.2673213" lon="9.7391412"><ele>220.0</ele><time>2026-04-29T08:00:02.556Z</time></trkpt><trkpt lat="33.2674952" lon="9.739102"><ele>220.0</ele><time>2026-04-29T08:00:03.569Z</time></trkpt><trkpt lat="33.267677" lon="9.7390686"><ele>220.0</ele><time>2026-04-29T08:00:04.557Z</time></trkpt><trkpt lat="33.2678618" lon="9.7390327"><ele>220.0</ele><time>2026-04-29T08:00:05.56Z</time></trkpt><trkpt lat="33.2680458" lon="9.739"><ele>220.0</ele><time>2026-04-29T08:00:06.569Z</time></trkpt><trkpt lat="33.2682301" lon="9.7389669"><ele>220.0</ele><time>2026-04-29T08:00:07.591Z</time></trkpt><trkpt lat="33.2684202" lon="9.738929"><ele>220.0</ele><time>2026-04-29T08:00:08.67Z</time></trkpt><trkpt lat="33.2687985" lon="9.7388528"><ele>220.0</ele><time>2026-04-29T08:00:10.565Z</time></trkpt><trkpt lat="33.2689964" lon="9.7388151"><ele>220.0</ele><time>2026-04-29T08:00:11.57Z</time></trkpt><trkpt lat="33.2691925" lon="9.7387758"><ele>220.0</ele><time>2026-04-29T08:00:12.581Z</time></trkpt><trkpt lat="33.26939" lon="9.7387374"><ele>220.0</ele><time>2026-04-29T08:00:13.552Z</time></trkpt><trkpt lat="33.2695871" lon="9.7387023"><ele>220.0</ele><time>2026-04-29T08:00:14.581Z</time></trkpt><trkpt lat="33.2697889" lon="9.738667"><ele>220.0</ele><time>2026-04-29T08:00:15.57Z</time></trkpt><trkpt lat="33.2699888" lon="9.7386326"><ele>219.66666666666666</ele><time>2026-04-29T08:00:16.576Z</time></trkpt><trkpt lat="33.2701841" lon="9.7385937"><ele>219.33333333333331</ele><time>2026-04-29T08:00:17.578Z</time></trkpt><trkpt lat="33.2703781" lon="9.7385433"><ele>219.0</ele><time>2026-04-29T08:00:18.563Z</time></trkpt><trkpt lat="33.2705728" lon="9.7385047"><ele>218.0</ele><time>2026-04-29T08:00:19.581Z</time></trkpt><trkpt lat="33.2707661" lon="9.7384762"><ele>217.0</ele><time>2026-04-29T08:00:20.59Z</time></trkpt><trkpt lat="33.2709501" lon="9.7384405"><ele>216.0</ele><time>2026-04-29T08:00:21.573Z</time></trkpt><trkpt lat="33.2711306" lon="9.7383948"><ele>216.0</ele><time>2026-04-29T08:00:22.575Z</time></trkpt><trkpt lat="33.2713171" lon="9.7383545"><ele>216.0</ele><time>2026-04-29T08:00:23.56Z</time></trkpt><trkpt lat="33.2715004" lon="9.7383266"><ele>216.0</ele><time>2026-04-29T08:00:24.57Z</time></trkpt><trkpt lat="33.2716902" lon="9.7382942"><ele>216.0</ele><time>2026-04-29T08:00:25.59Z</time></trkpt><trkpt lat="33.2718725" lon="9.7382436"><ele>216.0</ele><time>2026-04-29T08:00:26.56Z</time></trkpt><trkpt lat="33.2720524" lon="9.7382132"><ele>216.0</ele><time>2026-04-29T08:00:27.556Z</time></trkpt><trkpt lat="33.2722384" lon="9.7381908"><ele>216.33333333333331</ele><time>2026-04-29T08:00:28.568Z</time></trkpt><trkpt lat="33.2724235" lon="9.7381619"><ele>216.66666666666666</ele><time>2026-04-29T08:00:29.573Z</time></trkpt><trkpt lat="33.272608" lon="9.7381237"><ele>217.0</ele><time>2026-04-29T08:00:30.562Z</time></trkpt><trkpt lat="33.2727849" lon="9.7380736"><ele>217.0</ele><time>2026-04-29T08:00:31.557Z</time></trkpt><trkpt lat="33.2729699" lon="9.7380441"><ele>217.0</ele><time>2026-04-29T08:00:32.564Z</time></trkpt><trkpt lat="33.2731614" lon="9.7380161"><ele>217.0</ele><time>2026-04-29T08:00:33.57Z</time></trkpt><trkpt lat="33.2733464" lon="9.7379711"><ele>217.0</ele><time>2026-04-29T08:00:34.577Z</time></trkpt><trkpt lat="33.2735323" lon="9.7379146"><ele>217.0</ele><time>2026-04-29T08:00:35.572Z</time></trkpt><trkpt lat="33.2737229" lon="9.737874"><ele>217.0</ele><time>2026-04-29T08:00:36.564Z</time></trkpt><trkpt lat="33.2739123" lon="9.7378632"><ele>216.66666666666666</ele><time>2026-04-29T08:00:37.569Z</time></trkpt><trkpt lat="33.2741006" lon="9.7378401"><ele>216.33333333333331</ele><time>2026-04-29T08:00:38.575Z</time></trkpt><trkpt lat="33.2742982" lon="9.7377971"><ele>216.0</ele><time>2026-04-29T08:00:39.56Z</time></trkpt><trkpt lat="33.2744972" lon="9.7377332"><ele>215.66666666666669</ele><time>2026-04-29T08:00:40.572Z</time></trkpt><trkpt lat="33.2746899" lon="9.7376856"><ele>215.33333333333334</ele><time>2026-04-29T08:00:41.582Z</time></trkpt><trkpt lat="33.2748836" lon="9.7376632"><ele>215.0</ele><time>2026-04-29T08:00:42.572Z</time></trkpt><trkpt lat="33.2750855" lon="9.7376369"><ele>215.0</ele><time>2026-04-29T08:00:43.591Z</time></trkpt><trkpt lat="33.275289" lon="9.7375923"><ele>215.0</ele><time>2026-04-29T08:00:44.593Z</time></trkpt><trkpt lat="33.2754883" lon="9.7375279"><ele>215.0</ele><time>2026-04-29T08:00:45.57Z</time></trkpt><trkpt lat="33.2756867" lon="9.7374807"><ele>214.33333333333334</ele><time>2026-04-29T08:00:46.561Z</time></trkpt><trkpt lat="33.2758865" lon="9.7374608"><ele>213.66666666666669</ele><time>2026-04-29T08:00:47.568Z</time></trkpt><trkpt lat="33.2760885" lon="9.737452"><ele>213.0</ele><time>2026-04-29T08:00:48.571Z</time></trkpt><trkpt lat="33.2762876" lon="9.7374185"><ele>213.33333333333331</ele><time>2026-04-29T08:00:49.572Z</time></trkpt><trkpt lat="33.2764766" lon="9.7373519"><ele>213.66666666666666</ele><time>2026-04-29T08:00:50.55Z</time></trkpt><trkpt lat="33.2766802" lon="9.7373042"><ele>214.0</ele><time>2026-04-29T08:00:51.565Z</time></trkpt><trkpt lat="33.2768788" lon="9.7372865"><ele>214.0</ele><time>2026-04-29T08:00:52.579Z</time></trkpt><trkpt lat="33.2770633" lon="9.7372759"><ele>214.0</ele><time>2026-04-29T08:00:53.565Z</time></trkpt><trkpt lat="33.2772446" lon="9.7372361"><ele>214.0</ele><time>2026-04-29T08:00:54.564Z</time></trkpt><trkpt lat="33.2774279" lon="9.7371749"><ele>214.0</ele><time>2026-04-29T08:00:55.56Z</time></trkpt><trkpt lat="33.2776223" lon="9.7371298"><ele>214.0</ele><time>2026-04-29T08:00:56.572Z</time></trkpt><trkpt lat="33.2778241" lon="9.737109"><ele>214.0</ele><time>2026-04-29T08:00:57.577Z</time></trkpt><trkpt lat="33.2780139" lon="9.737081"><ele>214.33333333333331</ele><time>2026-04-29T08:00:58.569Z</time></trkpt><trkpt lat="33.2782063" lon="9.7370262"><ele>214.66666666666669</ele><time>2026-04-29T08:00:59.556Z</time></trkpt><trkpt lat="33.2783979" lon="9.7369646"><ele>215.0</ele><time>2026-04-29T08:01:00.561Z</time></trkpt><trkpt lat="33.2785961" lon="9.7369272"><ele>215.0</ele><time>2026-04-29T08:01:01.584Z</time></trkpt><trkpt lat="33.2787836" lon="9.7369141"><ele>215.0</ele><time>2026-04-29T08:01:02.591Z</time></trkpt><trkpt lat="33.2789845" lon="9.7368821"><ele>215.0</ele><time>2026-04-29T08:01:03.563Z</time></trkpt><trkpt lat="33.2791775" lon="9.7368392"><ele>215.33333333333334</ele><time>2026-04-29T08:01:04.557Z</time></trkpt><trkpt lat="33.2793684" lon="9.7367953"><ele>215.66666666666669</ele><time>2026-04-29T08:01:05.569Z</time></trkpt><trkpt lat="33.2795658" lon="9.736768"><ele>216.0</ele><time>2026-04-29T08:01:06.576Z</time></trkpt><trkpt lat="33.2797591" lon="9.736756"><ele>215.66666666666669</ele><time>2026-04-29T08:01:07.574Z</time></trkpt><trkpt lat="33.2799574" lon="9.7367242"><ele>215.33333333333334</ele><time>2026-04-29T08:01:08.573Z</time></trkpt><trkpt lat="33.2801452" lon="9.7366645"><ele>215.0</ele><time>2026-04-29T08:01:09.578Z</time></trkpt><trkpt lat="33.2803335" lon="9.7366113"><ele>215.0</ele><time>2026-04-29T08:01:10.576Z</time></trkpt><trkpt lat="33.2805294" lon="9.7365742"><ele>215.0</ele><time>2026-04-29T08:01:11.572Z</time></trkpt><trkpt lat="33.2807329" lon="9.7365546"><ele>215.0</ele><time>2026-04-29T08:01:12.581Z</time></trkpt><trkpt lat="33.2809264" lon="9.736513"><ele>214.66666666666669</ele><time>2026-04-29T08:01:13.56Z</time></trkpt><trkpt lat="33.2811226" lon="9.7364549"><ele>214.33333333333331</ele><time>2026-04-29T08:01:14.577Z</time></trkpt><trkpt lat="33.2813247" lon="9.7364108"><ele>214.0</ele><time>2026-04-29T08:01:15.566Z</time></trkpt><trkpt lat="33.2815256" lon="9.7363949"><ele>214.0</ele><time>2026-04-29T08:01:16.565Z</time></trkpt><trkpt lat="33.2817251" lon="9.7363554"><ele>214.0</ele><time>2026-04-29T08:01:17.567Z</time></trkpt><trkpt lat="33.2819187" lon="9.7363005"><ele>214.0</ele><time>2026-04-29T08:01:18.574Z</time></trkpt><trkpt lat="33.28211" lon="9.7362509"><ele>214.33333333333331</ele><time>2026-04-29T08:01:19.563Z</time></trkpt><trkpt lat="33.2823139" lon="9.7362379"><ele>214.66666666666669</ele><time>2026-04-29T08:01:20.558Z</time></trkpt><trkpt lat="33.2825061" lon="9.7362217"><ele>215.0</ele><time>2026-04-29T08:01:21.58Z</time></trkpt><trkpt lat="33.2826984" lon="9.7361809"><ele>215.0</ele><time>2026-04-29T08:01:22.574Z</time></trkpt><trkpt lat="33.2828848" lon="9.7361303"><ele>215.0</ele><time>2026-04-29T08:01:23.568Z</time></trkpt><trkpt lat="33.2830781" lon="9.736087"><ele>215.0</ele><time>2026-04-29T08:01:24.558Z</time></trkpt><trkpt lat="33.2832553" lon="9.736069"><ele>214.33333333333334</ele><time>2026-04-29T08:01:25.584Z</time></trkpt><trkpt lat="33.2834172" lon="9.7360507"><ele>213.66666666666669</ele><time>2026-04-29T08:01:26.556Z</time></trkpt><trkpt lat="33.2835748" lon="9.7360188"><ele>213.0</ele><time>2026-04-29T08:01:27.582Z</time></trkpt><trkpt lat="33.2837312" lon="9.7359814"><ele>213.0</ele><time>2026-04-29T08:01:28.574Z</time></trkpt><trkpt lat="33.2838863" lon="9.7359514"><ele>213.0</ele><time>2026-04-29T08:01:29.556Z</time></trkpt><trkpt lat="33.2840375" lon="9.7359227"><ele>213.0</ele><time>2026-04-29T08:01:30.59Z</time></trkpt><trkpt lat="33.2841819" lon="9.7358933"><ele>212.25</ele><time>2026-04-29T08:01:31.568Z</time></trkpt><trkpt lat="33.2843194" lon="9.7358681"><ele>211.5</ele><time>2026-04-29T08:01:32.582Z</time></trkpt><trkpt lat="33.2844511" lon="9.7358426"><ele>210.75</ele><time>2026-04-29T08:01:33.569Z</time></trkpt><trkpt lat="33.2845856" lon="9.735818"><ele>210.0</ele><time>2026-04-29T08:01:34.564Z</time></trkpt><trkpt lat="33.2847179" lon="9.7357879"><ele>209.75</ele><time>2026-04-29T08:01:35.562Z</time></trkpt><trkpt lat="33.2848521" lon="9.7357661"><ele>209.5</ele><time>2026-04-29T08:01:36.554Z</time></trkpt><trkpt lat="33.2849892" lon="9.7357397"><ele>209.25</ele><time>2026-04-29T08:01:37.552Z</time></trkpt><trkpt lat="33.2851236" lon="9.7357079"><ele>209.0</ele><time>2026-04-29T08:01:38.565Z</time></trkpt><trkpt lat="33.2852513" lon="9.7356764"><ele>209.0</ele><time>2026-04-29T08:01:39.556Z</time></trkpt><trkpt lat="33.2853887" lon="9.7356456"><ele>209.0</ele><time>2026-04-29T08:01:40.555Z</time></trkpt><trkpt lat="33.285534" lon="9.7356131"><ele>209.0</ele><time>2026-04-29T08:01:41.568Z</time></trkpt><trkpt lat="33.2856831" lon="9.7355877"><ele>209.0</ele><time>2026-04-29T08:01:42.557Z</time></trkpt><trkpt lat="33.2858299" lon="9.7355552"><ele>208.66666666666669</ele><time>2026-04-29T08:01:43.572Z</time></trkpt><trkpt lat="33.2859787" lon="9.7355212"><ele>208.33333333333331</ele><time>2026-04-29T08:01:44.565Z</time></trkpt><trkpt lat="33.2861351" lon="9.7354928"><ele>208.0</ele><time>2026-04-29T08:01:45.555Z</time></trkpt><trkpt lat="33.2862929" lon="9.7354634"><ele>208.0</ele><time>2026-04-29T08:01:46.562Z</time></trkpt><trkpt lat="33.2864522" lon="9.7354297"><ele>208.0</ele><time>2026-04-29T08:01:47.578Z</time></trkpt><trkpt lat="33.2866192" lon="9.7353915"><ele>208.0</ele><time>2026-04-29T08:01:48.57Z</time></trkpt><trkpt lat="33.2867837" lon="9.7353495"><ele>208.0</ele><time>2026-04-29T08:01:49.584Z</time></trkpt><trkpt lat="33.286955" lon="9.735324"><ele>208.0</ele><time>2026-04-29T08:01:50.561Z</time></trkpt><trkpt lat="33.2871276" lon="9.735297"><ele>208.0</ele><time>2026-04-29T08:01:51.558Z</time></trkpt><trkpt lat="33.2872973" lon="9.7352419"><ele>208.0</ele><time>2026-04-29T08:01:52.58Z</time></trkpt><trkpt lat="33.2874719" lon="9.7351868"><ele>208.0</ele><time>2026-04-29T08:01:53.571Z</time></trkpt><trkpt lat="33.2876626" lon="9.735171"><ele>208.0</ele><time>2026-04-29T08:01:54.589Z</time></trkpt><trkpt lat="33.2878579" lon="9.7351525"><ele>208.0</ele><time>2026-04-29T08:01:55.565Z</time></trkpt><trkpt lat="33.288044" lon="9.735112"><ele>208.0</ele><time>2026-04-29T08:01:56.572Z</time></trkpt><trkpt lat="33.288232" lon="9.7350583"><ele>208.0</ele><time>2026-04-29T08:01:57.582Z</time></trkpt><trkpt lat="33.2884121" lon="9.735023"><ele>208.33333333333331</ele><time>2026-04-29T08:01:58.597Z</time></trkpt><trkpt lat="33.2885941" lon="9.7350034"><ele>208.66666666666669</ele><time>2026-04-29T08:01:59.556Z</time></trkpt><trkpt lat="33.2887763" lon="9.7349647"><ele>209.0</ele><time>2026-04-29T08:02:00.547Z</time></trkpt><trkpt lat="33.2889519" lon="9.7349153"><ele>209.0</ele><time>2026-04-29T08:02:01.565Z</time></trkpt><trkpt lat="33.2891337" lon="9.7348907"><ele>209.0</ele><time>2026-04-29T08:02:02.564Z</time></trkpt><trkpt lat="33.2893214" lon="9.7348744"><ele>209.0</ele><time>2026-04-29T08:02:03.572Z</time></trkpt><trkpt lat="33.289498" lon="9.7348237"><ele>209.0</ele><time>2026-04-29T08:02:04.577Z</time></trkpt><trkpt lat="33.2896776" lon="9.7347757"><ele>209.0</ele><time>2026-04-29T08:02:05.581Z</time></trkpt><trkpt lat="33.2898556" lon="9.7347486"><ele>209.0</ele><time>2026-04-29T08:02:06.568Z</time></trkpt><trkpt lat="33.2900393" lon="9.7347267"><ele>209.0</ele><time>2026-04-29T08:02:07.563Z</time></trkpt><trkpt lat="33.2902187" lon="9.7346926"><ele>209.0</ele><time>2026-04-29T08:02:08.565Z</time></trkpt><trkpt lat="33.2903991" lon="9.7346451"><ele>209.0</ele><time>2026-04-29T08:02:09.601Z</time></trkpt><trkpt lat="33.2905802" lon="9.734624"><ele>209.0</ele><time>2026-04-29T08:02:10.583Z</time></trkpt><trkpt lat="33.2907641" lon="9.734597"><ele>209.0</ele><time>2026-04-29T08:02:11.587Z</time></trkpt><trkpt lat="33.2909463" lon="9.7345465"><ele>209.0</ele><time>2026-04-29T08:02:12.562Z</time></trkpt><trkpt lat="33.2911298" lon="9.7344982"><ele>209.0</ele><time>2026-04-29T08:02:13.563Z</time></trkpt><trkpt lat="33.2913227" lon="9.7344737"><ele>209.0</ele><time>2026-04-29T08:02:14.575Z</time></trkpt><trkpt lat="33.2915084" lon="9.7344684"><ele>209.0</ele><time>2026-04-29T08:02:15.556Z</time></trkpt><trkpt lat="33.2916931" lon="9.73444"><ele>209.66666666666669</ele><time>2026-04-29T08:02:16.568Z</time></trkpt><trkpt lat="33.2918702" lon="9.7343849"><ele>210.33333333333331</ele><time>2026-04-29T08:02:17.57Z</time></trkpt><trkpt lat="33.2920524" lon="9.7343533"><ele>211.0</ele><time>2026-04-29T08:02:18.583Z</time></trkpt><trkpt lat="33.2922347" lon="9.7343383"><ele>211.66666666666666</ele><time>2026-04-29T08:02:19.565Z</time></trkpt><trkpt lat="33.2924228" lon="9.7343006"><ele>212.33333333333331</ele><time>2026-04-29T08:02:20.575Z</time></trkpt><trkpt lat="33.2926045" lon="9.7342443"><ele>213.0</ele><time>2026-04-29T08:02:21.562Z</time></trkpt><trkpt lat="33.292786" lon="9.7342047"><ele>213.0</ele><time>2026-04-29T08:02:22.576Z</time></trkpt><trkpt lat="33.2929717" lon="9.7341854"><ele>213.0</ele><time>2026-04-29T08:02:23.573Z</time></trkpt><trkpt lat="33.2931626" lon="9.7341604"><ele>213.0</ele><time>2026-04-29T08:02:24.579Z</time></trkpt><trkpt lat="33.2933434" lon="9.7341014"><ele>213.0</ele><time>2026-04-29T08:02:25.575Z</time></trkpt><trkpt lat="33.2935431" lon="9.7340483"><ele>213.0</ele><time>2026-04-29T08:02:26.589Z</time></trkpt><trkpt lat="33.2937319" lon="9.734029"><ele>213.0</ele><time>2026-04-29T08:02:27.576Z</time></trkpt><trkpt lat="33.2939309" lon="9.7339963"><ele>213.33333333333331</ele><time>2026-04-29T08:02:28.565Z</time></trkpt><trkpt lat="33.2941257" lon="9.7339596"><ele>213.66666666666666</ele><time>2026-04-29T08:02:29.579Z</time></trkpt><trkpt lat="33.2943192" lon="9.7339198"><ele>214.0</ele><time>2026-04-29T08:02:30.562Z</time></trkpt><trkpt lat="33.2945163" lon="9.7338943"><ele>214.0</ele><time>2026-04-29T08:02:31.563Z</time></trkpt><trkpt lat="33.2947085" lon="9.7338684"><ele>214.0</ele><time>2026-04-29T08:02:32.565Z</time></trkpt><trkpt lat="33.2948955" lon="9.7338295"><ele>214.0</ele><time>2026-04-29T08:02:33.584Z</time></trkpt><trkpt lat="33.2950832" lon="9.733779"><ele>213.66666666666666</ele><time>2026-04-29T08:02:34.567Z</time></trkpt><trkpt lat="33.2952833" lon="9.7337478"><ele>213.33333333333331</ele><time>2026-04-29T08:02:35.564Z</time></trkpt><trkpt lat="33.2954764" lon="9.7337194"><ele>213.0</ele><time>2026-04-29T08:02:36.576Z</time></trkpt><trkpt lat="33.2956663" lon="9.7336659"><ele>213.0</ele><time>2026-04-29T08:02:37.574Z</time></trkpt><trkpt lat="33.2958562" lon="9.7336077"><ele>213.0</ele><time>2026-04-29T08:02:38.576Z</time></trkpt><trkpt lat="33.2960541" lon="9.7335834"><ele>213.0</ele><time>2026-04-29T08:02:39.577Z</time></trkpt><trkpt lat="33.2962567" lon="9.7335748"><ele>213.66666666666669</ele><time>2026-04-29T08:02:40.562Z</time></trkpt><trkpt lat="33.2964423" lon="9.7335317"><ele>214.33333333333334</ele><time>2026-04-29T08:02:41.567Z</time></trkpt><trkpt lat="33.2966408" lon="9.7334825"><ele>215.0</ele><time>2026-04-29T08:02:42.587Z</time></trkpt><trkpt lat="33.2968336" lon="9.7334592"><ele>215.0</ele><time>2026-04-29T08:02:43.578Z</time></trkpt><trkpt lat="33.2970299" lon="9.7334289"><ele>215.0</ele><time>2026-04-29T08:02:44.569Z</time></trkpt><trkpt lat="33.2972209" lon="9.7333815"><ele>215.0</ele><time>2026-04-29T08:02:45.56Z</time></trkpt><trkpt lat="33.2974178" lon="9.7333427"><ele>215.0</ele><time>2026-04-29T08:02:46.591Z</time></trkpt><trkpt lat="33.2976154" lon="9.7333205"><ele>215.0</ele><time>2026-04-29T08:02:47.569Z</time></trkpt><trkpt lat="33.297812" lon="9.7332877"><ele>215.0</ele><time>2026-04-29T08:02:48.58Z</time></trkpt><trkpt lat="33.2980073" lon="9.7332339"><ele>215.33333333333334</ele><time>2026-04-29T08:02:49.568Z</time></trkpt><trkpt lat="33.2982077" lon="9.7331852"><ele>215.66666666666669</ele><time>2026-04-29T08:02:50.562Z</time></trkpt><trkpt lat="33.2984067" lon="9.7331573"><ele>216.0</ele><time>2026-04-29T08:02:51.557Z</time></trkpt><trkpt lat="33.2986046" lon="9.7331263"><ele>216.0</ele><time>2026-04-29T08:02:52.566Z</time></trkpt><trkpt lat="33.2987953" lon="9.7330839"><ele>216.0</ele><time>2026-04-29T08:02:53.566Z</time></trkpt><trkpt lat="33.2989878" lon="9.7330179"><ele>216.0</ele><time>2026-04-29T08:02:54.566Z</time></trkpt><trkpt lat="33.2991826" lon="9.7329735"><ele>215.33333333333331</ele><time>2026-04-29T08:02:55.568Z</time></trkpt><trkpt lat="33.2993787" lon="9.7329429"><ele>214.66666666666666</ele><time>2026-04-29T08:02:56.573Z</time></trkpt><trkpt lat="33.2995705" lon="9.7329082"><ele>214.0</ele><time>2026-04-29T08:02:57.566Z</time></trkpt><trkpt lat="33.2997625" lon="9.7328722"><ele>214.0</ele><time>2026-04-29T08:02:58.576Z</time></trkpt><trkpt lat="33.2999554" lon="9.7328291"><ele>214.0</ele><time>2026-04-29T08:02:59.566Z</time></trkpt><trkpt lat="33.3001583" lon="9.7327833"><ele>214.0</ele><time>2026-04-29T08:03:00.571Z</time></trkpt><trkpt lat="33.3003547" lon="9.7327411"><ele>214.0</ele><time>2026-04-29T08:03:01.565Z</time></trkpt><trkpt lat="33.3005498" lon="9.7327092"><ele>214.0</ele><time>2026-04-29T08:03:02.568Z</time></trkpt><trkpt lat="33.3007424" lon="9.73267"><ele>214.0</ele><time>2026-04-29T08:03:03.582Z</time></trkpt><trkpt lat="33.3009314" lon="9.732621"><ele>214.0</ele><time>2026-04-29T08:03:04.571Z</time></trkpt><trkpt lat="33.3011194" lon="9.7325824"><ele>214.0</ele><time>2026-04-29T08:03:05.575Z</time></trkpt><trkpt lat="33.3013062" lon="9.7325486"><ele>214.0</ele><time>2026-04-29T08:03:06.569Z</time></trkpt><trkpt lat="33.3014909" lon="9.732514"><ele>214.0</ele><time>2026-04-29T08:03:07.579Z</time></trkpt><trkpt lat="33.3016779" lon="9.7324787"><ele>214.0</ele><time>2026-04-29T08:03:08.564Z</time></trkpt><trkpt lat="33.3018651" lon="9.7324519"><ele>214.0</ele><time>2026-04-29T08:03:09.576Z</time></trkpt><trkpt lat="33.30205" lon="9.7324211"><ele>214.0</ele><time>2026-04-29T08:03:10.581Z</time></trkpt><trkpt lat="33.302241" lon="9.7323721"><ele>214.0</ele><time>2026-04-29T08:03:11.568Z</time></trkpt><trkpt lat="33.3024229" lon="9.7323224"><ele>214.0</ele><time>2026-04-29T08:03:12.582Z</time></trkpt><trkpt lat="33.3026106" lon="9.7322884"><ele>213.33333333333331</ele><time>2026-04-29T08:03:13.57Z</time></trkpt><trkpt lat="33.3028002" lon="9.7322511"><ele>212.66666666666669</ele><time>2026-04-29T08:03:14.587Z</time></trkpt><trkpt lat="33.3029898" lon="9.7322012"><ele>212.0</ele><time>2026-04-29T08:03:15.572Z</time></trkpt><trkpt lat="33.3031793" lon="9.7321528"><ele>211.66666666666669</ele><time>2026-04-29T08:03:16.577Z</time></trkpt><trkpt lat="33.3033736" lon="9.7321229"><ele>211.33333333333331</ele><time>2026-04-29T08:03:17.569Z</time></trkpt><trkpt lat="33.3035724" lon="9.732098"><ele>211.0</ele><time>2026-04-29T08:03:18.576Z</time></trkpt><trkpt lat="33.3037669" lon="9.7320771"><ele>211.33333333333331</ele><time>2026-04-29T08:03:19.568Z</time></trkpt><trkpt lat="33.3039701" lon="9.7320435"><ele>211.66666666666669</ele><time>2026-04-29T08:03:20.581Z</time></trkpt><trkpt lat="33.3041672" lon="9.7320083"><ele>212.0</ele><time>2026-04-29T08:03:21.563Z</time></trkpt><trkpt lat="33.3043585" lon="9.731973"><ele>212.0</ele><time>2026-04-29T08:03:22.575Z</time></trkpt><trkpt lat="33.3045467" lon="9.7319379"><ele>212.0</ele><time>2026-04-29T08:03:23.583Z</time></trkpt><trkpt lat="33.3047348" lon="9.7318994"><ele>212.0</ele><time>2026-04-29T08:03:24.557Z</time></trkpt><trkpt lat="33.3049252" lon="9.7318471"><ele>211.66666666666669</ele><time>2026-04-29T08:03:25.567Z</time></trkpt><trkpt lat="33.3051207" lon="9.7317803"><ele>211.33333333333331</ele><time>2026-04-29T08:03:26.572Z</time></trkpt><trkpt lat="33.3053136" lon="9.7317058"><ele>211.0</ele><time>2026-04-29T08:03:27.573Z</time></trkpt><trkpt lat="33.3055045" lon="9.7316241"><ele>211.0</ele><time>2026-04-29T08:03:28.561Z</time></trkpt><trkpt lat="33.3056961" lon="9.7315405"><ele>211.0</ele><time>2026-04-29T08:03:29.564Z</time></trkpt><trkpt lat="33.3058856" lon="9.7314539"><ele>211.0</ele><time>2026-04-29T08:03:30.562Z</time></trkpt><trkpt lat="33.3060728" lon="9.7313589"><ele>211.0</ele><time>2026-04-29T08:03:31.577Z</time></trkpt><trkpt lat="33.3062687" lon="9.7312779"><ele>211.0</ele><time>2026-04-29T08:03:32.58Z</time></trkpt><trkpt lat="33.30647" lon="9.7312183"><ele>211.0</ele><time>2026-04-29T08:03:33.575Z</time></trkpt><trkpt lat="33.3066755" lon="9.7311664"><ele>210.66666666666666</ele><time>2026-04-29T08:03:34.584Z</time></trkpt><trkpt lat="33.3068782" lon="9.7311074"><ele>210.33333333333331</ele><time>2026-04-29T08:03:35.562Z</time></trkpt><trkpt lat="33.3070817" lon="9.7310475"><ele>210.0</ele><time>2026-04-29T08:03:36.576Z</time></trkpt><trkpt lat="33.3072896" lon="9.7309888"><ele>209.0</ele><time>2026-04-29T08:03:37.579Z</time></trkpt><trkpt lat="33.3074944" lon="9.7309314"><ele>208.0</ele><time>2026-04-29T08:03:38.565Z</time></trkpt><trkpt lat="33.3076952" lon="9.7308755"><ele>207.0</ele><time>2026-04-29T08:03:39.577Z</time></trkpt><trkpt lat="33.3078989" lon="9.7308203"><ele>207.0</ele><time>2026-04-29T08:03:40.567Z</time></trkpt><trkpt lat="33.308103" lon="9.7307819"><ele>207.0</ele><time>2026-04-29T08:03:41.573Z</time></trkpt><trkpt lat="33.3083105" lon="9.730751"><ele>207.0</ele><time>2026-04-29T08:03:42.575Z</time></trkpt><trkpt lat="33.3085178" lon="9.7307155"><ele>207.0</ele><time>2026-04-29T08:03:43.573Z</time></trkpt><trkpt lat="33.3087232" lon="9.730673"><ele>207.0</ele><time>2026-04-29T08:03:44.57Z</time></trkpt><trkpt lat="33.3089272" lon="9.7306393"><ele>207.0</ele><time>2026-04-29T08:03:45.576Z</time></trkpt><trkpt lat="33.3091268" lon="9.7306019"><ele>206.66666666666669</ele><time>2026-04-29T08:03:46.572Z</time></trkpt><trkpt lat="33.3093263" lon="9.7305647"><ele>206.33333333333334</ele><time>2026-04-29T08:03:47.562Z</time></trkpt><trkpt lat="33.3095267" lon="9.7305267"><ele>206.0</ele><time>2026-04-29T08:03:48.591Z</time></trkpt><trkpt lat="33.3097256" lon="9.7304898"><ele>206.33333333333334</ele><time>2026-04-29T08:03:49.568Z</time></trkpt><trkpt lat="33.3099269" lon="9.7304518"><ele>206.66666666666669</ele><time>2026-04-29T08:03:50.584Z</time></trkpt><trkpt lat="33.3101229" lon="9.7304222"><ele>207.0</ele><time>2026-04-29T08:03:51.584Z</time></trkpt><trkpt lat="33.3103183" lon="9.7303937"><ele>207.0</ele><time>2026-04-29T08:03:52.578Z</time></trkpt><trkpt lat="33.310516" lon="9.7303631"><ele>207.0</ele><time>2026-04-29T08:03:53.561Z</time></trkpt><trkpt lat="33.310707" lon="9.730334"><ele>207.0</ele><time>2026-04-29T08:03:54.565Z</time></trkpt><trkpt lat="33.3108998" lon="9.7303019"><ele>207.33333333333331</ele><time>2026-04-29T08:03:55.582Z</time></trkpt><trkpt lat="33.3110917" lon="9.7302662"><ele>207.66666666666666</ele><time>2026-04-29T08:03:56.582Z</time></trkpt><trkpt lat="33.3112862" lon="9.7302353"><ele>208.0</ele><time>2026-04-29T08:03:57.565Z</time></trkpt><trkpt lat="33.3114744" lon="9.730202"><ele>208.0</ele><time>2026-04-29T08:03:58.579Z</time></trkpt><trkpt lat="33.3116629" lon="9.7301619"><ele>208.0</ele><time>2026-04-29T08:03:59.56Z</time></trkpt><trkpt lat="33.3118543" lon="9.730116"><ele>208.0</ele><time>2026-04-29T08:04:00.583Z</time></trkpt><trkpt lat="33.3120429" lon="9.730074"><ele>208.0</ele><time>2026-04-29T08:04:01.574Z</time></trkpt><trkpt lat="33.3122216" lon="9.7300359"><ele>208.0</ele><time>2026-04-29T08:04:02.604Z</time></trkpt><trkpt lat="33.3123947" lon="9.7299939"><ele>208.0</ele><time>2026-04-29T08:04:03.556Z</time></trkpt><trkpt lat="33.3125701" lon="9.7299575"><ele>208.66666666666666</ele><time>2026-04-29T08:04:04.581Z</time></trkpt><trkpt lat="33.3127405" lon="9.7299279"><ele>209.33333333333331</ele><time>2026-04-29T08:04:05.58Z</time></trkpt><trkpt lat="33.3129171" lon="9.7299022"><ele>210.0</ele><time>2026-04-29T08:04:06.557Z</time></trkpt><trkpt lat="33.3130933" lon="9.7298798"><ele>210.66666666666669</ele><time>2026-04-29T08:04:07.566Z</time></trkpt><trkpt lat="33.3132779" lon="9.7298533"><ele>211.33333333333334</ele><time>2026-04-29T08:04:08.569Z</time></trkpt><trkpt lat="33.3134595" lon="9.7298267"><ele>212.0</ele><time>2026-04-29T08:04:09.565Z</time></trkpt><trkpt lat="33.313642" lon="9.7298064"><ele>212.0</ele><time>2026-04-29T08:04:10.581Z</time></trkpt><trkpt lat="33.3138309" lon="9.7297804"><ele>212.0</ele><time>2026-04-29T08:04:11.557Z</time></trkpt><trkpt lat="33.3140226" lon="9.7297565"><ele>212.0</ele><time>2026-04-29T08:04:12.558Z</time></trkpt><trkpt lat="33.31421" lon="9.7297311"><ele>212.0</ele><time>2026-04-29T08:04:13.575Z</time></trkpt><trkpt lat="33.3144014" lon="9.7297023"><ele>212.0</ele><time>2026-04-29T08:04:14.58Z</time></trkpt><trkpt lat="33.3145921" lon="9.7296753"><ele>212.0</ele><time>2026-04-29T08:04:15.566Z</time></trkpt><trkpt lat="33.3147829" lon="9.7296456"><ele>212.0</ele><time>2026-04-29T08:04:16.572Z</time></trkpt><trkpt lat="33.3149817" lon="9.7296181"><ele>212.0</ele><time>2026-04-29T08:04:17.573Z</time></trkpt><trkpt lat="33.315174" lon="9.7295824"><ele>212.0</ele><time>2026-04-29T08:04:18.577Z</time></trkpt><trkpt lat="33.3153609" lon="9.729549"><ele>212.0</ele><time>2026-04-29T08:04:19.554Z</time></trkpt><trkpt lat="33.3155471" lon="9.7295219"><ele>212.0</ele><time>2026-04-29T08:04:20.568Z</time></trkpt><trkpt lat="33.3157349" lon="9.7294907"><ele>212.0</ele><time>2026-04-29T08:04:21.56Z</time></trkpt><trkpt lat="33.3159164" lon="9.7294623"><ele>212.0</ele><time>2026-04-29T08:04:22.552Z</time></trkpt><trkpt lat="33.3160958" lon="9.7294364"><ele>212.0</ele><time>2026-04-29T08:04:23.553Z</time></trkpt><trkpt lat="33.3162762" lon="9.7294046"><ele>212.0</ele><time>2026-04-29T08:04:24.56Z</time></trkpt><trkpt lat="33.3164576" lon="9.7293689"><ele>212.66666666666669</ele><time>2026-04-29T08:04:25.56Z</time></trkpt><trkpt lat="33.316636" lon="9.7293309"><ele>213.33333333333331</ele><time>2026-04-29T08:04:26.575Z</time></trkpt><trkpt lat="33.3168133" lon="9.7292942"><ele>214.0</ele><time>2026-04-29T08:04:27.567Z</time></trkpt><trkpt lat="33.3169896" lon="9.7292519"><ele>214.0</ele><time>2026-04-29T08:04:28.58Z</time></trkpt><trkpt lat="33.3171701" lon="9.7292131"><ele>214.0</ele><time>2026-04-29T08:04:29.563Z</time></trkpt><trkpt lat="33.3173538" lon="9.7291753"><ele>214.0</ele><time>2026-04-29T08:04:30.568Z</time></trkpt><trkpt lat="33.3175338" lon="9.7291349"><ele>213.66666666666666</ele><time>2026-04-29T08:04:31.571Z</time></trkpt><trkpt lat="33.3177171" lon="9.7290998"><ele>213.33333333333331</ele><time>2026-04-29T08:04:32.56Z</time></trkpt><trkpt lat="33.317903" lon="9.729065"><ele>213.0</ele><time>2026-04-29T08:04:33.568Z</time></trkpt><trkpt lat="33.3180882" lon="9.7290373"><ele>213.0</ele><time>2026-04-29T08:04:34.575Z</time></trkpt><trkpt lat="33.318275" lon="9.7290174"><ele>213.0</ele><time>2026-04-29T08:04:35.583Z</time></trkpt><trkpt lat="33.3184555" lon="9.7289921"><ele>213.0</ele><time>2026-04-29T08:04:36.571Z</time></trkpt><trkpt lat="33.3186346" lon="9.7289539"><ele>213.0</ele><time>2026-04-29T08:04:37.574Z</time></trkpt><trkpt lat="33.318819" lon="9.7289104"><ele>213.0</ele><time>2026-04-29T08:04:38.563Z</time></trkpt><trkpt lat="33.3190007" lon="9.7288555"><ele>213.0</ele><time>2026-04-29T08:04:39.565Z</time></trkpt><trkpt lat="33.3191789" lon="9.7288031"><ele>213.33333333333331</ele><time>2026-04-29T08:04:40.583Z</time></trkpt><trkpt lat="33.3193567" lon="9.7287391"><ele>213.66666666666666</ele><time>2026-04-29T08:04:41.565Z</time></trkpt><trkpt lat="33.3195394" lon="9.728676"><ele>214.0</ele><time>2026-04-29T08:04:42.56Z</time></trkpt><trkpt lat="33.3197139" lon="9.7286128"><ele>214.0</ele><time>2026-04-29T08:04:43.562Z</time></trkpt><trkpt lat="33.3198835" lon="9.728554"><ele>214.0</ele><time>2026-04-29T08:04:44.577Z</time></trkpt><trkpt lat="33.3200536" lon="9.7284879"><ele>214.0</ele><time>2026-04-29T08:04:45.586Z</time></trkpt><trkpt lat="33.320222" lon="9.7284275"><ele>214.0</ele><time>2026-04-29T08:04:46.566Z</time></trkpt><trkpt lat="33.3203936" lon="9.7283712"><ele>214.0</ele><time>2026-04-29T08:04:47.558Z</time></trkpt><trkpt lat="33.3205635" lon="9.728314"><ele>214.0</ele><time>2026-04-29T08:04:48.579Z</time></trkpt><trkpt lat="33.3207303" lon="9.7282646"><ele>214.33333333333331</ele><time>2026-04-29T08:04:49.575Z</time></trkpt><trkpt lat="33.3209053" lon="9.728218"><ele>214.66666666666669</ele><time>2026-04-29T08:04:50.587Z</time></trkpt><trkpt lat="33.321081" lon="9.7281868"><ele>215.0</ele><time>2026-04-29T08:04:51.566Z</time></trkpt><trkpt lat="33.321251" lon="9.7281772"><ele>215.33333333333334</ele><time>2026-04-29T08:04:52.561Z</time></trkpt><trkpt lat="33.3214263" lon="9.7281834"><ele>215.66666666666669</ele><time>2026-04-29T08:04:53.562Z</time></trkpt><trkpt lat="33.3216008" lon="9.7281944"><ele>216.0</ele><time>2026-04-29T08:04:54.59Z</time></trkpt><trkpt lat="33.3217738" lon="9.7282004"><ele>216.0</ele><time>2026-04-29T08:04:55.562Z</time></trkpt><trkpt lat="33.321944" lon="9.728203"><ele>216.0</ele><time>2026-04-29T08:04:56.563Z</time></trkpt><trkpt lat="33.3221131" lon="9.7281911"><ele>216.0</ele><time>2026-04-29T08:04:57.574Z</time></trkpt><trkpt lat="33.3222901" lon="9.7281647"><ele>215.33333333333331</ele><time>2026-04-29T08:04:58.56Z</time></trkpt><trkpt lat="33.3224608" lon="9.7281405"><ele>214.66666666666666</ele><time>2026-04-29T08:04:59.579Z</time></trkpt><trkpt lat="33.322632" lon="9.7281096"><ele>214.0</ele><time>2026-04-29T08:05:00.558Z</time></trkpt><trkpt lat="33.3228049" lon="9.7280768"><ele>214.0</ele><time>2026-04-29T08:05:01.566Z</time></trkpt><trkpt lat="33.3229765" lon="9.7280398"><ele>214.0</ele><time>2026-04-29T08:05:02.57Z</time></trkpt><trkpt lat="33.3231536" lon="9.7279966"><ele>214.0</ele><time>2026-04-29T08:05:03.556Z</time></trkpt><trkpt lat="33.3233312" lon="9.727961"><ele>213.66666666666666</ele><time>2026-04-29T08:05:04.561Z</time></trkpt><trkpt lat="33.3235111" lon="9.7279262"><ele>213.33333333333331</ele><time>2026-04-29T08:05:05.568Z</time></trkpt><trkpt lat="33.3236941" lon="9.7278891"><ele>213.0</ele><time>2026-04-29T08:05:06.567Z</time></trkpt><trkpt lat="33.3238811" lon="9.7278468"><ele>212.66666666666669</ele><time>2026-04-29T08:05:07.567Z</time></trkpt><trkpt lat="33.324072" lon="9.7278097"><ele>212.33333333333334</ele><time>2026-04-29T08:05:08.558Z</time></trkpt><trkpt lat="33.3242722" lon="9.7277751"><ele>212.0</ele><time>2026-04-29T08:05:09.575Z</time></trkpt><trkpt lat="33.3244702" lon="9.727735"><ele>211.66666666666669</ele><time>2026-04-29T08:05:10.57Z</time></trkpt><trkpt lat="33.3246726" lon="9.7276933"><ele>211.33333333333331</ele><time>2026-04-29T08:05:11.559Z</time></trkpt><trkpt lat="33.3248749" lon="9.7276533"><ele>211.0</ele><time>2026-04-29T08:05:12.567Z</time></trkpt><trkpt lat="33.3250771" lon="9.7276141"><ele>211.0</ele><time>2026-04-29T08:05:13.567Z</time></trkpt><trkpt lat="33.3252803" lon="9.7275726"><ele>211.0</ele><time>2026-04-29T08:05:14.573Z</time></trkpt><trkpt lat="33.3254806" lon="9.7275367"><ele>211.0</ele><time>2026-04-29T08:05:15.571Z</time></trkpt><trkpt lat="33.3256846" lon="9.7274969"><ele>211.33333333333331</ele><time>2026-04-29T08:05:16.573Z</time></trkpt><trkpt lat="33.3258881" lon="9.7274576"><ele>211.66666666666669</ele><time>2026-04-29T08:05:17.569Z</time></trkpt><trkpt lat="33.3260906" lon="9.7274151"><ele>212.0</ele><time>2026-04-29T08:05:18.579Z</time></trkpt><trkpt lat="33.3262912" lon="9.7273747"><ele>212.33333333333334</ele><time>2026-04-29T08:05:19.574Z</time></trkpt><trkpt lat="33.3264938" lon="9.7273313"><ele>212.66666666666669</ele><time>2026-04-29T08:05:20.57Z</time></trkpt><trkpt lat="33.3266907" lon="9.7272804"><ele>213.0</ele><time>2026-04-29T08:05:21.555Z</time></trkpt><trkpt lat="33.3268846" lon="9.7272253"><ele>213.0</ele><time>2026-04-29T08:05:22.59Z</time></trkpt><trkpt lat="33.3270716" lon="9.7271682"><ele>213.0</ele><time>2026-04-29T08:05:23.585Z</time></trkpt><trkpt lat="33.3272532" lon="9.7271064"><ele>213.0</ele><time>2026-04-29T08:05:24.577Z</time></trkpt><trkpt lat="33.3274396" lon="9.7270496"><ele>213.0</ele><time>2026-04-29T08:05:25.568Z</time></trkpt><trkpt lat="33.3276281" lon="9.7269996"><ele>213.0</ele><time>2026-04-29T08:05:26.581Z</time></trkpt><trkpt lat="33.327821" lon="9.7269483"><ele>213.0</ele><time>2026-04-29T08:05:27.567Z</time></trkpt><trkpt lat="33.3280138" lon="9.7268955"><ele>213.66666666666669</ele><time>2026-04-29T08:05:28.576Z</time></trkpt><trkpt lat="33.3282033" lon="9.726853"><ele>214.33333333333334</ele><time>2026-04-29T08:05:29.56Z</time></trkpt><trkpt lat="33.3283943" lon="9.7268047"><ele>215.0</ele><time>2026-04-29T08:05:30.58Z</time></trkpt><trkpt lat="33.3285778" lon="9.726767"><ele>215.0</ele><time>2026-04-29T08:05:31.571Z</time></trkpt><trkpt lat="33.3287652" lon="9.7267308"><ele>215.0</ele><time>2026-04-29T08:05:32.576Z</time></trkpt><trkpt lat="33.3289556" lon="9.7266958"><ele>215.0</ele><time>2026-04-29T08:05:33.558Z</time></trkpt><trkpt lat="33.3291398" lon="9.7266582"><ele>214.66666666666669</ele><time>2026-04-29T08:05:34.58Z</time></trkpt><trkpt lat="33.3293255" lon="9.7266211"><ele>214.33333333333331</ele><time>2026-04-29T08:05:35.574Z</time></trkpt><trkpt lat="33.3295092" lon="9.7265846"><ele>214.0</ele><time>2026-04-29T08:05:36.58Z</time></trkpt><trkpt lat="33.3296968" lon="9.7265572"><ele>214.66666666666666</ele><time>2026-04-29T08:05:37.575Z</time></trkpt><trkpt lat="33.3298826" lon="9.7265307"><ele>215.33333333333331</ele><time>2026-04-29T08:05:38.575Z</time></trkpt><trkpt lat="33.3300637" lon="9.72651"><ele>216.0</ele><time>2026-04-29T08:05:39.571Z</time></trkpt><trkpt lat="33.3302452" lon="9.7264746"><ele>216.0</ele><time>2026-04-29T08:05:40.568Z</time></trkpt><trkpt lat="33.330425" lon="9.7264407"><ele>216.0</ele><time>2026-04-29T08:05:41.571Z</time></trkpt><trkpt lat="33.3306031" lon="9.726406"><ele>216.0</ele><time>2026-04-29T08:05:42.575Z</time></trkpt><trkpt lat="33.330777" lon="9.7263762"><ele>215.66666666666669</ele><time>2026-04-29T08:05:43.565Z</time></trkpt><trkpt lat="33.3309554" lon="9.7263458"><ele>215.33333333333334</ele><time>2026-04-29T08:05:44.586Z</time></trkpt><trkpt lat="33.3311273" lon="9.7263176"><ele>215.0</ele><time>2026-04-29T08:05:45.553Z</time></trkpt><trkpt lat="33.3313004" lon="9.7262904"><ele>214.66666666666669</ele><time>2026-04-29T08:05:46.572Z</time></trkpt><trkpt lat="33.3314759" lon="9.726259"><ele>214.33333333333331</ele><time>2026-04-29T08:05:47.57Z</time></trkpt><trkpt lat="33.331643" lon="9.7262257"><ele>214.0</ele><time>2026-04-29T08:05:48.563Z</time></trkpt><trkpt lat="33.3318147" lon="9.7261946"><ele>214.0</ele><time>2026-04-29T08:05:49.574Z</time></trkpt><trkpt lat="33.3319886" lon="9.7261694"><ele>214.0</ele><time>2026-04-29T08:05:50.578Z</time></trkpt><trkpt lat="33.33216" lon="9.7261472"><ele>214.0</ele><time>2026-04-29T08:05:51.561Z</time></trkpt><trkpt lat="33.3323284" lon="9.7261271"><ele>214.0</ele><time>2026-04-29T08:05:52.549Z</time></trkpt><trkpt lat="33.3324967" lon="9.7261019"><ele>214.0</ele><time>2026-04-29T08:05:53.563Z</time></trkpt><trkpt lat="33.3326705" lon="9.7260776"><ele>214.0</ele><time>2026-04-29T08:05:54.583Z</time></trkpt><trkpt lat="33.332839" lon="9.7260518"><ele>213.66666666666666</ele><time>2026-04-29T08:05:55.58Z</time></trkpt><trkpt lat="33.3330104" lon="9.726032"><ele>213.33333333333331</ele><time>2026-04-29T08:05:56.572Z</time></trkpt><trkpt lat="33.3331836" lon="9.7260087"><ele>213.0</ele><time>2026-04-29T08:05:57.568Z</time></trkpt><trkpt lat="33.3333574" lon="9.725984"><ele>213.66666666666669</ele><time>2026-04-29T08:05:58.582Z</time></trkpt><trkpt lat="33.333534" lon="9.7259543"><ele>214.33333333333334</ele><time>2026-04-29T08:05:59.56Z</time></trkpt><trkpt lat="33.3337094" lon="9.7259284"><ele>215.0</ele><time>2026-04-29T08:06:00.584Z</time></trkpt><trkpt lat="33.3338841" lon="9.7259015"><ele>214.66666666666669</ele><time>2026-04-29T08:06:01.593Z</time></trkpt><trkpt lat="33.3340603" lon="9.7258775"><ele>214.33333333333331</ele><time>2026-04-29T08:06:02.562Z</time></trkpt><trkpt lat="33.3342382" lon="9.7258483"><ele>214.0</ele><time>2026-04-29T08:06:03.568Z</time></trkpt><trkpt lat="33.3344141" lon="9.7258201"><ele>214.0</ele><time>2026-04-29T08:06:04.574Z</time></trkpt><trkpt lat="33.3345902" lon="9.7257864"><ele>214.0</ele><time>2026-04-29T08:06:05.564Z</time></trkpt><trkpt lat="33.3347706" lon="9.7257529"><ele>214.0</ele><time>2026-04-29T08:06:06.577Z</time></trkpt><trkpt lat="33.3349443" lon="9.7257104"><ele>214.0</ele><time>2026-04-29T08:06:07.57Z</time></trkpt><trkpt lat="33.3351148" lon="9.7256574"><ele>214.0</ele><time>2026-04-29T08:06:08.549Z</time></trkpt><trkpt lat="33.3352815" lon="9.7255949"><ele>214.0</ele><time>2026-04-29T08:06:09.596Z</time></trkpt><trkpt lat="33.3354545" lon="9.7255188"><ele>213.66666666666666</ele><time>2026-04-29T08:06:10.572Z</time></trkpt><trkpt lat="33.3356186" lon="9.7254311"><ele>213.33333333333331</ele><time>2026-04-29T08:06:11.577Z</time></trkpt><trkpt lat="33.3357885" lon="9.7253511"><ele>213.0</ele><time>2026-04-29T08:06:12.565Z</time></trkpt><trkpt lat="33.3359598" lon="9.7252751"><ele>212.66666666666669</ele><time>2026-04-29T08:06:13.561Z</time></trkpt><trkpt lat="33.3361273" lon="9.7252005"><ele>212.33333333333334</ele><time>2026-04-29T08:06:14.569Z</time></trkpt><trkpt lat="33.3362974" lon="9.7251341"><ele>212.0</ele><time>2026-04-29T08:06:15.55Z</time></trkpt><trkpt lat="33.336481" lon="9.7250848"><ele>211.66666666666669</ele><time>2026-04-29T08:06:16.574Z</time></trkpt><trkpt lat="33.3366612" lon="9.7250479"><ele>211.33333333333331</ele><time>2026-04-29T08:06:17.562Z</time></trkpt><trkpt lat="33.3368434" lon="9.7250182"><ele>211.0</ele><time>2026-04-29T08:06:18.564Z</time></trkpt><trkpt lat="33.3370189" lon="9.7250114"><ele>211.0</ele><time>2026-04-29T08:06:19.558Z</time></trkpt><trkpt lat="33.3372037" lon="9.7250271"><ele>211.0</ele><time>2026-04-29T08:06:20.593Z</time></trkpt><trkpt lat="33.3373849" lon="9.7250462"><ele>211.0</ele><time>2026-04-29T08:06:21.557Z</time></trkpt><trkpt lat="33.3375596" lon="9.7250664"><ele>210.66666666666666</ele><time>2026-04-29T08:06:22.564Z</time></trkpt><trkpt lat="33.3377341" lon="9.7250716"><ele>210.33333333333331</ele><time>2026-04-29T08:06:23.565Z</time></trkpt><trkpt lat="33.337906" lon="9.7250694"><ele>210.0</ele><time>2026-04-29T08:06:24.564Z</time></trkpt><trkpt lat="33.3380832" lon="9.7250669"><ele>211.0</ele><time>2026-04-29T08:06:25.574Z</time></trkpt><trkpt lat="33.3382639" lon="9.7250553"><ele>212.0</ele><time>2026-04-29T08:06:26.562Z</time></trkpt><trkpt lat="33.3384438" lon="9.725044"><ele>213.0</ele><time>2026-04-29T08:06:27.554Z</time></trkpt><trkpt lat="33.3386212" lon="9.7250072"><ele>213.0</ele><time>2026-04-29T08:06:28.566Z</time></trkpt><trkpt lat="33.3388024" lon="9.7249715"><ele>213.0</ele><time>2026-04-29T08:06:29.563Z</time></trkpt><trkpt lat="33.3389823" lon="9.7249514"><ele>213.0</ele><time>2026-04-29T08:06:30.575Z</time></trkpt><trkpt lat="33.3391634" lon="9.7249338"><ele>213.33333333333331</ele><time>2026-04-29T08:06:31.567Z</time></trkpt><trkpt lat="33.3393416" lon="9.7248994"><ele>213.66666666666666</ele><time>2026-04-29T08:06:32.564Z</time></trkpt><trkpt lat="33.3395165" lon="9.7248587"><ele>214.0</ele><time>2026-04-29T08:06:33.553Z</time></trkpt><trkpt lat="33.3396934" lon="9.7248364"><ele>213.66666666666666</ele><time>2026-04-29T08:06:34.572Z</time></trkpt><trkpt lat="33.3398734" lon="9.7248092"><ele>213.33333333333331</ele><time>2026-04-29T08:06:35.58Z</time></trkpt><trkpt lat="33.3400512" lon="9.7247732"><ele>213.0</ele><time>2026-04-29T08:06:36.576Z</time></trkpt><trkpt lat="33.3402326" lon="9.7247235"><ele>213.0</ele><time>2026-04-29T08:06:37.554Z</time></trkpt><trkpt lat="33.3404059" lon="9.7246868"><ele>213.0</ele><time>2026-04-29T08:06:38.564Z</time></trkpt><trkpt lat="33.340587" lon="9.7246657"><ele>213.0</ele><time>2026-04-29T08:06:39.582Z</time></trkpt><trkpt lat="33.3407671" lon="9.7246224"><ele>213.0</ele><time>2026-04-29T08:06:40.572Z</time></trkpt><trkpt lat="33.3409395" lon="9.7245629"><ele>213.0</ele><time>2026-04-29T08:06:41.567Z</time></trkpt><trkpt lat="33.3411132" lon="9.7244984"><ele>213.0</ele><time>2026-04-29T08:06:42.567Z</time></trkpt><trkpt lat="33.3412865" lon="9.7244504"><ele>212.33333333333331</ele><time>2026-04-29T08:06:43.566Z</time></trkpt><trkpt lat="33.3414673" lon="9.7244112"><ele>211.66666666666666</ele><time>2026-04-29T08:06:44.583Z</time></trkpt><trkpt lat="33.3416466" lon="9.7243699"><ele>211.0</ele><time>2026-04-29T08:06:45.58Z</time></trkpt><trkpt lat="33.3418244" lon="9.7243293"><ele>211.0</ele><time>2026-04-29T08:06:46.571Z</time></trkpt><trkpt lat="33.3420045" lon="9.7242932"><ele>211.0</ele><time>2026-04-29T08:06:47.556Z</time></trkpt><trkpt lat="33.3421814" lon="9.7242583"><ele>211.0</ele><time>2026-04-29T08:06:48.573Z</time></trkpt><trkpt lat="33.3423598" lon="9.7242231"><ele>210.66666666666666</ele><time>2026-04-29T08:06:49.558Z</time></trkpt><trkpt lat="33.3425397" lon="9.724191"><ele>210.33333333333331</ele><time>2026-04-29T08:06:50.568Z</time></trkpt><trkpt lat="33.3427194" lon="9.7241556"><ele>210.0</ele><time>2026-04-29T08:06:51.586Z</time></trkpt><trkpt lat="33.3428942" lon="9.7241193"><ele>210.0</ele><time>2026-04-29T08:06:52.556Z</time></trkpt><trkpt lat="33.3430735" lon="9.724083"><ele>210.0</ele><time>2026-04-29T08:06:53.573Z</time></trkpt><trkpt lat="33.3432516" lon="9.7240437"><ele>210.0</ele><time>2026-04-29T08:06:54.564Z</time></trkpt><trkpt lat="33.3434305" lon="9.7240078"><ele>210.0</ele><time>2026-04-29T08:06:55.566Z</time></trkpt><trkpt lat="33.3436074" lon="9.7239705"><ele>210.0</ele><time>2026-04-29T08:06:56.557Z</time></trkpt><trkpt lat="33.3437869" lon="9.723936"><ele>210.0</ele><time>2026-04-29T08:06:57.564Z</time></trkpt><trkpt lat="33.343963" lon="9.7238988"><ele>209.66666666666669</ele><time>2026-04-29T08:06:58.557Z</time></trkpt><trkpt lat="33.3441363" lon="9.7238664"><ele>209.33333333333334</ele><time>2026-04-29T08:06:59.574Z</time></trkpt><trkpt lat="33.3443095" lon="9.7238289"><ele>209.0</ele><time>2026-04-29T08:07:00.558Z</time></trkpt><trkpt lat="33.3444883" lon="9.7238005"><ele>209.0</ele><time>2026-04-29T08:07:01.569Z</time></trkpt><trkpt lat="33.3446675" lon="9.7237826"><ele>209.0</ele><time>2026-04-29T08:07:02.572Z</time></trkpt><trkpt lat="33.3448503" lon="9.723771"><ele>209.0</ele><time>2026-04-29T08:07:03.584Z</time></trkpt><trkpt lat="33.3450351" lon="9.723773"><ele>209.33333333333334</ele><time>2026-04-29T08:07:04.571Z</time></trkpt><trkpt lat="33.3452196" lon="9.7237823"><ele>209.66666666666669</ele><time>2026-04-29T08:07:05.572Z</time></trkpt><trkpt lat="33.3454052" lon="9.7237973"><ele>210.0</ele><time>2026-04-29T08:07:06.56Z</time></trkpt><trkpt lat="33.3455831" lon="9.7238154"><ele>210.33333333333331</ele><time>2026-04-29T08:07:07.579Z</time></trkpt><trkpt lat="33.3457601" lon="9.7238312"><ele>210.66666666666666</ele><time>2026-04-29T08:07:08.572Z</time></trkpt><trkpt lat="33.345939" lon="9.7238423"><ele>211.0</ele><time>2026-04-29T08:07:09.561Z</time></trkpt><trkpt lat="33.3461194" lon="9.7238484"><ele>211.0</ele><time>2026-04-29T08:07:10.572Z</time></trkpt><trkpt lat="33.3462917" lon="9.7238493"><ele>211.0</ele><time>2026-04-29T08:07:11.57Z</time></trkpt><trkpt lat="33.3464665" lon="9.7238345"><ele>211.0</ele><time>2026-04-29T08:07:12.576Z</time></trkpt><trkpt lat="33.3466458" lon="9.7238063"><ele>210.33333333333331</ele><time>2026-04-29T08:07:13.569Z</time></trkpt><trkpt lat="33.34683" lon="9.7237823"><ele>209.66666666666669</ele><time>2026-04-29T08:07:14.568Z</time></trkpt><trkpt lat="33.3470241" lon="9.7237356"><ele>209.0</ele><time>2026-04-29T08:07:15.599Z</time></trkpt><trkpt lat="33.3472179" lon="9.7236801"><ele>209.0</ele><time>2026-04-29T08:07:16.565Z</time></trkpt><trkpt lat="33.3474226" lon="9.7236362"><ele>209.0</ele><time>2026-04-29T08:07:17.564Z</time></trkpt><trkpt lat="33.3476269" lon="9.7235997"><ele>209.0</ele><time>2026-04-29T08:07:18.569Z</time></trkpt><trkpt lat="33.3478331" lon="9.7235522"><ele>209.0</ele><time>2026-04-29T08:07:19.582Z</time></trkpt><trkpt lat="33.3480322" lon="9.7235031"><ele>209.0</ele><time>2026-04-29T08:07:20.575Z</time></trkpt><trkpt lat="33.3482343" lon="9.7234748"><ele>209.0</ele><time>2026-04-29T08:07:21.562Z</time></trkpt><trkpt lat="33.3484296" lon="9.7234492"><ele>208.66666666666669</ele><time>2026-04-29T08:07:22.578Z</time></trkpt><trkpt lat="33.3486144" lon="9.7234077"><ele>208.33333333333331</ele><time>2026-04-29T08:07:23.572Z</time></trkpt><trkpt lat="33.3487944" lon="9.7233596"><ele>208.0</ele><time>2026-04-29T08:07:24.572Z</time></trkpt><trkpt lat="33.3489903" lon="9.7233251"><ele>208.66666666666666</ele><time>2026-04-29T08:07:25.583Z</time></trkpt><trkpt lat="33.3491848" lon="9.7233011"><ele>209.33333333333331</ele><time>2026-04-29T08:07:26.58Z</time></trkpt><trkpt lat="33.349375" lon="9.7232696"><ele>210.0</ele><time>2026-04-29T08:07:27.575Z</time></trkpt><trkpt lat="33.3495587" lon="9.7232207"><ele>210.33333333333331</ele><time>2026-04-29T08:07:28.571Z</time></trkpt><trkpt lat="33.3497482" lon="9.7231695"><ele>210.66666666666666</ele><time>2026-04-29T08:07:29.574Z</time></trkpt><trkpt lat="33.3499299" lon="9.723143"><ele>211.0</ele><time>2026-04-29T08:07:30.578Z</time></trkpt><trkpt lat="33.3501108" lon="9.7231258"><ele>211.0</ele><time>2026-04-29T08:07:31.579Z</time></trkpt><trkpt lat="33.3502833" lon="9.7230962"><ele>211.0</ele><time>2026-04-29T08:07:32.561Z</time></trkpt><trkpt lat="33.3504581" lon="9.7230516"><ele>211.0</ele><time>2026-04-29T08:07:33.57Z</time></trkpt><trkpt lat="33.3506454" lon="9.7230254"><ele>211.0</ele><time>2026-04-29T08:07:34.567Z</time></trkpt><trkpt lat="33.3508321" lon="9.7230083"><ele>211.0</ele><time>2026-04-29T08:07:35.562Z</time></trkpt><trkpt lat="33.3510127" lon="9.7229813"><ele>211.0</ele><time>2026-04-29T08:07:36.566Z</time></trkpt><trkpt lat="33.3511917" lon="9.7229368"><ele>211.0</ele><time>2026-04-29T08:07:37.57Z</time></trkpt><trkpt lat="33.3513731" lon="9.7228923"><ele>211.0</ele><time>2026-04-29T08:07:38.56Z</time></trkpt><trkpt lat="33.3515629" lon="9.7228611"><ele>211.0</ele><time>2026-04-29T08:07:39.56Z</time></trkpt><trkpt lat="33.3517459" lon="9.7228328"><ele>211.66666666666666</ele><time>2026-04-29T08:07:40.56Z</time></trkpt><trkpt lat="33.3519315" lon="9.7228002"><ele>212.33333333333331</ele><time>2026-04-29T08:07:41.565Z</time></trkpt><trkpt lat="33.3521192" lon="9.7227644"><ele>213.0</ele><time>2026-04-29T08:07:42.573Z</time></trkpt><trkpt lat="33.3523033" lon="9.7227297"><ele>213.33333333333331</ele><time>2026-04-29T08:07:43.583Z</time></trkpt><trkpt lat="33.3524938" lon="9.722692"><ele>213.66666666666666</ele><time>2026-04-29T08:07:44.575Z</time></trkpt><trkpt lat="33.3526733" lon="9.7226557"><ele>214.0</ele><time>2026-04-29T08:07:45.558Z</time></trkpt><trkpt lat="33.352853" lon="9.7226152"><ele>214.0</ele><time>2026-04-29T08:07:46.566Z</time></trkpt><trkpt lat="33.3530355" lon="9.7225768"><ele>214.0</ele><time>2026-04-29T08:07:47.579Z</time></trkpt><trkpt lat="33.3532161" lon="9.7225389"><ele>214.0</ele><time>2026-04-29T08:07:48.566Z</time></trkpt><trkpt lat="33.3534001" lon="9.7225019"><ele>213.66666666666666</ele><time>2026-04-29T08:07:49.557Z</time></trkpt><trkpt lat="33.353582" lon="9.7224586"><ele>213.33333333333331</ele><time>2026-04-29T08:07:50.57Z</time></trkpt><trkpt lat="33.3537622" lon="9.7224199"><ele>213.0</ele><time>2026-04-29T08:07:51.557Z</time></trkpt><trkpt lat="33.3539457" lon="9.7223846"><ele>213.0</ele><time>2026-04-29T08:07:52.555Z</time></trkpt><trkpt lat="33.3541338" lon="9.7223499"><ele>213.0</ele><time>2026-04-29T08:07:53.561Z</time></trkpt><trkpt lat="33.3543173" lon="9.7223147"><ele>213.0</ele><time>2026-04-29T08:07:54.56Z</time></trkpt><trkpt lat="33.3545049" lon="9.7222742"><ele>213.0</ele><time>2026-04-29T08:07:55.568Z</time></trkpt><trkpt lat="33.3546851" lon="9.7222427"><ele>213.0</ele><time>2026-04-29T08:07:56.588Z</time></trkpt><trkpt lat="33.3548698" lon="9.7222048"><ele>213.0</ele><time>2026-04-29T08:07:57.563Z</time></trkpt><trkpt lat="33.355053" lon="9.7221684"><ele>212.66666666666669</ele><time>2026-04-29T08:07:58.559Z</time></trkpt><trkpt lat="33.3552375" lon="9.722135"><ele>212.33333333333334</ele><time>2026-04-29T08:07:59.58Z</time></trkpt><trkpt lat="33.3554259" lon="9.7221029"><ele>212.0</ele><time>2026-04-29T08:08:00.572Z</time></trkpt><trkpt lat="33.3556106" lon="9.7220705"><ele>212.0</ele><time>2026-04-29T08:08:01.567Z</time></trkpt><trkpt lat="33.3557934" lon="9.7220368"><ele>212.0</ele><time>2026-04-29T08:08:02.573Z</time></trkpt><trkpt lat="33.3559769" lon="9.7219989"><ele>212.0</ele><time>2026-04-29T08:08:03.572Z</time></trkpt><trkpt lat="33.3561584" lon="9.7219569"><ele>212.0</ele><time>2026-04-29T08:08:04.566Z</time></trkpt><trkpt lat="33.3563404" lon="9.7219149"><ele>212.0</ele><time>2026-04-29T08:08:05.571Z</time></trkpt><trkpt lat="33.3565227" lon="9.7218784"><ele>212.0</ele><time>2026-04-29T08:08:06.569Z</time></trkpt><trkpt lat="33.3567069" lon="9.7218427"><ele>211.33333333333334</ele><time>2026-04-29T08:08:07.562Z</time></trkpt><trkpt lat="33.3568888" lon="9.7218086"><ele>210.66666666666669</ele><time>2026-04-29T08:08:08.566Z</time></trkpt><trkpt lat="33.3570747" lon="9.721776"><ele>210.0</ele><time>2026-04-29T08:08:09.561Z</time></trkpt><trkpt lat="33.3572625" lon="9.7217434"><ele>209.66666666666669</ele><time>2026-04-29T08:08:10.558Z</time></trkpt><trkpt lat="33.3574483" lon="9.721707"><ele>209.33333333333334</ele><time>2026-04-29T08:08:11.567Z</time></trkpt><trkpt lat="33.3576328" lon="9.7216725"><ele>209.0</ele><time>2026-04-29T08:08:12.574Z</time></trkpt><trkpt lat="33.3578149" lon="9.7216322"><ele>209.0</ele><time>2026-04-29T08:08:13.566Z</time></trkpt><trkpt lat="33.3579997" lon="9.7215915"><ele>209.0</ele><time>2026-04-29T08:08:14.551Z</time></trkpt><trkpt lat="33.3581834" lon="9.7215549"><ele>209.0</ele><time>2026-04-29T08:08:15.564Z</time></trkpt><trkpt lat="33.3583651" lon="9.7215214"><ele>209.0</ele><time>2026-04-29T08:08:16.56Z</time></trkpt><trkpt lat="33.3585483" lon="9.7214872"><ele>209.0</ele><time>2026-04-29T08:08:17.563Z</time></trkpt><trkpt lat="33.3587289" lon="9.72145"><ele>209.0</ele><time>2026-04-29T08:08:18.558Z</time></trkpt><trkpt lat="33.3589072" lon="9.7214156"><ele>209.0</ele><time>2026-04-29T08:08:19.572Z</time></trkpt><trkpt lat="33.3590859" lon="9.72138"><ele>209.0</ele><time>2026-04-29T08:08:20.571Z</time></trkpt><trkpt lat="33.3592647" lon="9.7213436"><ele>209.0</ele><time>2026-04-29T08:08:21.613Z</time></trkpt><trkpt lat="33.3594484" lon="9.7213078"><ele>209.0</ele><time>2026-04-29T08:08:22.534Z</time></trkpt><trkpt lat="33.3596267" lon="9.7212698"><ele>209.0</ele><time>2026-04-29T08:08:23.583Z</time></trkpt><trkpt lat="33.3598052" lon="9.7212392"><ele>209.0</ele><time>2026-04-29T08:08:24.585Z</time></trkpt><trkpt lat="33.3599835" lon="9.7212019"><ele>209.0</ele><time>2026-04-29T08:08:25.588Z</time></trkpt><trkpt lat="33.3601625" lon="9.7211645"><ele>209.0</ele><time>2026-04-29T08:08:26.602Z</time></trkpt><trkpt lat="33.3603469" lon="9.7211324"><ele>209.0</ele><time>2026-04-29T08:08:27.552Z</time></trkpt><trkpt lat="33.3605255" lon="9.7210976"><ele>209.66666666666669</ele><time>2026-04-29T08:08:28.578Z</time></trkpt><trkpt lat="33.3607078" lon="9.7210594"><ele>210.33333333333331</ele><time>2026-04-29T08:08:29.588Z</time></trkpt><trkpt lat="33.3608905" lon="9.7210273"><ele>211.0</ele><time>2026-04-29T08:08:30.586Z</time></trkpt><trkpt lat="33.3610724" lon="9.7209927"><ele>211.0</ele><time>2026-04-29T08:08:31.583Z</time></trkpt><trkpt lat="33.3612496" lon="9.7209575"><ele>211.0</ele><time>2026-04-29T08:08:32.581Z</time></trkpt><trkpt lat="33.3614286" lon="9.7209247"><ele>211.0</ele><time>2026-04-29T08:08:33.597Z</time></trkpt><trkpt lat="33.36161" lon="9.7208929"><ele>211.66666666666666</ele><time>2026-04-29T08:08:34.565Z</time></trkpt><trkpt lat="33.3617862" lon="9.7208541"><ele>212.33333333333331</ele><time>2026-04-29T08:08:35.588Z</time></trkpt><trkpt lat="33.3619638" lon="9.7208149"><ele>213.0</ele><time>2026-04-29T08:08:36.595Z</time></trkpt><trkpt lat="33.3621449" lon="9.7207792"><ele>212.0</ele><time>2026-04-29T08:08:37.584Z</time></trkpt><trkpt lat="33.3623234" lon="9.7207478"><ele>211.0</ele><time>2026-04-29T08:08:38.589Z</time></trkpt><trkpt lat="33.3625055" lon="9.7207137"><ele>210.0</ele><time>2026-04-29T08:08:39.579Z</time></trkpt><trkpt lat="33.362683" lon="9.7206817"><ele>210.0</ele><time>2026-04-29T08:08:40.587Z</time></trkpt><trkpt lat="33.362865" lon="9.7206495"><ele>210.0</ele><time>2026-04-29T08:08:41.584Z</time></trkpt><trkpt lat="33.3630489" lon="9.7206168"><ele>210.0</ele><time>2026-04-29T08:08:42.59Z</time></trkpt><trkpt lat="33.3632316" lon="9.7205862"><ele>210.33333333333331</ele><time>2026-04-29T08:08:43.569Z</time></trkpt><trkpt lat="33.3634126" lon="9.7205519"><ele>210.66666666666666</ele><time>2026-04-29T08:08:44.571Z</time></trkpt><trkpt lat="33.3635913" lon="9.7205167"><ele>211.0</ele><time>2026-04-29T08:08:45.568Z</time></trkpt><trkpt lat="33.3637709" lon="9.720478"><ele>211.33333333333331</ele><time>2026-04-29T08:08:46.581Z</time></trkpt><trkpt lat="33.3639517" lon="9.7204416"><ele>211.66666666666669</ele><time>2026-04-29T08:08:47.577Z</time></trkpt><trkpt lat="33.3641303" lon="9.7204055"><ele>212.0</ele><time>2026-04-29T08:08:48.577Z</time></trkpt><trkpt lat="33.3643143" lon="9.7203699"><ele>212.0</ele><time>2026-04-29T08:08:49.571Z</time></trkpt><trkpt lat="33.3644941" lon="9.7203338"><ele>212.0</ele><time>2026-04-29T08:08:50.582Z</time></trkpt><trkpt lat="33.3646757" lon="9.7202981"><ele>212.0</ele><time>2026-04-29T08:08:51.575Z</time></trkpt><trkpt lat="33.3648575" lon="9.7202572"><ele>211.33333333333334</ele><time>2026-04-29T08:08:52.586Z</time></trkpt><trkpt lat="33.3650387" lon="9.72022"><ele>210.66666666666669</ele><time>2026-04-29T08:08:53.566Z</time></trkpt><trkpt lat="33.365219" lon="9.7201826"><ele>210.0</ele><time>2026-04-29T08:08:54.584Z</time></trkpt><trkpt lat="33.3654053" lon="9.7201494"><ele>210.33333333333331</ele><time>2026-04-29T08:08:55.602Z</time></trkpt><trkpt lat="33.3655846" lon="9.7201144"><ele>210.66666666666666</ele><time>2026-04-29T08:08:56.587Z</time></trkpt><trkpt lat="33.3657671" lon="9.7200821"><ele>211.0</ele><time>2026-04-29T08:08:57.554Z</time></trkpt><trkpt lat="33.3659497" lon="9.7200502"><ele>211.0</ele><time>2026-04-29T08:08:58.589Z</time></trkpt><trkpt lat="33.3661339" lon="9.7200132"><ele>211.0</ele><time>2026-04-29T08:08:59.595Z</time></trkpt><trkpt lat="33.3663125" lon="9.7199775"><ele>211.0</ele><time>2026-04-29T08:09:00.581Z</time></trkpt><trkpt lat="33.3664921" lon="9.7199428"><ele>211.0</ele><time>2026-04-29T08:09:01.578Z</time></trkpt><trkpt lat="33.3666742" lon="9.7199033"><ele>211.0</ele><time>2026-04-29T08:09:02.582Z</time></trkpt><trkpt lat="33.3668551" lon="9.7198695"><ele>211.0</ele><time>2026-04-29T08:09:03.564Z</time></trkpt><trkpt lat="33.3670345" lon="9.7198352"><ele>211.0</ele><time>2026-04-29T08:09:04.597Z</time></trkpt><trkpt lat="33.3672152" lon="9.7198011"><ele>211.0</ele><time>2026-04-29T08:09:05.584Z</time></trkpt><trkpt lat="33.3673963" lon="9.7197668"><ele>211.0</ele><time>2026-04-29T08:09:06.589Z</time></trkpt><trkpt lat="33.3675734" lon="9.7197344"><ele>211.0</ele><time>2026-04-29T08:09:07.594Z</time></trkpt><trkpt lat="33.3677524" lon="9.7196969"><ele>211.0</ele><time>2026-04-29T08:09:08.559Z</time></trkpt><trkpt lat="33.3679331" lon="9.7196594"><ele>211.0</ele><time>2026-04-29T08:09:09.558Z</time></trkpt><trkpt lat="33.3681137" lon="9.7196197"><ele>211.33333333333331</ele><time>2026-04-29T08:09:10.582Z</time></trkpt><trkpt lat="33.3682962" lon="9.719581"><ele>211.66666666666669</ele><time>2026-04-29T08:09:11.591Z</time></trkpt><trkpt lat="33.3684789" lon="9.7195424"><ele>212.0</ele><time>2026-04-29T08:09:12.586Z</time></trkpt><trkpt lat="33.3686602" lon="9.7195056"><ele>212.0</ele><time>2026-04-29T08:09:13.571Z</time></trkpt><trkpt lat="33.3688422" lon="9.7194667"><ele>212.0</ele><time>2026-04-29T08:09:14.594Z</time></trkpt><trkpt lat="33.3690231" lon="9.719425"><ele>212.0</ele><time>2026-04-29T08:09:15.59Z</time></trkpt><trkpt lat="33.3692033" lon="9.7193835"><ele>211.0</ele><time>2026-04-29T08:09:16.584Z</time></trkpt><trkpt lat="33.3693874" lon="9.7193457"><ele>210.0</ele><time>2026-04-29T08:09:17.574Z</time></trkpt><trkpt lat="33.3695669" lon="9.7193069"><ele>209.0</ele><time>2026-04-29T08:09:18.581Z</time></trkpt><trkpt lat="33.3697497" lon="9.7192643"><ele>209.0</ele><time>2026-04-29T08:09:19.587Z</time></trkpt><trkpt lat="33.3699318" lon="9.7192186"><ele>209.0</ele><time>2026-04-29T08:09:20.581Z</time></trkpt><trkpt lat="33.3701117" lon="9.7191789"><ele>209.0</ele><time>2026-04-29T08:09:21.582Z</time></trkpt><trkpt lat="33.3702875" lon="9.7191421"><ele>209.0</ele><time>2026-04-29T08:09:22.579Z</time></trkpt><trkpt lat="33.3704705" lon="9.7190985"><ele>209.0</ele><time>2026-04-29T08:09:23.562Z</time></trkpt><trkpt lat="33.3706524" lon="9.7190613"><ele>209.0</ele><time>2026-04-29T08:09:24.593Z</time></trkpt><trkpt lat="33.3708333" lon="9.7190193"><ele>209.0</ele><time>2026-04-29T08:09:25.588Z</time></trkpt><trkpt lat="33.3710175" lon="9.7189767"><ele>209.0</ele><time>2026-04-29T08:09:26.563Z</time></trkpt><trkpt lat="33.3711957" lon="9.7189359"><ele>209.0</ele><time>2026-04-29T08:09:27.594Z</time></trkpt><trkpt lat="33.371375" lon="9.7188998"><ele>208.66666666666669</ele><time>2026-04-29T08:09:28.579Z</time></trkpt><trkpt lat="33.3715557" lon="9.7188623"><ele>208.33333333333331</ele><time>2026-04-29T08:09:29.583Z</time></trkpt><trkpt lat="33.3717383" lon="9.7188251"><ele>208.0</ele><time>2026-04-29T08:09:30.595Z</time></trkpt><trkpt lat="33.3719206" lon="9.7187878"><ele>208.0</ele><time>2026-04-29T08:09:31.563Z</time></trkpt><trkpt lat="33.3720969" lon="9.7187525"><ele>208.0</ele><time>2026-04-29T08:09:32.563Z</time></trkpt><trkpt lat="33.3722763" lon="9.7187121"><ele>208.0</ele><time>2026-04-29T08:09:33.603Z</time></trkpt><trkpt lat="33.3724546" lon="9.7186699"><ele>208.0</ele><time>2026-04-29T08:09:34.584Z</time></trkpt><trkpt lat="33.3726365" lon="9.7186293"><ele>208.0</ele><time>2026-04-29T08:09:35.586Z</time></trkpt><trkpt lat="33.3728163" lon="9.7185933"><ele>208.0</ele><time>2026-04-29T08:09:36.585Z</time></trkpt><trkpt lat="33.3729982" lon="9.7185555"><ele>207.33333333333331</ele><time>2026-04-29T08:09:37.589Z</time></trkpt><trkpt lat="33.373176" lon="9.7185221"><ele>206.66666666666669</ele><time>2026-04-29T08:09:38.584Z</time></trkpt><trkpt lat="33.3733589" lon="9.7184856"><ele>206.0</ele><time>2026-04-29T08:09:39.559Z</time></trkpt><trkpt lat="33.3735386" lon="9.7184508"><ele>206.0</ele><time>2026-04-29T08:09:40.595Z</time></trkpt><trkpt lat="33.3737235" lon="9.7184119"><ele>206.0</ele><time>2026-04-29T08:09:41.592Z</time></trkpt><trkpt lat="33.3739026" lon="9.7183775"><ele>206.0</ele><time>2026-04-29T08:09:42.587Z</time></trkpt><trkpt lat="33.3740849" lon="9.7183405"><ele>206.0</ele><time>2026-04-29T08:09:43.588Z</time></trkpt><trkpt lat="33.3742637" lon="9.7183019"><ele>206.0</ele><time>2026-04-29T08:09:44.597Z</time></trkpt><trkpt lat="33.3744426" lon="9.7182624"><ele>206.0</ele><time>2026-04-29T08:09:45.581Z</time></trkpt><trkpt lat="33.3746202" lon="9.7182199"><ele>206.0</ele><time>2026-04-29T08:09:46.568Z</time></trkpt><trkpt lat="33.3747981" lon="9.7181806"><ele>206.0</ele><time>2026-04-29T08:09:47.59Z</time></trkpt><trkpt lat="33.3749804" lon="9.7181355"><ele>206.0</ele><time>2026-04-29T08:09:48.577Z</time></trkpt><trkpt lat="33.3751608" lon="9.7180961"><ele>206.0</ele><time>2026-04-29T08:09:49.584Z</time></trkpt><trkpt lat="33.3753414" lon="9.7180573"><ele>206.0</ele><time>2026-04-29T08:09:50.567Z</time></trkpt><trkpt lat="33.3755241" lon="9.7180185"><ele>206.0</ele><time>2026-04-29T08:09:51.595Z</time></trkpt><trkpt lat="33.3757058" lon="9.7179744"><ele>206.0</ele><time>2026-04-29T08:09:52.583Z</time></trkpt><trkpt lat="33.3758886" lon="9.7179338"><ele>206.0</ele><time>2026-04-29T08:09:53.551Z</time></trkpt><trkpt lat="33.3760721" lon="9.7178925"><ele>206.0</ele><time>2026-04-29T08:09:54.593Z</time></trkpt><trkpt lat="33.3762507" lon="9.7178484"><ele>205.66666666666669</ele><time>2026-04-29T08:09:55.598Z</time></trkpt><trkpt lat="33.3764288" lon="9.7177966"><ele>205.33333333333331</ele><time>2026-04-29T08:09:56.593Z</time></trkpt><trkpt lat="33.3766066" lon="9.7177502"><ele>205.0</ele><time>2026-04-29T08:09:57.592Z</time></trkpt><trkpt lat="33.3767854" lon="9.7177122"><ele>205.0</ele><time>2026-04-29T08:09:58.568Z</time></trkpt><trkpt lat="33.3769691" lon="9.7176745"><ele>205.0</ele><time>2026-04-29T08:09:59.601Z</time></trkpt><trkpt lat="33.3771566" lon="9.7176372"><ele>205.0</ele><time>2026-04-29T08:10:00.56Z</time></trkpt><trkpt lat="33.3773349" lon="9.7176031"><ele>204.0</ele><time>2026-04-29T08:10:01.571Z</time></trkpt><trkpt lat="33.3775122" lon="9.7175672"><ele>203.0</ele><time>2026-04-29T08:10:02.573Z</time></trkpt><trkpt lat="33.377686" lon="9.7175325"><ele>202.0</ele><time>2026-04-29T08:10:03.588Z</time></trkpt><trkpt lat="33.3778585" lon="9.7174941"><ele>201.33333333333331</ele><time>2026-04-29T08:10:04.575Z</time></trkpt><trkpt lat="33.3780351" lon="9.7174544"><ele>200.66666666666669</ele><time>2026-04-29T08:10:05.58Z</time></trkpt><trkpt lat="33.378212" lon="9.7174149"><ele>200.0</ele><time>2026-04-29T08:10:06.544Z</time></trkpt><trkpt lat="33.3783908" lon="9.7173762"><ele>200.0</ele><time>2026-04-29T08:10:07.575Z</time></trkpt><trkpt lat="33.378579" lon="9.7173339"><ele>200.0</ele><time>2026-04-29T08:10:08.552Z</time></trkpt><trkpt lat="33.3787659" lon="9.7172951"><ele>200.0</ele><time>2026-04-29T08:10:09.595Z</time></trkpt><trkpt lat="33.3789472" lon="9.7172541"><ele>199.66666666666669</ele><time>2026-04-29T08:10:10.589Z</time></trkpt><trkpt lat="33.3791319" lon="9.7172179"><ele>199.33333333333331</ele><time>2026-04-29T08:10:11.541Z</time></trkpt><trkpt lat="33.3793139" lon="9.7171793"><ele>199.0</ele><time>2026-04-29T08:10:12.58Z</time></trkpt><trkpt lat="33.3794934" lon="9.7171374"><ele>199.0</ele><time>2026-04-29T08:10:13.583Z</time></trkpt><trkpt lat="33.3796705" lon="9.7171005"><ele>199.0</ele><time>2026-04-29T08:10:14.535Z</time></trkpt><trkpt lat="33.3798459" lon="9.7170657"><ele>199.0</ele><time>2026-04-29T08:10:15.556Z</time></trkpt><trkpt lat="33.3800242" lon="9.7170258"><ele>200.0</ele><time>2026-04-29T08:10:16.566Z</time></trkpt><trkpt lat="33.380203" lon="9.7169863"><ele>201.0</ele><time>2026-04-29T08:10:17.577Z</time></trkpt><trkpt lat="33.3803854" lon="9.7169461"><ele>202.0</ele><time>2026-04-29T08:10:18.58Z</time></trkpt><trkpt lat="33.3805688" lon="9.7169137"><ele>201.66666666666666</ele><time>2026-04-29T08:10:19.569Z</time></trkpt><trkpt lat="33.3807541" lon="9.7168766"><ele>201.33333333333331</ele><time>2026-04-29T08:10:20.567Z</time></trkpt><trkpt lat="33.3809328" lon="9.7168374"><ele>201.0</ele><time>2026-04-29T08:10:21.577Z</time></trkpt><trkpt lat="33.3811116" lon="9.7167975"><ele>201.0</ele><time>2026-04-29T08:10:22.583Z</time></trkpt><trkpt lat="33.3812913" lon="9.7167542"><ele>201.0</ele><time>2026-04-29T08:10:23.584Z</time></trkpt><trkpt lat="33.3814708" lon="9.7167145"><ele>201.0</ele><time>2026-04-29T08:10:24.595Z</time></trkpt><trkpt lat="33.3816491" lon="9.7166777"><ele>202.0</ele><time>2026-04-29T08:10:25.58Z</time></trkpt><trkpt lat="33.3818272" lon="9.7166399"><ele>203.0</ele><time>2026-04-29T08:10:26.585Z</time></trkpt><trkpt lat="33.3820088" lon="9.7165996"><ele>204.0</ele><time>2026-04-29T08:10:27.583Z</time></trkpt><trkpt lat="33.3821856" lon="9.7165555"><ele>205.0</ele><time>2026-04-29T08:10:28.597Z</time></trkpt><trkpt lat="33.3823582" lon="9.7165125"><ele>206.0</ele><time>2026-04-29T08:10:29.547Z</time></trkpt><trkpt lat="33.3825366" lon="9.7164703"><ele>207.0</ele><time>2026-04-29T08:10:30.54Z</time></trkpt><trkpt lat="33.382719" lon="9.7164316"><ele>207.0</ele><time>2026-04-29T08:10:31.584Z</time></trkpt><trkpt lat="33.3828987" lon="9.7163914"><ele>207.0</ele><time>2026-04-29T08:10:32.575Z</time></trkpt><trkpt lat="33.3830815" lon="9.7163489"><ele>207.0</ele><time>2026-04-29T08:10:33.554Z</time></trkpt><trkpt lat="33.3832647" lon="9.7163104"><ele>207.66666666666669</ele><time>2026-04-29T08:10:34.584Z</time></trkpt><trkpt lat="33.3834483" lon="9.7162723"><ele>208.33333333333334</ele><time>2026-04-29T08:10:35.58Z</time></trkpt><trkpt lat="33.3836331" lon="9.7162297"><ele>209.0</ele><time>2026-04-29T08:10:36.556Z</time></trkpt><trkpt lat="33.3838141" lon="9.7161974"><ele>209.33333333333334</ele><time>2026-04-29T08:10:37.571Z</time></trkpt><trkpt lat="33.3839951" lon="9.7161659"><ele>209.66666666666669</ele><time>2026-04-29T08:10:38.567Z</time></trkpt><trkpt lat="33.3841705" lon="9.716117"><ele>210.0</ele><time>2026-04-29T08:10:39.592Z</time></trkpt><trkpt lat="33.3843512" lon="9.7160675"><ele>210.0</ele><time>2026-04-29T08:10:40.591Z</time></trkpt><trkpt lat="33.3845305" lon="9.716038"><ele>210.0</ele><time>2026-04-29T08:10:41.58Z</time></trkpt><trkpt lat="33.3847105" lon="9.7160118"><ele>210.0</ele><time>2026-04-29T08:10:42.593Z</time></trkpt><trkpt lat="33.3848887" lon="9.7159658"><ele>209.66666666666669</ele><time>2026-04-29T08:10:43.581Z</time></trkpt><trkpt lat="33.3850636" lon="9.7159072"><ele>209.33333333333334</ele><time>2026-04-29T08:10:44.567Z</time></trkpt><trkpt lat="33.3852464" lon="9.7158759"><ele>209.0</ele><time>2026-04-29T08:10:45.579Z</time></trkpt><trkpt lat="33.3854357" lon="9.7158495"><ele>208.66666666666669</ele><time>2026-04-29T08:10:46.599Z</time></trkpt><trkpt lat="33.3856138" lon="9.7158156"><ele>208.33333333333331</ele><time>2026-04-29T08:10:47.571Z</time></trkpt><trkpt lat="33.3857926" lon="9.7157633"><ele>208.0</ele><time>2026-04-29T08:10:48.556Z</time></trkpt><trkpt lat="33.3859656" lon="9.715725"><ele>208.0</ele><time>2026-04-29T08:10:49.586Z</time></trkpt><trkpt lat="33.3861524" lon="9.715692"><ele>208.0</ele><time>2026-04-29T08:10:50.577Z</time></trkpt><trkpt lat="33.3863297" lon="9.7156581"><ele>208.0</ele><time>2026-04-29T08:10:51.577Z</time></trkpt><trkpt lat="33.386508" lon="9.7156133"><ele>208.0</ele><time>2026-04-29T08:10:52.565Z</time></trkpt><trkpt lat="33.3866882" lon="9.7155781"><ele>208.0</ele><time>2026-04-29T08:10:53.552Z</time></trkpt><trkpt lat="33.3868676" lon="9.7155501"><ele>208.0</ele><time>2026-04-29T08:10:54.597Z</time></trkpt><trkpt lat="33.3870427" lon="9.7155137"><ele>207.33333333333331</ele><time>2026-04-29T08:10:55.577Z</time></trkpt><trkpt lat="33.3872243" lon="9.7154656"><ele>206.66666666666669</ele><time>2026-04-29T08:10:56.59Z</time></trkpt><trkpt lat="33.387407" lon="9.7153961"><ele>206.0</ele><time>2026-04-29T08:10:57.574Z</time></trkpt><trkpt lat="33.3875887" lon="9.715353"><ele>206.0</ele><time>2026-04-29T08:10:58.577Z</time></trkpt><trkpt lat="33.3877665" lon="9.7153351"><ele>206.0</ele><time>2026-04-29T08:10:59.583Z</time></trkpt><trkpt lat="33.3879486" lon="9.7153014"><ele>206.0</ele><time>2026-04-29T08:11:00.543Z</time></trkpt><trkpt lat="33.3881126" lon="9.7152496"><ele>205.33333333333334</ele><time>2026-04-29T08:11:01.575Z</time></trkpt><trkpt lat="33.3882894" lon="9.7152022"><ele>204.66666666666669</ele><time>2026-04-29T08:11:02.568Z</time></trkpt><trkpt lat="33.3884782" lon="9.7151698"><ele>204.0</ele><time>2026-04-29T08:11:03.598Z</time></trkpt><trkpt lat="33.3886572" lon="9.7151493"><ele>204.0</ele><time>2026-04-29T08:11:04.566Z</time></trkpt><trkpt lat="33.3888362" lon="9.7151128"><ele>204.0</ele><time>2026-04-29T08:11:05.588Z</time></trkpt><trkpt lat="33.3890134" lon="9.7150626"><ele>204.0</ele><time>2026-04-29T08:11:06.583Z</time></trkpt><trkpt lat="33.3891952" lon="9.7150208"><ele>203.66666666666669</ele><time>2026-04-29T08:11:07.607Z</time></trkpt><trkpt lat="33.3893759" lon="9.714989"><ele>203.33333333333334</ele><time>2026-04-29T08:11:08.586Z</time></trkpt><trkpt lat="33.3895504" lon="9.714946"><ele>203.0</ele><time>2026-04-29T08:11:09.595Z</time></trkpt><trkpt lat="33.3897254" lon="9.7149034"><ele>202.66666666666669</ele><time>2026-04-29T08:11:10.551Z</time></trkpt><trkpt lat="33.3899075" lon="9.7148621"><ele>202.33333333333331</ele><time>2026-04-29T08:11:11.578Z</time></trkpt><trkpt lat="33.39009" lon="9.7148258"><ele>202.0</ele><time>2026-04-29T08:11:12.564Z</time></trkpt><trkpt lat="33.3902678" lon="9.7147903"><ele>202.0</ele><time>2026-04-29T08:11:13.577Z</time></trkpt><trkpt lat="33.390447" lon="9.714754"><ele>202.0</ele><time>2026-04-29T08:11:14.571Z</time></trkpt><trkpt lat="33.3906269" lon="9.7147056"><ele>202.0</ele><time>2026-04-29T08:11:15.586Z</time></trkpt><trkpt lat="33.390802" lon="9.714652"><ele>202.0</ele><time>2026-04-29T08:11:16.585Z</time></trkpt><trkpt lat="33.3909915" lon="9.7146191"><ele>202.0</ele><time>2026-04-29T08:11:17.575Z</time></trkpt><trkpt lat="33.3911835" lon="9.7146001"><ele>202.0</ele><time>2026-04-29T08:11:18.564Z</time></trkpt><trkpt lat="33.3913725" lon="9.7145574"><ele>202.33333333333331</ele><time>2026-04-29T08:11:19.587Z</time></trkpt><trkpt lat="33.3915693" lon="9.7144968"><ele>202.66666666666669</ele><time>2026-04-29T08:11:20.566Z</time></trkpt><trkpt lat="33.391772" lon="9.7144529"><ele>203.0</ele><time>2026-04-29T08:11:21.555Z</time></trkpt><trkpt lat="33.3919617" lon="9.7144263"><ele>203.33333333333334</ele><time>2026-04-29T08:11:22.581Z</time></trkpt><trkpt lat="33.3921547" lon="9.7143726"><ele>203.66666666666669</ele><time>2026-04-29T08:11:23.576Z</time></trkpt><trkpt lat="33.392345" lon="9.7143219"><ele>204.0</ele><time>2026-04-29T08:11:24.579Z</time></trkpt><trkpt lat="33.3925475" lon="9.7142834"><ele>205.33333333333331</ele><time>2026-04-29T08:11:25.579Z</time></trkpt><trkpt lat="33.392732" lon="9.7142498"><ele>206.66666666666666</ele><time>2026-04-29T08:11:26.584Z</time></trkpt><trkpt lat="33.3929189" lon="9.7141945"><ele>208.0</ele><time>2026-04-29T08:11:27.58Z</time></trkpt><trkpt lat="33.3931058" lon="9.7141333"><ele>208.33333333333331</ele><time>2026-04-29T08:11:28.598Z</time></trkpt><trkpt lat="33.3932939" lon="9.714102"><ele>208.66666666666669</ele><time>2026-04-29T08:11:29.59Z</time></trkpt><trkpt lat="33.3934826" lon="9.714088"><ele>209.0</ele><time>2026-04-29T08:11:30.562Z</time></trkpt><trkpt lat="33.3936667" lon="9.7140459"><ele>209.66666666666669</ele><time>2026-04-29T08:11:31.574Z</time></trkpt><trkpt lat="33.3938458" lon="9.7140071"><ele>210.33333333333331</ele><time>2026-04-29T08:11:32.568Z</time></trkpt><trkpt lat="33.3940326" lon="9.7139691"><ele>211.0</ele><time>2026-04-29T08:11:33.568Z</time></trkpt><trkpt lat="33.3942167" lon="9.7139386"><ele>211.0</ele><time>2026-04-29T08:11:34.57Z</time></trkpt><trkpt lat="33.3943937" lon="9.7138872"><ele>211.0</ele><time>2026-04-29T08:11:35.578Z</time></trkpt><trkpt lat="33.3945815" lon="9.7138275"><ele>211.0</ele><time>2026-04-29T08:11:36.547Z</time></trkpt><trkpt lat="33.3947707" lon="9.7137852"><ele>211.33333333333331</ele><time>2026-04-29T08:11:37.581Z</time></trkpt><trkpt lat="33.3949587" lon="9.7137548"><ele>211.66666666666669</ele><time>2026-04-29T08:11:38.561Z</time></trkpt><trkpt lat="33.3951499" lon="9.713709"><ele>212.0</ele><time>2026-04-29T08:11:39.553Z</time></trkpt><trkpt lat="33.395337" lon="9.7136381"><ele>212.0</ele><time>2026-04-29T08:11:40.595Z</time></trkpt><trkpt lat="33.3955294" lon="9.7135832"><ele>212.0</ele><time>2026-04-29T08:11:41.572Z</time></trkpt><trkpt lat="33.3957213" lon="9.713557"><ele>212.0</ele><time>2026-04-29T08:11:42.583Z</time></trkpt><trkpt lat="33.3959145" lon="9.7135255"><ele>212.33333333333334</ele><time>2026-04-29T08:11:43.564Z</time></trkpt><trkpt lat="33.3960974" lon="9.7134726"><ele>212.66666666666669</ele><time>2026-04-29T08:11:44.585Z</time></trkpt><trkpt lat="33.3962814" lon="9.7134206"><ele>213.0</ele><time>2026-04-29T08:11:45.592Z</time></trkpt><trkpt lat="33.3964683" lon="9.7133874"><ele>213.0</ele><time>2026-04-29T08:11:46.584Z</time></trkpt><trkpt lat="33.3966581" lon="9.7133661"><ele>213.0</ele><time>2026-04-29T08:11:47.567Z</time></trkpt><trkpt lat="33.3968484" lon="9.7133232"><ele>213.0</ele><time>2026-04-29T08:11:48.579Z</time></trkpt><trkpt lat="33.3970441" lon="9.7132822"><ele>213.33333333333331</ele><time>2026-04-29T08:11:49.576Z</time></trkpt><trkpt lat="33.3972291" lon="9.713253"><ele>213.66666666666666</ele><time>2026-04-29T08:11:50.577Z</time></trkpt><trkpt lat="33.3974101" lon="9.7132203"><ele>214.0</ele><time>2026-04-29T08:11:51.572Z</time></trkpt><trkpt lat="33.3975801" lon="9.7131676"><ele>214.0</ele><time>2026-04-29T08:11:52.572Z</time></trkpt><trkpt lat="33.3977593" lon="9.7131084"><ele>214.0</ele><time>2026-04-29T08:11:53.556Z</time></trkpt><trkpt lat="33.3979453" lon="9.7130753"><ele>214.0</ele><time>2026-04-29T08:11:54.568Z</time></trkpt><trkpt lat="33.3981314" lon="9.7130543"><ele>214.0</ele><time>2026-04-29T08:11:55.571Z</time></trkpt><trkpt lat="33.3983155" lon="9.7130143"><ele>214.0</ele><time>2026-04-29T08:11:56.569Z</time></trkpt><trkpt lat="33.3985005" lon="9.7129502"><ele>214.0</ele><time>2026-04-29T08:11:57.591Z</time></trkpt><trkpt lat="33.3986895" lon="9.7129127"><ele>213.66666666666666</ele><time>2026-04-29T08:11:58.589Z</time></trkpt><trkpt lat="33.3988759" lon="9.7128944"><ele>213.33333333333331</ele><time>2026-04-29T08:11:59.548Z</time></trkpt><trkpt lat="33.3990609" lon="9.712856"><ele>213.0</ele><time>2026-04-29T08:12:00.549Z</time></trkpt><trkpt lat="33.3992482" lon="9.712793"><ele>213.0</ele><time>2026-04-29T08:12:01.606Z</time></trkpt><trkpt lat="33.3994406" lon="9.7127576"><ele>213.0</ele><time>2026-04-29T08:12:02.596Z</time></trkpt><trkpt lat="33.3996403" lon="9.7127316"><ele>213.0</ele><time>2026-04-29T08:12:03.548Z</time></trkpt><trkpt lat="33.3998373" lon="9.7127007"><ele>212.66666666666669</ele><time>2026-04-29T08:12:04.573Z</time></trkpt><trkpt lat="33.4000253" lon="9.7126467"><ele>212.33333333333334</ele><time>2026-04-29T08:12:05.587Z</time></trkpt><trkpt lat="33.4002228" lon="9.7125908"><ele>212.0</ele><time>2026-04-29T08:12:06.582Z</time></trkpt><trkpt lat="33.4004139" lon="9.7125613"><ele>211.33333333333334</ele><time>2026-04-29T08:12:07.578Z</time></trkpt><trkpt lat="33.4006168" lon="9.712529"><ele>210.66666666666669</ele><time>2026-04-29T08:12:08.578Z</time></trkpt><trkpt lat="33.4008088" lon="9.7124826"><ele>210.0</ele><time>2026-04-29T08:12:09.569Z</time></trkpt><trkpt lat="33.4009973" lon="9.7124226"><ele>210.0</ele><time>2026-04-29T08:12:10.585Z</time></trkpt><trkpt lat="33.4011921" lon="9.7123859"><ele>210.0</ele><time>2026-04-29T08:12:11.533Z</time></trkpt><trkpt lat="33.4013886" lon="9.7123518"><ele>210.0</ele><time>2026-04-29T08:12:12.589Z</time></trkpt><trkpt lat="33.4015794" lon="9.7122999"><ele>210.66666666666669</ele><time>2026-04-29T08:12:13.59Z</time></trkpt><trkpt lat="33.4017675" lon="9.7122436"><ele>211.33333333333334</ele><time>2026-04-29T08:12:14.587Z</time></trkpt><trkpt lat="33.4019566" lon="9.7122067"><ele>212.0</ele><time>2026-04-29T08:12:15.582Z</time></trkpt><trkpt lat="33.4021444" lon="9.7121804"><ele>212.33333333333334</ele><time>2026-04-29T08:12:16.585Z</time></trkpt><trkpt lat="33.40233" lon="9.7121454"><ele>212.66666666666669</ele><time>2026-04-29T08:12:17.526Z</time></trkpt><trkpt lat="33.402517" lon="9.7120904"><ele>213.0</ele><time>2026-04-29T08:12:18.577Z</time></trkpt><trkpt lat="33.4027081" lon="9.7120337"><ele>213.0</ele><time>2026-04-29T08:12:19.565Z</time></trkpt><trkpt lat="33.4029033" lon="9.7120141"><ele>213.0</ele><time>2026-04-29T08:12:20.571Z</time></trkpt><trkpt lat="33.4030925" lon="9.7119815"><ele>213.0</ele><time>2026-04-29T08:12:21.586Z</time></trkpt><trkpt lat="33.4032703" lon="9.7119265"><ele>213.0</ele><time>2026-04-29T08:12:22.57Z</time></trkpt><trkpt lat="33.4034503" lon="9.7118585"><ele>213.0</ele><time>2026-04-29T08:12:23.557Z</time></trkpt><trkpt lat="33.40364" lon="9.7118165"><ele>213.0</ele><time>2026-04-29T08:12:24.536Z</time></trkpt><trkpt lat="33.4038345" lon="9.711794"><ele>213.0</ele><time>2026-04-29T08:12:25.551Z</time></trkpt><trkpt lat="33.4040212" lon="9.7117526"><ele>213.0</ele><time>2026-04-29T08:12:26.578Z</time></trkpt><trkpt lat="33.4042095" lon="9.7116926"><ele>213.0</ele><time>2026-04-29T08:12:27.556Z</time></trkpt><trkpt lat="33.4044001" lon="9.7116561"><ele>213.0</ele><time>2026-04-29T08:12:28.558Z</time></trkpt><trkpt lat="33.404595" lon="9.7116355"><ele>213.0</ele><time>2026-04-29T08:12:29.576Z</time></trkpt><trkpt lat="33.404786" lon="9.7116033"><ele>213.0</ele><time>2026-04-29T08:12:30.579Z</time></trkpt><trkpt lat="33.4049721" lon="9.7115484"><ele>213.0</ele><time>2026-04-29T08:12:31.612Z</time></trkpt><trkpt lat="33.4051532" lon="9.7114982"><ele>213.0</ele><time>2026-04-29T08:12:32.569Z</time></trkpt><trkpt lat="33.4053382" lon="9.711478"><ele>213.0</ele><time>2026-04-29T08:12:33.558Z</time></trkpt><trkpt lat="33.4055308" lon="9.7114552"><ele>213.0</ele><time>2026-04-29T08:12:34.575Z</time></trkpt><trkpt lat="33.4057205" lon="9.7114044"><ele>213.0</ele><time>2026-04-29T08:12:35.559Z</time></trkpt><trkpt lat="33.4059055" lon="9.7113391"><ele>213.0</ele><time>2026-04-29T08:12:36.579Z</time></trkpt><trkpt lat="33.406104" lon="9.7113053"><ele>213.0</ele><time>2026-04-29T08:12:37.585Z</time></trkpt><trkpt lat="33.4062968" lon="9.711286"><ele>213.0</ele><time>2026-04-29T08:12:38.603Z</time></trkpt><trkpt lat="33.4064861" lon="9.7112369"><ele>213.0</ele><time>2026-04-29T08:12:39.583Z</time></trkpt><trkpt lat="33.4066655" lon="9.711178"><ele>213.0</ele><time>2026-04-29T08:12:40.587Z</time></trkpt><trkpt lat="33.4068473" lon="9.7111408"><ele>213.0</ele><time>2026-04-29T08:12:41.576Z</time></trkpt><trkpt lat="33.407043" lon="9.7111166"><ele>213.0</ele><time>2026-04-29T08:12:42.577Z</time></trkpt><trkpt lat="33.4072319" lon="9.71109"><ele>212.66666666666669</ele><time>2026-04-29T08:12:43.579Z</time></trkpt><trkpt lat="33.4073974" lon="9.7110417"><ele>212.33333333333334</ele><time>2026-04-29T08:12:44.588Z</time></trkpt><trkpt lat="33.407583" lon="9.7109802"><ele>212.0</ele><time>2026-04-29T08:12:45.587Z</time></trkpt><trkpt lat="33.4077715" lon="9.710949"><ele>212.0</ele><time>2026-04-29T08:12:46.592Z</time></trkpt><trkpt lat="33.4079565" lon="9.7109211"><ele>212.0</ele><time>2026-04-29T08:12:47.565Z</time></trkpt><trkpt lat="33.4081396" lon="9.7108733"><ele>212.0</ele><time>2026-04-29T08:12:48.573Z</time></trkpt><trkpt lat="33.408325" lon="9.7108116"><ele>211.33333333333334</ele><time>2026-04-29T08:12:49.598Z</time></trkpt><trkpt lat="33.4085127" lon="9.7107526"><ele>210.66666666666669</ele><time>2026-04-29T08:12:50.572Z</time></trkpt><trkpt lat="33.408713" lon="9.7107151"><ele>210.0</ele><time>2026-04-29T08:12:51.566Z</time></trkpt><trkpt lat="33.4089029" lon="9.7106782"><ele>210.0</ele><time>2026-04-29T08:12:52.578Z</time></trkpt><trkpt lat="33.4090901" lon="9.7106391"><ele>210.0</ele><time>2026-04-29T08:12:53.574Z</time></trkpt><trkpt lat="33.4092803" lon="9.7105851"><ele>210.0</ele><time>2026-04-29T08:12:54.586Z</time></trkpt><trkpt lat="33.4094709" lon="9.7105502"><ele>209.66666666666669</ele><time>2026-04-29T08:12:55.578Z</time></trkpt><trkpt lat="33.4096646" lon="9.7105227"><ele>209.33333333333334</ele><time>2026-04-29T08:12:56.562Z</time></trkpt><trkpt lat="33.4098487" lon="9.7104768"><ele>209.0</ele><time>2026-04-29T08:12:57.563Z</time></trkpt><trkpt lat="33.4100389" lon="9.7104248"><ele>209.0</ele><time>2026-04-29T08:12:58.557Z</time></trkpt><trkpt lat="33.4102316" lon="9.7103913"><ele>209.0</ele><time>2026-04-29T08:12:59.575Z</time></trkpt><trkpt lat="33.4104248" lon="9.710367"><ele>209.0</ele><time>2026-04-29T08:13:00.555Z</time></trkpt><trkpt lat="33.4106132" lon="9.7103259"><ele>209.0</ele><time>2026-04-29T08:13:01.552Z</time></trkpt><trkpt lat="33.4107983" lon="9.7102691"><ele>209.0</ele><time>2026-04-29T08:13:02.577Z</time></trkpt><trkpt lat="33.4110004" lon="9.7102233"><ele>209.0</ele><time>2026-04-29T08:13:03.579Z</time></trkpt><trkpt lat="33.4112005" lon="9.7101995"><ele>208.66666666666669</ele><time>2026-04-29T08:13:04.572Z</time></trkpt><trkpt lat="33.411409" lon="9.7101744"><ele>208.33333333333331</ele><time>2026-04-29T08:13:05.563Z</time></trkpt><trkpt lat="33.4116127" lon="9.7101299"><ele>208.0</ele><time>2026-04-29T08:13:06.568Z</time></trkpt><trkpt lat="33.4118075" lon="9.7100668"><ele>208.0</ele><time>2026-04-29T08:13:07.582Z</time></trkpt><trkpt lat="33.4120131" lon="9.7100142"><ele>208.0</ele><time>2026-04-29T08:13:08.587Z</time></trkpt><trkpt lat="33.4122131" lon="9.709992"><ele>208.0</ele><time>2026-04-29T08:13:09.583Z</time></trkpt><trkpt lat="33.4124076" lon="9.7099738"><ele>207.33333333333331</ele><time>2026-04-29T08:13:10.589Z</time></trkpt><trkpt lat="33.4126002" lon="9.7099312"><ele>206.66666666666669</ele><time>2026-04-29T08:13:11.552Z</time></trkpt><trkpt lat="33.4127907" lon="9.7098794"><ele>206.0</ele><time>2026-04-29T08:13:12.567Z</time></trkpt><trkpt lat="33.4129881" lon="9.7098413"><ele>206.0</ele><time>2026-04-29T08:13:13.586Z</time></trkpt><trkpt lat="33.4131723" lon="9.7098249"><ele>206.0</ele><time>2026-04-29T08:13:14.556Z</time></trkpt><trkpt lat="33.4133611" lon="9.7097882"><ele>206.0</ele><time>2026-04-29T08:13:15.583Z</time></trkpt><trkpt lat="33.4135436" lon="9.7097376"><ele>206.0</ele><time>2026-04-29T08:13:16.571Z</time></trkpt><trkpt lat="33.4137242" lon="9.7096936"><ele>206.0</ele><time>2026-04-29T08:13:17.58Z</time></trkpt><trkpt lat="33.4139017" lon="9.7096706"><ele>206.0</ele><time>2026-04-29T08:13:18.585Z</time></trkpt><trkpt lat="33.4140824" lon="9.7096516"><ele>205.66666666666669</ele><time>2026-04-29T08:13:19.575Z</time></trkpt><trkpt lat="33.4142612" lon="9.7096107"><ele>205.33333333333331</ele><time>2026-04-29T08:13:20.597Z</time></trkpt><trkpt lat="33.4144326" lon="9.7095537"><ele>205.0</ele><time>2026-04-29T08:13:21.566Z</time></trkpt><trkpt lat="33.4146131" lon="9.7095175"><ele>205.0</ele><time>2026-04-29T08:13:22.574Z</time></trkpt><trkpt lat="33.4147937" lon="9.7095003"><ele>205.0</ele><time>2026-04-29T08:13:23.577Z</time></trkpt><trkpt lat="33.4149748" lon="9.7094806"><ele>205.0</ele><time>2026-04-29T08:13:24.576Z</time></trkpt><trkpt lat="33.415163" lon="9.7094317"><ele>205.0</ele><time>2026-04-29T08:13:25.54Z</time></trkpt><trkpt lat="33.415337" lon="9.7093893"><ele>205.0</ele><time>2026-04-29T08:13:26.59Z</time></trkpt><trkpt lat="33.4155214" lon="9.7093646"><ele>205.0</ele><time>2026-04-29T08:13:27.583Z</time></trkpt><trkpt lat="33.4157025" lon="9.7093413"><ele>206.0</ele><time>2026-04-29T08:13:28.585Z</time></trkpt><trkpt lat="33.4158788" lon="9.7092989"><ele>207.0</ele><time>2026-04-29T08:13:29.566Z</time></trkpt><trkpt lat="33.4160584" lon="9.7092653"><ele>208.0</ele><time>2026-04-29T08:13:30.586Z</time></trkpt><trkpt lat="33.4162377" lon="9.7092329"><ele>207.33333333333331</ele><time>2026-04-29T08:13:31.583Z</time></trkpt><trkpt lat="33.4164169" lon="9.7092042"><ele>206.66666666666669</ele><time>2026-04-29T08:13:32.602Z</time></trkpt><trkpt lat="33.4165989" lon="9.7091725"><ele>206.0</ele><time>2026-04-29T08:13:33.582Z</time></trkpt><trkpt lat="33.4167781" lon="9.7091372"><ele>206.0</ele><time>2026-04-29T08:13:34.583Z</time></trkpt><trkpt lat="33.4169587" lon="9.7091023"><ele>206.0</ele><time>2026-04-29T08:13:35.573Z</time></trkpt><trkpt lat="33.4171371" lon="9.7090718"><ele>206.0</ele><time>2026-04-29T08:13:36.582Z</time></trkpt><trkpt lat="33.4173188" lon="9.709041"><ele>206.33333333333334</ele><time>2026-04-29T08:13:37.575Z</time></trkpt><trkpt lat="33.4174999" lon="9.7090076"><ele>206.66666666666669</ele><time>2026-04-29T08:13:38.535Z</time></trkpt><trkpt lat="33.417685" lon="9.7089712"><ele>207.0</ele><time>2026-04-29T08:13:39.549Z</time></trkpt><trkpt lat="33.4178665" lon="9.7089371"><ele>207.0</ele><time>2026-04-29T08:13:40.58Z</time></trkpt><trkpt lat="33.4180465" lon="9.7089019"><ele>207.0</ele><time>2026-04-29T08:13:41.591Z</time></trkpt><trkpt lat="33.4182231" lon="9.7088621"><ele>207.0</ele><time>2026-04-29T08:13:42.57Z</time></trkpt><trkpt lat="33.4184032" lon="9.7088234"><ele>207.0</ele><time>2026-04-29T08:13:43.595Z</time></trkpt><trkpt lat="33.4185863" lon="9.7087811"><ele>207.0</ele><time>2026-04-29T08:13:44.583Z</time></trkpt><trkpt lat="33.4187682" lon="9.7087417"><ele>207.0</ele><time>2026-04-29T08:13:45.591Z</time></trkpt><trkpt lat="33.418949" lon="9.7087025"><ele>207.0</ele><time>2026-04-29T08:13:46.583Z</time></trkpt><trkpt lat="33.4191302" lon="9.7086583"><ele>207.0</ele><time>2026-04-29T08:13:47.53Z</time></trkpt><trkpt lat="33.4193119" lon="9.708621"><ele>207.0</ele><time>2026-04-29T08:13:48.555Z</time></trkpt><trkpt lat="33.4194944" lon="9.7085885"><ele>206.66666666666669</ele><time>2026-04-29T08:13:49.567Z</time></trkpt><trkpt lat="33.4196749" lon="9.7085554"><ele>206.33333333333334</ele><time>2026-04-29T08:13:50.571Z</time></trkpt><trkpt lat="33.4198526" lon="9.7085233"><ele>206.0</ele><time>2026-04-29T08:13:51.579Z</time></trkpt><trkpt lat="33.4200246" lon="9.7084928"><ele>206.0</ele><time>2026-04-29T08:13:52.551Z</time></trkpt><trkpt lat="33.4202031" lon="9.7084546"><ele>206.0</ele><time>2026-04-29T08:13:53.572Z</time></trkpt><trkpt lat="33.4203873" lon="9.7084178"><ele>206.0</ele><time>2026-04-29T08:13:54.536Z</time></trkpt><trkpt lat="33.4205684" lon="9.7083824"><ele>206.0</ele><time>2026-04-29T08:13:55.56Z</time></trkpt><trkpt lat="33.4207512" lon="9.708346"><ele>206.0</ele><time>2026-04-29T08:13:56.536Z</time></trkpt><trkpt lat="33.4209385" lon="9.7083156"><ele>206.0</ele><time>2026-04-29T08:13:57.528Z</time></trkpt><trkpt lat="33.4211199" lon="9.7082821"><ele>206.0</ele><time>2026-04-29T08:13:58.546Z</time></trkpt><trkpt lat="33.4213023" lon="9.7082475"><ele>206.0</ele><time>2026-04-29T08:13:59.546Z</time></trkpt><trkpt lat="33.4214799" lon="9.7082112"><ele>206.0</ele><time>2026-04-29T08:14:00.535Z</time></trkpt><trkpt lat="33.4216621" lon="9.708171"><ele>206.0</ele><time>2026-04-29T08:14:01.545Z</time></trkpt><trkpt lat="33.4218363" lon="9.7081379"><ele>206.0</ele><time>2026-04-29T08:14:02.558Z</time></trkpt><trkpt lat="33.4220141" lon="9.7081007"><ele>206.0</ele><time>2026-04-29T08:14:03.58Z</time></trkpt><trkpt lat="33.4221943" lon="9.7080677"><ele>206.66666666666669</ele><time>2026-04-29T08:14:04.598Z</time></trkpt><trkpt lat="33.422374" lon="9.7080297"><ele>207.33333333333331</ele><time>2026-04-29T08:14:05.584Z</time></trkpt><trkpt lat="33.4225567" lon="9.7079892"><ele>208.0</ele><time>2026-04-29T08:14:06.574Z</time></trkpt><trkpt lat="33.4227411" lon="9.7079491"><ele>208.0</ele><time>2026-04-29T08:14:07.587Z</time></trkpt><trkpt lat="33.4229234" lon="9.7079126"><ele>208.0</ele><time>2026-04-29T08:14:08.585Z</time></trkpt><trkpt lat="33.4231041" lon="9.7078796"><ele>208.0</ele><time>2026-04-29T08:14:09.556Z</time></trkpt><trkpt lat="33.4232847" lon="9.7078448"><ele>208.0</ele><time>2026-04-29T08:14:10.58Z</time></trkpt><trkpt lat="33.4234625" lon="9.7078114"><ele>208.0</ele><time>2026-04-29T08:14:11.575Z</time></trkpt><trkpt lat="33.423641" lon="9.7077726"><ele>208.0</ele><time>2026-04-29T08:14:12.569Z</time></trkpt><trkpt lat="33.4238184" lon="9.7077431"><ele>207.66666666666666</ele><time>2026-04-29T08:14:13.576Z</time></trkpt><trkpt lat="33.4239995" lon="9.7077111"><ele>207.33333333333331</ele><time>2026-04-29T08:14:14.577Z</time></trkpt><trkpt lat="33.4241805" lon="9.7076751"><ele>207.0</ele><time>2026-04-29T08:14:15.552Z</time></trkpt><trkpt lat="33.4243637" lon="9.707637"><ele>207.0</ele><time>2026-04-29T08:14:16.578Z</time></trkpt><trkpt lat="33.4245439" lon="9.7076042"><ele>207.0</ele><time>2026-04-29T08:14:17.601Z</time></trkpt><trkpt lat="33.4247216" lon="9.7075667"><ele>207.0</ele><time>2026-04-29T08:14:18.588Z</time></trkpt><trkpt lat="33.4249027" lon="9.7075298"><ele>207.0</ele><time>2026-04-29T08:14:19.564Z</time></trkpt><trkpt lat="33.4250879" lon="9.7074952"><ele>207.0</ele><time>2026-04-29T08:14:20.558Z</time></trkpt><trkpt lat="33.4252919" lon="9.7074549"><ele>207.0</ele><time>2026-04-29T08:14:21.577Z</time></trkpt><trkpt lat="33.4255282" lon="9.707409"><ele>206.5</ele><time>2026-04-29T08:14:22.57Z</time></trkpt><trkpt lat="33.4257761" lon="9.7073409"><ele>206.0</ele><time>2026-04-29T08:14:23.579Z</time></trkpt><trkpt lat="33.4260387" lon="9.707275"><ele>206.0</ele><time>2026-04-29T08:14:24.529Z</time></trkpt><trkpt lat="33.4263088" lon="9.70721"><ele>206.0</ele><time>2026-04-29T08:14:25.547Z</time></trkpt><trkpt lat="33.4265935" lon="9.7071559"><ele>205.5</ele><time>2026-04-29T08:14:26.579Z</time></trkpt><trkpt lat="33.4268741" lon="9.7071065"><ele>205.0</ele><time>2026-04-29T08:14:27.545Z</time></trkpt><trkpt lat="33.427147" lon="9.7070686"><ele>205.0</ele><time>2026-04-29T08:14:28.545Z</time></trkpt><trkpt lat="33.4274022" lon="9.7070205"><ele>205.0</ele><time>2026-04-29T08:14:29.554Z</time></trkpt><trkpt lat="33.4276484" lon="9.7069746"><ele>205.0</ele><time>2026-04-29T08:14:30.592Z</time></trkpt><trkpt lat="33.4278878" lon="9.7069317"><ele>205.0</ele><time>2026-04-29T08:14:31.559Z</time></trkpt><trkpt lat="33.4281033" lon="9.7068929"><ele>204.66666666666666</ele><time>2026-04-29T08:14:32.577Z</time></trkpt><trkpt lat="33.4283081" lon="9.7068549"><ele>204.33333333333331</ele><time>2026-04-29T08:14:33.586Z</time></trkpt><trkpt lat="33.428495" lon="9.7068245"><ele>204.0</ele><time>2026-04-29T08:14:34.543Z</time></trkpt><trkpt lat="33.4286747" lon="9.7067923"><ele>203.66666666666669</ele><time>2026-04-29T08:14:35.538Z</time></trkpt><trkpt lat="33.4288534" lon="9.7067595"><ele>203.33333333333334</ele><time>2026-04-29T08:14:36.575Z</time></trkpt><trkpt lat="33.4290293" lon="9.7067268"><ele>203.0</ele><time>2026-04-29T08:14:37.577Z</time></trkpt><trkpt lat="33.4292015" lon="9.7066963"><ele>203.0</ele><time>2026-04-29T08:14:38.582Z</time></trkpt><trkpt lat="33.4293738" lon="9.7066645"><ele>203.0</ele><time>2026-04-29T08:14:39.588Z</time></trkpt><trkpt lat="33.4295474" lon="9.706631"><ele>203.0</ele><time>2026-04-29T08:14:40.546Z</time></trkpt><trkpt lat="33.4297251" lon="9.7065969"><ele>203.0</ele><time>2026-04-29T08:14:41.573Z</time></trkpt><trkpt lat="33.429901" lon="9.7065656"><ele>203.0</ele><time>2026-04-29T08:14:42.582Z</time></trkpt><trkpt lat="33.4300801" lon="9.7065306"><ele>203.0</ele><time>2026-04-29T08:14:43.581Z</time></trkpt><trkpt lat="33.4302621" lon="9.7064962"><ele>203.0</ele><time>2026-04-29T08:14:44.575Z</time></trkpt><trkpt lat="33.4304427" lon="9.7064634"><ele>203.0</ele><time>2026-04-29T08:14:45.571Z</time></trkpt><trkpt lat="33.4306222" lon="9.7064228"><ele>203.0</ele><time>2026-04-29T08:14:46.573Z</time></trkpt><trkpt lat="33.430803" lon="9.7063795"><ele>203.66666666666669</ele><time>2026-04-29T08:14:47.578Z</time></trkpt><trkpt lat="33.4309857" lon="9.7063366"><ele>204.33333333333331</ele><time>2026-04-29T08:14:48.574Z</time></trkpt><trkpt lat="33.4311608" lon="9.706295"><ele>205.0</ele><time>2026-04-29T08:14:49.588Z</time></trkpt><trkpt lat="33.4313389" lon="9.7062501"><ele>205.0</ele><time>2026-04-29T08:14:50.593Z</time></trkpt><trkpt lat="33.4315172" lon="9.7062005"><ele>205.0</ele><time>2026-04-29T08:14:51.59Z</time></trkpt><trkpt lat="33.4316919" lon="9.7061663"><ele>205.0</ele><time>2026-04-29T08:14:52.583Z</time></trkpt><trkpt lat="33.431867" lon="9.7061471"><ele>205.0</ele><time>2026-04-29T08:14:53.579Z</time></trkpt><trkpt lat="33.432041" lon="9.7061112"><ele>205.0</ele><time>2026-04-29T08:14:54.575Z</time></trkpt><trkpt lat="33.4322086" lon="9.7060695"><ele>205.0</ele><time>2026-04-29T08:14:55.567Z</time></trkpt><trkpt lat="33.4323748" lon="9.7060445"><ele>204.33333333333331</ele><time>2026-04-29T08:14:56.588Z</time></trkpt><trkpt lat="33.4325518" lon="9.706015"><ele>203.66666666666669</ele><time>2026-04-29T08:14:57.582Z</time></trkpt><trkpt lat="33.4327222" lon="9.7059725"><ele>203.0</ele><time>2026-04-29T08:14:58.568Z</time></trkpt><trkpt lat="33.4328983" lon="9.7059411"><ele>203.33333333333334</ele><time>2026-04-29T08:14:59.577Z</time></trkpt><trkpt lat="33.4330736" lon="9.7059123"><ele>203.66666666666669</ele><time>2026-04-29T08:15:00.556Z</time></trkpt><trkpt lat="33.4332444" lon="9.7058789"><ele>204.0</ele><time>2026-04-29T08:15:01.531Z</time></trkpt><trkpt lat="33.4334161" lon="9.7058341"><ele>204.0</ele><time>2026-04-29T08:15:02.589Z</time></trkpt><trkpt lat="33.4335913" lon="9.7058021"><ele>204.0</ele><time>2026-04-29T08:15:03.565Z</time></trkpt><trkpt lat="33.4337756" lon="9.7057804"><ele>204.0</ele><time>2026-04-29T08:15:04.58Z</time></trkpt><trkpt lat="33.4339567" lon="9.7057381"><ele>204.0</ele><time>2026-04-29T08:15:05.579Z</time></trkpt><trkpt lat="33.4341291" lon="9.7056851"><ele>204.0</ele><time>2026-04-29T08:15:06.578Z</time></trkpt><trkpt lat="33.4343109" lon="9.7056559"><ele>204.0</ele><time>2026-04-29T08:15:07.562Z</time></trkpt><trkpt lat="33.4344957" lon="9.7056335"><ele>203.33333333333331</ele><time>2026-04-29T08:15:08.588Z</time></trkpt><trkpt lat="33.4346742" lon="9.7055952"><ele>202.66666666666666</ele><time>2026-04-29T08:15:09.564Z</time></trkpt><trkpt lat="33.4348712" lon="9.7055495"><ele>202.0</ele><time>2026-04-29T08:15:10.578Z</time></trkpt><trkpt lat="33.4350583" lon="9.7055207"><ele>202.0</ele><time>2026-04-29T08:15:11.585Z</time></trkpt><trkpt lat="33.4352465" lon="9.7055004"><ele>202.0</ele><time>2026-04-29T08:15:12.599Z</time></trkpt><trkpt lat="33.435433" lon="9.7054666"><ele>202.0</ele><time>2026-04-29T08:15:13.574Z</time></trkpt><trkpt lat="33.4356191" lon="9.7054148"><ele>202.33333333333331</ele><time>2026-04-29T08:15:14.58Z</time></trkpt><trkpt lat="33.4358118" lon="9.7053743"><ele>202.66666666666669</ele><time>2026-04-29T08:15:15.581Z</time></trkpt><trkpt lat="33.4360028" lon="9.7053486"><ele>203.0</ele><time>2026-04-29T08:15:16.581Z</time></trkpt><trkpt lat="33.4361864" lon="9.7052971"><ele>202.66666666666669</ele><time>2026-04-29T08:15:17.582Z</time></trkpt><trkpt lat="33.4363648" lon="9.7052463"><ele>202.33333333333331</ele><time>2026-04-29T08:15:18.579Z</time></trkpt><trkpt lat="33.436552" lon="9.7052185"><ele>202.0</ele><time>2026-04-29T08:15:19.55Z</time></trkpt><trkpt lat="33.4367361" lon="9.7051827"><ele>201.33333333333331</ele><time>2026-04-29T08:15:20.579Z</time></trkpt><trkpt lat="33.4369214" lon="9.7051365"><ele>200.66666666666669</ele><time>2026-04-29T08:15:21.577Z</time></trkpt><trkpt lat="33.437111" lon="9.7051078"><ele>200.0</ele><time>2026-04-29T08:15:22.583Z</time></trkpt><trkpt lat="33.437301" lon="9.7050901"><ele>200.0</ele><time>2026-04-29T08:15:23.583Z</time></trkpt><trkpt lat="33.4374843" lon="9.7050665"><ele>200.0</ele><time>2026-04-29T08:15:24.591Z</time></trkpt><trkpt lat="33.4376704" lon="9.705026"><ele>200.0</ele><time>2026-04-29T08:15:25.58Z</time></trkpt><trkpt lat="33.437863" lon="9.7049821"><ele>200.66666666666669</ele><time>2026-04-29T08:15:26.589Z</time></trkpt><trkpt lat="33.4380515" lon="9.7049513"><ele>201.33333333333331</ele><time>2026-04-29T08:15:27.598Z</time></trkpt><trkpt lat="33.4382401" lon="9.7049167"><ele>202.0</ele><time>2026-04-29T08:15:28.527Z</time></trkpt><trkpt lat="33.4384242" lon="9.704881"><ele>202.0</ele><time>2026-04-29T08:15:29.587Z</time></trkpt><trkpt lat="33.4386123" lon="9.7048426"><ele>202.0</ele><time>2026-04-29T08:15:30.561Z</time></trkpt><trkpt lat="33.4387981" lon="9.7048043"><ele>202.0</ele><time>2026-04-29T08:15:31.574Z</time></trkpt><trkpt lat="33.4389804" lon="9.7047594"><ele>202.0</ele><time>2026-04-29T08:15:32.562Z</time></trkpt><trkpt lat="33.4391626" lon="9.7047267"><ele>202.0</ele><time>2026-04-29T08:15:33.569Z</time></trkpt><trkpt lat="33.4393453" lon="9.7047094"><ele>202.0</ele><time>2026-04-29T08:15:34.578Z</time></trkpt><trkpt lat="33.4395212" lon="9.7046838"><ele>201.66666666666666</ele><time>2026-04-29T08:15:35.59Z</time></trkpt><trkpt lat="33.4396954" lon="9.7046342"><ele>201.33333333333331</ele><time>2026-04-29T08:15:36.556Z</time></trkpt><trkpt lat="33.4398894" lon="9.7046009"><ele>201.0</ele><time>2026-04-29T08:15:37.528Z</time></trkpt><trkpt lat="33.4400764" lon="9.7045809"><ele>201.0</ele><time>2026-04-29T08:15:38.578Z</time></trkpt><trkpt lat="33.4402578" lon="9.7045435"><ele>201.0</ele><time>2026-04-29T08:15:39.569Z</time></trkpt><trkpt lat="33.4404413" lon="9.70451"><ele>201.0</ele><time>2026-04-29T08:15:40.574Z</time></trkpt><trkpt lat="33.4406344" lon="9.7044859"><ele>201.0</ele><time>2026-04-29T08:15:41.556Z</time></trkpt><trkpt lat="33.4408195" lon="9.7044558"><ele>201.0</ele><time>2026-04-29T08:15:42.566Z</time></trkpt><trkpt lat="33.4410016" lon="9.7044204"><ele>201.0</ele><time>2026-04-29T08:15:43.579Z</time></trkpt><trkpt lat="33.441185" lon="9.7043827"><ele>200.66666666666669</ele><time>2026-04-29T08:15:44.579Z</time></trkpt><trkpt lat="33.441372" lon="9.7043527"><ele>200.33333333333334</ele><time>2026-04-29T08:15:45.554Z</time></trkpt><trkpt lat="33.4415599" lon="9.7043176"><ele>200.0</ele><time>2026-04-29T08:15:46.576Z</time></trkpt><trkpt lat="33.4417495" lon="9.7042777"><ele>200.0</ele><time>2026-04-29T08:15:47.564Z</time></trkpt><trkpt lat="33.4419372" lon="9.7042428"><ele>200.0</ele><time>2026-04-29T08:15:48.588Z</time></trkpt><trkpt lat="33.4421219" lon="9.7042092"><ele>200.0</ele><time>2026-04-29T08:15:49.573Z</time></trkpt><trkpt lat="33.442306" lon="9.7041694"><ele>199.33333333333334</ele><time>2026-04-29T08:15:50.57Z</time></trkpt><trkpt lat="33.4424859" lon="9.7041191"><ele>198.66666666666669</ele><time>2026-04-29T08:15:51.583Z</time></trkpt><trkpt lat="33.4426657" lon="9.7040829"><ele>198.0</ele><time>2026-04-29T08:15:52.597Z</time></trkpt><trkpt lat="33.4428517" lon="9.7040617"><ele>198.66666666666669</ele><time>2026-04-29T08:15:53.597Z</time></trkpt><trkpt lat="33.4430312" lon="9.7040216"><ele>199.33333333333334</ele><time>2026-04-29T08:15:54.589Z</time></trkpt><trkpt lat="33.4432176" lon="9.7039838"><ele>200.0</ele><time>2026-04-29T08:15:55.565Z</time></trkpt><trkpt lat="33.4434054" lon="9.703964"><ele>200.0</ele><time>2026-04-29T08:15:56.543Z</time></trkpt><trkpt lat="33.4435925" lon="9.7039387"><ele>200.0</ele><time>2026-04-29T08:15:57.58Z</time></trkpt><trkpt lat="33.4437762" lon="9.7038941"><ele>200.0</ele><time>2026-04-29T08:15:58.571Z</time></trkpt><trkpt lat="33.4439611" lon="9.7038409"><ele>200.33333333333334</ele><time>2026-04-29T08:15:59.575Z</time></trkpt><trkpt lat="33.4441429" lon="9.7038179"><ele>200.66666666666669</ele><time>2026-04-29T08:16:00.565Z</time></trkpt><trkpt lat="33.4443182" lon="9.703806"><ele>201.0</ele><time>2026-04-29T08:16:01.585Z</time></trkpt><trkpt lat="33.4445005" lon="9.7037664"><ele>201.0</ele><time>2026-04-29T08:16:02.592Z</time></trkpt><trkpt lat="33.4446905" lon="9.7037169"><ele>201.0</ele><time>2026-04-29T08:16:03.581Z</time></trkpt><trkpt lat="33.4448786" lon="9.7036869"><ele>201.0</ele><time>2026-04-29T08:16:04.592Z</time></trkpt><trkpt lat="33.4450655" lon="9.703669"><ele>201.0</ele><time>2026-04-29T08:16:05.593Z</time></trkpt><trkpt lat="33.4452486" lon="9.7036302"><ele>201.0</ele><time>2026-04-29T08:16:06.589Z</time></trkpt><trkpt lat="33.4454276" lon="9.7035711"><ele>201.0</ele><time>2026-04-29T08:16:07.578Z</time></trkpt><trkpt lat="33.4456159" lon="9.7035336"><ele>200.33333333333331</ele><time>2026-04-29T08:16:08.585Z</time></trkpt><trkpt lat="33.4458052" lon="9.703512"><ele>199.66666666666666</ele><time>2026-04-29T08:16:09.566Z</time></trkpt><trkpt lat="33.4459925" lon="9.703478"><ele>199.0</ele><time>2026-04-29T08:16:10.573Z</time></trkpt><trkpt lat="33.4461726" lon="9.703429"><ele>199.0</ele><time>2026-04-29T08:16:11.575Z</time></trkpt><trkpt lat="33.4463528" lon="9.7033833"><ele>199.0</ele><time>2026-04-29T08:16:12.563Z</time></trkpt><trkpt lat="33.4465376" lon="9.703358"><ele>199.0</ele><time>2026-04-29T08:16:13.57Z</time></trkpt><trkpt lat="33.446718" lon="9.7033358"><ele>199.0</ele><time>2026-04-29T08:16:14.578Z</time></trkpt><trkpt lat="33.4469003" lon="9.7032929"><ele>199.0</ele><time>2026-04-29T08:16:15.562Z</time></trkpt><trkpt lat="33.4470828" lon="9.7032478"><ele>199.0</ele><time>2026-04-29T08:16:16.563Z</time></trkpt><trkpt lat="33.4472758" lon="9.703217"><ele>198.33333333333331</ele><time>2026-04-29T08:16:17.581Z</time></trkpt><trkpt lat="33.4474686" lon="9.7031924"><ele>197.66666666666669</ele><time>2026-04-29T08:16:18.579Z</time></trkpt><trkpt lat="33.4476554" lon="9.7031524"><ele>197.0</ele><time>2026-04-29T08:16:19.56Z</time></trkpt><trkpt lat="33.447838" lon="9.7031232"><ele>196.33333333333334</ele><time>2026-04-29T08:16:20.556Z</time></trkpt><trkpt lat="33.4480206" lon="9.7031034"><ele>195.66666666666669</ele><time>2026-04-29T08:16:21.548Z</time></trkpt><trkpt lat="33.4481983" lon="9.703073"><ele>195.0</ele><time>2026-04-29T08:16:22.574Z</time></trkpt><trkpt lat="33.4483775" lon="9.7030328"><ele>195.0</ele><time>2026-04-29T08:16:23.577Z</time></trkpt><trkpt lat="33.4485623" lon="9.7029946"><ele>195.0</ele><time>2026-04-29T08:16:24.582Z</time></trkpt><trkpt lat="33.4487481" lon="9.7029766"><ele>195.0</ele><time>2026-04-29T08:16:25.581Z</time></trkpt><trkpt lat="33.448937" lon="9.7029546"><ele>195.0</ele><time>2026-04-29T08:16:26.575Z</time></trkpt><trkpt lat="33.4491274" lon="9.702908"><ele>195.0</ele><time>2026-04-29T08:16:27.587Z</time></trkpt><trkpt lat="33.4493145" lon="9.7028538"><ele>195.0</ele><time>2026-04-29T08:16:28.573Z</time></trkpt><trkpt lat="33.449501" lon="9.702831"><ele>195.33333333333331</ele><time>2026-04-29T08:16:29.568Z</time></trkpt><trkpt lat="33.4496864" lon="9.7028267"><ele>195.66666666666666</ele><time>2026-04-29T08:16:30.576Z</time></trkpt><trkpt lat="33.4498725" lon="9.7027927"><ele>196.0</ele><time>2026-04-29T08:16:31.568Z</time></trkpt><trkpt lat="33.4500531" lon="9.7027404"><ele>196.0</ele><time>2026-04-29T08:16:32.576Z</time></trkpt><trkpt lat="33.4502365" lon="9.7026921"><ele>196.0</ele><time>2026-04-29T08:16:33.581Z</time></trkpt><trkpt lat="33.4504234" lon="9.7026655"><ele>196.0</ele><time>2026-04-29T08:16:34.579Z</time></trkpt><trkpt lat="33.4506134" lon="9.7026463"><ele>195.66666666666666</ele><time>2026-04-29T08:16:35.588Z</time></trkpt><trkpt lat="33.4507991" lon="9.7026007"><ele>195.33333333333331</ele><time>2026-04-29T08:16:36.567Z</time></trkpt><trkpt lat="33.4509846" lon="9.7025597"><ele>195.0</ele><time>2026-04-29T08:16:37.581Z</time></trkpt><trkpt lat="33.4511676" lon="9.7025371"><ele>195.0</ele><time>2026-04-29T08:16:38.573Z</time></trkpt><trkpt lat="33.4513429" lon="9.7025061"><ele>195.0</ele><time>2026-04-29T08:16:39.587Z</time></trkpt><trkpt lat="33.4515187" lon="9.7024645"><ele>195.0</ele><time>2026-04-29T08:16:40.595Z</time></trkpt><trkpt lat="33.4516991" lon="9.7024354"><ele>195.0</ele><time>2026-04-29T08:16:41.591Z</time></trkpt><trkpt lat="33.451891" lon="9.7024169"><ele>195.0</ele><time>2026-04-29T08:16:42.598Z</time></trkpt><trkpt lat="33.4520793" lon="9.7023851"><ele>195.0</ele><time>2026-04-29T08:16:43.582Z</time></trkpt><trkpt lat="33.4522722" lon="9.7023472"><ele>194.66666666666669</ele><time>2026-04-29T08:16:44.548Z</time></trkpt><trkpt lat="33.4524592" lon="9.7023109"><ele>194.33333333333334</ele><time>2026-04-29T08:16:45.587Z</time></trkpt><trkpt lat="33.4526374" lon="9.7022811"><ele>194.0</ele><time>2026-04-29T08:16:46.574Z</time></trkpt><trkpt lat="33.4528172" lon="9.7022442"><ele>194.66666666666669</ele><time>2026-04-29T08:16:47.554Z</time></trkpt><trkpt lat="33.4530006" lon="9.7022104"><ele>195.33333333333331</ele><time>2026-04-29T08:16:48.587Z</time></trkpt><trkpt lat="33.4531845" lon="9.7021808"><ele>196.0</ele><time>2026-04-29T08:16:49.543Z</time></trkpt><trkpt lat="33.4533706" lon="9.7021468"><ele>196.0</ele><time>2026-04-29T08:16:50.54Z</time></trkpt><trkpt lat="33.4535584" lon="9.7021077"><ele>196.0</ele><time>2026-04-29T08:16:51.541Z</time></trkpt><trkpt lat="33.4537449" lon="9.7020814"><ele>196.0</ele><time>2026-04-29T08:16:52.565Z</time></trkpt><trkpt lat="33.4539354" lon="9.7020491"><ele>196.33333333333331</ele><time>2026-04-29T08:16:53.57Z</time></trkpt><trkpt lat="33.4541233" lon="9.7020164"><ele>196.66666666666669</ele><time>2026-04-29T08:16:54.576Z</time></trkpt><trkpt lat="33.4543083" lon="9.7019862"><ele>197.0</ele><time>2026-04-29T08:16:55.578Z</time></trkpt><trkpt lat="33.4544945" lon="9.7019534"><ele>197.33333333333334</ele><time>2026-04-29T08:16:56.557Z</time></trkpt><trkpt lat="33.4546763" lon="9.7019164"><ele>197.66666666666669</ele><time>2026-04-29T08:16:57.567Z</time></trkpt><trkpt lat="33.4548515" lon="9.7018733"><ele>198.0</ele><time>2026-04-29T08:16:58.605Z</time></trkpt><trkpt lat="33.455028" lon="9.7018377"><ele>198.0</ele><time>2026-04-29T08:16:59.599Z</time></trkpt><trkpt lat="33.4552047" lon="9.7018046"><ele>198.0</ele><time>2026-04-29T08:17:00.595Z</time></trkpt><trkpt lat="33.455387" lon="9.7017679"><ele>198.0</ele><time>2026-04-29T08:17:01.562Z</time></trkpt><trkpt lat="33.4555799" lon="9.7017222"><ele>197.66666666666669</ele><time>2026-04-29T08:17:02.526Z</time></trkpt><trkpt lat="33.4557735" lon="9.7016826"><ele>197.33333333333334</ele><time>2026-04-29T08:17:03.578Z</time></trkpt><trkpt lat="33.4559599" lon="9.701664"><ele>197.0</ele><time>2026-04-29T08:17:04.594Z</time></trkpt><trkpt lat="33.456135" lon="9.7016342"><ele>196.66666666666669</ele><time>2026-04-29T08:17:05.565Z</time></trkpt><trkpt lat="33.4563" lon="9.7015942"><ele>196.33333333333331</ele><time>2026-04-29T08:17:06.557Z</time></trkpt><trkpt lat="33.4564691" lon="9.7015626"><ele>196.0</ele><time>2026-04-29T08:17:07.583Z</time></trkpt><trkpt lat="33.4566429" lon="9.7015362"><ele>196.0</ele><time>2026-04-29T08:17:08.58Z</time></trkpt><trkpt lat="33.4568052" lon="9.7015109"><ele>196.0</ele><time>2026-04-29T08:17:09.566Z</time></trkpt><trkpt lat="33.4569584" lon="9.7014785"><ele>196.0</ele><time>2026-04-29T08:17:10.585Z</time></trkpt><trkpt lat="33.457109" lon="9.7014482"><ele>196.33333333333331</ele><time>2026-04-29T08:17:11.587Z</time></trkpt><trkpt lat="33.4572628" lon="9.7014203"><ele>196.66666666666669</ele><time>2026-04-29T08:17:12.578Z</time></trkpt><trkpt lat="33.457412" lon="9.7013922"><ele>197.0</ele><time>2026-04-29T08:17:13.59Z</time></trkpt><trkpt lat="33.4575629" lon="9.7013679"><ele>197.0</ele><time>2026-04-29T08:17:14.584Z</time></trkpt><trkpt lat="33.4577195" lon="9.7013397"><ele>197.0</ele><time>2026-04-29T08:17:15.553Z</time></trkpt><trkpt lat="33.4578697" lon="9.7013134"><ele>197.0</ele><time>2026-04-29T08:17:16.554Z</time></trkpt><trkpt lat="33.4580143" lon="9.7012827"><ele>197.0</ele><time>2026-04-29T08:17:17.556Z</time></trkpt><trkpt lat="33.4581548" lon="9.7012517"><ele>197.0</ele><time>2026-04-29T08:17:18.575Z</time></trkpt><trkpt lat="33.4583002" lon="9.7012172"><ele>197.0</ele><time>2026-04-29T08:17:19.573Z</time></trkpt><trkpt lat="33.4584492" lon="9.701192"><ele>197.0</ele><time>2026-04-29T08:17:20.569Z</time></trkpt><trkpt lat="33.4585984" lon="9.7011696"><ele>197.0</ele><time>2026-04-29T08:17:21.576Z</time></trkpt><trkpt lat="33.4587463" lon="9.7011582"><ele>197.0</ele><time>2026-04-29T08:17:22.592Z</time></trkpt><trkpt lat="33.4589014" lon="9.7011526"><ele>197.0</ele><time>2026-04-29T08:17:23.545Z</time></trkpt><trkpt lat="33.4590631" lon="9.7011302"><ele>197.0</ele><time>2026-04-29T08:17:24.588Z</time></trkpt><trkpt lat="33.4592246" lon="9.7010991"><ele>197.0</ele><time>2026-04-29T08:17:25.567Z</time></trkpt><trkpt lat="33.4593964" lon="9.7010664"><ele>197.0</ele><time>2026-04-29T08:17:26.583Z</time></trkpt><trkpt lat="33.4595694" lon="9.7010402"><ele>197.33333333333334</ele><time>2026-04-29T08:17:27.573Z</time></trkpt><trkpt lat="33.4597417" lon="9.7010081"><ele>197.66666666666669</ele><time>2026-04-29T08:17:28.584Z</time></trkpt><trkpt lat="33.4599201" lon="9.7009671"><ele>198.0</ele><time>2026-04-29T08:17:29.564Z</time></trkpt><trkpt lat="33.4600953" lon="9.7009436"><ele>198.0</ele><time>2026-04-29T08:17:30.583Z</time></trkpt><trkpt lat="33.4602697" lon="9.700923"><ele>198.0</ele><time>2026-04-29T08:17:31.586Z</time></trkpt><trkpt lat="33.4604428" lon="9.7008842"><ele>198.0</ele><time>2026-04-29T08:17:32.578Z</time></trkpt><trkpt lat="33.4606238" lon="9.7008235"><ele>198.0</ele><time>2026-04-29T08:17:33.584Z</time></trkpt><trkpt lat="33.4608054" lon="9.700793"><ele>198.0</ele><time>2026-04-29T08:17:34.582Z</time></trkpt><trkpt lat="33.4609948" lon="9.7007671"><ele>198.0</ele><time>2026-04-29T08:17:35.584Z</time></trkpt><trkpt lat="33.4611727" lon="9.7007338"><ele>197.66666666666669</ele><time>2026-04-29T08:17:36.591Z</time></trkpt><trkpt lat="33.4613498" lon="9.7006956"><ele>197.33333333333334</ele><time>2026-04-29T08:17:37.58Z</time></trkpt><trkpt lat="33.4615361" lon="9.7006702"><ele>197.0</ele><time>2026-04-29T08:17:38.57Z</time></trkpt><trkpt lat="33.4617174" lon="9.7006381"><ele>197.0</ele><time>2026-04-29T08:17:39.567Z</time></trkpt><trkpt lat="33.461899" lon="9.700608"><ele>197.0</ele><time>2026-04-29T08:17:40.584Z</time></trkpt><trkpt lat="33.4620799" lon="9.7005694"><ele>197.0</ele><time>2026-04-29T08:17:41.582Z</time></trkpt><trkpt lat="33.4622613" lon="9.7005366"><ele>197.33333333333334</ele><time>2026-04-29T08:17:42.586Z</time></trkpt><trkpt lat="33.4624448" lon="9.7005083"><ele>197.66666666666669</ele><time>2026-04-29T08:17:43.588Z</time></trkpt><trkpt lat="33.4626241" lon="9.7004774"><ele>198.0</ele><time>2026-04-29T08:17:44.532Z</time></trkpt><trkpt lat="33.4628031" lon="9.7004414"><ele>198.33333333333331</ele><time>2026-04-29T08:17:45.57Z</time></trkpt><trkpt lat="33.4629753" lon="9.7004024"><ele>198.66666666666666</ele><time>2026-04-29T08:17:46.579Z</time></trkpt><trkpt lat="33.4631521" lon="9.7003616"><ele>199.0</ele><time>2026-04-29T08:17:47.573Z</time></trkpt><trkpt lat="33.463337" lon="9.7003278"><ele>199.0</ele><time>2026-04-29T08:17:48.591Z</time></trkpt><trkpt lat="33.4635219" lon="9.7002895"><ele>199.0</ele><time>2026-04-29T08:17:49.58Z</time></trkpt><trkpt lat="33.4637024" lon="9.7002338"><ele>199.0</ele><time>2026-04-29T08:17:50.585Z</time></trkpt><trkpt lat="33.4638821" lon="9.7001773"><ele>199.0</ele><time>2026-04-29T08:17:51.582Z</time></trkpt><trkpt lat="33.4640657" lon="9.7001398"><ele>199.0</ele><time>2026-04-29T08:17:52.588Z</time></trkpt><trkpt lat="33.4642472" lon="9.7001104"><ele>199.0</ele><time>2026-04-29T08:17:53.571Z</time></trkpt><trkpt lat="33.4644213" lon="9.70006"><ele>199.0</ele><time>2026-04-29T08:17:54.585Z</time></trkpt><trkpt lat="33.4645969" lon="9.6999982"><ele>199.0</ele><time>2026-04-29T08:17:55.577Z</time></trkpt><trkpt lat="33.4647811" lon="9.6999574"><ele>199.0</ele><time>2026-04-29T08:17:56.59Z</time></trkpt><trkpt lat="33.4649652" lon="9.6999226"><ele>198.66666666666666</ele><time>2026-04-29T08:17:57.584Z</time></trkpt><trkpt lat="33.4651459" lon="9.6998668"><ele>198.33333333333331</ele><time>2026-04-29T08:17:58.563Z</time></trkpt><trkpt lat="33.4653327" lon="9.6998089"><ele>198.0</ele><time>2026-04-29T08:17:59.594Z</time></trkpt><trkpt lat="33.4655214" lon="9.6997689"><ele>198.0</ele><time>2026-04-29T08:18:00.603Z</time></trkpt><trkpt lat="33.4657148" lon="9.6997206"><ele>198.0</ele><time>2026-04-29T08:18:01.583Z</time></trkpt><trkpt lat="33.465904" lon="9.6996654"><ele>198.0</ele><time>2026-04-29T08:18:02.57Z</time></trkpt><trkpt lat="33.4660998" lon="9.6996195"><ele>197.66666666666669</ele><time>2026-04-29T08:18:03.557Z</time></trkpt><trkpt lat="33.4662998" lon="9.6995718"><ele>197.33333333333334</ele><time>2026-04-29T08:18:04.576Z</time></trkpt><trkpt lat="33.4664849" lon="9.6995218"><ele>197.0</ele><time>2026-04-29T08:18:05.583Z</time></trkpt><trkpt lat="33.4666598" lon="9.6994575"><ele>197.0</ele><time>2026-04-29T08:18:06.577Z</time></trkpt><trkpt lat="33.4668384" lon="9.6994114"><ele>197.0</ele><time>2026-04-29T08:18:07.577Z</time></trkpt><trkpt lat="33.4670247" lon="9.6993757"><ele>197.0</ele><time>2026-04-29T08:18:08.571Z</time></trkpt><trkpt lat="33.4672051" lon="9.699333"><ele>197.33333333333334</ele><time>2026-04-29T08:18:09.574Z</time></trkpt><trkpt lat="33.4673757" lon="9.6992877"><ele>197.66666666666669</ele><time>2026-04-29T08:18:10.594Z</time></trkpt><trkpt lat="33.467536" lon="9.6992447"><ele>198.0</ele><time>2026-04-29T08:18:11.577Z</time></trkpt><trkpt lat="33.4676962" lon="9.6992093"><ele>198.0</ele><time>2026-04-29T08:18:12.597Z</time></trkpt><trkpt lat="33.4678619" lon="9.6991772"><ele>198.0</ele><time>2026-04-29T08:18:13.581Z</time></trkpt><trkpt lat="33.4680272" lon="9.6991486"><ele>198.0</ele><time>2026-04-29T08:18:14.577Z</time></trkpt><trkpt lat="33.4681925" lon="9.6991265"><ele>198.66666666666669</ele><time>2026-04-29T08:18:15.565Z</time></trkpt><trkpt lat="33.4683652" lon="9.69911"><ele>199.33333333333334</ele><time>2026-04-29T08:18:16.565Z</time></trkpt><trkpt lat="33.4685371" lon="9.6990979"><ele>200.0</ele><time>2026-04-29T08:18:17.575Z</time></trkpt><trkpt lat="33.4687079" lon="9.6990905"><ele>200.0</ele><time>2026-04-29T08:18:18.601Z</time></trkpt><trkpt lat="33.4688801" lon="9.6990844"><ele>200.0</ele><time>2026-04-29T08:18:19.588Z</time></trkpt><trkpt lat="33.4690536" lon="9.6990768"><ele>200.0</ele><time>2026-04-29T08:18:20.573Z</time></trkpt><trkpt lat="33.4692273" lon="9.6990646"><ele>200.0</ele><time>2026-04-29T08:18:21.589Z</time></trkpt><trkpt lat="33.4693972" lon="9.6990489"><ele>200.0</ele><time>2026-04-29T08:18:22.59Z</time></trkpt><trkpt lat="33.4695757" lon="9.6990165"><ele>200.0</ele><time>2026-04-29T08:18:23.585Z</time></trkpt><trkpt lat="33.469747" lon="9.6989985"><ele>199.33333333333334</ele><time>2026-04-29T08:18:24.585Z</time></trkpt><trkpt lat="33.4699256" lon="9.6989976"><ele>198.66666666666669</ele><time>2026-04-29T08:18:25.584Z</time></trkpt><trkpt lat="33.4701033" lon="9.6989852"><ele>198.0</ele><time>2026-04-29T08:18:26.577Z</time></trkpt><trkpt lat="33.470277" lon="9.6989533"><ele>198.0</ele><time>2026-04-29T08:18:27.583Z</time></trkpt><trkpt lat="33.4704613" lon="9.6989399"><ele>198.0</ele><time>2026-04-29T08:18:28.59Z</time></trkpt><trkpt lat="33.4706429" lon="9.6989291"><ele>198.0</ele><time>2026-04-29T08:18:29.574Z</time></trkpt><trkpt lat="33.4708277" lon="9.6988903"><ele>198.0</ele><time>2026-04-29T08:18:30.59Z</time></trkpt><trkpt lat="33.4710008" lon="9.6988608"><ele>198.0</ele><time>2026-04-29T08:18:31.58Z</time></trkpt><trkpt lat="33.4711845" lon="9.6988468"><ele>198.0</ele><time>2026-04-29T08:18:32.582Z</time></trkpt><trkpt lat="33.4713642" lon="9.6988219"><ele>198.66666666666669</ele><time>2026-04-29T08:18:33.585Z</time></trkpt><trkpt lat="33.4715453" lon="9.6987802"><ele>199.33333333333334</ele><time>2026-04-29T08:18:34.581Z</time></trkpt><trkpt lat="33.4717315" lon="9.6987546"><ele>200.0</ele><time>2026-04-29T08:18:35.58Z</time></trkpt><trkpt lat="33.4719166" lon="9.6987359"><ele>200.0</ele><time>2026-04-29T08:18:36.588Z</time></trkpt><trkpt lat="33.4720966" lon="9.6986995"><ele>200.0</ele><time>2026-04-29T08:18:37.576Z</time></trkpt><trkpt lat="33.4722767" lon="9.6986544"><ele>200.0</ele><time>2026-04-29T08:18:38.569Z</time></trkpt><trkpt lat="33.4724518" lon="9.6986258"><ele>200.0</ele><time>2026-04-29T08:18:39.563Z</time></trkpt><trkpt lat="33.4726324" lon="9.6985977"><ele>200.0</ele><time>2026-04-29T08:18:40.591Z</time></trkpt><trkpt lat="33.4728182" lon="9.6985531"><ele>200.0</ele><time>2026-04-29T08:18:41.579Z</time></trkpt><trkpt lat="33.473003" lon="9.6985303"><ele>200.33333333333334</ele><time>2026-04-29T08:18:42.586Z</time></trkpt><trkpt lat="33.4731908" lon="9.6985027"><ele>200.66666666666669</ele><time>2026-04-29T08:18:43.589Z</time></trkpt><trkpt lat="33.4733807" lon="9.6984628"><ele>201.0</ele><time>2026-04-29T08:18:44.554Z</time></trkpt><trkpt lat="33.4735522" lon="9.6984196"><ele>201.0</ele><time>2026-04-29T08:18:45.582Z</time></trkpt><trkpt lat="33.4737143" lon="9.6983892"><ele>201.0</ele><time>2026-04-29T08:18:46.587Z</time></trkpt><trkpt lat="33.473853" lon="9.698371"><ele>201.0</ele><time>2026-04-29T08:18:47.588Z</time></trkpt><trkpt lat="33.4739862" lon="9.6983523"><ele>201.0</ele><time>2026-04-29T08:18:48.583Z</time></trkpt><trkpt lat="33.4741004" lon="9.6983381"><ele>201.16666666666666</ele><time>2026-04-29T08:18:49.584Z</time></trkpt><trkpt lat="33.4741927" lon="9.6983237"><ele>201.33333333333331</ele><time>2026-04-29T08:18:50.582Z</time></trkpt><trkpt lat="33.47427" lon="9.6983174"><ele>201.5</ele><time>2026-04-29T08:18:51.547Z</time></trkpt><trkpt lat="33.4743329" lon="9.6983118"><ele>201.66666666666666</ele><time>2026-04-29T08:18:52.574Z</time></trkpt><trkpt lat="33.4744171" lon="9.6983005"><ele>201.83333333333331</ele><time>2026-04-29T08:18:54.534Z</time></trkpt><trkpt lat="33.4744844" lon="9.698296"><ele>202.0</ele><time>2026-04-29T08:18:57.544Z</time></trkpt><trkpt lat="33.4745698" lon="9.6982696"><ele>201.75</ele><time>2026-04-29T08:19:08.539Z</time></trkpt><trkpt lat="33.4747121" lon="9.6982356"><ele>201.5</ele><time>2026-04-29T08:19:10.532Z</time></trkpt><trkpt lat="33.4748091" lon="9.6982212"><ele>201.25</ele><time>2026-04-29T08:19:11.538Z</time></trkpt><trkpt lat="33.4749232" lon="9.698202"><ele>201.0</ele><time>2026-04-29T08:19:12.545Z</time></trkpt><trkpt lat="33.4750468" lon="9.6981776"><ele>201.0</ele><time>2026-04-29T08:19:13.54Z</time></trkpt><trkpt lat="33.4751734" lon="9.6981491"><ele>201.0</ele><time>2026-04-29T08:19:14.542Z</time></trkpt><trkpt lat="33.4753118" lon="9.6981156"><ele>201.0</ele><time>2026-04-29T08:19:15.544Z</time></trkpt><trkpt lat="33.4754524" lon="9.6980874"><ele>201.0</ele><time>2026-04-29T08:19:16.545Z</time></trkpt><trkpt lat="33.4755961" lon="9.6980582"><ele>200.33333333333331</ele><time>2026-04-29T08:19:17.544Z</time></trkpt><trkpt lat="33.4757442" lon="9.6980312"><ele>199.66666666666666</ele><time>2026-04-29T08:19:18.533Z</time></trkpt><trkpt lat="33.4758974" lon="9.6980039"><ele>199.0</ele><time>2026-04-29T08:19:19.547Z</time></trkpt><trkpt lat="33.476053" lon="9.6979726"><ele>199.0</ele><time>2026-04-29T08:19:20.546Z</time></trkpt><trkpt lat="33.4762127" lon="9.6979405"><ele>199.0</ele><time>2026-04-29T08:19:21.542Z</time></trkpt><trkpt lat="33.4763799" lon="9.6979096"><ele>199.0</ele><time>2026-04-29T08:19:22.539Z</time></trkpt><trkpt lat="33.4765519" lon="9.6978789"><ele>199.33333333333331</ele><time>2026-04-29T08:19:23.541Z</time></trkpt><trkpt lat="33.4767217" lon="9.697846"><ele>199.66666666666669</ele><time>2026-04-29T08:19:24.547Z</time></trkpt><trkpt lat="33.4768829" lon="9.6978115"><ele>200.0</ele><time>2026-04-29T08:19:25.537Z</time></trkpt><trkpt lat="33.4770428" lon="9.6977791"><ele>200.33333333333334</ele><time>2026-04-29T08:19:26.542Z</time></trkpt><trkpt lat="33.477205" lon="9.6977445"><ele>200.66666666666669</ele><time>2026-04-29T08:19:27.53Z</time></trkpt><trkpt lat="33.4773679" lon="9.6977097"><ele>201.0</ele><time>2026-04-29T08:19:28.559Z</time></trkpt><trkpt lat="33.477534" lon="9.6976777"><ele>201.0</ele><time>2026-04-29T08:19:29.528Z</time></trkpt><trkpt lat="33.4777002" lon="9.697651"><ele>201.0</ele><time>2026-04-29T08:19:30.543Z</time></trkpt><trkpt lat="33.4778661" lon="9.6976239"><ele>201.0</ele><time>2026-04-29T08:19:31.544Z</time></trkpt><trkpt lat="33.4780356" lon="9.6975977"><ele>201.0</ele><time>2026-04-29T08:19:32.541Z</time></trkpt><trkpt lat="33.4782074" lon="9.697566"><ele>201.0</ele><time>2026-04-29T08:19:33.541Z</time></trkpt><trkpt lat="33.4783779" lon="9.6975355"><ele>201.0</ele><time>2026-04-29T08:19:34.539Z</time></trkpt><trkpt lat="33.4785524" lon="9.6975081"><ele>201.0</ele><time>2026-04-29T08:19:35.538Z</time></trkpt><trkpt lat="33.4787299" lon="9.6974784"><ele>201.0</ele><time>2026-04-29T08:19:36.544Z</time></trkpt><trkpt lat="33.4789107" lon="9.6974487"><ele>201.0</ele><time>2026-04-29T08:19:37.526Z</time></trkpt><trkpt lat="33.4790899" lon="9.6974146"><ele>201.0</ele><time>2026-04-29T08:19:38.54Z</time></trkpt><trkpt lat="33.4792645" lon="9.6973799"><ele>201.0</ele><time>2026-04-29T08:19:39.546Z</time></trkpt><trkpt lat="33.4794397" lon="9.6973475"><ele>201.0</ele><time>2026-04-29T08:19:40.541Z</time></trkpt><trkpt lat="33.4796151" lon="9.6973128"><ele>201.0</ele><time>2026-04-29T08:19:41.54Z</time></trkpt><trkpt lat="33.4797878" lon="9.6972818"><ele>201.0</ele><time>2026-04-29T08:19:42.535Z</time></trkpt><trkpt lat="33.4799598" lon="9.6972479"><ele>201.0</ele><time>2026-04-29T08:19:43.544Z</time></trkpt><trkpt lat="33.4801318" lon="9.6972168"><ele>201.0</ele><time>2026-04-29T08:19:44.544Z</time></trkpt><trkpt lat="33.4803072" lon="9.6971834"><ele>201.0</ele><time>2026-04-29T08:19:45.542Z</time></trkpt><trkpt lat="33.4804787" lon="9.6971565"><ele>201.0</ele><time>2026-04-29T08:19:46.54Z</time></trkpt><trkpt lat="33.4806509" lon="9.6971239"><ele>201.33333333333331</ele><time>2026-04-29T08:19:47.537Z</time></trkpt><trkpt lat="33.4808267" lon="9.6970897"><ele>201.66666666666666</ele><time>2026-04-29T08:19:48.544Z</time></trkpt><trkpt lat="33.4810026" lon="9.6970539"><ele>202.0</ele><time>2026-04-29T08:19:49.542Z</time></trkpt><trkpt lat="33.4811774" lon="9.697022"><ele>202.0</ele><time>2026-04-29T08:19:50.543Z</time></trkpt><trkpt lat="33.4813512" lon="9.6969863"><ele>202.0</ele><time>2026-04-29T08:19:51.545Z</time></trkpt><trkpt lat="33.4815253" lon="9.6969558"><ele>202.0</ele><time>2026-04-29T08:19:52.543Z</time></trkpt><trkpt lat="33.4816995" lon="9.6969278"><ele>201.66666666666666</ele><time>2026-04-29T08:19:53.541Z</time></trkpt><trkpt lat="33.4818752" lon="9.6968948"><ele>201.33333333333331</ele><time>2026-04-29T08:19:54.545Z</time></trkpt><trkpt lat="33.4820541" lon="9.6968614"><ele>201.0</ele><time>2026-04-29T08:19:55.543Z</time></trkpt><trkpt lat="33.4822272" lon="9.6968312"><ele>201.0</ele><time>2026-04-29T08:19:56.553Z</time></trkpt><trkpt lat="33.4824011" lon="9.6968014"><ele>201.0</ele><time>2026-04-29T08:19:57.543Z</time></trkpt><trkpt lat="33.4825786" lon="9.6967709"><ele>201.0</ele><time>2026-04-29T08:19:58.538Z</time></trkpt><trkpt lat="33.4827561" lon="9.6967359"><ele>200.33333333333331</ele><time>2026-04-29T08:19:59.543Z</time></trkpt><trkpt lat="33.4829396" lon="9.6966997"><ele>199.66666666666666</ele><time>2026-04-29T08:20:00.537Z</time></trkpt><trkpt lat="33.4831272" lon="9.6966644"><ele>199.0</ele><time>2026-04-29T08:20:01.545Z</time></trkpt><trkpt lat="33.4833222" lon="9.6966273"><ele>199.0</ele><time>2026-04-29T08:20:02.538Z</time></trkpt><trkpt lat="33.4835192" lon="9.696595"><ele>199.0</ele><time>2026-04-29T08:20:03.538Z</time></trkpt><trkpt lat="33.4837108" lon="9.6965611"><ele>199.0</ele><time>2026-04-29T08:20:04.543Z</time></trkpt><trkpt lat="33.4839006" lon="9.6965163"><ele>199.0</ele><time>2026-04-29T08:20:05.55Z</time></trkpt><trkpt lat="33.4840924" lon="9.6964773"><ele>199.0</ele><time>2026-04-29T08:20:06.524Z</time></trkpt><trkpt lat="33.4842902" lon="9.6964484"><ele>199.0</ele><time>2026-04-29T08:20:07.55Z</time></trkpt><trkpt lat="33.4844797" lon="9.6964083"><ele>199.0</ele><time>2026-04-29T08:20:08.535Z</time></trkpt><trkpt lat="33.4846749" lon="9.6963553"><ele>199.0</ele><time>2026-04-29T08:20:09.531Z</time></trkpt><trkpt lat="33.4848712" lon="9.6963324"><ele>199.0</ele><time>2026-04-29T08:20:10.539Z</time></trkpt><trkpt lat="33.4850672" lon="9.6963089"><ele>199.0</ele><time>2026-04-29T08:20:11.527Z</time></trkpt><trkpt lat="33.4852576" lon="9.6962723"><ele>199.0</ele><time>2026-04-29T08:20:12.535Z</time></trkpt><trkpt lat="33.4854508" lon="9.6962319"><ele>199.0</ele><time>2026-04-29T08:20:13.535Z</time></trkpt><trkpt lat="33.4856406" lon="9.6962013"><ele>199.33333333333331</ele><time>2026-04-29T08:20:14.536Z</time></trkpt><trkpt lat="33.4858305" lon="9.6961753"><ele>199.66666666666669</ele><time>2026-04-29T08:20:15.542Z</time></trkpt><trkpt lat="33.4860174" lon="9.6961365"><ele>200.0</ele><time>2026-04-29T08:20:16.536Z</time></trkpt><trkpt lat="33.4862112" lon="9.6961038"><ele>200.66666666666669</ele><time>2026-04-29T08:20:17.537Z</time></trkpt><trkpt lat="33.4864058" lon="9.6960714"><ele>201.33333333333331</ele><time>2026-04-29T08:20:18.542Z</time></trkpt><trkpt lat="33.486602" lon="9.6960357"><ele>202.0</ele><time>2026-04-29T08:20:19.541Z</time></trkpt><trkpt lat="33.4867977" lon="9.6959991"><ele>202.0</ele><time>2026-04-29T08:20:20.541Z</time></trkpt><trkpt lat="33.4869932" lon="9.6959661"><ele>202.0</ele><time>2026-04-29T08:20:21.527Z</time></trkpt><trkpt lat="33.4871833" lon="9.6959263"><ele>202.0</ele><time>2026-04-29T08:20:22.552Z</time></trkpt><trkpt lat="33.4873773" lon="9.6958752"><ele>202.33333333333331</ele><time>2026-04-29T08:20:23.532Z</time></trkpt><trkpt lat="33.4875738" lon="9.6958444"><ele>202.66666666666669</ele><time>2026-04-29T08:20:24.539Z</time></trkpt><trkpt lat="33.4877688" lon="9.6958237"><ele>203.0</ele><time>2026-04-29T08:20:25.54Z</time></trkpt><trkpt lat="33.4879675" lon="9.6957788"><ele>203.0</ele><time>2026-04-29T08:20:26.534Z</time></trkpt><trkpt lat="33.4881578" lon="9.6957366"><ele>203.0</ele><time>2026-04-29T08:20:27.54Z</time></trkpt><trkpt lat="33.4883525" lon="9.6957056"><ele>203.0</ele><time>2026-04-29T08:20:28.542Z</time></trkpt><trkpt lat="33.4885408" lon="9.69569"><ele>203.0</ele><time>2026-04-29T08:20:29.538Z</time></trkpt><trkpt lat="33.48873" lon="9.6956407"><ele>203.0</ele><time>2026-04-29T08:20:30.538Z</time></trkpt><trkpt lat="33.4889237" lon="9.6956004"><ele>203.0</ele><time>2026-04-29T08:20:31.538Z</time></trkpt><trkpt lat="33.4891207" lon="9.6955704"><ele>204.33333333333334</ele><time>2026-04-29T08:20:32.533Z</time></trkpt><trkpt lat="33.4893125" lon="9.6955379"><ele>205.66666666666669</ele><time>2026-04-29T08:20:33.543Z</time></trkpt><trkpt lat="33.4895057" lon="9.6954987"><ele>207.0</ele><time>2026-04-29T08:20:34.528Z</time></trkpt><trkpt lat="33.4897041" lon="9.6954702"><ele>207.66666666666669</ele><time>2026-04-29T08:20:35.539Z</time></trkpt><trkpt lat="33.4898999" lon="9.6954474"><ele>208.33333333333334</ele><time>2026-04-29T08:20:36.526Z</time></trkpt><trkpt lat="33.4900985" lon="9.6954072"><ele>209.0</ele><time>2026-04-29T08:20:37.539Z</time></trkpt><trkpt lat="33.4902969" lon="9.6953721"><ele>210.0</ele><time>2026-04-29T08:20:38.534Z</time></trkpt><trkpt lat="33.4904892" lon="9.6953509"><ele>211.0</ele><time>2026-04-29T08:20:39.531Z</time></trkpt><trkpt lat="33.4906857" lon="9.6953116"><ele>212.0</ele><time>2026-04-29T08:20:40.552Z</time></trkpt><trkpt lat="33.490878" lon="9.6952587"><ele>210.66666666666669</ele><time>2026-04-29T08:20:41.54Z</time></trkpt><trkpt lat="33.4910714" lon="9.6952322"><ele>209.33333333333331</ele><time>2026-04-29T08:20:42.541Z</time></trkpt><trkpt lat="33.4912628" lon="9.695204"><ele>208.0</ele><time>2026-04-29T08:20:43.541Z</time></trkpt><trkpt lat="33.4914619" lon="9.6951566"><ele>208.0</ele><time>2026-04-29T08:20:44.543Z</time></trkpt><trkpt lat="33.4916526" lon="9.6951208"><ele>208.0</ele><time>2026-04-29T08:20:45.546Z</time></trkpt><trkpt lat="33.4918463" lon="9.6950908"><ele>208.0</ele><time>2026-04-29T08:20:46.531Z</time></trkpt><trkpt lat="33.492036" lon="9.6950569"><ele>208.0</ele><time>2026-04-29T08:20:47.542Z</time></trkpt><trkpt lat="33.4922249" lon="9.6950096"><ele>208.0</ele><time>2026-04-29T08:20:48.537Z</time></trkpt><trkpt lat="33.4924169" lon="9.6949643"><ele>208.0</ele><time>2026-04-29T08:20:49.554Z</time></trkpt><trkpt lat="33.4926114" lon="9.6949368"><ele>208.0</ele><time>2026-04-29T08:20:50.545Z</time></trkpt><trkpt lat="33.4928054" lon="9.6949106"><ele>208.0</ele><time>2026-04-29T08:20:51.551Z</time></trkpt><trkpt lat="33.4929928" lon="9.694864"><ele>208.0</ele><time>2026-04-29T08:20:52.534Z</time></trkpt><trkpt lat="33.4931858" lon="9.694804"><ele>207.0</ele><time>2026-04-29T08:20:53.529Z</time></trkpt><trkpt lat="33.4933724" lon="9.6947691"><ele>206.0</ele><time>2026-04-29T08:20:54.547Z</time></trkpt><trkpt lat="33.4935717" lon="9.6947485"><ele>205.0</ele><time>2026-04-29T08:20:55.541Z</time></trkpt><trkpt lat="33.4937666" lon="9.6947188"><ele>204.66666666666666</ele><time>2026-04-29T08:20:56.546Z</time></trkpt><trkpt lat="33.4939533" lon="9.6946624"><ele>204.33333333333331</ele><time>2026-04-29T08:20:57.536Z</time></trkpt><trkpt lat="33.4941474" lon="9.6946065"><ele>204.0</ele><time>2026-04-29T08:20:58.541Z</time></trkpt><trkpt lat="33.4943401" lon="9.6945888"><ele>204.0</ele><time>2026-04-29T08:20:59.539Z</time></trkpt><trkpt lat="33.4945359" lon="9.6945853"><ele>204.0</ele><time>2026-04-29T08:21:00.545Z</time></trkpt><trkpt lat="33.494733" lon="9.694544"><ele>204.0</ele><time>2026-04-29T08:21:01.531Z</time></trkpt><trkpt lat="33.4949176" lon="9.6944844"><ele>204.0</ele><time>2026-04-29T08:21:02.545Z</time></trkpt><trkpt lat="33.4951079" lon="9.6944388"><ele>204.0</ele><time>2026-04-29T08:21:03.532Z</time></trkpt><trkpt lat="33.4953051" lon="9.6944174"><ele>204.0</ele><time>2026-04-29T08:21:04.53Z</time></trkpt><trkpt lat="33.4955" lon="9.694398"><ele>202.66666666666669</ele><time>2026-04-29T08:21:05.529Z</time></trkpt><trkpt lat="33.4956924" lon="9.6943439"><ele>201.33333333333334</ele><time>2026-04-29T08:21:06.534Z</time></trkpt><trkpt lat="33.4958808" lon="9.6942768"><ele>200.0</ele><time>2026-04-29T08:21:07.551Z</time></trkpt><trkpt lat="33.4960801" lon="9.6942503"><ele>200.0</ele><time>2026-04-29T08:21:08.541Z</time></trkpt><trkpt lat="33.4962742" lon="9.694237"><ele>200.0</ele><time>2026-04-29T08:21:09.561Z</time></trkpt><trkpt lat="33.4964578" lon="9.694222"><ele>200.0</ele><time>2026-04-29T08:21:10.544Z</time></trkpt><trkpt lat="33.4966508" lon="9.6941553"><ele>200.0</ele><time>2026-04-29T08:21:11.546Z</time></trkpt><trkpt lat="33.4968457" lon="9.6941138"><ele>200.0</ele><time>2026-04-29T08:21:12.545Z</time></trkpt><trkpt lat="33.4970446" lon="9.6940915"><ele>200.0</ele><time>2026-04-29T08:21:13.533Z</time></trkpt><trkpt lat="33.4972388" lon="9.6940683"><ele>200.33333333333334</ele><time>2026-04-29T08:21:14.531Z</time></trkpt><trkpt lat="33.4974343" lon="9.6940332"><ele>200.66666666666669</ele><time>2026-04-29T08:21:15.533Z</time></trkpt><trkpt lat="33.497621" lon="9.6939853"><ele>201.0</ele><time>2026-04-29T08:21:16.543Z</time></trkpt><trkpt lat="33.4978116" lon="9.6939525"><ele>201.66666666666669</ele><time>2026-04-29T08:21:17.529Z</time></trkpt><trkpt lat="33.4980062" lon="9.6939268"><ele>202.33333333333334</ele><time>2026-04-29T08:21:18.548Z</time></trkpt><trkpt lat="33.4982056" lon="9.6938955"><ele>203.0</ele><time>2026-04-29T08:21:19.539Z</time></trkpt><trkpt lat="33.4984067" lon="9.6938654"><ele>203.0</ele><time>2026-04-29T08:21:20.525Z</time></trkpt><trkpt lat="33.4986032" lon="9.6938321"><ele>203.0</ele><time>2026-04-29T08:21:21.538Z</time></trkpt><trkpt lat="33.4987953" lon="9.6937962"><ele>203.0</ele><time>2026-04-29T08:21:22.54Z</time></trkpt><trkpt lat="33.4989889" lon="9.6937634"><ele>203.0</ele><time>2026-04-29T08:21:23.543Z</time></trkpt><trkpt lat="33.499179" lon="9.6937278"><ele>203.0</ele><time>2026-04-29T08:21:24.54Z</time></trkpt><trkpt lat="33.4993623" lon="9.6936914"><ele>203.0</ele><time>2026-04-29T08:21:25.546Z</time></trkpt><trkpt lat="33.4995433" lon="9.6936485"><ele>202.33333333333334</ele><time>2026-04-29T08:21:26.536Z</time></trkpt><trkpt lat="33.4997258" lon="9.6936033"><ele>201.66666666666669</ele><time>2026-04-29T08:21:27.539Z</time></trkpt><trkpt lat="33.4999071" lon="9.6935626"><ele>201.0</ele><time>2026-04-29T08:21:28.54Z</time></trkpt><trkpt lat="33.5000842" lon="9.6935218"><ele>200.66666666666669</ele><time>2026-04-29T08:21:29.545Z</time></trkpt><trkpt lat="33.5002647" lon="9.6934803"><ele>200.33333333333334</ele><time>2026-04-29T08:21:30.54Z</time></trkpt><trkpt lat="33.5004453" lon="9.6934378"><ele>200.0</ele><time>2026-04-29T08:21:31.54Z</time></trkpt><trkpt lat="33.500623" lon="9.693395"><ele>200.0</ele><time>2026-04-29T08:21:32.54Z</time></trkpt><trkpt lat="33.5008056" lon="9.6933574"><ele>200.0</ele><time>2026-04-29T08:21:33.535Z</time></trkpt><trkpt lat="33.5009896" lon="9.693314"><ele>200.0</ele><time>2026-04-29T08:21:34.543Z</time></trkpt><trkpt lat="33.5011753" lon="9.6932733"><ele>199.66666666666669</ele><time>2026-04-29T08:21:35.541Z</time></trkpt><trkpt lat="33.5013566" lon="9.6932316"><ele>199.33333333333331</ele><time>2026-04-29T08:21:36.537Z</time></trkpt><trkpt lat="33.5015353" lon="9.6931864"><ele>199.0</ele><time>2026-04-29T08:21:37.534Z</time></trkpt><trkpt lat="33.5017159" lon="9.6931433"><ele>199.0</ele><time>2026-04-29T08:21:38.529Z</time></trkpt><trkpt lat="33.5018917" lon="9.6931013"><ele>199.0</ele><time>2026-04-29T08:21:39.537Z</time></trkpt><trkpt lat="33.5020689" lon="9.6930629"><ele>199.0</ele><time>2026-04-29T08:21:40.546Z</time></trkpt><trkpt lat="33.5022434" lon="9.6930217"><ele>200.0</ele><time>2026-04-29T08:21:41.539Z</time></trkpt><trkpt lat="33.5024177" lon="9.6929826"><ele>201.0</ele><time>2026-04-29T08:21:42.542Z</time></trkpt><trkpt lat="33.5025935" lon="9.6929441"><ele>202.0</ele><time>2026-04-29T08:21:43.538Z</time></trkpt><trkpt lat="33.5027681" lon="9.6929029"><ele>202.33333333333331</ele><time>2026-04-29T08:21:44.563Z</time></trkpt><trkpt lat="33.502947" lon="9.6928646"><ele>202.66666666666669</ele><time>2026-04-29T08:21:45.534Z</time></trkpt><trkpt lat="33.5031232" lon="9.6928235"><ele>203.0</ele><time>2026-04-29T08:21:46.549Z</time></trkpt><trkpt lat="33.5032975" lon="9.6927786"><ele>203.0</ele><time>2026-04-29T08:21:47.536Z</time></trkpt><trkpt lat="33.5034727" lon="9.6927363"><ele>203.0</ele><time>2026-04-29T08:21:48.542Z</time></trkpt><trkpt lat="33.5036535" lon="9.6926963"><ele>203.0</ele><time>2026-04-29T08:21:49.541Z</time></trkpt><trkpt lat="33.5038265" lon="9.6926556"><ele>203.33333333333334</ele><time>2026-04-29T08:21:50.543Z</time></trkpt><trkpt lat="33.504002" lon="9.6926141"><ele>203.66666666666669</ele><time>2026-04-29T08:21:51.546Z</time></trkpt><trkpt lat="33.5041789" lon="9.6925722"><ele>204.0</ele><time>2026-04-29T08:21:52.538Z</time></trkpt><trkpt lat="33.5043571" lon="9.6925299"><ele>204.0</ele><time>2026-04-29T08:21:53.555Z</time></trkpt><trkpt lat="33.5045345" lon="9.6924872"><ele>204.0</ele><time>2026-04-29T08:21:54.546Z</time></trkpt><trkpt lat="33.5047119" lon="9.6924436"><ele>204.0</ele><time>2026-04-29T08:21:55.538Z</time></trkpt><trkpt lat="33.5048934" lon="9.6923981"><ele>203.66666666666669</ele><time>2026-04-29T08:21:56.547Z</time></trkpt><trkpt lat="33.5050688" lon="9.692354"><ele>203.33333333333334</ele><time>2026-04-29T08:21:57.539Z</time></trkpt><trkpt lat="33.5052421" lon="9.6923085"><ele>203.0</ele><time>2026-04-29T08:21:58.545Z</time></trkpt><trkpt lat="33.505414" lon="9.6922687"><ele>203.0</ele><time>2026-04-29T08:21:59.545Z</time></trkpt><trkpt lat="33.5055873" lon="9.6922268"><ele>203.0</ele><time>2026-04-29T08:22:00.531Z</time></trkpt><trkpt lat="33.5057627" lon="9.6921866"><ele>203.0</ele><time>2026-04-29T08:22:01.542Z</time></trkpt><trkpt lat="33.5059388" lon="9.6921426"><ele>203.0</ele><time>2026-04-29T08:22:02.54Z</time></trkpt><trkpt lat="33.5061171" lon="9.6920956"><ele>203.0</ele><time>2026-04-29T08:22:03.533Z</time></trkpt><trkpt lat="33.5062989" lon="9.6920561"><ele>203.0</ele><time>2026-04-29T08:22:04.541Z</time></trkpt><trkpt lat="33.5064756" lon="9.692016"><ele>203.0</ele><time>2026-04-29T08:22:05.557Z</time></trkpt><trkpt lat="33.5066535" lon="9.6919805"><ele>203.0</ele><time>2026-04-29T08:22:06.541Z</time></trkpt><trkpt lat="33.5068298" lon="9.691942"><ele>203.0</ele><time>2026-04-29T08:22:07.532Z</time></trkpt><trkpt lat="33.5070055" lon="9.6918904"><ele>203.0</ele><time>2026-04-29T08:22:08.539Z</time></trkpt><trkpt lat="33.5071779" lon="9.6918333"><ele>203.0</ele><time>2026-04-29T08:22:09.541Z</time></trkpt><trkpt lat="33.5073538" lon="9.691791"><ele>203.0</ele><time>2026-04-29T08:22:10.535Z</time></trkpt><trkpt lat="33.5075269" lon="9.6917508"><ele>203.0</ele><time>2026-04-29T08:22:11.542Z</time></trkpt><trkpt lat="33.507698" lon="9.6917024"><ele>203.0</ele><time>2026-04-29T08:22:12.544Z</time></trkpt><trkpt lat="33.5078769" lon="9.6916649"><ele>203.0</ele><time>2026-04-29T08:22:13.542Z</time></trkpt><trkpt lat="33.5080581" lon="9.6916268"><ele>204.33333333333334</ele><time>2026-04-29T08:22:14.53Z</time></trkpt><trkpt lat="33.5082402" lon="9.6915826"><ele>205.66666666666669</ele><time>2026-04-29T08:22:15.54Z</time></trkpt><trkpt lat="33.5084141" lon="9.6915365"><ele>207.0</ele><time>2026-04-29T08:22:16.542Z</time></trkpt><trkpt lat="33.5085901" lon="9.6915045"><ele>208.0</ele><time>2026-04-29T08:22:17.538Z</time></trkpt><trkpt lat="33.5087697" lon="9.6914795"><ele>209.0</ele><time>2026-04-29T08:22:18.532Z</time></trkpt><trkpt lat="33.5089439" lon="9.69144"><ele>210.0</ele><time>2026-04-29T08:22:19.525Z</time></trkpt><trkpt lat="33.5091158" lon="9.6913972"><ele>210.0</ele><time>2026-04-29T08:22:20.537Z</time></trkpt><trkpt lat="33.5092922" lon="9.6913536"><ele>210.0</ele><time>2026-04-29T08:22:21.537Z</time></trkpt><trkpt lat="33.5094706" lon="9.6913145"><ele>210.0</ele><time>2026-04-29T08:22:22.544Z</time></trkpt><trkpt lat="33.509652" lon="9.6912585"><ele>209.33333333333331</ele><time>2026-04-29T08:22:23.539Z</time></trkpt><trkpt lat="33.5098318" lon="9.6912024"><ele>208.66666666666666</ele><time>2026-04-29T08:22:24.53Z</time></trkpt><trkpt lat="33.5100137" lon="9.6911621"><ele>208.0</ele><time>2026-04-29T08:22:25.541Z</time></trkpt><trkpt lat="33.5101904" lon="9.6911336"><ele>209.0</ele><time>2026-04-29T08:22:26.54Z</time></trkpt><trkpt lat="33.5103696" lon="9.6910837"><ele>210.0</ele><time>2026-04-29T08:22:27.539Z</time></trkpt><trkpt lat="33.5105499" lon="9.6910354"><ele>211.0</ele><time>2026-04-29T08:22:28.544Z</time></trkpt><trkpt lat="33.5107323" lon="9.6909907"><ele>211.0</ele><time>2026-04-29T08:22:29.542Z</time></trkpt><trkpt lat="33.5109094" lon="9.6909536"><ele>211.0</ele><time>2026-04-29T08:22:30.552Z</time></trkpt><trkpt lat="33.5110813" lon="9.6909135"><ele>211.0</ele><time>2026-04-29T08:22:31.539Z</time></trkpt><trkpt lat="33.5112531" lon="9.6908648"><ele>210.33333333333331</ele><time>2026-04-29T08:22:32.541Z</time></trkpt><trkpt lat="33.5114261" lon="9.6908235"><ele>209.66666666666669</ele><time>2026-04-29T08:22:33.54Z</time></trkpt><trkpt lat="33.5116003" lon="9.6908003"><ele>209.0</ele><time>2026-04-29T08:22:34.539Z</time></trkpt><trkpt lat="33.5117794" lon="9.6907632"><ele>209.0</ele><time>2026-04-29T08:22:35.528Z</time></trkpt><trkpt lat="33.5119552" lon="9.6907103"><ele>209.0</ele><time>2026-04-29T08:22:36.539Z</time></trkpt><trkpt lat="33.5121301" lon="9.6906658"><ele>209.0</ele><time>2026-04-29T08:22:37.543Z</time></trkpt><trkpt lat="33.5123125" lon="9.6906361"><ele>208.0</ele><time>2026-04-29T08:22:38.541Z</time></trkpt><trkpt lat="33.5124952" lon="9.6905928"><ele>207.0</ele><time>2026-04-29T08:22:39.538Z</time></trkpt><trkpt lat="33.5126775" lon="9.6905447"><ele>206.0</ele><time>2026-04-29T08:22:40.533Z</time></trkpt><trkpt lat="33.5128669" lon="9.6905058"><ele>205.0</ele><time>2026-04-29T08:22:41.548Z</time></trkpt><trkpt lat="33.5130587" lon="9.6904688"><ele>204.0</ele><time>2026-04-29T08:22:42.559Z</time></trkpt><trkpt lat="33.5132386" lon="9.6904152"><ele>203.0</ele><time>2026-04-29T08:22:43.531Z</time></trkpt><trkpt lat="33.5134133" lon="9.690351"><ele>203.0</ele><time>2026-04-29T08:22:44.541Z</time></trkpt><trkpt lat="33.5135906" lon="9.6903135"><ele>203.0</ele><time>2026-04-29T08:22:45.543Z</time></trkpt><trkpt lat="33.5137732" lon="9.6902837"><ele>203.0</ele><time>2026-04-29T08:22:46.551Z</time></trkpt><trkpt lat="33.5139476" lon="9.6902351"><ele>205.0</ele><time>2026-04-29T08:22:47.543Z</time></trkpt><trkpt lat="33.5141164" lon="9.6901796"><ele>207.0</ele><time>2026-04-29T08:22:48.549Z</time></trkpt><trkpt lat="33.5143034" lon="9.6901354"><ele>209.0</ele><time>2026-04-29T08:22:49.531Z</time></trkpt><trkpt lat="33.5144914" lon="9.6901007"><ele>208.0</ele><time>2026-04-29T08:22:50.535Z</time></trkpt><trkpt lat="33.514677" lon="9.690066"><ele>207.0</ele><time>2026-04-29T08:22:51.54Z</time></trkpt><trkpt lat="33.5148591" lon="9.6900375"><ele>206.0</ele><time>2026-04-29T08:22:52.544Z</time></trkpt><trkpt lat="33.5150418" lon="9.6900037"><ele>206.0</ele><time>2026-04-29T08:22:53.54Z</time></trkpt><trkpt lat="33.5152238" lon="9.6899713"><ele>206.0</ele><time>2026-04-29T08:22:54.537Z</time></trkpt><trkpt lat="33.5154042" lon="9.6899412"><ele>206.0</ele><time>2026-04-29T08:22:55.539Z</time></trkpt><trkpt lat="33.5155929" lon="9.6899024"><ele>205.33333333333334</ele><time>2026-04-29T08:22:56.539Z</time></trkpt><trkpt lat="33.515778" lon="9.6898723"><ele>204.66666666666669</ele><time>2026-04-29T08:22:57.542Z</time></trkpt><trkpt lat="33.5159617" lon="9.6898392"><ele>204.0</ele><time>2026-04-29T08:22:58.537Z</time></trkpt><trkpt lat="33.5161443" lon="9.6898037"><ele>203.33333333333331</ele><time>2026-04-29T08:22:59.539Z</time></trkpt><trkpt lat="33.5163239" lon="9.689767"><ele>202.66666666666666</ele><time>2026-04-29T08:23:00.533Z</time></trkpt><trkpt lat="33.516508" lon="9.6897302"><ele>202.0</ele><time>2026-04-29T08:23:01.541Z</time></trkpt><trkpt lat="33.5166906" lon="9.689688"><ele>202.0</ele><time>2026-04-29T08:23:02.534Z</time></trkpt><trkpt lat="33.5168757" lon="9.689648"><ele>202.0</ele><time>2026-04-29T08:23:03.54Z</time></trkpt><trkpt lat="33.5170591" lon="9.6896156"><ele>202.0</ele><time>2026-04-29T08:23:04.527Z</time></trkpt><trkpt lat="33.5172392" lon="9.6895872"><ele>201.0</ele><time>2026-04-29T08:23:05.533Z</time></trkpt><trkpt lat="33.5174215" lon="9.6895549"><ele>200.0</ele><time>2026-04-29T08:23:06.526Z</time></trkpt><trkpt lat="33.517604" lon="9.6895174"><ele>199.0</ele><time>2026-04-29T08:23:07.544Z</time></trkpt><trkpt lat="33.5177831" lon="9.6894809"><ele>198.0</ele><time>2026-04-29T08:23:08.532Z</time></trkpt><trkpt lat="33.5179611" lon="9.6894447"><ele>197.0</ele><time>2026-04-29T08:23:09.537Z</time></trkpt><trkpt lat="33.5181377" lon="9.6894162"><ele>196.0</ele><time>2026-04-29T08:23:10.537Z</time></trkpt><trkpt lat="33.518322" lon="9.689386"><ele>196.0</ele><time>2026-04-29T08:23:11.537Z</time></trkpt><trkpt lat="33.5185056" lon="9.6893531"><ele>196.0</ele><time>2026-04-29T08:23:12.54Z</time></trkpt><trkpt lat="33.5186948" lon="9.6893188"><ele>196.0</ele><time>2026-04-29T08:23:13.542Z</time></trkpt><trkpt lat="33.5188808" lon="9.6892828"><ele>195.66666666666666</ele><time>2026-04-29T08:23:14.535Z</time></trkpt><trkpt lat="33.5190652" lon="9.6892462"><ele>195.33333333333331</ele><time>2026-04-29T08:23:15.54Z</time></trkpt><trkpt lat="33.5192427" lon="9.689211"><ele>195.0</ele><time>2026-04-29T08:23:16.53Z</time></trkpt><trkpt lat="33.5194269" lon="9.6891724"><ele>194.66666666666669</ele><time>2026-04-29T08:23:17.542Z</time></trkpt><trkpt lat="33.5196087" lon="9.6891384"><ele>194.33333333333334</ele><time>2026-04-29T08:23:18.532Z</time></trkpt><trkpt lat="33.5197915" lon="9.6891054"><ele>194.0</ele><time>2026-04-29T08:23:19.543Z</time></trkpt><trkpt lat="33.5199725" lon="9.6890711"><ele>194.0</ele><time>2026-04-29T08:23:20.542Z</time></trkpt><trkpt lat="33.5201562" lon="9.6890383"><ele>194.0</ele><time>2026-04-29T08:23:21.534Z</time></trkpt><trkpt lat="33.520339" lon="9.6889988"><ele>194.0</ele><time>2026-04-29T08:23:22.541Z</time></trkpt><trkpt lat="33.5205251" lon="9.6889672"><ele>193.66666666666669</ele><time>2026-04-29T08:23:23.538Z</time></trkpt><trkpt lat="33.520712" lon="9.68893"><ele>193.33333333333331</ele><time>2026-04-29T08:23:24.544Z</time></trkpt><trkpt lat="33.5208942" lon="9.6888941"><ele>193.0</ele><time>2026-04-29T08:23:25.537Z</time></trkpt><trkpt lat="33.5210759" lon="9.68886"><ele>192.66666666666666</ele><time>2026-04-29T08:23:26.541Z</time></trkpt><trkpt lat="33.5212568" lon="9.6888283"><ele>192.33333333333331</ele><time>2026-04-29T08:23:27.543Z</time></trkpt><trkpt lat="33.5214415" lon="9.6887944"><ele>192.0</ele><time>2026-04-29T08:23:28.542Z</time></trkpt><trkpt lat="33.5216294" lon="9.6887549"><ele>192.0</ele><time>2026-04-29T08:23:29.531Z</time></trkpt><trkpt lat="33.5218126" lon="9.6887181"><ele>192.0</ele><time>2026-04-29T08:23:30.544Z</time></trkpt><trkpt lat="33.5219976" lon="9.688681"><ele>192.0</ele><time>2026-04-29T08:23:31.538Z</time></trkpt><trkpt lat="33.5221768" lon="9.6886443"><ele>191.33333333333334</ele><time>2026-04-29T08:23:32.541Z</time></trkpt><trkpt lat="33.5223568" lon="9.6886076"><ele>190.66666666666669</ele><time>2026-04-29T08:23:33.542Z</time></trkpt><trkpt lat="33.5225369" lon="9.688569"><ele>190.0</ele><time>2026-04-29T08:23:34.544Z</time></trkpt><trkpt lat="33.5227212" lon="9.6885314"><ele>188.66666666666669</ele><time>2026-04-29T08:23:35.53Z</time></trkpt><trkpt lat="33.5229043" lon="9.6884901"><ele>187.33333333333334</ele><time>2026-04-29T08:23:36.54Z</time></trkpt><trkpt lat="33.5230886" lon="9.6884569"><ele>186.0</ele><time>2026-04-29T08:23:37.543Z</time></trkpt><trkpt lat="33.5232759" lon="9.6884225"><ele>186.0</ele><time>2026-04-29T08:23:38.543Z</time></trkpt><trkpt lat="33.5234577" lon="9.6883918"><ele>186.0</ele><time>2026-04-29T08:23:39.541Z</time></trkpt><trkpt lat="33.5236417" lon="9.6883565"><ele>186.0</ele><time>2026-04-29T08:23:40.532Z</time></trkpt><trkpt lat="33.5238228" lon="9.6883224"><ele>186.0</ele><time>2026-04-29T08:23:41.545Z</time></trkpt><trkpt lat="33.5240094" lon="9.6882804"><ele>186.0</ele><time>2026-04-29T08:23:42.538Z</time></trkpt><trkpt lat="33.5241969" lon="9.6882431"><ele>186.0</ele><time>2026-04-29T08:23:43.542Z</time></trkpt><trkpt lat="33.5243775" lon="9.6882073"><ele>186.0</ele><time>2026-04-29T08:23:44.545Z</time></trkpt><trkpt lat="33.5245589" lon="9.6881645"><ele>186.0</ele><time>2026-04-29T08:23:45.538Z</time></trkpt><trkpt lat="33.5247353" lon="9.6881319"><ele>186.0</ele><time>2026-04-29T08:23:46.542Z</time></trkpt><trkpt lat="33.5249135" lon="9.6880971"><ele>186.0</ele><time>2026-04-29T08:23:47.532Z</time></trkpt><trkpt lat="33.525096" lon="9.688068"><ele>186.0</ele><time>2026-04-29T08:23:48.54Z</time></trkpt><trkpt lat="33.5252816" lon="9.6880332"><ele>186.0</ele><time>2026-04-29T08:23:49.527Z</time></trkpt><trkpt lat="33.5254676" lon="9.6879995"><ele>186.66666666666666</ele><time>2026-04-29T08:23:50.539Z</time></trkpt><trkpt lat="33.5256491" lon="9.687967"><ele>187.33333333333331</ele><time>2026-04-29T08:23:51.538Z</time></trkpt><trkpt lat="33.5258321" lon="9.687935"><ele>188.0</ele><time>2026-04-29T08:23:52.531Z</time></trkpt><trkpt lat="33.5260146" lon="9.6879018"><ele>188.0</ele><time>2026-04-29T08:23:53.536Z</time></trkpt><trkpt lat="33.5262005" lon="9.6878651"><ele>188.0</ele><time>2026-04-29T08:23:54.564Z</time></trkpt><trkpt lat="33.5263822" lon="9.6878345"><ele>188.0</ele><time>2026-04-29T08:23:55.54Z</time></trkpt><trkpt lat="33.5265659" lon="9.6878003"><ele>188.0</ele><time>2026-04-29T08:23:56.533Z</time></trkpt><trkpt lat="33.5267451" lon="9.6877676"><ele>188.0</ele><time>2026-04-29T08:23:57.541Z</time></trkpt><trkpt lat="33.5269265" lon="9.6877318"><ele>188.0</ele><time>2026-04-29T08:23:58.543Z</time></trkpt><trkpt lat="33.5271086" lon="9.6876951"><ele>187.66666666666666</ele><time>2026-04-29T08:23:59.545Z</time></trkpt><trkpt lat="33.5272901" lon="9.6876608"><ele>187.33333333333334</ele><time>2026-04-29T08:24:00.539Z</time></trkpt><trkpt lat="33.5274726" lon="9.6876257"><ele>187.0</ele><time>2026-04-29T08:24:01.53Z</time></trkpt><trkpt lat="33.5276533" lon="9.6875933"><ele>187.0</ele><time>2026-04-29T08:24:02.541Z</time></trkpt><trkpt lat="33.5278356" lon="9.6875539"><ele>187.0</ele><time>2026-04-29T08:24:03.536Z</time></trkpt><trkpt lat="33.5280164" lon="9.68752"><ele>187.0</ele><time>2026-04-29T08:24:04.543Z</time></trkpt><trkpt lat="33.5282003" lon="9.6874819"><ele>188.0</ele><time>2026-04-29T08:24:05.542Z</time></trkpt><trkpt lat="33.5283793" lon="9.687447"><ele>189.0</ele><time>2026-04-29T08:24:06.538Z</time></trkpt><trkpt lat="33.5285627" lon="9.6874141"><ele>190.0</ele><time>2026-04-29T08:24:07.535Z</time></trkpt><trkpt lat="33.5287447" lon="9.6873792"><ele>190.0</ele><time>2026-04-29T08:24:08.545Z</time></trkpt><trkpt lat="33.5289299" lon="9.6873516"><ele>190.0</ele><time>2026-04-29T08:24:09.528Z</time></trkpt><trkpt lat="33.5291189" lon="9.6873204"><ele>190.0</ele><time>2026-04-29T08:24:10.54Z</time></trkpt><trkpt lat="33.5293063" lon="9.6872872"><ele>190.0</ele><time>2026-04-29T08:24:11.541Z</time></trkpt><trkpt lat="33.5294878" lon="9.6872513"><ele>190.0</ele><time>2026-04-29T08:24:12.538Z</time></trkpt><trkpt lat="33.5296648" lon="9.6872206"><ele>190.0</ele><time>2026-04-29T08:24:13.538Z</time></trkpt><trkpt lat="33.5298481" lon="9.6871867"><ele>189.66666666666669</ele><time>2026-04-29T08:24:14.536Z</time></trkpt><trkpt lat="33.5300294" lon="9.6871555"><ele>189.33333333333334</ele><time>2026-04-29T08:24:15.538Z</time></trkpt><trkpt lat="33.5302106" lon="9.6871267"><ele>189.0</ele><time>2026-04-29T08:24:16.534Z</time></trkpt><trkpt lat="33.5303892" lon="9.687097"><ele>189.66666666666666</ele><time>2026-04-29T08:24:17.531Z</time></trkpt><trkpt lat="33.5305749" lon="9.6870583"><ele>190.33333333333331</ele><time>2026-04-29T08:24:18.531Z</time></trkpt><trkpt lat="33.5307604" lon="9.687017"><ele>191.0</ele><time>2026-04-29T08:24:19.545Z</time></trkpt><trkpt lat="33.5309464" lon="9.6869829"><ele>191.0</ele><time>2026-04-29T08:24:20.537Z</time></trkpt><trkpt lat="33.5311319" lon="9.6869457"><ele>191.0</ele><time>2026-04-29T08:24:21.541Z</time></trkpt><trkpt lat="33.5313155" lon="9.6869068"><ele>191.0</ele><time>2026-04-29T08:24:22.546Z</time></trkpt><trkpt lat="33.5314976" lon="9.6868731"><ele>190.33333333333331</ele><time>2026-04-29T08:24:23.545Z</time></trkpt><trkpt lat="33.5316846" lon="9.6868376"><ele>189.66666666666666</ele><time>2026-04-29T08:24:24.541Z</time></trkpt><trkpt lat="33.5318675" lon="9.6868022"><ele>189.0</ele><time>2026-04-29T08:24:25.539Z</time></trkpt><trkpt lat="33.5320515" lon="9.6867671"><ele>188.66666666666666</ele><time>2026-04-29T08:24:26.544Z</time></trkpt><trkpt lat="33.5322348" lon="9.6867356"><ele>188.33333333333331</ele><time>2026-04-29T08:24:27.527Z</time></trkpt><trkpt lat="33.5324199" lon="9.6867073"><ele>188.0</ele><time>2026-04-29T08:24:28.532Z</time></trkpt><trkpt lat="33.532604" lon="9.6866717"><ele>188.0</ele><time>2026-04-29T08:24:29.53Z</time></trkpt><trkpt lat="33.5327957" lon="9.686632"><ele>188.0</ele><time>2026-04-29T08:24:30.527Z</time></trkpt><trkpt lat="33.5329856" lon="9.6865923"><ele>188.0</ele><time>2026-04-29T08:24:31.537Z</time></trkpt><trkpt lat="33.5331743" lon="9.6865558"><ele>187.66666666666666</ele><time>2026-04-29T08:24:32.526Z</time></trkpt><trkpt lat="33.5333605" lon="9.6865197"><ele>187.33333333333334</ele><time>2026-04-29T08:24:33.537Z</time></trkpt><trkpt lat="33.5335479" lon="9.6864793"><ele>187.0</ele><time>2026-04-29T08:24:34.538Z</time></trkpt><trkpt lat="33.5337333" lon="9.6864379"><ele>187.0</ele><time>2026-04-29T08:24:35.541Z</time></trkpt><trkpt lat="33.5339238" lon="9.6863996"><ele>187.0</ele><time>2026-04-29T08:24:36.539Z</time></trkpt><trkpt lat="33.5341112" lon="9.6863602"><ele>187.0</ele><time>2026-04-29T08:24:37.541Z</time></trkpt><trkpt lat="33.5342958" lon="9.6863229"><ele>187.0</ele><time>2026-04-29T08:24:38.539Z</time></trkpt><trkpt lat="33.5344841" lon="9.6862871"><ele>187.0</ele><time>2026-04-29T08:24:39.544Z</time></trkpt><trkpt lat="33.5346704" lon="9.6862538"><ele>187.0</ele><time>2026-04-29T08:24:40.534Z</time></trkpt><trkpt lat="33.5348608" lon="9.6862125"><ele>187.33333333333334</ele><time>2026-04-29T08:24:41.536Z</time></trkpt><trkpt lat="33.535051" lon="9.6861697"><ele>187.66666666666666</ele><time>2026-04-29T08:24:42.529Z</time></trkpt><trkpt lat="33.5352374" lon="9.6861302"><ele>188.0</ele><time>2026-04-29T08:24:43.532Z</time></trkpt><trkpt lat="33.5354254" lon="9.6860893"><ele>188.0</ele><time>2026-04-29T08:24:44.533Z</time></trkpt><trkpt lat="33.5356147" lon="9.6860535"><ele>188.0</ele><time>2026-04-29T08:24:45.538Z</time></trkpt><trkpt lat="33.5358024" lon="9.6860196"><ele>188.0</ele><time>2026-04-29T08:24:46.54Z</time></trkpt><trkpt lat="33.5359855" lon="9.6859914"><ele>188.0</ele><time>2026-04-29T08:24:47.533Z</time></trkpt><trkpt lat="33.5361738" lon="9.6859577"><ele>188.0</ele><time>2026-04-29T08:24:48.543Z</time></trkpt><trkpt lat="33.536363" lon="9.6859292"><ele>188.0</ele><time>2026-04-29T08:24:49.528Z</time></trkpt><trkpt lat="33.5365519" lon="9.685895"><ele>188.0</ele><time>2026-04-29T08:24:50.542Z</time></trkpt><trkpt lat="33.536742" lon="9.6858589"><ele>188.0</ele><time>2026-04-29T08:24:51.542Z</time></trkpt><trkpt lat="33.5369263" lon="9.6858248"><ele>188.0</ele><time>2026-04-29T08:24:52.547Z</time></trkpt><trkpt lat="33.5371189" lon="9.6857924"><ele>188.0</ele><time>2026-04-29T08:24:53.54Z</time></trkpt><trkpt lat="33.5373061" lon="9.685755"><ele>188.0</ele><time>2026-04-29T08:24:54.535Z</time></trkpt><trkpt lat="33.537497" lon="9.6857163"><ele>188.0</ele><time>2026-04-29T08:24:55.544Z</time></trkpt><trkpt lat="33.5376868" lon="9.6856769"><ele>188.0</ele><time>2026-04-29T08:24:56.539Z</time></trkpt><trkpt lat="33.537877" lon="9.6856395"><ele>188.0</ele><time>2026-04-29T08:24:57.533Z</time></trkpt><trkpt lat="33.5380627" lon="9.6856115"><ele>188.0</ele><time>2026-04-29T08:24:58.546Z</time></trkpt><trkpt lat="33.5382452" lon="9.6855773"><ele>188.0</ele><time>2026-04-29T08:24:59.545Z</time></trkpt><trkpt lat="33.5384237" lon="9.6855305"><ele>188.0</ele><time>2026-04-29T08:25:00.529Z</time></trkpt><trkpt lat="33.5386063" lon="9.6854999"><ele>188.0</ele><time>2026-04-29T08:25:01.538Z</time></trkpt><trkpt lat="33.538798" lon="9.6854819"><ele>188.0</ele><time>2026-04-29T08:25:02.547Z</time></trkpt><trkpt lat="33.538986" lon="9.6854423"><ele>188.0</ele><time>2026-04-29T08:25:03.521Z</time></trkpt><trkpt lat="33.5391653" lon="9.6853799"><ele>188.0</ele><time>2026-04-29T08:25:04.541Z</time></trkpt><trkpt lat="33.539349" lon="9.6853318"><ele>188.0</ele><time>2026-04-29T08:25:05.542Z</time></trkpt><trkpt lat="33.5395422" lon="9.6853149"><ele>188.0</ele><time>2026-04-29T08:25:06.528Z</time></trkpt><trkpt lat="33.539733" lon="9.6853003"><ele>188.0</ele><time>2026-04-29T08:25:07.553Z</time></trkpt><trkpt lat="33.5399241" lon="9.6852597"><ele>187.33333333333331</ele><time>2026-04-29T08:25:08.532Z</time></trkpt><trkpt lat="33.5401074" lon="9.6852106"><ele>186.66666666666666</ele><time>2026-04-29T08:25:09.54Z</time></trkpt><trkpt lat="33.5402907" lon="9.6851868"><ele>186.0</ele><time>2026-04-29T08:25:10.528Z</time></trkpt><trkpt lat="33.5404805" lon="9.6851491"><ele>185.66666666666666</ele><time>2026-04-29T08:25:11.545Z</time></trkpt><trkpt lat="33.540661" lon="9.6851025"><ele>185.33333333333331</ele><time>2026-04-29T08:25:12.54Z</time></trkpt><trkpt lat="33.5408451" lon="9.6850506"><ele>185.0</ele><time>2026-04-29T08:25:13.53Z</time></trkpt><trkpt lat="33.5410363" lon="9.6850274"><ele>184.66666666666666</ele><time>2026-04-29T08:25:14.542Z</time></trkpt><trkpt lat="33.5412253" lon="9.6849994"><ele>184.33333333333334</ele><time>2026-04-29T08:25:15.53Z</time></trkpt><trkpt lat="33.5414111" lon="9.6849612"><ele>184.0</ele><time>2026-04-29T08:25:16.532Z</time></trkpt><trkpt lat="33.5415938" lon="9.6849085"><ele>184.0</ele><time>2026-04-29T08:25:17.541Z</time></trkpt><trkpt lat="33.5417728" lon="9.6848795"><ele>184.0</ele><time>2026-04-29T08:25:18.533Z</time></trkpt><trkpt lat="33.541963" lon="9.6848556"><ele>184.0</ele><time>2026-04-29T08:25:19.532Z</time></trkpt><trkpt lat="33.5421453" lon="9.6848167"><ele>184.66666666666669</ele><time>2026-04-29T08:25:20.541Z</time></trkpt><trkpt lat="33.5423306" lon="9.684764"><ele>185.33333333333334</ele><time>2026-04-29T08:25:21.541Z</time></trkpt><trkpt lat="33.5425176" lon="9.6847243"><ele>186.0</ele><time>2026-04-29T08:25:22.538Z</time></trkpt><trkpt lat="33.5427041" lon="9.6847044"><ele>185.66666666666666</ele><time>2026-04-29T08:25:23.541Z</time></trkpt><trkpt lat="33.5428967" lon="9.684679"><ele>185.33333333333331</ele><time>2026-04-29T08:25:24.533Z</time></trkpt><trkpt lat="33.5430792" lon="9.6846455"><ele>185.0</ele><time>2026-04-29T08:25:25.542Z</time></trkpt><trkpt lat="33.5432672" lon="9.6845955"><ele>185.0</ele><time>2026-04-29T08:25:26.542Z</time></trkpt><trkpt lat="33.5434539" lon="9.6845599"><ele>185.0</ele><time>2026-04-29T08:25:27.532Z</time></trkpt><trkpt lat="33.5436382" lon="9.6845382"><ele>185.0</ele><time>2026-04-29T08:25:28.545Z</time></trkpt><trkpt lat="33.5438211" lon="9.6844965"><ele>185.33333333333331</ele><time>2026-04-29T08:25:29.532Z</time></trkpt><trkpt lat="33.544003" lon="9.6844467"><ele>185.66666666666666</ele><time>2026-04-29T08:25:30.539Z</time></trkpt><trkpt lat="33.5441894" lon="9.6844126"><ele>186.0</ele><time>2026-04-29T08:25:31.544Z</time></trkpt><trkpt lat="33.5443767" lon="9.6844023"><ele>185.33333333333334</ele><time>2026-04-29T08:25:32.538Z</time></trkpt><trkpt lat="33.5445697" lon="9.6843771"><ele>184.66666666666669</ele><time>2026-04-29T08:25:33.531Z</time></trkpt><trkpt lat="33.544746" lon="9.684329"><ele>184.0</ele><time>2026-04-29T08:25:34.533Z</time></trkpt><trkpt lat="33.5449317" lon="9.6842723"><ele>184.0</ele><time>2026-04-29T08:25:35.533Z</time></trkpt><trkpt lat="33.5451141" lon="9.6842484"><ele>184.0</ele><time>2026-04-29T08:25:36.54Z</time></trkpt><trkpt lat="33.5453054" lon="9.6842308"><ele>184.0</ele><time>2026-04-29T08:25:37.541Z</time></trkpt><trkpt lat="33.5454931" lon="9.684198"><ele>184.33333333333334</ele><time>2026-04-29T08:25:38.54Z</time></trkpt><trkpt lat="33.5456773" lon="9.684133"><ele>184.66666666666666</ele><time>2026-04-29T08:25:39.539Z</time></trkpt><trkpt lat="33.5458657" lon="9.6840864"><ele>185.0</ele><time>2026-04-29T08:25:40.526Z</time></trkpt><trkpt lat="33.5460549" lon="9.684065"><ele>184.33333333333331</ele><time>2026-04-29T08:25:41.542Z</time></trkpt><trkpt lat="33.5462465" lon="9.6840525"><ele>183.66666666666666</ele><time>2026-04-29T08:25:42.536Z</time></trkpt><trkpt lat="33.5464289" lon="9.6840162"><ele>183.0</ele><time>2026-04-29T08:25:43.539Z</time></trkpt><trkpt lat="33.5466061" lon="9.6839628"><ele>183.0</ele><time>2026-04-29T08:25:44.537Z</time></trkpt><trkpt lat="33.5467925" lon="9.6839183"><ele>183.0</ele><time>2026-04-29T08:25:45.541Z</time></trkpt><trkpt lat="33.5469799" lon="9.6839037"><ele>183.0</ele><time>2026-04-29T08:25:46.539Z</time></trkpt><trkpt lat="33.5471735" lon="9.6838716"><ele>182.33333333333334</ele><time>2026-04-29T08:25:47.537Z</time></trkpt><trkpt lat="33.5473517" lon="9.6838314"><ele>181.66666666666669</ele><time>2026-04-29T08:25:48.54Z</time></trkpt><trkpt lat="33.5475352" lon="9.6837867"><ele>181.0</ele><time>2026-04-29T08:25:49.535Z</time></trkpt><trkpt lat="33.5477182" lon="9.6837462"><ele>181.33333333333334</ele><time>2026-04-29T08:25:50.542Z</time></trkpt><trkpt lat="33.5479067" lon="9.6837189"><ele>181.66666666666666</ele><time>2026-04-29T08:25:51.535Z</time></trkpt><trkpt lat="33.5480933" lon="9.6836861"><ele>182.0</ele><time>2026-04-29T08:25:52.531Z</time></trkpt><trkpt lat="33.5482827" lon="9.6836542"><ele>182.0</ele><time>2026-04-29T08:25:53.54Z</time></trkpt><trkpt lat="33.5484734" lon="9.6836183"><ele>182.0</ele><time>2026-04-29T08:25:54.538Z</time></trkpt><trkpt lat="33.548667" lon="9.683586"><ele>182.0</ele><time>2026-04-29T08:25:55.542Z</time></trkpt><trkpt lat="33.5488575" lon="9.683548"><ele>182.33333333333331</ele><time>2026-04-29T08:25:56.545Z</time></trkpt><trkpt lat="33.5490479" lon="9.6835061"><ele>182.66666666666666</ele><time>2026-04-29T08:25:57.546Z</time></trkpt><trkpt lat="33.5492395" lon="9.6834742"><ele>183.0</ele><time>2026-04-29T08:25:58.542Z</time></trkpt><trkpt lat="33.5494291" lon="9.6834501"><ele>183.0</ele><time>2026-04-29T08:25:59.546Z</time></trkpt><trkpt lat="33.5496154" lon="9.6834132"><ele>183.0</ele><time>2026-04-29T08:26:00.54Z</time></trkpt><trkpt lat="33.5497906" lon="9.6833668"><ele>183.0</ele><time>2026-04-29T08:26:01.536Z</time></trkpt><trkpt lat="33.5499692" lon="9.6833225"><ele>183.0</ele><time>2026-04-29T08:26:02.53Z</time></trkpt><trkpt lat="33.5501501" lon="9.6832891"><ele>183.0</ele><time>2026-04-29T08:26:03.527Z</time></trkpt><trkpt lat="33.5503398" lon="9.6832661"><ele>183.0</ele><time>2026-04-29T08:26:04.536Z</time></trkpt><trkpt lat="33.5505288" lon="9.6832351"><ele>183.66666666666666</ele><time>2026-04-29T08:26:05.527Z</time></trkpt><trkpt lat="33.5507181" lon="9.6831982"><ele>184.33333333333331</ele><time>2026-04-29T08:26:06.542Z</time></trkpt><trkpt lat="33.5509081" lon="9.6831586"><ele>185.0</ele><time>2026-04-29T08:26:07.528Z</time></trkpt><trkpt lat="33.5510963" lon="9.6831164"><ele>185.66666666666666</ele><time>2026-04-29T08:26:08.54Z</time></trkpt><trkpt lat="33.5512787" lon="9.6830817"><ele>186.33333333333334</ele><time>2026-04-29T08:26:09.546Z</time></trkpt><trkpt lat="33.5514614" lon="9.683046"><ele>187.0</ele><time>2026-04-29T08:26:10.542Z</time></trkpt><trkpt lat="33.551641" lon="9.6830143"><ele>187.0</ele><time>2026-04-29T08:26:11.538Z</time></trkpt><trkpt lat="33.5518262" lon="9.682977"><ele>187.0</ele><time>2026-04-29T08:26:12.539Z</time></trkpt><trkpt lat="33.552016" lon="9.6829386"><ele>187.0</ele><time>2026-04-29T08:26:13.537Z</time></trkpt><trkpt lat="33.5522115" lon="9.6828947"><ele>187.0</ele><time>2026-04-29T08:26:14.534Z</time></trkpt><trkpt lat="33.552405" lon="9.6828565"><ele>187.0</ele><time>2026-04-29T08:26:15.532Z</time></trkpt><trkpt lat="33.5525973" lon="9.6828134"><ele>187.0</ele><time>2026-04-29T08:26:16.538Z</time></trkpt><trkpt lat="33.5527861" lon="9.6827794"><ele>186.66666666666669</ele><time>2026-04-29T08:26:17.541Z</time></trkpt><trkpt lat="33.5529754" lon="9.6827558"><ele>186.33333333333334</ele><time>2026-04-29T08:26:18.526Z</time></trkpt><trkpt lat="33.5531559" lon="9.6827187"><ele>186.0</ele><time>2026-04-29T08:26:19.531Z</time></trkpt><trkpt lat="33.5533404" lon="9.6826735"><ele>186.0</ele><time>2026-04-29T08:26:20.541Z</time></trkpt><trkpt lat="33.5535247" lon="9.6826396"><ele>186.0</ele><time>2026-04-29T08:26:21.533Z</time></trkpt><trkpt lat="33.5537102" lon="9.6826208"><ele>186.0</ele><time>2026-04-29T08:26:22.545Z</time></trkpt><trkpt lat="33.5538939" lon="9.6825915"><ele>186.0</ele><time>2026-04-29T08:26:23.547Z</time></trkpt><trkpt lat="33.55407" lon="9.6825408"><ele>186.0</ele><time>2026-04-29T08:26:24.54Z</time></trkpt><trkpt lat="33.5542471" lon="9.6825082"><ele>186.0</ele><time>2026-04-29T08:26:25.534Z</time></trkpt><trkpt lat="33.5544415" lon="9.6824859"><ele>186.0</ele><time>2026-04-29T08:26:26.533Z</time></trkpt><trkpt lat="33.5546294" lon="9.6824629"><ele>186.0</ele><time>2026-04-29T08:26:27.531Z</time></trkpt><trkpt lat="33.5548186" lon="9.6824239"><ele>186.0</ele><time>2026-04-29T08:26:28.537Z</time></trkpt><trkpt lat="33.5550098" lon="9.6823829"><ele>186.0</ele><time>2026-04-29T08:26:29.541Z</time></trkpt><trkpt lat="33.5552009" lon="9.6823508"><ele>186.0</ele><time>2026-04-29T08:26:30.545Z</time></trkpt><trkpt lat="33.5553905" lon="9.6823158"><ele>186.0</ele><time>2026-04-29T08:26:31.534Z</time></trkpt><trkpt lat="33.55558" lon="9.682276"><ele>186.0</ele><time>2026-04-29T08:26:32.54Z</time></trkpt><trkpt lat="33.5557654" lon="9.6822337"><ele>186.0</ele><time>2026-04-29T08:26:33.536Z</time></trkpt><trkpt lat="33.5559444" lon="9.6821987"><ele>186.0</ele><time>2026-04-29T08:26:34.531Z</time></trkpt><trkpt lat="33.5561229" lon="9.6821641"><ele>186.66666666666666</ele><time>2026-04-29T08:26:35.534Z</time></trkpt><trkpt lat="33.5563065" lon="9.6821272"><ele>187.33333333333331</ele><time>2026-04-29T08:26:36.54Z</time></trkpt><trkpt lat="33.5564943" lon="9.6820902"><ele>188.0</ele><time>2026-04-29T08:26:37.544Z</time></trkpt><trkpt lat="33.5566858" lon="9.6820555"><ele>188.0</ele><time>2026-04-29T08:26:38.536Z</time></trkpt><trkpt lat="33.5568773" lon="9.6820201"><ele>188.0</ele><time>2026-04-29T08:26:39.535Z</time></trkpt><trkpt lat="33.5570681" lon="9.6819881"><ele>188.0</ele><time>2026-04-29T08:26:40.525Z</time></trkpt><trkpt lat="33.5572587" lon="9.6819532"><ele>188.33333333333331</ele><time>2026-04-29T08:26:41.542Z</time></trkpt><trkpt lat="33.5574454" lon="9.6819145"><ele>188.66666666666666</ele><time>2026-04-29T08:26:42.528Z</time></trkpt><trkpt lat="33.5576294" lon="9.6818704"><ele>189.0</ele><time>2026-04-29T08:26:43.534Z</time></trkpt><trkpt lat="33.5578219" lon="9.6818357"><ele>189.33333333333334</ele><time>2026-04-29T08:26:44.536Z</time></trkpt><trkpt lat="33.558014" lon="9.6818089"><ele>189.66666666666669</ele><time>2026-04-29T08:26:45.543Z</time></trkpt><trkpt lat="33.5582055" lon="9.6817686"><ele>190.0</ele><time>2026-04-29T08:26:46.534Z</time></trkpt><trkpt lat="33.5583876" lon="9.681724"><ele>190.0</ele><time>2026-04-29T08:26:47.535Z</time></trkpt><trkpt lat="33.5585747" lon="9.6816767"><ele>190.0</ele><time>2026-04-29T08:26:48.536Z</time></trkpt><trkpt lat="33.5587607" lon="9.6816349"><ele>190.0</ele><time>2026-04-29T08:26:49.54Z</time></trkpt><trkpt lat="33.5589474" lon="9.6816148"><ele>190.0</ele><time>2026-04-29T08:26:50.525Z</time></trkpt><trkpt lat="33.5591386" lon="9.6815976"><ele>190.0</ele><time>2026-04-29T08:26:51.545Z</time></trkpt><trkpt lat="33.5593218" lon="9.6815603"><ele>190.0</ele><time>2026-04-29T08:26:52.544Z</time></trkpt><trkpt lat="33.5595088" lon="9.6815083"><ele>189.33333333333334</ele><time>2026-04-29T08:26:53.543Z</time></trkpt><trkpt lat="33.5596917" lon="9.6814703"><ele>188.66666666666666</ele><time>2026-04-29T08:26:54.535Z</time></trkpt><trkpt lat="33.5598724" lon="9.6814505"><ele>188.0</ele><time>2026-04-29T08:26:55.543Z</time></trkpt><trkpt lat="33.5600638" lon="9.6814273"><ele>188.0</ele><time>2026-04-29T08:26:56.538Z</time></trkpt><trkpt lat="33.5602405" lon="9.6813826"><ele>188.0</ele><time>2026-04-29T08:26:57.543Z</time></trkpt><trkpt lat="33.5604278" lon="9.6813316"><ele>188.0</ele><time>2026-04-29T08:26:58.551Z</time></trkpt><trkpt lat="33.5606233" lon="9.6813061"><ele>187.33333333333331</ele><time>2026-04-29T08:26:59.541Z</time></trkpt><trkpt lat="33.5608139" lon="9.6812862"><ele>186.66666666666666</ele><time>2026-04-29T08:27:00.555Z</time></trkpt><trkpt lat="33.5609988" lon="9.6812568"><ele>186.0</ele><time>2026-04-29T08:27:01.54Z</time></trkpt><trkpt lat="33.5611868" lon="9.6812154"><ele>186.0</ele><time>2026-04-29T08:27:02.53Z</time></trkpt><trkpt lat="33.5613709" lon="9.681172"><ele>186.0</ele><time>2026-04-29T08:27:03.549Z</time></trkpt><trkpt lat="33.561556" lon="9.6811288"><ele>186.0</ele><time>2026-04-29T08:27:04.546Z</time></trkpt><trkpt lat="33.5617388" lon="9.6810953"><ele>186.33333333333334</ele><time>2026-04-29T08:27:05.534Z</time></trkpt><trkpt lat="33.5619222" lon="9.6810656"><ele>186.66666666666669</ele><time>2026-04-29T08:27:06.548Z</time></trkpt><trkpt lat="33.5621062" lon="9.6810303"><ele>187.0</ele><time>2026-04-29T08:27:07.542Z</time></trkpt><trkpt lat="33.5622912" lon="9.680992"><ele>187.0</ele><time>2026-04-29T08:27:08.546Z</time></trkpt><trkpt lat="33.5624743" lon="9.6809546"><ele>187.0</ele><time>2026-04-29T08:27:09.548Z</time></trkpt><trkpt lat="33.5626625" lon="9.6809237"><ele>187.0</ele><time>2026-04-29T08:27:10.541Z</time></trkpt><trkpt lat="33.562846" lon="9.6808916"><ele>187.0</ele><time>2026-04-29T08:27:11.531Z</time></trkpt><trkpt lat="33.5630282" lon="9.6808574"><ele>187.0</ele><time>2026-04-29T08:27:12.532Z</time></trkpt><trkpt lat="33.5632102" lon="9.6808211"><ele>187.0</ele><time>2026-04-29T08:27:13.545Z</time></trkpt><trkpt lat="33.5633939" lon="9.6807823"><ele>187.0</ele><time>2026-04-29T08:27:14.542Z</time></trkpt><trkpt lat="33.5635815" lon="9.6807435"><ele>187.0</ele><time>2026-04-29T08:27:15.545Z</time></trkpt><trkpt lat="33.5637694" lon="9.6807077"><ele>187.0</ele><time>2026-04-29T08:27:16.536Z</time></trkpt><trkpt lat="33.5639531" lon="9.6806772"><ele>188.0</ele><time>2026-04-29T08:27:17.542Z</time></trkpt><trkpt lat="33.5641414" lon="9.6806451"><ele>189.0</ele><time>2026-04-29T08:27:18.54Z</time></trkpt><trkpt lat="33.5643247" lon="9.6806169"><ele>190.0</ele><time>2026-04-29T08:27:19.54Z</time></trkpt><trkpt lat="33.5645086" lon="9.6805793"><ele>190.0</ele><time>2026-04-29T08:27:20.529Z</time></trkpt><trkpt lat="33.5646913" lon="9.6805416"><ele>190.0</ele><time>2026-04-29T08:27:21.539Z</time></trkpt><trkpt lat="33.5648737" lon="9.680501"><ele>190.0</ele><time>2026-04-29T08:27:22.531Z</time></trkpt><trkpt lat="33.5650544" lon="9.6804645"><ele>190.0</ele><time>2026-04-29T08:27:23.538Z</time></trkpt><trkpt lat="33.5652395" lon="9.6804305"><ele>190.0</ele><time>2026-04-29T08:27:24.539Z</time></trkpt><trkpt lat="33.5654209" lon="9.680399"><ele>190.0</ele><time>2026-04-29T08:27:25.552Z</time></trkpt><trkpt lat="33.5656054" lon="9.6803625"><ele>190.66666666666669</ele><time>2026-04-29T08:27:26.529Z</time></trkpt><trkpt lat="33.5657892" lon="9.680328"><ele>191.33333333333334</ele><time>2026-04-29T08:27:27.54Z</time></trkpt><trkpt lat="33.5659737" lon="9.6802911"><ele>192.0</ele><time>2026-04-29T08:27:28.547Z</time></trkpt><trkpt lat="33.5661611" lon="9.6802562"><ele>192.66666666666669</ele><time>2026-04-29T08:27:29.542Z</time></trkpt><trkpt lat="33.5663284" lon="9.6802246"><ele>193.33333333333334</ele><time>2026-04-29T08:27:30.548Z</time></trkpt><trkpt lat="33.5664792" lon="9.6801999"><ele>194.0</ele><time>2026-04-29T08:27:31.537Z</time></trkpt><trkpt lat="33.5666151" lon="9.680191"><ele>194.0</ele><time>2026-04-29T08:27:32.545Z</time></trkpt><trkpt lat="33.5667389" lon="9.6801921"><ele>194.0</ele><time>2026-04-29T08:27:33.531Z</time></trkpt><trkpt lat="33.5668669" lon="9.6802262"><ele>194.0</ele><time>2026-04-29T08:27:34.538Z</time></trkpt><trkpt lat="33.5670043" lon="9.6802719"><ele>194.0</ele><time>2026-04-29T08:27:35.543Z</time></trkpt><trkpt lat="33.5671412" lon="9.68035"><ele>194.0</ele><time>2026-04-29T08:27:36.541Z</time></trkpt><trkpt lat="33.5672938" lon="9.6804434"><ele>194.0</ele><time>2026-04-29T08:27:37.531Z</time></trkpt><trkpt lat="33.5674423" lon="9.6805387"><ele>194.0</ele><time>2026-04-29T08:27:38.545Z</time></trkpt><trkpt lat="33.567594" lon="9.6806383"><ele>194.0</ele><time>2026-04-29T08:27:39.536Z</time></trkpt><trkpt lat="33.5677439" lon="9.6807433"><ele>194.0</ele><time>2026-04-29T08:27:40.539Z</time></trkpt><trkpt lat="33.5679029" lon="9.6808491"><ele>194.0</ele><time>2026-04-29T08:27:41.54Z</time></trkpt><trkpt lat="33.5680625" lon="9.6809537"><ele>193.33333333333334</ele><time>2026-04-29T08:27:42.528Z</time></trkpt><trkpt lat="33.5682225" lon="9.681058"><ele>192.66666666666669</ele><time>2026-04-29T08:27:43.546Z</time></trkpt><trkpt lat="33.5683789" lon="9.6811625"><ele>192.0</ele><time>2026-04-29T08:27:44.534Z</time></trkpt><trkpt lat="33.5685357" lon="9.6812645"><ele>192.33333333333331</ele><time>2026-04-29T08:27:45.532Z</time></trkpt><trkpt lat="33.5686903" lon="9.6813687"><ele>192.66666666666666</ele><time>2026-04-29T08:27:46.529Z</time></trkpt><trkpt lat="33.5688441" lon="9.6814728"><ele>193.0</ele><time>2026-04-29T08:27:47.53Z</time></trkpt><trkpt lat="33.5690002" lon="9.6815778"><ele>193.0</ele><time>2026-04-29T08:27:48.525Z</time></trkpt><trkpt lat="33.5691596" lon="9.6816857"><ele>193.0</ele><time>2026-04-29T08:27:49.546Z</time></trkpt><trkpt lat="33.5693208" lon="9.6817924"><ele>193.0</ele><time>2026-04-29T08:27:50.537Z</time></trkpt><trkpt lat="33.5694859" lon="9.6819015"><ele>192.66666666666666</ele><time>2026-04-29T08:27:51.529Z</time></trkpt><trkpt lat="33.5696517" lon="9.6820152"><ele>192.33333333333331</ele><time>2026-04-29T08:27:52.53Z</time></trkpt><trkpt lat="33.5698149" lon="9.6821234"><ele>192.0</ele><time>2026-04-29T08:27:53.533Z</time></trkpt><trkpt lat="33.5699786" lon="9.6822369"><ele>192.0</ele><time>2026-04-29T08:27:54.543Z</time></trkpt><trkpt lat="33.5701419" lon="9.6823445"><ele>192.0</ele><time>2026-04-29T08:27:55.534Z</time></trkpt><trkpt lat="33.5703039" lon="9.6824513"><ele>192.0</ele><time>2026-04-29T08:27:56.54Z</time></trkpt><trkpt lat="33.5704623" lon="9.6825614"><ele>190.0</ele><time>2026-04-29T08:27:57.539Z</time></trkpt><trkpt lat="33.5706218" lon="9.6826652"><ele>188.0</ele><time>2026-04-29T08:27:58.53Z</time></trkpt><trkpt lat="33.5707807" lon="9.6827723"><ele>186.0</ele><time>2026-04-29T08:27:59.535Z</time></trkpt><trkpt lat="33.5709407" lon="9.6828763"><ele>186.0</ele><time>2026-04-29T08:28:00.533Z</time></trkpt><trkpt lat="33.5711056" lon="9.6829796"><ele>186.0</ele><time>2026-04-29T08:28:01.543Z</time></trkpt><trkpt lat="33.5712666" lon="9.6830859"><ele>186.0</ele><time>2026-04-29T08:28:02.529Z</time></trkpt><trkpt lat="33.5714243" lon="9.6831924"><ele>186.0</ele><time>2026-04-29T08:28:03.541Z</time></trkpt><trkpt lat="33.5715827" lon="9.6833037"><ele>186.0</ele><time>2026-04-29T08:28:04.531Z</time></trkpt><trkpt lat="33.5717392" lon="9.683414"><ele>186.0</ele><time>2026-04-29T08:28:05.537Z</time></trkpt><trkpt lat="33.5718998" lon="9.6835254"><ele>186.66666666666666</ele><time>2026-04-29T08:28:06.53Z</time></trkpt><trkpt lat="33.5720584" lon="9.6836392"><ele>187.33333333333331</ele><time>2026-04-29T08:28:07.535Z</time></trkpt><trkpt lat="33.5722156" lon="9.6837474"><ele>188.0</ele><time>2026-04-29T08:28:08.534Z</time></trkpt><trkpt lat="33.5723753" lon="9.683856"><ele>188.0</ele><time>2026-04-29T08:28:09.543Z</time></trkpt><trkpt lat="33.57254" lon="9.6839617"><ele>188.0</ele><time>2026-04-29T08:28:10.544Z</time></trkpt><trkpt lat="33.5727017" lon="9.6840692"><ele>188.0</ele><time>2026-04-29T08:28:11.532Z</time></trkpt><trkpt lat="33.5728647" lon="9.6841771"><ele>188.66666666666666</ele><time>2026-04-29T08:28:12.54Z</time></trkpt><trkpt lat="33.5730317" lon="9.6842853"><ele>189.33333333333334</ele><time>2026-04-29T08:28:13.548Z</time></trkpt><trkpt lat="33.5731969" lon="9.6843899"><ele>190.0</ele><time>2026-04-29T08:28:14.529Z</time></trkpt><trkpt lat="33.5733611" lon="9.6844964"><ele>190.66666666666669</ele><time>2026-04-29T08:28:15.549Z</time></trkpt><trkpt lat="33.5735236" lon="9.6846023"><ele>191.33333333333334</ele><time>2026-04-29T08:28:16.536Z</time></trkpt><trkpt lat="33.5736794" lon="9.684711"><ele>192.0</ele><time>2026-04-29T08:28:17.532Z</time></trkpt><trkpt lat="33.5738396" lon="9.6848231"><ele>192.0</ele><time>2026-04-29T08:28:18.537Z</time></trkpt><trkpt lat="33.5739996" lon="9.6849311"><ele>192.0</ele><time>2026-04-29T08:28:19.544Z</time></trkpt><trkpt lat="33.5741469" lon="9.6850341"><ele>192.0</ele><time>2026-04-29T08:28:20.54Z</time></trkpt><trkpt lat="33.5742791" lon="9.6851314"><ele>192.0</ele><time>2026-04-29T08:28:21.54Z</time></trkpt><trkpt lat="33.5744024" lon="9.6852165"><ele>192.0</ele><time>2026-04-29T08:28:22.546Z</time></trkpt><trkpt lat="33.5745137" lon="9.685291"><ele>192.0</ele><time>2026-04-29T08:28:23.545Z</time></trkpt><trkpt lat="33.5746097" lon="9.6853544"><ele>192.0</ele><time>2026-04-29T08:28:24.535Z</time></trkpt><trkpt lat="33.5746834" lon="9.6854058"><ele>191.8</ele><time>2026-04-29T08:28:25.528Z</time></trkpt><trkpt lat="33.5747435" lon="9.6854449"><ele>191.6</ele><time>2026-04-29T08:28:26.537Z</time></trkpt><trkpt lat="33.5748186" lon="9.6855028"><ele>191.4</ele><time>2026-04-29T08:28:28.532Z</time></trkpt><trkpt lat="33.5749085" lon="9.6855184"><ele>191.20000000000002</ele><time>2026-04-29T08:28:31.542Z</time></trkpt><trkpt lat="33.5749986" lon="9.6854091"><ele>191.0</ele><time>2026-04-29T08:28:33.546Z</time></trkpt><trkpt lat="33.5750328" lon="9.6853214"><ele>190.8</ele><time>2026-04-29T08:28:34.544Z</time></trkpt><trkpt lat="33.5750697" lon="9.685218"><ele>190.60000000000002</ele><time>2026-04-29T08:28:35.531Z</time></trkpt><trkpt lat="33.5751144" lon="9.685109"><ele>190.4</ele><time>2026-04-29T08:28:36.536Z</time></trkpt><trkpt lat="33.575161" lon="9.6849829"><ele>190.2</ele><time>2026-04-29T08:28:37.544Z</time></trkpt><trkpt lat="33.5752058" lon="9.684857"><ele>190.0</ele><time>2026-04-29T08:28:38.537Z</time></trkpt><trkpt lat="33.5752476" lon="9.6847219"><ele>190.0</ele><time>2026-04-29T08:28:39.534Z</time></trkpt><trkpt lat="33.5752954" lon="9.68458"><ele>190.0</ele><time>2026-04-29T08:28:40.542Z</time></trkpt><trkpt lat="33.5753475" lon="9.6844399"><ele>190.0</ele><time>2026-04-29T08:28:41.531Z</time></trkpt><trkpt lat="33.5754008" lon="9.6842923"><ele>190.0</ele><time>2026-04-29T08:28:42.538Z</time></trkpt><trkpt lat="33.5754618" lon="9.6841332"><ele>189.25</ele><time>2026-04-29T08:28:43.533Z</time></trkpt><trkpt lat="33.5755244" lon="9.6839657"><ele>188.5</ele><time>2026-04-29T08:28:44.533Z</time></trkpt><trkpt lat="33.5755823" lon="9.6838031"><ele>187.75</ele><time>2026-04-29T08:28:45.538Z</time></trkpt><trkpt lat="33.5756411" lon="9.6836415"><ele>187.0</ele><time>2026-04-29T08:28:46.539Z</time></trkpt><trkpt lat="33.5757129" lon="9.683468"><ele>186.66666666666669</ele><time>2026-04-29T08:28:47.577Z</time></trkpt><trkpt lat="33.5757829" lon="9.6832879"><ele>186.33333333333334</ele><time>2026-04-29T08:28:48.528Z</time></trkpt><trkpt lat="33.5758574" lon="9.6830968"><ele>186.0</ele><time>2026-04-29T08:28:49.54Z</time></trkpt><trkpt lat="33.5759365" lon="9.6829057"><ele>185.66666666666666</ele><time>2026-04-29T08:28:50.587Z</time></trkpt><trkpt lat="33.5760151" lon="9.6827144"><ele>185.33333333333331</ele><time>2026-04-29T08:28:51.541Z</time></trkpt><trkpt lat="33.5760939" lon="9.6825196"><ele>185.0</ele><time>2026-04-29T08:28:52.541Z</time></trkpt><trkpt lat="33.5761684" lon="9.6823192"><ele>185.0</ele><time>2026-04-29T08:28:53.529Z</time></trkpt><trkpt lat="33.5762434" lon="9.682117"><ele>185.0</ele><time>2026-04-29T08:28:54.534Z</time></trkpt><trkpt lat="33.5763226" lon="9.6819194"><ele>185.0</ele><time>2026-04-29T08:28:55.541Z</time></trkpt><trkpt lat="33.5764034" lon="9.6817189"><ele>184.66666666666666</ele><time>2026-04-29T08:28:56.543Z</time></trkpt><trkpt lat="33.5764753" lon="9.6815182"><ele>184.33333333333334</ele><time>2026-04-29T08:28:57.575Z</time></trkpt><trkpt lat="33.576552" lon="9.681319"><ele>184.0</ele><time>2026-04-29T08:28:58.578Z</time></trkpt><trkpt lat="33.5766321" lon="9.6811128"><ele>183.33333333333334</ele><time>2026-04-29T08:28:59.53Z</time></trkpt><trkpt lat="33.5767134" lon="9.6809066"><ele>182.66666666666666</ele><time>2026-04-29T08:29:00.544Z</time></trkpt><trkpt lat="33.5767941" lon="9.6806965"><ele>182.0</ele><time>2026-04-29T08:29:01.539Z</time></trkpt><trkpt lat="33.5768775" lon="9.6804818"><ele>182.0</ele><time>2026-04-29T08:29:02.54Z</time></trkpt><trkpt lat="33.5769563" lon="9.6802673"><ele>182.0</ele><time>2026-04-29T08:29:03.542Z</time></trkpt><trkpt lat="33.5770419" lon="9.6800533"><ele>182.0</ele><time>2026-04-29T08:29:04.541Z</time></trkpt><trkpt lat="33.5771276" lon="9.6798407"><ele>182.66666666666666</ele><time>2026-04-29T08:29:05.54Z</time></trkpt><trkpt lat="33.5772111" lon="9.6796203"><ele>183.33333333333334</ele><time>2026-04-29T08:29:06.54Z</time></trkpt><trkpt lat="33.5772937" lon="9.6794043"><ele>184.0</ele><time>2026-04-29T08:29:07.541Z</time></trkpt><trkpt lat="33.5773776" lon="9.6791892"><ele>184.0</ele><time>2026-04-29T08:29:08.534Z</time></trkpt><trkpt lat="33.5774614" lon="9.678971"><ele>184.0</ele><time>2026-04-29T08:29:09.538Z</time></trkpt><trkpt lat="33.5775455" lon="9.6787587"><ele>184.0</ele><time>2026-04-29T08:29:10.531Z</time></trkpt><trkpt lat="33.577629" lon="9.6785437"><ele>183.66666666666669</ele><time>2026-04-29T08:29:11.525Z</time></trkpt><trkpt lat="33.5777122" lon="9.6783274"><ele>183.33333333333334</ele><time>2026-04-29T08:29:12.526Z</time></trkpt><trkpt lat="33.5777932" lon="9.6781119"><ele>183.0</ele><time>2026-04-29T08:29:13.535Z</time></trkpt><trkpt lat="33.5778773" lon="9.6778896"><ele>184.0</ele><time>2026-04-29T08:29:14.532Z</time></trkpt><trkpt lat="33.5779598" lon="9.6776705"><ele>185.0</ele><time>2026-04-29T08:29:15.531Z</time></trkpt><trkpt lat="33.5780466" lon="9.6774483"><ele>186.0</ele><time>2026-04-29T08:29:16.538Z</time></trkpt><trkpt lat="33.5781279" lon="9.6772251"><ele>186.0</ele><time>2026-04-29T08:29:17.535Z</time></trkpt><trkpt lat="33.5782102" lon="9.676998"><ele>186.0</ele><time>2026-04-29T08:29:18.536Z</time></trkpt><trkpt lat="33.578289" lon="9.676773"><ele>186.0</ele><time>2026-04-29T08:29:19.52Z</time></trkpt><trkpt lat="33.5783641" lon="9.6765464"><ele>185.66666666666666</ele><time>2026-04-29T08:29:20.535Z</time></trkpt><trkpt lat="33.5784355" lon="9.6763232"><ele>185.33333333333331</ele><time>2026-04-29T08:29:21.537Z</time></trkpt><trkpt lat="33.5785049" lon="9.6760982"><ele>185.0</ele><time>2026-04-29T08:29:22.537Z</time></trkpt><trkpt lat="33.5785662" lon="9.6758663"><ele>184.33333333333331</ele><time>2026-04-29T08:29:23.531Z</time></trkpt><trkpt lat="33.5786244" lon="9.6756357"><ele>183.66666666666666</ele><time>2026-04-29T08:29:24.537Z</time></trkpt><trkpt lat="33.578683" lon="9.6754072"><ele>183.0</ele><time>2026-04-29T08:29:25.544Z</time></trkpt><trkpt lat="33.5787423" lon="9.675173"><ele>182.66666666666666</ele><time>2026-04-29T08:29:26.542Z</time></trkpt><trkpt lat="33.5788057" lon="9.6749374"><ele>182.33333333333331</ele><time>2026-04-29T08:29:27.547Z</time></trkpt><trkpt lat="33.5788656" lon="9.6747044"><ele>182.0</ele><time>2026-04-29T08:29:28.539Z</time></trkpt><trkpt lat="33.5789245" lon="9.6744735"><ele>181.33333333333331</ele><time>2026-04-29T08:29:29.538Z</time></trkpt><trkpt lat="33.5789777" lon="9.6742408"><ele>180.66666666666666</ele><time>2026-04-29T08:29:30.534Z</time></trkpt><trkpt lat="33.5790327" lon="9.6740055"><ele>180.0</ele><time>2026-04-29T08:29:31.545Z</time></trkpt><trkpt lat="33.579088" lon="9.6737725"><ele>178.66666666666666</ele><time>2026-04-29T08:29:32.539Z</time></trkpt><trkpt lat="33.5791462" lon="9.6735415"><ele>177.33333333333331</ele><time>2026-04-29T08:29:33.54Z</time></trkpt><trkpt lat="33.5792043" lon="9.6733089"><ele>176.0</ele><time>2026-04-29T08:29:34.551Z</time></trkpt><trkpt lat="33.5792614" lon="9.6730828"><ele>176.0</ele><time>2026-04-29T08:29:35.541Z</time></trkpt><trkpt lat="33.5793241" lon="9.6728525"><ele>176.0</ele><time>2026-04-29T08:29:36.536Z</time></trkpt><trkpt lat="33.5793863" lon="9.6726194"><ele>176.0</ele><time>2026-04-29T08:29:37.545Z</time></trkpt><trkpt lat="33.5794455" lon="9.6723873"><ele>176.33333333333331</ele><time>2026-04-29T08:29:38.538Z</time></trkpt><trkpt lat="33.5795046" lon="9.6721553"><ele>176.66666666666666</ele><time>2026-04-29T08:29:39.543Z</time></trkpt><trkpt lat="33.5795645" lon="9.6719229"><ele>177.0</ele><time>2026-04-29T08:29:40.545Z</time></trkpt><trkpt lat="33.5796244" lon="9.6716917"><ele>176.66666666666666</ele><time>2026-04-29T08:29:41.541Z</time></trkpt><trkpt lat="33.5796849" lon="9.6714593"><ele>176.33333333333331</ele><time>2026-04-29T08:29:42.54Z</time></trkpt><trkpt lat="33.5797446" lon="9.6712317"><ele>176.0</ele><time>2026-04-29T08:29:43.546Z</time></trkpt><trkpt lat="33.5798034" lon="9.6709997"><ele>176.0</ele><time>2026-04-29T08:29:44.544Z</time></trkpt><trkpt lat="33.579861" lon="9.6707685"><ele>176.0</ele><time>2026-04-29T08:29:45.537Z</time></trkpt><trkpt lat="33.5799192" lon="9.6705365"><ele>176.0</ele><time>2026-04-29T08:29:46.539Z</time></trkpt><trkpt lat="33.579978" lon="9.6703091"><ele>175.33333333333331</ele><time>2026-04-29T08:29:47.536Z</time></trkpt><trkpt lat="33.5800355" lon="9.6700765"><ele>174.66666666666666</ele><time>2026-04-29T08:29:48.532Z</time></trkpt><trkpt lat="33.5800946" lon="9.6698408"><ele>174.0</ele><time>2026-04-29T08:29:49.536Z</time></trkpt><trkpt lat="33.5801557" lon="9.6696081"><ele>174.33333333333334</ele><time>2026-04-29T08:29:50.533Z</time></trkpt><trkpt lat="33.5802135" lon="9.6693754"><ele>174.66666666666669</ele><time>2026-04-29T08:29:51.544Z</time></trkpt><trkpt lat="33.580264" lon="9.6691427"><ele>175.0</ele><time>2026-04-29T08:29:52.534Z</time></trkpt><trkpt lat="33.5803099" lon="9.6689084"><ele>175.33333333333334</ele><time>2026-04-29T08:29:53.534Z</time></trkpt><trkpt lat="33.5803548" lon="9.6686747"><ele>175.66666666666666</ele><time>2026-04-29T08:29:54.535Z</time></trkpt><trkpt lat="33.5804007" lon="9.6684381"><ele>176.0</ele><time>2026-04-29T08:29:55.533Z</time></trkpt><trkpt lat="33.5804411" lon="9.6682057"><ele>176.0</ele><time>2026-04-29T08:29:56.543Z</time></trkpt><trkpt lat="33.5804784" lon="9.6679716"><ele>176.0</ele><time>2026-04-29T08:29:57.561Z</time></trkpt><trkpt lat="33.5805189" lon="9.6677377"><ele>176.0</ele><time>2026-04-29T08:29:58.54Z</time></trkpt><trkpt lat="33.5805562" lon="9.6675238"><ele>176.0</ele><time>2026-04-29T08:29:59.543Z</time></trkpt><trkpt lat="33.5805854" lon="9.6673135"><ele>176.0</ele><time>2026-04-29T08:30:00.534Z</time></trkpt><trkpt lat="33.5806135" lon="9.667102"><ele>176.0</ele><time>2026-04-29T08:30:01.543Z</time></trkpt><trkpt lat="33.5806427" lon="9.6668841"><ele>176.33333333333331</ele><time>2026-04-29T08:30:02.546Z</time></trkpt><trkpt lat="33.5806633" lon="9.6666631"><ele>176.66666666666666</ele><time>2026-04-29T08:30:03.543Z</time></trkpt><trkpt lat="33.5806799" lon="9.6664532"><ele>177.0</ele><time>2026-04-29T08:30:04.534Z</time></trkpt><trkpt lat="33.5806948" lon="9.6662342"><ele>177.0</ele><time>2026-04-29T08:30:05.538Z</time></trkpt><trkpt lat="33.580707" lon="9.6660164"><ele>177.0</ele><time>2026-04-29T08:30:06.539Z</time></trkpt><trkpt lat="33.5807107" lon="9.6657933"><ele>177.0</ele><time>2026-04-29T08:30:07.542Z</time></trkpt><trkpt lat="33.5807103" lon="9.6655742"><ele>177.0</ele><time>2026-04-29T08:30:08.538Z</time></trkpt><trkpt lat="33.580705" lon="9.6653518"><ele>177.0</ele><time>2026-04-29T08:30:09.533Z</time></trkpt><trkpt lat="33.5806999" lon="9.6651356"><ele>177.0</ele><time>2026-04-29T08:30:10.538Z</time></trkpt><trkpt lat="33.5806964" lon="9.6649245"><ele>177.0</ele><time>2026-04-29T08:30:11.546Z</time></trkpt><trkpt lat="33.5806942" lon="9.6647125"><ele>177.0</ele><time>2026-04-29T08:30:12.532Z</time></trkpt><trkpt lat="33.58069" lon="9.664497"><ele>177.0</ele><time>2026-04-29T08:30:13.549Z</time></trkpt><trkpt lat="33.5806791" lon="9.6642853"><ele>177.33333333333334</ele><time>2026-04-29T08:30:14.547Z</time></trkpt><trkpt lat="33.5806599" lon="9.6640754"><ele>177.66666666666669</ele><time>2026-04-29T08:30:15.536Z</time></trkpt><trkpt lat="33.5806418" lon="9.6638651"><ele>178.0</ele><time>2026-04-29T08:30:16.54Z</time></trkpt><trkpt lat="33.5806221" lon="9.6636574"><ele>178.66666666666669</ele><time>2026-04-29T08:30:17.53Z</time></trkpt><trkpt lat="33.5806049" lon="9.6634508"><ele>179.33333333333334</ele><time>2026-04-29T08:30:18.536Z</time></trkpt><trkpt lat="33.5805807" lon="9.6632466"><ele>180.0</ele><time>2026-04-29T08:30:19.536Z</time></trkpt><trkpt lat="33.5805561" lon="9.6630399"><ele>180.0</ele><time>2026-04-29T08:30:20.538Z</time></trkpt><trkpt lat="33.5805242" lon="9.662835"><ele>180.0</ele><time>2026-04-29T08:30:21.541Z</time></trkpt><trkpt lat="33.5804926" lon="9.662627"><ele>180.0</ele><time>2026-04-29T08:30:22.539Z</time></trkpt><trkpt lat="33.5804614" lon="9.6624168"><ele>180.0</ele><time>2026-04-29T08:30:23.537Z</time></trkpt><trkpt lat="33.5804337" lon="9.6622061"><ele>180.0</ele><time>2026-04-29T08:30:24.53Z</time></trkpt><trkpt lat="33.5804061" lon="9.6619924"><ele>180.0</ele><time>2026-04-29T08:30:25.535Z</time></trkpt><trkpt lat="33.5803761" lon="9.6617737"><ele>178.66666666666666</ele><time>2026-04-29T08:30:26.528Z</time></trkpt><trkpt lat="33.5803458" lon="9.661558"><ele>177.33333333333331</ele><time>2026-04-29T08:30:27.531Z</time></trkpt><trkpt lat="33.5803203" lon="9.6613403"><ele>176.0</ele><time>2026-04-29T08:30:28.535Z</time></trkpt><trkpt lat="33.5802912" lon="9.6611239"><ele>176.0</ele><time>2026-04-29T08:30:29.532Z</time></trkpt><trkpt lat="33.5802653" lon="9.6609066"><ele>176.0</ele><time>2026-04-29T08:30:30.542Z</time></trkpt><trkpt lat="33.5802362" lon="9.6606881"><ele>176.0</ele><time>2026-04-29T08:30:31.542Z</time></trkpt><trkpt lat="33.5802014" lon="9.6604677"><ele>176.66666666666666</ele><time>2026-04-29T08:30:32.54Z</time></trkpt><trkpt lat="33.5801726" lon="9.660254"><ele>177.33333333333334</ele><time>2026-04-29T08:30:33.542Z</time></trkpt><trkpt lat="33.5801462" lon="9.6600429"><ele>178.0</ele><time>2026-04-29T08:30:34.541Z</time></trkpt><trkpt lat="33.5801229" lon="9.6598299"><ele>178.0</ele><time>2026-04-29T08:30:35.541Z</time></trkpt><trkpt lat="33.5800996" lon="9.6596176"><ele>178.0</ele><time>2026-04-29T08:30:36.543Z</time></trkpt><trkpt lat="33.5800816" lon="9.659414"><ele>178.0</ele><time>2026-04-29T08:30:37.542Z</time></trkpt><trkpt lat="33.5800668" lon="9.6592077"><ele>178.66666666666669</ele><time>2026-04-29T08:30:38.538Z</time></trkpt><trkpt lat="33.5800499" lon="9.6589887"><ele>179.33333333333334</ele><time>2026-04-29T08:30:39.533Z</time></trkpt><trkpt lat="33.5800507" lon="9.6587581"><ele>180.0</ele><time>2026-04-29T08:30:40.535Z</time></trkpt><trkpt lat="33.5800648" lon="9.6585278"><ele>180.0</ele><time>2026-04-29T08:30:41.539Z</time></trkpt><trkpt lat="33.5800885" lon="9.6583032"><ele>180.0</ele><time>2026-04-29T08:30:42.534Z</time></trkpt><trkpt lat="33.58012" lon="9.6580799"><ele>180.0</ele><time>2026-04-29T08:30:43.547Z</time></trkpt><trkpt lat="33.5801547" lon="9.65786"><ele>178.66666666666666</ele><time>2026-04-29T08:30:44.537Z</time></trkpt><trkpt lat="33.5801873" lon="9.6576342"><ele>177.33333333333331</ele><time>2026-04-29T08:30:45.526Z</time></trkpt><trkpt lat="33.5802209" lon="9.6574082"><ele>176.0</ele><time>2026-04-29T08:30:46.537Z</time></trkpt><trkpt lat="33.5802555" lon="9.6571871"><ele>176.0</ele><time>2026-04-29T08:30:47.541Z</time></trkpt><trkpt lat="33.5802943" lon="9.6569613"><ele>176.0</ele><time>2026-04-29T08:30:48.538Z</time></trkpt><trkpt lat="33.5803306" lon="9.6567455"><ele>176.0</ele><time>2026-04-29T08:30:49.539Z</time></trkpt><trkpt lat="33.5803714" lon="9.6565275"><ele>175.0</ele><time>2026-04-29T08:30:50.526Z</time></trkpt><trkpt lat="33.5804155" lon="9.6563157"><ele>174.0</ele><time>2026-04-29T08:30:51.538Z</time></trkpt><trkpt lat="33.5804638" lon="9.656096"><ele>173.0</ele><time>2026-04-29T08:30:52.545Z</time></trkpt><trkpt lat="33.5805139" lon="9.6558806"><ele>172.66666666666666</ele><time>2026-04-29T08:30:53.526Z</time></trkpt><trkpt lat="33.5805724" lon="9.6556686"><ele>172.33333333333334</ele><time>2026-04-29T08:30:54.543Z</time></trkpt><trkpt lat="33.5806375" lon="9.65546"><ele>172.0</ele><time>2026-04-29T08:30:55.532Z</time></trkpt><trkpt lat="33.5807024" lon="9.6552413"><ele>171.33333333333334</ele><time>2026-04-29T08:30:56.543Z</time></trkpt><trkpt lat="33.5807695" lon="9.6550382"><ele>170.66666666666666</ele><time>2026-04-29T08:30:57.546Z</time></trkpt><trkpt lat="33.5808434" lon="9.6548391"><ele>170.0</ele><time>2026-04-29T08:30:58.543Z</time></trkpt><trkpt lat="33.5809285" lon="9.654639"><ele>170.33333333333331</ele><time>2026-04-29T08:30:59.545Z</time></trkpt><trkpt lat="33.5810171" lon="9.6544412"><ele>170.66666666666666</ele><time>2026-04-29T08:31:00.531Z</time></trkpt><trkpt lat="33.5811015" lon="9.6542512"><ele>171.0</ele><time>2026-04-29T08:31:01.54Z</time></trkpt><trkpt lat="33.5811891" lon="9.6540584"><ele>171.66666666666666</ele><time>2026-04-29T08:31:02.54Z</time></trkpt><trkpt lat="33.5812787" lon="9.653867"><ele>172.33333333333331</ele><time>2026-04-29T08:31:03.54Z</time></trkpt><trkpt lat="33.5813786" lon="9.6536815"><ele>173.0</ele><time>2026-04-29T08:31:04.54Z</time></trkpt><trkpt lat="33.5814861" lon="9.6534988"><ele>173.66666666666666</ele><time>2026-04-29T08:31:05.537Z</time></trkpt><trkpt lat="33.5815872" lon="9.6533199"><ele>174.33333333333334</ele><time>2026-04-29T08:31:06.539Z</time></trkpt><trkpt lat="33.5816981" lon="9.6531401"><ele>175.0</ele><time>2026-04-29T08:31:07.533Z</time></trkpt><trkpt lat="33.5818123" lon="9.6529679"><ele>175.0</ele><time>2026-04-29T08:31:08.566Z</time></trkpt><trkpt lat="33.5819267" lon="9.6528026"><ele>175.0</ele><time>2026-04-29T08:31:09.544Z</time></trkpt><trkpt lat="33.5820473" lon="9.6526392"><ele>175.0</ele><time>2026-04-29T08:31:10.528Z</time></trkpt><trkpt lat="33.5821679" lon="9.6524759"><ele>175.66666666666669</ele><time>2026-04-29T08:31:11.539Z</time></trkpt><trkpt lat="33.5822912" lon="9.6523212"><ele>176.33333333333334</ele><time>2026-04-29T08:31:12.531Z</time></trkpt><trkpt lat="33.5824173" lon="9.6521635"><ele>177.0</ele><time>2026-04-29T08:31:13.541Z</time></trkpt><trkpt lat="33.582547" lon="9.6520159"><ele>176.66666666666666</ele><time>2026-04-29T08:31:14.544Z</time></trkpt><trkpt lat="33.5826829" lon="9.6518678"><ele>176.33333333333331</ele><time>2026-04-29T08:31:15.542Z</time></trkpt><trkpt lat="33.5828189" lon="9.6517176"><ele>176.0</ele><time>2026-04-29T08:31:16.544Z</time></trkpt><trkpt lat="33.5829536" lon="9.6515673"><ele>176.0</ele><time>2026-04-29T08:31:17.535Z</time></trkpt><trkpt lat="33.5830865" lon="9.6514188"><ele>176.0</ele><time>2026-04-29T08:31:18.53Z</time></trkpt><trkpt lat="33.5832218" lon="9.6512727"><ele>176.0</ele><time>2026-04-29T08:31:19.544Z</time></trkpt><trkpt lat="33.5833546" lon="9.651133"><ele>176.0</ele><time>2026-04-29T08:31:20.54Z</time></trkpt><trkpt lat="33.5834923" lon="9.6509905"><ele>176.0</ele><time>2026-04-29T08:31:21.538Z</time></trkpt><trkpt lat="33.5836251" lon="9.6508457"><ele>176.0</ele><time>2026-04-29T08:31:22.543Z</time></trkpt><trkpt lat="33.5837631" lon="9.6506988"><ele>176.0</ele><time>2026-04-29T08:31:23.535Z</time></trkpt><trkpt lat="33.5838991" lon="9.6505551"><ele>176.0</ele><time>2026-04-29T08:31:24.539Z</time></trkpt><trkpt lat="33.584035" lon="9.6504066"><ele>176.0</ele><time>2026-04-29T08:31:25.544Z</time></trkpt><trkpt lat="33.5841695" lon="9.6502561"><ele>176.33333333333331</ele><time>2026-04-29T08:31:26.545Z</time></trkpt><trkpt lat="33.5843085" lon="9.6501062"><ele>176.66666666666666</ele><time>2026-04-29T08:31:27.54Z</time></trkpt><trkpt lat="33.5844448" lon="9.6499608"><ele>177.0</ele><time>2026-04-29T08:31:28.539Z</time></trkpt><trkpt lat="33.5845797" lon="9.6498175"><ele>178.0</ele><time>2026-04-29T08:31:29.543Z</time></trkpt><trkpt lat="33.5847172" lon="9.6496726"><ele>179.0</ele><time>2026-04-29T08:31:30.543Z</time></trkpt><trkpt lat="33.5848567" lon="9.6495235"><ele>180.0</ele><time>2026-04-29T08:31:31.544Z</time></trkpt><trkpt lat="33.5849882" lon="9.6493778"><ele>180.0</ele><time>2026-04-29T08:31:32.531Z</time></trkpt><trkpt lat="33.5851259" lon="9.64923"><ele>180.0</ele><time>2026-04-29T08:31:33.54Z</time></trkpt><trkpt lat="33.585267" lon="9.6490739"><ele>180.0</ele><time>2026-04-29T08:31:34.539Z</time></trkpt><trkpt lat="33.5854098" lon="9.6489153"><ele>180.66666666666666</ele><time>2026-04-29T08:31:35.544Z</time></trkpt><trkpt lat="33.5855457" lon="9.6487578"><ele>181.33333333333331</ele><time>2026-04-29T08:31:36.542Z</time></trkpt><trkpt lat="33.5856823" lon="9.648591"><ele>182.0</ele><time>2026-04-29T08:31:37.544Z</time></trkpt><trkpt lat="33.5858198" lon="9.6484139"><ele>182.33333333333331</ele><time>2026-04-29T08:31:38.543Z</time></trkpt><trkpt lat="33.5859524" lon="9.648238"><ele>182.66666666666666</ele><time>2026-04-29T08:31:39.543Z</time></trkpt><trkpt lat="33.586083" lon="9.6480492"><ele>183.0</ele><time>2026-04-29T08:31:40.531Z</time></trkpt><trkpt lat="33.5862068" lon="9.6478566"><ele>184.33333333333334</ele><time>2026-04-29T08:31:41.525Z</time></trkpt><trkpt lat="33.5863285" lon="9.6476574"><ele>185.66666666666669</ele><time>2026-04-29T08:31:42.542Z</time></trkpt><trkpt lat="33.5864496" lon="9.6474497"><ele>187.0</ele><time>2026-04-29T08:31:43.528Z</time></trkpt><trkpt lat="33.5865677" lon="9.6472478"><ele>187.0</ele><time>2026-04-29T08:31:44.539Z</time></trkpt><trkpt lat="33.5866928" lon="9.6470449"><ele>187.0</ele><time>2026-04-29T08:31:45.551Z</time></trkpt><trkpt lat="33.5868117" lon="9.6468381"><ele>187.0</ele><time>2026-04-29T08:31:46.53Z</time></trkpt><trkpt lat="33.5869286" lon="9.6466331"><ele>187.66666666666669</ele><time>2026-04-29T08:31:47.539Z</time></trkpt><trkpt lat="33.5870455" lon="9.6464241"><ele>188.33333333333334</ele><time>2026-04-29T08:31:48.54Z</time></trkpt><trkpt lat="33.5871573" lon="9.646217"><ele>189.0</ele><time>2026-04-29T08:31:49.528Z</time></trkpt><trkpt lat="33.5872659" lon="9.6460168"><ele>189.0</ele><time>2026-04-29T08:31:50.538Z</time></trkpt><trkpt lat="33.5873704" lon="9.6458193"><ele>189.0</ele><time>2026-04-29T08:31:51.549Z</time></trkpt><trkpt lat="33.5874674" lon="9.6456295"><ele>189.0</ele><time>2026-04-29T08:31:52.538Z</time></trkpt><trkpt lat="33.5875659" lon="9.6454382"><ele>188.33333333333334</ele><time>2026-04-29T08:31:53.534Z</time></trkpt><trkpt lat="33.5876601" lon="9.6452575"><ele>187.66666666666669</ele><time>2026-04-29T08:31:54.53Z</time></trkpt><trkpt lat="33.5877519" lon="9.6450736"><ele>187.0</ele><time>2026-04-29T08:31:55.534Z</time></trkpt><trkpt lat="33.5878443" lon="9.6448866"><ele>187.0</ele><time>2026-04-29T08:31:56.54Z</time></trkpt><trkpt lat="33.5879347" lon="9.6446958"><ele>187.0</ele><time>2026-04-29T08:31:57.535Z</time></trkpt><trkpt lat="33.588022" lon="9.6445024"><ele>187.0</ele><time>2026-04-29T08:31:58.542Z</time></trkpt><trkpt lat="33.5881117" lon="9.6443087"><ele>185.66666666666669</ele><time>2026-04-29T08:31:59.538Z</time></trkpt><trkpt lat="33.5882024" lon="9.6441116"><ele>184.33333333333334</ele><time>2026-04-29T08:32:00.528Z</time></trkpt><trkpt lat="33.588286" lon="9.6439192"><ele>183.0</ele><time>2026-04-29T08:32:01.535Z</time></trkpt><trkpt lat="33.588373" lon="9.6437259"><ele>182.33333333333334</ele><time>2026-04-29T08:32:02.538Z</time></trkpt><trkpt lat="33.5884594" lon="9.6435348"><ele>181.66666666666669</ele><time>2026-04-29T08:32:03.542Z</time></trkpt><trkpt lat="33.5885405" lon="9.6433458"><ele>181.0</ele><time>2026-04-29T08:32:04.545Z</time></trkpt><trkpt lat="33.5886199" lon="9.643153"><ele>181.66666666666669</ele><time>2026-04-29T08:32:05.538Z</time></trkpt><trkpt lat="33.5887009" lon="9.6429615"><ele>182.33333333333334</ele><time>2026-04-29T08:32:06.534Z</time></trkpt><trkpt lat="33.5887751" lon="9.642765"><ele>183.0</ele><time>2026-04-29T08:32:07.542Z</time></trkpt><trkpt lat="33.5888517" lon="9.6425652"><ele>183.33333333333334</ele><time>2026-04-29T08:32:08.535Z</time></trkpt><trkpt lat="33.5889242" lon="9.642364"><ele>183.66666666666669</ele><time>2026-04-29T08:32:09.535Z</time></trkpt><trkpt lat="33.5889979" lon="9.6421532"><ele>184.0</ele><time>2026-04-29T08:32:10.537Z</time></trkpt><trkpt lat="33.589069" lon="9.6419495"><ele>183.0</ele><time>2026-04-29T08:32:11.534Z</time></trkpt><trkpt lat="33.5891306" lon="9.6417348"><ele>182.0</ele><time>2026-04-29T08:32:12.531Z</time></trkpt><trkpt lat="33.5891935" lon="9.6415231"><ele>181.0</ele><time>2026-04-29T08:32:13.544Z</time></trkpt><trkpt lat="33.5892531" lon="9.6413065"><ele>181.66666666666669</ele><time>2026-04-29T08:32:14.539Z</time></trkpt><trkpt lat="33.5893078" lon="9.6410947"><ele>182.33333333333334</ele><time>2026-04-29T08:32:15.537Z</time></trkpt><trkpt lat="33.5893677" lon="9.6408768"><ele>183.0</ele><time>2026-04-29T08:32:16.541Z</time></trkpt><trkpt lat="33.5894176" lon="9.6406596"><ele>183.0</ele><time>2026-04-29T08:32:17.534Z</time></trkpt><trkpt lat="33.5894674" lon="9.6404389"><ele>183.0</ele><time>2026-04-29T08:32:18.543Z</time></trkpt><trkpt lat="33.5895143" lon="9.6402187"><ele>183.0</ele><time>2026-04-29T08:32:19.54Z</time></trkpt><trkpt lat="33.5895576" lon="9.6399988"><ele>182.66666666666666</ele><time>2026-04-29T08:32:20.536Z</time></trkpt><trkpt lat="33.589599" lon="9.6397795"><ele>182.33333333333331</ele><time>2026-04-29T08:32:21.535Z</time></trkpt><trkpt lat="33.5896376" lon="9.6395533"><ele>182.0</ele><time>2026-04-29T08:32:22.537Z</time></trkpt><trkpt lat="33.5896721" lon="9.6393298"><ele>181.33333333333331</ele><time>2026-04-29T08:32:23.529Z</time></trkpt><trkpt lat="33.5897044" lon="9.6391076"><ele>180.66666666666666</ele><time>2026-04-29T08:32:24.547Z</time></trkpt><trkpt lat="33.5897375" lon="9.6388837"><ele>180.0</ele><time>2026-04-29T08:32:25.533Z</time></trkpt><trkpt lat="33.5897685" lon="9.6386615"><ele>180.0</ele><time>2026-04-29T08:32:26.547Z</time></trkpt><trkpt lat="33.5897909" lon="9.638443"><ele>180.0</ele><time>2026-04-29T08:32:27.537Z</time></trkpt><trkpt lat="33.5897945" lon="9.6382214"><ele>180.0</ele><time>2026-04-29T08:32:28.539Z</time></trkpt><trkpt lat="33.5897943" lon="9.6380014"><ele>179.66666666666666</ele><time>2026-04-29T08:32:29.546Z</time></trkpt><trkpt lat="33.589811" lon="9.6377879"><ele>179.33333333333331</ele><time>2026-04-29T08:32:30.538Z</time></trkpt><trkpt lat="33.5898339" lon="9.6375618"><ele>179.0</ele><time>2026-04-29T08:32:31.53Z</time></trkpt><trkpt lat="33.5898422" lon="9.637338"><ele>179.0</ele><time>2026-04-29T08:32:32.534Z</time></trkpt><trkpt lat="33.589843" lon="9.6371161"><ele>179.0</ele><time>2026-04-29T08:32:33.542Z</time></trkpt><trkpt lat="33.5898568" lon="9.6368847"><ele>179.0</ele><time>2026-04-29T08:32:34.544Z</time></trkpt><trkpt lat="33.5898839" lon="9.6366636"><ele>179.0</ele><time>2026-04-29T08:32:35.546Z</time></trkpt><trkpt lat="33.5898859" lon="9.6364197"><ele>179.0</ele><time>2026-04-29T08:32:36.547Z</time></trkpt><trkpt lat="33.589874" lon="9.6361865"><ele>179.0</ele><time>2026-04-29T08:32:37.54Z</time></trkpt><trkpt lat="33.5898872" lon="9.6359511"><ele>179.0</ele><time>2026-04-29T08:32:38.541Z</time></trkpt><trkpt lat="33.5899173" lon="9.6357238"><ele>179.0</ele><time>2026-04-29T08:32:39.537Z</time></trkpt><trkpt lat="33.5899352" lon="9.6354902"><ele>179.0</ele><time>2026-04-29T08:32:40.545Z</time></trkpt><trkpt lat="33.5899367" lon="9.6352675"><ele>178.0</ele><time>2026-04-29T08:32:41.533Z</time></trkpt><trkpt lat="33.5899464" lon="9.6350379"><ele>177.0</ele><time>2026-04-29T08:32:42.536Z</time></trkpt><trkpt lat="33.5899545" lon="9.6348021"><ele>176.0</ele><time>2026-04-29T08:32:43.532Z</time></trkpt><trkpt lat="33.58996" lon="9.6345732"><ele>175.66666666666666</ele><time>2026-04-29T08:32:44.527Z</time></trkpt><trkpt lat="33.5899683" lon="9.6343461"><ele>175.33333333333334</ele><time>2026-04-29T08:32:45.529Z</time></trkpt><trkpt lat="33.5899791" lon="9.6341174"><ele>175.0</ele><time>2026-04-29T08:32:46.539Z</time></trkpt><trkpt lat="33.5899875" lon="9.6338851"><ele>175.0</ele><time>2026-04-29T08:32:47.54Z</time></trkpt><trkpt lat="33.5900004" lon="9.6336561"><ele>175.0</ele><time>2026-04-29T08:32:48.537Z</time></trkpt><trkpt lat="33.590012" lon="9.6334313"><ele>175.0</ele><time>2026-04-29T08:32:49.53Z</time></trkpt><trkpt lat="33.5900274" lon="9.6332047"><ele>174.33333333333334</ele><time>2026-04-29T08:32:50.531Z</time></trkpt><trkpt lat="33.5900448" lon="9.6329767"><ele>173.66666666666666</ele><time>2026-04-29T08:32:51.535Z</time></trkpt><trkpt lat="33.590064" lon="9.6327456"><ele>173.0</ele><time>2026-04-29T08:32:52.538Z</time></trkpt><trkpt lat="33.5900796" lon="9.6325167"><ele>172.66666666666666</ele><time>2026-04-29T08:32:53.521Z</time></trkpt><trkpt lat="33.5900984" lon="9.6322867"><ele>172.33333333333334</ele><time>2026-04-29T08:32:54.529Z</time></trkpt><trkpt lat="33.590113" lon="9.6320546"><ele>172.0</ele><time>2026-04-29T08:32:55.536Z</time></trkpt><trkpt lat="33.5901326" lon="9.6318205"><ele>171.66666666666669</ele><time>2026-04-29T08:32:56.533Z</time></trkpt><trkpt lat="33.5901531" lon="9.6315879"><ele>171.33333333333334</ele><time>2026-04-29T08:32:57.535Z</time></trkpt><trkpt lat="33.5901713" lon="9.6313558"><ele>171.0</ele><time>2026-04-29T08:32:58.533Z</time></trkpt><trkpt lat="33.5901885" lon="9.6311227"><ele>170.66666666666666</ele><time>2026-04-29T08:32:59.539Z</time></trkpt><trkpt lat="33.5902054" lon="9.6308978"><ele>170.33333333333331</ele><time>2026-04-29T08:33:00.536Z</time></trkpt><trkpt lat="33.5902209" lon="9.6306658"><ele>170.0</ele><time>2026-04-29T08:33:01.537Z</time></trkpt><trkpt lat="33.5902377" lon="9.6304375"><ele>170.0</ele><time>2026-04-29T08:33:02.54Z</time></trkpt><trkpt lat="33.5902515" lon="9.6302044"><ele>170.0</ele><time>2026-04-29T08:33:03.534Z</time></trkpt><trkpt lat="33.5902663" lon="9.6299709"><ele>170.0</ele><time>2026-04-29T08:33:04.543Z</time></trkpt><trkpt lat="33.5902844" lon="9.6297437"><ele>170.0</ele><time>2026-04-29T08:33:05.537Z</time></trkpt><trkpt lat="33.5902972" lon="9.6295117"><ele>170.0</ele><time>2026-04-29T08:33:06.534Z</time></trkpt><trkpt lat="33.5903112" lon="9.6292869"><ele>170.0</ele><time>2026-04-29T08:33:07.532Z</time></trkpt><trkpt lat="33.5903273" lon="9.6290581"><ele>170.66666666666666</ele><time>2026-04-29T08:33:08.533Z</time></trkpt><trkpt lat="33.5903414" lon="9.6288251"><ele>171.33333333333334</ele><time>2026-04-29T08:33:09.539Z</time></trkpt><trkpt lat="33.5903587" lon="9.6285932"><ele>172.0</ele><time>2026-04-29T08:33:10.538Z</time></trkpt><trkpt lat="33.5903778" lon="9.6283635"><ele>172.0</ele><time>2026-04-29T08:33:11.533Z</time></trkpt><trkpt lat="33.5904" lon="9.6281401"><ele>172.0</ele><time>2026-04-29T08:33:12.543Z</time></trkpt><trkpt lat="33.5904241" lon="9.6279117"><ele>172.0</ele><time>2026-04-29T08:33:13.527Z</time></trkpt><trkpt lat="33.5904408" lon="9.6276851"><ele>172.0</ele><time>2026-04-29T08:33:14.535Z</time></trkpt><trkpt lat="33.5904613" lon="9.6274561"><ele>172.0</ele><time>2026-04-29T08:33:15.535Z</time></trkpt><trkpt lat="33.5904767" lon="9.627221"><ele>172.0</ele><time>2026-04-29T08:33:16.536Z</time></trkpt><trkpt lat="33.5904908" lon="9.6269871"><ele>171.0</ele><time>2026-04-29T08:33:17.534Z</time></trkpt><trkpt lat="33.5905092" lon="9.6267567"><ele>170.0</ele><time>2026-04-29T08:33:18.537Z</time></trkpt><trkpt lat="33.5905275" lon="9.6265271"><ele>169.0</ele><time>2026-04-29T08:33:19.539Z</time></trkpt><trkpt lat="33.5905487" lon="9.6262967"><ele>169.0</ele><time>2026-04-29T08:33:20.535Z</time></trkpt><trkpt lat="33.5905684" lon="9.6260711"><ele>169.0</ele><time>2026-04-29T08:33:21.532Z</time></trkpt><trkpt lat="33.5905876" lon="9.6258426"><ele>169.0</ele><time>2026-04-29T08:33:22.526Z</time></trkpt><trkpt lat="33.5906029" lon="9.6256096"><ele>169.0</ele><time>2026-04-29T08:33:23.54Z</time></trkpt><trkpt lat="33.5906196" lon="9.6253795"><ele>169.0</ele><time>2026-04-29T08:33:24.546Z</time></trkpt><trkpt lat="33.5906384" lon="9.6251655"><ele>169.0</ele><time>2026-04-29T08:33:25.539Z</time></trkpt><trkpt lat="33.5906547" lon="9.6249604"><ele>168.66666666666669</ele><time>2026-04-29T08:33:26.536Z</time></trkpt><trkpt lat="33.5906691" lon="9.6247624"><ele>168.33333333333334</ele><time>2026-04-29T08:33:27.535Z</time></trkpt><trkpt lat="33.590689" lon="9.6245634"><ele>168.0</ele><time>2026-04-29T08:33:28.536Z</time></trkpt><trkpt lat="33.5907064" lon="9.624361"><ele>168.0</ele><time>2026-04-29T08:33:29.531Z</time></trkpt><trkpt lat="33.5907229" lon="9.6241479"><ele>168.0</ele><time>2026-04-29T08:33:30.528Z</time></trkpt><trkpt lat="33.5907386" lon="9.623933"><ele>168.0</ele><time>2026-04-29T08:33:31.54Z</time></trkpt><trkpt lat="33.5907574" lon="9.6237224"><ele>167.66666666666666</ele><time>2026-04-29T08:33:32.541Z</time></trkpt><trkpt lat="33.5907771" lon="9.6234996"><ele>167.33333333333331</ele><time>2026-04-29T08:33:33.538Z</time></trkpt><trkpt lat="33.5907967" lon="9.6232817"><ele>167.0</ele><time>2026-04-29T08:33:34.538Z</time></trkpt><trkpt lat="33.5908176" lon="9.6230576"><ele>167.0</ele><time>2026-04-29T08:33:35.532Z</time></trkpt><trkpt lat="33.5908404" lon="9.6228335"><ele>167.0</ele><time>2026-04-29T08:33:36.542Z</time></trkpt><trkpt lat="33.5908624" lon="9.6226137"><ele>167.0</ele><time>2026-04-29T08:33:37.565Z</time></trkpt><trkpt lat="33.590874" lon="9.622396"><ele>167.33333333333331</ele><time>2026-04-29T08:33:38.534Z</time></trkpt><trkpt lat="33.5908794" lon="9.6221808"><ele>167.66666666666666</ele><time>2026-04-29T08:33:39.531Z</time></trkpt><trkpt lat="33.5908729" lon="9.6219641"><ele>168.0</ele><time>2026-04-29T08:33:40.525Z</time></trkpt><trkpt lat="33.5908636" lon="9.6217457"><ele>168.0</ele><time>2026-04-29T08:33:41.546Z</time></trkpt><trkpt lat="33.5908445" lon="9.621528"><ele>168.0</ele><time>2026-04-29T08:33:42.539Z</time></trkpt><trkpt lat="33.5908153" lon="9.6213076"><ele>168.0</ele><time>2026-04-29T08:33:43.536Z</time></trkpt><trkpt lat="33.5907881" lon="9.6210837"><ele>167.66666666666666</ele><time>2026-04-29T08:33:44.535Z</time></trkpt><trkpt lat="33.590761" lon="9.6208706"><ele>167.33333333333331</ele><time>2026-04-29T08:33:45.528Z</time></trkpt><trkpt lat="33.5907324" lon="9.6206501"><ele>167.0</ele><time>2026-04-29T08:33:46.529Z</time></trkpt><trkpt lat="33.5906992" lon="9.6204335"><ele>166.33333333333331</ele><time>2026-04-29T08:33:47.536Z</time></trkpt><trkpt lat="33.590669" lon="9.6202168"><ele>165.66666666666666</ele><time>2026-04-29T08:33:48.538Z</time></trkpt><trkpt lat="33.590635" lon="9.6200021"><ele>165.0</ele><time>2026-04-29T08:33:49.544Z</time></trkpt><trkpt lat="33.5906116" lon="9.6197825"><ele>165.0</ele><time>2026-04-29T08:33:50.539Z</time></trkpt><trkpt lat="33.5905869" lon="9.6195663"><ele>165.0</ele><time>2026-04-29T08:33:51.545Z</time></trkpt><trkpt lat="33.5905631" lon="9.6193518"><ele>165.0</ele><time>2026-04-29T08:33:52.561Z</time></trkpt><trkpt lat="33.5905395" lon="9.6191352"><ele>164.33333333333334</ele><time>2026-04-29T08:33:53.541Z</time></trkpt><trkpt lat="33.5905182" lon="9.6189175"><ele>163.66666666666669</ele><time>2026-04-29T08:33:54.544Z</time></trkpt><trkpt lat="33.590506" lon="9.6187026"><ele>163.0</ele><time>2026-04-29T08:33:55.538Z</time></trkpt><trkpt lat="33.5904985" lon="9.6184859"><ele>162.66666666666669</ele><time>2026-04-29T08:33:56.532Z</time></trkpt><trkpt lat="33.5904974" lon="9.6182632"><ele>162.33333333333334</ele><time>2026-04-29T08:33:57.537Z</time></trkpt><trkpt lat="33.5904899" lon="9.6180505"><ele>162.0</ele><time>2026-04-29T08:33:58.548Z</time></trkpt><trkpt lat="33.59049" lon="9.6178327"><ele>161.66666666666666</ele><time>2026-04-29T08:33:59.535Z</time></trkpt><trkpt lat="33.5904935" lon="9.6176129"><ele>161.33333333333331</ele><time>2026-04-29T08:34:00.54Z</time></trkpt><trkpt lat="33.5904987" lon="9.617395"><ele>161.0</ele><time>2026-04-29T08:34:01.543Z</time></trkpt><trkpt lat="33.5905116" lon="9.6171731"><ele>161.0</ele><time>2026-04-29T08:34:02.55Z</time></trkpt><trkpt lat="33.5905199" lon="9.6169524"><ele>161.0</ele><time>2026-04-29T08:34:03.544Z</time></trkpt><trkpt lat="33.5905348" lon="9.6167317"><ele>161.0</ele><time>2026-04-29T08:34:04.542Z</time></trkpt><trkpt lat="33.5905594" lon="9.6165141"><ele>161.0</ele><time>2026-04-29T08:34:05.536Z</time></trkpt><trkpt lat="33.5905881" lon="9.6163006"><ele>161.0</ele><time>2026-04-29T08:34:06.529Z</time></trkpt><trkpt lat="33.5906231" lon="9.6160849"><ele>161.0</ele><time>2026-04-29T08:34:07.543Z</time></trkpt><trkpt lat="33.5906568" lon="9.6158664"><ele>160.66666666666666</ele><time>2026-04-29T08:34:08.54Z</time></trkpt><trkpt lat="33.5906914" lon="9.6156503"><ele>160.33333333333334</ele><time>2026-04-29T08:34:09.541Z</time></trkpt><trkpt lat="33.5907244" lon="9.6154301"><ele>160.0</ele><time>2026-04-29T08:34:10.548Z</time></trkpt><trkpt lat="33.5907634" lon="9.6152145"><ele>159.33333333333334</ele><time>2026-04-29T08:34:11.536Z</time></trkpt><trkpt lat="33.5908087" lon="9.6150045"><ele>158.66666666666666</ele><time>2026-04-29T08:34:12.528Z</time></trkpt><trkpt lat="33.5908541" lon="9.6147993"><ele>158.0</ele><time>2026-04-29T08:34:13.546Z</time></trkpt><trkpt lat="33.5909031" lon="9.6145917"><ele>158.33333333333331</ele><time>2026-04-29T08:34:14.541Z</time></trkpt><trkpt lat="33.5909535" lon="9.614384"><ele>158.66666666666666</ele><time>2026-04-29T08:34:15.532Z</time></trkpt><trkpt lat="33.5910008" lon="9.6141734"><ele>159.0</ele><time>2026-04-29T08:34:16.54Z</time></trkpt><trkpt lat="33.5910492" lon="9.6139557"><ele>159.0</ele><time>2026-04-29T08:34:17.536Z</time></trkpt><trkpt lat="33.5910947" lon="9.613741"><ele>159.0</ele><time>2026-04-29T08:34:18.533Z</time></trkpt><trkpt lat="33.5911461" lon="9.6135287"><ele>159.0</ele><time>2026-04-29T08:34:19.545Z</time></trkpt><trkpt lat="33.5911943" lon="9.613319"><ele>159.33333333333334</ele><time>2026-04-29T08:34:20.546Z</time></trkpt><trkpt lat="33.5912432" lon="9.6131051"><ele>159.66666666666669</ele><time>2026-04-29T08:34:21.534Z</time></trkpt><trkpt lat="33.5912931" lon="9.6128963"><ele>160.0</ele><time>2026-04-29T08:34:22.533Z</time></trkpt><trkpt lat="33.5913444" lon="9.6126887"><ele>160.0</ele><time>2026-04-29T08:34:23.539Z</time></trkpt><trkpt lat="33.5913939" lon="9.6124748"><ele>160.0</ele><time>2026-04-29T08:34:24.536Z</time></trkpt><trkpt lat="33.5914405" lon="9.612262"><ele>160.0</ele><time>2026-04-29T08:34:25.537Z</time></trkpt><trkpt lat="33.5914817" lon="9.6120451"><ele>159.66666666666669</ele><time>2026-04-29T08:34:26.527Z</time></trkpt><trkpt lat="33.5915261" lon="9.6118268"><ele>159.33333333333334</ele><time>2026-04-29T08:34:27.542Z</time></trkpt><trkpt lat="33.591575" lon="9.6116055"><ele>159.0</ele><time>2026-04-29T08:34:28.534Z</time></trkpt><trkpt lat="33.5916174" lon="9.6113852"><ele>159.0</ele><time>2026-04-29T08:34:29.559Z</time></trkpt><trkpt lat="33.5916633" lon="9.6111646"><ele>159.0</ele><time>2026-04-29T08:34:30.528Z</time></trkpt><trkpt lat="33.5917031" lon="9.610944"><ele>159.0</ele><time>2026-04-29T08:34:31.537Z</time></trkpt><trkpt lat="33.5917428" lon="9.6107243"><ele>158.33333333333334</ele><time>2026-04-29T08:34:32.543Z</time></trkpt><trkpt lat="33.5917848" lon="9.6105047"><ele>157.66666666666669</ele><time>2026-04-29T08:34:33.535Z</time></trkpt><trkpt lat="33.5918175" lon="9.6102857"><ele>157.0</ele><time>2026-04-29T08:34:34.522Z</time></trkpt><trkpt lat="33.5918461" lon="9.6100632"><ele>157.0</ele><time>2026-04-29T08:34:35.534Z</time></trkpt><trkpt lat="33.5918782" lon="9.6098433"><ele>157.0</ele><time>2026-04-29T08:34:36.54Z</time></trkpt><trkpt lat="33.591901" lon="9.6096211"><ele>157.0</ele><time>2026-04-29T08:34:37.526Z</time></trkpt><trkpt lat="33.5919201" lon="9.6093912"><ele>157.0</ele><time>2026-04-29T08:34:38.525Z</time></trkpt><trkpt lat="33.5919429" lon="9.6091728"><ele>157.0</ele><time>2026-04-29T08:34:39.539Z</time></trkpt><trkpt lat="33.5919587" lon="9.6089493"><ele>157.0</ele><time>2026-04-29T08:34:40.541Z</time></trkpt><trkpt lat="33.5919686" lon="9.6087259"><ele>157.33333333333334</ele><time>2026-04-29T08:34:41.536Z</time></trkpt><trkpt lat="33.5919751" lon="9.6085049"><ele>157.66666666666666</ele><time>2026-04-29T08:34:42.538Z</time></trkpt><trkpt lat="33.5919769" lon="9.6082833"><ele>158.0</ele><time>2026-04-29T08:34:43.552Z</time></trkpt><trkpt lat="33.5919785" lon="9.6080548"><ele>157.66666666666666</ele><time>2026-04-29T08:34:44.557Z</time></trkpt><trkpt lat="33.5919815" lon="9.6078268"><ele>157.33333333333334</ele><time>2026-04-29T08:34:45.532Z</time></trkpt><trkpt lat="33.5919829" lon="9.607596"><ele>157.0</ele><time>2026-04-29T08:34:46.547Z</time></trkpt><trkpt lat="33.5919787" lon="9.6073662"><ele>157.0</ele><time>2026-04-29T08:34:47.531Z</time></trkpt><trkpt lat="33.5919717" lon="9.6071403"><ele>157.0</ele><time>2026-04-29T08:34:48.54Z</time></trkpt><trkpt lat="33.5919717" lon="9.6069119"><ele>157.0</ele><time>2026-04-29T08:34:49.543Z</time></trkpt><trkpt lat="33.5919631" lon="9.6066881"><ele>156.66666666666669</ele><time>2026-04-29T08:34:50.543Z</time></trkpt><trkpt lat="33.59196" lon="9.6064624"><ele>156.33333333333334</ele><time>2026-04-29T08:34:51.546Z</time></trkpt><trkpt lat="33.591953" lon="9.606238"><ele>156.0</ele><time>2026-04-29T08:34:52.541Z</time></trkpt><trkpt lat="33.5919458" lon="9.6060154"><ele>156.0</ele><time>2026-04-29T08:34:53.537Z</time></trkpt><trkpt lat="33.5919404" lon="9.6057915"><ele>156.0</ele><time>2026-04-29T08:34:54.543Z</time></trkpt><trkpt lat="33.5919313" lon="9.6055667"><ele>156.0</ele><time>2026-04-29T08:34:55.537Z</time></trkpt><trkpt lat="33.5919288" lon="9.6053435"><ele>155.66666666666666</ele><time>2026-04-29T08:34:56.543Z</time></trkpt><trkpt lat="33.5919249" lon="9.6051237"><ele>155.33333333333331</ele><time>2026-04-29T08:34:57.544Z</time></trkpt><trkpt lat="33.5919237" lon="9.6048979"><ele>155.0</ele><time>2026-04-29T08:34:58.54Z</time></trkpt><trkpt lat="33.5919166" lon="9.6046755"><ele>155.0</ele><time>2026-04-29T08:34:59.539Z</time></trkpt><trkpt lat="33.5919121" lon="9.6044524"><ele>155.0</ele><time>2026-04-29T08:35:00.569Z</time></trkpt><trkpt lat="33.5919075" lon="9.6042276"><ele>155.0</ele><time>2026-04-29T08:35:01.545Z</time></trkpt><trkpt lat="33.5919011" lon="9.6039971"><ele>155.0</ele><time>2026-04-29T08:35:02.54Z</time></trkpt><trkpt lat="33.5918995" lon="9.6037667"><ele>155.0</ele><time>2026-04-29T08:35:03.541Z</time></trkpt><trkpt lat="33.5918962" lon="9.6035423"><ele>155.0</ele><time>2026-04-29T08:35:04.542Z</time></trkpt><trkpt lat="33.5918969" lon="9.6033215"><ele>155.0</ele><time>2026-04-29T08:35:05.547Z</time></trkpt><trkpt lat="33.5918968" lon="9.603097"><ele>155.0</ele><time>2026-04-29T08:35:06.545Z</time></trkpt><trkpt lat="33.5918958" lon="9.6028739"><ele>155.0</ele><time>2026-04-29T08:35:07.535Z</time></trkpt><trkpt lat="33.5918906" lon="9.602649"><ele>155.0</ele><time>2026-04-29T08:35:08.543Z</time></trkpt><trkpt lat="33.591885" lon="9.6024225"><ele>155.0</ele><time>2026-04-29T08:35:09.537Z</time></trkpt><trkpt lat="33.5918816" lon="9.6021944"><ele>155.0</ele><time>2026-04-29T08:35:10.531Z</time></trkpt><trkpt lat="33.5918764" lon="9.6019703"><ele>154.33333333333331</ele><time>2026-04-29T08:35:11.53Z</time></trkpt><trkpt lat="33.5918714" lon="9.6017555"><ele>153.66666666666666</ele><time>2026-04-29T08:35:12.542Z</time></trkpt><trkpt lat="33.5918705" lon="9.6015279"><ele>153.0</ele><time>2026-04-29T08:35:13.546Z</time></trkpt><trkpt lat="33.5918679" lon="9.6012998"><ele>153.0</ele><time>2026-04-29T08:35:14.537Z</time></trkpt><trkpt lat="33.5918683" lon="9.601075"><ele>153.0</ele><time>2026-04-29T08:35:15.542Z</time></trkpt><trkpt lat="33.5918626" lon="9.6008477"><ele>153.0</ele><time>2026-04-29T08:35:16.533Z</time></trkpt><trkpt lat="33.5918581" lon="9.6006232"><ele>153.0</ele><time>2026-04-29T08:35:17.537Z</time></trkpt><trkpt lat="33.5918552" lon="9.6004"><ele>153.0</ele><time>2026-04-29T08:35:18.568Z</time></trkpt><trkpt lat="33.5918547" lon="9.6001772"><ele>153.0</ele><time>2026-04-29T08:35:19.536Z</time></trkpt><trkpt lat="33.5918502" lon="9.5999534"><ele>153.0</ele><time>2026-04-29T08:35:20.54Z</time></trkpt><trkpt lat="33.591847" lon="9.5997292"><ele>153.0</ele><time>2026-04-29T08:35:21.542Z</time></trkpt><trkpt lat="33.5918438" lon="9.599504"><ele>153.0</ele><time>2026-04-29T08:35:22.536Z</time></trkpt><trkpt lat="33.5918426" lon="9.599278"><ele>153.0</ele><time>2026-04-29T08:35:23.543Z</time></trkpt><trkpt lat="33.5918357" lon="9.5990576"><ele>153.0</ele><time>2026-04-29T08:35:24.54Z</time></trkpt><trkpt lat="33.5918248" lon="9.5988343"><ele>153.0</ele><time>2026-04-29T08:35:25.552Z</time></trkpt><trkpt lat="33.5918207" lon="9.5986114"><ele>153.0</ele><time>2026-04-29T08:35:26.535Z</time></trkpt><trkpt lat="33.591821" lon="9.5983854"><ele>153.0</ele><time>2026-04-29T08:35:27.539Z</time></trkpt><trkpt lat="33.5918179" lon="9.5981581"><ele>153.0</ele><time>2026-04-29T08:35:28.539Z</time></trkpt><trkpt lat="33.5918146" lon="9.5979342"><ele>152.66666666666666</ele><time>2026-04-29T08:35:29.535Z</time></trkpt><trkpt lat="33.5918049" lon="9.5977062"><ele>152.33333333333331</ele><time>2026-04-29T08:35:30.531Z</time></trkpt><trkpt lat="33.5917975" lon="9.5974815"><ele>152.0</ele><time>2026-04-29T08:35:31.542Z</time></trkpt><trkpt lat="33.5917974" lon="9.5972569"><ele>152.0</ele><time>2026-04-29T08:35:32.533Z</time></trkpt><trkpt lat="33.5917925" lon="9.5970313"><ele>152.0</ele><time>2026-04-29T08:35:33.539Z</time></trkpt><trkpt lat="33.5917958" lon="9.5968065"><ele>152.0</ele><time>2026-04-29T08:35:34.536Z</time></trkpt><trkpt lat="33.5917972" lon="9.5965811"><ele>152.0</ele><time>2026-04-29T08:35:35.53Z</time></trkpt><trkpt lat="33.5917986" lon="9.596359"><ele>152.0</ele><time>2026-04-29T08:35:36.537Z</time></trkpt><trkpt lat="33.5917981" lon="9.5961306"><ele>152.0</ele><time>2026-04-29T08:35:37.533Z</time></trkpt><trkpt lat="33.5917959" lon="9.5959033"><ele>152.0</ele><time>2026-04-29T08:35:38.541Z</time></trkpt><trkpt lat="33.5917907" lon="9.595681"><ele>152.0</ele><time>2026-04-29T08:35:39.532Z</time></trkpt><trkpt lat="33.591787" lon="9.5954576"><ele>152.0</ele><time>2026-04-29T08:35:40.549Z</time></trkpt><trkpt lat="33.5917816" lon="9.5952316"><ele>152.0</ele><time>2026-04-29T08:35:41.535Z</time></trkpt><trkpt lat="33.5917733" lon="9.5950092"><ele>152.0</ele><time>2026-04-29T08:35:42.535Z</time></trkpt><trkpt lat="33.5917661" lon="9.594781"><ele>152.0</ele><time>2026-04-29T08:35:43.538Z</time></trkpt><trkpt lat="33.5917623" lon="9.5945594"><ele>151.66666666666666</ele><time>2026-04-29T08:35:44.538Z</time></trkpt><trkpt lat="33.5917565" lon="9.5943359"><ele>151.33333333333334</ele><time>2026-04-29T08:35:45.524Z</time></trkpt><trkpt lat="33.5917625" lon="9.5941105"><ele>151.0</ele><time>2026-04-29T08:35:46.538Z</time></trkpt><trkpt lat="33.5917769" lon="9.5938867"><ele>150.66666666666669</ele><time>2026-04-29T08:35:47.537Z</time></trkpt><trkpt lat="33.5917923" lon="9.593657"><ele>150.33333333333334</ele><time>2026-04-29T08:35:48.538Z</time></trkpt><trkpt lat="33.5918082" lon="9.5934344"><ele>150.0</ele><time>2026-04-29T08:35:49.53Z</time></trkpt><trkpt lat="33.5918264" lon="9.5932091"><ele>150.0</ele><time>2026-04-29T08:35:50.544Z</time></trkpt><trkpt lat="33.5918453" lon="9.5929868"><ele>150.0</ele><time>2026-04-29T08:35:51.531Z</time></trkpt><trkpt lat="33.5918704" lon="9.5927615"><ele>150.0</ele><time>2026-04-29T08:35:52.533Z</time></trkpt><trkpt lat="33.5918935" lon="9.5925426"><ele>150.33333333333334</ele><time>2026-04-29T08:35:53.535Z</time></trkpt><trkpt lat="33.5919256" lon="9.5923176"><ele>150.66666666666669</ele><time>2026-04-29T08:35:54.537Z</time></trkpt><trkpt lat="33.5919619" lon="9.5920969"><ele>151.0</ele><time>2026-04-29T08:35:55.54Z</time></trkpt><trkpt lat="33.5920029" lon="9.5918793"><ele>151.33333333333334</ele><time>2026-04-29T08:35:56.531Z</time></trkpt><trkpt lat="33.5920434" lon="9.591659"><ele>151.66666666666666</ele><time>2026-04-29T08:35:57.527Z</time></trkpt><trkpt lat="33.5920802" lon="9.5914364"><ele>152.0</ele><time>2026-04-29T08:35:58.537Z</time></trkpt><trkpt lat="33.5921193" lon="9.5912203"><ele>151.66666666666666</ele><time>2026-04-29T08:35:59.542Z</time></trkpt><trkpt lat="33.5921618" lon="9.5909995"><ele>151.33333333333334</ele><time>2026-04-29T08:36:00.535Z</time></trkpt><trkpt lat="33.5922116" lon="9.5907837"><ele>151.0</ele><time>2026-04-29T08:36:01.532Z</time></trkpt><trkpt lat="33.5922606" lon="9.5905639"><ele>151.0</ele><time>2026-04-29T08:36:02.544Z</time></trkpt><trkpt lat="33.5923101" lon="9.5903425"><ele>151.0</ele><time>2026-04-29T08:36:03.531Z</time></trkpt><trkpt lat="33.5923585" lon="9.5901217"><ele>151.0</ele><time>2026-04-29T08:36:04.543Z</time></trkpt><trkpt lat="33.5924063" lon="9.5899008"><ele>151.0</ele><time>2026-04-29T08:36:05.545Z</time></trkpt><trkpt lat="33.5924552" lon="9.5896828"><ele>151.0</ele><time>2026-04-29T08:36:06.536Z</time></trkpt><trkpt lat="33.5925087" lon="9.5894688"><ele>151.0</ele><time>2026-04-29T08:36:07.537Z</time></trkpt><trkpt lat="33.5925643" lon="9.5892525"><ele>150.33333333333334</ele><time>2026-04-29T08:36:08.539Z</time></trkpt><trkpt lat="33.5926202" lon="9.5890368"><ele>149.66666666666666</ele><time>2026-04-29T08:36:09.542Z</time></trkpt><trkpt lat="33.5926673" lon="9.5888226"><ele>149.0</ele><time>2026-04-29T08:36:10.534Z</time></trkpt><trkpt lat="33.5927195" lon="9.5886066"><ele>149.0</ele><time>2026-04-29T08:36:11.535Z</time></trkpt><trkpt lat="33.5927685" lon="9.5883909"><ele>149.0</ele><time>2026-04-29T08:36:12.532Z</time></trkpt><trkpt lat="33.5928151" lon="9.5881691"><ele>149.0</ele><time>2026-04-29T08:36:13.538Z</time></trkpt><trkpt lat="33.5928661" lon="9.5879533"><ele>149.33333333333331</ele><time>2026-04-29T08:36:14.524Z</time></trkpt><trkpt lat="33.5929183" lon="9.587742"><ele>149.66666666666666</ele><time>2026-04-29T08:36:15.532Z</time></trkpt><trkpt lat="33.5929645" lon="9.5875259"><ele>150.0</ele><time>2026-04-29T08:36:16.53Z</time></trkpt><trkpt lat="33.593015" lon="9.5873113"><ele>150.0</ele><time>2026-04-29T08:36:17.532Z</time></trkpt><trkpt lat="33.5930622" lon="9.5870927"><ele>150.0</ele><time>2026-04-29T08:36:18.543Z</time></trkpt><trkpt lat="33.593115" lon="9.5868748"><ele>150.0</ele><time>2026-04-29T08:36:19.534Z</time></trkpt><trkpt lat="33.593168" lon="9.5866588"><ele>150.33333333333334</ele><time>2026-04-29T08:36:20.531Z</time></trkpt><trkpt lat="33.5932136" lon="9.5864442"><ele>150.66666666666669</ele><time>2026-04-29T08:36:21.57Z</time></trkpt><trkpt lat="33.5932599" lon="9.5862266"><ele>151.0</ele><time>2026-04-29T08:36:22.544Z</time></trkpt><trkpt lat="33.5932996" lon="9.5860064"><ele>151.0</ele><time>2026-04-29T08:36:23.554Z</time></trkpt><trkpt lat="33.5933414" lon="9.5857888"><ele>151.0</ele><time>2026-04-29T08:36:24.542Z</time></trkpt><trkpt lat="33.593385" lon="9.5855694"><ele>151.0</ele><time>2026-04-29T08:36:25.534Z</time></trkpt><trkpt lat="33.5934238" lon="9.585348"><ele>151.66666666666669</ele><time>2026-04-29T08:36:26.536Z</time></trkpt><trkpt lat="33.5934579" lon="9.585124"><ele>152.33333333333334</ele><time>2026-04-29T08:36:27.529Z</time></trkpt><trkpt lat="33.5934874" lon="9.5849053"><ele>153.0</ele><time>2026-04-29T08:36:28.523Z</time></trkpt><trkpt lat="33.593517" lon="9.5846872"><ele>153.33333333333334</ele><time>2026-04-29T08:36:29.529Z</time></trkpt><trkpt lat="33.5935431" lon="9.5844659"><ele>153.66666666666669</ele><time>2026-04-29T08:36:30.536Z</time></trkpt><trkpt lat="33.5935688" lon="9.5842421"><ele>154.0</ele><time>2026-04-29T08:36:31.534Z</time></trkpt><trkpt lat="33.593589" lon="9.5840195"><ele>154.0</ele><time>2026-04-29T08:36:32.529Z</time></trkpt><trkpt lat="33.5935964" lon="9.5837969"><ele>154.0</ele><time>2026-04-29T08:36:33.531Z</time></trkpt><trkpt lat="33.5936078" lon="9.5835687"><ele>154.0</ele><time>2026-04-29T08:36:34.545Z</time></trkpt><trkpt lat="33.5936133" lon="9.5833425"><ele>153.66666666666669</ele><time>2026-04-29T08:36:35.544Z</time></trkpt><trkpt lat="33.5936181" lon="9.5831216"><ele>153.33333333333334</ele><time>2026-04-29T08:36:36.536Z</time></trkpt><trkpt lat="33.5936223" lon="9.5829027"><ele>153.0</ele><time>2026-04-29T08:36:37.545Z</time></trkpt><trkpt lat="33.5936228" lon="9.5826807"><ele>152.66666666666666</ele><time>2026-04-29T08:36:38.538Z</time></trkpt><trkpt lat="33.5936239" lon="9.5824569"><ele>152.33333333333331</ele><time>2026-04-29T08:36:39.541Z</time></trkpt><trkpt lat="33.5936172" lon="9.5822301"><ele>152.0</ele><time>2026-04-29T08:36:40.531Z</time></trkpt><trkpt lat="33.5936088" lon="9.5820071"><ele>151.33333333333331</ele><time>2026-04-29T08:36:41.528Z</time></trkpt><trkpt lat="33.5935927" lon="9.5817869"><ele>150.66666666666666</ele><time>2026-04-29T08:36:42.528Z</time></trkpt><trkpt lat="33.5935808" lon="9.5815628"><ele>150.0</ele><time>2026-04-29T08:36:43.533Z</time></trkpt><trkpt lat="33.5935653" lon="9.5813409"><ele>150.33333333333334</ele><time>2026-04-29T08:36:44.53Z</time></trkpt><trkpt lat="33.5935458" lon="9.5811222"><ele>150.66666666666669</ele><time>2026-04-29T08:36:45.527Z</time></trkpt><trkpt lat="33.5935259" lon="9.5808987"><ele>151.0</ele><time>2026-04-29T08:36:46.52Z</time></trkpt><trkpt lat="33.5935031" lon="9.5806729"><ele>151.0</ele><time>2026-04-29T08:36:47.529Z</time></trkpt><trkpt lat="33.5934747" lon="9.5804474"><ele>151.0</ele><time>2026-04-29T08:36:48.528Z</time></trkpt><trkpt lat="33.5934431" lon="9.5802226"><ele>151.0</ele><time>2026-04-29T08:36:49.536Z</time></trkpt><trkpt lat="33.5934107" lon="9.5799993"><ele>151.0</ele><time>2026-04-29T08:36:50.537Z</time></trkpt><trkpt lat="33.5933757" lon="9.5797784"><ele>151.0</ele><time>2026-04-29T08:36:51.534Z</time></trkpt><trkpt lat="33.593337" lon="9.579558"><ele>151.0</ele><time>2026-04-29T08:36:52.528Z</time></trkpt><trkpt lat="33.5932924" lon="9.5793367"><ele>151.0</ele><time>2026-04-29T08:36:53.53Z</time></trkpt><trkpt lat="33.5932411" lon="9.5791178"><ele>151.0</ele><time>2026-04-29T08:36:54.542Z</time></trkpt><trkpt lat="33.5931877" lon="9.5788952"><ele>151.0</ele><time>2026-04-29T08:36:55.527Z</time></trkpt><trkpt lat="33.5931375" lon="9.578676"><ele>151.0</ele><time>2026-04-29T08:36:56.54Z</time></trkpt><trkpt lat="33.5930799" lon="9.5784639"><ele>151.0</ele><time>2026-04-29T08:36:57.536Z</time></trkpt><trkpt lat="33.5930191" lon="9.5782505"><ele>151.0</ele><time>2026-04-29T08:36:58.53Z</time></trkpt><trkpt lat="33.5929558" lon="9.5780361"><ele>151.33333333333334</ele><time>2026-04-29T08:36:59.538Z</time></trkpt><trkpt lat="33.5928876" lon="9.5778319"><ele>151.66666666666666</ele><time>2026-04-29T08:37:00.525Z</time></trkpt><trkpt lat="33.5928187" lon="9.5776267"><ele>152.0</ele><time>2026-04-29T08:37:01.532Z</time></trkpt><trkpt lat="33.5927524" lon="9.5774201"><ele>151.66666666666666</ele><time>2026-04-29T08:37:02.532Z</time></trkpt><trkpt lat="33.5926796" lon="9.5772135"><ele>151.33333333333334</ele><time>2026-04-29T08:37:03.535Z</time></trkpt><trkpt lat="33.5926021" lon="9.5770035"><ele>151.0</ele><time>2026-04-29T08:37:04.537Z</time></trkpt><trkpt lat="33.5925268" lon="9.5767978"><ele>151.0</ele><time>2026-04-29T08:37:05.536Z</time></trkpt><trkpt lat="33.5924484" lon="9.5765939"><ele>151.0</ele><time>2026-04-29T08:37:06.525Z</time></trkpt><trkpt lat="33.5923693" lon="9.5763955"><ele>151.0</ele><time>2026-04-29T08:37:07.534Z</time></trkpt><trkpt lat="33.5922855" lon="9.576194"><ele>150.66666666666669</ele><time>2026-04-29T08:37:08.536Z</time></trkpt><trkpt lat="33.592198" lon="9.5759938"><ele>150.33333333333334</ele><time>2026-04-29T08:37:09.534Z</time></trkpt><trkpt lat="33.5921078" lon="9.5757935"><ele>150.0</ele><time>2026-04-29T08:37:10.523Z</time></trkpt><trkpt lat="33.5920097" lon="9.5755991"><ele>150.33333333333334</ele><time>2026-04-29T08:37:11.539Z</time></trkpt><trkpt lat="33.5919078" lon="9.5754107"><ele>150.66666666666669</ele><time>2026-04-29T08:37:12.535Z</time></trkpt><trkpt lat="33.5918091" lon="9.5752167"><ele>151.0</ele><time>2026-04-29T08:37:13.535Z</time></trkpt><trkpt lat="33.5917006" lon="9.5750269"><ele>151.0</ele><time>2026-04-29T08:37:14.531Z</time></trkpt><trkpt lat="33.5915964" lon="9.5748432"><ele>151.0</ele><time>2026-04-29T08:37:15.531Z</time></trkpt><trkpt lat="33.5914915" lon="9.5746568"><ele>151.0</ele><time>2026-04-29T08:37:16.526Z</time></trkpt><trkpt lat="33.591385" lon="9.5744766"><ele>151.0</ele><time>2026-04-29T08:37:17.532Z</time></trkpt><trkpt lat="33.5912745" lon="9.5742942"><ele>151.0</ele><time>2026-04-29T08:37:18.535Z</time></trkpt><trkpt lat="33.5911603" lon="9.5741176"><ele>151.0</ele><time>2026-04-29T08:37:19.525Z</time></trkpt><trkpt lat="33.5910455" lon="9.5739432"><ele>151.33333333333334</ele><time>2026-04-29T08:37:20.539Z</time></trkpt><trkpt lat="33.5909225" lon="9.5737722"><ele>151.66666666666666</ele><time>2026-04-29T08:37:21.535Z</time></trkpt><trkpt lat="33.5908002" lon="9.573601"><ele>152.0</ele><time>2026-04-29T08:37:22.536Z</time></trkpt><trkpt lat="33.5906831" lon="9.5734228"><ele>152.33333333333331</ele><time>2026-04-29T08:37:23.528Z</time></trkpt><trkpt lat="33.5905711" lon="9.5732465"><ele>152.66666666666666</ele><time>2026-04-29T08:37:24.535Z</time></trkpt><trkpt lat="33.5904601" lon="9.5730668"><ele>153.0</ele><time>2026-04-29T08:37:25.542Z</time></trkpt><trkpt lat="33.5903445" lon="9.5728958"><ele>152.66666666666666</ele><time>2026-04-29T08:37:26.559Z</time></trkpt><trkpt lat="33.590234" lon="9.5727217"><ele>152.33333333333331</ele><time>2026-04-29T08:37:27.534Z</time></trkpt><trkpt lat="33.5901155" lon="9.5725483"><ele>152.0</ele><time>2026-04-29T08:37:28.522Z</time></trkpt><trkpt lat="33.589995" lon="9.572371"><ele>152.0</ele><time>2026-04-29T08:37:29.528Z</time></trkpt><trkpt lat="33.5898711" lon="9.5721912"><ele>152.0</ele><time>2026-04-29T08:37:30.544Z</time></trkpt><trkpt lat="33.5897455" lon="9.5720051"><ele>152.0</ele><time>2026-04-29T08:37:31.541Z</time></trkpt><trkpt lat="33.5896175" lon="9.5718163"><ele>151.66666666666666</ele><time>2026-04-29T08:37:32.543Z</time></trkpt><trkpt lat="33.5894901" lon="9.5716362"><ele>151.33333333333334</ele><time>2026-04-29T08:37:33.532Z</time></trkpt><trkpt lat="33.5893668" lon="9.5714524"><ele>151.0</ele><time>2026-04-29T08:37:34.545Z</time></trkpt><trkpt lat="33.5892459" lon="9.5712675"><ele>150.33333333333334</ele><time>2026-04-29T08:37:35.537Z</time></trkpt><trkpt lat="33.5891267" lon="9.5710862"><ele>149.66666666666666</ele><time>2026-04-29T08:37:36.543Z</time></trkpt><trkpt lat="33.5890103" lon="9.5709051"><ele>149.0</ele><time>2026-04-29T08:37:37.549Z</time></trkpt><trkpt lat="33.5888872" lon="9.5707267"><ele>149.0</ele><time>2026-04-29T08:37:38.537Z</time></trkpt><trkpt lat="33.5887669" lon="9.5705492"><ele>149.0</ele><time>2026-04-29T08:37:39.568Z</time></trkpt><trkpt lat="33.5886432" lon="9.5703682"><ele>149.0</ele><time>2026-04-29T08:37:40.53Z</time></trkpt><trkpt lat="33.5885169" lon="9.5701949"><ele>150.0</ele><time>2026-04-29T08:37:41.538Z</time></trkpt><trkpt lat="33.5883916" lon="9.5700145"><ele>151.0</ele><time>2026-04-29T08:37:42.53Z</time></trkpt><trkpt lat="33.5882664" lon="9.5698333"><ele>152.0</ele><time>2026-04-29T08:37:43.54Z</time></trkpt><trkpt lat="33.5881438" lon="9.5696487"><ele>151.66666666666666</ele><time>2026-04-29T08:37:44.529Z</time></trkpt><trkpt lat="33.5880179" lon="9.5694671"><ele>151.33333333333334</ele><time>2026-04-29T08:37:45.563Z</time></trkpt><trkpt lat="33.5878965" lon="9.5692844"><ele>151.0</ele><time>2026-04-29T08:37:46.53Z</time></trkpt><trkpt lat="33.5877722" lon="9.5690988"><ele>151.66666666666669</ele><time>2026-04-29T08:37:47.536Z</time></trkpt><trkpt lat="33.5876462" lon="9.568918"><ele>152.33333333333334</ele><time>2026-04-29T08:37:48.543Z</time></trkpt><trkpt lat="33.5875253" lon="9.5687381"><ele>153.0</ele><time>2026-04-29T08:37:49.537Z</time></trkpt><trkpt lat="33.5874025" lon="9.5685543"><ele>153.0</ele><time>2026-04-29T08:37:50.528Z</time></trkpt><trkpt lat="33.5872856" lon="9.568373"><ele>153.0</ele><time>2026-04-29T08:37:51.53Z</time></trkpt><trkpt lat="33.5871657" lon="9.5681928"><ele>153.0</ele><time>2026-04-29T08:37:52.529Z</time></trkpt><trkpt lat="33.5870431" lon="9.5680088"><ele>154.0</ele><time>2026-04-29T08:37:53.538Z</time></trkpt><trkpt lat="33.5869162" lon="9.5678329"><ele>155.0</ele><time>2026-04-29T08:37:54.528Z</time></trkpt><trkpt lat="33.5867893" lon="9.5676531"><ele>156.0</ele><time>2026-04-29T08:37:55.537Z</time></trkpt><trkpt lat="33.586669" lon="9.567475"><ele>156.0</ele><time>2026-04-29T08:37:56.542Z</time></trkpt><trkpt lat="33.5865489" lon="9.5672871"><ele>156.0</ele><time>2026-04-29T08:37:57.535Z</time></trkpt><trkpt lat="33.5864328" lon="9.5670943"><ele>156.0</ele><time>2026-04-29T08:37:58.544Z</time></trkpt><trkpt lat="33.5863202" lon="9.5669009"><ele>156.33333333333334</ele><time>2026-04-29T08:37:59.542Z</time></trkpt><trkpt lat="33.5862055" lon="9.5667091"><ele>156.66666666666669</ele><time>2026-04-29T08:38:00.545Z</time></trkpt><trkpt lat="33.5860906" lon="9.5665119"><ele>157.0</ele><time>2026-04-29T08:38:01.54Z</time></trkpt><trkpt lat="33.5859698" lon="9.5663122"><ele>157.0</ele><time>2026-04-29T08:38:02.537Z</time></trkpt><trkpt lat="33.5858434" lon="9.5661088"><ele>157.0</ele><time>2026-04-29T08:38:03.542Z</time></trkpt><trkpt lat="33.5857201" lon="9.5659112"><ele>157.0</ele><time>2026-04-29T08:38:04.54Z</time></trkpt><trkpt lat="33.5855947" lon="9.5657082"><ele>157.0</ele><time>2026-04-29T08:38:05.535Z</time></trkpt><trkpt lat="33.5854723" lon="9.5655058"><ele>157.0</ele><time>2026-04-29T08:38:06.531Z</time></trkpt><trkpt lat="33.5853493" lon="9.5653022"><ele>157.0</ele><time>2026-04-29T08:38:07.539Z</time></trkpt><trkpt lat="33.5852211" lon="9.5651013"><ele>157.33333333333334</ele><time>2026-04-29T08:38:08.55Z</time></trkpt><trkpt lat="33.5850951" lon="9.5648942"><ele>157.66666666666666</ele><time>2026-04-29T08:38:09.566Z</time></trkpt><trkpt lat="33.5849696" lon="9.5646899"><ele>158.0</ele><time>2026-04-29T08:38:10.537Z</time></trkpt><trkpt lat="33.5848438" lon="9.5644802"><ele>158.33333333333331</ele><time>2026-04-29T08:38:11.542Z</time></trkpt><trkpt lat="33.5847136" lon="9.5642679"><ele>158.66666666666666</ele><time>2026-04-29T08:38:12.564Z</time></trkpt><trkpt lat="33.5845769" lon="9.5640547"><ele>159.0</ele><time>2026-04-29T08:38:13.534Z</time></trkpt><trkpt lat="33.5844419" lon="9.5638484"><ele>159.0</ele><time>2026-04-29T08:38:14.533Z</time></trkpt><trkpt lat="33.5843058" lon="9.5636343"><ele>159.0</ele><time>2026-04-29T08:38:15.531Z</time></trkpt><trkpt lat="33.5841683" lon="9.5634213"><ele>159.0</ele><time>2026-04-29T08:38:16.53Z</time></trkpt><trkpt lat="33.584032" lon="9.5632132"><ele>159.0</ele><time>2026-04-29T08:38:17.536Z</time></trkpt><trkpt lat="33.5838936" lon="9.5630097"><ele>159.0</ele><time>2026-04-29T08:38:18.54Z</time></trkpt><trkpt lat="33.5837636" lon="9.5628016"><ele>159.0</ele><time>2026-04-29T08:38:19.531Z</time></trkpt><trkpt lat="33.5836282" lon="9.5625971"><ele>157.66666666666666</ele><time>2026-04-29T08:38:20.533Z</time></trkpt><trkpt lat="33.5834925" lon="9.5623925"><ele>156.33333333333331</ele><time>2026-04-29T08:38:21.55Z</time></trkpt><trkpt lat="33.583357" lon="9.5621828"><ele>155.0</ele><time>2026-04-29T08:38:22.548Z</time></trkpt><trkpt lat="33.5832212" lon="9.561979"><ele>155.0</ele><time>2026-04-29T08:38:23.531Z</time></trkpt><trkpt lat="33.5830827" lon="9.561773"><ele>155.0</ele><time>2026-04-29T08:38:24.544Z</time></trkpt><trkpt lat="33.5829491" lon="9.5615753"><ele>155.0</ele><time>2026-04-29T08:38:25.53Z</time></trkpt><trkpt lat="33.5828164" lon="9.5613716"><ele>154.0</ele><time>2026-04-29T08:38:26.537Z</time></trkpt><trkpt lat="33.5826809" lon="9.5611716"><ele>153.0</ele><time>2026-04-29T08:38:27.537Z</time></trkpt><trkpt lat="33.5825427" lon="9.5609707"><ele>152.0</ele><time>2026-04-29T08:38:28.533Z</time></trkpt><trkpt lat="33.5824072" lon="9.5607661"><ele>152.0</ele><time>2026-04-29T08:38:29.536Z</time></trkpt><trkpt lat="33.5822741" lon="9.560562"><ele>152.0</ele><time>2026-04-29T08:38:30.536Z</time></trkpt><trkpt lat="33.5821381" lon="9.5603632"><ele>152.0</ele><time>2026-04-29T08:38:31.538Z</time></trkpt><trkpt lat="33.5820044" lon="9.5601593"><ele>152.0</ele><time>2026-04-29T08:38:32.541Z</time></trkpt><trkpt lat="33.5818737" lon="9.5599586"><ele>152.0</ele><time>2026-04-29T08:38:33.539Z</time></trkpt><trkpt lat="33.5817447" lon="9.5597654"><ele>152.0</ele><time>2026-04-29T08:38:34.541Z</time></trkpt><trkpt lat="33.581617" lon="9.5595778"><ele>151.66666666666666</ele><time>2026-04-29T08:38:35.539Z</time></trkpt><trkpt lat="33.5814903" lon="9.5593868"><ele>151.33333333333334</ele><time>2026-04-29T08:38:36.544Z</time></trkpt><trkpt lat="33.5813613" lon="9.5591836"><ele>151.0</ele><time>2026-04-29T08:38:37.534Z</time></trkpt><trkpt lat="33.5812368" lon="9.5589898"><ele>151.0</ele><time>2026-04-29T08:38:38.537Z</time></trkpt><trkpt lat="33.5811146" lon="9.5588061"><ele>151.0</ele><time>2026-04-29T08:38:39.539Z</time></trkpt><trkpt lat="33.5809995" lon="9.5586315"><ele>151.0</ele><time>2026-04-29T08:38:40.543Z</time></trkpt><trkpt lat="33.5808786" lon="9.5584599"><ele>151.0</ele><time>2026-04-29T08:38:41.545Z</time></trkpt><trkpt lat="33.5807632" lon="9.5582833"><ele>151.0</ele><time>2026-04-29T08:38:42.54Z</time></trkpt><trkpt lat="33.5806483" lon="9.5581047"><ele>151.0</ele><time>2026-04-29T08:38:43.534Z</time></trkpt><trkpt lat="33.5805307" lon="9.5579222"><ele>150.66666666666669</ele><time>2026-04-29T08:38:44.536Z</time></trkpt><trkpt lat="33.5804139" lon="9.5577404"><ele>150.33333333333334</ele><time>2026-04-29T08:38:45.535Z</time></trkpt><trkpt lat="33.580287" lon="9.5575528"><ele>150.0</ele><time>2026-04-29T08:38:46.539Z</time></trkpt><trkpt lat="33.5801639" lon="9.557374"><ele>150.0</ele><time>2026-04-29T08:38:47.539Z</time></trkpt><trkpt lat="33.5800406" lon="9.557194"><ele>150.0</ele><time>2026-04-29T08:38:48.538Z</time></trkpt><trkpt lat="33.5799182" lon="9.5570188"><ele>150.0</ele><time>2026-04-29T08:38:49.533Z</time></trkpt><trkpt lat="33.5798003" lon="9.5568411"><ele>150.0</ele><time>2026-04-29T08:38:50.535Z</time></trkpt><trkpt lat="33.5796848" lon="9.5566633"><ele>150.0</ele><time>2026-04-29T08:38:51.546Z</time></trkpt><trkpt lat="33.5795624" lon="9.5564808"><ele>150.0</ele><time>2026-04-29T08:38:52.535Z</time></trkpt><trkpt lat="33.5794421" lon="9.5562917"><ele>149.66666666666666</ele><time>2026-04-29T08:38:53.528Z</time></trkpt><trkpt lat="33.5793224" lon="9.5561099"><ele>149.33333333333331</ele><time>2026-04-29T08:38:54.545Z</time></trkpt><trkpt lat="33.5791983" lon="9.5559268"><ele>149.0</ele><time>2026-04-29T08:38:55.541Z</time></trkpt><trkpt lat="33.5790753" lon="9.5557403"><ele>149.0</ele><time>2026-04-29T08:38:56.545Z</time></trkpt><trkpt lat="33.5789559" lon="9.5555575"><ele>149.0</ele><time>2026-04-29T08:38:57.541Z</time></trkpt><trkpt lat="33.5788385" lon="9.5553733"><ele>149.0</ele><time>2026-04-29T08:38:58.538Z</time></trkpt><trkpt lat="33.5787153" lon="9.5551893"><ele>149.33333333333331</ele><time>2026-04-29T08:38:59.541Z</time></trkpt><trkpt lat="33.5785959" lon="9.5550068"><ele>149.66666666666666</ele><time>2026-04-29T08:39:00.539Z</time></trkpt><trkpt lat="33.5784776" lon="9.5548234"><ele>150.0</ele><time>2026-04-29T08:39:01.533Z</time></trkpt><trkpt lat="33.5783543" lon="9.5546412"><ele>149.33333333333334</ele><time>2026-04-29T08:39:02.532Z</time></trkpt><trkpt lat="33.5782319" lon="9.5544521"><ele>148.66666666666669</ele><time>2026-04-29T08:39:03.519Z</time></trkpt><trkpt lat="33.5781073" lon="9.5542687"><ele>148.0</ele><time>2026-04-29T08:39:04.528Z</time></trkpt><trkpt lat="33.5779833" lon="9.5540807"><ele>148.0</ele><time>2026-04-29T08:39:05.522Z</time></trkpt><trkpt lat="33.5778623" lon="9.5538941"><ele>148.0</ele><time>2026-04-29T08:39:06.537Z</time></trkpt><trkpt lat="33.5777392" lon="9.5537091"><ele>148.0</ele><time>2026-04-29T08:39:07.529Z</time></trkpt><trkpt lat="33.5776196" lon="9.5535278"><ele>149.33333333333334</ele><time>2026-04-29T08:39:08.534Z</time></trkpt><trkpt lat="33.5774959" lon="9.5533458"><ele>150.66666666666666</ele><time>2026-04-29T08:39:09.544Z</time></trkpt><trkpt lat="33.5773736" lon="9.5531643"><ele>152.0</ele><time>2026-04-29T08:39:10.535Z</time></trkpt><trkpt lat="33.5772533" lon="9.5529801"><ele>152.33333333333331</ele><time>2026-04-29T08:39:11.537Z</time></trkpt><trkpt lat="33.577131" lon="9.5527949"><ele>152.66666666666666</ele><time>2026-04-29T08:39:12.543Z</time></trkpt><trkpt lat="33.5770085" lon="9.5526098"><ele>153.0</ele><time>2026-04-29T08:39:13.557Z</time></trkpt><trkpt lat="33.5768873" lon="9.5524226"><ele>153.0</ele><time>2026-04-29T08:39:14.546Z</time></trkpt><trkpt lat="33.5767627" lon="9.5522316"><ele>153.0</ele><time>2026-04-29T08:39:15.539Z</time></trkpt><trkpt lat="33.5766408" lon="9.5520485"><ele>153.0</ele><time>2026-04-29T08:39:16.539Z</time></trkpt><trkpt lat="33.5765153" lon="9.5518675"><ele>153.0</ele><time>2026-04-29T08:39:17.55Z</time></trkpt><trkpt lat="33.5763893" lon="9.5516826"><ele>153.0</ele><time>2026-04-29T08:39:18.53Z</time></trkpt><trkpt lat="33.5762658" lon="9.5515018"><ele>153.0</ele><time>2026-04-29T08:39:19.542Z</time></trkpt><trkpt lat="33.5761423" lon="9.5513167"><ele>153.33333333333334</ele><time>2026-04-29T08:39:20.541Z</time></trkpt><trkpt lat="33.5760213" lon="9.5511324"><ele>153.66666666666669</ele><time>2026-04-29T08:39:21.528Z</time></trkpt><trkpt lat="33.5758986" lon="9.5509525"><ele>154.0</ele><time>2026-04-29T08:39:22.538Z</time></trkpt><trkpt lat="33.5757741" lon="9.5507675"><ele>154.0</ele><time>2026-04-29T08:39:23.537Z</time></trkpt><trkpt lat="33.5756523" lon="9.5505809"><ele>154.0</ele><time>2026-04-29T08:39:24.539Z</time></trkpt><trkpt lat="33.5755371" lon="9.5503905"><ele>154.0</ele><time>2026-04-29T08:39:25.524Z</time></trkpt><trkpt lat="33.57542" lon="9.5501974"><ele>154.33333333333334</ele><time>2026-04-29T08:39:26.536Z</time></trkpt><trkpt lat="33.5752922" lon="9.5500093"><ele>154.66666666666666</ele><time>2026-04-29T08:39:27.542Z</time></trkpt><trkpt lat="33.5751646" lon="9.5498266"><ele>155.0</ele><time>2026-04-29T08:39:28.533Z</time></trkpt><trkpt lat="33.575036" lon="9.5496454"><ele>154.66666666666666</ele><time>2026-04-29T08:39:29.548Z</time></trkpt><trkpt lat="33.5749151" lon="9.54946"><ele>154.33333333333334</ele><time>2026-04-29T08:39:30.541Z</time></trkpt><trkpt lat="33.5747938" lon="9.5492754"><ele>154.0</ele><time>2026-04-29T08:39:31.538Z</time></trkpt><trkpt lat="33.5746684" lon="9.5490872"><ele>154.0</ele><time>2026-04-29T08:39:32.543Z</time></trkpt><trkpt lat="33.5745412" lon="9.5489026"><ele>154.0</ele><time>2026-04-29T08:39:33.531Z</time></trkpt><trkpt lat="33.5744153" lon="9.548714"><ele>154.0</ele><time>2026-04-29T08:39:34.525Z</time></trkpt><trkpt lat="33.5742925" lon="9.5485299"><ele>153.66666666666669</ele><time>2026-04-29T08:39:35.533Z</time></trkpt><trkpt lat="33.5741704" lon="9.5483426"><ele>153.33333333333334</ele><time>2026-04-29T08:39:36.535Z</time></trkpt><trkpt lat="33.5740458" lon="9.5481572"><ele>153.0</ele><time>2026-04-29T08:39:37.532Z</time></trkpt><trkpt lat="33.5739283" lon="9.5479743"><ele>152.0</ele><time>2026-04-29T08:39:38.535Z</time></trkpt><trkpt lat="33.5738043" lon="9.5477881"><ele>151.0</ele><time>2026-04-29T08:39:39.538Z</time></trkpt><trkpt lat="33.5736802" lon="9.5476074"><ele>150.0</ele><time>2026-04-29T08:39:40.544Z</time></trkpt><trkpt lat="33.5735575" lon="9.5474243"><ele>149.66666666666666</ele><time>2026-04-29T08:39:41.545Z</time></trkpt><trkpt lat="33.5734366" lon="9.5472346"><ele>149.33333333333331</ele><time>2026-04-29T08:39:42.538Z</time></trkpt><trkpt lat="33.5733107" lon="9.5470525"><ele>149.0</ele><time>2026-04-29T08:39:43.534Z</time></trkpt><trkpt lat="33.5731902" lon="9.546866"><ele>148.33333333333331</ele><time>2026-04-29T08:39:44.533Z</time></trkpt><trkpt lat="33.5730656" lon="9.5466799"><ele>147.66666666666666</ele><time>2026-04-29T08:39:45.54Z</time></trkpt><trkpt lat="33.5729406" lon="9.5464963"><ele>147.0</ele><time>2026-04-29T08:39:46.539Z</time></trkpt><trkpt lat="33.5728209" lon="9.5463141"><ele>147.0</ele><time>2026-04-29T08:39:47.538Z</time></trkpt><trkpt lat="33.5727012" lon="9.5461313"><ele>147.0</ele><time>2026-04-29T08:39:48.555Z</time></trkpt><trkpt lat="33.5725793" lon="9.5459458"><ele>147.0</ele><time>2026-04-29T08:39:49.543Z</time></trkpt><trkpt lat="33.5724528" lon="9.5457547"><ele>147.0</ele><time>2026-04-29T08:39:50.54Z</time></trkpt><trkpt lat="33.5723295" lon="9.5455677"><ele>147.0</ele><time>2026-04-29T08:39:51.544Z</time></trkpt><trkpt lat="33.5722057" lon="9.5453853"><ele>147.0</ele><time>2026-04-29T08:39:52.542Z</time></trkpt><trkpt lat="33.5720817" lon="9.5451976"><ele>147.0</ele><time>2026-04-29T08:39:53.529Z</time></trkpt><trkpt lat="33.571954" lon="9.5450104"><ele>147.0</ele><time>2026-04-29T08:39:54.538Z</time></trkpt><trkpt lat="33.5718303" lon="9.5448245"><ele>147.0</ele><time>2026-04-29T08:39:55.545Z</time></trkpt><trkpt lat="33.5717093" lon="9.5446376"><ele>146.66666666666666</ele><time>2026-04-29T08:39:56.544Z</time></trkpt><trkpt lat="33.5715895" lon="9.5444546"><ele>146.33333333333331</ele><time>2026-04-29T08:39:57.539Z</time></trkpt><trkpt lat="33.5714631" lon="9.5442708"><ele>146.0</ele><time>2026-04-29T08:39:58.544Z</time></trkpt><trkpt lat="33.5713371" lon="9.5440891"><ele>146.0</ele><time>2026-04-29T08:39:59.531Z</time></trkpt><trkpt lat="33.5712055" lon="9.5439068"><ele>146.0</ele><time>2026-04-29T08:40:00.541Z</time></trkpt><trkpt lat="33.5710636" lon="9.5437304"><ele>146.0</ele><time>2026-04-29T08:40:01.544Z</time></trkpt><trkpt lat="33.5709185" lon="9.5435577"><ele>144.66666666666666</ele><time>2026-04-29T08:40:02.538Z</time></trkpt><trkpt lat="33.5707679" lon="9.5433841"><ele>143.33333333333334</ele><time>2026-04-29T08:40:03.528Z</time></trkpt><trkpt lat="33.5706168" lon="9.5432134"><ele>142.0</ele><time>2026-04-29T08:40:04.551Z</time></trkpt><trkpt lat="33.5704597" lon="9.5430412"><ele>141.66666666666669</ele><time>2026-04-29T08:40:05.528Z</time></trkpt><trkpt lat="33.5703025" lon="9.5428671"><ele>141.33333333333334</ele><time>2026-04-29T08:40:06.536Z</time></trkpt><trkpt lat="33.5701377" lon="9.5426949"><ele>141.0</ele><time>2026-04-29T08:40:07.527Z</time></trkpt><trkpt lat="33.5699719" lon="9.5425353"><ele>141.0</ele><time>2026-04-29T08:40:08.54Z</time></trkpt><trkpt lat="33.5698053" lon="9.5423765"><ele>141.0</ele><time>2026-04-29T08:40:09.534Z</time></trkpt><trkpt lat="33.5696328" lon="9.5422176"><ele>141.0</ele><time>2026-04-29T08:40:10.538Z</time></trkpt><trkpt lat="33.5694657" lon="9.5420696"><ele>141.0</ele><time>2026-04-29T08:40:11.549Z</time></trkpt><trkpt lat="33.5692966" lon="9.5419282"><ele>141.0</ele><time>2026-04-29T08:40:12.538Z</time></trkpt><trkpt lat="33.5691263" lon="9.5417879"><ele>141.0</ele><time>2026-04-29T08:40:13.54Z</time></trkpt><trkpt lat="33.5689526" lon="9.5416523"><ele>141.0</ele><time>2026-04-29T08:40:14.538Z</time></trkpt><trkpt lat="33.5687778" lon="9.5415207"><ele>141.0</ele><time>2026-04-29T08:40:15.537Z</time></trkpt><trkpt lat="33.5686018" lon="9.5414038"><ele>141.0</ele><time>2026-04-29T08:40:16.543Z</time></trkpt><trkpt lat="33.5684283" lon="9.541292"><ele>142.33333333333334</ele><time>2026-04-29T08:40:17.535Z</time></trkpt><trkpt lat="33.5682526" lon="9.5411788"><ele>143.66666666666669</ele><time>2026-04-29T08:40:18.544Z</time></trkpt><trkpt lat="33.5680816" lon="9.541073"><ele>145.0</ele><time>2026-04-29T08:40:19.544Z</time></trkpt><trkpt lat="33.5679103" lon="9.5409589"><ele>144.0</ele><time>2026-04-29T08:40:20.537Z</time></trkpt><trkpt lat="33.5677374" lon="9.5408532"><ele>143.0</ele><time>2026-04-29T08:40:21.536Z</time></trkpt><trkpt lat="33.5675536" lon="9.540757"><ele>142.0</ele><time>2026-04-29T08:40:22.542Z</time></trkpt><trkpt lat="33.5673686" lon="9.5406591"><ele>142.0</ele><time>2026-04-29T08:40:23.544Z</time></trkpt><trkpt lat="33.5671832" lon="9.5405687"><ele>142.0</ele><time>2026-04-29T08:40:24.523Z</time></trkpt><trkpt lat="33.5669933" lon="9.5404787"><ele>142.0</ele><time>2026-04-29T08:40:25.535Z</time></trkpt><trkpt lat="33.5668089" lon="9.5403924"><ele>142.33333333333334</ele><time>2026-04-29T08:40:26.54Z</time></trkpt><trkpt lat="33.5666246" lon="9.5403121"><ele>142.66666666666666</ele><time>2026-04-29T08:40:27.535Z</time></trkpt><trkpt lat="33.566435" lon="9.5402369"><ele>143.0</ele><time>2026-04-29T08:40:28.538Z</time></trkpt><trkpt lat="33.5662432" lon="9.5401616"><ele>142.33333333333331</ele><time>2026-04-29T08:40:29.542Z</time></trkpt><trkpt lat="33.5660531" lon="9.5400837"><ele>141.66666666666666</ele><time>2026-04-29T08:40:30.542Z</time></trkpt><trkpt lat="33.5658585" lon="9.5400073"><ele>141.0</ele><time>2026-04-29T08:40:31.545Z</time></trkpt><trkpt lat="33.5656715" lon="9.5399292"><ele>141.0</ele><time>2026-04-29T08:40:32.526Z</time></trkpt><trkpt lat="33.5654875" lon="9.5398581"><ele>141.0</ele><time>2026-04-29T08:40:33.554Z</time></trkpt><trkpt lat="33.5652986" lon="9.5397823"><ele>141.0</ele><time>2026-04-29T08:40:34.53Z</time></trkpt><trkpt lat="33.5651097" lon="9.5397084"><ele>140.33333333333334</ele><time>2026-04-29T08:40:35.543Z</time></trkpt><trkpt lat="33.5649198" lon="9.5396331"><ele>139.66666666666669</ele><time>2026-04-29T08:40:36.525Z</time></trkpt><trkpt lat="33.5647319" lon="9.5395576"><ele>139.0</ele><time>2026-04-29T08:40:37.535Z</time></trkpt><trkpt lat="33.5645486" lon="9.5394864"><ele>139.33333333333334</ele><time>2026-04-29T08:40:38.534Z</time></trkpt><trkpt lat="33.5643615" lon="9.5394083"><ele>139.66666666666666</ele><time>2026-04-29T08:40:39.532Z</time></trkpt><trkpt lat="33.5641704" lon="9.5393284"><ele>140.0</ele><time>2026-04-29T08:40:40.529Z</time></trkpt><trkpt lat="33.563988" lon="9.5392463"><ele>140.0</ele><time>2026-04-29T08:40:41.536Z</time></trkpt><trkpt lat="33.563801" lon="9.5391591"><ele>140.0</ele><time>2026-04-29T08:40:42.53Z</time></trkpt><trkpt lat="33.5636213" lon="9.5390625"><ele>140.0</ele><time>2026-04-29T08:40:43.535Z</time></trkpt><trkpt lat="33.563442" lon="9.5389638"><ele>140.33333333333331</ele><time>2026-04-29T08:40:44.521Z</time></trkpt><trkpt lat="33.5632656" lon="9.5388595"><ele>140.66666666666666</ele><time>2026-04-29T08:40:45.53Z</time></trkpt><trkpt lat="33.563089" lon="9.5387533"><ele>141.0</ele><time>2026-04-29T08:40:46.537Z</time></trkpt><trkpt lat="33.5629095" lon="9.5386472"><ele>141.0</ele><time>2026-04-29T08:40:47.537Z</time></trkpt><trkpt lat="33.5627317" lon="9.5385423"><ele>141.0</ele><time>2026-04-29T08:40:48.528Z</time></trkpt><trkpt lat="33.562552" lon="9.5384433"><ele>141.0</ele><time>2026-04-29T08:40:49.542Z</time></trkpt><trkpt lat="33.5623726" lon="9.5383453"><ele>141.0</ele><time>2026-04-29T08:40:50.541Z</time></trkpt><trkpt lat="33.5621921" lon="9.5382475"><ele>141.0</ele><time>2026-04-29T08:40:51.539Z</time></trkpt><trkpt lat="33.5620025" lon="9.5381513"><ele>141.0</ele><time>2026-04-29T08:40:52.533Z</time></trkpt><trkpt lat="33.5618203" lon="9.5380607"><ele>141.0</ele><time>2026-04-29T08:40:53.527Z</time></trkpt><trkpt lat="33.561642" lon="9.5379683"><ele>141.0</ele><time>2026-04-29T08:40:54.524Z</time></trkpt><trkpt lat="33.5614612" lon="9.5378754"><ele>141.0</ele><time>2026-04-29T08:40:55.522Z</time></trkpt><trkpt lat="33.5612777" lon="9.5377891"><ele>141.0</ele><time>2026-04-29T08:40:56.525Z</time></trkpt><trkpt lat="33.5610925" lon="9.5377106"><ele>141.0</ele><time>2026-04-29T08:40:57.53Z</time></trkpt><trkpt lat="33.5609043" lon="9.5376353"><ele>141.0</ele><time>2026-04-29T08:40:58.525Z</time></trkpt><trkpt lat="33.5607153" lon="9.537566"><ele>141.0</ele><time>2026-04-29T08:40:59.531Z</time></trkpt><trkpt lat="33.5605252" lon="9.5375019"><ele>141.0</ele><time>2026-04-29T08:41:00.537Z</time></trkpt><trkpt lat="33.5603363" lon="9.5374338"><ele>141.0</ele><time>2026-04-29T08:41:01.541Z</time></trkpt><trkpt lat="33.5601473" lon="9.5373738"><ele>141.0</ele><time>2026-04-29T08:41:02.536Z</time></trkpt><trkpt lat="33.5599527" lon="9.537324"><ele>141.0</ele><time>2026-04-29T08:41:03.539Z</time></trkpt><trkpt lat="33.559758" lon="9.5372803"><ele>141.0</ele><time>2026-04-29T08:41:04.53Z</time></trkpt><trkpt lat="33.5595634" lon="9.5372398"><ele>141.0</ele><time>2026-04-29T08:41:05.526Z</time></trkpt><trkpt lat="33.5593657" lon="9.5371988"><ele>141.0</ele><time>2026-04-29T08:41:06.562Z</time></trkpt><trkpt lat="33.5591711" lon="9.5371624"><ele>141.0</ele><time>2026-04-29T08:41:07.523Z</time></trkpt><trkpt lat="33.558975" lon="9.5371292"><ele>141.0</ele><time>2026-04-29T08:41:08.541Z</time></trkpt><trkpt lat="33.5587772" lon="9.5370995"><ele>141.0</ele><time>2026-04-29T08:41:09.535Z</time></trkpt><trkpt lat="33.5585852" lon="9.5370766"><ele>141.0</ele><time>2026-04-29T08:41:10.534Z</time></trkpt><trkpt lat="33.5583977" lon="9.5370621"><ele>141.0</ele><time>2026-04-29T08:41:11.534Z</time></trkpt><trkpt lat="33.5582027" lon="9.5370462"><ele>141.0</ele><time>2026-04-29T08:41:12.527Z</time></trkpt><trkpt lat="33.5580072" lon="9.5370321"><ele>141.0</ele><time>2026-04-29T08:41:13.534Z</time></trkpt><trkpt lat="33.5578118" lon="9.537023"><ele>140.33333333333334</ele><time>2026-04-29T08:41:14.525Z</time></trkpt><trkpt lat="33.5576181" lon="9.537019"><ele>139.66666666666669</ele><time>2026-04-29T08:41:15.528Z</time></trkpt><trkpt lat="33.5574266" lon="9.5370087"><ele>139.0</ele><time>2026-04-29T08:41:16.533Z</time></trkpt><trkpt lat="33.5572366" lon="9.5369977"><ele>139.0</ele><time>2026-04-29T08:41:17.535Z</time></trkpt><trkpt lat="33.5570464" lon="9.5369875"><ele>139.0</ele><time>2026-04-29T08:41:18.538Z</time></trkpt><trkpt lat="33.5568517" lon="9.5369718"><ele>139.0</ele><time>2026-04-29T08:41:19.537Z</time></trkpt><trkpt lat="33.5566582" lon="9.536962"><ele>139.33333333333334</ele><time>2026-04-29T08:41:20.534Z</time></trkpt><trkpt lat="33.5564673" lon="9.5369493"><ele>139.66666666666666</ele><time>2026-04-29T08:41:21.539Z</time></trkpt><trkpt lat="33.5562725" lon="9.5369339"><ele>140.0</ele><time>2026-04-29T08:41:22.538Z</time></trkpt><trkpt lat="33.556079" lon="9.536915"><ele>139.0</ele><time>2026-04-29T08:41:23.524Z</time></trkpt><trkpt lat="33.5558869" lon="9.5368851"><ele>138.0</ele><time>2026-04-29T08:41:24.531Z</time></trkpt><trkpt lat="33.5556919" lon="9.5368484"><ele>137.0</ele><time>2026-04-29T08:41:25.54Z</time></trkpt><trkpt lat="33.5554992" lon="9.5368036"><ele>135.66666666666666</ele><time>2026-04-29T08:41:26.525Z</time></trkpt><trkpt lat="33.5553057" lon="9.5367595"><ele>134.33333333333334</ele><time>2026-04-29T08:41:27.521Z</time></trkpt><trkpt lat="33.5551184" lon="9.5367136"><ele>133.0</ele><time>2026-04-29T08:41:28.53Z</time></trkpt><trkpt lat="33.5549271" lon="9.5366645"><ele>133.0</ele><time>2026-04-29T08:41:29.538Z</time></trkpt><trkpt lat="33.5547369" lon="9.5366118"><ele>133.0</ele><time>2026-04-29T08:41:30.541Z</time></trkpt><trkpt lat="33.5545489" lon="9.5365546"><ele>133.0</ele><time>2026-04-29T08:41:31.537Z</time></trkpt><trkpt lat="33.5543575" lon="9.5364906"><ele>133.33333333333334</ele><time>2026-04-29T08:41:32.537Z</time></trkpt><trkpt lat="33.5541694" lon="9.5364277"><ele>133.66666666666666</ele><time>2026-04-29T08:41:33.54Z</time></trkpt><trkpt lat="33.5539807" lon="9.5363621"><ele>134.0</ele><time>2026-04-29T08:41:34.537Z</time></trkpt><trkpt lat="33.5537968" lon="9.5362953"><ele>134.0</ele><time>2026-04-29T08:41:35.536Z</time></trkpt><trkpt lat="33.5536132" lon="9.5362297"><ele>134.0</ele><time>2026-04-29T08:41:36.52Z</time></trkpt><trkpt lat="33.5534293" lon="9.5361623"><ele>134.0</ele><time>2026-04-29T08:41:37.54Z</time></trkpt><trkpt lat="33.5532492" lon="9.5360886"><ele>134.33333333333331</ele><time>2026-04-29T08:41:38.535Z</time></trkpt><trkpt lat="33.5530655" lon="9.5360187"><ele>134.66666666666666</ele><time>2026-04-29T08:41:39.538Z</time></trkpt><trkpt lat="33.5528786" lon="9.5359511"><ele>135.0</ele><time>2026-04-29T08:41:40.53Z</time></trkpt><trkpt lat="33.5526899" lon="9.5358931"><ele>136.0</ele><time>2026-04-29T08:41:41.543Z</time></trkpt><trkpt lat="33.5525015" lon="9.5358389"><ele>137.0</ele><time>2026-04-29T08:41:42.531Z</time></trkpt><trkpt lat="33.5523067" lon="9.5357952"><ele>138.0</ele><time>2026-04-29T08:41:43.537Z</time></trkpt><trkpt lat="33.5521145" lon="9.535763"><ele>137.66666666666666</ele><time>2026-04-29T08:41:44.539Z</time></trkpt><trkpt lat="33.551914" lon="9.5357432"><ele>137.33333333333331</ele><time>2026-04-29T08:41:45.537Z</time></trkpt><trkpt lat="33.5517086" lon="9.5357346"><ele>137.0</ele><time>2026-04-29T08:41:46.524Z</time></trkpt><trkpt lat="33.5515088" lon="9.5357224"><ele>137.0</ele><time>2026-04-29T08:41:47.53Z</time></trkpt><trkpt lat="33.5513089" lon="9.5357098"><ele>137.0</ele><time>2026-04-29T08:41:48.531Z</time></trkpt><trkpt lat="33.5511135" lon="9.5357017"><ele>137.0</ele><time>2026-04-29T08:41:49.537Z</time></trkpt><trkpt lat="33.5509167" lon="9.5356936"><ele>137.33333333333331</ele><time>2026-04-29T08:41:50.541Z</time></trkpt><trkpt lat="33.550725" lon="9.53569"><ele>137.66666666666666</ele><time>2026-04-29T08:41:51.54Z</time></trkpt><trkpt lat="33.5505366" lon="9.535682"><ele>138.0</ele><time>2026-04-29T08:41:52.53Z</time></trkpt><trkpt lat="33.5503451" lon="9.5356728"><ele>137.0</ele><time>2026-04-29T08:41:53.531Z</time></trkpt><trkpt lat="33.5501497" lon="9.5356654"><ele>136.0</ele><time>2026-04-29T08:41:54.522Z</time></trkpt><trkpt lat="33.549958" lon="9.5356568"><ele>135.0</ele><time>2026-04-29T08:41:55.526Z</time></trkpt><trkpt lat="33.5497619" lon="9.5356468"><ele>135.0</ele><time>2026-04-29T08:41:56.526Z</time></trkpt><trkpt lat="33.5495591" lon="9.5356424"><ele>135.0</ele><time>2026-04-29T08:41:57.529Z</time></trkpt><trkpt lat="33.54936" lon="9.5356349"><ele>135.0</ele><time>2026-04-29T08:41:58.526Z</time></trkpt><trkpt lat="33.5491554" lon="9.535626"><ele>135.0</ele><time>2026-04-29T08:41:59.528Z</time></trkpt><trkpt lat="33.5489577" lon="9.5356142"><ele>135.0</ele><time>2026-04-29T08:42:00.533Z</time></trkpt><trkpt lat="33.5487604" lon="9.5356021"><ele>135.0</ele><time>2026-04-29T08:42:01.53Z</time></trkpt><trkpt lat="33.5485659" lon="9.5355928"><ele>135.0</ele><time>2026-04-29T08:42:02.532Z</time></trkpt><trkpt lat="33.5483719" lon="9.5355815"><ele>135.0</ele><time>2026-04-29T08:42:03.521Z</time></trkpt><trkpt lat="33.548175" lon="9.535563"><ele>135.0</ele><time>2026-04-29T08:42:04.555Z</time></trkpt><trkpt lat="33.5479811" lon="9.535538"><ele>135.0</ele><time>2026-04-29T08:42:05.529Z</time></trkpt><trkpt lat="33.5477827" lon="9.5355118"><ele>135.0</ele><time>2026-04-29T08:42:06.529Z</time></trkpt><trkpt lat="33.5475855" lon="9.5354767"><ele>135.0</ele><time>2026-04-29T08:42:07.543Z</time></trkpt><trkpt lat="33.5473875" lon="9.5354389"><ele>135.0</ele><time>2026-04-29T08:42:08.548Z</time></trkpt><trkpt lat="33.5471913" lon="9.5354002"><ele>135.0</ele><time>2026-04-29T08:42:09.535Z</time></trkpt><trkpt lat="33.5469988" lon="9.5353578"><ele>135.0</ele><time>2026-04-29T08:42:10.541Z</time></trkpt><trkpt lat="33.546806" lon="9.535313"><ele>134.66666666666666</ele><time>2026-04-29T08:42:11.537Z</time></trkpt><trkpt lat="33.5466142" lon="9.5352686"><ele>134.33333333333331</ele><time>2026-04-29T08:42:12.54Z</time></trkpt><trkpt lat="33.546422" lon="9.5352188"><ele>134.0</ele><time>2026-04-29T08:42:13.536Z</time></trkpt><trkpt lat="33.546233" lon="9.5351609"><ele>134.33333333333331</ele><time>2026-04-29T08:42:14.526Z</time></trkpt><trkpt lat="33.5460454" lon="9.5350933"><ele>134.66666666666666</ele><time>2026-04-29T08:42:15.533Z</time></trkpt><trkpt lat="33.545849" lon="9.5350243"><ele>135.0</ele><time>2026-04-29T08:42:16.54Z</time></trkpt><trkpt lat="33.5456632" lon="9.5349524"><ele>135.0</ele><time>2026-04-29T08:42:17.535Z</time></trkpt><trkpt lat="33.5454787" lon="9.5348837"><ele>135.0</ele><time>2026-04-29T08:42:18.53Z</time></trkpt><trkpt lat="33.5452863" lon="9.5348104"><ele>135.0</ele><time>2026-04-29T08:42:19.535Z</time></trkpt><trkpt lat="33.5450966" lon="9.5347249"><ele>135.33333333333334</ele><time>2026-04-29T08:42:20.531Z</time></trkpt><trkpt lat="33.5449052" lon="9.5346353"><ele>135.66666666666669</ele><time>2026-04-29T08:42:21.534Z</time></trkpt><trkpt lat="33.5447097" lon="9.5345408"><ele>136.0</ele><time>2026-04-29T08:42:22.541Z</time></trkpt><trkpt lat="33.5445198" lon="9.5344354"><ele>136.33333333333334</ele><time>2026-04-29T08:42:23.537Z</time></trkpt><trkpt lat="33.5443344" lon="9.5343299"><ele>136.66666666666666</ele><time>2026-04-29T08:42:24.53Z</time></trkpt><trkpt lat="33.544148" lon="9.5342226"><ele>137.0</ele><time>2026-04-29T08:42:25.523Z</time></trkpt><trkpt lat="33.5439646" lon="9.5341164"><ele>137.0</ele><time>2026-04-29T08:42:26.527Z</time></trkpt><trkpt lat="33.5437824" lon="9.5340087"><ele>137.0</ele><time>2026-04-29T08:42:27.532Z</time></trkpt><trkpt lat="33.543604" lon="9.5338991"><ele>137.0</ele><time>2026-04-29T08:42:28.531Z</time></trkpt><trkpt lat="33.5434266" lon="9.5337809"><ele>137.33333333333331</ele><time>2026-04-29T08:42:29.53Z</time></trkpt><trkpt lat="33.5432552" lon="9.5336605"><ele>137.66666666666666</ele><time>2026-04-29T08:42:30.529Z</time></trkpt><trkpt lat="33.5430853" lon="9.5335372"><ele>138.0</ele><time>2026-04-29T08:42:31.539Z</time></trkpt><trkpt lat="33.5429181" lon="9.5334152"><ele>139.33333333333334</ele><time>2026-04-29T08:42:32.529Z</time></trkpt><trkpt lat="33.5427499" lon="9.5332872"><ele>140.66666666666669</ele><time>2026-04-29T08:42:33.528Z</time></trkpt><trkpt lat="33.5425837" lon="9.5331542"><ele>142.0</ele><time>2026-04-29T08:42:34.539Z</time></trkpt><trkpt lat="33.5424228" lon="9.5330117"><ele>141.66666666666669</ele><time>2026-04-29T08:42:35.533Z</time></trkpt><trkpt lat="33.5422608" lon="9.5328659"><ele>141.33333333333334</ele><time>2026-04-29T08:42:36.536Z</time></trkpt><trkpt lat="33.5421017" lon="9.5327186"><ele>141.0</ele><time>2026-04-29T08:42:37.527Z</time></trkpt><trkpt lat="33.5419408" lon="9.5325662"><ele>141.0</ele><time>2026-04-29T08:42:38.541Z</time></trkpt><trkpt lat="33.5417849" lon="9.532419"><ele>141.0</ele><time>2026-04-29T08:42:39.539Z</time></trkpt><trkpt lat="33.5416302" lon="9.5322703"><ele>141.0</ele><time>2026-04-29T08:42:40.541Z</time></trkpt><trkpt lat="33.5414764" lon="9.5321124"><ele>141.33333333333334</ele><time>2026-04-29T08:42:41.528Z</time></trkpt><trkpt lat="33.5413257" lon="9.5319577"><ele>141.66666666666669</ele><time>2026-04-29T08:42:42.531Z</time></trkpt><trkpt lat="33.5411822" lon="9.5317947"><ele>142.0</ele><time>2026-04-29T08:42:43.531Z</time></trkpt><trkpt lat="33.5410383" lon="9.5316227"><ele>142.0</ele><time>2026-04-29T08:42:44.555Z</time></trkpt><trkpt lat="33.5408975" lon="9.5314467"><ele>142.0</ele><time>2026-04-29T08:42:45.525Z</time></trkpt><trkpt lat="33.5407618" lon="9.5312746"><ele>142.0</ele><time>2026-04-29T08:42:46.535Z</time></trkpt><trkpt lat="33.5406245" lon="9.5311056"><ele>142.0</ele><time>2026-04-29T08:42:47.536Z</time></trkpt><trkpt lat="33.5404937" lon="9.5309313"><ele>142.0</ele><time>2026-04-29T08:42:48.538Z</time></trkpt><trkpt lat="33.5403645" lon="9.530753"><ele>142.0</ele><time>2026-04-29T08:42:49.527Z</time></trkpt><trkpt lat="33.540235" lon="9.5305707"><ele>142.33333333333334</ele><time>2026-04-29T08:42:50.535Z</time></trkpt><trkpt lat="33.5401057" lon="9.5303845"><ele>142.66666666666666</ele><time>2026-04-29T08:42:51.534Z</time></trkpt><trkpt lat="33.5399821" lon="9.530201"><ele>143.0</ele><time>2026-04-29T08:42:52.534Z</time></trkpt><trkpt lat="33.5398598" lon="9.5300126"><ele>143.0</ele><time>2026-04-29T08:42:53.53Z</time></trkpt><trkpt lat="33.5397452" lon="9.5298301"><ele>143.0</ele><time>2026-04-29T08:42:54.53Z</time></trkpt><trkpt lat="33.539629" lon="9.5296441"><ele>143.0</ele><time>2026-04-29T08:42:55.551Z</time></trkpt><trkpt lat="33.5395162" lon="9.5294449"><ele>144.0</ele><time>2026-04-29T08:42:56.539Z</time></trkpt><trkpt lat="33.5394055" lon="9.529241"><ele>145.0</ele><time>2026-04-29T08:42:57.53Z</time></trkpt><trkpt lat="33.5392985" lon="9.529039"><ele>146.0</ele><time>2026-04-29T08:42:58.534Z</time></trkpt><trkpt lat="33.5391914" lon="9.5288352"><ele>146.0</ele><time>2026-04-29T08:42:59.531Z</time></trkpt><trkpt lat="33.5390851" lon="9.528622"><ele>146.0</ele><time>2026-04-29T08:43:00.533Z</time></trkpt><trkpt lat="33.5389825" lon="9.5284062"><ele>146.0</ele><time>2026-04-29T08:43:01.529Z</time></trkpt><trkpt lat="33.5388884" lon="9.5281926"><ele>146.0</ele><time>2026-04-29T08:43:02.537Z</time></trkpt><trkpt lat="33.5387978" lon="9.5279792"><ele>146.0</ele><time>2026-04-29T08:43:03.542Z</time></trkpt><trkpt lat="33.538707" lon="9.5277647"><ele>146.0</ele><time>2026-04-29T08:43:04.532Z</time></trkpt><trkpt lat="33.5386202" lon="9.527547"><ele>146.33333333333331</ele><time>2026-04-29T08:43:05.535Z</time></trkpt><trkpt lat="33.5385258" lon="9.5273327"><ele>146.66666666666666</ele><time>2026-04-29T08:43:06.541Z</time></trkpt><trkpt lat="33.5384411" lon="9.5271171"><ele>147.0</ele><time>2026-04-29T08:43:07.535Z</time></trkpt><trkpt lat="33.5383564" lon="9.5269034"><ele>147.33333333333334</ele><time>2026-04-29T08:43:08.533Z</time></trkpt><trkpt lat="33.5382668" lon="9.5266942"><ele>147.66666666666669</ele><time>2026-04-29T08:43:09.535Z</time></trkpt><trkpt lat="33.5381779" lon="9.5264809"><ele>148.0</ele><time>2026-04-29T08:43:10.528Z</time></trkpt><trkpt lat="33.5380913" lon="9.5262633"><ele>148.33333333333334</ele><time>2026-04-29T08:43:11.531Z</time></trkpt><trkpt lat="33.5380069" lon="9.5260477"><ele>148.66666666666666</ele><time>2026-04-29T08:43:12.534Z</time></trkpt><trkpt lat="33.5379213" lon="9.5258345"><ele>149.0</ele><time>2026-04-29T08:43:13.553Z</time></trkpt><trkpt lat="33.5378285" lon="9.5256187"><ele>149.0</ele><time>2026-04-29T08:43:14.527Z</time></trkpt><trkpt lat="33.5377342" lon="9.5253956"><ele>149.0</ele><time>2026-04-29T08:43:15.531Z</time></trkpt><trkpt lat="33.5376387" lon="9.5251722"><ele>149.0</ele><time>2026-04-29T08:43:16.533Z</time></trkpt><trkpt lat="33.5375518" lon="9.5249466"><ele>149.33333333333331</ele><time>2026-04-29T08:43:17.534Z</time></trkpt><trkpt lat="33.5374613" lon="9.5247181"><ele>149.66666666666666</ele><time>2026-04-29T08:43:18.546Z</time></trkpt><trkpt lat="33.5373693" lon="9.5244931"><ele>150.0</ele><time>2026-04-29T08:43:19.525Z</time></trkpt><trkpt lat="33.5372716" lon="9.5242692"><ele>150.33333333333334</ele><time>2026-04-29T08:43:20.529Z</time></trkpt><trkpt lat="33.537175" lon="9.5240401"><ele>150.66666666666669</ele><time>2026-04-29T08:43:21.527Z</time></trkpt><trkpt lat="33.5370822" lon="9.5238118"><ele>151.0</ele><time>2026-04-29T08:43:22.553Z</time></trkpt><trkpt lat="33.5369882" lon="9.5235888"><ele>150.0</ele><time>2026-04-29T08:43:23.539Z</time></trkpt><trkpt lat="33.5368943" lon="9.5233637"><ele>149.0</ele><time>2026-04-29T08:43:24.53Z</time></trkpt><trkpt lat="33.5368052" lon="9.5231374"><ele>148.0</ele><time>2026-04-29T08:43:25.54Z</time></trkpt><trkpt lat="33.5367097" lon="9.5229058"><ele>147.33333333333334</ele><time>2026-04-29T08:43:26.536Z</time></trkpt><trkpt lat="33.5366117" lon="9.5226691"><ele>146.66666666666666</ele><time>2026-04-29T08:43:27.529Z</time></trkpt><trkpt lat="33.5365152" lon="9.5224427"><ele>146.0</ele><time>2026-04-29T08:43:28.531Z</time></trkpt><trkpt lat="33.53642" lon="9.5222135"><ele>145.33333333333331</ele><time>2026-04-29T08:43:29.534Z</time></trkpt><trkpt lat="33.5363261" lon="9.5219843"><ele>144.66666666666666</ele><time>2026-04-29T08:43:30.535Z</time></trkpt><trkpt lat="33.5362311" lon="9.5217506"><ele>144.0</ele><time>2026-04-29T08:43:31.534Z</time></trkpt><trkpt lat="33.5361384" lon="9.5215214"><ele>144.66666666666666</ele><time>2026-04-29T08:43:32.529Z</time></trkpt><trkpt lat="33.5360469" lon="9.5212979"><ele>145.33333333333331</ele><time>2026-04-29T08:43:33.536Z</time></trkpt><trkpt lat="33.5359543" lon="9.5210797"><ele>146.0</ele><time>2026-04-29T08:43:34.527Z</time></trkpt><trkpt lat="33.5358637" lon="9.520863"><ele>146.0</ele><time>2026-04-29T08:43:35.539Z</time></trkpt><trkpt lat="33.5357693" lon="9.5206426"><ele>146.0</ele><time>2026-04-29T08:43:36.541Z</time></trkpt><trkpt lat="33.5356793" lon="9.5204169"><ele>146.0</ele><time>2026-04-29T08:43:37.537Z</time></trkpt><trkpt lat="33.5355902" lon="9.5201897"><ele>145.0</ele><time>2026-04-29T08:43:38.53Z</time></trkpt><trkpt lat="33.5354943" lon="9.5199619"><ele>144.0</ele><time>2026-04-29T08:43:39.533Z</time></trkpt><trkpt lat="33.5354" lon="9.5197337"><ele>143.0</ele><time>2026-04-29T08:43:40.533Z</time></trkpt><trkpt lat="33.535308" lon="9.519505"><ele>142.0</ele><time>2026-04-29T08:43:41.537Z</time></trkpt><trkpt lat="33.5352155" lon="9.5192817"><ele>141.0</ele><time>2026-04-29T08:43:42.539Z</time></trkpt><trkpt lat="33.5351218" lon="9.5190637"><ele>140.0</ele><time>2026-04-29T08:43:43.539Z</time></trkpt><trkpt lat="33.5350283" lon="9.5188401"><ele>139.0</ele><time>2026-04-29T08:43:44.538Z</time></trkpt><trkpt lat="33.5349347" lon="9.5186165"><ele>138.0</ele><time>2026-04-29T08:43:45.53Z</time></trkpt><trkpt lat="33.534842" lon="9.5183941"><ele>137.0</ele><time>2026-04-29T08:43:46.534Z</time></trkpt><trkpt lat="33.534747" lon="9.5181669"><ele>137.0</ele><time>2026-04-29T08:43:47.529Z</time></trkpt><trkpt lat="33.5346565" lon="9.5179424"><ele>137.0</ele><time>2026-04-29T08:43:48.534Z</time></trkpt><trkpt lat="33.5345659" lon="9.5177155"><ele>137.0</ele><time>2026-04-29T08:43:49.536Z</time></trkpt><trkpt lat="33.5344727" lon="9.5174941"><ele>136.66666666666666</ele><time>2026-04-29T08:43:50.539Z</time></trkpt><trkpt lat="33.5343798" lon="9.5172646"><ele>136.33333333333334</ele><time>2026-04-29T08:43:51.536Z</time></trkpt><trkpt lat="33.5342837" lon="9.5170422"><ele>136.0</ele><time>2026-04-29T08:43:52.548Z</time></trkpt><trkpt lat="33.5341889" lon="9.5168194"><ele>135.33333333333334</ele><time>2026-04-29T08:43:53.537Z</time></trkpt><trkpt lat="33.5340955" lon="9.516596"><ele>134.66666666666666</ele><time>2026-04-29T08:43:54.533Z</time></trkpt><trkpt lat="33.5340007" lon="9.5163692"><ele>134.0</ele><time>2026-04-29T08:43:55.54Z</time></trkpt><trkpt lat="33.5339071" lon="9.5161459"><ele>134.0</ele><time>2026-04-29T08:43:56.543Z</time></trkpt><trkpt lat="33.5338145" lon="9.5159159"><ele>134.0</ele><time>2026-04-29T08:43:57.535Z</time></trkpt><trkpt lat="33.5337198" lon="9.5156925"><ele>134.0</ele><time>2026-04-29T08:43:58.537Z</time></trkpt><trkpt lat="33.533628" lon="9.515464"><ele>134.33333333333331</ele><time>2026-04-29T08:43:59.542Z</time></trkpt><trkpt lat="33.5335342" lon="9.5152374"><ele>134.66666666666666</ele><time>2026-04-29T08:44:00.533Z</time></trkpt><trkpt lat="33.5334396" lon="9.5150144"><ele>135.0</ele><time>2026-04-29T08:44:01.541Z</time></trkpt><trkpt lat="33.53335" lon="9.5147892"><ele>134.33333333333334</ele><time>2026-04-29T08:44:02.537Z</time></trkpt><trkpt lat="33.5332587" lon="9.5145692"><ele>133.66666666666669</ele><time>2026-04-29T08:44:03.535Z</time></trkpt><trkpt lat="33.5331666" lon="9.5143456"><ele>133.0</ele><time>2026-04-29T08:44:04.535Z</time></trkpt><trkpt lat="33.5330771" lon="9.5141213"><ele>133.0</ele><time>2026-04-29T08:44:05.539Z</time></trkpt><trkpt lat="33.5329847" lon="9.5138946"><ele>133.0</ele><time>2026-04-29T08:44:06.542Z</time></trkpt><trkpt lat="33.5328905" lon="9.5136707"><ele>133.0</ele><time>2026-04-29T08:44:07.538Z</time></trkpt><trkpt lat="33.5327984" lon="9.5134449"><ele>132.33333333333334</ele><time>2026-04-29T08:44:08.533Z</time></trkpt><trkpt lat="33.5327036" lon="9.5132186"><ele>131.66666666666666</ele><time>2026-04-29T08:44:09.525Z</time></trkpt><trkpt lat="33.5326109" lon="9.5129982"><ele>131.0</ele><time>2026-04-29T08:44:10.545Z</time></trkpt><trkpt lat="33.5325159" lon="9.512774"><ele>130.66666666666666</ele><time>2026-04-29T08:44:11.536Z</time></trkpt><trkpt lat="33.5324218" lon="9.5125495"><ele>130.33333333333334</ele><time>2026-04-29T08:44:12.536Z</time></trkpt><trkpt lat="33.5323293" lon="9.5123263"><ele>130.0</ele><time>2026-04-29T08:44:13.543Z</time></trkpt><trkpt lat="33.5322334" lon="9.5121015"><ele>130.0</ele><time>2026-04-29T08:44:14.542Z</time></trkpt><trkpt lat="33.5321387" lon="9.5118814"><ele>130.0</ele><time>2026-04-29T08:44:15.532Z</time></trkpt><trkpt lat="33.5320432" lon="9.5116566"><ele>130.0</ele><time>2026-04-29T08:44:16.538Z</time></trkpt><trkpt lat="33.5319517" lon="9.5114318"><ele>130.0</ele><time>2026-04-29T08:44:17.527Z</time></trkpt><trkpt lat="33.531855" lon="9.5112118"><ele>130.0</ele><time>2026-04-29T08:44:18.532Z</time></trkpt><trkpt lat="33.5317619" lon="9.51099"><ele>130.0</ele><time>2026-04-29T08:44:19.532Z</time></trkpt><trkpt lat="33.5316702" lon="9.5107662"><ele>130.0</ele><time>2026-04-29T08:44:20.536Z</time></trkpt><trkpt lat="33.5315788" lon="9.5105451"><ele>130.0</ele><time>2026-04-29T08:44:21.54Z</time></trkpt><trkpt lat="33.5314826" lon="9.5103186"><ele>130.0</ele><time>2026-04-29T08:44:22.54Z</time></trkpt><trkpt lat="33.5313889" lon="9.5100998"><ele>129.33333333333334</ele><time>2026-04-29T08:44:23.545Z</time></trkpt><trkpt lat="33.5312945" lon="9.509878"><ele>128.66666666666666</ele><time>2026-04-29T08:44:24.526Z</time></trkpt><trkpt lat="33.5312046" lon="9.509653"><ele>128.0</ele><time>2026-04-29T08:44:25.538Z</time></trkpt><trkpt lat="33.5311134" lon="9.5094256"><ele>128.0</ele><time>2026-04-29T08:44:26.546Z</time></trkpt><trkpt lat="33.5310187" lon="9.5092015"><ele>128.0</ele><time>2026-04-29T08:44:27.552Z</time></trkpt><trkpt lat="33.5309265" lon="9.5089765"><ele>128.0</ele><time>2026-04-29T08:44:28.535Z</time></trkpt><trkpt lat="33.5308318" lon="9.5087548"><ele>127.66666666666666</ele><time>2026-04-29T08:44:29.534Z</time></trkpt><trkpt lat="33.5307404" lon="9.5085294"><ele>127.33333333333334</ele><time>2026-04-29T08:44:30.543Z</time></trkpt><trkpt lat="33.5306464" lon="9.508304"><ele>127.0</ele><time>2026-04-29T08:44:31.536Z</time></trkpt><trkpt lat="33.5305541" lon="9.5080802"><ele>126.66666666666667</ele><time>2026-04-29T08:44:32.537Z</time></trkpt><trkpt lat="33.5304641" lon="9.5078548"><ele>126.33333333333334</ele><time>2026-04-29T08:44:33.536Z</time></trkpt><trkpt lat="33.5303739" lon="9.5076307"><ele>126.0</ele><time>2026-04-29T08:44:34.536Z</time></trkpt><trkpt lat="33.5302797" lon="9.5074094"><ele>126.0</ele><time>2026-04-29T08:44:35.536Z</time></trkpt><trkpt lat="33.5301869" lon="9.5071845"><ele>126.0</ele><time>2026-04-29T08:44:36.557Z</time></trkpt><trkpt lat="33.5300912" lon="9.5069678"><ele>126.0</ele><time>2026-04-29T08:44:37.533Z</time></trkpt><trkpt lat="33.5299986" lon="9.5067462"><ele>125.33333333333334</ele><time>2026-04-29T08:44:38.528Z</time></trkpt><trkpt lat="33.5299026" lon="9.5065225"><ele>124.66666666666667</ele><time>2026-04-29T08:44:39.532Z</time></trkpt><trkpt lat="33.5298109" lon="9.5062946"><ele>124.0</ele><time>2026-04-29T08:44:40.533Z</time></trkpt><trkpt lat="33.5297282" lon="9.5060859"><ele>124.0</ele><time>2026-04-29T08:44:41.534Z</time></trkpt><trkpt lat="33.5296479" lon="9.505886"><ele>124.0</ele><time>2026-04-29T08:44:42.52Z</time></trkpt><trkpt lat="33.5295716" lon="9.5056951"><ele>124.0</ele><time>2026-04-29T08:44:43.534Z</time></trkpt><trkpt lat="33.5294943" lon="9.5055135"><ele>123.0</ele><time>2026-04-29T08:44:44.527Z</time></trkpt><trkpt lat="33.5294205" lon="9.5053305"><ele>122.0</ele><time>2026-04-29T08:44:45.533Z</time></trkpt><trkpt lat="33.5293416" lon="9.5051457"><ele>121.0</ele><time>2026-04-29T08:44:46.535Z</time></trkpt><trkpt lat="33.5292609" lon="9.504962"><ele>121.0</ele><time>2026-04-29T08:44:47.539Z</time></trkpt><trkpt lat="33.5291799" lon="9.5047744"><ele>121.0</ele><time>2026-04-29T08:44:48.538Z</time></trkpt><trkpt lat="33.5291026" lon="9.5045863"><ele>121.0</ele><time>2026-04-29T08:44:49.533Z</time></trkpt><trkpt lat="33.5290216" lon="9.5044003"><ele>121.0</ele><time>2026-04-29T08:44:50.539Z</time></trkpt><trkpt lat="33.5289391" lon="9.5042025"><ele>121.0</ele><time>2026-04-29T08:44:51.535Z</time></trkpt><trkpt lat="33.5288629" lon="9.5040139"><ele>121.0</ele><time>2026-04-29T08:44:52.538Z</time></trkpt><trkpt lat="33.5287856" lon="9.5038223"><ele>121.0</ele><time>2026-04-29T08:44:53.542Z</time></trkpt><trkpt lat="33.5287029" lon="9.5036289"><ele>121.0</ele><time>2026-04-29T08:44:54.534Z</time></trkpt><trkpt lat="33.5286216" lon="9.5034296"><ele>121.0</ele><time>2026-04-29T08:44:55.533Z</time></trkpt><trkpt lat="33.5285376" lon="9.5032252"><ele>121.0</ele><time>2026-04-29T08:44:56.537Z</time></trkpt><trkpt lat="33.5284545" lon="9.5030229"><ele>121.0</ele><time>2026-04-29T08:44:57.535Z</time></trkpt><trkpt lat="33.5283735" lon="9.5028174"><ele>121.0</ele><time>2026-04-29T08:44:58.541Z</time></trkpt><trkpt lat="33.5282936" lon="9.5026146"><ele>121.33333333333334</ele><time>2026-04-29T08:44:59.543Z</time></trkpt><trkpt lat="33.5282091" lon="9.5024153"><ele>121.66666666666666</ele><time>2026-04-29T08:45:00.542Z</time></trkpt><trkpt lat="33.5281207" lon="9.502216"><ele>122.0</ele><time>2026-04-29T08:45:01.53Z</time></trkpt><trkpt lat="33.5280361" lon="9.5020144"><ele>122.0</ele><time>2026-04-29T08:45:02.535Z</time></trkpt><trkpt lat="33.527954" lon="9.5018096"><ele>122.0</ele><time>2026-04-29T08:45:03.536Z</time></trkpt><trkpt lat="33.5278683" lon="9.5016067"><ele>122.0</ele><time>2026-04-29T08:45:04.529Z</time></trkpt><trkpt lat="33.5277871" lon="9.501412"><ele>121.33333333333333</ele><time>2026-04-29T08:45:05.527Z</time></trkpt><trkpt lat="33.5277097" lon="9.501218"><ele>120.66666666666666</ele><time>2026-04-29T08:45:06.536Z</time></trkpt><trkpt lat="33.5276326" lon="9.5010322"><ele>120.0</ele><time>2026-04-29T08:45:07.533Z</time></trkpt><trkpt lat="33.5275567" lon="9.5008544"><ele>120.0</ele><time>2026-04-29T08:45:08.535Z</time></trkpt><trkpt lat="33.5274881" lon="9.500687"><ele>120.0</ele><time>2026-04-29T08:45:09.537Z</time></trkpt><trkpt lat="33.5274182" lon="9.5005272"><ele>120.0</ele><time>2026-04-29T08:45:10.53Z</time></trkpt><trkpt lat="33.5273532" lon="9.5003718"><ele>120.0</ele><time>2026-04-29T08:45:11.528Z</time></trkpt><trkpt lat="33.5272854" lon="9.5002054"><ele>120.0</ele><time>2026-04-29T08:45:12.538Z</time></trkpt><trkpt lat="33.5272098" lon="9.500034"><ele>120.0</ele><time>2026-04-29T08:45:13.532Z</time></trkpt><trkpt lat="33.5271298" lon="9.4998613"><ele>120.0</ele><time>2026-04-29T08:45:14.551Z</time></trkpt><trkpt lat="33.5270504" lon="9.4996805"><ele>120.0</ele><time>2026-04-29T08:45:15.541Z</time></trkpt><trkpt lat="33.5269756" lon="9.4994838"><ele>120.0</ele><time>2026-04-29T08:45:16.537Z</time></trkpt><trkpt lat="33.5268927" lon="9.4992835"><ele>120.66666666666666</ele><time>2026-04-29T08:45:17.532Z</time></trkpt><trkpt lat="33.5268099" lon="9.4990842"><ele>121.33333333333333</ele><time>2026-04-29T08:45:18.534Z</time></trkpt><trkpt lat="33.5267205" lon="9.4988818"><ele>122.0</ele><time>2026-04-29T08:45:19.536Z</time></trkpt><trkpt lat="33.5266268" lon="9.4986782"><ele>122.33333333333333</ele><time>2026-04-29T08:45:20.536Z</time></trkpt><trkpt lat="33.5265268" lon="9.4984731"><ele>122.66666666666666</ele><time>2026-04-29T08:45:21.545Z</time></trkpt><trkpt lat="33.5264217" lon="9.4982739"><ele>123.0</ele><time>2026-04-29T08:45:22.554Z</time></trkpt><trkpt lat="33.5263173" lon="9.498063"><ele>122.66666666666666</ele><time>2026-04-29T08:45:23.527Z</time></trkpt><trkpt lat="33.5262151" lon="9.4978607"><ele>122.33333333333333</ele><time>2026-04-29T08:45:24.536Z</time></trkpt><trkpt lat="33.5261102" lon="9.4976559"><ele>122.0</ele><time>2026-04-29T08:45:25.541Z</time></trkpt><trkpt lat="33.5260011" lon="9.4974494"><ele>122.0</ele><time>2026-04-29T08:45:26.545Z</time></trkpt><trkpt lat="33.5258887" lon="9.4972433"><ele>122.0</ele><time>2026-04-29T08:45:27.542Z</time></trkpt><trkpt lat="33.5257676" lon="9.4970387"><ele>122.0</ele><time>2026-04-29T08:45:28.535Z</time></trkpt><trkpt lat="33.5256482" lon="9.4968394"><ele>122.0</ele><time>2026-04-29T08:45:29.532Z</time></trkpt><trkpt lat="33.5255232" lon="9.4966385"><ele>122.0</ele><time>2026-04-29T08:45:30.533Z</time></trkpt><trkpt lat="33.5253966" lon="9.4964311"><ele>122.0</ele><time>2026-04-29T08:45:31.54Z</time></trkpt><trkpt lat="33.5252705" lon="9.4962268"><ele>122.0</ele><time>2026-04-29T08:45:32.535Z</time></trkpt><trkpt lat="33.5251454" lon="9.4960195"><ele>122.0</ele><time>2026-04-29T08:45:33.539Z</time></trkpt><trkpt lat="33.5250216" lon="9.4958166"><ele>122.0</ele><time>2026-04-29T08:45:34.534Z</time></trkpt><trkpt lat="33.5248992" lon="9.4956134"><ele>122.0</ele><time>2026-04-29T08:45:35.535Z</time></trkpt><trkpt lat="33.5247733" lon="9.4954067"><ele>122.0</ele><time>2026-04-29T08:45:36.527Z</time></trkpt><trkpt lat="33.524645" lon="9.4952061"><ele>122.0</ele><time>2026-04-29T08:45:37.522Z</time></trkpt><trkpt lat="33.5245211" lon="9.4950016"><ele>122.0</ele><time>2026-04-29T08:45:38.529Z</time></trkpt><trkpt lat="33.5243958" lon="9.4947977"><ele>122.0</ele><time>2026-04-29T08:45:39.533Z</time></trkpt><trkpt lat="33.5242703" lon="9.4945898"><ele>122.0</ele><time>2026-04-29T08:45:40.526Z</time></trkpt><trkpt lat="33.5241446" lon="9.4943836"><ele>123.0</ele><time>2026-04-29T08:45:41.536Z</time></trkpt><trkpt lat="33.5240184" lon="9.4941732"><ele>124.0</ele><time>2026-04-29T08:45:42.527Z</time></trkpt><trkpt lat="33.523892" lon="9.4939662"><ele>125.0</ele><time>2026-04-29T08:45:43.533Z</time></trkpt><trkpt lat="33.5237665" lon="9.4937579"><ele>125.33333333333333</ele><time>2026-04-29T08:45:44.54Z</time></trkpt><trkpt lat="33.5236413" lon="9.4935556"><ele>125.66666666666666</ele><time>2026-04-29T08:45:45.531Z</time></trkpt><trkpt lat="33.5235162" lon="9.4933492"><ele>126.0</ele><time>2026-04-29T08:45:46.536Z</time></trkpt><trkpt lat="33.5233929" lon="9.4931417"><ele>126.0</ele><time>2026-04-29T08:45:47.533Z</time></trkpt><trkpt lat="33.5232669" lon="9.4929321"><ele>126.0</ele><time>2026-04-29T08:45:48.562Z</time></trkpt><trkpt lat="33.5231397" lon="9.4927262"><ele>126.0</ele><time>2026-04-29T08:45:49.53Z</time></trkpt><trkpt lat="33.5230118" lon="9.4925193"><ele>126.33333333333334</ele><time>2026-04-29T08:45:50.53Z</time></trkpt><trkpt lat="33.5228806" lon="9.4923103"><ele>126.66666666666667</ele><time>2026-04-29T08:45:51.541Z</time></trkpt><trkpt lat="33.5227563" lon="9.4921044"><ele>127.0</ele><time>2026-04-29T08:45:52.534Z</time></trkpt><trkpt lat="33.5226263" lon="9.4918967"><ele>127.0</ele><time>2026-04-29T08:45:53.521Z</time></trkpt><trkpt lat="33.5225006" lon="9.4916915"><ele>127.0</ele><time>2026-04-29T08:45:54.541Z</time></trkpt><trkpt lat="33.5223756" lon="9.4914806"><ele>127.0</ele><time>2026-04-29T08:45:55.527Z</time></trkpt><trkpt lat="33.5222529" lon="9.4912766"><ele>126.66666666666667</ele><time>2026-04-29T08:45:56.532Z</time></trkpt><trkpt lat="33.5221271" lon="9.4910761"><ele>126.33333333333334</ele><time>2026-04-29T08:45:57.526Z</time></trkpt><trkpt lat="33.5220024" lon="9.4908725"><ele>126.0</ele><time>2026-04-29T08:45:58.538Z</time></trkpt><trkpt lat="33.5218772" lon="9.4906641"><ele>125.33333333333334</ele><time>2026-04-29T08:45:59.548Z</time></trkpt><trkpt lat="33.5217472" lon="9.4904533"><ele>124.66666666666667</ele><time>2026-04-29T08:46:00.534Z</time></trkpt><trkpt lat="33.5216203" lon="9.490241"><ele>124.0</ele><time>2026-04-29T08:46:01.531Z</time></trkpt><trkpt lat="33.5214936" lon="9.4900346"><ele>124.0</ele><time>2026-04-29T08:46:02.536Z</time></trkpt><trkpt lat="33.5213688" lon="9.4898259"><ele>124.0</ele><time>2026-04-29T08:46:03.539Z</time></trkpt><trkpt lat="33.5212426" lon="9.489618"><ele>124.0</ele><time>2026-04-29T08:46:04.531Z</time></trkpt><trkpt lat="33.5211176" lon="9.4894144"><ele>124.0</ele><time>2026-04-29T08:46:05.53Z</time></trkpt><trkpt lat="33.5209936" lon="9.489209"><ele>124.0</ele><time>2026-04-29T08:46:06.531Z</time></trkpt><trkpt lat="33.5208676" lon="9.4890031"><ele>124.0</ele><time>2026-04-29T08:46:07.529Z</time></trkpt><trkpt lat="33.5207407" lon="9.4887958"><ele>124.0</ele><time>2026-04-29T08:46:08.528Z</time></trkpt><trkpt lat="33.520613" lon="9.4885897"><ele>124.0</ele><time>2026-04-29T08:46:09.524Z</time></trkpt><trkpt lat="33.5204893" lon="9.4883797"><ele>124.0</ele><time>2026-04-29T08:46:10.526Z</time></trkpt><trkpt lat="33.5203598" lon="9.488169"><ele>124.0</ele><time>2026-04-29T08:46:11.539Z</time></trkpt><trkpt lat="33.5202358" lon="9.4879594"><ele>124.0</ele><time>2026-04-29T08:46:12.531Z</time></trkpt><trkpt lat="33.5201119" lon="9.4877584"><ele>124.0</ele><time>2026-04-29T08:46:13.539Z</time></trkpt><trkpt lat="33.5199832" lon="9.4875526"><ele>124.0</ele><time>2026-04-29T08:46:14.536Z</time></trkpt><trkpt lat="33.5198524" lon="9.4873473"><ele>124.0</ele><time>2026-04-29T08:46:15.533Z</time></trkpt><trkpt lat="33.5197249" lon="9.4871418"><ele>124.0</ele><time>2026-04-29T08:46:16.54Z</time></trkpt><trkpt lat="33.5195963" lon="9.4869357"><ele>124.0</ele><time>2026-04-29T08:46:17.529Z</time></trkpt><trkpt lat="33.5194708" lon="9.4867306"><ele>124.0</ele><time>2026-04-29T08:46:18.541Z</time></trkpt><trkpt lat="33.5193436" lon="9.4865236"><ele>124.0</ele><time>2026-04-29T08:46:19.541Z</time></trkpt><trkpt lat="33.5192153" lon="9.4863137"><ele>123.33333333333334</ele><time>2026-04-29T08:46:20.522Z</time></trkpt><trkpt lat="33.5190898" lon="9.4861069"><ele>122.66666666666666</ele><time>2026-04-29T08:46:21.531Z</time></trkpt><trkpt lat="33.5189661" lon="9.4858984"><ele>122.0</ele><time>2026-04-29T08:46:22.528Z</time></trkpt><trkpt lat="33.51884" lon="9.4856945"><ele>122.33333333333333</ele><time>2026-04-29T08:46:23.532Z</time></trkpt><trkpt lat="33.5187143" lon="9.4854907"><ele>122.66666666666666</ele><time>2026-04-29T08:46:24.535Z</time></trkpt><trkpt lat="33.518588" lon="9.4852827"><ele>123.0</ele><time>2026-04-29T08:46:25.524Z</time></trkpt><trkpt lat="33.5184601" lon="9.4850752"><ele>123.0</ele><time>2026-04-29T08:46:26.523Z</time></trkpt><trkpt lat="33.5183313" lon="9.4848674"><ele>123.0</ele><time>2026-04-29T08:46:27.525Z</time></trkpt><trkpt lat="33.518202" lon="9.4846564"><ele>123.0</ele><time>2026-04-29T08:46:28.532Z</time></trkpt><trkpt lat="33.5180785" lon="9.4844466"><ele>123.33333333333334</ele><time>2026-04-29T08:46:29.526Z</time></trkpt><trkpt lat="33.517955" lon="9.4842409"><ele>123.66666666666667</ele><time>2026-04-29T08:46:30.525Z</time></trkpt><trkpt lat="33.5178285" lon="9.4840347"><ele>124.0</ele><time>2026-04-29T08:46:31.535Z</time></trkpt><trkpt lat="33.5177038" lon="9.483824"><ele>123.66666666666667</ele><time>2026-04-29T08:46:32.532Z</time></trkpt><trkpt lat="33.5175755" lon="9.483616"><ele>123.33333333333334</ele><time>2026-04-29T08:46:33.531Z</time></trkpt><trkpt lat="33.5174518" lon="9.4834101"><ele>123.0</ele><time>2026-04-29T08:46:34.532Z</time></trkpt><trkpt lat="33.517322" lon="9.4832055"><ele>123.0</ele><time>2026-04-29T08:46:35.513Z</time></trkpt><trkpt lat="33.5171981" lon="9.4829975"><ele>123.0</ele><time>2026-04-29T08:46:36.528Z</time></trkpt><trkpt lat="33.5170711" lon="9.4827855"><ele>123.0</ele><time>2026-04-29T08:46:37.534Z</time></trkpt><trkpt lat="33.5169413" lon="9.4825772"><ele>123.33333333333334</ele><time>2026-04-29T08:46:38.539Z</time></trkpt><trkpt lat="33.5168144" lon="9.4823735"><ele>123.66666666666667</ele><time>2026-04-29T08:46:39.528Z</time></trkpt><trkpt lat="33.5166864" lon="9.4821706"><ele>124.0</ele><time>2026-04-29T08:46:40.532Z</time></trkpt><trkpt lat="33.5165593" lon="9.4819681"><ele>124.33333333333334</ele><time>2026-04-29T08:46:41.531Z</time></trkpt><trkpt lat="33.5164345" lon="9.4817655"><ele>124.66666666666666</ele><time>2026-04-29T08:46:42.549Z</time></trkpt><trkpt lat="33.5163107" lon="9.4815583"><ele>125.0</ele><time>2026-04-29T08:46:43.553Z</time></trkpt><trkpt lat="33.5161837" lon="9.4813505"><ele>125.66666666666666</ele><time>2026-04-29T08:46:44.534Z</time></trkpt><trkpt lat="33.5160555" lon="9.4811428"><ele>126.33333333333334</ele><time>2026-04-29T08:46:45.519Z</time></trkpt><trkpt lat="33.5159312" lon="9.4809308"><ele>127.0</ele><time>2026-04-29T08:46:46.529Z</time></trkpt><trkpt lat="33.5158079" lon="9.4807251"><ele>127.0</ele><time>2026-04-29T08:46:47.529Z</time></trkpt><trkpt lat="33.5156807" lon="9.4805143"><ele>127.0</ele><time>2026-04-29T08:46:48.536Z</time></trkpt><trkpt lat="33.5155564" lon="9.4803119"><ele>127.0</ele><time>2026-04-29T08:46:49.531Z</time></trkpt><trkpt lat="33.5154311" lon="9.480106"><ele>127.33333333333334</ele><time>2026-04-29T08:46:50.534Z</time></trkpt><trkpt lat="33.5153034" lon="9.4799006"><ele>127.66666666666666</ele><time>2026-04-29T08:46:51.533Z</time></trkpt><trkpt lat="33.5151767" lon="9.4796927"><ele>128.0</ele><time>2026-04-29T08:46:52.537Z</time></trkpt><trkpt lat="33.5150451" lon="9.479486"><ele>128.0</ele><time>2026-04-29T08:46:53.537Z</time></trkpt><trkpt lat="33.5149196" lon="9.4792728"><ele>128.0</ele><time>2026-04-29T08:46:54.536Z</time></trkpt><trkpt lat="33.5147996" lon="9.4790682"><ele>128.0</ele><time>2026-04-29T08:46:55.528Z</time></trkpt><trkpt lat="33.5146866" lon="9.4788749"><ele>128.33333333333331</ele><time>2026-04-29T08:46:56.537Z</time></trkpt><trkpt lat="33.5145824" lon="9.4786937"><ele>128.66666666666666</ele><time>2026-04-29T08:46:57.531Z</time></trkpt><trkpt lat="33.5144789" lon="9.478518"><ele>129.0</ele><time>2026-04-29T08:46:58.528Z</time></trkpt><trkpt lat="33.5143791" lon="9.4783409"><ele>129.0</ele><time>2026-04-29T08:46:59.532Z</time></trkpt><trkpt lat="33.5142796" lon="9.478161"><ele>129.0</ele><time>2026-04-29T08:47:00.528Z</time></trkpt><trkpt lat="33.5141776" lon="9.4779733"><ele>129.0</ele><time>2026-04-29T08:47:01.539Z</time></trkpt><trkpt lat="33.5140789" lon="9.4777881"><ele>129.33333333333334</ele><time>2026-04-29T08:47:02.535Z</time></trkpt><trkpt lat="33.5139826" lon="9.4776016"><ele>129.66666666666669</ele><time>2026-04-29T08:47:03.532Z</time></trkpt><trkpt lat="33.5138873" lon="9.477412"><ele>130.0</ele><time>2026-04-29T08:47:04.525Z</time></trkpt><trkpt lat="33.5137887" lon="9.4772188"><ele>129.66666666666669</ele><time>2026-04-29T08:47:05.539Z</time></trkpt><trkpt lat="33.5136893" lon="9.4770244"><ele>129.33333333333334</ele><time>2026-04-29T08:47:06.531Z</time></trkpt><trkpt lat="33.5135933" lon="9.4768368"><ele>129.0</ele><time>2026-04-29T08:47:07.537Z</time></trkpt><trkpt lat="33.513498" lon="9.4766484"><ele>129.0</ele><time>2026-04-29T08:47:08.533Z</time></trkpt><trkpt lat="33.5134011" lon="9.4764623"><ele>129.0</ele><time>2026-04-29T08:47:09.536Z</time></trkpt><trkpt lat="33.5133088" lon="9.4762776"><ele>129.0</ele><time>2026-04-29T08:47:10.537Z</time></trkpt><trkpt lat="33.5132171" lon="9.4760873"><ele>129.66666666666666</ele><time>2026-04-29T08:47:11.536Z</time></trkpt><trkpt lat="33.5131231" lon="9.4759021"><ele>130.33333333333331</ele><time>2026-04-29T08:47:12.534Z</time></trkpt><trkpt lat="33.5130273" lon="9.4757154"><ele>131.0</ele><time>2026-04-29T08:47:13.534Z</time></trkpt><trkpt lat="33.512934" lon="9.4755297"><ele>130.66666666666666</ele><time>2026-04-29T08:47:14.537Z</time></trkpt><trkpt lat="33.5128394" lon="9.4753457"><ele>130.33333333333334</ele><time>2026-04-29T08:47:15.531Z</time></trkpt><trkpt lat="33.5127435" lon="9.4751615"><ele>130.0</ele><time>2026-04-29T08:47:16.529Z</time></trkpt><trkpt lat="33.51265" lon="9.474972"><ele>130.0</ele><time>2026-04-29T08:47:17.526Z</time></trkpt><trkpt lat="33.512558" lon="9.4747834"><ele>130.0</ele><time>2026-04-29T08:47:18.532Z</time></trkpt><trkpt lat="33.5124591" lon="9.4745954"><ele>130.0</ele><time>2026-04-29T08:47:19.528Z</time></trkpt><trkpt lat="33.5123611" lon="9.4744033"><ele>130.33333333333334</ele><time>2026-04-29T08:47:20.524Z</time></trkpt><trkpt lat="33.5122598" lon="9.4742064"><ele>130.66666666666666</ele><time>2026-04-29T08:47:21.529Z</time></trkpt><trkpt lat="33.5121583" lon="9.4740104"><ele>131.0</ele><time>2026-04-29T08:47:22.533Z</time></trkpt><trkpt lat="33.5120582" lon="9.4738127"><ele>131.33333333333331</ele><time>2026-04-29T08:47:23.536Z</time></trkpt><trkpt lat="33.5119568" lon="9.4736145"><ele>131.66666666666666</ele><time>2026-04-29T08:47:24.537Z</time></trkpt><trkpt lat="33.5118537" lon="9.4734117"><ele>132.0</ele><time>2026-04-29T08:47:25.546Z</time></trkpt><trkpt lat="33.511749" lon="9.4732086"><ele>132.0</ele><time>2026-04-29T08:47:26.535Z</time></trkpt><trkpt lat="33.5116388" lon="9.4730052"><ele>132.0</ele><time>2026-04-29T08:47:27.536Z</time></trkpt><trkpt lat="33.5115297" lon="9.4727925"><ele>132.0</ele><time>2026-04-29T08:47:28.532Z</time></trkpt><trkpt lat="33.5114199" lon="9.4725771"><ele>131.66666666666666</ele><time>2026-04-29T08:47:29.537Z</time></trkpt><trkpt lat="33.5113111" lon="9.4723638"><ele>131.33333333333331</ele><time>2026-04-29T08:47:30.534Z</time></trkpt><trkpt lat="33.5112005" lon="9.472148"><ele>131.0</ele><time>2026-04-29T08:47:31.538Z</time></trkpt><trkpt lat="33.5110904" lon="9.4719367"><ele>129.33333333333331</ele><time>2026-04-29T08:47:32.535Z</time></trkpt><trkpt lat="33.5109816" lon="9.4717223"><ele>127.66666666666666</ele><time>2026-04-29T08:47:33.532Z</time></trkpt><trkpt lat="33.5108678" lon="9.4715025"><ele>126.0</ele><time>2026-04-29T08:47:34.533Z</time></trkpt><trkpt lat="33.510757" lon="9.4712833"><ele>125.66666666666666</ele><time>2026-04-29T08:47:35.534Z</time></trkpt><trkpt lat="33.5106449" lon="9.471064"><ele>125.33333333333333</ele><time>2026-04-29T08:47:36.543Z</time></trkpt><trkpt lat="33.5105296" lon="9.4708446"><ele>125.0</ele><time>2026-04-29T08:47:37.529Z</time></trkpt><trkpt lat="33.5104137" lon="9.4706214"><ele>124.33333333333333</ele><time>2026-04-29T08:47:38.539Z</time></trkpt><trkpt lat="33.5103004" lon="9.4703963"><ele>123.66666666666666</ele><time>2026-04-29T08:47:39.54Z</time></trkpt><trkpt lat="33.5101906" lon="9.4701738"><ele>123.0</ele><time>2026-04-29T08:47:40.539Z</time></trkpt><trkpt lat="33.510078" lon="9.4699543"><ele>123.0</ele><time>2026-04-29T08:47:41.542Z</time></trkpt><trkpt lat="33.509964" lon="9.4697344"><ele>123.0</ele><time>2026-04-29T08:47:42.537Z</time></trkpt><trkpt lat="33.5098495" lon="9.4695225"><ele>123.0</ele><time>2026-04-29T08:47:43.533Z</time></trkpt><trkpt lat="33.5097346" lon="9.4693039"><ele>123.0</ele><time>2026-04-29T08:47:44.533Z</time></trkpt><trkpt lat="33.5096226" lon="9.4690813"><ele>123.0</ele><time>2026-04-29T08:47:45.534Z</time></trkpt><trkpt lat="33.5095084" lon="9.4688587"><ele>123.0</ele><time>2026-04-29T08:47:46.529Z</time></trkpt><trkpt lat="33.5093974" lon="9.4686333"><ele>122.66666666666666</ele><time>2026-04-29T08:47:47.52Z</time></trkpt><trkpt lat="33.5092865" lon="9.4684069"><ele>122.33333333333333</ele><time>2026-04-29T08:47:48.538Z</time></trkpt><trkpt lat="33.5091695" lon="9.4681867"><ele>122.0</ele><time>2026-04-29T08:47:49.526Z</time></trkpt><trkpt lat="33.5090513" lon="9.4679619"><ele>122.0</ele><time>2026-04-29T08:47:50.53Z</time></trkpt><trkpt lat="33.5089378" lon="9.4677419"><ele>122.0</ele><time>2026-04-29T08:47:51.531Z</time></trkpt><trkpt lat="33.5088245" lon="9.4675256"><ele>122.0</ele><time>2026-04-29T08:47:52.54Z</time></trkpt><trkpt lat="33.5087089" lon="9.4673062"><ele>122.33333333333333</ele><time>2026-04-29T08:47:53.536Z</time></trkpt><trkpt lat="33.5085949" lon="9.4670845"><ele>122.66666666666666</ele><time>2026-04-29T08:47:54.534Z</time></trkpt><trkpt lat="33.5084841" lon="9.4668606"><ele>123.0</ele><time>2026-04-29T08:47:55.528Z</time></trkpt><trkpt lat="33.5083733" lon="9.4666433"><ele>123.0</ele><time>2026-04-29T08:47:56.535Z</time></trkpt><trkpt lat="33.5082656" lon="9.4664207"><ele>123.0</ele><time>2026-04-29T08:47:57.539Z</time></trkpt><trkpt lat="33.5081491" lon="9.4661984"><ele>123.0</ele><time>2026-04-29T08:47:58.538Z</time></trkpt><trkpt lat="33.5080357" lon="9.4659799"><ele>123.0</ele><time>2026-04-29T08:47:59.534Z</time></trkpt><trkpt lat="33.5079242" lon="9.465757"><ele>123.0</ele><time>2026-04-29T08:48:00.534Z</time></trkpt><trkpt lat="33.5078095" lon="9.4655399"><ele>123.0</ele><time>2026-04-29T08:48:01.534Z</time></trkpt><trkpt lat="33.5076976" lon="9.4653139"><ele>123.0</ele><time>2026-04-29T08:48:02.535Z</time></trkpt><trkpt lat="33.5075814" lon="9.4650931"><ele>123.0</ele><time>2026-04-29T08:48:03.543Z</time></trkpt><trkpt lat="33.5074704" lon="9.4648715"><ele>123.0</ele><time>2026-04-29T08:48:04.536Z</time></trkpt><trkpt lat="33.5073614" lon="9.4646523"><ele>123.66666666666666</ele><time>2026-04-29T08:48:05.539Z</time></trkpt><trkpt lat="33.5072504" lon="9.4644333"><ele>124.33333333333333</ele><time>2026-04-29T08:48:06.52Z</time></trkpt><trkpt lat="33.507147" lon="9.4642251"><ele>125.0</ele><time>2026-04-29T08:48:07.527Z</time></trkpt><trkpt lat="33.5070528" lon="9.4640471"><ele>125.0</ele><time>2026-04-29T08:48:08.526Z</time></trkpt><trkpt lat="33.5069699" lon="9.463892"><ele>125.0</ele><time>2026-04-29T08:48:09.529Z</time></trkpt><trkpt lat="33.5068931" lon="9.4637397"><ele>125.0</ele><time>2026-04-29T08:48:10.536Z</time></trkpt><trkpt lat="33.5068165" lon="9.4635894"><ele>125.0</ele><time>2026-04-29T08:48:11.532Z</time></trkpt><trkpt lat="33.5067384" lon="9.4634403"><ele>125.0</ele><time>2026-04-29T08:48:12.534Z</time></trkpt><trkpt lat="33.5066642" lon="9.4632975"><ele>125.0</ele><time>2026-04-29T08:48:13.529Z</time></trkpt><trkpt lat="33.506592" lon="9.4631552"><ele>125.0</ele><time>2026-04-29T08:48:14.531Z</time></trkpt><trkpt lat="33.5065244" lon="9.4630216"><ele>125.0</ele><time>2026-04-29T08:48:15.54Z</time></trkpt><trkpt lat="33.5064622" lon="9.4628997"><ele>124.8</ele><time>2026-04-29T08:48:16.537Z</time></trkpt><trkpt lat="33.5064038" lon="9.4627854"><ele>124.6</ele><time>2026-04-29T08:48:17.533Z</time></trkpt><trkpt lat="33.5063467" lon="9.462676"><ele>124.4</ele><time>2026-04-29T08:48:18.549Z</time></trkpt><trkpt lat="33.5062917" lon="9.462569"><ele>124.2</ele><time>2026-04-29T08:48:19.531Z</time></trkpt><trkpt lat="33.5062385" lon="9.4624665"><ele>124.0</ele><time>2026-04-29T08:48:20.536Z</time></trkpt><trkpt lat="33.5061895" lon="9.4623647"><ele>124.0</ele><time>2026-04-29T08:48:21.529Z</time></trkpt><trkpt lat="33.5061379" lon="9.4622685"><ele>124.0</ele><time>2026-04-29T08:48:22.533Z</time></trkpt><trkpt lat="33.5060888" lon="9.4621616"><ele>124.0</ele><time>2026-04-29T08:48:23.537Z</time></trkpt><trkpt lat="33.5060377" lon="9.4620591"><ele>124.0</ele><time>2026-04-29T08:48:24.542Z</time></trkpt><trkpt lat="33.5059877" lon="9.4619598"><ele>124.0</ele><time>2026-04-29T08:48:25.537Z</time></trkpt><trkpt lat="33.5059334" lon="9.4618621"><ele>124.0</ele><time>2026-04-29T08:48:26.534Z</time></trkpt><trkpt lat="33.5058816" lon="9.4617658"><ele>124.0</ele><time>2026-04-29T08:48:27.522Z</time></trkpt><trkpt lat="33.5058322" lon="9.4616668"><ele>124.0</ele><time>2026-04-29T08:48:28.528Z</time></trkpt><trkpt lat="33.5057793" lon="9.4615634"><ele>124.0</ele><time>2026-04-29T08:48:29.526Z</time></trkpt><trkpt lat="33.5057288" lon="9.461461"><ele>124.0</ele><time>2026-04-29T08:48:30.531Z</time></trkpt><trkpt lat="33.5056735" lon="9.4613594"><ele>124.0</ele><time>2026-04-29T08:48:31.535Z</time></trkpt><trkpt lat="33.5056211" lon="9.4612523"><ele>124.0</ele><time>2026-04-29T08:48:32.54Z</time></trkpt><trkpt lat="33.5055656" lon="9.4611486"><ele>124.0</ele><time>2026-04-29T08:48:33.537Z</time></trkpt><trkpt lat="33.5055154" lon="9.4610435"><ele>124.0</ele><time>2026-04-29T08:48:34.531Z</time></trkpt><trkpt lat="33.5054609" lon="9.4609331"><ele>124.0</ele><time>2026-04-29T08:48:35.531Z</time></trkpt><trkpt lat="33.5054049" lon="9.4608294"><ele>124.0</ele><time>2026-04-29T08:48:36.529Z</time></trkpt><trkpt lat="33.5053533" lon="9.4607245"><ele>124.0</ele><time>2026-04-29T08:48:37.536Z</time></trkpt><trkpt lat="33.5052981" lon="9.4606176"><ele>124.0</ele><time>2026-04-29T08:48:38.53Z</time></trkpt><trkpt lat="33.5052378" lon="9.4604872"><ele>124.0</ele><time>2026-04-29T08:48:39.529Z</time></trkpt><trkpt lat="33.5051591" lon="9.4603338"><ele>123.66666666666667</ele><time>2026-04-29T08:48:40.526Z</time></trkpt><trkpt lat="33.5050774" lon="9.4601696"><ele>123.33333333333334</ele><time>2026-04-29T08:48:41.529Z</time></trkpt><trkpt lat="33.5049843" lon="9.4599909"><ele>123.0</ele><time>2026-04-29T08:48:42.538Z</time></trkpt><trkpt lat="33.5048867" lon="9.4597957"><ele>123.33333333333334</ele><time>2026-04-29T08:48:43.535Z</time></trkpt><trkpt lat="33.5047846" lon="9.4596038"><ele>123.66666666666667</ele><time>2026-04-29T08:48:44.53Z</time></trkpt><trkpt lat="33.504682" lon="9.4593993"><ele>124.0</ele><time>2026-04-29T08:48:45.527Z</time></trkpt><trkpt lat="33.5045743" lon="9.4591957"><ele>124.0</ele><time>2026-04-29T08:48:46.533Z</time></trkpt><trkpt lat="33.5044688" lon="9.4589894"><ele>124.0</ele><time>2026-04-29T08:48:47.53Z</time></trkpt><trkpt lat="33.504364" lon="9.4587917"><ele>124.0</ele><time>2026-04-29T08:48:48.53Z</time></trkpt><trkpt lat="33.5042575" lon="9.4585933"><ele>123.33333333333334</ele><time>2026-04-29T08:48:49.535Z</time></trkpt><trkpt lat="33.5041538" lon="9.4583915"><ele>122.66666666666666</ele><time>2026-04-29T08:48:50.533Z</time></trkpt><trkpt lat="33.5040566" lon="9.4581958"><ele>122.0</ele><time>2026-04-29T08:48:51.528Z</time></trkpt><trkpt lat="33.5039538" lon="9.4579911"><ele>120.5</ele><time>2026-04-29T08:48:52.532Z</time></trkpt><trkpt lat="33.5038333" lon="9.457767"><ele>119.0</ele><time>2026-04-29T08:48:53.525Z</time></trkpt><trkpt lat="33.5037008" lon="9.4575303"><ele>119.0</ele><time>2026-04-29T08:48:54.537Z</time></trkpt><trkpt lat="33.5035633" lon="9.4572803"><ele>119.0</ele><time>2026-04-29T08:48:55.535Z</time></trkpt><trkpt lat="33.5034449" lon="9.4570231"><ele>119.0</ele><time>2026-04-29T08:48:56.53Z</time></trkpt><trkpt lat="33.5033365" lon="9.4567596"><ele>119.0</ele><time>2026-04-29T08:48:57.526Z</time></trkpt><trkpt lat="33.5032126" lon="9.4565175"><ele>120.5</ele><time>2026-04-29T08:48:58.524Z</time></trkpt><trkpt lat="33.5030776" lon="9.4562862"><ele>122.0</ele><time>2026-04-29T08:48:59.529Z</time></trkpt><trkpt lat="33.5029506" lon="9.4560539"><ele>121.66666666666666</ele><time>2026-04-29T08:49:00.529Z</time></trkpt><trkpt lat="33.502839" lon="9.4558256"><ele>121.33333333333334</ele><time>2026-04-29T08:49:01.52Z</time></trkpt><trkpt lat="33.502725" lon="9.4555969"><ele>121.0</ele><time>2026-04-29T08:49:02.535Z</time></trkpt><trkpt lat="33.5026093" lon="9.4553753"><ele>121.0</ele><time>2026-04-29T08:49:03.528Z</time></trkpt><trkpt lat="33.5025013" lon="9.455143"><ele>121.0</ele><time>2026-04-29T08:49:04.531Z</time></trkpt><trkpt lat="33.5023902" lon="9.4549061"><ele>121.0</ele><time>2026-04-29T08:49:05.53Z</time></trkpt><trkpt lat="33.5022734" lon="9.4546755"><ele>121.0</ele><time>2026-04-29T08:49:06.52Z</time></trkpt><trkpt lat="33.5021541" lon="9.4544639"><ele>121.0</ele><time>2026-04-29T08:49:07.522Z</time></trkpt><trkpt lat="33.5020434" lon="9.4542497"><ele>121.0</ele><time>2026-04-29T08:49:08.532Z</time></trkpt><trkpt lat="33.5019403" lon="9.4540351"><ele>121.0</ele><time>2026-04-29T08:49:09.526Z</time></trkpt><trkpt lat="33.5018291" lon="9.453825"><ele>121.0</ele><time>2026-04-29T08:49:10.522Z</time></trkpt><trkpt lat="33.5017133" lon="9.4536147"><ele>121.0</ele><time>2026-04-29T08:49:11.525Z</time></trkpt><trkpt lat="33.501603" lon="9.4534012"><ele>121.0</ele><time>2026-04-29T08:49:12.528Z</time></trkpt><trkpt lat="33.5014954" lon="9.4531915"><ele>121.0</ele><time>2026-04-29T08:49:13.543Z</time></trkpt><trkpt lat="33.5013892" lon="9.4529801"><ele>121.0</ele><time>2026-04-29T08:49:14.529Z</time></trkpt><trkpt lat="33.501279" lon="9.4527629"><ele>121.0</ele><time>2026-04-29T08:49:15.528Z</time></trkpt><trkpt lat="33.5011663" lon="9.4525425"><ele>121.0</ele><time>2026-04-29T08:49:16.519Z</time></trkpt><trkpt lat="33.5010539" lon="9.4523259"><ele>121.0</ele><time>2026-04-29T08:49:17.53Z</time></trkpt><trkpt lat="33.5009427" lon="9.45211"><ele>121.0</ele><time>2026-04-29T08:49:18.528Z</time></trkpt><trkpt lat="33.5008324" lon="9.4518902"><ele>121.0</ele><time>2026-04-29T08:49:19.53Z</time></trkpt><trkpt lat="33.5007232" lon="9.4516728"><ele>121.0</ele><time>2026-04-29T08:49:20.53Z</time></trkpt><trkpt lat="33.5006157" lon="9.4514577"><ele>121.66666666666667</ele><time>2026-04-29T08:49:21.524Z</time></trkpt><trkpt lat="33.5005054" lon="9.4512475"><ele>122.33333333333334</ele><time>2026-04-29T08:49:22.528Z</time></trkpt><trkpt lat="33.5003996" lon="9.4510331"><ele>123.0</ele><time>2026-04-29T08:49:23.532Z</time></trkpt><trkpt lat="33.5002919" lon="9.4508206"><ele>123.0</ele><time>2026-04-29T08:49:24.527Z</time></trkpt><trkpt lat="33.5001814" lon="9.450616"><ele>123.0</ele><time>2026-04-29T08:49:25.525Z</time></trkpt><trkpt lat="33.5000702" lon="9.4504088"><ele>123.0</ele><time>2026-04-29T08:49:26.523Z</time></trkpt><trkpt lat="33.4999644" lon="9.4501981"><ele>123.33333333333334</ele><time>2026-04-29T08:49:27.529Z</time></trkpt><trkpt lat="33.4998589" lon="9.4499852"><ele>123.66666666666667</ele><time>2026-04-29T08:49:28.523Z</time></trkpt><trkpt lat="33.4997489" lon="9.4497691"><ele>124.0</ele><time>2026-04-29T08:49:29.526Z</time></trkpt><trkpt lat="33.4996373" lon="9.4495483"><ele>123.66666666666667</ele><time>2026-04-29T08:49:30.53Z</time></trkpt><trkpt lat="33.499522" lon="9.4493286"><ele>123.33333333333334</ele><time>2026-04-29T08:49:31.533Z</time></trkpt><trkpt lat="33.4994116" lon="9.4491113"><ele>123.0</ele><time>2026-04-29T08:49:32.532Z</time></trkpt><trkpt lat="33.4993001" lon="9.4488951"><ele>123.0</ele><time>2026-04-29T08:49:33.569Z</time></trkpt><trkpt lat="33.4991947" lon="9.4486806"><ele>123.0</ele><time>2026-04-29T08:49:34.536Z</time></trkpt><trkpt lat="33.4990874" lon="9.4484673"><ele>123.0</ele><time>2026-04-29T08:49:35.531Z</time></trkpt><trkpt lat="33.4989739" lon="9.4482511"><ele>123.0</ele><time>2026-04-29T08:49:36.529Z</time></trkpt><trkpt lat="33.4988584" lon="9.4480301"><ele>123.0</ele><time>2026-04-29T08:49:37.531Z</time></trkpt><trkpt lat="33.4987421" lon="9.4478047"><ele>123.0</ele><time>2026-04-29T08:49:38.534Z</time></trkpt><trkpt lat="33.4986221" lon="9.4475726"><ele>122.0</ele><time>2026-04-29T08:49:39.533Z</time></trkpt><trkpt lat="33.498493" lon="9.4473292"><ele>121.0</ele><time>2026-04-29T08:49:40.531Z</time></trkpt><trkpt lat="33.498357" lon="9.4470928"><ele>120.5</ele><time>2026-04-29T08:49:41.537Z</time></trkpt><trkpt lat="33.4982202" lon="9.4468446"><ele>120.0</ele><time>2026-04-29T08:49:42.533Z</time></trkpt><trkpt lat="33.4980884" lon="9.4465987"><ele>120.0</ele><time>2026-04-29T08:49:43.534Z</time></trkpt><trkpt lat="33.497963" lon="9.4463584"><ele>120.0</ele><time>2026-04-29T08:49:44.524Z</time></trkpt><trkpt lat="33.4978482" lon="9.4461169"><ele>118.5</ele><time>2026-04-29T08:49:45.544Z</time></trkpt><trkpt lat="33.4977355" lon="9.4458698"><ele>117.0</ele><time>2026-04-29T08:49:46.523Z</time></trkpt><trkpt lat="33.4976188" lon="9.4456157"><ele>116.5</ele><time>2026-04-29T08:49:47.526Z</time></trkpt><trkpt lat="33.4974937" lon="9.4453753"><ele>116.0</ele><time>2026-04-29T08:49:48.533Z</time></trkpt><trkpt lat="33.4973755" lon="9.4451506"><ele>116.0</ele><time>2026-04-29T08:49:49.529Z</time></trkpt><trkpt lat="33.4972563" lon="9.4449293"><ele>116.0</ele><time>2026-04-29T08:49:50.531Z</time></trkpt><trkpt lat="33.497141" lon="9.444708"><ele>116.0</ele><time>2026-04-29T08:49:51.52Z</time></trkpt><trkpt lat="33.4970262" lon="9.4444833"><ele>115.33333333333333</ele><time>2026-04-29T08:49:52.528Z</time></trkpt><trkpt lat="33.4969163" lon="9.4442635"><ele>114.66666666666666</ele><time>2026-04-29T08:49:53.545Z</time></trkpt><trkpt lat="33.4967993" lon="9.4440417"><ele>114.0</ele><time>2026-04-29T08:49:54.526Z</time></trkpt><trkpt lat="33.496681" lon="9.4438172"><ele>113.66666666666666</ele><time>2026-04-29T08:49:55.52Z</time></trkpt><trkpt lat="33.4965624" lon="9.4435898"><ele>113.33333333333333</ele><time>2026-04-29T08:49:56.534Z</time></trkpt><trkpt lat="33.496444" lon="9.4433623"><ele>113.0</ele><time>2026-04-29T08:49:57.533Z</time></trkpt><trkpt lat="33.4963224" lon="9.4431379"><ele>113.0</ele><time>2026-04-29T08:49:58.527Z</time></trkpt><trkpt lat="33.4962106" lon="9.4429058"><ele>113.0</ele><time>2026-04-29T08:49:59.53Z</time></trkpt><trkpt lat="33.4961034" lon="9.4426736"><ele>113.0</ele><time>2026-04-29T08:50:00.533Z</time></trkpt><trkpt lat="33.4960018" lon="9.4424497"><ele>113.0</ele><time>2026-04-29T08:50:01.528Z</time></trkpt><trkpt lat="33.4959006" lon="9.4422297"><ele>113.0</ele><time>2026-04-29T08:50:02.538Z</time></trkpt><trkpt lat="33.4958047" lon="9.4420089"><ele>113.0</ele><time>2026-04-29T08:50:03.531Z</time></trkpt><trkpt lat="33.4957121" lon="9.4417913"><ele>113.0</ele><time>2026-04-29T08:50:04.548Z</time></trkpt><trkpt lat="33.4956261" lon="9.4415676"><ele>113.0</ele><time>2026-04-29T08:50:05.533Z</time></trkpt><trkpt lat="33.4955345" lon="9.44134"><ele>113.0</ele><time>2026-04-29T08:50:06.535Z</time></trkpt><trkpt lat="33.4954491" lon="9.4411095"><ele>112.66666666666666</ele><time>2026-04-29T08:50:07.536Z</time></trkpt><trkpt lat="33.4953671" lon="9.4408766"><ele>112.33333333333334</ele><time>2026-04-29T08:50:08.529Z</time></trkpt><trkpt lat="33.4952897" lon="9.4406393"><ele>112.0</ele><time>2026-04-29T08:50:09.532Z</time></trkpt><trkpt lat="33.4952183" lon="9.440401"><ele>112.0</ele><time>2026-04-29T08:50:10.531Z</time></trkpt><trkpt lat="33.4951486" lon="9.4401645"><ele>112.0</ele><time>2026-04-29T08:50:11.523Z</time></trkpt><trkpt lat="33.4950859" lon="9.4399362"><ele>112.0</ele><time>2026-04-29T08:50:12.534Z</time></trkpt><trkpt lat="33.4950234" lon="9.4397072"><ele>112.0</ele><time>2026-04-29T08:50:13.525Z</time></trkpt><trkpt lat="33.4949654" lon="9.4394845"><ele>112.0</ele><time>2026-04-29T08:50:14.533Z</time></trkpt><trkpt lat="33.4949104" lon="9.4392616"><ele>112.0</ele><time>2026-04-29T08:50:15.531Z</time></trkpt><trkpt lat="33.4948589" lon="9.4390326"><ele>112.0</ele><time>2026-04-29T08:50:16.525Z</time></trkpt><trkpt lat="33.494805" lon="9.4388029"><ele>112.0</ele><time>2026-04-29T08:50:17.526Z</time></trkpt><trkpt lat="33.4947601" lon="9.4385667"><ele>112.0</ele><time>2026-04-29T08:50:18.519Z</time></trkpt><trkpt lat="33.4947138" lon="9.4383365"><ele>112.0</ele><time>2026-04-29T08:50:19.518Z</time></trkpt><trkpt lat="33.4946693" lon="9.4380994"><ele>112.0</ele><time>2026-04-29T08:50:20.528Z</time></trkpt><trkpt lat="33.4946231" lon="9.4378645"><ele>112.0</ele><time>2026-04-29T08:50:21.533Z</time></trkpt><trkpt lat="33.494587" lon="9.4376269"><ele>112.0</ele><time>2026-04-29T08:50:22.534Z</time></trkpt><trkpt lat="33.4945544" lon="9.4373961"><ele>112.0</ele><time>2026-04-29T08:50:23.525Z</time></trkpt><trkpt lat="33.494523" lon="9.4371591"><ele>112.0</ele><time>2026-04-29T08:50:24.521Z</time></trkpt><trkpt lat="33.4944951" lon="9.4369254"><ele>112.0</ele><time>2026-04-29T08:50:25.531Z</time></trkpt><trkpt lat="33.4944711" lon="9.4366886"><ele>112.0</ele><time>2026-04-29T08:50:26.536Z</time></trkpt><trkpt lat="33.4944516" lon="9.4364547"><ele>112.0</ele><time>2026-04-29T08:50:27.532Z</time></trkpt><trkpt lat="33.4944268" lon="9.4362196"><ele>112.0</ele><time>2026-04-29T08:50:28.535Z</time></trkpt><trkpt lat="33.4944112" lon="9.4359791"><ele>112.0</ele><time>2026-04-29T08:50:29.533Z</time></trkpt><trkpt lat="33.4944021" lon="9.4357486"><ele>112.0</ele><time>2026-04-29T08:50:30.532Z</time></trkpt><trkpt lat="33.4943893" lon="9.4355136"><ele>112.0</ele><time>2026-04-29T08:50:31.523Z</time></trkpt><trkpt lat="33.4943823" lon="9.4352744"><ele>112.0</ele><time>2026-04-29T08:50:32.53Z</time></trkpt><trkpt lat="33.4943794" lon="9.4350291"><ele>112.0</ele><time>2026-04-29T08:50:33.522Z</time></trkpt><trkpt lat="33.4943738" lon="9.434789"><ele>112.33333333333334</ele><time>2026-04-29T08:50:34.524Z</time></trkpt><trkpt lat="33.4943672" lon="9.4345565"><ele>112.66666666666666</ele><time>2026-04-29T08:50:35.538Z</time></trkpt><trkpt lat="33.4943673" lon="9.4343175"><ele>113.0</ele><time>2026-04-29T08:50:36.535Z</time></trkpt><trkpt lat="33.494378" lon="9.4340815"><ele>113.0</ele><time>2026-04-29T08:50:37.528Z</time></trkpt><trkpt lat="33.4943861" lon="9.4338413"><ele>113.0</ele><time>2026-04-29T08:50:38.52Z</time></trkpt><trkpt lat="33.4943885" lon="9.4336064"><ele>113.0</ele><time>2026-04-29T08:50:39.523Z</time></trkpt><trkpt lat="33.4944039" lon="9.4333698"><ele>113.33333333333333</ele><time>2026-04-29T08:50:40.522Z</time></trkpt><trkpt lat="33.4944271" lon="9.4331374"><ele>113.66666666666666</ele><time>2026-04-29T08:50:41.525Z</time></trkpt><trkpt lat="33.4944561" lon="9.4328965"><ele>114.0</ele><time>2026-04-29T08:50:42.541Z</time></trkpt><trkpt lat="33.4944809" lon="9.4326597"><ele>114.33333333333334</ele><time>2026-04-29T08:50:43.537Z</time></trkpt><trkpt lat="33.494507" lon="9.4324183"><ele>114.66666666666667</ele><time>2026-04-29T08:50:44.521Z</time></trkpt><trkpt lat="33.4945373" lon="9.4321791"><ele>115.0</ele><time>2026-04-29T08:50:45.535Z</time></trkpt><trkpt lat="33.4945667" lon="9.4319406"><ele>115.33333333333334</ele><time>2026-04-29T08:50:46.527Z</time></trkpt><trkpt lat="33.4946057" lon="9.4317054"><ele>115.66666666666666</ele><time>2026-04-29T08:50:47.531Z</time></trkpt><trkpt lat="33.4946461" lon="9.4314697"><ele>116.0</ele><time>2026-04-29T08:50:48.539Z</time></trkpt><trkpt lat="33.49469" lon="9.4312378"><ele>116.0</ele><time>2026-04-29T08:50:49.533Z</time></trkpt><trkpt lat="33.4947356" lon="9.4310068"><ele>116.0</ele><time>2026-04-29T08:50:50.536Z</time></trkpt><trkpt lat="33.4947853" lon="9.4307745"><ele>116.0</ele><time>2026-04-29T08:50:51.534Z</time></trkpt><trkpt lat="33.4948372" lon="9.4305471"><ele>115.66666666666666</ele><time>2026-04-29T08:50:52.532Z</time></trkpt><trkpt lat="33.4948914" lon="9.430314"><ele>115.33333333333334</ele><time>2026-04-29T08:50:53.534Z</time></trkpt><trkpt lat="33.4949403" lon="9.4300844"><ele>115.0</ele><time>2026-04-29T08:50:54.536Z</time></trkpt><trkpt lat="33.4949951" lon="9.429851"><ele>114.66666666666667</ele><time>2026-04-29T08:50:55.535Z</time></trkpt><trkpt lat="33.4950489" lon="9.4296165"><ele>114.33333333333334</ele><time>2026-04-29T08:50:56.538Z</time></trkpt><trkpt lat="33.4951035" lon="9.4293822"><ele>114.0</ele><time>2026-04-29T08:50:57.53Z</time></trkpt><trkpt lat="33.4951538" lon="9.4291539"><ele>114.0</ele><time>2026-04-29T08:50:58.531Z</time></trkpt><trkpt lat="33.4952054" lon="9.4289275"><ele>114.0</ele><time>2026-04-29T08:50:59.537Z</time></trkpt><trkpt lat="33.4952561" lon="9.4286994"><ele>114.0</ele><time>2026-04-29T08:51:00.536Z</time></trkpt><trkpt lat="33.4953061" lon="9.4284694"><ele>114.33333333333334</ele><time>2026-04-29T08:51:01.535Z</time></trkpt><trkpt lat="33.49536" lon="9.42824"><ele>114.66666666666667</ele><time>2026-04-29T08:51:02.532Z</time></trkpt><trkpt lat="33.4954108" lon="9.4280112"><ele>115.0</ele><time>2026-04-29T08:51:03.542Z</time></trkpt><trkpt lat="33.4954635" lon="9.4277807"><ele>115.0</ele><time>2026-04-29T08:51:04.545Z</time></trkpt><trkpt lat="33.4955196" lon="9.427547"><ele>115.0</ele><time>2026-04-29T08:51:05.523Z</time></trkpt><trkpt lat="33.4955719" lon="9.4273185"><ele>115.0</ele><time>2026-04-29T08:51:06.538Z</time></trkpt><trkpt lat="33.4956282" lon="9.4270907"><ele>115.0</ele><time>2026-04-29T08:51:07.532Z</time></trkpt><trkpt lat="33.4956804" lon="9.4268639"><ele>115.0</ele><time>2026-04-29T08:51:08.531Z</time></trkpt><trkpt lat="33.4957331" lon="9.4266296"><ele>115.0</ele><time>2026-04-29T08:51:09.534Z</time></trkpt><trkpt lat="33.4957848" lon="9.4264009"><ele>114.33333333333334</ele><time>2026-04-29T08:51:10.524Z</time></trkpt><trkpt lat="33.495833" lon="9.4261725"><ele>113.66666666666666</ele><time>2026-04-29T08:51:11.532Z</time></trkpt><trkpt lat="33.4958851" lon="9.4259384"><ele>113.0</ele><time>2026-04-29T08:51:12.535Z</time></trkpt><trkpt lat="33.4959391" lon="9.4257075"><ele>113.0</ele><time>2026-04-29T08:51:13.531Z</time></trkpt><trkpt lat="33.4959938" lon="9.4254782"><ele>113.0</ele><time>2026-04-29T08:51:14.534Z</time></trkpt><trkpt lat="33.49605" lon="9.4252456"><ele>113.0</ele><time>2026-04-29T08:51:15.533Z</time></trkpt><trkpt lat="33.4961016" lon="9.4250107"><ele>113.0</ele><time>2026-04-29T08:51:16.538Z</time></trkpt><trkpt lat="33.4961552" lon="9.4247789"><ele>113.0</ele><time>2026-04-29T08:51:17.54Z</time></trkpt><trkpt lat="33.4962095" lon="9.4245449"><ele>113.0</ele><time>2026-04-29T08:51:18.534Z</time></trkpt><trkpt lat="33.4962625" lon="9.4243145"><ele>112.66666666666666</ele><time>2026-04-29T08:51:19.539Z</time></trkpt><trkpt lat="33.4963172" lon="9.4240814"><ele>112.33333333333334</ele><time>2026-04-29T08:51:20.539Z</time></trkpt><trkpt lat="33.4963691" lon="9.4238479"><ele>112.0</ele><time>2026-04-29T08:51:21.535Z</time></trkpt><trkpt lat="33.4964207" lon="9.4236178"><ele>112.0</ele><time>2026-04-29T08:51:22.537Z</time></trkpt><trkpt lat="33.4964736" lon="9.4233891"><ele>112.0</ele><time>2026-04-29T08:51:23.535Z</time></trkpt><trkpt lat="33.4965258" lon="9.4231585"><ele>112.0</ele><time>2026-04-29T08:51:24.534Z</time></trkpt><trkpt lat="33.4965749" lon="9.4229304"><ele>112.33333333333334</ele><time>2026-04-29T08:51:25.526Z</time></trkpt><trkpt lat="33.4966225" lon="9.4227224"><ele>112.66666666666666</ele><time>2026-04-29T08:51:26.525Z</time></trkpt><trkpt lat="33.4966668" lon="9.4225288"><ele>113.0</ele><time>2026-04-29T08:51:27.534Z</time></trkpt><trkpt lat="33.4967087" lon="9.4223498"><ele>113.0</ele><time>2026-04-29T08:51:28.526Z</time></trkpt><trkpt lat="33.4967455" lon="9.4221849"><ele>113.0</ele><time>2026-04-29T08:51:29.527Z</time></trkpt><trkpt lat="33.4967767" lon="9.4220248"><ele>113.0</ele><time>2026-04-29T08:51:30.546Z</time></trkpt><trkpt lat="33.4968101" lon="9.4218658"><ele>113.0</ele><time>2026-04-29T08:51:31.533Z</time></trkpt><trkpt lat="33.4968382" lon="9.4217041"><ele>113.0</ele><time>2026-04-29T08:51:32.535Z</time></trkpt><trkpt lat="33.4968682" lon="9.4215427"><ele>113.0</ele><time>2026-04-29T08:51:33.544Z</time></trkpt><trkpt lat="33.4969012" lon="9.4213853"><ele>113.0</ele><time>2026-04-29T08:51:34.532Z</time></trkpt><trkpt lat="33.4969391" lon="9.4212318"><ele>113.0</ele><time>2026-04-29T08:51:35.529Z</time></trkpt><trkpt lat="33.4969879" lon="9.4210901"><ele>112.75</ele><time>2026-04-29T08:51:36.541Z</time></trkpt><trkpt lat="33.49703" lon="9.4209425"><ele>112.5</ele><time>2026-04-29T08:51:37.534Z</time></trkpt><trkpt lat="33.497067" lon="9.4207905"><ele>112.25</ele><time>2026-04-29T08:51:38.539Z</time></trkpt><trkpt lat="33.4970995" lon="9.420635"><ele>112.0</ele><time>2026-04-29T08:51:39.538Z</time></trkpt><trkpt lat="33.4971343" lon="9.4204751"><ele>112.0</ele><time>2026-04-29T08:51:40.543Z</time></trkpt><trkpt lat="33.4971715" lon="9.4203072"><ele>112.0</ele><time>2026-04-29T08:51:41.539Z</time></trkpt><trkpt lat="33.4972143" lon="9.4201349"><ele>112.0</ele><time>2026-04-29T08:51:42.533Z</time></trkpt><trkpt lat="33.4972557" lon="9.4199643"><ele>112.0</ele><time>2026-04-29T08:51:43.536Z</time></trkpt><trkpt lat="33.4972934" lon="9.419796"><ele>111.66666666666667</ele><time>2026-04-29T08:51:44.535Z</time></trkpt><trkpt lat="33.4973313" lon="9.4196215"><ele>111.33333333333334</ele><time>2026-04-29T08:51:45.538Z</time></trkpt><trkpt lat="33.4973728" lon="9.4194504"><ele>111.0</ele><time>2026-04-29T08:51:46.532Z</time></trkpt><trkpt lat="33.4974103" lon="9.4192711"><ele>111.0</ele><time>2026-04-29T08:51:47.54Z</time></trkpt><trkpt lat="33.4974512" lon="9.4190766"><ele>111.0</ele><time>2026-04-29T08:51:48.536Z</time></trkpt><trkpt lat="33.4974915" lon="9.4188818"><ele>111.0</ele><time>2026-04-29T08:51:49.54Z</time></trkpt><trkpt lat="33.4975382" lon="9.4186815"><ele>111.66666666666666</ele><time>2026-04-29T08:51:50.534Z</time></trkpt><trkpt lat="33.4975844" lon="9.4184839"><ele>112.33333333333333</ele><time>2026-04-29T08:51:51.536Z</time></trkpt><trkpt lat="33.4976323" lon="9.4182848"><ele>113.0</ele><time>2026-04-29T08:51:52.544Z</time></trkpt><trkpt lat="33.4976811" lon="9.4180797"><ele>113.33333333333333</ele><time>2026-04-29T08:51:53.517Z</time></trkpt><trkpt lat="33.4977268" lon="9.4178804"><ele>113.66666666666666</ele><time>2026-04-29T08:51:54.542Z</time></trkpt><trkpt lat="33.4977725" lon="9.4176773"><ele>114.0</ele><time>2026-04-29T08:51:55.531Z</time></trkpt><trkpt lat="33.497817" lon="9.4174747"><ele>114.0</ele><time>2026-04-29T08:51:56.529Z</time></trkpt><trkpt lat="33.4978605" lon="9.4172708"><ele>114.0</ele><time>2026-04-29T08:51:57.526Z</time></trkpt><trkpt lat="33.4979074" lon="9.4170665"><ele>114.0</ele><time>2026-04-29T08:51:58.525Z</time></trkpt><trkpt lat="33.4979543" lon="9.4168639"><ele>114.0</ele><time>2026-04-29T08:51:59.518Z</time></trkpt><trkpt lat="33.4979995" lon="9.4166552"><ele>114.0</ele><time>2026-04-29T08:52:00.523Z</time></trkpt><trkpt lat="33.4980428" lon="9.4164521"><ele>114.0</ele><time>2026-04-29T08:52:01.528Z</time></trkpt><trkpt lat="33.4980881" lon="9.4162472"><ele>113.0</ele><time>2026-04-29T08:52:02.523Z</time></trkpt><trkpt lat="33.498133" lon="9.4160413"><ele>112.0</ele><time>2026-04-29T08:52:03.525Z</time></trkpt><trkpt lat="33.4981806" lon="9.4158362"><ele>111.0</ele><time>2026-04-29T08:52:04.532Z</time></trkpt><trkpt lat="33.4982243" lon="9.4156347"><ele>110.66666666666666</ele><time>2026-04-29T08:52:05.534Z</time></trkpt><trkpt lat="33.4982665" lon="9.4154261"><ele>110.33333333333333</ele><time>2026-04-29T08:52:06.527Z</time></trkpt><trkpt lat="33.4983049" lon="9.415229"><ele>110.0</ele><time>2026-04-29T08:52:07.524Z</time></trkpt><trkpt lat="33.498343" lon="9.415025"><ele>110.0</ele><time>2026-04-29T08:52:08.533Z</time></trkpt><trkpt lat="33.4983787" lon="9.414821"><ele>110.0</ele><time>2026-04-29T08:52:09.532Z</time></trkpt><trkpt lat="33.4984116" lon="9.4146168"><ele>110.0</ele><time>2026-04-29T08:52:10.528Z</time></trkpt><trkpt lat="33.4984456" lon="9.4144079"><ele>110.33333333333333</ele><time>2026-04-29T08:52:11.531Z</time></trkpt><trkpt lat="33.4984844" lon="9.4142042"><ele>110.66666666666666</ele><time>2026-04-29T08:52:12.524Z</time></trkpt><trkpt lat="33.4985214" lon="9.4139905"><ele>111.0</ele><time>2026-04-29T08:52:13.526Z</time></trkpt><trkpt lat="33.4985551" lon="9.4137726"><ele>111.33333333333334</ele><time>2026-04-29T08:52:14.525Z</time></trkpt><trkpt lat="33.4985852" lon="9.4135459"><ele>111.66666666666667</ele><time>2026-04-29T08:52:15.563Z</time></trkpt><trkpt lat="33.498615" lon="9.4133163"><ele>112.0</ele><time>2026-04-29T08:52:16.55Z</time></trkpt><trkpt lat="33.4986437" lon="9.4130865"><ele>111.66666666666667</ele><time>2026-04-29T08:52:17.525Z</time></trkpt><trkpt lat="33.498667" lon="9.4128459"><ele>111.33333333333334</ele><time>2026-04-29T08:52:18.534Z</time></trkpt><trkpt lat="33.4986884" lon="9.4126044"><ele>111.0</ele><time>2026-04-29T08:52:19.54Z</time></trkpt><trkpt lat="33.4987065" lon="9.4123639"><ele>111.0</ele><time>2026-04-29T08:52:20.518Z</time></trkpt><trkpt lat="33.498724" lon="9.4121274"><ele>111.0</ele><time>2026-04-29T08:52:21.557Z</time></trkpt><trkpt lat="33.4987442" lon="9.4118902"><ele>111.0</ele><time>2026-04-29T08:52:22.583Z</time></trkpt><trkpt lat="33.4987608" lon="9.4116613"><ele>111.66666666666666</ele><time>2026-04-29T08:52:23.518Z</time></trkpt><trkpt lat="33.4987768" lon="9.4114305"><ele>112.33333333333333</ele><time>2026-04-29T08:52:24.582Z</time></trkpt><trkpt lat="33.4987903" lon="9.4111959"><ele>113.0</ele><time>2026-04-29T08:52:25.516Z</time></trkpt><trkpt lat="33.4988005" lon="9.4109669"><ele>113.0</ele><time>2026-04-29T08:52:26.576Z</time></trkpt><trkpt lat="33.4988071" lon="9.410739"><ele>113.0</ele><time>2026-04-29T08:52:27.524Z</time></trkpt><trkpt lat="33.4988086" lon="9.4105062"><ele>113.0</ele><time>2026-04-29T08:52:28.569Z</time></trkpt><trkpt lat="33.4988112" lon="9.410274"><ele>112.66666666666666</ele><time>2026-04-29T08:52:29.518Z</time></trkpt><trkpt lat="33.4988151" lon="9.4100395"><ele>112.33333333333334</ele><time>2026-04-29T08:52:30.522Z</time></trkpt><trkpt lat="33.4988191" lon="9.4098051"><ele>112.0</ele><time>2026-04-29T08:52:31.556Z</time></trkpt><trkpt lat="33.4988205" lon="9.4095631"><ele>112.0</ele><time>2026-04-29T08:52:32.523Z</time></trkpt><trkpt lat="33.498817" lon="9.40933"><ele>112.0</ele><time>2026-04-29T08:52:33.516Z</time></trkpt><trkpt lat="33.4988177" lon="9.4090918"><ele>112.0</ele><time>2026-04-29T08:52:34.518Z</time></trkpt><trkpt lat="33.4988128" lon="9.408856"><ele>112.33333333333334</ele><time>2026-04-29T08:52:35.518Z</time></trkpt><trkpt lat="33.4988144" lon="9.4086192"><ele>112.66666666666666</ele><time>2026-04-29T08:52:36.523Z</time></trkpt><trkpt lat="33.4988169" lon="9.4083825"><ele>113.0</ele><time>2026-04-29T08:52:37.53Z</time></trkpt><trkpt lat="33.4988162" lon="9.4081474"><ele>113.0</ele><time>2026-04-29T08:52:38.519Z</time></trkpt><trkpt lat="33.4988152" lon="9.4079089"><ele>113.0</ele><time>2026-04-29T08:52:39.538Z</time></trkpt><trkpt lat="33.4988144" lon="9.4076765"><ele>113.0</ele><time>2026-04-29T08:52:40.526Z</time></trkpt><trkpt lat="33.4988188" lon="9.4074419"><ele>113.0</ele><time>2026-04-29T08:52:41.527Z</time></trkpt><trkpt lat="33.4988232" lon="9.4072176"><ele>113.0</ele><time>2026-04-29T08:52:42.531Z</time></trkpt><trkpt lat="33.4988241" lon="9.406997"><ele>113.0</ele><time>2026-04-29T08:52:43.567Z</time></trkpt><trkpt lat="33.4988272" lon="9.4067838"><ele>113.0</ele><time>2026-04-29T08:52:44.519Z</time></trkpt><trkpt lat="33.4988269" lon="9.4065737"><ele>113.0</ele><time>2026-04-29T08:52:45.522Z</time></trkpt><trkpt lat="33.4988259" lon="9.4063627"><ele>113.0</ele><time>2026-04-29T08:52:46.522Z</time></trkpt><trkpt lat="33.49883" lon="9.4061481"><ele>113.33333333333333</ele><time>2026-04-29T08:52:47.526Z</time></trkpt><trkpt lat="33.4988307" lon="9.4059398"><ele>113.66666666666666</ele><time>2026-04-29T08:52:48.522Z</time></trkpt><trkpt lat="33.4988299" lon="9.4057297"><ele>114.0</ele><time>2026-04-29T08:52:49.528Z</time></trkpt><trkpt lat="33.498828" lon="9.4055186"><ele>113.66666666666666</ele><time>2026-04-29T08:52:50.531Z</time></trkpt><trkpt lat="33.4988304" lon="9.405309"><ele>113.33333333333333</ele><time>2026-04-29T08:52:51.53Z</time></trkpt><trkpt lat="33.4988324" lon="9.4051046"><ele>113.0</ele><time>2026-04-29T08:52:52.536Z</time></trkpt><trkpt lat="33.498832" lon="9.4048989"><ele>113.0</ele><time>2026-04-29T08:52:53.533Z</time></trkpt><trkpt lat="33.4988278" lon="9.4046903"><ele>113.0</ele><time>2026-04-29T08:52:54.533Z</time></trkpt><trkpt lat="33.4988274" lon="9.4044845"><ele>113.0</ele><time>2026-04-29T08:52:55.535Z</time></trkpt><trkpt lat="33.4988273" lon="9.4042715"><ele>113.0</ele><time>2026-04-29T08:52:56.529Z</time></trkpt><trkpt lat="33.4988279" lon="9.4040585"><ele>113.0</ele><time>2026-04-29T08:52:57.573Z</time></trkpt><trkpt lat="33.4988307" lon="9.4038439"><ele>113.0</ele><time>2026-04-29T08:52:58.533Z</time></trkpt><trkpt lat="33.4988297" lon="9.4036285"><ele>113.0</ele><time>2026-04-29T08:52:59.527Z</time></trkpt><trkpt lat="33.498832" lon="9.4034128"><ele>113.0</ele><time>2026-04-29T08:53:00.524Z</time></trkpt><trkpt lat="33.4988329" lon="9.4031966"><ele>113.0</ele><time>2026-04-29T08:53:01.524Z</time></trkpt><trkpt lat="33.4988384" lon="9.4029699"><ele>112.66666666666666</ele><time>2026-04-29T08:53:02.528Z</time></trkpt><trkpt lat="33.4988434" lon="9.402744"><ele>112.33333333333334</ele><time>2026-04-29T08:53:03.521Z</time></trkpt><trkpt lat="33.4988461" lon="9.4025184"><ele>112.0</ele><time>2026-04-29T08:53:04.515Z</time></trkpt><trkpt lat="33.4988496" lon="9.4022867"><ele>111.0</ele><time>2026-04-29T08:53:05.535Z</time></trkpt><trkpt lat="33.4988504" lon="9.4020572"><ele>110.0</ele><time>2026-04-29T08:53:06.523Z</time></trkpt><trkpt lat="33.4988493" lon="9.401826"><ele>109.0</ele><time>2026-04-29T08:53:07.56Z</time></trkpt><trkpt lat="33.4988466" lon="9.4015873"><ele>109.0</ele><time>2026-04-29T08:53:08.536Z</time></trkpt><trkpt lat="33.4988457" lon="9.4013424"><ele>109.0</ele><time>2026-04-29T08:53:09.522Z</time></trkpt><trkpt lat="33.4988466" lon="9.4010999"><ele>109.0</ele><time>2026-04-29T08:53:10.544Z</time></trkpt><trkpt lat="33.4988445" lon="9.4008607"><ele>109.0</ele><time>2026-04-29T08:53:11.525Z</time></trkpt><trkpt lat="33.4988451" lon="9.4006262"><ele>109.0</ele><time>2026-04-29T08:53:12.529Z</time></trkpt><trkpt lat="33.498845" lon="9.4003882"><ele>109.0</ele><time>2026-04-29T08:53:13.515Z</time></trkpt><trkpt lat="33.4988499" lon="9.4001484"><ele>109.0</ele><time>2026-04-29T08:53:14.512Z</time></trkpt><trkpt lat="33.4988514" lon="9.3999115"><ele>109.0</ele><time>2026-04-29T08:53:15.537Z</time></trkpt><trkpt lat="33.4988507" lon="9.3996745"><ele>109.0</ele><time>2026-04-29T08:53:16.518Z</time></trkpt><trkpt lat="33.4988541" lon="9.3994458"><ele>108.66666666666667</ele><time>2026-04-29T08:53:17.529Z</time></trkpt><trkpt lat="33.4988541" lon="9.3992135"><ele>108.33333333333334</ele><time>2026-04-29T08:53:18.533Z</time></trkpt><trkpt lat="33.4988555" lon="9.3989867"><ele>108.0</ele><time>2026-04-29T08:53:19.535Z</time></trkpt><trkpt lat="33.4988591" lon="9.3987563"><ele>108.0</ele><time>2026-04-29T08:53:20.525Z</time></trkpt><trkpt lat="33.4988595" lon="9.3985321"><ele>108.0</ele><time>2026-04-29T08:53:21.536Z</time></trkpt><trkpt lat="33.4988585" lon="9.3983057"><ele>108.0</ele><time>2026-04-29T08:53:22.523Z</time></trkpt><trkpt lat="33.4988594" lon="9.3980752"><ele>108.0</ele><time>2026-04-29T08:53:23.527Z</time></trkpt><trkpt lat="33.4988579" lon="9.3978516"><ele>108.0</ele><time>2026-04-29T08:53:24.533Z</time></trkpt><trkpt lat="33.4988566" lon="9.3976223"><ele>108.0</ele><time>2026-04-29T08:53:25.529Z</time></trkpt><trkpt lat="33.4988576" lon="9.3973943"><ele>108.0</ele><time>2026-04-29T08:53:26.533Z</time></trkpt><trkpt lat="33.4988537" lon="9.3971703"><ele>108.0</ele><time>2026-04-29T08:53:27.521Z</time></trkpt><trkpt lat="33.4988548" lon="9.3969386"><ele>108.0</ele><time>2026-04-29T08:53:28.531Z</time></trkpt><trkpt lat="33.4988536" lon="9.3967071"><ele>107.66666666666666</ele><time>2026-04-29T08:53:29.525Z</time></trkpt><trkpt lat="33.4988553" lon="9.3964725"><ele>107.33333333333333</ele><time>2026-04-29T08:53:30.524Z</time></trkpt><trkpt lat="33.4988579" lon="9.3962423"><ele>107.0</ele><time>2026-04-29T08:53:31.529Z</time></trkpt><trkpt lat="33.498859" lon="9.3960109"><ele>107.0</ele><time>2026-04-29T08:53:32.525Z</time></trkpt><trkpt lat="33.4988648" lon="9.3957761"><ele>107.0</ele><time>2026-04-29T08:53:33.516Z</time></trkpt><trkpt lat="33.4988669" lon="9.3955496"><ele>107.0</ele><time>2026-04-29T08:53:34.532Z</time></trkpt><trkpt lat="33.4988705" lon="9.3953256"><ele>107.0</ele><time>2026-04-29T08:53:35.528Z</time></trkpt><trkpt lat="33.4988678" lon="9.3950901"><ele>107.0</ele><time>2026-04-29T08:53:36.522Z</time></trkpt><trkpt lat="33.4988697" lon="9.3948588"><ele>107.0</ele><time>2026-04-29T08:53:37.525Z</time></trkpt><trkpt lat="33.4988701" lon="9.3946278"><ele>107.66666666666666</ele><time>2026-04-29T08:53:38.536Z</time></trkpt><trkpt lat="33.4988711" lon="9.3943997"><ele>108.33333333333334</ele><time>2026-04-29T08:53:39.527Z</time></trkpt><trkpt lat="33.4988721" lon="9.3941687"><ele>109.0</ele><time>2026-04-29T08:53:40.531Z</time></trkpt><trkpt lat="33.4988755" lon="9.3939378"><ele>108.33333333333334</ele><time>2026-04-29T08:53:41.532Z</time></trkpt><trkpt lat="33.4988778" lon="9.3937047"><ele>107.66666666666666</ele><time>2026-04-29T08:53:42.53Z</time></trkpt><trkpt lat="33.4988773" lon="9.3934723"><ele>107.0</ele><time>2026-04-29T08:53:43.531Z</time></trkpt><trkpt lat="33.4988785" lon="9.3932396"><ele>107.0</ele><time>2026-04-29T08:53:44.53Z</time></trkpt><trkpt lat="33.4988833" lon="9.3930137"><ele>107.0</ele><time>2026-04-29T08:53:45.533Z</time></trkpt><trkpt lat="33.4988861" lon="9.3927837"><ele>107.0</ele><time>2026-04-29T08:53:46.535Z</time></trkpt><trkpt lat="33.4988867" lon="9.3925565"><ele>107.33333333333333</ele><time>2026-04-29T08:53:47.52Z</time></trkpt><trkpt lat="33.4988868" lon="9.3923274"><ele>107.66666666666666</ele><time>2026-04-29T08:53:48.512Z</time></trkpt><trkpt lat="33.4988905" lon="9.3920963"><ele>108.0</ele><time>2026-04-29T08:53:49.531Z</time></trkpt><trkpt lat="33.4988885" lon="9.3918689"><ele>108.33333333333334</ele><time>2026-04-29T08:53:50.53Z</time></trkpt><trkpt lat="33.4988878" lon="9.3916381"><ele>108.66666666666667</ele><time>2026-04-29T08:53:51.532Z</time></trkpt><trkpt lat="33.4988895" lon="9.3914109"><ele>109.0</ele><time>2026-04-29T08:53:52.535Z</time></trkpt><trkpt lat="33.4988947" lon="9.3911785"><ele>108.0</ele><time>2026-04-29T08:53:53.532Z</time></trkpt><trkpt lat="33.4988977" lon="9.3909463"><ele>107.0</ele><time>2026-04-29T08:53:54.532Z</time></trkpt><trkpt lat="33.4988965" lon="9.3907185"><ele>106.0</ele><time>2026-04-29T08:53:55.535Z</time></trkpt><trkpt lat="33.4988947" lon="9.3904863"><ele>106.0</ele><time>2026-04-29T08:53:56.528Z</time></trkpt><trkpt lat="33.498895" lon="9.3902551"><ele>106.0</ele><time>2026-04-29T08:53:57.527Z</time></trkpt><trkpt lat="33.4988959" lon="9.3900243"><ele>106.0</ele><time>2026-04-29T08:53:58.53Z</time></trkpt><trkpt lat="33.4988924" lon="9.38979"><ele>106.66666666666667</ele><time>2026-04-29T08:53:59.527Z</time></trkpt><trkpt lat="33.4988906" lon="9.3895561"><ele>107.33333333333334</ele><time>2026-04-29T08:54:00.53Z</time></trkpt><trkpt lat="33.498892" lon="9.3893274"><ele>108.0</ele><time>2026-04-29T08:54:01.528Z</time></trkpt><trkpt lat="33.4988894" lon="9.3890987"><ele>108.0</ele><time>2026-04-29T08:54:02.537Z</time></trkpt><trkpt lat="33.4988803" lon="9.3888708"><ele>108.0</ele><time>2026-04-29T08:54:03.528Z</time></trkpt><trkpt lat="33.4988716" lon="9.3886396"><ele>108.0</ele><time>2026-04-29T08:54:04.532Z</time></trkpt><trkpt lat="33.4988604" lon="9.388407"><ele>107.66666666666666</ele><time>2026-04-29T08:54:05.518Z</time></trkpt><trkpt lat="33.4988473" lon="9.388176"><ele>107.33333333333333</ele><time>2026-04-29T08:54:06.528Z</time></trkpt><trkpt lat="33.4988285" lon="9.3879457"><ele>107.0</ele><time>2026-04-29T08:54:07.516Z</time></trkpt><trkpt lat="33.4988047" lon="9.3877163"><ele>107.33333333333333</ele><time>2026-04-29T08:54:08.534Z</time></trkpt><trkpt lat="33.4987762" lon="9.3874877"><ele>107.66666666666666</ele><time>2026-04-29T08:54:09.528Z</time></trkpt><trkpt lat="33.4987465" lon="9.3872656"><ele>108.0</ele><time>2026-04-29T08:54:10.526Z</time></trkpt><trkpt lat="33.4987157" lon="9.3870424"><ele>108.66666666666666</ele><time>2026-04-29T08:54:11.527Z</time></trkpt><trkpt lat="33.4986836" lon="9.3868156"><ele>109.33333333333333</ele><time>2026-04-29T08:54:12.531Z</time></trkpt><trkpt lat="33.498648" lon="9.3865849"><ele>110.0</ele><time>2026-04-29T08:54:13.535Z</time></trkpt><trkpt lat="33.4986071" lon="9.3863542"><ele>109.66666666666666</ele><time>2026-04-29T08:54:14.537Z</time></trkpt><trkpt lat="33.4985691" lon="9.3861289"><ele>109.33333333333334</ele><time>2026-04-29T08:54:15.533Z</time></trkpt><trkpt lat="33.4985278" lon="9.3859001"><ele>109.0</ele><time>2026-04-29T08:54:16.532Z</time></trkpt><trkpt lat="33.4984795" lon="9.3856771"><ele>108.66666666666667</ele><time>2026-04-29T08:54:17.52Z</time></trkpt><trkpt lat="33.49843" lon="9.3854546"><ele>108.33333333333334</ele><time>2026-04-29T08:54:18.521Z</time></trkpt><trkpt lat="33.4983811" lon="9.3852368"><ele>108.0</ele><time>2026-04-29T08:54:19.52Z</time></trkpt><trkpt lat="33.498327" lon="9.3850176"><ele>108.0</ele><time>2026-04-29T08:54:20.523Z</time></trkpt><trkpt lat="33.4982689" lon="9.3847988"><ele>108.0</ele><time>2026-04-29T08:54:21.519Z</time></trkpt><trkpt lat="33.4982084" lon="9.3845785"><ele>108.0</ele><time>2026-04-29T08:54:22.517Z</time></trkpt><trkpt lat="33.4981492" lon="9.384363"><ele>108.0</ele><time>2026-04-29T08:54:23.535Z</time></trkpt><trkpt lat="33.4980871" lon="9.3841459"><ele>108.0</ele><time>2026-04-29T08:54:24.531Z</time></trkpt><trkpt lat="33.4980201" lon="9.3839263"><ele>108.0</ele><time>2026-04-29T08:54:25.53Z</time></trkpt><trkpt lat="33.4979497" lon="9.3837088"><ele>108.0</ele><time>2026-04-29T08:54:26.538Z</time></trkpt><trkpt lat="33.4978764" lon="9.3834936"><ele>108.0</ele><time>2026-04-29T08:54:27.527Z</time></trkpt><trkpt lat="33.4977994" lon="9.3832818"><ele>108.0</ele><time>2026-04-29T08:54:28.53Z</time></trkpt><trkpt lat="33.4977186" lon="9.383074"><ele>107.66666666666666</ele><time>2026-04-29T08:54:29.527Z</time></trkpt><trkpt lat="33.4976393" lon="9.3828697"><ele>107.33333333333333</ele><time>2026-04-29T08:54:30.524Z</time></trkpt><trkpt lat="33.4975518" lon="9.3826563"><ele>107.0</ele><time>2026-04-29T08:54:31.536Z</time></trkpt><trkpt lat="33.4974655" lon="9.3824455"><ele>107.0</ele><time>2026-04-29T08:54:32.526Z</time></trkpt><trkpt lat="33.497374" lon="9.3822419"><ele>107.0</ele><time>2026-04-29T08:54:33.536Z</time></trkpt><trkpt lat="33.4972801" lon="9.3820428"><ele>107.0</ele><time>2026-04-29T08:54:34.533Z</time></trkpt><trkpt lat="33.497184" lon="9.3818423"><ele>107.0</ele><time>2026-04-29T08:54:35.53Z</time></trkpt><trkpt lat="33.4970875" lon="9.3816445"><ele>107.0</ele><time>2026-04-29T08:54:36.52Z</time></trkpt><trkpt lat="33.4969877" lon="9.3814472"><ele>107.0</ele><time>2026-04-29T08:54:37.532Z</time></trkpt><trkpt lat="33.4968885" lon="9.3812525"><ele>106.33333333333333</ele><time>2026-04-29T08:54:38.525Z</time></trkpt><trkpt lat="33.4967933" lon="9.3810591"><ele>105.66666666666666</ele><time>2026-04-29T08:54:39.517Z</time></trkpt><trkpt lat="33.4966958" lon="9.3808633"><ele>105.0</ele><time>2026-04-29T08:54:40.525Z</time></trkpt><trkpt lat="33.4966003" lon="9.3806633"><ele>105.33333333333334</ele><time>2026-04-29T08:54:41.533Z</time></trkpt><trkpt lat="33.4964989" lon="9.3804658"><ele>105.66666666666667</ele><time>2026-04-29T08:54:42.525Z</time></trkpt><trkpt lat="33.4963984" lon="9.3802681"><ele>106.0</ele><time>2026-04-29T08:54:43.531Z</time></trkpt><trkpt lat="33.4962973" lon="9.3800656"><ele>106.0</ele><time>2026-04-29T08:54:44.538Z</time></trkpt><trkpt lat="33.4961972" lon="9.3798723"><ele>106.0</ele><time>2026-04-29T08:54:45.532Z</time></trkpt><trkpt lat="33.4960978" lon="9.3796785"><ele>106.0</ele><time>2026-04-29T08:54:46.533Z</time></trkpt><trkpt lat="33.4959952" lon="9.3794815"><ele>106.33333333333334</ele><time>2026-04-29T08:54:47.538Z</time></trkpt><trkpt lat="33.4958972" lon="9.3792888"><ele>106.66666666666666</ele><time>2026-04-29T08:54:48.521Z</time></trkpt><trkpt lat="33.4957977" lon="9.3790933"><ele>107.0</ele><time>2026-04-29T08:54:49.532Z</time></trkpt><trkpt lat="33.4956976" lon="9.3788867"><ele>106.0</ele><time>2026-04-29T08:54:50.52Z</time></trkpt><trkpt lat="33.4955984" lon="9.3786881"><ele>105.0</ele><time>2026-04-29T08:54:51.535Z</time></trkpt><trkpt lat="33.4954949" lon="9.3784879"><ele>104.0</ele><time>2026-04-29T08:54:52.532Z</time></trkpt><trkpt lat="33.495392" lon="9.3782906"><ele>103.66666666666666</ele><time>2026-04-29T08:54:53.537Z</time></trkpt><trkpt lat="33.4952917" lon="9.3780907"><ele>103.33333333333334</ele><time>2026-04-29T08:54:54.535Z</time></trkpt><trkpt lat="33.4951917" lon="9.3778937"><ele>103.0</ele><time>2026-04-29T08:54:55.541Z</time></trkpt><trkpt lat="33.495094" lon="9.3776973"><ele>103.0</ele><time>2026-04-29T08:54:56.529Z</time></trkpt><trkpt lat="33.4949919" lon="9.377499"><ele>103.0</ele><time>2026-04-29T08:54:57.54Z</time></trkpt><trkpt lat="33.4948899" lon="9.3772997"><ele>103.0</ele><time>2026-04-29T08:54:58.533Z</time></trkpt><trkpt lat="33.494788" lon="9.3770989"><ele>103.33333333333334</ele><time>2026-04-29T08:54:59.538Z</time></trkpt><trkpt lat="33.4946859" lon="9.3768999"><ele>103.66666666666666</ele><time>2026-04-29T08:55:00.532Z</time></trkpt><trkpt lat="33.4945876" lon="9.3767022"><ele>104.0</ele><time>2026-04-29T08:55:01.535Z</time></trkpt><trkpt lat="33.494487" lon="9.376506"><ele>103.66666666666666</ele><time>2026-04-29T08:55:02.529Z</time></trkpt><trkpt lat="33.4943842" lon="9.3763105"><ele>103.33333333333334</ele><time>2026-04-29T08:55:03.52Z</time></trkpt><trkpt lat="33.4942802" lon="9.3761152"><ele>103.0</ele><time>2026-04-29T08:55:04.526Z</time></trkpt><trkpt lat="33.4941813" lon="9.3759214"><ele>103.0</ele><time>2026-04-29T08:55:05.54Z</time></trkpt><trkpt lat="33.4940825" lon="9.3757236"><ele>103.0</ele><time>2026-04-29T08:55:06.529Z</time></trkpt><trkpt lat="33.4939863" lon="9.3755252"><ele>103.0</ele><time>2026-04-29T08:55:07.533Z</time></trkpt><trkpt lat="33.493887" lon="9.3753266"><ele>103.33333333333334</ele><time>2026-04-29T08:55:08.546Z</time></trkpt><trkpt lat="33.4937884" lon="9.3751296"><ele>103.66666666666666</ele><time>2026-04-29T08:55:09.529Z</time></trkpt><trkpt lat="33.4936912" lon="9.3749323"><ele>104.0</ele><time>2026-04-29T08:55:10.534Z</time></trkpt><trkpt lat="33.493591" lon="9.3747319"><ele>104.0</ele><time>2026-04-29T08:55:11.539Z</time></trkpt><trkpt lat="33.4934883" lon="9.3745317"><ele>104.0</ele><time>2026-04-29T08:55:12.538Z</time></trkpt><trkpt lat="33.4933892" lon="9.3743364"><ele>104.0</ele><time>2026-04-29T08:55:13.539Z</time></trkpt><trkpt lat="33.4932879" lon="9.3741397"><ele>104.0</ele><time>2026-04-29T08:55:14.558Z</time></trkpt><trkpt lat="33.4931884" lon="9.3739464"><ele>104.0</ele><time>2026-04-29T08:55:15.538Z</time></trkpt><trkpt lat="33.4930898" lon="9.3737504"><ele>104.0</ele><time>2026-04-29T08:55:16.538Z</time></trkpt><trkpt lat="33.4929859" lon="9.3735542"><ele>104.33333333333333</ele><time>2026-04-29T08:55:17.528Z</time></trkpt><trkpt lat="33.492882" lon="9.3733558"><ele>104.66666666666666</ele><time>2026-04-29T08:55:18.52Z</time></trkpt><trkpt lat="33.4927838" lon="9.3731565"><ele>105.0</ele><time>2026-04-29T08:55:19.532Z</time></trkpt><trkpt lat="33.4926849" lon="9.3729596"><ele>105.33333333333334</ele><time>2026-04-29T08:55:20.533Z</time></trkpt><trkpt lat="33.4925884" lon="9.3727625"><ele>105.66666666666667</ele><time>2026-04-29T08:55:21.532Z</time></trkpt><trkpt lat="33.4924926" lon="9.3725618"><ele>106.0</ele><time>2026-04-29T08:55:22.534Z</time></trkpt><trkpt lat="33.4923887" lon="9.372374"><ele>105.66666666666667</ele><time>2026-04-29T08:55:23.516Z</time></trkpt><trkpt lat="33.4922927" lon="9.3721825"><ele>105.33333333333334</ele><time>2026-04-29T08:55:24.539Z</time></trkpt><trkpt lat="33.492195" lon="9.3719836"><ele>105.0</ele><time>2026-04-29T08:55:25.531Z</time></trkpt><trkpt lat="33.4920914" lon="9.371791"><ele>105.0</ele><time>2026-04-29T08:55:26.529Z</time></trkpt><trkpt lat="33.4919904" lon="9.3715964"><ele>105.0</ele><time>2026-04-29T08:55:27.536Z</time></trkpt><trkpt lat="33.4918984" lon="9.371394"><ele>105.0</ele><time>2026-04-29T08:55:28.53Z</time></trkpt><trkpt lat="33.4917947" lon="9.3712017"><ele>105.33333333333334</ele><time>2026-04-29T08:55:29.543Z</time></trkpt><trkpt lat="33.4916907" lon="9.3710128"><ele>105.66666666666667</ele><time>2026-04-29T08:55:30.526Z</time></trkpt><trkpt lat="33.49159" lon="9.3708094"><ele>106.0</ele><time>2026-04-29T08:55:31.537Z</time></trkpt><trkpt lat="33.4914975" lon="9.3706043"><ele>106.0</ele><time>2026-04-29T08:55:32.534Z</time></trkpt><trkpt lat="33.4914011" lon="9.3704183"><ele>106.0</ele><time>2026-04-29T08:55:33.564Z</time></trkpt><trkpt lat="33.4913042" lon="9.3702277"><ele>106.0</ele><time>2026-04-29T08:55:34.531Z</time></trkpt><trkpt lat="33.4912121" lon="9.3700198"><ele>105.66666666666667</ele><time>2026-04-29T08:55:35.529Z</time></trkpt><trkpt lat="33.4911144" lon="9.3698295"><ele>105.33333333333334</ele><time>2026-04-29T08:55:36.528Z</time></trkpt><trkpt lat="33.4910019" lon="9.3696432"><ele>105.0</ele><time>2026-04-29T08:55:37.531Z</time></trkpt><trkpt lat="33.490907" lon="9.3694388"><ele>105.0</ele><time>2026-04-29T08:55:38.525Z</time></trkpt><trkpt lat="33.4908075" lon="9.3692258"><ele>105.0</ele><time>2026-04-29T08:55:39.528Z</time></trkpt><trkpt lat="33.4906947" lon="9.369041"><ele>105.0</ele><time>2026-04-29T08:55:40.537Z</time></trkpt><trkpt lat="33.4905938" lon="9.3688403"><ele>105.0</ele><time>2026-04-29T08:55:41.524Z</time></trkpt><trkpt lat="33.4905064" lon="9.3686347"><ele>105.0</ele><time>2026-04-29T08:55:42.527Z</time></trkpt><trkpt lat="33.4904109" lon="9.3684362"><ele>105.0</ele><time>2026-04-29T08:55:43.515Z</time></trkpt><trkpt lat="33.4903012" lon="9.3682399"><ele>105.33333333333334</ele><time>2026-04-29T08:55:44.527Z</time></trkpt><trkpt lat="33.490198" lon="9.3680362"><ele>105.66666666666667</ele><time>2026-04-29T08:55:45.532Z</time></trkpt><trkpt lat="33.4900915" lon="9.3678632"><ele>106.0</ele><time>2026-04-29T08:55:46.529Z</time></trkpt><trkpt lat="33.489988" lon="9.3676679"><ele>106.0</ele><time>2026-04-29T08:55:47.522Z</time></trkpt><trkpt lat="33.489898" lon="9.3674642"><ele>106.0</ele><time>2026-04-29T08:55:48.527Z</time></trkpt><trkpt lat="33.4897992" lon="9.3672748"><ele>106.0</ele><time>2026-04-29T08:55:49.527Z</time></trkpt><trkpt lat="33.4897024" lon="9.3670826"><ele>106.0</ele><time>2026-04-29T08:55:50.523Z</time></trkpt><trkpt lat="33.4896066" lon="9.3668837"><ele>106.0</ele><time>2026-04-29T08:55:51.529Z</time></trkpt><trkpt lat="33.489513" lon="9.3666853"><ele>106.0</ele><time>2026-04-29T08:55:52.523Z</time></trkpt><trkpt lat="33.4894041" lon="9.3664882"><ele>105.66666666666667</ele><time>2026-04-29T08:55:53.537Z</time></trkpt><trkpt lat="33.4893087" lon="9.3662914"><ele>105.33333333333334</ele><time>2026-04-29T08:55:54.53Z</time></trkpt><trkpt lat="33.4892157" lon="9.3660903"><ele>105.0</ele><time>2026-04-29T08:55:55.525Z</time></trkpt><trkpt lat="33.4891192" lon="9.3658995"><ele>105.0</ele><time>2026-04-29T08:55:56.528Z</time></trkpt><trkpt lat="33.4890147" lon="9.3657005"><ele>105.0</ele><time>2026-04-29T08:55:57.527Z</time></trkpt><trkpt lat="33.4889107" lon="9.3655124"><ele>105.0</ele><time>2026-04-29T08:55:58.522Z</time></trkpt><trkpt lat="33.4888085" lon="9.3653271"><ele>105.33333333333334</ele><time>2026-04-29T08:55:59.524Z</time></trkpt><trkpt lat="33.4887093" lon="9.3651298"><ele>105.66666666666667</ele><time>2026-04-29T08:56:00.541Z</time></trkpt><trkpt lat="33.4886119" lon="9.3649392"><ele>106.0</ele><time>2026-04-29T08:56:01.528Z</time></trkpt><trkpt lat="33.4885135" lon="9.3647497"><ele>106.0</ele><time>2026-04-29T08:56:02.534Z</time></trkpt><trkpt lat="33.4884105" lon="9.3645536"><ele>106.0</ele><time>2026-04-29T08:56:03.54Z</time></trkpt><trkpt lat="33.4883133" lon="9.3643501"><ele>106.0</ele><time>2026-04-29T08:56:04.537Z</time></trkpt><trkpt lat="33.4882119" lon="9.3641549"><ele>106.0</ele><time>2026-04-29T08:56:05.53Z</time></trkpt><trkpt lat="33.4881043" lon="9.3639644"><ele>106.0</ele><time>2026-04-29T08:56:06.534Z</time></trkpt><trkpt lat="33.4880042" lon="9.3637661"><ele>106.0</ele><time>2026-04-29T08:56:07.52Z</time></trkpt><trkpt lat="33.4879011" lon="9.3635681"><ele>106.33333333333334</ele><time>2026-04-29T08:56:08.525Z</time></trkpt><trkpt lat="33.487801" lon="9.3633733"><ele>106.66666666666666</ele><time>2026-04-29T08:56:09.53Z</time></trkpt><trkpt lat="33.4877047" lon="9.3631662"><ele>107.0</ele><time>2026-04-29T08:56:10.533Z</time></trkpt><trkpt lat="33.4876024" lon="9.3629715"><ele>107.0</ele><time>2026-04-29T08:56:11.524Z</time></trkpt><trkpt lat="33.4874975" lon="9.3627837"><ele>107.0</ele><time>2026-04-29T08:56:12.538Z</time></trkpt><trkpt lat="33.4874029" lon="9.3625824"><ele>107.0</ele><time>2026-04-29T08:56:13.533Z</time></trkpt><trkpt lat="33.4873165" lon="9.3623786"><ele>107.33333333333333</ele><time>2026-04-29T08:56:14.524Z</time></trkpt><trkpt lat="33.4872166" lon="9.3621882"><ele>107.66666666666666</ele><time>2026-04-29T08:56:15.566Z</time></trkpt><trkpt lat="33.4871162" lon="9.3619877"><ele>108.0</ele><time>2026-04-29T08:56:16.578Z</time></trkpt><trkpt lat="33.4870154" lon="9.3617793"><ele>107.66666666666666</ele><time>2026-04-29T08:56:17.514Z</time></trkpt><trkpt lat="33.4869113" lon="9.3615829"><ele>107.33333333333333</ele><time>2026-04-29T08:56:18.526Z</time></trkpt><trkpt lat="33.4868122" lon="9.3613892"><ele>107.0</ele><time>2026-04-29T08:56:19.524Z</time></trkpt><trkpt lat="33.4867147" lon="9.3611924"><ele>107.0</ele><time>2026-04-29T08:56:20.532Z</time></trkpt><trkpt lat="33.4866178" lon="9.3610021"><ele>107.0</ele><time>2026-04-29T08:56:21.516Z</time></trkpt><trkpt lat="33.4865195" lon="9.3608029"><ele>107.0</ele><time>2026-04-29T08:56:22.526Z</time></trkpt><trkpt lat="33.4864187" lon="9.3606063"><ele>106.66666666666666</ele><time>2026-04-29T08:56:23.529Z</time></trkpt><trkpt lat="33.4863135" lon="9.36042"><ele>106.33333333333334</ele><time>2026-04-29T08:56:24.536Z</time></trkpt><trkpt lat="33.4862172" lon="9.3602221"><ele>106.0</ele><time>2026-04-29T08:56:25.525Z</time></trkpt><trkpt lat="33.4861232" lon="9.3600242"><ele>105.33333333333334</ele><time>2026-04-29T08:56:26.528Z</time></trkpt><trkpt lat="33.4860213" lon="9.3598341"><ele>104.66666666666666</ele><time>2026-04-29T08:56:27.528Z</time></trkpt><trkpt lat="33.4859177" lon="9.3596425"><ele>104.0</ele><time>2026-04-29T08:56:28.525Z</time></trkpt><trkpt lat="33.4858229" lon="9.3594394"><ele>103.66666666666666</ele><time>2026-04-29T08:56:29.533Z</time></trkpt><trkpt lat="33.4857306" lon="9.3592393"><ele>103.33333333333334</ele><time>2026-04-29T08:56:30.531Z</time></trkpt><trkpt lat="33.4856187" lon="9.3590514"><ele>103.0</ele><time>2026-04-29T08:56:31.532Z</time></trkpt><trkpt lat="33.4855243" lon="9.3588586"><ele>103.33333333333334</ele><time>2026-04-29T08:56:32.524Z</time></trkpt><trkpt lat="33.4854235" lon="9.3586593"><ele>103.66666666666666</ele><time>2026-04-29T08:56:33.519Z</time></trkpt><trkpt lat="33.4853231" lon="9.3584631"><ele>104.0</ele><time>2026-04-29T08:56:34.533Z</time></trkpt><trkpt lat="33.4852253" lon="9.3582657"><ele>104.0</ele><time>2026-04-29T08:56:35.521Z</time></trkpt><trkpt lat="33.4851345" lon="9.3580682"><ele>104.0</ele><time>2026-04-29T08:56:36.541Z</time></trkpt><trkpt lat="33.4850309" lon="9.357874"><ele>104.0</ele><time>2026-04-29T08:56:37.521Z</time></trkpt><trkpt lat="33.4849315" lon="9.3576797"><ele>104.0</ele><time>2026-04-29T08:56:38.527Z</time></trkpt><trkpt lat="33.4848263" lon="9.3574833"><ele>104.0</ele><time>2026-04-29T08:56:39.525Z</time></trkpt><trkpt lat="33.4847175" lon="9.3572962"><ele>104.0</ele><time>2026-04-29T08:56:40.532Z</time></trkpt><trkpt lat="33.4846003" lon="9.3571203"><ele>104.66666666666666</ele><time>2026-04-29T08:56:41.524Z</time></trkpt><trkpt lat="33.4844964" lon="9.3569312"><ele>105.33333333333334</ele><time>2026-04-29T08:56:42.512Z</time></trkpt><trkpt lat="33.4843787" lon="9.3567447"><ele>106.0</ele><time>2026-04-29T08:56:43.532Z</time></trkpt><trkpt lat="33.48425" lon="9.3565694"><ele>106.0</ele><time>2026-04-29T08:56:44.525Z</time></trkpt><trkpt lat="33.484129" lon="9.3563964"><ele>106.0</ele><time>2026-04-29T08:56:45.53Z</time></trkpt><trkpt lat="33.484014" lon="9.3562142"><ele>106.0</ele><time>2026-04-29T08:56:46.53Z</time></trkpt><trkpt lat="33.4838838" lon="9.3560361"><ele>106.0</ele><time>2026-04-29T08:56:47.527Z</time></trkpt><trkpt lat="33.4837597" lon="9.3558615"><ele>106.0</ele><time>2026-04-29T08:56:48.525Z</time></trkpt><trkpt lat="33.4836404" lon="9.3556892"><ele>106.0</ele><time>2026-04-29T08:56:49.523Z</time></trkpt><trkpt lat="33.4834994" lon="9.3555264"><ele>106.0</ele><time>2026-04-29T08:56:50.521Z</time></trkpt><trkpt lat="33.4833624" lon="9.3553704"><ele>106.0</ele><time>2026-04-29T08:56:51.519Z</time></trkpt><trkpt lat="33.4832366" lon="9.3551938"><ele>106.0</ele><time>2026-04-29T08:56:52.53Z</time></trkpt><trkpt lat="33.4831004" lon="9.3550254"><ele>106.0</ele><time>2026-04-29T08:56:53.542Z</time></trkpt><trkpt lat="33.4829596" lon="9.354862"><ele>106.0</ele><time>2026-04-29T08:56:54.528Z</time></trkpt><trkpt lat="33.4828213" lon="9.3547128"><ele>106.0</ele><time>2026-04-29T08:56:55.53Z</time></trkpt><trkpt lat="33.482683" lon="9.3545574"><ele>106.0</ele><time>2026-04-29T08:56:56.529Z</time></trkpt><trkpt lat="33.4825364" lon="9.3544051"><ele>106.0</ele><time>2026-04-29T08:56:57.531Z</time></trkpt><trkpt lat="33.4823872" lon="9.3542623"><ele>106.0</ele><time>2026-04-29T08:56:58.519Z</time></trkpt><trkpt lat="33.4822362" lon="9.3541186"><ele>106.0</ele><time>2026-04-29T08:56:59.528Z</time></trkpt><trkpt lat="33.4820846" lon="9.3539746"><ele>106.0</ele><time>2026-04-29T08:57:00.53Z</time></trkpt><trkpt lat="33.4819312" lon="9.35383"><ele>106.0</ele><time>2026-04-29T08:57:01.529Z</time></trkpt><trkpt lat="33.4817843" lon="9.3536852"><ele>106.0</ele><time>2026-04-29T08:57:02.527Z</time></trkpt><trkpt lat="33.4816326" lon="9.3535379"><ele>106.0</ele><time>2026-04-29T08:57:03.529Z</time></trkpt><trkpt lat="33.4814783" lon="9.3534013"><ele>106.0</ele><time>2026-04-29T08:57:04.525Z</time></trkpt><trkpt lat="33.4813251" lon="9.3532667"><ele>105.0</ele><time>2026-04-29T08:57:05.534Z</time></trkpt><trkpt lat="33.4811823" lon="9.3531148"><ele>104.0</ele><time>2026-04-29T08:57:06.527Z</time></trkpt><trkpt lat="33.4810315" lon="9.3529638"><ele>103.0</ele><time>2026-04-29T08:57:07.525Z</time></trkpt><trkpt lat="33.4808789" lon="9.3528226"><ele>103.33333333333334</ele><time>2026-04-29T08:57:08.526Z</time></trkpt><trkpt lat="33.4807219" lon="9.3526983"><ele>103.66666666666666</ele><time>2026-04-29T08:57:09.532Z</time></trkpt><trkpt lat="33.4805733" lon="9.3525606"><ele>104.0</ele><time>2026-04-29T08:57:10.524Z</time></trkpt><trkpt lat="33.4804281" lon="9.352404"><ele>104.0</ele><time>2026-04-29T08:57:11.528Z</time></trkpt><trkpt lat="33.4802791" lon="9.3522412"><ele>104.0</ele><time>2026-04-29T08:57:12.525Z</time></trkpt><trkpt lat="33.4801152" lon="9.3520987"><ele>104.0</ele><time>2026-04-29T08:57:13.514Z</time></trkpt><trkpt lat="33.4799545" lon="9.351965"><ele>104.0</ele><time>2026-04-29T08:57:14.53Z</time></trkpt><trkpt lat="33.479807" lon="9.3518232"><ele>104.0</ele><time>2026-04-29T08:57:15.538Z</time></trkpt><trkpt lat="33.479665" lon="9.3516696"><ele>104.0</ele><time>2026-04-29T08:57:16.528Z</time></trkpt><trkpt lat="33.4795149" lon="9.3515248"><ele>104.33333333333333</ele><time>2026-04-29T08:57:17.527Z</time></trkpt><trkpt lat="33.4793591" lon="9.351388"><ele>104.66666666666666</ele><time>2026-04-29T08:57:18.52Z</time></trkpt><trkpt lat="33.4792058" lon="9.3512486"><ele>105.0</ele><time>2026-04-29T08:57:19.521Z</time></trkpt><trkpt lat="33.4790622" lon="9.3510916"><ele>105.0</ele><time>2026-04-29T08:57:20.534Z</time></trkpt><trkpt lat="33.4789243" lon="9.3509368"><ele>105.0</ele><time>2026-04-29T08:57:21.529Z</time></trkpt><trkpt lat="33.4787796" lon="9.3507965"><ele>105.0</ele><time>2026-04-29T08:57:22.519Z</time></trkpt><trkpt lat="33.4786283" lon="9.3506494"><ele>105.33333333333334</ele><time>2026-04-29T08:57:23.517Z</time></trkpt><trkpt lat="33.4784746" lon="9.3505006"><ele>105.66666666666667</ele><time>2026-04-29T08:57:24.531Z</time></trkpt><trkpt lat="33.4783271" lon="9.3503483"><ele>106.0</ele><time>2026-04-29T08:57:25.513Z</time></trkpt><trkpt lat="33.478174" lon="9.350208"><ele>106.0</ele><time>2026-04-29T08:57:26.525Z</time></trkpt><trkpt lat="33.4780249" lon="9.3500674"><ele>106.0</ele><time>2026-04-29T08:57:27.536Z</time></trkpt><trkpt lat="33.4778766" lon="9.3499249"><ele>106.0</ele><time>2026-04-29T08:57:28.534Z</time></trkpt><trkpt lat="33.4777277" lon="9.349782"><ele>104.66666666666667</ele><time>2026-04-29T08:57:29.544Z</time></trkpt><trkpt lat="33.477576" lon="9.3496414"><ele>103.33333333333334</ele><time>2026-04-29T08:57:30.522Z</time></trkpt><trkpt lat="33.4774276" lon="9.3494912"><ele>102.0</ele><time>2026-04-29T08:57:31.534Z</time></trkpt><trkpt lat="33.4772742" lon="9.3493469"><ele>102.0</ele><time>2026-04-29T08:57:32.523Z</time></trkpt><trkpt lat="33.4771237" lon="9.3492011"><ele>102.0</ele><time>2026-04-29T08:57:33.545Z</time></trkpt><trkpt lat="33.476969" lon="9.3490574"><ele>102.0</ele><time>2026-04-29T08:57:34.551Z</time></trkpt><trkpt lat="33.4768162" lon="9.3489145"><ele>102.0</ele><time>2026-04-29T08:57:35.518Z</time></trkpt><trkpt lat="33.4766706" lon="9.3487679"><ele>102.0</ele><time>2026-04-29T08:57:36.552Z</time></trkpt><trkpt lat="33.4765212" lon="9.3486251"><ele>102.0</ele><time>2026-04-29T08:57:37.537Z</time></trkpt><trkpt lat="33.4763731" lon="9.3484851"><ele>102.66666666666666</ele><time>2026-04-29T08:57:38.539Z</time></trkpt><trkpt lat="33.4762242" lon="9.348342"><ele>103.33333333333333</ele><time>2026-04-29T08:57:39.544Z</time></trkpt><trkpt lat="33.476075" lon="9.3481994"><ele>104.0</ele><time>2026-04-29T08:57:40.553Z</time></trkpt><trkpt lat="33.475924" lon="9.3480559"><ele>104.0</ele><time>2026-04-29T08:57:41.545Z</time></trkpt><trkpt lat="33.475769" lon="9.3479089"><ele>104.0</ele><time>2026-04-29T08:57:42.546Z</time></trkpt><trkpt lat="33.4756153" lon="9.3477628"><ele>104.0</ele><time>2026-04-29T08:57:43.557Z</time></trkpt><trkpt lat="33.4754628" lon="9.3476133"><ele>104.0</ele><time>2026-04-29T08:57:44.556Z</time></trkpt><trkpt lat="33.4753174" lon="9.3474644"><ele>104.0</ele><time>2026-04-29T08:57:45.555Z</time></trkpt><trkpt lat="33.4751752" lon="9.3473108"><ele>104.0</ele><time>2026-04-29T08:57:46.568Z</time></trkpt><trkpt lat="33.4750297" lon="9.3471636"><ele>104.0</ele><time>2026-04-29T08:57:47.535Z</time></trkpt><trkpt lat="33.4748849" lon="9.347017"><ele>104.0</ele><time>2026-04-29T08:57:48.534Z</time></trkpt><trkpt lat="33.4747444" lon="9.3468613"><ele>104.0</ele><time>2026-04-29T08:57:49.531Z</time></trkpt><trkpt lat="33.4746018" lon="9.3467045"><ele>104.0</ele><time>2026-04-29T08:57:50.549Z</time></trkpt><trkpt lat="33.4744575" lon="9.3465456"><ele>104.0</ele><time>2026-04-29T08:57:51.534Z</time></trkpt><trkpt lat="33.4743192" lon="9.3463902"><ele>104.0</ele><time>2026-04-29T08:57:52.547Z</time></trkpt><trkpt lat="33.4741793" lon="9.3462363"><ele>103.66666666666666</ele><time>2026-04-29T08:57:53.532Z</time></trkpt><trkpt lat="33.4740399" lon="9.3460742"><ele>103.33333333333334</ele><time>2026-04-29T08:57:54.539Z</time></trkpt><trkpt lat="33.4739023" lon="9.3459121"><ele>103.0</ele><time>2026-04-29T08:57:55.543Z</time></trkpt><trkpt lat="33.4737616" lon="9.3457531"><ele>102.66666666666667</ele><time>2026-04-29T08:57:56.539Z</time></trkpt><trkpt lat="33.4736217" lon="9.3455941"><ele>102.33333333333334</ele><time>2026-04-29T08:57:57.532Z</time></trkpt><trkpt lat="33.4734863" lon="9.3454317"><ele>102.0</ele><time>2026-04-29T08:57:58.53Z</time></trkpt><trkpt lat="33.4733517" lon="9.3452703"><ele>101.66666666666666</ele><time>2026-04-29T08:57:59.538Z</time></trkpt><trkpt lat="33.4732163" lon="9.345105"><ele>101.33333333333333</ele><time>2026-04-29T08:58:00.555Z</time></trkpt><trkpt lat="33.4730861" lon="9.3449356"><ele>101.0</ele><time>2026-04-29T08:58:01.529Z</time></trkpt><trkpt lat="33.4729568" lon="9.344764"><ele>101.0</ele><time>2026-04-29T08:58:02.547Z</time></trkpt><trkpt lat="33.4728276" lon="9.3445928"><ele>101.0</ele><time>2026-04-29T08:58:03.523Z</time></trkpt><trkpt lat="33.4726987" lon="9.3444186"><ele>101.0</ele><time>2026-04-29T08:58:04.516Z</time></trkpt><trkpt lat="33.4725738" lon="9.3442456"><ele>101.0</ele><time>2026-04-29T08:58:05.52Z</time></trkpt><trkpt lat="33.4724477" lon="9.3440714"><ele>101.0</ele><time>2026-04-29T08:58:06.56Z</time></trkpt><trkpt lat="33.4723194" lon="9.3439014"><ele>101.0</ele><time>2026-04-29T08:58:07.542Z</time></trkpt><trkpt lat="33.4721975" lon="9.3437223"><ele>101.33333333333333</ele><time>2026-04-29T08:58:08.526Z</time></trkpt><trkpt lat="33.4720708" lon="9.3435441"><ele>101.66666666666666</ele><time>2026-04-29T08:58:09.525Z</time></trkpt><trkpt lat="33.4719437" lon="9.34337"><ele>102.0</ele><time>2026-04-29T08:58:10.527Z</time></trkpt><trkpt lat="33.4718193" lon="9.3431906"><ele>102.0</ele><time>2026-04-29T08:58:11.536Z</time></trkpt><trkpt lat="33.4716972" lon="9.3430143"><ele>102.0</ele><time>2026-04-29T08:58:12.55Z</time></trkpt><trkpt lat="33.4715803" lon="9.3428297"><ele>102.0</ele><time>2026-04-29T08:58:13.539Z</time></trkpt><trkpt lat="33.4714616" lon="9.3426453"><ele>102.0</ele><time>2026-04-29T08:58:14.534Z</time></trkpt><trkpt lat="33.4713463" lon="9.3424601"><ele>102.0</ele><time>2026-04-29T08:58:15.525Z</time></trkpt><trkpt lat="33.4712334" lon="9.3422767"><ele>102.0</ele><time>2026-04-29T08:58:16.539Z</time></trkpt><trkpt lat="33.4711178" lon="9.3420868"><ele>102.33333333333334</ele><time>2026-04-29T08:58:17.551Z</time></trkpt><trkpt lat="33.4710023" lon="9.3418996"><ele>102.66666666666667</ele><time>2026-04-29T08:58:18.566Z</time></trkpt><trkpt lat="33.4708898" lon="9.3417119"><ele>103.0</ele><time>2026-04-29T08:58:19.568Z</time></trkpt><trkpt lat="33.4707784" lon="9.3415243"><ele>102.66666666666667</ele><time>2026-04-29T08:58:20.555Z</time></trkpt><trkpt lat="33.4706717" lon="9.3413333"><ele>102.33333333333334</ele><time>2026-04-29T08:58:21.53Z</time></trkpt><trkpt lat="33.4705623" lon="9.3411464"><ele>102.0</ele><time>2026-04-29T08:58:22.55Z</time></trkpt><trkpt lat="33.4704572" lon="9.3409592"><ele>101.33333333333334</ele><time>2026-04-29T08:58:23.558Z</time></trkpt><trkpt lat="33.4703489" lon="9.340769"><ele>100.66666666666667</ele><time>2026-04-29T08:58:24.565Z</time></trkpt><trkpt lat="33.4702416" lon="9.3405765"><ele>100.0</ele><time>2026-04-29T08:58:25.532Z</time></trkpt><trkpt lat="33.4701388" lon="9.3403853"><ele>100.0</ele><time>2026-04-29T08:58:26.549Z</time></trkpt><trkpt lat="33.4700368" lon="9.3401904"><ele>100.0</ele><time>2026-04-29T08:58:27.541Z</time></trkpt><trkpt lat="33.4699351" lon="9.3399972"><ele>100.0</ele><time>2026-04-29T08:58:28.534Z</time></trkpt><trkpt lat="33.4698322" lon="9.3398033"><ele>100.0</ele><time>2026-04-29T08:58:29.551Z</time></trkpt><trkpt lat="33.4697295" lon="9.3396079"><ele>100.0</ele><time>2026-04-29T08:58:30.534Z</time></trkpt><trkpt lat="33.4696354" lon="9.3394083"><ele>100.0</ele><time>2026-04-29T08:58:31.552Z</time></trkpt><trkpt lat="33.4695382" lon="9.3392093"><ele>100.0</ele><time>2026-04-29T08:58:32.549Z</time></trkpt><trkpt lat="33.46944" lon="9.3390106"><ele>100.0</ele><time>2026-04-29T08:58:33.553Z</time></trkpt><trkpt lat="33.4693444" lon="9.3388099"><ele>100.0</ele><time>2026-04-29T08:58:34.547Z</time></trkpt><trkpt lat="33.4692478" lon="9.3386107"><ele>99.66666666666667</ele><time>2026-04-29T08:58:35.555Z</time></trkpt><trkpt lat="33.4691531" lon="9.3384079"><ele>99.33333333333334</ele><time>2026-04-29T08:58:36.561Z</time></trkpt><trkpt lat="33.4690661" lon="9.3382033"><ele>99.0</ele><time>2026-04-29T08:58:37.543Z</time></trkpt><trkpt lat="33.468978" lon="9.3379964"><ele>99.0</ele><time>2026-04-29T08:58:38.554Z</time></trkpt><trkpt lat="33.4688902" lon="9.3377861"><ele>99.0</ele><time>2026-04-29T08:58:39.56Z</time></trkpt><trkpt lat="33.4688024" lon="9.3375807"><ele>99.0</ele><time>2026-04-29T08:58:40.565Z</time></trkpt><trkpt lat="33.4687147" lon="9.3373743"><ele>99.33333333333334</ele><time>2026-04-29T08:58:41.558Z</time></trkpt><trkpt lat="33.4686295" lon="9.3371655"><ele>99.66666666666667</ele><time>2026-04-29T08:58:42.562Z</time></trkpt><trkpt lat="33.4685449" lon="9.3369599"><ele>100.0</ele><time>2026-04-29T08:58:43.576Z</time></trkpt><trkpt lat="33.468459" lon="9.336749"><ele>100.0</ele><time>2026-04-29T08:58:44.573Z</time></trkpt><trkpt lat="33.4683778" lon="9.3365357"><ele>100.0</ele><time>2026-04-29T08:58:45.56Z</time></trkpt><trkpt lat="33.4682988" lon="9.3363271"><ele>100.0</ele><time>2026-04-29T08:58:46.557Z</time></trkpt><trkpt lat="33.4682206" lon="9.3361171"><ele>100.0</ele><time>2026-04-29T08:58:47.539Z</time></trkpt><trkpt lat="33.4681456" lon="9.3359077"><ele>100.0</ele><time>2026-04-29T08:58:48.55Z</time></trkpt><trkpt lat="33.4680708" lon="9.3356972"><ele>100.0</ele><time>2026-04-29T08:58:49.557Z</time></trkpt><trkpt lat="33.4679952" lon="9.335485"><ele>100.33333333333334</ele><time>2026-04-29T08:58:50.556Z</time></trkpt><trkpt lat="33.4679223" lon="9.3352711"><ele>100.66666666666666</ele><time>2026-04-29T08:58:51.553Z</time></trkpt><trkpt lat="33.467848" lon="9.3350579"><ele>101.0</ele><time>2026-04-29T08:58:52.558Z</time></trkpt><trkpt lat="33.467775" lon="9.3348494"><ele>100.66666666666666</ele><time>2026-04-29T08:58:53.557Z</time></trkpt><trkpt lat="33.4677034" lon="9.3346398"><ele>100.33333333333334</ele><time>2026-04-29T08:58:54.567Z</time></trkpt><trkpt lat="33.4676373" lon="9.3344174"><ele>100.0</ele><time>2026-04-29T08:58:55.564Z</time></trkpt><trkpt lat="33.4675726" lon="9.3342011"><ele>100.0</ele><time>2026-04-29T08:58:56.559Z</time></trkpt><trkpt lat="33.467509" lon="9.3339836"><ele>100.0</ele><time>2026-04-29T08:58:57.555Z</time></trkpt><trkpt lat="33.4674436" lon="9.3337666"><ele>100.0</ele><time>2026-04-29T08:58:58.567Z</time></trkpt><trkpt lat="33.4673759" lon="9.3335535"><ele>99.66666666666667</ele><time>2026-04-29T08:58:59.546Z</time></trkpt><trkpt lat="33.4673099" lon="9.3333341"><ele>99.33333333333334</ele><time>2026-04-29T08:59:00.577Z</time></trkpt><trkpt lat="33.4672437" lon="9.3331162"><ele>99.0</ele><time>2026-04-29T08:59:01.568Z</time></trkpt><trkpt lat="33.4671749" lon="9.3328983"><ele>99.66666666666666</ele><time>2026-04-29T08:59:02.534Z</time></trkpt><trkpt lat="33.4671092" lon="9.3326831"><ele>100.33333333333333</ele><time>2026-04-29T08:59:03.547Z</time></trkpt><trkpt lat="33.4670392" lon="9.3324688"><ele>101.0</ele><time>2026-04-29T08:59:04.562Z</time></trkpt><trkpt lat="33.4669775" lon="9.3322464"><ele>101.0</ele><time>2026-04-29T08:59:05.562Z</time></trkpt><trkpt lat="33.4669092" lon="9.3320305"><ele>101.0</ele><time>2026-04-29T08:59:06.556Z</time></trkpt><trkpt lat="33.4668431" lon="9.331815"><ele>101.0</ele><time>2026-04-29T08:59:07.561Z</time></trkpt><trkpt lat="33.4667752" lon="9.3315988"><ele>100.66666666666666</ele><time>2026-04-29T08:59:08.567Z</time></trkpt><trkpt lat="33.4667103" lon="9.3313805"><ele>100.33333333333334</ele><time>2026-04-29T08:59:09.562Z</time></trkpt><trkpt lat="33.4666436" lon="9.3311629"><ele>100.0</ele><time>2026-04-29T08:59:10.557Z</time></trkpt><trkpt lat="33.4665784" lon="9.3309452"><ele>100.0</ele><time>2026-04-29T08:59:11.559Z</time></trkpt><trkpt lat="33.4665139" lon="9.3307286"><ele>100.0</ele><time>2026-04-29T08:59:12.571Z</time></trkpt><trkpt lat="33.466445" lon="9.330518"><ele>100.0</ele><time>2026-04-29T08:59:13.561Z</time></trkpt><trkpt lat="33.4663749" lon="9.3303032"><ele>100.0</ele><time>2026-04-29T08:59:14.563Z</time></trkpt><trkpt lat="33.4663108" lon="9.3300868"><ele>100.0</ele><time>2026-04-29T08:59:15.55Z</time></trkpt><trkpt lat="33.4662436" lon="9.3298681"><ele>100.0</ele><time>2026-04-29T08:59:16.545Z</time></trkpt><trkpt lat="33.4661779" lon="9.3296554"><ele>100.0</ele><time>2026-04-29T08:59:17.547Z</time></trkpt><trkpt lat="33.4661148" lon="9.3294364"><ele>100.0</ele><time>2026-04-29T08:59:18.533Z</time></trkpt><trkpt lat="33.4660482" lon="9.3292165"><ele>100.0</ele><time>2026-04-29T08:59:19.537Z</time></trkpt><trkpt lat="33.4659788" lon="9.3290016"><ele>100.0</ele><time>2026-04-29T08:59:20.546Z</time></trkpt><trkpt lat="33.4659106" lon="9.3287853"><ele>100.0</ele><time>2026-04-29T08:59:21.602Z</time></trkpt><trkpt lat="33.4658445" lon="9.328567"><ele>100.0</ele><time>2026-04-29T08:59:22.551Z</time></trkpt><trkpt lat="33.465781" lon="9.3283551"><ele>100.0</ele><time>2026-04-29T08:59:23.524Z</time></trkpt><trkpt lat="33.4657129" lon="9.3281368"><ele>100.0</ele><time>2026-04-29T08:59:24.574Z</time></trkpt><trkpt lat="33.4656466" lon="9.3279199"><ele>100.0</ele><time>2026-04-29T08:59:25.558Z</time></trkpt><trkpt lat="33.4655782" lon="9.3277025"><ele>99.66666666666667</ele><time>2026-04-29T08:59:26.548Z</time></trkpt><trkpt lat="33.4655089" lon="9.3274869"><ele>99.33333333333334</ele><time>2026-04-29T08:59:27.555Z</time></trkpt><trkpt lat="33.4654439" lon="9.327272"><ele>99.0</ele><time>2026-04-29T08:59:28.567Z</time></trkpt><trkpt lat="33.4653799" lon="9.3270597"><ele>99.0</ele><time>2026-04-29T08:59:29.56Z</time></trkpt><trkpt lat="33.4653123" lon="9.3268483"><ele>99.0</ele><time>2026-04-29T08:59:30.562Z</time></trkpt><trkpt lat="33.4652463" lon="9.3266293"><ele>99.0</ele><time>2026-04-29T08:59:31.543Z</time></trkpt><trkpt lat="33.4651836" lon="9.3264072"><ele>99.0</ele><time>2026-04-29T08:59:32.539Z</time></trkpt><trkpt lat="33.4651179" lon="9.3261874"><ele>99.0</ele><time>2026-04-29T08:59:33.558Z</time></trkpt><trkpt lat="33.4650498" lon="9.3259726"><ele>99.0</ele><time>2026-04-29T08:59:34.56Z</time></trkpt><trkpt lat="33.4649849" lon="9.3257595"><ele>99.0</ele><time>2026-04-29T08:59:35.539Z</time></trkpt><trkpt lat="33.4649176" lon="9.3255409"><ele>99.0</ele><time>2026-04-29T08:59:36.551Z</time></trkpt><trkpt lat="33.464851" lon="9.3253282"><ele>99.0</ele><time>2026-04-29T08:59:37.549Z</time></trkpt><trkpt lat="33.4647884" lon="9.3251169"><ele>99.0</ele><time>2026-04-29T08:59:38.536Z</time></trkpt><trkpt lat="33.4647237" lon="9.3249056"><ele>99.0</ele><time>2026-04-29T08:59:39.543Z</time></trkpt><trkpt lat="33.4646523" lon="9.3246805"><ele>99.0</ele><time>2026-04-29T08:59:40.561Z</time></trkpt><trkpt lat="33.4645873" lon="9.3244644"><ele>99.66666666666666</ele><time>2026-04-29T08:59:41.563Z</time></trkpt><trkpt lat="33.464522" lon="9.324252"><ele>100.33333333333333</ele><time>2026-04-29T08:59:42.56Z</time></trkpt><trkpt lat="33.4644528" lon="9.3240343"><ele>101.0</ele><time>2026-04-29T08:59:43.557Z</time></trkpt><trkpt lat="33.46439" lon="9.3238141"><ele>101.33333333333333</ele><time>2026-04-29T08:59:44.531Z</time></trkpt><trkpt lat="33.4643251" lon="9.3235998"><ele>101.66666666666666</ele><time>2026-04-29T08:59:45.555Z</time></trkpt><trkpt lat="33.4642619" lon="9.3233855"><ele>102.0</ele><time>2026-04-29T08:59:46.562Z</time></trkpt><trkpt lat="33.4641988" lon="9.3231673"><ele>101.66666666666666</ele><time>2026-04-29T08:59:47.537Z</time></trkpt><trkpt lat="33.4641344" lon="9.3229482"><ele>101.33333333333333</ele><time>2026-04-29T08:59:48.552Z</time></trkpt><trkpt lat="33.4640688" lon="9.322734"><ele>101.0</ele><time>2026-04-29T08:59:49.562Z</time></trkpt><trkpt lat="33.464" lon="9.3225229"><ele>101.0</ele><time>2026-04-29T08:59:50.548Z</time></trkpt><trkpt lat="33.463931" lon="9.3223091"><ele>101.0</ele><time>2026-04-29T08:59:51.539Z</time></trkpt><trkpt lat="33.4638654" lon="9.3220914"><ele>101.0</ele><time>2026-04-29T08:59:52.547Z</time></trkpt><trkpt lat="33.4637973" lon="9.3218774"><ele>100.33333333333333</ele><time>2026-04-29T08:59:53.525Z</time></trkpt><trkpt lat="33.4637299" lon="9.3216608"><ele>99.66666666666666</ele><time>2026-04-29T08:59:54.541Z</time></trkpt><trkpt lat="33.463662" lon="9.3214461"><ele>99.0</ele><time>2026-04-29T08:59:55.552Z</time></trkpt><trkpt lat="33.463595" lon="9.321229"><ele>99.0</ele><time>2026-04-29T08:59:56.55Z</time></trkpt><trkpt lat="33.4635294" lon="9.3210101"><ele>99.0</ele><time>2026-04-29T08:59:57.546Z</time></trkpt><trkpt lat="33.4634643" lon="9.3207872"><ele>99.0</ele><time>2026-04-29T08:59:58.56Z</time></trkpt><trkpt lat="33.4633955" lon="9.3205684"><ele>99.33333333333334</ele><time>2026-04-29T08:59:59.542Z</time></trkpt><trkpt lat="33.4633299" lon="9.3203546"><ele>99.66666666666667</ele><time>2026-04-29T09:00:00.563Z</time></trkpt><trkpt lat="33.4632651" lon="9.3201375"><ele>100.0</ele><time>2026-04-29T09:00:01.556Z</time></trkpt><trkpt lat="33.4631973" lon="9.3199229"><ele>100.33333333333334</ele><time>2026-04-29T09:00:02.561Z</time></trkpt><trkpt lat="33.4631329" lon="9.3197093"><ele>100.66666666666666</ele><time>2026-04-29T09:00:03.541Z</time></trkpt><trkpt lat="33.4630652" lon="9.3194948"><ele>101.0</ele><time>2026-04-29T09:00:04.542Z</time></trkpt><trkpt lat="33.4629994" lon="9.3192734"><ele>100.33333333333333</ele><time>2026-04-29T09:00:05.522Z</time></trkpt><trkpt lat="33.4629342" lon="9.3190572"><ele>99.66666666666666</ele><time>2026-04-29T09:00:06.537Z</time></trkpt><trkpt lat="33.4628685" lon="9.3188378"><ele>99.0</ele><time>2026-04-29T09:00:07.524Z</time></trkpt><trkpt lat="33.4628008" lon="9.3186206"><ele>99.0</ele><time>2026-04-29T09:00:08.539Z</time></trkpt><trkpt lat="33.4627334" lon="9.3184071"><ele>99.0</ele><time>2026-04-29T09:00:09.545Z</time></trkpt><trkpt lat="33.4626652" lon="9.3181868"><ele>99.0</ele><time>2026-04-29T09:00:10.535Z</time></trkpt><trkpt lat="33.4626017" lon="9.3179679"><ele>99.33333333333334</ele><time>2026-04-29T09:00:11.562Z</time></trkpt><trkpt lat="33.4625368" lon="9.3177489"><ele>99.66666666666667</ele><time>2026-04-29T09:00:12.525Z</time></trkpt><trkpt lat="33.4624707" lon="9.3175333"><ele>100.0</ele><time>2026-04-29T09:00:13.531Z</time></trkpt><trkpt lat="33.4624043" lon="9.3173102"><ele>101.33333333333334</ele><time>2026-04-29T09:00:14.541Z</time></trkpt><trkpt lat="33.4623351" lon="9.3170916"><ele>102.66666666666666</ele><time>2026-04-29T09:00:15.54Z</time></trkpt><trkpt lat="33.4622686" lon="9.3168769"><ele>104.0</ele><time>2026-04-29T09:00:16.534Z</time></trkpt><trkpt lat="33.4622006" lon="9.3166586"><ele>104.0</ele><time>2026-04-29T09:00:17.541Z</time></trkpt><trkpt lat="33.4621332" lon="9.3164414"><ele>104.0</ele><time>2026-04-29T09:00:18.543Z</time></trkpt><trkpt lat="33.4620624" lon="9.3162306"><ele>104.0</ele><time>2026-04-29T09:00:19.565Z</time></trkpt><trkpt lat="33.4619921" lon="9.3160164"><ele>103.66666666666666</ele><time>2026-04-29T09:00:20.56Z</time></trkpt><trkpt lat="33.4619251" lon="9.3157988"><ele>103.33333333333334</ele><time>2026-04-29T09:00:21.537Z</time></trkpt><trkpt lat="33.4618593" lon="9.3155824"><ele>103.0</ele><time>2026-04-29T09:00:22.542Z</time></trkpt><trkpt lat="33.4617956" lon="9.3153653"><ele>102.33333333333334</ele><time>2026-04-29T09:00:23.555Z</time></trkpt><trkpt lat="33.4617246" lon="9.3151477"><ele>101.66666666666666</ele><time>2026-04-29T09:00:24.556Z</time></trkpt><trkpt lat="33.4616584" lon="9.3149346"><ele>101.0</ele><time>2026-04-29T09:00:25.551Z</time></trkpt><trkpt lat="33.461588" lon="9.3147135"><ele>100.66666666666666</ele><time>2026-04-29T09:00:26.555Z</time></trkpt><trkpt lat="33.4615236" lon="9.314502"><ele>100.33333333333334</ele><time>2026-04-29T09:00:27.553Z</time></trkpt><trkpt lat="33.4614601" lon="9.3142878"><ele>100.0</ele><time>2026-04-29T09:00:28.548Z</time></trkpt><trkpt lat="33.461394" lon="9.3140762"><ele>100.0</ele><time>2026-04-29T09:00:29.555Z</time></trkpt><trkpt lat="33.4613263" lon="9.3138625"><ele>100.0</ele><time>2026-04-29T09:00:30.542Z</time></trkpt><trkpt lat="33.4612616" lon="9.3136473"><ele>100.0</ele><time>2026-04-29T09:00:31.556Z</time></trkpt><trkpt lat="33.4612008" lon="9.313431"><ele>100.0</ele><time>2026-04-29T09:00:32.551Z</time></trkpt><trkpt lat="33.4611336" lon="9.313216"><ele>100.0</ele><time>2026-04-29T09:00:33.541Z</time></trkpt><trkpt lat="33.4610672" lon="9.3129978"><ele>100.0</ele><time>2026-04-29T09:00:34.545Z</time></trkpt><trkpt lat="33.4610038" lon="9.3127915"><ele>99.66666666666667</ele><time>2026-04-29T09:00:35.531Z</time></trkpt><trkpt lat="33.4609427" lon="9.3125949"><ele>99.33333333333334</ele><time>2026-04-29T09:00:36.579Z</time></trkpt><trkpt lat="33.4608839" lon="9.3123978"><ele>99.0</ele><time>2026-04-29T09:00:37.53Z</time></trkpt><trkpt lat="33.4608241" lon="9.3122072"><ele>99.0</ele><time>2026-04-29T09:00:38.528Z</time></trkpt><trkpt lat="33.4607662" lon="9.3120172"><ele>99.0</ele><time>2026-04-29T09:00:39.535Z</time></trkpt><trkpt lat="33.46071" lon="9.311833"><ele>99.0</ele><time>2026-04-29T09:00:40.556Z</time></trkpt><trkpt lat="33.4606518" lon="9.311649"><ele>99.0</ele><time>2026-04-29T09:00:41.553Z</time></trkpt><trkpt lat="33.4605927" lon="9.3114694"><ele>99.0</ele><time>2026-04-29T09:00:42.549Z</time></trkpt><trkpt lat="33.4605373" lon="9.3112889"><ele>99.0</ele><time>2026-04-29T09:00:43.533Z</time></trkpt><trkpt lat="33.4604806" lon="9.3110998"><ele>99.0</ele><time>2026-04-29T09:00:44.536Z</time></trkpt><trkpt lat="33.4604227" lon="9.3109145"><ele>99.0</ele><time>2026-04-29T09:00:45.573Z</time></trkpt><trkpt lat="33.4603664" lon="9.3107213"><ele>99.0</ele><time>2026-04-29T09:00:46.57Z</time></trkpt><trkpt lat="33.4603065" lon="9.3105249"><ele>99.0</ele><time>2026-04-29T09:00:47.54Z</time></trkpt><trkpt lat="33.4602492" lon="9.3103308"><ele>99.0</ele><time>2026-04-29T09:00:48.531Z</time></trkpt><trkpt lat="33.4601895" lon="9.3101342"><ele>99.0</ele><time>2026-04-29T09:00:49.555Z</time></trkpt><trkpt lat="33.460131" lon="9.3099327"><ele>99.33333333333334</ele><time>2026-04-29T09:00:50.552Z</time></trkpt><trkpt lat="33.4600681" lon="9.3097334"><ele>99.66666666666667</ele><time>2026-04-29T09:00:51.564Z</time></trkpt><trkpt lat="33.4600057" lon="9.3095308"><ele>100.0</ele><time>2026-04-29T09:00:52.551Z</time></trkpt><trkpt lat="33.459946" lon="9.3093331"><ele>100.0</ele><time>2026-04-29T09:00:53.546Z</time></trkpt><trkpt lat="33.4598851" lon="9.3091343"><ele>100.0</ele><time>2026-04-29T09:00:54.568Z</time></trkpt><trkpt lat="33.459821" lon="9.3089409"><ele>100.0</ele><time>2026-04-29T09:00:55.532Z</time></trkpt><trkpt lat="33.4597585" lon="9.3087447"><ele>100.0</ele><time>2026-04-29T09:00:56.568Z</time></trkpt><trkpt lat="33.4596989" lon="9.3085545"><ele>100.0</ele><time>2026-04-29T09:00:57.566Z</time></trkpt><trkpt lat="33.4596407" lon="9.3083616"><ele>100.0</ele><time>2026-04-29T09:00:58.578Z</time></trkpt><trkpt lat="33.4595811" lon="9.308162"><ele>99.66666666666667</ele><time>2026-04-29T09:00:59.555Z</time></trkpt><trkpt lat="33.4595236" lon="9.3079658"><ele>99.33333333333334</ele><time>2026-04-29T09:01:00.541Z</time></trkpt><trkpt lat="33.4594623" lon="9.3077659"><ele>99.0</ele><time>2026-04-29T09:01:01.549Z</time></trkpt><trkpt lat="33.4594003" lon="9.3075689"><ele>99.0</ele><time>2026-04-29T09:01:02.543Z</time></trkpt><trkpt lat="33.4593385" lon="9.3073701"><ele>99.0</ele><time>2026-04-29T09:01:03.544Z</time></trkpt><trkpt lat="33.4592804" lon="9.3071792"><ele>99.0</ele><time>2026-04-29T09:01:04.563Z</time></trkpt><trkpt lat="33.4592186" lon="9.3069842"><ele>99.0</ele><time>2026-04-29T09:01:05.549Z</time></trkpt><trkpt lat="33.4591589" lon="9.3067874"><ele>99.0</ele><time>2026-04-29T09:01:06.544Z</time></trkpt><trkpt lat="33.4591014" lon="9.3065926"><ele>99.0</ele><time>2026-04-29T09:01:07.547Z</time></trkpt><trkpt lat="33.4590366" lon="9.3063895"><ele>99.33333333333334</ele><time>2026-04-29T09:01:08.532Z</time></trkpt><trkpt lat="33.4589752" lon="9.3061893"><ele>99.66666666666667</ele><time>2026-04-29T09:01:09.544Z</time></trkpt><trkpt lat="33.4589125" lon="9.3059849"><ele>100.0</ele><time>2026-04-29T09:01:10.565Z</time></trkpt><trkpt lat="33.4588525" lon="9.3057881"><ele>100.0</ele><time>2026-04-29T09:01:11.567Z</time></trkpt><trkpt lat="33.4587931" lon="9.3055933"><ele>100.0</ele><time>2026-04-29T09:01:12.555Z</time></trkpt><trkpt lat="33.458733" lon="9.3053934"><ele>100.0</ele><time>2026-04-29T09:01:13.553Z</time></trkpt><trkpt lat="33.4586719" lon="9.3051932"><ele>100.33333333333334</ele><time>2026-04-29T09:01:14.551Z</time></trkpt><trkpt lat="33.4586094" lon="9.3049932"><ele>100.66666666666666</ele><time>2026-04-29T09:01:15.556Z</time></trkpt><trkpt lat="33.4585521" lon="9.3047968"><ele>101.0</ele><time>2026-04-29T09:01:16.555Z</time></trkpt><trkpt lat="33.4584926" lon="9.3045988"><ele>101.0</ele><time>2026-04-29T09:01:17.54Z</time></trkpt><trkpt lat="33.4584329" lon="9.3043955"><ele>101.0</ele><time>2026-04-29T09:01:18.573Z</time></trkpt><trkpt lat="33.4583711" lon="9.3041999"><ele>101.0</ele><time>2026-04-29T09:01:19.549Z</time></trkpt><trkpt lat="33.4583085" lon="9.3039994"><ele>101.33333333333333</ele><time>2026-04-29T09:01:20.555Z</time></trkpt><trkpt lat="33.458249" lon="9.3037988"><ele>101.66666666666666</ele><time>2026-04-29T09:01:21.549Z</time></trkpt><trkpt lat="33.458186" lon="9.3036045"><ele>102.0</ele><time>2026-04-29T09:01:22.543Z</time></trkpt><trkpt lat="33.4581285" lon="9.3034085"><ele>102.0</ele><time>2026-04-29T09:01:23.556Z</time></trkpt><trkpt lat="33.4580734" lon="9.3032153"><ele>102.0</ele><time>2026-04-29T09:01:24.56Z</time></trkpt><trkpt lat="33.4580135" lon="9.3030176"><ele>102.0</ele><time>2026-04-29T09:01:25.551Z</time></trkpt><trkpt lat="33.4579512" lon="9.3028223"><ele>102.0</ele><time>2026-04-29T09:01:26.553Z</time></trkpt><trkpt lat="33.4578891" lon="9.3026235"><ele>102.0</ele><time>2026-04-29T09:01:27.544Z</time></trkpt><trkpt lat="33.4578312" lon="9.3024253"><ele>102.0</ele><time>2026-04-29T09:01:28.557Z</time></trkpt><trkpt lat="33.4577708" lon="9.302224"><ele>102.0</ele><time>2026-04-29T09:01:29.589Z</time></trkpt><trkpt lat="33.4577121" lon="9.3020253"><ele>102.0</ele><time>2026-04-29T09:01:30.545Z</time></trkpt><trkpt lat="33.4576536" lon="9.3018254"><ele>102.0</ele><time>2026-04-29T09:01:31.548Z</time></trkpt><trkpt lat="33.4575935" lon="9.3016301"><ele>102.0</ele><time>2026-04-29T09:01:32.529Z</time></trkpt><trkpt lat="33.4575369" lon="9.3014328"><ele>102.0</ele><time>2026-04-29T09:01:33.539Z</time></trkpt><trkpt lat="33.4574824" lon="9.3012379"><ele>102.0</ele><time>2026-04-29T09:01:34.546Z</time></trkpt><trkpt lat="33.4574318" lon="9.3010347"><ele>102.0</ele><time>2026-04-29T09:01:35.548Z</time></trkpt><trkpt lat="33.4573793" lon="9.3008303"><ele>102.0</ele><time>2026-04-29T09:01:36.559Z</time></trkpt><trkpt lat="33.457327" lon="9.3006262"><ele>102.0</ele><time>2026-04-29T09:01:37.547Z</time></trkpt><trkpt lat="33.4572784" lon="9.3004178"><ele>102.0</ele><time>2026-04-29T09:01:38.556Z</time></trkpt><trkpt lat="33.4572293" lon="9.3002152"><ele>102.0</ele><time>2026-04-29T09:01:39.544Z</time></trkpt><trkpt lat="33.4571772" lon="9.3000159"><ele>102.0</ele><time>2026-04-29T09:01:40.549Z</time></trkpt><trkpt lat="33.457134" lon="9.299807"><ele>102.66666666666666</ele><time>2026-04-29T09:01:41.56Z</time></trkpt><trkpt lat="33.4570864" lon="9.2996035"><ele>103.33333333333333</ele><time>2026-04-29T09:01:42.548Z</time></trkpt><trkpt lat="33.4570452" lon="9.2993971"><ele>104.0</ele><time>2026-04-29T09:01:43.522Z</time></trkpt><trkpt lat="33.457004" lon="9.2991965"><ele>104.0</ele><time>2026-04-29T09:01:44.56Z</time></trkpt><trkpt lat="33.4569651" lon="9.2989871"><ele>104.0</ele><time>2026-04-29T09:01:45.535Z</time></trkpt><trkpt lat="33.4569287" lon="9.2987786"><ele>104.0</ele><time>2026-04-29T09:01:46.563Z</time></trkpt><trkpt lat="33.4568899" lon="9.29857"><ele>104.0</ele><time>2026-04-29T09:01:47.564Z</time></trkpt><trkpt lat="33.4568548" lon="9.298365"><ele>104.0</ele><time>2026-04-29T09:01:48.548Z</time></trkpt><trkpt lat="33.4568143" lon="9.2981609"><ele>104.0</ele><time>2026-04-29T09:01:49.543Z</time></trkpt><trkpt lat="33.4567781" lon="9.2979551"><ele>104.0</ele><time>2026-04-29T09:01:50.549Z</time></trkpt><trkpt lat="33.4567465" lon="9.2977497"><ele>104.0</ele><time>2026-04-29T09:01:51.537Z</time></trkpt><trkpt lat="33.4567136" lon="9.2975461"><ele>104.0</ele><time>2026-04-29T09:01:52.535Z</time></trkpt><trkpt lat="33.4566833" lon="9.2973392"><ele>104.66666666666666</ele><time>2026-04-29T09:01:53.542Z</time></trkpt><trkpt lat="33.456656" lon="9.2971323"><ele>105.33333333333334</ele><time>2026-04-29T09:01:54.547Z</time></trkpt><trkpt lat="33.4566287" lon="9.2969176"><ele>106.0</ele><time>2026-04-29T09:01:55.576Z</time></trkpt><trkpt lat="33.456604" lon="9.2967089"><ele>106.0</ele><time>2026-04-29T09:01:56.544Z</time></trkpt><trkpt lat="33.4565867" lon="9.2964969"><ele>106.0</ele><time>2026-04-29T09:01:57.552Z</time></trkpt><trkpt lat="33.4565632" lon="9.2962922"><ele>106.0</ele><time>2026-04-29T09:01:58.552Z</time></trkpt><trkpt lat="33.45654" lon="9.296092"><ele>107.0</ele><time>2026-04-29T09:01:59.56Z</time></trkpt><trkpt lat="33.4565139" lon="9.2958821"><ele>108.0</ele><time>2026-04-29T09:02:00.544Z</time></trkpt><trkpt lat="33.4564871" lon="9.2956737"><ele>109.0</ele><time>2026-04-29T09:02:01.538Z</time></trkpt><trkpt lat="33.4564647" lon="9.2954642"><ele>109.33333333333334</ele><time>2026-04-29T09:02:02.559Z</time></trkpt><trkpt lat="33.4564456" lon="9.2952582"><ele>109.66666666666666</ele><time>2026-04-29T09:02:03.572Z</time></trkpt><trkpt lat="33.456424" lon="9.2950514"><ele>110.0</ele><time>2026-04-29T09:02:04.546Z</time></trkpt><trkpt lat="33.4564012" lon="9.294842"><ele>110.33333333333333</ele><time>2026-04-29T09:02:05.56Z</time></trkpt><trkpt lat="33.4563801" lon="9.2946358"><ele>110.66666666666666</ele><time>2026-04-29T09:02:06.552Z</time></trkpt><trkpt lat="33.4563551" lon="9.2944286"><ele>111.0</ele><time>2026-04-29T09:02:07.567Z</time></trkpt><trkpt lat="33.4563332" lon="9.2942173"><ele>111.0</ele><time>2026-04-29T09:02:08.581Z</time></trkpt><trkpt lat="33.4563136" lon="9.2940097"><ele>111.0</ele><time>2026-04-29T09:02:09.567Z</time></trkpt><trkpt lat="33.4562936" lon="9.2938048"><ele>111.0</ele><time>2026-04-29T09:02:10.532Z</time></trkpt><trkpt lat="33.4562724" lon="9.2935982"><ele>112.33333333333334</ele><time>2026-04-29T09:02:11.542Z</time></trkpt><trkpt lat="33.4562507" lon="9.2933909"><ele>113.66666666666667</ele><time>2026-04-29T09:02:12.545Z</time></trkpt><trkpt lat="33.4562275" lon="9.2931858"><ele>115.0</ele><time>2026-04-29T09:02:13.548Z</time></trkpt><trkpt lat="33.4562104" lon="9.2929747"><ele>115.33333333333334</ele><time>2026-04-29T09:02:14.55Z</time></trkpt><trkpt lat="33.4561893" lon="9.2927656"><ele>115.66666666666666</ele><time>2026-04-29T09:02:15.562Z</time></trkpt><trkpt lat="33.4561688" lon="9.2925524"><ele>116.0</ele><time>2026-04-29T09:02:16.555Z</time></trkpt><trkpt lat="33.4561447" lon="9.2923342"><ele>115.66666666666666</ele><time>2026-04-29T09:02:17.554Z</time></trkpt><trkpt lat="33.4561246" lon="9.2921272"><ele>115.33333333333334</ele><time>2026-04-29T09:02:18.561Z</time></trkpt><trkpt lat="33.4561026" lon="9.2919182"><ele>115.0</ele><time>2026-04-29T09:02:19.571Z</time></trkpt><trkpt lat="33.4560821" lon="9.2917085"><ele>115.0</ele><time>2026-04-29T09:02:20.519Z</time></trkpt><trkpt lat="33.4560607" lon="9.2914994"><ele>115.0</ele><time>2026-04-29T09:02:21.551Z</time></trkpt><trkpt lat="33.4560353" lon="9.2912912"><ele>115.0</ele><time>2026-04-29T09:02:22.571Z</time></trkpt><trkpt lat="33.4560115" lon="9.2910776"><ele>114.66666666666667</ele><time>2026-04-29T09:02:23.568Z</time></trkpt><trkpt lat="33.4559872" lon="9.2908677"><ele>114.33333333333334</ele><time>2026-04-29T09:02:24.546Z</time></trkpt><trkpt lat="33.4559634" lon="9.2906627"><ele>114.0</ele><time>2026-04-29T09:02:25.565Z</time></trkpt><trkpt lat="33.4559419" lon="9.2904572"><ele>114.66666666666666</ele><time>2026-04-29T09:02:26.572Z</time></trkpt><trkpt lat="33.4559205" lon="9.2902483"><ele>115.33333333333333</ele><time>2026-04-29T09:02:27.574Z</time></trkpt><trkpt lat="33.4558998" lon="9.2900395"><ele>116.0</ele><time>2026-04-29T09:02:28.523Z</time></trkpt><trkpt lat="33.455879" lon="9.289833"><ele>115.66666666666666</ele><time>2026-04-29T09:02:29.565Z</time></trkpt><trkpt lat="33.4558567" lon="9.2896204"><ele>115.33333333333334</ele><time>2026-04-29T09:02:30.552Z</time></trkpt><trkpt lat="33.4558343" lon="9.2894065"><ele>115.0</ele><time>2026-04-29T09:02:31.566Z</time></trkpt><trkpt lat="33.4558176" lon="9.2891921"><ele>115.0</ele><time>2026-04-29T09:02:32.567Z</time></trkpt><trkpt lat="33.4558005" lon="9.2889787"><ele>115.0</ele><time>2026-04-29T09:02:33.557Z</time></trkpt><trkpt lat="33.4557857" lon="9.2887686"><ele>115.0</ele><time>2026-04-29T09:02:34.56Z</time></trkpt><trkpt lat="33.4557701" lon="9.2885584"><ele>114.0</ele><time>2026-04-29T09:02:35.559Z</time></trkpt><trkpt lat="33.4557478" lon="9.2883462"><ele>113.0</ele><time>2026-04-29T09:02:36.556Z</time></trkpt><trkpt lat="33.4557209" lon="9.2881403"><ele>112.0</ele><time>2026-04-29T09:02:37.549Z</time></trkpt><trkpt lat="33.4556965" lon="9.2879284"><ele>111.66666666666667</ele><time>2026-04-29T09:02:38.55Z</time></trkpt><trkpt lat="33.4556743" lon="9.2877258"><ele>111.33333333333334</ele><time>2026-04-29T09:02:39.551Z</time></trkpt><trkpt lat="33.4556568" lon="9.2875191"><ele>111.0</ele><time>2026-04-29T09:02:40.544Z</time></trkpt><trkpt lat="33.4556349" lon="9.2873099"><ele>112.0</ele><time>2026-04-29T09:02:41.546Z</time></trkpt><trkpt lat="33.4556124" lon="9.2871024"><ele>113.0</ele><time>2026-04-29T09:02:42.553Z</time></trkpt><trkpt lat="33.4555896" lon="9.2868898"><ele>114.0</ele><time>2026-04-29T09:02:43.542Z</time></trkpt><trkpt lat="33.4555712" lon="9.2866811"><ele>114.0</ele><time>2026-04-29T09:02:44.563Z</time></trkpt><trkpt lat="33.4555515" lon="9.2864696"><ele>114.0</ele><time>2026-04-29T09:02:45.543Z</time></trkpt><trkpt lat="33.4555346" lon="9.2862632"><ele>114.0</ele><time>2026-04-29T09:02:46.554Z</time></trkpt><trkpt lat="33.4555114" lon="9.2860533"><ele>113.66666666666666</ele><time>2026-04-29T09:02:47.545Z</time></trkpt><trkpt lat="33.4554914" lon="9.2858447"><ele>113.33333333333333</ele><time>2026-04-29T09:02:48.562Z</time></trkpt><trkpt lat="33.4554696" lon="9.285631"><ele>113.0</ele><time>2026-04-29T09:02:49.549Z</time></trkpt><trkpt lat="33.4554493" lon="9.2854203"><ele>112.33333333333333</ele><time>2026-04-29T09:02:50.558Z</time></trkpt><trkpt lat="33.4554279" lon="9.2852124"><ele>111.66666666666666</ele><time>2026-04-29T09:02:51.531Z</time></trkpt><trkpt lat="33.4554098" lon="9.2850001"><ele>111.0</ele><time>2026-04-29T09:02:52.56Z</time></trkpt><trkpt lat="33.4553873" lon="9.2847901"><ele>110.66666666666666</ele><time>2026-04-29T09:02:53.545Z</time></trkpt><trkpt lat="33.4553681" lon="9.2845845"><ele>110.33333333333333</ele><time>2026-04-29T09:02:54.562Z</time></trkpt><trkpt lat="33.4553481" lon="9.2843761"><ele>110.0</ele><time>2026-04-29T09:02:55.552Z</time></trkpt><trkpt lat="33.4553269" lon="9.2841741"><ele>110.0</ele><time>2026-04-29T09:02:56.557Z</time></trkpt><trkpt lat="33.4553055" lon="9.2839705"><ele>110.0</ele><time>2026-04-29T09:02:57.554Z</time></trkpt><trkpt lat="33.4552869" lon="9.2837636"><ele>110.0</ele><time>2026-04-29T09:02:58.547Z</time></trkpt><trkpt lat="33.4552651" lon="9.2835541"><ele>110.0</ele><time>2026-04-29T09:02:59.55Z</time></trkpt><trkpt lat="33.4552436" lon="9.2833417"><ele>110.0</ele><time>2026-04-29T09:03:00.554Z</time></trkpt><trkpt lat="33.4552222" lon="9.2831312"><ele>110.0</ele><time>2026-04-29T09:03:01.546Z</time></trkpt><trkpt lat="33.4551993" lon="9.282924"><ele>110.0</ele><time>2026-04-29T09:03:02.554Z</time></trkpt><trkpt lat="33.4551771" lon="9.2827138"><ele>110.0</ele><time>2026-04-29T09:03:03.55Z</time></trkpt><trkpt lat="33.455158" lon="9.2824992"><ele>110.0</ele><time>2026-04-29T09:03:04.566Z</time></trkpt><trkpt lat="33.4551371" lon="9.2822906"><ele>110.33333333333333</ele><time>2026-04-29T09:03:05.561Z</time></trkpt><trkpt lat="33.4551191" lon="9.2820831"><ele>110.66666666666666</ele><time>2026-04-29T09:03:06.552Z</time></trkpt><trkpt lat="33.4551008" lon="9.2818752"><ele>111.0</ele><time>2026-04-29T09:03:07.547Z</time></trkpt><trkpt lat="33.4550851" lon="9.281666"><ele>111.0</ele><time>2026-04-29T09:03:08.558Z</time></trkpt><trkpt lat="33.455072" lon="9.281459"><ele>111.0</ele><time>2026-04-29T09:03:09.559Z</time></trkpt><trkpt lat="33.4550601" lon="9.2812544"><ele>111.0</ele><time>2026-04-29T09:03:10.56Z</time></trkpt><trkpt lat="33.4550472" lon="9.2810442"><ele>110.66666666666666</ele><time>2026-04-29T09:03:11.552Z</time></trkpt><trkpt lat="33.4550399" lon="9.2808304"><ele>110.33333333333333</ele><time>2026-04-29T09:03:12.546Z</time></trkpt><trkpt lat="33.4550346" lon="9.2806191"><ele>110.0</ele><time>2026-04-29T09:03:13.553Z</time></trkpt><trkpt lat="33.4550313" lon="9.2804112"><ele>110.0</ele><time>2026-04-29T09:03:14.547Z</time></trkpt><trkpt lat="33.4550304" lon="9.2802024"><ele>110.0</ele><time>2026-04-29T09:03:15.563Z</time></trkpt><trkpt lat="33.4550298" lon="9.2799923"><ele>110.0</ele><time>2026-04-29T09:03:16.556Z</time></trkpt><trkpt lat="33.4550327" lon="9.2797774"><ele>110.66666666666666</ele><time>2026-04-29T09:03:17.535Z</time></trkpt><trkpt lat="33.4550418" lon="9.2795699"><ele>111.33333333333334</ele><time>2026-04-29T09:03:18.559Z</time></trkpt><trkpt lat="33.4550452" lon="9.2793592"><ele>112.0</ele><time>2026-04-29T09:03:19.522Z</time></trkpt><trkpt lat="33.4550523" lon="9.2791455"><ele>112.0</ele><time>2026-04-29T09:03:20.539Z</time></trkpt><trkpt lat="33.455059" lon="9.278935"><ele>112.0</ele><time>2026-04-29T09:03:21.557Z</time></trkpt><trkpt lat="33.4550701" lon="9.2787202"><ele>112.0</ele><time>2026-04-29T09:03:22.566Z</time></trkpt><trkpt lat="33.4550824" lon="9.2785068"><ele>111.33333333333334</ele><time>2026-04-29T09:03:23.552Z</time></trkpt><trkpt lat="33.4551003" lon="9.2782951"><ele>110.66666666666666</ele><time>2026-04-29T09:03:24.558Z</time></trkpt><trkpt lat="33.4551108" lon="9.2780843"><ele>110.0</ele><time>2026-04-29T09:03:25.575Z</time></trkpt><trkpt lat="33.4551212" lon="9.2778725"><ele>109.66666666666666</ele><time>2026-04-29T09:03:26.571Z</time></trkpt><trkpt lat="33.4551364" lon="9.2776618"><ele>109.33333333333334</ele><time>2026-04-29T09:03:27.564Z</time></trkpt><trkpt lat="33.4551529" lon="9.2774464"><ele>109.0</ele><time>2026-04-29T09:03:28.574Z</time></trkpt><trkpt lat="33.4551683" lon="9.2772326"><ele>108.66666666666667</ele><time>2026-04-29T09:03:29.566Z</time></trkpt><trkpt lat="33.4551846" lon="9.2770154"><ele>108.33333333333334</ele><time>2026-04-29T09:03:30.574Z</time></trkpt><trkpt lat="33.455201" lon="9.2767974"><ele>108.0</ele><time>2026-04-29T09:03:31.549Z</time></trkpt><trkpt lat="33.4552195" lon="9.2765743"><ele>107.33333333333334</ele><time>2026-04-29T09:03:32.547Z</time></trkpt><trkpt lat="33.455242" lon="9.2763487"><ele>106.66666666666667</ele><time>2026-04-29T09:03:33.574Z</time></trkpt><trkpt lat="33.4552609" lon="9.2761243"><ele>106.0</ele><time>2026-04-29T09:03:34.576Z</time></trkpt><trkpt lat="33.455276" lon="9.2758924"><ele>106.0</ele><time>2026-04-29T09:03:35.575Z</time></trkpt><trkpt lat="33.4552839" lon="9.2756601"><ele>106.0</ele><time>2026-04-29T09:03:36.574Z</time></trkpt><trkpt lat="33.4552988" lon="9.2754288"><ele>106.0</ele><time>2026-04-29T09:03:37.556Z</time></trkpt><trkpt lat="33.4553151" lon="9.2751977"><ele>106.0</ele><time>2026-04-29T09:03:38.585Z</time></trkpt><trkpt lat="33.4553311" lon="9.2749669"><ele>106.0</ele><time>2026-04-29T09:03:39.543Z</time></trkpt><trkpt lat="33.4553463" lon="9.2747321"><ele>106.0</ele><time>2026-04-29T09:03:40.524Z</time></trkpt><trkpt lat="33.4553624" lon="9.2744915"><ele>106.66666666666667</ele><time>2026-04-29T09:03:41.556Z</time></trkpt><trkpt lat="33.4553808" lon="9.2742465"><ele>107.33333333333334</ele><time>2026-04-29T09:03:42.557Z</time></trkpt><trkpt lat="33.4553982" lon="9.2740074"><ele>108.0</ele><time>2026-04-29T09:03:43.562Z</time></trkpt><trkpt lat="33.4554122" lon="9.273772"><ele>108.0</ele><time>2026-04-29T09:03:44.548Z</time></trkpt><trkpt lat="33.4554257" lon="9.2735379"><ele>108.0</ele><time>2026-04-29T09:03:45.519Z</time></trkpt><trkpt lat="33.4554377" lon="9.2732991"><ele>108.0</ele><time>2026-04-29T09:03:46.527Z</time></trkpt><trkpt lat="33.4554545" lon="9.2730612"><ele>108.33333333333334</ele><time>2026-04-29T09:03:47.535Z</time></trkpt><trkpt lat="33.4554698" lon="9.272826"><ele>108.66666666666667</ele><time>2026-04-29T09:03:48.526Z</time></trkpt><trkpt lat="33.4554883" lon="9.272595"><ele>109.0</ele><time>2026-04-29T09:03:49.526Z</time></trkpt><trkpt lat="33.455504" lon="9.2723588"><ele>109.0</ele><time>2026-04-29T09:03:50.527Z</time></trkpt><trkpt lat="33.4555203" lon="9.2721221"><ele>109.0</ele><time>2026-04-29T09:03:51.528Z</time></trkpt><trkpt lat="33.4555346" lon="9.2718821"><ele>109.0</ele><time>2026-04-29T09:03:52.521Z</time></trkpt><trkpt lat="33.4555497" lon="9.2716452"><ele>108.33333333333334</ele><time>2026-04-29T09:03:53.529Z</time></trkpt><trkpt lat="33.4555646" lon="9.2714091"><ele>107.66666666666666</ele><time>2026-04-29T09:03:54.52Z</time></trkpt><trkpt lat="33.4555833" lon="9.271175"><ele>107.0</ele><time>2026-04-29T09:03:55.522Z</time></trkpt><trkpt lat="33.4556029" lon="9.270939"><ele>107.0</ele><time>2026-04-29T09:03:56.525Z</time></trkpt><trkpt lat="33.4556213" lon="9.2707024"><ele>107.0</ele><time>2026-04-29T09:03:57.534Z</time></trkpt><trkpt lat="33.4556369" lon="9.2704644"><ele>107.0</ele><time>2026-04-29T09:03:58.528Z</time></trkpt><trkpt lat="33.4556502" lon="9.270228"><ele>106.66666666666666</ele><time>2026-04-29T09:03:59.522Z</time></trkpt><trkpt lat="33.4556677" lon="9.2699905"><ele>106.33333333333334</ele><time>2026-04-29T09:04:00.517Z</time></trkpt><trkpt lat="33.4556805" lon="9.2697408"><ele>106.0</ele><time>2026-04-29T09:04:01.514Z</time></trkpt><trkpt lat="33.4556933" lon="9.2694901"><ele>106.0</ele><time>2026-04-29T09:04:02.513Z</time></trkpt><trkpt lat="33.4557124" lon="9.2692343"><ele>106.0</ele><time>2026-04-29T09:04:03.509Z</time></trkpt><trkpt lat="33.4557311" lon="9.2689809"><ele>106.0</ele><time>2026-04-29T09:04:04.528Z</time></trkpt><trkpt lat="33.4557517" lon="9.2687247"><ele>106.0</ele><time>2026-04-29T09:04:05.518Z</time></trkpt><trkpt lat="33.4557706" lon="9.2684777"><ele>106.0</ele><time>2026-04-29T09:04:06.527Z</time></trkpt><trkpt lat="33.4557879" lon="9.2682302"><ele>106.0</ele><time>2026-04-29T09:04:07.525Z</time></trkpt><trkpt lat="33.4558028" lon="9.267982"><ele>105.33333333333334</ele><time>2026-04-29T09:04:08.528Z</time></trkpt><trkpt lat="33.4558182" lon="9.2677344"><ele>104.66666666666666</ele><time>2026-04-29T09:04:09.525Z</time></trkpt><trkpt lat="33.455832" lon="9.2674868"><ele>104.0</ele><time>2026-04-29T09:04:10.523Z</time></trkpt><trkpt lat="33.4558461" lon="9.2672409"><ele>103.33333333333333</ele><time>2026-04-29T09:04:11.52Z</time></trkpt><trkpt lat="33.4558622" lon="9.266994"><ele>102.66666666666666</ele><time>2026-04-29T09:04:12.52Z</time></trkpt><trkpt lat="33.4558811" lon="9.2667437"><ele>102.0</ele><time>2026-04-29T09:04:13.513Z</time></trkpt><trkpt lat="33.4558972" lon="9.2664877"><ele>101.66666666666666</ele><time>2026-04-29T09:04:14.516Z</time></trkpt><trkpt lat="33.455913" lon="9.2662406"><ele>101.33333333333333</ele><time>2026-04-29T09:04:15.51Z</time></trkpt><trkpt lat="33.4559284" lon="9.2659915"><ele>101.0</ele><time>2026-04-29T09:04:16.519Z</time></trkpt><trkpt lat="33.455947" lon="9.2657438"><ele>101.0</ele><time>2026-04-29T09:04:17.527Z</time></trkpt><trkpt lat="33.4559673" lon="9.265495"><ele>101.0</ele><time>2026-04-29T09:04:18.533Z</time></trkpt><trkpt lat="33.4559858" lon="9.2652456"><ele>101.0</ele><time>2026-04-29T09:04:19.535Z</time></trkpt><trkpt lat="33.4560036" lon="9.2650005"><ele>101.0</ele><time>2026-04-29T09:04:20.511Z</time></trkpt><trkpt lat="33.4560229" lon="9.2647512"><ele>101.0</ele><time>2026-04-29T09:04:21.517Z</time></trkpt><trkpt lat="33.4560321" lon="9.2645022"><ele>101.0</ele><time>2026-04-29T09:04:22.522Z</time></trkpt><trkpt lat="33.4560473" lon="9.2642525"><ele>101.0</ele><time>2026-04-29T09:04:23.527Z</time></trkpt><trkpt lat="33.4560613" lon="9.2640013"><ele>101.0</ele><time>2026-04-29T09:04:24.528Z</time></trkpt><trkpt lat="33.4560772" lon="9.2637507"><ele>101.0</ele><time>2026-04-29T09:04:25.52Z</time></trkpt><trkpt lat="33.4560935" lon="9.2635023"><ele>100.33333333333333</ele><time>2026-04-29T09:04:26.526Z</time></trkpt><trkpt lat="33.4561117" lon="9.263255"><ele>99.66666666666666</ele><time>2026-04-29T09:04:27.526Z</time></trkpt><trkpt lat="33.4561319" lon="9.2630046"><ele>99.0</ele><time>2026-04-29T09:04:28.532Z</time></trkpt><trkpt lat="33.4561518" lon="9.2627562"><ele>99.0</ele><time>2026-04-29T09:04:29.526Z</time></trkpt><trkpt lat="33.4561685" lon="9.2625046"><ele>99.0</ele><time>2026-04-29T09:04:30.526Z</time></trkpt><trkpt lat="33.4561845" lon="9.2622493"><ele>99.0</ele><time>2026-04-29T09:04:31.528Z</time></trkpt><trkpt lat="33.4562026" lon="9.2619987"><ele>98.66666666666666</ele><time>2026-04-29T09:04:32.527Z</time></trkpt><trkpt lat="33.4562181" lon="9.2617469"><ele>98.33333333333333</ele><time>2026-04-29T09:04:33.532Z</time></trkpt><trkpt lat="33.4562339" lon="9.2614962"><ele>98.0</ele><time>2026-04-29T09:04:34.53Z</time></trkpt><trkpt lat="33.4562504" lon="9.2612459"><ele>98.0</ele><time>2026-04-29T09:04:35.533Z</time></trkpt><trkpt lat="33.4562663" lon="9.2610008"><ele>98.0</ele><time>2026-04-29T09:04:36.538Z</time></trkpt><trkpt lat="33.4562845" lon="9.2607483"><ele>98.0</ele><time>2026-04-29T09:04:37.523Z</time></trkpt><trkpt lat="33.4563017" lon="9.2604995"><ele>97.33333333333333</ele><time>2026-04-29T09:04:38.53Z</time></trkpt><trkpt lat="33.4563202" lon="9.2602515"><ele>96.66666666666666</ele><time>2026-04-29T09:04:39.53Z</time></trkpt><trkpt lat="33.4563361" lon="9.2599992"><ele>96.0</ele><time>2026-04-29T09:04:40.527Z</time></trkpt><trkpt lat="33.4563561" lon="9.2597472"><ele>96.0</ele><time>2026-04-29T09:04:41.527Z</time></trkpt><trkpt lat="33.4563764" lon="9.2594956"><ele>96.0</ele><time>2026-04-29T09:04:42.526Z</time></trkpt><trkpt lat="33.456392" lon="9.2592475"><ele>96.0</ele><time>2026-04-29T09:04:43.528Z</time></trkpt><trkpt lat="33.4564114" lon="9.2590016"><ele>95.0</ele><time>2026-04-29T09:04:44.526Z</time></trkpt><trkpt lat="33.4564347" lon="9.2587492"><ele>94.0</ele><time>2026-04-29T09:04:45.524Z</time></trkpt><trkpt lat="33.4564516" lon="9.2585029"><ele>93.0</ele><time>2026-04-29T09:04:46.529Z</time></trkpt><trkpt lat="33.4564572" lon="9.2582571"><ele>93.33333333333333</ele><time>2026-04-29T09:04:47.529Z</time></trkpt><trkpt lat="33.4564604" lon="9.2580058"><ele>93.66666666666666</ele><time>2026-04-29T09:04:48.517Z</time></trkpt><trkpt lat="33.4564706" lon="9.2577517"><ele>94.0</ele><time>2026-04-29T09:04:49.526Z</time></trkpt><trkpt lat="33.4564899" lon="9.2575038"><ele>93.66666666666666</ele><time>2026-04-29T09:04:50.522Z</time></trkpt><trkpt lat="33.456506" lon="9.2572572"><ele>93.33333333333333</ele><time>2026-04-29T09:04:51.527Z</time></trkpt><trkpt lat="33.4565266" lon="9.2570101"><ele>93.0</ele><time>2026-04-29T09:04:52.52Z</time></trkpt><trkpt lat="33.4565464" lon="9.2567603"><ele>93.0</ele><time>2026-04-29T09:04:53.518Z</time></trkpt><trkpt lat="33.4565634" lon="9.2565115"><ele>93.0</ele><time>2026-04-29T09:04:54.523Z</time></trkpt><trkpt lat="33.4565786" lon="9.2562631"><ele>93.0</ele><time>2026-04-29T09:04:55.523Z</time></trkpt><trkpt lat="33.456602" lon="9.2560164"><ele>93.0</ele><time>2026-04-29T09:04:56.526Z</time></trkpt><trkpt lat="33.4566244" lon="9.255769"><ele>93.0</ele><time>2026-04-29T09:04:57.529Z</time></trkpt><trkpt lat="33.4566454" lon="9.2555237"><ele>93.0</ele><time>2026-04-29T09:04:58.524Z</time></trkpt><trkpt lat="33.4566658" lon="9.2552678"><ele>93.0</ele><time>2026-04-29T09:04:59.549Z</time></trkpt><trkpt lat="33.4566881" lon="9.255017"><ele>93.0</ele><time>2026-04-29T09:05:00.521Z</time></trkpt><trkpt lat="33.4567102" lon="9.2547687"><ele>93.0</ele><time>2026-04-29T09:05:01.524Z</time></trkpt><trkpt lat="33.4567276" lon="9.2545213"><ele>93.0</ele><time>2026-04-29T09:05:02.529Z</time></trkpt><trkpt lat="33.4567411" lon="9.2542736"><ele>93.0</ele><time>2026-04-29T09:05:03.529Z</time></trkpt><trkpt lat="33.456759" lon="9.2540263"><ele>93.0</ele><time>2026-04-29T09:05:04.53Z</time></trkpt><trkpt lat="33.4567778" lon="9.2537744"><ele>92.66666666666667</ele><time>2026-04-29T09:05:05.532Z</time></trkpt><trkpt lat="33.456796" lon="9.2535247"><ele>92.33333333333334</ele><time>2026-04-29T09:05:06.527Z</time></trkpt><trkpt lat="33.4568139" lon="9.2532786"><ele>92.0</ele><time>2026-04-29T09:05:07.527Z</time></trkpt><trkpt lat="33.4568311" lon="9.2530288"><ele>91.66666666666667</ele><time>2026-04-29T09:05:08.525Z</time></trkpt><trkpt lat="33.4568464" lon="9.2527772"><ele>91.33333333333333</ele><time>2026-04-29T09:05:09.523Z</time></trkpt><trkpt lat="33.4568612" lon="9.2525237"><ele>91.0</ele><time>2026-04-29T09:05:10.531Z</time></trkpt><trkpt lat="33.456874" lon="9.2522753"><ele>90.66666666666666</ele><time>2026-04-29T09:05:11.521Z</time></trkpt><trkpt lat="33.4568911" lon="9.2520266"><ele>90.33333333333333</ele><time>2026-04-29T09:05:12.523Z</time></trkpt><trkpt lat="33.4569064" lon="9.2517798"><ele>90.0</ele><time>2026-04-29T09:05:13.532Z</time></trkpt><trkpt lat="33.4569209" lon="9.2515299"><ele>89.0</ele><time>2026-04-29T09:05:14.533Z</time></trkpt><trkpt lat="33.4569371" lon="9.2512786"><ele>88.0</ele><time>2026-04-29T09:05:15.523Z</time></trkpt><trkpt lat="33.4569612" lon="9.2510299"><ele>87.0</ele><time>2026-04-29T09:05:16.522Z</time></trkpt><trkpt lat="33.4569783" lon="9.2507806"><ele>87.0</ele><time>2026-04-29T09:05:17.523Z</time></trkpt><trkpt lat="33.4569936" lon="9.2505337"><ele>87.0</ele><time>2026-04-29T09:05:18.524Z</time></trkpt><trkpt lat="33.457009" lon="9.2502832"><ele>87.0</ele><time>2026-04-29T09:05:19.515Z</time></trkpt><trkpt lat="33.4570274" lon="9.2500316"><ele>87.66666666666667</ele><time>2026-04-29T09:05:20.53Z</time></trkpt><trkpt lat="33.4570415" lon="9.2497848"><ele>88.33333333333334</ele><time>2026-04-29T09:05:21.53Z</time></trkpt><trkpt lat="33.4570575" lon="9.2495295"><ele>89.0</ele><time>2026-04-29T09:05:22.535Z</time></trkpt><trkpt lat="33.4570693" lon="9.2492808"><ele>89.0</ele><time>2026-04-29T09:05:23.526Z</time></trkpt><trkpt lat="33.4570831" lon="9.2490302"><ele>89.0</ele><time>2026-04-29T09:05:24.526Z</time></trkpt><trkpt lat="33.4570975" lon="9.2487821"><ele>89.0</ele><time>2026-04-29T09:05:25.525Z</time></trkpt><trkpt lat="33.4571127" lon="9.2485269"><ele>89.0</ele><time>2026-04-29T09:05:26.518Z</time></trkpt><trkpt lat="33.4571299" lon="9.2482764"><ele>89.0</ele><time>2026-04-29T09:05:27.521Z</time></trkpt><trkpt lat="33.4571469" lon="9.2480269"><ele>89.0</ele><time>2026-04-29T09:05:28.517Z</time></trkpt><trkpt lat="33.4571692" lon="9.2477751"><ele>89.0</ele><time>2026-04-29T09:05:29.531Z</time></trkpt><trkpt lat="33.4571941" lon="9.247527"><ele>89.0</ele><time>2026-04-29T09:05:30.533Z</time></trkpt><trkpt lat="33.4572145" lon="9.2472782"><ele>89.0</ele><time>2026-04-29T09:05:31.531Z</time></trkpt><trkpt lat="33.4572337" lon="9.2470302"><ele>88.66666666666667</ele><time>2026-04-29T09:05:32.531Z</time></trkpt><trkpt lat="33.4572556" lon="9.2467779"><ele>88.33333333333333</ele><time>2026-04-29T09:05:33.536Z</time></trkpt><trkpt lat="33.4572763" lon="9.2465298"><ele>88.0</ele><time>2026-04-29T09:05:34.526Z</time></trkpt><trkpt lat="33.4572943" lon="9.2462844"><ele>88.0</ele><time>2026-04-29T09:05:35.527Z</time></trkpt><trkpt lat="33.457312" lon="9.2460326"><ele>88.0</ele><time>2026-04-29T09:05:36.539Z</time></trkpt><trkpt lat="33.4573286" lon="9.2457836"><ele>88.0</ele><time>2026-04-29T09:05:37.52Z</time></trkpt><trkpt lat="33.4573477" lon="9.245532"><ele>88.33333333333333</ele><time>2026-04-29T09:05:38.53Z</time></trkpt><trkpt lat="33.4573632" lon="9.2452857"><ele>88.66666666666667</ele><time>2026-04-29T09:05:39.529Z</time></trkpt><trkpt lat="33.4573806" lon="9.2450332"><ele>89.0</ele><time>2026-04-29T09:05:40.534Z</time></trkpt><trkpt lat="33.457397" lon="9.244782"><ele>88.33333333333334</ele><time>2026-04-29T09:05:41.522Z</time></trkpt><trkpt lat="33.4574128" lon="9.2445316"><ele>87.66666666666667</ele><time>2026-04-29T09:05:42.524Z</time></trkpt><trkpt lat="33.4574278" lon="9.2442837"><ele>87.0</ele><time>2026-04-29T09:05:43.521Z</time></trkpt><trkpt lat="33.4574436" lon="9.2440328"><ele>87.0</ele><time>2026-04-29T09:05:44.519Z</time></trkpt><trkpt lat="33.4574572" lon="9.2437819"><ele>87.0</ele><time>2026-04-29T09:05:45.523Z</time></trkpt><trkpt lat="33.4574686" lon="9.2435337"><ele>87.0</ele><time>2026-04-29T09:05:46.52Z</time></trkpt><trkpt lat="33.457481" lon="9.2432868"><ele>87.33333333333333</ele><time>2026-04-29T09:05:47.516Z</time></trkpt><trkpt lat="33.4574946" lon="9.2430365"><ele>87.66666666666666</ele><time>2026-04-29T09:05:48.533Z</time></trkpt><trkpt lat="33.4575043" lon="9.2427908"><ele>88.0</ele><time>2026-04-29T09:05:49.518Z</time></trkpt><trkpt lat="33.4575191" lon="9.2425409"><ele>88.66666666666666</ele><time>2026-04-29T09:05:50.527Z</time></trkpt><trkpt lat="33.4575332" lon="9.2422919"><ele>89.33333333333333</ele><time>2026-04-29T09:05:51.522Z</time></trkpt><trkpt lat="33.4575512" lon="9.2420391"><ele>90.0</ele><time>2026-04-29T09:05:52.521Z</time></trkpt><trkpt lat="33.4575712" lon="9.2417916"><ele>90.0</ele><time>2026-04-29T09:05:53.519Z</time></trkpt><trkpt lat="33.4575908" lon="9.241542"><ele>90.0</ele><time>2026-04-29T09:05:54.518Z</time></trkpt><trkpt lat="33.4576101" lon="9.2412904"><ele>90.0</ele><time>2026-04-29T09:05:55.523Z</time></trkpt><trkpt lat="33.457628" lon="9.2410405"><ele>89.33333333333333</ele><time>2026-04-29T09:05:56.516Z</time></trkpt><trkpt lat="33.4576421" lon="9.2407888"><ele>88.66666666666666</ele><time>2026-04-29T09:05:57.522Z</time></trkpt><trkpt lat="33.4576562" lon="9.2405397"><ele>88.0</ele><time>2026-04-29T09:05:58.529Z</time></trkpt><trkpt lat="33.4576737" lon="9.2402883"><ele>88.0</ele><time>2026-04-29T09:05:59.528Z</time></trkpt><trkpt lat="33.4577036" lon="9.2400437"><ele>88.0</ele><time>2026-04-29T09:06:00.526Z</time></trkpt><trkpt lat="33.4577312" lon="9.2397987"><ele>88.0</ele><time>2026-04-29T09:06:01.526Z</time></trkpt><trkpt lat="33.4577493" lon="9.2395447"><ele>87.66666666666666</ele><time>2026-04-29T09:06:02.525Z</time></trkpt><trkpt lat="33.4577476" lon="9.2392891"><ele>87.33333333333333</ele><time>2026-04-29T09:06:03.528Z</time></trkpt><trkpt lat="33.4577515" lon="9.2390423"><ele>87.0</ele><time>2026-04-29T09:06:04.526Z</time></trkpt><trkpt lat="33.457758" lon="9.23879"><ele>87.0</ele><time>2026-04-29T09:06:05.526Z</time></trkpt><trkpt lat="33.4577841" lon="9.2385374"><ele>87.0</ele><time>2026-04-29T09:06:06.516Z</time></trkpt><trkpt lat="33.4578174" lon="9.2382746"><ele>87.0</ele><time>2026-04-29T09:06:07.534Z</time></trkpt><trkpt lat="33.4578233" lon="9.2380089"><ele>87.0</ele><time>2026-04-29T09:06:08.523Z</time></trkpt><trkpt lat="33.4578422" lon="9.2377383"><ele>87.0</ele><time>2026-04-29T09:06:09.534Z</time></trkpt><trkpt lat="33.4578781" lon="9.237458"><ele>87.5</ele><time>2026-04-29T09:06:10.524Z</time></trkpt><trkpt lat="33.4579102" lon="9.2371723"><ele>88.0</ele><time>2026-04-29T09:06:11.533Z</time></trkpt><trkpt lat="33.4579209" lon="9.2368865"><ele>88.0</ele><time>2026-04-29T09:06:12.533Z</time></trkpt><trkpt lat="33.4579283" lon="9.2365908"><ele>88.0</ele><time>2026-04-29T09:06:13.53Z</time></trkpt><trkpt lat="33.4579499" lon="9.2362992"><ele>86.5</ele><time>2026-04-29T09:06:14.514Z</time></trkpt><trkpt lat="33.4579849" lon="9.236005"><ele>85.0</ele><time>2026-04-29T09:06:15.517Z</time></trkpt><trkpt lat="33.4580045" lon="9.2357151"><ele>86.0</ele><time>2026-04-29T09:06:16.526Z</time></trkpt><trkpt lat="33.458013" lon="9.2354144"><ele>87.0</ele><time>2026-04-29T09:06:17.526Z</time></trkpt><trkpt lat="33.4580251" lon="9.2351193"><ele>87.0</ele><time>2026-04-29T09:06:18.525Z</time></trkpt><trkpt lat="33.4580491" lon="9.2348316"><ele>87.0</ele><time>2026-04-29T09:06:19.526Z</time></trkpt><trkpt lat="33.4580843" lon="9.2345453"><ele>87.0</ele><time>2026-04-29T09:06:20.514Z</time></trkpt><trkpt lat="33.4581065" lon="9.2342549"><ele>87.0</ele><time>2026-04-29T09:06:21.522Z</time></trkpt><trkpt lat="33.4581171" lon="9.2339593"><ele>85.5</ele><time>2026-04-29T09:06:22.52Z</time></trkpt><trkpt lat="33.4581227" lon="9.23366"><ele>84.0</ele><time>2026-04-29T09:06:23.527Z</time></trkpt><trkpt lat="33.4581436" lon="9.2333627"><ele>85.0</ele><time>2026-04-29T09:06:24.517Z</time></trkpt><trkpt lat="33.4581828" lon="9.2330637"><ele>86.0</ele><time>2026-04-29T09:06:25.531Z</time></trkpt><trkpt lat="33.4582153" lon="9.2327681"><ele>86.0</ele><time>2026-04-29T09:06:26.531Z</time></trkpt><trkpt lat="33.458226" lon="9.2324709"><ele>86.0</ele><time>2026-04-29T09:06:27.524Z</time></trkpt><trkpt lat="33.4582285" lon="9.2321727"><ele>87.0</ele><time>2026-04-29T09:06:28.534Z</time></trkpt><trkpt lat="33.4582409" lon="9.2318744"><ele>88.0</ele><time>2026-04-29T09:06:29.528Z</time></trkpt><trkpt lat="33.4582692" lon="9.2315795"><ele>88.0</ele><time>2026-04-29T09:06:30.536Z</time></trkpt><trkpt lat="33.4582984" lon="9.2312789"><ele>88.0</ele><time>2026-04-29T09:06:31.545Z</time></trkpt><trkpt lat="33.4583235" lon="9.2309781"><ele>88.0</ele><time>2026-04-29T09:06:32.524Z</time></trkpt><trkpt lat="33.4583452" lon="9.2306832"><ele>88.0</ele><time>2026-04-29T09:06:33.525Z</time></trkpt><trkpt lat="33.4583643" lon="9.2303964"><ele>87.0</ele><time>2026-04-29T09:06:34.524Z</time></trkpt><trkpt lat="33.4583853" lon="9.2301115"><ele>86.0</ele><time>2026-04-29T09:06:35.528Z</time></trkpt><trkpt lat="33.4584069" lon="9.2298283"><ele>86.0</ele><time>2026-04-29T09:06:36.521Z</time></trkpt><trkpt lat="33.4584255" lon="9.2295462"><ele>86.0</ele><time>2026-04-29T09:06:37.533Z</time></trkpt><trkpt lat="33.4584428" lon="9.2292689"><ele>86.0</ele><time>2026-04-29T09:06:38.524Z</time></trkpt><trkpt lat="33.4584593" lon="9.2289935"><ele>86.0</ele><time>2026-04-29T09:06:39.528Z</time></trkpt><trkpt lat="33.4584774" lon="9.2287147"><ele>86.0</ele><time>2026-04-29T09:06:40.535Z</time></trkpt><trkpt lat="33.4584985" lon="9.2284373"><ele>86.0</ele><time>2026-04-29T09:06:41.523Z</time></trkpt><trkpt lat="33.4585223" lon="9.2281564"><ele>86.5</ele><time>2026-04-29T09:06:42.529Z</time></trkpt><trkpt lat="33.4585427" lon="9.2278768"><ele>87.0</ele><time>2026-04-29T09:06:43.512Z</time></trkpt><trkpt lat="33.4585598" lon="9.2275947"><ele>88.0</ele><time>2026-04-29T09:06:44.524Z</time></trkpt><trkpt lat="33.4585761" lon="9.2273106"><ele>89.0</ele><time>2026-04-29T09:06:45.522Z</time></trkpt><trkpt lat="33.4585955" lon="9.2270263"><ele>89.0</ele><time>2026-04-29T09:06:46.529Z</time></trkpt><trkpt lat="33.4586168" lon="9.2267398"><ele>89.0</ele><time>2026-04-29T09:06:47.527Z</time></trkpt><trkpt lat="33.4586379" lon="9.2264552"><ele>88.5</ele><time>2026-04-29T09:06:48.527Z</time></trkpt><trkpt lat="33.4586588" lon="9.2261711"><ele>88.0</ele><time>2026-04-29T09:06:49.523Z</time></trkpt><trkpt lat="33.4586786" lon="9.2258842"><ele>87.5</ele><time>2026-04-29T09:06:50.513Z</time></trkpt><trkpt lat="33.4586975" lon="9.2255979"><ele>87.0</ele><time>2026-04-29T09:06:51.527Z</time></trkpt><trkpt lat="33.4587162" lon="9.22531"><ele>87.0</ele><time>2026-04-29T09:06:52.511Z</time></trkpt><trkpt lat="33.4587308" lon="9.2250179"><ele>87.0</ele><time>2026-04-29T09:06:53.521Z</time></trkpt><trkpt lat="33.4587453" lon="9.2247252"><ele>87.0</ele><time>2026-04-29T09:06:54.523Z</time></trkpt><trkpt lat="33.4587648" lon="9.224431"><ele>87.0</ele><time>2026-04-29T09:06:55.525Z</time></trkpt><trkpt lat="33.4587826" lon="9.2241378"><ele>87.0</ele><time>2026-04-29T09:06:56.514Z</time></trkpt><trkpt lat="33.4588043" lon="9.2238404"><ele>87.0</ele><time>2026-04-29T09:06:57.518Z</time></trkpt><trkpt lat="33.4588224" lon="9.2235398"><ele>87.0</ele><time>2026-04-29T09:06:58.526Z</time></trkpt><trkpt lat="33.4588447" lon="9.2232289"><ele>87.0</ele><time>2026-04-29T09:06:59.526Z</time></trkpt><trkpt lat="33.4588638" lon="9.2229188"><ele>87.5</ele><time>2026-04-29T09:07:00.529Z</time></trkpt><trkpt lat="33.4588851" lon="9.2226072"><ele>88.0</ele><time>2026-04-29T09:07:01.542Z</time></trkpt><trkpt lat="33.4589071" lon="9.2222999"><ele>88.5</ele><time>2026-04-29T09:07:02.52Z</time></trkpt><trkpt lat="33.4589259" lon="9.2219943"><ele>89.0</ele><time>2026-04-29T09:07:03.523Z</time></trkpt><trkpt lat="33.458951" lon="9.2216921"><ele>89.5</ele><time>2026-04-29T09:07:04.524Z</time></trkpt><trkpt lat="33.4589755" lon="9.2213956"><ele>90.0</ele><time>2026-04-29T09:07:05.531Z</time></trkpt><trkpt lat="33.4589996" lon="9.221097"><ele>90.0</ele><time>2026-04-29T09:07:06.529Z</time></trkpt><trkpt lat="33.4590233" lon="9.2208018"><ele>90.0</ele><time>2026-04-29T09:07:07.518Z</time></trkpt><trkpt lat="33.4590488" lon="9.220512"><ele>90.5</ele><time>2026-04-29T09:07:08.527Z</time></trkpt><trkpt lat="33.4590667" lon="9.2202217"><ele>91.0</ele><time>2026-04-29T09:07:09.528Z</time></trkpt><trkpt lat="33.4590879" lon="9.2199311"><ele>90.0</ele><time>2026-04-29T09:07:10.522Z</time></trkpt><trkpt lat="33.4591052" lon="9.219647"><ele>89.0</ele><time>2026-04-29T09:07:11.532Z</time></trkpt><trkpt lat="33.4591228" lon="9.2193654"><ele>89.0</ele><time>2026-04-29T09:07:12.529Z</time></trkpt><trkpt lat="33.4591369" lon="9.2190839"><ele>89.0</ele><time>2026-04-29T09:07:13.527Z</time></trkpt><trkpt lat="33.4591558" lon="9.2188018"><ele>88.0</ele><time>2026-04-29T09:07:14.529Z</time></trkpt><trkpt lat="33.459175" lon="9.2185215"><ele>87.0</ele><time>2026-04-29T09:07:15.523Z</time></trkpt><trkpt lat="33.4591963" lon="9.2182402"><ele>86.5</ele><time>2026-04-29T09:07:16.531Z</time></trkpt><trkpt lat="33.4592115" lon="9.2179578"><ele>86.0</ele><time>2026-04-29T09:07:17.525Z</time></trkpt><trkpt lat="33.4592328" lon="9.2176684"><ele>86.0</ele><time>2026-04-29T09:07:18.528Z</time></trkpt><trkpt lat="33.4592531" lon="9.2173829"><ele>86.0</ele><time>2026-04-29T09:07:19.526Z</time></trkpt><trkpt lat="33.4592693" lon="9.2171003"><ele>86.0</ele><time>2026-04-29T09:07:20.53Z</time></trkpt><trkpt lat="33.4592778" lon="9.2168205"><ele>86.0</ele><time>2026-04-29T09:07:21.527Z</time></trkpt><trkpt lat="33.4592881" lon="9.2165358"><ele>86.5</ele><time>2026-04-29T09:07:22.513Z</time></trkpt><trkpt lat="33.4593032" lon="9.2162537"><ele>87.0</ele><time>2026-04-29T09:07:23.52Z</time></trkpt><trkpt lat="33.4593295" lon="9.2159711"><ele>87.0</ele><time>2026-04-29T09:07:24.515Z</time></trkpt><trkpt lat="33.4593614" lon="9.2156908"><ele>87.0</ele><time>2026-04-29T09:07:25.526Z</time></trkpt><trkpt lat="33.4593901" lon="9.2154104"><ele>87.5</ele><time>2026-04-29T09:07:26.524Z</time></trkpt><trkpt lat="33.4594109" lon="9.2151259"><ele>88.0</ele><time>2026-04-29T09:07:27.524Z</time></trkpt><trkpt lat="33.4594244" lon="9.2148457"><ele>87.5</ele><time>2026-04-29T09:07:28.529Z</time></trkpt><trkpt lat="33.4594423" lon="9.2145613"><ele>87.0</ele><time>2026-04-29T09:07:29.524Z</time></trkpt><trkpt lat="33.4594641" lon="9.2142821"><ele>87.0</ele><time>2026-04-29T09:07:30.528Z</time></trkpt><trkpt lat="33.4594929" lon="9.2139954"><ele>87.0</ele><time>2026-04-29T09:07:31.525Z</time></trkpt><trkpt lat="33.4595191" lon="9.2137104"><ele>87.0</ele><time>2026-04-29T09:07:32.519Z</time></trkpt><trkpt lat="33.4595383" lon="9.2134221"><ele>87.0</ele><time>2026-04-29T09:07:33.529Z</time></trkpt><trkpt lat="33.4595566" lon="9.2131362"><ele>87.0</ele><time>2026-04-29T09:07:34.531Z</time></trkpt><trkpt lat="33.4595718" lon="9.2128545"><ele>87.0</ele><time>2026-04-29T09:07:35.517Z</time></trkpt><trkpt lat="33.4595896" lon="9.2125723"><ele>87.5</ele><time>2026-04-29T09:07:36.525Z</time></trkpt><trkpt lat="33.4596103" lon="9.2122865"><ele>88.0</ele><time>2026-04-29T09:07:37.529Z</time></trkpt><trkpt lat="33.459632" lon="9.2120024"><ele>88.0</ele><time>2026-04-29T09:07:38.525Z</time></trkpt><trkpt lat="33.4596492" lon="9.2117221"><ele>88.0</ele><time>2026-04-29T09:07:39.523Z</time></trkpt><trkpt lat="33.4596709" lon="9.2114392"><ele>87.5</ele><time>2026-04-29T09:07:40.53Z</time></trkpt><trkpt lat="33.4596842" lon="9.2111576"><ele>87.0</ele><time>2026-04-29T09:07:41.53Z</time></trkpt><trkpt lat="33.4597011" lon="9.2108788"><ele>87.0</ele><time>2026-04-29T09:07:42.521Z</time></trkpt><trkpt lat="33.4597177" lon="9.2106009"><ele>87.0</ele><time>2026-04-29T09:07:43.524Z</time></trkpt><trkpt lat="33.4597391" lon="9.2103265"><ele>87.0</ele><time>2026-04-29T09:07:44.531Z</time></trkpt><trkpt lat="33.4597618" lon="9.2100539"><ele>87.0</ele><time>2026-04-29T09:07:45.522Z</time></trkpt><trkpt lat="33.459779" lon="9.209781"><ele>90.0</ele><time>2026-04-29T09:07:46.507Z</time></trkpt><trkpt lat="33.4597973" lon="9.2095048"><ele>93.0</ele><time>2026-04-29T09:07:47.515Z</time></trkpt><trkpt lat="33.4598205" lon="9.2092258"><ele>91.5</ele><time>2026-04-29T09:07:48.509Z</time></trkpt><trkpt lat="33.4598421" lon="9.2089488"><ele>90.0</ele><time>2026-04-29T09:07:49.529Z</time></trkpt><trkpt lat="33.4598622" lon="9.2086685"><ele>90.0</ele><time>2026-04-29T09:07:50.526Z</time></trkpt><trkpt lat="33.4598802" lon="9.2083917"><ele>90.0</ele><time>2026-04-29T09:07:51.526Z</time></trkpt><trkpt lat="33.4599002" lon="9.2081126"><ele>89.0</ele><time>2026-04-29T09:07:52.527Z</time></trkpt><trkpt lat="33.4599182" lon="9.2078373"><ele>88.0</ele><time>2026-04-29T09:07:53.53Z</time></trkpt><trkpt lat="33.4599426" lon="9.2075578"><ele>89.0</ele><time>2026-04-29T09:07:54.527Z</time></trkpt><trkpt lat="33.4599664" lon="9.2072785"><ele>90.0</ele><time>2026-04-29T09:07:55.53Z</time></trkpt><trkpt lat="33.459984" lon="9.2070007"><ele>90.0</ele><time>2026-04-29T09:07:56.525Z</time></trkpt><trkpt lat="33.4599983" lon="9.206723"><ele>90.0</ele><time>2026-04-29T09:07:57.517Z</time></trkpt><trkpt lat="33.4600125" lon="9.2064449"><ele>89.33333333333333</ele><time>2026-04-29T09:07:58.53Z</time></trkpt><trkpt lat="33.4600315" lon="9.2061703"><ele>88.66666666666666</ele><time>2026-04-29T09:07:59.518Z</time></trkpt><trkpt lat="33.4600481" lon="9.2059095"><ele>88.0</ele><time>2026-04-29T09:08:00.528Z</time></trkpt><trkpt lat="33.4600662" lon="9.2056528"><ele>87.0</ele><time>2026-04-29T09:08:01.519Z</time></trkpt><trkpt lat="33.4600873" lon="9.2054039"><ele>86.0</ele><time>2026-04-29T09:08:02.524Z</time></trkpt><trkpt lat="33.4601037" lon="9.2051493"><ele>85.0</ele><time>2026-04-29T09:08:03.54Z</time></trkpt><trkpt lat="33.4601194" lon="9.2048852"><ele>85.66666666666666</ele><time>2026-04-29T09:08:04.527Z</time></trkpt><trkpt lat="33.4601349" lon="9.2046181"><ele>86.33333333333333</ele><time>2026-04-29T09:08:05.527Z</time></trkpt><trkpt lat="33.4601498" lon="9.2043494"><ele>87.0</ele><time>2026-04-29T09:08:06.535Z</time></trkpt><trkpt lat="33.4601633" lon="9.2040861"><ele>86.66666666666667</ele><time>2026-04-29T09:08:07.522Z</time></trkpt><trkpt lat="33.4601787" lon="9.2038219"><ele>86.33333333333334</ele><time>2026-04-29T09:08:08.52Z</time></trkpt><trkpt lat="33.4601913" lon="9.2035635"><ele>86.0</ele><time>2026-04-29T09:08:09.535Z</time></trkpt><trkpt lat="33.4602029" lon="9.2033013"><ele>86.33333333333334</ele><time>2026-04-29T09:08:10.525Z</time></trkpt><trkpt lat="33.460214" lon="9.2030444"><ele>86.66666666666667</ele><time>2026-04-29T09:08:11.534Z</time></trkpt><trkpt lat="33.4602245" lon="9.2027942"><ele>87.0</ele><time>2026-04-29T09:08:12.521Z</time></trkpt><trkpt lat="33.4602332" lon="9.2025427"><ele>86.66666666666667</ele><time>2026-04-29T09:08:13.524Z</time></trkpt><trkpt lat="33.4602428" lon="9.202289"><ele>86.33333333333334</ele><time>2026-04-29T09:08:14.524Z</time></trkpt><trkpt lat="33.4602492" lon="9.2020337"><ele>86.0</ele><time>2026-04-29T09:08:15.528Z</time></trkpt><trkpt lat="33.4602526" lon="9.2017822"><ele>86.0</ele><time>2026-04-29T09:08:16.52Z</time></trkpt><trkpt lat="33.4602617" lon="9.2015293"><ele>86.0</ele><time>2026-04-29T09:08:17.52Z</time></trkpt><trkpt lat="33.4602656" lon="9.2012782"><ele>86.0</ele><time>2026-04-29T09:08:18.517Z</time></trkpt><trkpt lat="33.4602741" lon="9.2010287"><ele>85.33333333333334</ele><time>2026-04-29T09:08:19.548Z</time></trkpt><trkpt lat="33.46028" lon="9.2007828"><ele>84.66666666666667</ele><time>2026-04-29T09:08:20.517Z</time></trkpt><trkpt lat="33.460286" lon="9.200533"><ele>84.0</ele><time>2026-04-29T09:08:21.516Z</time></trkpt><trkpt lat="33.4602874" lon="9.2002816"><ele>84.0</ele><time>2026-04-29T09:08:22.515Z</time></trkpt><trkpt lat="33.4602907" lon="9.2000304"><ele>84.0</ele><time>2026-04-29T09:08:23.522Z</time></trkpt><trkpt lat="33.4603013" lon="9.1997792"><ele>84.0</ele><time>2026-04-29T09:08:24.53Z</time></trkpt><trkpt lat="33.4603094" lon="9.1995246"><ele>84.33333333333333</ele><time>2026-04-29T09:08:25.546Z</time></trkpt><trkpt lat="33.4603184" lon="9.1992707"><ele>84.66666666666666</ele><time>2026-04-29T09:08:26.531Z</time></trkpt><trkpt lat="33.460325" lon="9.1990165"><ele>85.0</ele><time>2026-04-29T09:08:27.518Z</time></trkpt><trkpt lat="33.4603314" lon="9.1987662"><ele>85.33333333333333</ele><time>2026-04-29T09:08:28.527Z</time></trkpt><trkpt lat="33.4603346" lon="9.1985179"><ele>85.66666666666667</ele><time>2026-04-29T09:08:29.522Z</time></trkpt><trkpt lat="33.4603416" lon="9.1982657"><ele>86.0</ele><time>2026-04-29T09:08:30.527Z</time></trkpt><trkpt lat="33.4603459" lon="9.1980171"><ele>86.33333333333334</ele><time>2026-04-29T09:08:31.528Z</time></trkpt><trkpt lat="33.4603477" lon="9.1977666"><ele>86.66666666666667</ele><time>2026-04-29T09:08:32.522Z</time></trkpt><trkpt lat="33.4603553" lon="9.1975159"><ele>87.0</ele><time>2026-04-29T09:08:33.522Z</time></trkpt><trkpt lat="33.4603619" lon="9.1972662"><ele>87.0</ele><time>2026-04-29T09:08:34.524Z</time></trkpt><trkpt lat="33.4603675" lon="9.1970134"><ele>87.0</ele><time>2026-04-29T09:08:35.527Z</time></trkpt><trkpt lat="33.4603737" lon="9.1967638"><ele>87.0</ele><time>2026-04-29T09:08:36.524Z</time></trkpt><trkpt lat="33.4603743" lon="9.196515"><ele>88.0</ele><time>2026-04-29T09:08:37.52Z</time></trkpt><trkpt lat="33.4603796" lon="9.1962682"><ele>89.0</ele><time>2026-04-29T09:08:38.526Z</time></trkpt><trkpt lat="33.4603866" lon="9.1960181"><ele>90.0</ele><time>2026-04-29T09:08:39.52Z</time></trkpt><trkpt lat="33.4603942" lon="9.1957719"><ele>89.33333333333333</ele><time>2026-04-29T09:08:40.521Z</time></trkpt><trkpt lat="33.4604005" lon="9.1955234"><ele>88.66666666666666</ele><time>2026-04-29T09:08:41.517Z</time></trkpt><trkpt lat="33.4604056" lon="9.1952709"><ele>88.0</ele><time>2026-04-29T09:08:42.524Z</time></trkpt><trkpt lat="33.4604105" lon="9.1950237"><ele>89.66666666666666</ele><time>2026-04-29T09:08:43.53Z</time></trkpt><trkpt lat="33.4604226" lon="9.194775"><ele>91.33333333333333</ele><time>2026-04-29T09:08:44.527Z</time></trkpt><trkpt lat="33.4604331" lon="9.1945235"><ele>93.0</ele><time>2026-04-29T09:08:45.533Z</time></trkpt><trkpt lat="33.4604412" lon="9.1942756"><ele>93.0</ele><time>2026-04-29T09:08:46.523Z</time></trkpt><trkpt lat="33.4604487" lon="9.1940229"><ele>93.0</ele><time>2026-04-29T09:08:47.523Z</time></trkpt><trkpt lat="33.4604582" lon="9.1937741"><ele>93.0</ele><time>2026-04-29T09:08:48.524Z</time></trkpt><trkpt lat="33.4604634" lon="9.193527"><ele>91.66666666666667</ele><time>2026-04-29T09:08:49.527Z</time></trkpt><trkpt lat="33.4604684" lon="9.1932754"><ele>90.33333333333334</ele><time>2026-04-29T09:08:50.528Z</time></trkpt><trkpt lat="33.4604746" lon="9.1930321"><ele>89.0</ele><time>2026-04-29T09:08:51.524Z</time></trkpt><trkpt lat="33.460485" lon="9.1927847"><ele>88.33333333333334</ele><time>2026-04-29T09:08:52.537Z</time></trkpt><trkpt lat="33.4604929" lon="9.1925351"><ele>87.66666666666667</ele><time>2026-04-29T09:08:53.532Z</time></trkpt><trkpt lat="33.4605006" lon="9.1922842"><ele>87.0</ele><time>2026-04-29T09:08:54.534Z</time></trkpt><trkpt lat="33.460509" lon="9.192034"><ele>87.0</ele><time>2026-04-29T09:08:55.527Z</time></trkpt><trkpt lat="33.4605137" lon="9.1917787"><ele>87.0</ele><time>2026-04-29T09:08:56.526Z</time></trkpt><trkpt lat="33.4605146" lon="9.1915275"><ele>87.0</ele><time>2026-04-29T09:08:57.525Z</time></trkpt><trkpt lat="33.4605184" lon="9.1912784"><ele>86.33333333333333</ele><time>2026-04-29T09:08:58.518Z</time></trkpt><trkpt lat="33.460522" lon="9.1910316"><ele>85.66666666666666</ele><time>2026-04-29T09:08:59.52Z</time></trkpt><trkpt lat="33.4605285" lon="9.1907821"><ele>85.0</ele><time>2026-04-29T09:09:00.525Z</time></trkpt><trkpt lat="33.4605348" lon="9.1905284"><ele>85.0</ele><time>2026-04-29T09:09:01.528Z</time></trkpt><trkpt lat="33.4605466" lon="9.1902799"><ele>85.0</ele><time>2026-04-29T09:09:02.517Z</time></trkpt><trkpt lat="33.4605556" lon="9.1900346"><ele>85.0</ele><time>2026-04-29T09:09:03.526Z</time></trkpt><trkpt lat="33.4605622" lon="9.1897835"><ele>85.66666666666666</ele><time>2026-04-29T09:09:04.515Z</time></trkpt><trkpt lat="33.4605664" lon="9.1895287"><ele>86.33333333333333</ele><time>2026-04-29T09:09:05.52Z</time></trkpt><trkpt lat="33.4605718" lon="9.1892756"><ele>87.0</ele><time>2026-04-29T09:09:06.526Z</time></trkpt><trkpt lat="33.4605815" lon="9.1890206"><ele>86.33333333333333</ele><time>2026-04-29T09:09:07.523Z</time></trkpt><trkpt lat="33.4605911" lon="9.1887728"><ele>85.66666666666666</ele><time>2026-04-29T09:09:08.521Z</time></trkpt><trkpt lat="33.460597" lon="9.188528"><ele>85.0</ele><time>2026-04-29T09:09:09.525Z</time></trkpt><trkpt lat="33.4606042" lon="9.1882827"><ele>86.66666666666666</ele><time>2026-04-29T09:09:10.525Z</time></trkpt><trkpt lat="33.4606146" lon="9.1880337"><ele>88.33333333333333</ele><time>2026-04-29T09:09:11.526Z</time></trkpt><trkpt lat="33.4606277" lon="9.1877818"><ele>90.0</ele><time>2026-04-29T09:09:12.523Z</time></trkpt><trkpt lat="33.4606334" lon="9.1875328"><ele>89.33333333333333</ele><time>2026-04-29T09:09:13.523Z</time></trkpt><trkpt lat="33.4606422" lon="9.1872803"><ele>88.66666666666666</ele><time>2026-04-29T09:09:14.527Z</time></trkpt><trkpt lat="33.4606496" lon="9.1870278"><ele>88.0</ele><time>2026-04-29T09:09:15.521Z</time></trkpt><trkpt lat="33.4606548" lon="9.1867777"><ele>88.0</ele><time>2026-04-29T09:09:16.526Z</time></trkpt><trkpt lat="33.4606614" lon="9.1865251"><ele>88.0</ele><time>2026-04-29T09:09:17.528Z</time></trkpt><trkpt lat="33.460673" lon="9.1862779"><ele>88.0</ele><time>2026-04-29T09:09:18.526Z</time></trkpt><trkpt lat="33.4606845" lon="9.1860268"><ele>87.66666666666666</ele><time>2026-04-29T09:09:19.527Z</time></trkpt><trkpt lat="33.4606905" lon="9.1857742"><ele>87.33333333333333</ele><time>2026-04-29T09:09:20.528Z</time></trkpt><trkpt lat="33.4606922" lon="9.185528"><ele>87.0</ele><time>2026-04-29T09:09:21.528Z</time></trkpt><trkpt lat="33.4606983" lon="9.1852766"><ele>87.0</ele><time>2026-04-29T09:09:22.517Z</time></trkpt><trkpt lat="33.4607036" lon="9.1850254"><ele>87.0</ele><time>2026-04-29T09:09:23.512Z</time></trkpt><trkpt lat="33.4607118" lon="9.1847752"><ele>87.0</ele><time>2026-04-29T09:09:24.526Z</time></trkpt><trkpt lat="33.46072" lon="9.1845219"><ele>87.0</ele><time>2026-04-29T09:09:25.525Z</time></trkpt><trkpt lat="33.4607262" lon="9.1842717"><ele>87.0</ele><time>2026-04-29T09:09:26.523Z</time></trkpt><trkpt lat="33.4607348" lon="9.1840234"><ele>87.0</ele><time>2026-04-29T09:09:27.522Z</time></trkpt><trkpt lat="33.4607435" lon="9.1837731"><ele>87.0</ele><time>2026-04-29T09:09:28.525Z</time></trkpt><trkpt lat="33.4607522" lon="9.1835237"><ele>87.0</ele><time>2026-04-29T09:09:29.521Z</time></trkpt><trkpt lat="33.4607588" lon="9.1832735"><ele>87.0</ele><time>2026-04-29T09:09:30.527Z</time></trkpt><trkpt lat="33.460764" lon="9.1830258"><ele>87.66666666666667</ele><time>2026-04-29T09:09:31.531Z</time></trkpt><trkpt lat="33.4607672" lon="9.1827756"><ele>88.33333333333334</ele><time>2026-04-29T09:09:32.524Z</time></trkpt><trkpt lat="33.4607769" lon="9.1825183"><ele>89.0</ele><time>2026-04-29T09:09:33.53Z</time></trkpt><trkpt lat="33.4607893" lon="9.182269"><ele>89.0</ele><time>2026-04-29T09:09:34.527Z</time></trkpt><trkpt lat="33.4608021" lon="9.1820166"><ele>89.0</ele><time>2026-04-29T09:09:35.522Z</time></trkpt><trkpt lat="33.4608075" lon="9.1817639"><ele>89.0</ele><time>2026-04-29T09:09:36.52Z</time></trkpt><trkpt lat="33.4608138" lon="9.1815117"><ele>88.33333333333334</ele><time>2026-04-29T09:09:37.522Z</time></trkpt><trkpt lat="33.4608172" lon="9.1812643"><ele>87.66666666666667</ele><time>2026-04-29T09:09:38.528Z</time></trkpt><trkpt lat="33.4608248" lon="9.1810119"><ele>87.0</ele><time>2026-04-29T09:09:39.528Z</time></trkpt><trkpt lat="33.4608365" lon="9.1807613"><ele>88.33333333333333</ele><time>2026-04-29T09:09:40.522Z</time></trkpt><trkpt lat="33.4608451" lon="9.1805148"><ele>89.66666666666666</ele><time>2026-04-29T09:09:41.527Z</time></trkpt><trkpt lat="33.4608537" lon="9.1802642"><ele>91.0</ele><time>2026-04-29T09:09:42.528Z</time></trkpt><trkpt lat="33.4608614" lon="9.1800153"><ele>91.0</ele><time>2026-04-29T09:09:43.541Z</time></trkpt><trkpt lat="33.4608707" lon="9.1797682"><ele>91.0</ele><time>2026-04-29T09:09:44.533Z</time></trkpt><trkpt lat="33.460878" lon="9.1795181"><ele>91.0</ele><time>2026-04-29T09:09:45.519Z</time></trkpt><trkpt lat="33.4608869" lon="9.1792666"><ele>90.0</ele><time>2026-04-29T09:09:46.534Z</time></trkpt><trkpt lat="33.4608929" lon="9.1790143"><ele>89.0</ele><time>2026-04-29T09:09:47.52Z</time></trkpt><trkpt lat="33.4609011" lon="9.1787625"><ele>88.0</ele><time>2026-04-29T09:09:48.524Z</time></trkpt><trkpt lat="33.4609067" lon="9.1785104"><ele>88.0</ele><time>2026-04-29T09:09:49.519Z</time></trkpt><trkpt lat="33.4609107" lon="9.1782579"><ele>88.0</ele><time>2026-04-29T09:09:50.527Z</time></trkpt><trkpt lat="33.4609174" lon="9.1780096"><ele>88.0</ele><time>2026-04-29T09:09:51.526Z</time></trkpt><trkpt lat="33.4609253" lon="9.1777629"><ele>87.66666666666666</ele><time>2026-04-29T09:09:52.523Z</time></trkpt><trkpt lat="33.4609292" lon="9.1775118"><ele>87.33333333333333</ele><time>2026-04-29T09:09:53.521Z</time></trkpt><trkpt lat="33.4609394" lon="9.1772654"><ele>87.0</ele><time>2026-04-29T09:09:54.527Z</time></trkpt><trkpt lat="33.460944" lon="9.1770206"><ele>88.0</ele><time>2026-04-29T09:09:55.522Z</time></trkpt><trkpt lat="33.4609565" lon="9.1767767"><ele>89.0</ele><time>2026-04-29T09:09:56.521Z</time></trkpt><trkpt lat="33.4609629" lon="9.1765269"><ele>90.0</ele><time>2026-04-29T09:09:57.521Z</time></trkpt><trkpt lat="33.4609702" lon="9.1762768"><ele>90.0</ele><time>2026-04-29T09:09:58.527Z</time></trkpt><trkpt lat="33.4609777" lon="9.1760249"><ele>90.0</ele><time>2026-04-29T09:09:59.529Z</time></trkpt><trkpt lat="33.4609825" lon="9.1757758"><ele>90.0</ele><time>2026-04-29T09:10:00.531Z</time></trkpt><trkpt lat="33.460991" lon="9.1755203"><ele>90.33333333333333</ele><time>2026-04-29T09:10:01.521Z</time></trkpt><trkpt lat="33.4609919" lon="9.1752682"><ele>90.66666666666666</ele><time>2026-04-29T09:10:02.516Z</time></trkpt><trkpt lat="33.4609937" lon="9.1750156"><ele>91.0</ele><time>2026-04-29T09:10:03.523Z</time></trkpt><trkpt lat="33.460997" lon="9.1747678"><ele>90.0</ele><time>2026-04-29T09:10:04.531Z</time></trkpt><trkpt lat="33.4610063" lon="9.1745164"><ele>89.0</ele><time>2026-04-29T09:10:05.519Z</time></trkpt><trkpt lat="33.4610129" lon="9.1742666"><ele>88.0</ele><time>2026-04-29T09:10:06.531Z</time></trkpt><trkpt lat="33.4610231" lon="9.1740141"><ele>87.33333333333333</ele><time>2026-04-29T09:10:07.524Z</time></trkpt><trkpt lat="33.4610333" lon="9.1737674"><ele>86.66666666666667</ele><time>2026-04-29T09:10:08.524Z</time></trkpt><trkpt lat="33.4610416" lon="9.1735148"><ele>86.0</ele><time>2026-04-29T09:10:09.526Z</time></trkpt><trkpt lat="33.4610474" lon="9.1732583"><ele>85.66666666666667</ele><time>2026-04-29T09:10:10.533Z</time></trkpt><trkpt lat="33.4610561" lon="9.1730042"><ele>85.33333333333333</ele><time>2026-04-29T09:10:11.521Z</time></trkpt><trkpt lat="33.4610633" lon="9.1727525"><ele>85.0</ele><time>2026-04-29T09:10:12.526Z</time></trkpt><trkpt lat="33.4610663" lon="9.1725012"><ele>84.66666666666666</ele><time>2026-04-29T09:10:13.517Z</time></trkpt><trkpt lat="33.4610733" lon="9.1722504"><ele>84.33333333333333</ele><time>2026-04-29T09:10:14.525Z</time></trkpt><trkpt lat="33.4610769" lon="9.1720041"><ele>84.0</ele><time>2026-04-29T09:10:15.525Z</time></trkpt><trkpt lat="33.4610854" lon="9.1717551"><ele>85.0</ele><time>2026-04-29T09:10:16.532Z</time></trkpt><trkpt lat="33.4610927" lon="9.1715036"><ele>86.0</ele><time>2026-04-29T09:10:17.518Z</time></trkpt><trkpt lat="33.4610963" lon="9.1712518"><ele>87.0</ele><time>2026-04-29T09:10:18.519Z</time></trkpt><trkpt lat="33.461101" lon="9.1710011"><ele>87.0</ele><time>2026-04-29T09:10:19.518Z</time></trkpt><trkpt lat="33.4611071" lon="9.1707444"><ele>87.0</ele><time>2026-04-29T09:10:20.518Z</time></trkpt><trkpt lat="33.4611104" lon="9.1704945"><ele>87.0</ele><time>2026-04-29T09:10:21.567Z</time></trkpt><trkpt lat="33.4611177" lon="9.1702468"><ele>86.33333333333333</ele><time>2026-04-29T09:10:22.52Z</time></trkpt><trkpt lat="33.4611238" lon="9.1700002"><ele>85.66666666666666</ele><time>2026-04-29T09:10:23.529Z</time></trkpt><trkpt lat="33.4611351" lon="9.1697513"><ele>85.0</ele><time>2026-04-29T09:10:24.518Z</time></trkpt><trkpt lat="33.4611438" lon="9.169502"><ele>85.0</ele><time>2026-04-29T09:10:25.507Z</time></trkpt><trkpt lat="33.4611539" lon="9.1692554"><ele>85.0</ele><time>2026-04-29T09:10:26.537Z</time></trkpt><trkpt lat="33.4611601" lon="9.1690046"><ele>85.0</ele><time>2026-04-29T09:10:27.559Z</time></trkpt><trkpt lat="33.461166" lon="9.1687562"><ele>85.0</ele><time>2026-04-29T09:10:28.536Z</time></trkpt><trkpt lat="33.4611691" lon="9.1685126"><ele>85.0</ele><time>2026-04-29T09:10:29.539Z</time></trkpt><trkpt lat="33.4611728" lon="9.1682609"><ele>85.0</ele><time>2026-04-29T09:10:30.527Z</time></trkpt><trkpt lat="33.4611776" lon="9.1680125"><ele>84.66666666666666</ele><time>2026-04-29T09:10:31.526Z</time></trkpt><trkpt lat="33.4611814" lon="9.1677664"><ele>84.33333333333333</ele><time>2026-04-29T09:10:32.513Z</time></trkpt><trkpt lat="33.4611854" lon="9.1675177"><ele>84.0</ele><time>2026-04-29T09:10:33.528Z</time></trkpt><trkpt lat="33.4611971" lon="9.1672623"><ele>85.66666666666667</ele><time>2026-04-29T09:10:34.522Z</time></trkpt><trkpt lat="33.4612066" lon="9.1670151"><ele>87.33333333333334</ele><time>2026-04-29T09:10:35.524Z</time></trkpt><trkpt lat="33.4612141" lon="9.1667691"><ele>89.0</ele><time>2026-04-29T09:10:36.526Z</time></trkpt><trkpt lat="33.4612234" lon="9.166516"><ele>89.0</ele><time>2026-04-29T09:10:37.525Z</time></trkpt><trkpt lat="33.4612273" lon="9.1662647"><ele>89.0</ele><time>2026-04-29T09:10:38.546Z</time></trkpt><trkpt lat="33.4612317" lon="9.1660189"><ele>89.0</ele><time>2026-04-29T09:10:39.531Z</time></trkpt><trkpt lat="33.4612409" lon="9.1657696"><ele>88.66666666666667</ele><time>2026-04-29T09:10:40.514Z</time></trkpt><trkpt lat="33.4612482" lon="9.1655192"><ele>88.33333333333333</ele><time>2026-04-29T09:10:41.522Z</time></trkpt><trkpt lat="33.4612548" lon="9.1652695"><ele>88.0</ele><time>2026-04-29T09:10:42.527Z</time></trkpt><trkpt lat="33.4612638" lon="9.1650232"><ele>88.0</ele><time>2026-04-29T09:10:43.548Z</time></trkpt><trkpt lat="33.4612741" lon="9.1647731"><ele>88.0</ele><time>2026-04-29T09:10:44.559Z</time></trkpt><trkpt lat="33.4612804" lon="9.1645211"><ele>88.0</ele><time>2026-04-29T09:10:45.557Z</time></trkpt><trkpt lat="33.4612871" lon="9.1642662"><ele>88.0</ele><time>2026-04-29T09:10:46.52Z</time></trkpt><trkpt lat="33.4612944" lon="9.1640164"><ele>88.0</ele><time>2026-04-29T09:10:47.566Z</time></trkpt><trkpt lat="33.4613035" lon="9.1637659"><ele>88.0</ele><time>2026-04-29T09:10:48.515Z</time></trkpt><trkpt lat="33.4613117" lon="9.1635182"><ele>88.0</ele><time>2026-04-29T09:10:49.535Z</time></trkpt><trkpt lat="33.4613201" lon="9.1632703"><ele>88.0</ele><time>2026-04-29T09:10:50.53Z</time></trkpt><trkpt lat="33.4613279" lon="9.1630227"><ele>88.0</ele><time>2026-04-29T09:10:51.516Z</time></trkpt><trkpt lat="33.4613353" lon="9.1627759"><ele>86.66666666666666</ele><time>2026-04-29T09:10:52.515Z</time></trkpt><trkpt lat="33.4613397" lon="9.1625269"><ele>85.33333333333333</ele><time>2026-04-29T09:10:53.512Z</time></trkpt><trkpt lat="33.4613471" lon="9.1622813"><ele>84.0</ele><time>2026-04-29T09:10:54.522Z</time></trkpt><trkpt lat="33.4613553" lon="9.1620308"><ele>83.33333333333333</ele><time>2026-04-29T09:10:55.527Z</time></trkpt><trkpt lat="33.4613626" lon="9.1617773"><ele>82.66666666666666</ele><time>2026-04-29T09:10:56.513Z</time></trkpt><trkpt lat="33.4613674" lon="9.16153"><ele>82.0</ele><time>2026-04-29T09:10:57.536Z</time></trkpt><trkpt lat="33.4613787" lon="9.1612768"><ele>83.66666666666666</ele><time>2026-04-29T09:10:58.56Z</time></trkpt><trkpt lat="33.4613866" lon="9.1610271"><ele>85.33333333333333</ele><time>2026-04-29T09:10:59.514Z</time></trkpt><trkpt lat="33.4613947" lon="9.1607737"><ele>87.0</ele><time>2026-04-29T09:11:00.511Z</time></trkpt><trkpt lat="33.4614015" lon="9.1605229"><ele>87.66666666666667</ele><time>2026-04-29T09:11:01.529Z</time></trkpt><trkpt lat="33.4614033" lon="9.160271"><ele>88.33333333333334</ele><time>2026-04-29T09:11:02.509Z</time></trkpt><trkpt lat="33.4614089" lon="9.1600189"><ele>89.0</ele><time>2026-04-29T09:11:03.559Z</time></trkpt><trkpt lat="33.4614166" lon="9.1597674"><ele>89.0</ele><time>2026-04-29T09:11:04.553Z</time></trkpt><trkpt lat="33.4614269" lon="9.1595197"><ele>89.0</ele><time>2026-04-29T09:11:05.546Z</time></trkpt><trkpt lat="33.4614352" lon="9.15927"><ele>89.0</ele><time>2026-04-29T09:11:06.536Z</time></trkpt><trkpt lat="33.4614433" lon="9.1590206"><ele>88.66666666666667</ele><time>2026-04-29T09:11:07.539Z</time></trkpt><trkpt lat="33.4614503" lon="9.1587725"><ele>88.33333333333333</ele><time>2026-04-29T09:11:08.557Z</time></trkpt><trkpt lat="33.4614591" lon="9.1585218"><ele>88.0</ele><time>2026-04-29T09:11:09.535Z</time></trkpt><trkpt lat="33.4614701" lon="9.1582707"><ele>88.33333333333333</ele><time>2026-04-29T09:11:10.556Z</time></trkpt><trkpt lat="33.461476" lon="9.1580213"><ele>88.66666666666667</ele><time>2026-04-29T09:11:11.535Z</time></trkpt><trkpt lat="33.4614825" lon="9.1577714"><ele>89.0</ele><time>2026-04-29T09:11:12.555Z</time></trkpt><trkpt lat="33.4614842" lon="9.1575214"><ele>89.0</ele><time>2026-04-29T09:11:13.538Z</time></trkpt><trkpt lat="33.4614841" lon="9.1572702"><ele>89.0</ele><time>2026-04-29T09:11:14.538Z</time></trkpt><trkpt lat="33.46149" lon="9.1570193"><ele>89.0</ele><time>2026-04-29T09:11:15.559Z</time></trkpt><trkpt lat="33.461499" lon="9.1567699"><ele>88.33333333333334</ele><time>2026-04-29T09:11:16.513Z</time></trkpt><trkpt lat="33.4615019" lon="9.156522"><ele>87.66666666666667</ele><time>2026-04-29T09:11:17.548Z</time></trkpt><trkpt lat="33.4615111" lon="9.1562716"><ele>87.0</ele><time>2026-04-29T09:11:18.542Z</time></trkpt><trkpt lat="33.4615198" lon="9.1560214"><ele>87.0</ele><time>2026-04-29T09:11:19.544Z</time></trkpt><trkpt lat="33.4615298" lon="9.1557693"><ele>87.0</ele><time>2026-04-29T09:11:20.548Z</time></trkpt><trkpt lat="33.4615361" lon="9.1555166"><ele>87.0</ele><time>2026-04-29T09:11:21.552Z</time></trkpt><trkpt lat="33.4615432" lon="9.1552664"><ele>87.33333333333333</ele><time>2026-04-29T09:11:22.524Z</time></trkpt><trkpt lat="33.4615494" lon="9.1550211"><ele>87.66666666666666</ele><time>2026-04-29T09:11:23.519Z</time></trkpt><trkpt lat="33.4615581" lon="9.1547682"><ele>88.0</ele><time>2026-04-29T09:11:24.539Z</time></trkpt><trkpt lat="33.4615626" lon="9.1545164"><ele>88.0</ele><time>2026-04-29T09:11:25.528Z</time></trkpt><trkpt lat="33.4615659" lon="9.154271"><ele>88.0</ele><time>2026-04-29T09:11:26.527Z</time></trkpt><trkpt lat="33.4615694" lon="9.1540232"><ele>88.0</ele><time>2026-04-29T09:11:27.531Z</time></trkpt><trkpt lat="33.4615797" lon="9.1537703"><ele>88.66666666666666</ele><time>2026-04-29T09:11:28.515Z</time></trkpt><trkpt lat="33.4615862" lon="9.1535181"><ele>89.33333333333333</ele><time>2026-04-29T09:11:29.531Z</time></trkpt><trkpt lat="33.4615943" lon="9.1532634"><ele>90.0</ele><time>2026-04-29T09:11:30.554Z</time></trkpt><trkpt lat="33.4616013" lon="9.1530115"><ele>89.0</ele><time>2026-04-29T09:11:31.519Z</time></trkpt><trkpt lat="33.4616089" lon="9.1527619"><ele>88.0</ele><time>2026-04-29T09:11:32.544Z</time></trkpt><trkpt lat="33.4616185" lon="9.1525151"><ele>87.0</ele><time>2026-04-29T09:11:33.539Z</time></trkpt><trkpt lat="33.4616235" lon="9.1522658"><ele>87.0</ele><time>2026-04-29T09:11:34.521Z</time></trkpt><trkpt lat="33.4616309" lon="9.1520209"><ele>87.0</ele><time>2026-04-29T09:11:35.52Z</time></trkpt><trkpt lat="33.4616371" lon="9.1517702"><ele>87.0</ele><time>2026-04-29T09:11:36.527Z</time></trkpt><trkpt lat="33.4616448" lon="9.1515156"><ele>87.0</ele><time>2026-04-29T09:11:37.531Z</time></trkpt><trkpt lat="33.4616558" lon="9.1512633"><ele>87.0</ele><time>2026-04-29T09:11:38.557Z</time></trkpt><trkpt lat="33.4616645" lon="9.1510172"><ele>87.0</ele><time>2026-04-29T09:11:39.538Z</time></trkpt><trkpt lat="33.4616721" lon="9.1507643"><ele>87.66666666666667</ele><time>2026-04-29T09:11:40.549Z</time></trkpt><trkpt lat="33.4616798" lon="9.1505115"><ele>88.33333333333334</ele><time>2026-04-29T09:11:41.545Z</time></trkpt><trkpt lat="33.4616877" lon="9.1502637"><ele>89.0</ele><time>2026-04-29T09:11:42.551Z</time></trkpt><trkpt lat="33.4616962" lon="9.1500157"><ele>89.33333333333334</ele><time>2026-04-29T09:11:43.535Z</time></trkpt><trkpt lat="33.4617062" lon="9.1497708"><ele>89.66666666666667</ele><time>2026-04-29T09:11:44.549Z</time></trkpt><trkpt lat="33.4617152" lon="9.1495219"><ele>90.0</ele><time>2026-04-29T09:11:45.542Z</time></trkpt><trkpt lat="33.4617249" lon="9.1492716"><ele>89.66666666666667</ele><time>2026-04-29T09:11:46.546Z</time></trkpt><trkpt lat="33.4617329" lon="9.1490196"><ele>89.33333333333334</ele><time>2026-04-29T09:11:47.55Z</time></trkpt><trkpt lat="33.4617383" lon="9.148771"><ele>89.0</ele><time>2026-04-29T09:11:48.565Z</time></trkpt><trkpt lat="33.4617433" lon="9.1485191"><ele>89.0</ele><time>2026-04-29T09:11:49.547Z</time></trkpt><trkpt lat="33.4617474" lon="9.1482688"><ele>89.0</ele><time>2026-04-29T09:11:50.543Z</time></trkpt><trkpt lat="33.4617531" lon="9.1480212"><ele>89.0</ele><time>2026-04-29T09:11:51.544Z</time></trkpt><trkpt lat="33.46176" lon="9.1477695"><ele>88.66666666666667</ele><time>2026-04-29T09:11:52.536Z</time></trkpt><trkpt lat="33.4617666" lon="9.1475173"><ele>88.33333333333333</ele><time>2026-04-29T09:11:53.523Z</time></trkpt><trkpt lat="33.4617753" lon="9.1472723"><ele>88.0</ele><time>2026-04-29T09:11:54.544Z</time></trkpt><trkpt lat="33.4617812" lon="9.147022"><ele>88.0</ele><time>2026-04-29T09:11:55.555Z</time></trkpt><trkpt lat="33.4617877" lon="9.146771"><ele>88.0</ele><time>2026-04-29T09:11:56.563Z</time></trkpt><trkpt lat="33.4617972" lon="9.1465145"><ele>88.0</ele><time>2026-04-29T09:11:57.545Z</time></trkpt><trkpt lat="33.4618078" lon="9.1462659"><ele>88.66666666666666</ele><time>2026-04-29T09:11:58.563Z</time></trkpt><trkpt lat="33.4618155" lon="9.1460186"><ele>89.33333333333333</ele><time>2026-04-29T09:11:59.563Z</time></trkpt><trkpt lat="33.461817" lon="9.1457651"><ele>90.0</ele><time>2026-04-29T09:12:00.553Z</time></trkpt><trkpt lat="33.4618212" lon="9.1455158"><ele>90.0</ele><time>2026-04-29T09:12:01.548Z</time></trkpt><trkpt lat="33.4618277" lon="9.1452681"><ele>90.0</ele><time>2026-04-29T09:12:02.557Z</time></trkpt><trkpt lat="33.4618375" lon="9.1450169"><ele>90.0</ele><time>2026-04-29T09:12:03.552Z</time></trkpt><trkpt lat="33.4618458" lon="9.1447641"><ele>89.66666666666667</ele><time>2026-04-29T09:12:04.548Z</time></trkpt><trkpt lat="33.4618562" lon="9.1445098"><ele>89.33333333333334</ele><time>2026-04-29T09:12:05.539Z</time></trkpt><trkpt lat="33.4618677" lon="9.1442617"><ele>89.0</ele><time>2026-04-29T09:12:06.558Z</time></trkpt><trkpt lat="33.461876" lon="9.1440053"><ele>88.66666666666667</ele><time>2026-04-29T09:12:07.548Z</time></trkpt><trkpt lat="33.4618808" lon="9.1437564"><ele>88.33333333333333</ele><time>2026-04-29T09:12:08.549Z</time></trkpt><trkpt lat="33.4618837" lon="9.1435103"><ele>88.0</ele><time>2026-04-29T09:12:09.566Z</time></trkpt><trkpt lat="33.4618898" lon="9.1432624"><ele>87.66666666666666</ele><time>2026-04-29T09:12:10.548Z</time></trkpt><trkpt lat="33.4618951" lon="9.1430175"><ele>87.33333333333333</ele><time>2026-04-29T09:12:11.519Z</time></trkpt><trkpt lat="33.4619047" lon="9.1427678"><ele>87.0</ele><time>2026-04-29T09:12:12.54Z</time></trkpt><trkpt lat="33.4619111" lon="9.1425178"><ele>87.0</ele><time>2026-04-29T09:12:13.524Z</time></trkpt><trkpt lat="33.46192" lon="9.1422668"><ele>87.0</ele><time>2026-04-29T09:12:14.539Z</time></trkpt><trkpt lat="33.4619265" lon="9.1420168"><ele>87.0</ele><time>2026-04-29T09:12:15.544Z</time></trkpt><trkpt lat="33.461932" lon="9.1417678"><ele>86.33333333333333</ele><time>2026-04-29T09:12:16.546Z</time></trkpt><trkpt lat="33.4619369" lon="9.1415167"><ele>85.66666666666666</ele><time>2026-04-29T09:12:17.524Z</time></trkpt><trkpt lat="33.4619406" lon="9.1412717"><ele>85.0</ele><time>2026-04-29T09:12:18.549Z</time></trkpt><trkpt lat="33.4619486" lon="9.1410216"><ele>85.0</ele><time>2026-04-29T09:12:19.525Z</time></trkpt><trkpt lat="33.4619547" lon="9.1407697"><ele>85.0</ele><time>2026-04-29T09:12:20.542Z</time></trkpt><trkpt lat="33.4619594" lon="9.140518"><ele>85.0</ele><time>2026-04-29T09:12:21.555Z</time></trkpt><trkpt lat="33.4619629" lon="9.1402647"><ele>85.33333333333333</ele><time>2026-04-29T09:12:22.554Z</time></trkpt><trkpt lat="33.4619694" lon="9.1400184"><ele>85.66666666666667</ele><time>2026-04-29T09:12:23.544Z</time></trkpt><trkpt lat="33.4619768" lon="9.1397705"><ele>86.0</ele><time>2026-04-29T09:12:24.566Z</time></trkpt><trkpt lat="33.4619827" lon="9.1395236"><ele>87.0</ele><time>2026-04-29T09:12:25.545Z</time></trkpt><trkpt lat="33.4619927" lon="9.1392715"><ele>88.0</ele><time>2026-04-29T09:12:26.568Z</time></trkpt><trkpt lat="33.4620007" lon="9.1390201"><ele>89.0</ele><time>2026-04-29T09:12:27.558Z</time></trkpt><trkpt lat="33.4620063" lon="9.1387703"><ele>89.0</ele><time>2026-04-29T09:12:28.548Z</time></trkpt><trkpt lat="33.4620064" lon="9.1385214"><ele>89.0</ele><time>2026-04-29T09:12:29.544Z</time></trkpt><trkpt lat="33.4620027" lon="9.1382689"><ele>89.0</ele><time>2026-04-29T09:12:30.559Z</time></trkpt><trkpt lat="33.4619963" lon="9.1380184"><ele>89.0</ele><time>2026-04-29T09:12:31.564Z</time></trkpt><trkpt lat="33.4619853" lon="9.1377691"><ele>89.0</ele><time>2026-04-29T09:12:32.542Z</time></trkpt><trkpt lat="33.4619755" lon="9.1375177"><ele>89.0</ele><time>2026-04-29T09:12:33.549Z</time></trkpt><trkpt lat="33.4619659" lon="9.1372722"><ele>89.33333333333334</ele><time>2026-04-29T09:12:34.551Z</time></trkpt><trkpt lat="33.4619555" lon="9.1370246"><ele>89.66666666666667</ele><time>2026-04-29T09:12:35.544Z</time></trkpt><trkpt lat="33.4619461" lon="9.1367712"><ele>90.0</ele><time>2026-04-29T09:12:36.553Z</time></trkpt><trkpt lat="33.4619331" lon="9.1365205"><ele>90.33333333333333</ele><time>2026-04-29T09:12:37.545Z</time></trkpt><trkpt lat="33.4619227" lon="9.1362659"><ele>90.66666666666666</ele><time>2026-04-29T09:12:38.547Z</time></trkpt><trkpt lat="33.4619062" lon="9.1360147"><ele>91.0</ele><time>2026-04-29T09:12:39.527Z</time></trkpt><trkpt lat="33.4618891" lon="9.1357655"><ele>90.66666666666666</ele><time>2026-04-29T09:12:40.552Z</time></trkpt><trkpt lat="33.4618684" lon="9.135515"><ele>90.33333333333333</ele><time>2026-04-29T09:12:41.55Z</time></trkpt><trkpt lat="33.4618515" lon="9.1352699"><ele>90.0</ele><time>2026-04-29T09:12:42.55Z</time></trkpt><trkpt lat="33.4618329" lon="9.1350261"><ele>89.33333333333333</ele><time>2026-04-29T09:12:43.561Z</time></trkpt><trkpt lat="33.4618134" lon="9.1347736"><ele>88.66666666666666</ele><time>2026-04-29T09:12:44.532Z</time></trkpt><trkpt lat="33.4617919" lon="9.1345234"><ele>88.0</ele><time>2026-04-29T09:12:45.544Z</time></trkpt><trkpt lat="33.4617704" lon="9.1342766"><ele>89.0</ele><time>2026-04-29T09:12:46.552Z</time></trkpt><trkpt lat="33.4617435" lon="9.1340253"><ele>90.0</ele><time>2026-04-29T09:12:47.561Z</time></trkpt><trkpt lat="33.4617193" lon="9.1337731"><ele>91.0</ele><time>2026-04-29T09:12:48.543Z</time></trkpt><trkpt lat="33.4616962" lon="9.1335273"><ele>91.0</ele><time>2026-04-29T09:12:49.532Z</time></trkpt><trkpt lat="33.4616799" lon="9.1332967"><ele>91.0</ele><time>2026-04-29T09:12:50.565Z</time></trkpt><trkpt lat="33.4616608" lon="9.1330889"><ele>91.0</ele><time>2026-04-29T09:12:51.543Z</time></trkpt><trkpt lat="33.4616415" lon="9.1328864"><ele>91.33333333333333</ele><time>2026-04-29T09:12:52.523Z</time></trkpt><trkpt lat="33.4616244" lon="9.1326959"><ele>91.66666666666667</ele><time>2026-04-29T09:12:53.547Z</time></trkpt><trkpt lat="33.4616074" lon="9.1325176"><ele>92.0</ele><time>2026-04-29T09:12:54.553Z</time></trkpt><trkpt lat="33.4615948" lon="9.1323426"><ele>92.0</ele><time>2026-04-29T09:12:55.519Z</time></trkpt><trkpt lat="33.4615795" lon="9.1321688"><ele>92.0</ele><time>2026-04-29T09:12:56.542Z</time></trkpt><trkpt lat="33.4615627" lon="9.131992"><ele>92.0</ele><time>2026-04-29T09:12:57.558Z</time></trkpt><trkpt lat="33.4615402" lon="9.1318087"><ele>92.0</ele><time>2026-04-29T09:12:58.551Z</time></trkpt><trkpt lat="33.4615244" lon="9.1316274"><ele>92.5</ele><time>2026-04-29T09:12:59.521Z</time></trkpt><trkpt lat="33.4615039" lon="9.1314474"><ele>93.0</ele><time>2026-04-29T09:13:00.539Z</time></trkpt><trkpt lat="33.4614917" lon="9.1312704"><ele>93.5</ele><time>2026-04-29T09:13:01.546Z</time></trkpt><trkpt lat="33.4614778" lon="9.131112"><ele>94.0</ele><time>2026-04-29T09:13:02.527Z</time></trkpt><trkpt lat="33.461465" lon="9.1309543"><ele>94.0</ele><time>2026-04-29T09:13:03.546Z</time></trkpt><trkpt lat="33.4614506" lon="9.1308039"><ele>94.0</ele><time>2026-04-29T09:13:04.556Z</time></trkpt><trkpt lat="33.4614358" lon="9.13066"><ele>94.0</ele><time>2026-04-29T09:13:05.537Z</time></trkpt><trkpt lat="33.4614228" lon="9.1305212"><ele>94.0</ele><time>2026-04-29T09:13:06.557Z</time></trkpt><trkpt lat="33.4614089" lon="9.1303723"><ele>93.75</ele><time>2026-04-29T09:13:07.547Z</time></trkpt><trkpt lat="33.4614004" lon="9.1302137"><ele>93.5</ele><time>2026-04-29T09:13:08.557Z</time></trkpt><trkpt lat="33.4613889" lon="9.1300475"><ele>93.25</ele><time>2026-04-29T09:13:09.538Z</time></trkpt><trkpt lat="33.4613775" lon="9.1298755"><ele>93.0</ele><time>2026-04-29T09:13:10.543Z</time></trkpt><trkpt lat="33.4613644" lon="9.1296994"><ele>93.0</ele><time>2026-04-29T09:13:11.571Z</time></trkpt><trkpt lat="33.4613481" lon="9.1295181"><ele>93.0</ele><time>2026-04-29T09:13:12.547Z</time></trkpt><trkpt lat="33.4613262" lon="9.1293275"><ele>93.0</ele><time>2026-04-29T09:13:13.548Z</time></trkpt><trkpt lat="33.4613071" lon="9.1291317"><ele>92.0</ele><time>2026-04-29T09:13:14.54Z</time></trkpt><trkpt lat="33.461289" lon="9.1289397"><ele>91.0</ele><time>2026-04-29T09:13:15.545Z</time></trkpt><trkpt lat="33.4612702" lon="9.128736"><ele>90.0</ele><time>2026-04-29T09:13:16.531Z</time></trkpt><trkpt lat="33.4612507" lon="9.1285324"><ele>90.0</ele><time>2026-04-29T09:13:17.547Z</time></trkpt><trkpt lat="33.4612347" lon="9.128323"><ele>90.0</ele><time>2026-04-29T09:13:18.548Z</time></trkpt><trkpt lat="33.4612118" lon="9.1281064"><ele>90.0</ele><time>2026-04-29T09:13:19.547Z</time></trkpt><trkpt lat="33.4611929" lon="9.1278785"><ele>90.0</ele><time>2026-04-29T09:13:20.542Z</time></trkpt><trkpt lat="33.4611768" lon="9.1276483"><ele>90.0</ele><time>2026-04-29T09:13:21.542Z</time></trkpt><trkpt lat="33.4611631" lon="9.1274194"><ele>90.0</ele><time>2026-04-29T09:13:22.554Z</time></trkpt><trkpt lat="33.4611458" lon="9.1271876"><ele>90.0</ele><time>2026-04-29T09:13:23.555Z</time></trkpt><trkpt lat="33.461126" lon="9.1269547"><ele>90.0</ele><time>2026-04-29T09:13:24.553Z</time></trkpt><trkpt lat="33.4611048" lon="9.1267238"><ele>90.0</ele><time>2026-04-29T09:13:25.543Z</time></trkpt><trkpt lat="33.4610821" lon="9.126497"><ele>90.33333333333333</ele><time>2026-04-29T09:13:26.533Z</time></trkpt><trkpt lat="33.4610626" lon="9.1262735"><ele>90.66666666666666</ele><time>2026-04-29T09:13:27.55Z</time></trkpt><trkpt lat="33.4610437" lon="9.1260493"><ele>91.0</ele><time>2026-04-29T09:13:28.552Z</time></trkpt><trkpt lat="33.4610199" lon="9.1258185"><ele>90.0</ele><time>2026-04-29T09:13:29.556Z</time></trkpt><trkpt lat="33.460999" lon="9.1255938"><ele>89.0</ele><time>2026-04-29T09:13:30.544Z</time></trkpt><trkpt lat="33.460979" lon="9.1253693"><ele>88.0</ele><time>2026-04-29T09:13:31.541Z</time></trkpt><trkpt lat="33.4609621" lon="9.1251399"><ele>88.0</ele><time>2026-04-29T09:13:32.529Z</time></trkpt><trkpt lat="33.4609423" lon="9.1249108"><ele>88.0</ele><time>2026-04-29T09:13:33.54Z</time></trkpt><trkpt lat="33.4609298" lon="9.1246799"><ele>88.0</ele><time>2026-04-29T09:13:34.532Z</time></trkpt><trkpt lat="33.4609049" lon="9.1244539"><ele>88.33333333333333</ele><time>2026-04-29T09:13:35.54Z</time></trkpt><trkpt lat="33.4608797" lon="9.1242271"><ele>88.66666666666667</ele><time>2026-04-29T09:13:36.533Z</time></trkpt><trkpt lat="33.4608579" lon="9.1240045"><ele>89.0</ele><time>2026-04-29T09:13:37.534Z</time></trkpt><trkpt lat="33.4608413" lon="9.1237786"><ele>89.0</ele><time>2026-04-29T09:13:38.529Z</time></trkpt><trkpt lat="33.4608287" lon="9.123554"><ele>89.0</ele><time>2026-04-29T09:13:39.555Z</time></trkpt><trkpt lat="33.4608116" lon="9.1233245"><ele>89.0</ele><time>2026-04-29T09:13:40.542Z</time></trkpt><trkpt lat="33.4608002" lon="9.1230955"><ele>89.0</ele><time>2026-04-29T09:13:41.537Z</time></trkpt><trkpt lat="33.4607837" lon="9.1228694"><ele>89.0</ele><time>2026-04-29T09:13:42.54Z</time></trkpt><trkpt lat="33.4607663" lon="9.1226428"><ele>89.0</ele><time>2026-04-29T09:13:43.535Z</time></trkpt><trkpt lat="33.4607445" lon="9.1224096"><ele>89.66666666666667</ele><time>2026-04-29T09:13:44.551Z</time></trkpt><trkpt lat="33.4607212" lon="9.1221718"><ele>90.33333333333333</ele><time>2026-04-29T09:13:45.545Z</time></trkpt><trkpt lat="33.4606989" lon="9.1219328"><ele>91.0</ele><time>2026-04-29T09:13:46.558Z</time></trkpt><trkpt lat="33.4606814" lon="9.1216899"><ele>90.33333333333333</ele><time>2026-04-29T09:13:47.55Z</time></trkpt><trkpt lat="33.4606601" lon="9.1214475"><ele>89.66666666666667</ele><time>2026-04-29T09:13:48.549Z</time></trkpt><trkpt lat="33.4606409" lon="9.1212052"><ele>89.0</ele><time>2026-04-29T09:13:49.546Z</time></trkpt><trkpt lat="33.4606181" lon="9.1209587"><ele>89.33333333333334</ele><time>2026-04-29T09:13:50.538Z</time></trkpt><trkpt lat="33.4605943" lon="9.1207106"><ele>89.66666666666667</ele><time>2026-04-29T09:13:51.541Z</time></trkpt><trkpt lat="33.4605728" lon="9.1204618"><ele>90.0</ele><time>2026-04-29T09:13:52.549Z</time></trkpt><trkpt lat="33.460552" lon="9.1202094"><ele>90.0</ele><time>2026-04-29T09:13:53.54Z</time></trkpt><trkpt lat="33.4605307" lon="9.1199582"><ele>90.0</ele><time>2026-04-29T09:13:54.535Z</time></trkpt><trkpt lat="33.4605085" lon="9.1197066"><ele>90.0</ele><time>2026-04-29T09:13:55.547Z</time></trkpt><trkpt lat="33.460488" lon="9.1194517"><ele>90.0</ele><time>2026-04-29T09:13:56.54Z</time></trkpt><trkpt lat="33.4604653" lon="9.1191993"><ele>90.0</ele><time>2026-04-29T09:13:57.546Z</time></trkpt><trkpt lat="33.4604457" lon="9.118944"><ele>90.0</ele><time>2026-04-29T09:13:58.545Z</time></trkpt><trkpt lat="33.4604243" lon="9.1186926"><ele>89.66666666666667</ele><time>2026-04-29T09:13:59.537Z</time></trkpt><trkpt lat="33.4604036" lon="9.118438"><ele>89.33333333333334</ele><time>2026-04-29T09:14:00.557Z</time></trkpt><trkpt lat="33.4603804" lon="9.1181924"><ele>89.0</ele><time>2026-04-29T09:14:01.552Z</time></trkpt><trkpt lat="33.4603604" lon="9.1179419"><ele>89.0</ele><time>2026-04-29T09:14:02.538Z</time></trkpt><trkpt lat="33.4603392" lon="9.1176964"><ele>89.0</ele><time>2026-04-29T09:14:03.527Z</time></trkpt><trkpt lat="33.4603165" lon="9.1174431"><ele>89.0</ele><time>2026-04-29T09:14:04.553Z</time></trkpt><trkpt lat="33.4602933" lon="9.1171943"><ele>88.66666666666667</ele><time>2026-04-29T09:14:05.558Z</time></trkpt><trkpt lat="33.4602687" lon="9.1169487"><ele>88.33333333333333</ele><time>2026-04-29T09:14:06.542Z</time></trkpt><trkpt lat="33.460245" lon="9.1166999"><ele>88.0</ele><time>2026-04-29T09:14:07.538Z</time></trkpt><trkpt lat="33.4602265" lon="9.1164492"><ele>88.0</ele><time>2026-04-29T09:14:08.551Z</time></trkpt><trkpt lat="33.4602058" lon="9.1162018"><ele>88.0</ele><time>2026-04-29T09:14:09.528Z</time></trkpt><trkpt lat="33.4601848" lon="9.1159539"><ele>88.0</ele><time>2026-04-29T09:14:10.555Z</time></trkpt><trkpt lat="33.4601621" lon="9.1157062"><ele>87.66666666666666</ele><time>2026-04-29T09:14:11.551Z</time></trkpt><trkpt lat="33.4601416" lon="9.1154624"><ele>87.33333333333333</ele><time>2026-04-29T09:14:12.559Z</time></trkpt><trkpt lat="33.4601206" lon="9.1152166"><ele>87.0</ele><time>2026-04-29T09:14:13.561Z</time></trkpt><trkpt lat="33.4600975" lon="9.1149734"><ele>87.66666666666667</ele><time>2026-04-29T09:14:14.552Z</time></trkpt><trkpt lat="33.4600714" lon="9.1147278"><ele>88.33333333333334</ele><time>2026-04-29T09:14:15.538Z</time></trkpt><trkpt lat="33.4600481" lon="9.1144855"><ele>89.0</ele><time>2026-04-29T09:14:16.547Z</time></trkpt><trkpt lat="33.4600278" lon="9.1142435"><ele>88.0</ele><time>2026-04-29T09:14:17.544Z</time></trkpt><trkpt lat="33.4600039" lon="9.1140026"><ele>87.0</ele><time>2026-04-29T09:14:18.559Z</time></trkpt><trkpt lat="33.4599818" lon="9.1137615"><ele>86.0</ele><time>2026-04-29T09:14:19.544Z</time></trkpt><trkpt lat="33.459961" lon="9.113519"><ele>86.0</ele><time>2026-04-29T09:14:20.545Z</time></trkpt><trkpt lat="33.4599408" lon="9.1132743"><ele>86.0</ele><time>2026-04-29T09:14:21.544Z</time></trkpt><trkpt lat="33.4599217" lon="9.1130263"><ele>86.0</ele><time>2026-04-29T09:14:22.552Z</time></trkpt><trkpt lat="33.4599026" lon="9.1127837"><ele>86.0</ele><time>2026-04-29T09:14:23.535Z</time></trkpt><trkpt lat="33.4598836" lon="9.1125367"><ele>86.0</ele><time>2026-04-29T09:14:24.542Z</time></trkpt><trkpt lat="33.4598598" lon="9.1122925"><ele>86.0</ele><time>2026-04-29T09:14:25.549Z</time></trkpt><trkpt lat="33.4598353" lon="9.1120426"><ele>87.0</ele><time>2026-04-29T09:14:26.553Z</time></trkpt><trkpt lat="33.4598135" lon="9.1117919"><ele>88.0</ele><time>2026-04-29T09:14:27.547Z</time></trkpt><trkpt lat="33.4597931" lon="9.1115407"><ele>89.0</ele><time>2026-04-29T09:14:28.54Z</time></trkpt><trkpt lat="33.4597679" lon="9.1112895"><ele>89.0</ele><time>2026-04-29T09:14:29.547Z</time></trkpt><trkpt lat="33.4597477" lon="9.1110424"><ele>89.0</ele><time>2026-04-29T09:14:30.549Z</time></trkpt><trkpt lat="33.4597305" lon="9.1107917"><ele>89.0</ele><time>2026-04-29T09:14:31.545Z</time></trkpt><trkpt lat="33.4597063" lon="9.1105306"><ele>89.66666666666667</ele><time>2026-04-29T09:14:32.556Z</time></trkpt><trkpt lat="33.4596849" lon="9.1102813"><ele>90.33333333333333</ele><time>2026-04-29T09:14:33.55Z</time></trkpt><trkpt lat="33.4596616" lon="9.1100293"><ele>91.0</ele><time>2026-04-29T09:14:34.552Z</time></trkpt><trkpt lat="33.4596383" lon="9.1097735"><ele>91.0</ele><time>2026-04-29T09:14:35.567Z</time></trkpt><trkpt lat="33.4596176" lon="9.1095211"><ele>91.0</ele><time>2026-04-29T09:14:36.556Z</time></trkpt><trkpt lat="33.4595915" lon="9.1092716"><ele>91.0</ele><time>2026-04-29T09:14:37.523Z</time></trkpt><trkpt lat="33.4595685" lon="9.1090187"><ele>90.33333333333333</ele><time>2026-04-29T09:14:38.542Z</time></trkpt><trkpt lat="33.4595451" lon="9.1087675"><ele>89.66666666666667</ele><time>2026-04-29T09:14:39.562Z</time></trkpt><trkpt lat="33.4595222" lon="9.1085141"><ele>89.0</ele><time>2026-04-29T09:14:40.552Z</time></trkpt><trkpt lat="33.4595029" lon="9.1082605"><ele>89.66666666666667</ele><time>2026-04-29T09:14:41.552Z</time></trkpt><trkpt lat="33.4594837" lon="9.1080122"><ele>90.33333333333333</ele><time>2026-04-29T09:14:42.527Z</time></trkpt><trkpt lat="33.4594633" lon="9.1077597"><ele>91.0</ele><time>2026-04-29T09:14:43.555Z</time></trkpt><trkpt lat="33.4594386" lon="9.1075102"><ele>90.0</ele><time>2026-04-29T09:14:44.542Z</time></trkpt><trkpt lat="33.459415" lon="9.1072613"><ele>89.0</ele><time>2026-04-29T09:14:45.547Z</time></trkpt><trkpt lat="33.4593937" lon="9.1070131"><ele>88.0</ele><time>2026-04-29T09:14:46.546Z</time></trkpt><trkpt lat="33.4593746" lon="9.1067607"><ele>88.0</ele><time>2026-04-29T09:14:47.554Z</time></trkpt><trkpt lat="33.459356" lon="9.106506"><ele>88.0</ele><time>2026-04-29T09:14:48.552Z</time></trkpt><trkpt lat="33.4593388" lon="9.1062485"><ele>88.0</ele><time>2026-04-29T09:14:49.567Z</time></trkpt><trkpt lat="33.4593168" lon="9.1059942"><ele>88.66666666666666</ele><time>2026-04-29T09:14:50.546Z</time></trkpt><trkpt lat="33.4592954" lon="9.1057408"><ele>89.33333333333333</ele><time>2026-04-29T09:14:51.55Z</time></trkpt><trkpt lat="33.4592739" lon="9.1054905"><ele>90.0</ele><time>2026-04-29T09:14:52.558Z</time></trkpt><trkpt lat="33.4592514" lon="9.1052368"><ele>90.0</ele><time>2026-04-29T09:14:53.546Z</time></trkpt><trkpt lat="33.4592281" lon="9.1049867"><ele>90.0</ele><time>2026-04-29T09:14:54.543Z</time></trkpt><trkpt lat="33.4592053" lon="9.1047318"><ele>90.0</ele><time>2026-04-29T09:14:55.559Z</time></trkpt><trkpt lat="33.4591817" lon="9.10448"><ele>89.33333333333333</ele><time>2026-04-29T09:14:56.564Z</time></trkpt><trkpt lat="33.459162" lon="9.1042302"><ele>88.66666666666666</ele><time>2026-04-29T09:14:57.551Z</time></trkpt><trkpt lat="33.4591396" lon="9.103974"><ele>88.0</ele><time>2026-04-29T09:14:58.553Z</time></trkpt><trkpt lat="33.45912" lon="9.1037208"><ele>87.66666666666666</ele><time>2026-04-29T09:14:59.555Z</time></trkpt><trkpt lat="33.4590977" lon="9.1034659"><ele>87.33333333333333</ele><time>2026-04-29T09:15:00.553Z</time></trkpt><trkpt lat="33.459078" lon="9.1032135"><ele>87.0</ele><time>2026-04-29T09:15:01.555Z</time></trkpt><trkpt lat="33.4590566" lon="9.1029623"><ele>87.0</ele><time>2026-04-29T09:15:02.558Z</time></trkpt><trkpt lat="33.4590365" lon="9.1027117"><ele>87.0</ele><time>2026-04-29T09:15:03.553Z</time></trkpt><trkpt lat="33.4590134" lon="9.1024598"><ele>87.0</ele><time>2026-04-29T09:15:04.548Z</time></trkpt><trkpt lat="33.4589926" lon="9.1022059"><ele>87.33333333333333</ele><time>2026-04-29T09:15:05.543Z</time></trkpt><trkpt lat="33.4589734" lon="9.1019517"><ele>87.66666666666666</ele><time>2026-04-29T09:15:06.542Z</time></trkpt><trkpt lat="33.4589503" lon="9.1016989"><ele>88.0</ele><time>2026-04-29T09:15:07.554Z</time></trkpt><trkpt lat="33.4589306" lon="9.1014464"><ele>88.66666666666666</ele><time>2026-04-29T09:15:08.552Z</time></trkpt><trkpt lat="33.4589057" lon="9.1011952"><ele>89.33333333333333</ele><time>2026-04-29T09:15:09.548Z</time></trkpt><trkpt lat="33.458881" lon="9.10094"><ele>90.0</ele><time>2026-04-29T09:15:10.53Z</time></trkpt><trkpt lat="33.4588562" lon="9.1006872"><ele>90.66666666666667</ele><time>2026-04-29T09:15:11.563Z</time></trkpt><trkpt lat="33.4588347" lon="9.1004334"><ele>91.33333333333334</ele><time>2026-04-29T09:15:12.551Z</time></trkpt><trkpt lat="33.4588124" lon="9.1001848"><ele>92.0</ele><time>2026-04-29T09:15:13.542Z</time></trkpt><trkpt lat="33.4587905" lon="9.0999354"><ele>92.0</ele><time>2026-04-29T09:15:14.555Z</time></trkpt><trkpt lat="33.4587675" lon="9.0996823"><ele>92.0</ele><time>2026-04-29T09:15:15.538Z</time></trkpt><trkpt lat="33.4587469" lon="9.0994308"><ele>92.0</ele><time>2026-04-29T09:15:16.55Z</time></trkpt><trkpt lat="33.4587275" lon="9.0991774"><ele>91.66666666666667</ele><time>2026-04-29T09:15:17.512Z</time></trkpt><trkpt lat="33.4587038" lon="9.098927"><ele>91.33333333333333</ele><time>2026-04-29T09:15:18.549Z</time></trkpt><trkpt lat="33.4586849" lon="9.0986781"><ele>91.0</ele><time>2026-04-29T09:15:19.562Z</time></trkpt><trkpt lat="33.458665" lon="9.0984312"><ele>91.33333333333333</ele><time>2026-04-29T09:15:20.538Z</time></trkpt><trkpt lat="33.4586409" lon="9.0981768"><ele>91.66666666666667</ele><time>2026-04-29T09:15:21.551Z</time></trkpt><trkpt lat="33.4586161" lon="9.0979242"><ele>92.0</ele><time>2026-04-29T09:15:22.559Z</time></trkpt><trkpt lat="33.458594" lon="9.0976748"><ele>92.0</ele><time>2026-04-29T09:15:23.547Z</time></trkpt><trkpt lat="33.458569" lon="9.0974241"><ele>92.0</ele><time>2026-04-29T09:15:24.548Z</time></trkpt><trkpt lat="33.4585499" lon="9.0971694"><ele>92.0</ele><time>2026-04-29T09:15:25.552Z</time></trkpt><trkpt lat="33.4585285" lon="9.09692"><ele>91.66666666666667</ele><time>2026-04-29T09:15:26.55Z</time></trkpt><trkpt lat="33.4585063" lon="9.0966666"><ele>91.33333333333333</ele><time>2026-04-29T09:15:27.559Z</time></trkpt><trkpt lat="33.458485" lon="9.0964126"><ele>91.0</ele><time>2026-04-29T09:15:28.559Z</time></trkpt><trkpt lat="33.4584616" lon="9.096161"><ele>91.33333333333333</ele><time>2026-04-29T09:15:29.547Z</time></trkpt><trkpt lat="33.4584375" lon="9.0959091"><ele>91.66666666666667</ele><time>2026-04-29T09:15:30.552Z</time></trkpt><trkpt lat="33.4584144" lon="9.0956558"><ele>92.0</ele><time>2026-04-29T09:15:31.542Z</time></trkpt><trkpt lat="33.4583942" lon="9.0954059"><ele>92.0</ele><time>2026-04-29T09:15:32.527Z</time></trkpt><trkpt lat="33.4583729" lon="9.0951573"><ele>92.0</ele><time>2026-04-29T09:15:33.537Z</time></trkpt><trkpt lat="33.4583478" lon="9.0949077"><ele>92.0</ele><time>2026-04-29T09:15:34.533Z</time></trkpt><trkpt lat="33.458328" lon="9.0946533"><ele>92.66666666666667</ele><time>2026-04-29T09:15:35.547Z</time></trkpt><trkpt lat="33.4583061" lon="9.0944022"><ele>93.33333333333333</ele><time>2026-04-29T09:15:36.557Z</time></trkpt><trkpt lat="33.4582819" lon="9.0941501"><ele>94.0</ele><time>2026-04-29T09:15:37.552Z</time></trkpt><trkpt lat="33.4582607" lon="9.0939006"><ele>92.33333333333333</ele><time>2026-04-29T09:15:38.554Z</time></trkpt><trkpt lat="33.4582429" lon="9.0936518"><ele>90.66666666666667</ele><time>2026-04-29T09:15:39.542Z</time></trkpt><trkpt lat="33.458227" lon="9.0933986"><ele>89.0</ele><time>2026-04-29T09:15:40.564Z</time></trkpt><trkpt lat="33.4582102" lon="9.093146"><ele>88.33333333333334</ele><time>2026-04-29T09:15:41.554Z</time></trkpt><trkpt lat="33.4581898" lon="9.0928916"><ele>87.66666666666667</ele><time>2026-04-29T09:15:42.544Z</time></trkpt><trkpt lat="33.4581664" lon="9.0926383"><ele>87.0</ele><time>2026-04-29T09:15:43.555Z</time></trkpt><trkpt lat="33.4581465" lon="9.0923871"><ele>86.0</ele><time>2026-04-29T09:15:44.549Z</time></trkpt><trkpt lat="33.4581193" lon="9.0921289"><ele>85.0</ele><time>2026-04-29T09:15:45.559Z</time></trkpt><trkpt lat="33.4581006" lon="9.0918746"><ele>84.0</ele><time>2026-04-29T09:15:46.566Z</time></trkpt><trkpt lat="33.4580783" lon="9.0916213"><ele>84.66666666666667</ele><time>2026-04-29T09:15:47.56Z</time></trkpt><trkpt lat="33.4580547" lon="9.0913705"><ele>85.33333333333334</ele><time>2026-04-29T09:15:48.544Z</time></trkpt><trkpt lat="33.4580289" lon="9.0911208"><ele>86.0</ele><time>2026-04-29T09:15:49.552Z</time></trkpt><trkpt lat="33.4580059" lon="9.090869"><ele>87.33333333333334</ele><time>2026-04-29T09:15:50.552Z</time></trkpt><trkpt lat="33.4579788" lon="9.0906197"><ele>88.66666666666667</ele><time>2026-04-29T09:15:51.558Z</time></trkpt><trkpt lat="33.4579581" lon="9.0903677"><ele>90.0</ele><time>2026-04-29T09:15:52.554Z</time></trkpt><trkpt lat="33.4579392" lon="9.0901174"><ele>90.0</ele><time>2026-04-29T09:15:53.549Z</time></trkpt><trkpt lat="33.4579196" lon="9.0898724"><ele>90.0</ele><time>2026-04-29T09:15:54.557Z</time></trkpt><trkpt lat="33.457898" lon="9.0896255"><ele>90.0</ele><time>2026-04-29T09:15:55.518Z</time></trkpt><trkpt lat="33.4578717" lon="9.0893755"><ele>90.0</ele><time>2026-04-29T09:15:56.544Z</time></trkpt><trkpt lat="33.4578474" lon="9.089127"><ele>90.0</ele><time>2026-04-29T09:15:57.547Z</time></trkpt><trkpt lat="33.4578252" lon="9.0888773"><ele>90.0</ele><time>2026-04-29T09:15:58.543Z</time></trkpt><trkpt lat="33.457802" lon="9.088626"><ele>90.0</ele><time>2026-04-29T09:15:59.553Z</time></trkpt><trkpt lat="33.4577807" lon="9.0883782"><ele>90.0</ele><time>2026-04-29T09:16:00.547Z</time></trkpt><trkpt lat="33.4577612" lon="9.0881312"><ele>90.0</ele><time>2026-04-29T09:16:01.55Z</time></trkpt><trkpt lat="33.4577432" lon="9.0878787"><ele>90.0</ele><time>2026-04-29T09:16:02.542Z</time></trkpt><trkpt lat="33.4577188" lon="9.087624"><ele>90.0</ele><time>2026-04-29T09:16:03.552Z</time></trkpt><trkpt lat="33.4577046" lon="9.0873687"><ele>90.0</ele><time>2026-04-29T09:16:04.541Z</time></trkpt><trkpt lat="33.4576924" lon="9.0871164"><ele>90.0</ele><time>2026-04-29T09:16:05.556Z</time></trkpt><trkpt lat="33.4576882" lon="9.0868651"><ele>90.0</ele><time>2026-04-29T09:16:06.552Z</time></trkpt><trkpt lat="33.457683" lon="9.0866121"><ele>90.0</ele><time>2026-04-29T09:16:07.553Z</time></trkpt><trkpt lat="33.4576822" lon="9.0863596"><ele>89.33333333333333</ele><time>2026-04-29T09:16:08.558Z</time></trkpt><trkpt lat="33.457684" lon="9.086098"><ele>88.66666666666666</ele><time>2026-04-29T09:16:09.55Z</time></trkpt><trkpt lat="33.4576894" lon="9.0858455"><ele>88.0</ele><time>2026-04-29T09:16:10.546Z</time></trkpt><trkpt lat="33.457689" lon="9.085594"><ele>89.0</ele><time>2026-04-29T09:16:11.545Z</time></trkpt><trkpt lat="33.4576873" lon="9.0853421"><ele>90.0</ele><time>2026-04-29T09:16:12.551Z</time></trkpt><trkpt lat="33.4576861" lon="9.0850917"><ele>91.0</ele><time>2026-04-29T09:16:13.525Z</time></trkpt><trkpt lat="33.457684" lon="9.08484"><ele>91.0</ele><time>2026-04-29T09:16:14.527Z</time></trkpt><trkpt lat="33.4576847" lon="9.0845869"><ele>91.0</ele><time>2026-04-29T09:16:15.541Z</time></trkpt><trkpt lat="33.457694" lon="9.0843369"><ele>91.0</ele><time>2026-04-29T09:16:16.554Z</time></trkpt><trkpt lat="33.4577068" lon="9.0840878"><ele>91.66666666666666</ele><time>2026-04-29T09:16:17.524Z</time></trkpt><trkpt lat="33.4577218" lon="9.0838371"><ele>92.33333333333333</ele><time>2026-04-29T09:16:18.556Z</time></trkpt><trkpt lat="33.4577377" lon="9.0835868"><ele>93.0</ele><time>2026-04-29T09:16:19.556Z</time></trkpt><trkpt lat="33.4577516" lon="9.0833332"><ele>92.0</ele><time>2026-04-29T09:16:20.547Z</time></trkpt><trkpt lat="33.4577675" lon="9.0830795"><ele>91.0</ele><time>2026-04-29T09:16:21.521Z</time></trkpt><trkpt lat="33.4577844" lon="9.0828267"><ele>90.0</ele><time>2026-04-29T09:16:22.543Z</time></trkpt><trkpt lat="33.4577963" lon="9.0825736"><ele>89.66666666666667</ele><time>2026-04-29T09:16:23.559Z</time></trkpt><trkpt lat="33.45781" lon="9.0823223"><ele>89.33333333333334</ele><time>2026-04-29T09:16:24.537Z</time></trkpt><trkpt lat="33.4578251" lon="9.0820683"><ele>89.0</ele><time>2026-04-29T09:16:25.523Z</time></trkpt><trkpt lat="33.4578388" lon="9.0818114"><ele>89.66666666666667</ele><time>2026-04-29T09:16:26.546Z</time></trkpt><trkpt lat="33.4578533" lon="9.0815649"><ele>90.33333333333333</ele><time>2026-04-29T09:16:27.541Z</time></trkpt><trkpt lat="33.4578641" lon="9.0813183"><ele>91.0</ele><time>2026-04-29T09:16:28.553Z</time></trkpt><trkpt lat="33.4578802" lon="9.081066"><ele>91.0</ele><time>2026-04-29T09:16:29.544Z</time></trkpt><trkpt lat="33.4578935" lon="9.0808172"><ele>91.0</ele><time>2026-04-29T09:16:30.556Z</time></trkpt><trkpt lat="33.4579084" lon="9.0805622"><ele>91.0</ele><time>2026-04-29T09:16:31.539Z</time></trkpt><trkpt lat="33.4579216" lon="9.0803106"><ele>90.66666666666666</ele><time>2026-04-29T09:16:32.545Z</time></trkpt><trkpt lat="33.4579366" lon="9.0800657"><ele>90.33333333333333</ele><time>2026-04-29T09:16:33.566Z</time></trkpt><trkpt lat="33.4579554" lon="9.0798419"><ele>90.0</ele><time>2026-04-29T09:16:34.55Z</time></trkpt><trkpt lat="33.4579706" lon="9.079626"><ele>90.0</ele><time>2026-04-29T09:16:35.552Z</time></trkpt><trkpt lat="33.4579828" lon="9.0794191"><ele>90.0</ele><time>2026-04-29T09:16:36.538Z</time></trkpt><trkpt lat="33.4579967" lon="9.0792205"><ele>90.0</ele><time>2026-04-29T09:16:37.561Z</time></trkpt><trkpt lat="33.4580073" lon="9.0790331"><ele>89.0</ele><time>2026-04-29T09:16:38.559Z</time></trkpt><trkpt lat="33.4580165" lon="9.078852"><ele>88.0</ele><time>2026-04-29T09:16:39.547Z</time></trkpt><trkpt lat="33.4580246" lon="9.0786749"><ele>87.0</ele><time>2026-04-29T09:16:40.551Z</time></trkpt><trkpt lat="33.4580368" lon="9.0784928"><ele>87.0</ele><time>2026-04-29T09:16:41.552Z</time></trkpt><trkpt lat="33.4580438" lon="9.0783144"><ele>87.0</ele><time>2026-04-29T09:16:42.566Z</time></trkpt><trkpt lat="33.4580506" lon="9.0781522"><ele>87.0</ele><time>2026-04-29T09:16:43.551Z</time></trkpt><trkpt lat="33.4580597" lon="9.0780096"><ele>87.0</ele><time>2026-04-29T09:16:44.554Z</time></trkpt><trkpt lat="33.4580649" lon="9.0778738"><ele>87.0</ele><time>2026-04-29T09:16:45.529Z</time></trkpt><trkpt lat="33.4580731" lon="9.0777452"><ele>87.0</ele><time>2026-04-29T09:16:46.531Z</time></trkpt><trkpt lat="33.4580768" lon="9.077625"><ele>87.0</ele><time>2026-04-29T09:16:47.522Z</time></trkpt><trkpt lat="33.4580827" lon="9.077504"><ele>87.0</ele><time>2026-04-29T09:16:48.525Z</time></trkpt><trkpt lat="33.4580906" lon="9.0773804"><ele>87.0</ele><time>2026-04-29T09:16:49.549Z</time></trkpt><trkpt lat="33.4580992" lon="9.077263"><ele>87.0</ele><time>2026-04-29T09:16:50.524Z</time></trkpt><trkpt lat="33.458105" lon="9.0771461"><ele>87.0</ele><time>2026-04-29T09:16:51.552Z</time></trkpt><trkpt lat="33.458109" lon="9.0770262"><ele>87.0</ele><time>2026-04-29T09:16:52.555Z</time></trkpt><trkpt lat="33.4581146" lon="9.0768954"><ele>87.0</ele><time>2026-04-29T09:16:53.538Z</time></trkpt><trkpt lat="33.4581234" lon="9.0767584"><ele>87.0</ele><time>2026-04-29T09:16:54.549Z</time></trkpt><trkpt lat="33.4581292" lon="9.0766127"><ele>87.0</ele><time>2026-04-29T09:16:55.558Z</time></trkpt><trkpt lat="33.4581377" lon="9.0764553"><ele>87.0</ele><time>2026-04-29T09:16:56.549Z</time></trkpt><trkpt lat="33.4581445" lon="9.0762949"><ele>87.0</ele><time>2026-04-29T09:16:57.545Z</time></trkpt><trkpt lat="33.4581497" lon="9.0761354"><ele>87.0</ele><time>2026-04-29T09:16:58.55Z</time></trkpt><trkpt lat="33.4581555" lon="9.0759685"><ele>87.0</ele><time>2026-04-29T09:16:59.54Z</time></trkpt><trkpt lat="33.4581644" lon="9.0757972"><ele>87.0</ele><time>2026-04-29T09:17:00.557Z</time></trkpt><trkpt lat="33.4581749" lon="9.0756223"><ele>87.0</ele><time>2026-04-29T09:17:01.549Z</time></trkpt><trkpt lat="33.4581876" lon="9.0754419"><ele>87.0</ele><time>2026-04-29T09:17:02.549Z</time></trkpt><trkpt lat="33.4582028" lon="9.0752579"><ele>87.0</ele><time>2026-04-29T09:17:03.549Z</time></trkpt><trkpt lat="33.4582156" lon="9.0750699"><ele>87.0</ele><time>2026-04-29T09:17:04.556Z</time></trkpt><trkpt lat="33.4582226" lon="9.0748885"><ele>87.0</ele><time>2026-04-29T09:17:05.544Z</time></trkpt><trkpt lat="33.4582326" lon="9.0746989"><ele>87.0</ele><time>2026-04-29T09:17:06.565Z</time></trkpt><trkpt lat="33.458245" lon="9.0745054"><ele>87.0</ele><time>2026-04-29T09:17:07.549Z</time></trkpt><trkpt lat="33.4582559" lon="9.0743132"><ele>87.0</ele><time>2026-04-29T09:17:08.558Z</time></trkpt><trkpt lat="33.4582667" lon="9.0741146"><ele>86.33333333333333</ele><time>2026-04-29T09:17:09.545Z</time></trkpt><trkpt lat="33.458273" lon="9.0739203"><ele>85.66666666666666</ele><time>2026-04-29T09:17:10.549Z</time></trkpt><trkpt lat="33.4582806" lon="9.0737225"><ele>85.0</ele><time>2026-04-29T09:17:11.562Z</time></trkpt><trkpt lat="33.4582885" lon="9.0735229"><ele>85.0</ele><time>2026-04-29T09:17:12.559Z</time></trkpt><trkpt lat="33.4582968" lon="9.0733224"><ele>85.0</ele><time>2026-04-29T09:17:13.555Z</time></trkpt><trkpt lat="33.4583102" lon="9.073112"><ele>85.0</ele><time>2026-04-29T09:17:14.544Z</time></trkpt><trkpt lat="33.458323" lon="9.0729036"><ele>84.33333333333333</ele><time>2026-04-29T09:17:15.533Z</time></trkpt><trkpt lat="33.4583345" lon="9.0726929"><ele>83.66666666666667</ele><time>2026-04-29T09:17:16.544Z</time></trkpt><trkpt lat="33.4583438" lon="9.0724807"><ele>83.0</ele><time>2026-04-29T09:17:17.541Z</time></trkpt><trkpt lat="33.4583519" lon="9.072259"><ele>83.0</ele><time>2026-04-29T09:17:18.547Z</time></trkpt><trkpt lat="33.4583641" lon="9.0720392"><ele>83.0</ele><time>2026-04-29T09:17:19.538Z</time></trkpt><trkpt lat="33.458377" lon="9.0718149"><ele>83.0</ele><time>2026-04-29T09:17:20.539Z</time></trkpt><trkpt lat="33.4583931" lon="9.071595"><ele>82.0</ele><time>2026-04-29T09:17:21.539Z</time></trkpt><trkpt lat="33.4584061" lon="9.071372"><ele>81.0</ele><time>2026-04-29T09:17:22.54Z</time></trkpt><trkpt lat="33.4584199" lon="9.071148"><ele>80.0</ele><time>2026-04-29T09:17:23.544Z</time></trkpt><trkpt lat="33.4584291" lon="9.0709225"><ele>80.66666666666667</ele><time>2026-04-29T09:17:24.524Z</time></trkpt><trkpt lat="33.4584442" lon="9.0707002"><ele>81.33333333333333</ele><time>2026-04-29T09:17:25.553Z</time></trkpt><trkpt lat="33.4584564" lon="9.0704758"><ele>82.0</ele><time>2026-04-29T09:17:26.519Z</time></trkpt><trkpt lat="33.4584673" lon="9.07025"><ele>82.0</ele><time>2026-04-29T09:17:27.507Z</time></trkpt><trkpt lat="33.4584813" lon="9.0700246"><ele>82.0</ele><time>2026-04-29T09:17:28.539Z</time></trkpt><trkpt lat="33.4584915" lon="9.0698008"><ele>82.0</ele><time>2026-04-29T09:17:29.524Z</time></trkpt><trkpt lat="33.4584983" lon="9.0695803"><ele>81.33333333333333</ele><time>2026-04-29T09:17:30.519Z</time></trkpt><trkpt lat="33.4585098" lon="9.0693604"><ele>80.66666666666667</ele><time>2026-04-29T09:17:31.526Z</time></trkpt><trkpt lat="33.4585224" lon="9.0691426"><ele>80.0</ele><time>2026-04-29T09:17:32.521Z</time></trkpt><trkpt lat="33.458534" lon="9.0689195"><ele>79.66666666666667</ele><time>2026-04-29T09:17:33.518Z</time></trkpt><trkpt lat="33.4585466" lon="9.0686954"><ele>79.33333333333333</ele><time>2026-04-29T09:17:34.557Z</time></trkpt><trkpt lat="33.4585571" lon="9.0684803"><ele>79.0</ele><time>2026-04-29T09:17:35.523Z</time></trkpt><trkpt lat="33.4585678" lon="9.0682618"><ele>79.0</ele><time>2026-04-29T09:17:36.526Z</time></trkpt><trkpt lat="33.4585795" lon="9.0680417"><ele>79.0</ele><time>2026-04-29T09:17:37.524Z</time></trkpt><trkpt lat="33.4585909" lon="9.067823"><ele>79.0</ele><time>2026-04-29T09:17:38.526Z</time></trkpt><trkpt lat="33.4586033" lon="9.0676024"><ele>78.66666666666666</ele><time>2026-04-29T09:17:39.519Z</time></trkpt><trkpt lat="33.458614" lon="9.0673846"><ele>78.33333333333333</ele><time>2026-04-29T09:17:40.532Z</time></trkpt><trkpt lat="33.4586278" lon="9.067165"><ele>78.0</ele><time>2026-04-29T09:17:41.521Z</time></trkpt><trkpt lat="33.4586387" lon="9.0669435"><ele>78.0</ele><time>2026-04-29T09:17:42.518Z</time></trkpt><trkpt lat="33.4586462" lon="9.0667187"><ele>78.0</ele><time>2026-04-29T09:17:43.518Z</time></trkpt><trkpt lat="33.4586613" lon="9.066496"><ele>78.0</ele><time>2026-04-29T09:17:44.517Z</time></trkpt><trkpt lat="33.458676" lon="9.066274"><ele>77.66666666666667</ele><time>2026-04-29T09:17:45.522Z</time></trkpt><trkpt lat="33.4586874" lon="9.0660541"><ele>77.33333333333334</ele><time>2026-04-29T09:17:46.514Z</time></trkpt><trkpt lat="33.4587014" lon="9.0658274"><ele>77.0</ele><time>2026-04-29T09:17:47.518Z</time></trkpt><trkpt lat="33.4587104" lon="9.0655981"><ele>77.0</ele><time>2026-04-29T09:17:48.509Z</time></trkpt><trkpt lat="33.4587225" lon="9.0653737"><ele>77.0</ele><time>2026-04-29T09:17:49.522Z</time></trkpt><trkpt lat="33.4587303" lon="9.0651494"><ele>77.0</ele><time>2026-04-29T09:17:50.52Z</time></trkpt><trkpt lat="33.4587427" lon="9.0649238"><ele>77.0</ele><time>2026-04-29T09:17:51.518Z</time></trkpt><trkpt lat="33.4587567" lon="9.0646952"><ele>77.0</ele><time>2026-04-29T09:17:52.518Z</time></trkpt><trkpt lat="33.4587681" lon="9.0644654"><ele>77.0</ele><time>2026-04-29T09:17:53.52Z</time></trkpt><trkpt lat="33.4587815" lon="9.0642315"><ele>75.66666666666667</ele><time>2026-04-29T09:17:54.524Z</time></trkpt><trkpt lat="33.458796" lon="9.0639982"><ele>74.33333333333333</ele><time>2026-04-29T09:17:55.528Z</time></trkpt><trkpt lat="33.458807" lon="9.0637596"><ele>73.0</ele><time>2026-04-29T09:17:56.533Z</time></trkpt><trkpt lat="33.4588212" lon="9.0635241"><ele>73.0</ele><time>2026-04-29T09:17:57.522Z</time></trkpt><trkpt lat="33.4588296" lon="9.0632857"><ele>73.0</ele><time>2026-04-29T09:17:58.522Z</time></trkpt><trkpt lat="33.4588416" lon="9.0630522"><ele>73.0</ele><time>2026-04-29T09:17:59.522Z</time></trkpt><trkpt lat="33.4588566" lon="9.0628226"><ele>73.0</ele><time>2026-04-29T09:18:00.521Z</time></trkpt><trkpt lat="33.4588666" lon="9.0625932"><ele>73.0</ele><time>2026-04-29T09:18:01.517Z</time></trkpt><trkpt lat="33.4588785" lon="9.0623604"><ele>73.0</ele><time>2026-04-29T09:18:02.526Z</time></trkpt><trkpt lat="33.4588905" lon="9.0621261"><ele>72.66666666666666</ele><time>2026-04-29T09:18:03.508Z</time></trkpt><trkpt lat="33.458907" lon="9.0618944"><ele>72.33333333333333</ele><time>2026-04-29T09:18:04.527Z</time></trkpt><trkpt lat="33.4589229" lon="9.0616609"><ele>72.0</ele><time>2026-04-29T09:18:05.513Z</time></trkpt><trkpt lat="33.4589359" lon="9.0614294"><ele>72.0</ele><time>2026-04-29T09:18:06.531Z</time></trkpt><trkpt lat="33.4589486" lon="9.0611961"><ele>72.0</ele><time>2026-04-29T09:18:07.522Z</time></trkpt><trkpt lat="33.4589628" lon="9.0609633"><ele>72.0</ele><time>2026-04-29T09:18:08.524Z</time></trkpt><trkpt lat="33.4589745" lon="9.0607296"><ele>72.0</ele><time>2026-04-29T09:18:09.524Z</time></trkpt><trkpt lat="33.4589864" lon="9.0604945"><ele>72.0</ele><time>2026-04-29T09:18:10.529Z</time></trkpt><trkpt lat="33.4589995" lon="9.0602657"><ele>72.0</ele><time>2026-04-29T09:18:11.521Z</time></trkpt><trkpt lat="33.4590122" lon="9.0600417"><ele>72.33333333333333</ele><time>2026-04-29T09:18:12.522Z</time></trkpt><trkpt lat="33.4590258" lon="9.0598282"><ele>72.66666666666666</ele><time>2026-04-29T09:18:13.528Z</time></trkpt><trkpt lat="33.459036" lon="9.0596243"><ele>73.0</ele><time>2026-04-29T09:18:14.526Z</time></trkpt><trkpt lat="33.4590488" lon="9.0594254"><ele>73.0</ele><time>2026-04-29T09:18:15.537Z</time></trkpt><trkpt lat="33.4590593" lon="9.0592278"><ele>73.0</ele><time>2026-04-29T09:18:16.516Z</time></trkpt><trkpt lat="33.4590674" lon="9.0590286"><ele>73.0</ele><time>2026-04-29T09:18:17.516Z</time></trkpt><trkpt lat="33.4590762" lon="9.0588258"><ele>73.0</ele><time>2026-04-29T09:18:18.518Z</time></trkpt><trkpt lat="33.4590868" lon="9.0586227"><ele>73.0</ele><time>2026-04-29T09:18:19.514Z</time></trkpt><trkpt lat="33.4591013" lon="9.0584187"><ele>73.0</ele><time>2026-04-29T09:18:20.521Z</time></trkpt><trkpt lat="33.4591145" lon="9.0582176"><ele>73.0</ele><time>2026-04-29T09:18:21.52Z</time></trkpt><trkpt lat="33.4591302" lon="9.0580113"><ele>73.0</ele><time>2026-04-29T09:18:22.528Z</time></trkpt><trkpt lat="33.4591453" lon="9.0578099"><ele>73.0</ele><time>2026-04-29T09:18:23.526Z</time></trkpt><trkpt lat="33.4591576" lon="9.0576035"><ele>71.66666666666666</ele><time>2026-04-29T09:18:24.522Z</time></trkpt><trkpt lat="33.4591711" lon="9.0573946"><ele>70.33333333333333</ele><time>2026-04-29T09:18:25.525Z</time></trkpt><trkpt lat="33.4591804" lon="9.0571839"><ele>69.0</ele><time>2026-04-29T09:18:26.521Z</time></trkpt><trkpt lat="33.4591862" lon="9.0569734"><ele>69.0</ele><time>2026-04-29T09:18:27.522Z</time></trkpt><trkpt lat="33.4591981" lon="9.0567581"><ele>69.0</ele><time>2026-04-29T09:18:28.52Z</time></trkpt><trkpt lat="33.4592112" lon="9.0565383"><ele>69.0</ele><time>2026-04-29T09:18:29.517Z</time></trkpt><trkpt lat="33.4592249" lon="9.0563181"><ele>69.0</ele><time>2026-04-29T09:18:30.52Z</time></trkpt><trkpt lat="33.4592406" lon="9.0560952"><ele>69.0</ele><time>2026-04-29T09:18:31.523Z</time></trkpt><trkpt lat="33.4592524" lon="9.0558691"><ele>69.0</ele><time>2026-04-29T09:18:32.526Z</time></trkpt><trkpt lat="33.4592654" lon="9.0556428"><ele>69.0</ele><time>2026-04-29T09:18:33.514Z</time></trkpt><trkpt lat="33.4592763" lon="9.0554173"><ele>69.0</ele><time>2026-04-29T09:18:34.523Z</time></trkpt><trkpt lat="33.4592879" lon="9.0551937"><ele>69.0</ele><time>2026-04-29T09:18:35.52Z</time></trkpt><trkpt lat="33.4593006" lon="9.0549708"><ele>69.0</ele><time>2026-04-29T09:18:36.519Z</time></trkpt><trkpt lat="33.4593144" lon="9.0547444"><ele>69.0</ele><time>2026-04-29T09:18:37.525Z</time></trkpt><trkpt lat="33.4593298" lon="9.0545186"><ele>69.0</ele><time>2026-04-29T09:18:38.521Z</time></trkpt><trkpt lat="33.4593384" lon="9.0542902"><ele>69.66666666666667</ele><time>2026-04-29T09:18:39.525Z</time></trkpt><trkpt lat="33.4593499" lon="9.0540646"><ele>70.33333333333334</ele><time>2026-04-29T09:18:40.532Z</time></trkpt><trkpt lat="33.4593606" lon="9.0538399"><ele>71.0</ele><time>2026-04-29T09:18:41.524Z</time></trkpt><trkpt lat="33.4593735" lon="9.0536141"><ele>71.0</ele><time>2026-04-29T09:18:42.523Z</time></trkpt><trkpt lat="33.4593868" lon="9.0533877"><ele>71.0</ele><time>2026-04-29T09:18:43.531Z</time></trkpt><trkpt lat="33.4594016" lon="9.053165"><ele>71.0</ele><time>2026-04-29T09:18:44.513Z</time></trkpt><trkpt lat="33.4594162" lon="9.0529422"><ele>71.33333333333334</ele><time>2026-04-29T09:18:45.515Z</time></trkpt><trkpt lat="33.4594219" lon="9.0527314"><ele>71.66666666666667</ele><time>2026-04-29T09:18:46.519Z</time></trkpt><trkpt lat="33.4594339" lon="9.052519"><ele>72.0</ele><time>2026-04-29T09:18:47.513Z</time></trkpt><trkpt lat="33.459447" lon="9.0523077"><ele>72.0</ele><time>2026-04-29T09:18:48.519Z</time></trkpt><trkpt lat="33.4594625" lon="9.0520968"><ele>72.0</ele><time>2026-04-29T09:18:49.519Z</time></trkpt><trkpt lat="33.4594743" lon="9.0518921"><ele>72.0</ele><time>2026-04-29T09:18:50.523Z</time></trkpt><trkpt lat="33.4594859" lon="9.0516917"><ele>72.33333333333333</ele><time>2026-04-29T09:18:51.52Z</time></trkpt><trkpt lat="33.459496" lon="9.0515038"><ele>72.66666666666666</ele><time>2026-04-29T09:18:52.527Z</time></trkpt><trkpt lat="33.4595042" lon="9.0513225"><ele>73.0</ele><time>2026-04-29T09:18:53.519Z</time></trkpt><trkpt lat="33.4595185" lon="9.0511421"><ele>73.0</ele><time>2026-04-29T09:18:54.529Z</time></trkpt><trkpt lat="33.4595267" lon="9.0509608"><ele>73.0</ele><time>2026-04-29T09:18:55.525Z</time></trkpt><trkpt lat="33.459536" lon="9.0507745"><ele>73.0</ele><time>2026-04-29T09:18:56.523Z</time></trkpt><trkpt lat="33.4595407" lon="9.0505878"><ele>73.33333333333333</ele><time>2026-04-29T09:18:57.528Z</time></trkpt><trkpt lat="33.4595508" lon="9.0503986"><ele>73.66666666666667</ele><time>2026-04-29T09:18:58.52Z</time></trkpt><trkpt lat="33.4595603" lon="9.0502077"><ele>74.0</ele><time>2026-04-29T09:18:59.523Z</time></trkpt><trkpt lat="33.4595711" lon="9.050019"><ele>74.0</ele><time>2026-04-29T09:19:00.52Z</time></trkpt><trkpt lat="33.4595789" lon="9.0498261"><ele>74.0</ele><time>2026-04-29T09:19:01.523Z</time></trkpt><trkpt lat="33.4595816" lon="9.0496399"><ele>74.0</ele><time>2026-04-29T09:19:02.531Z</time></trkpt><trkpt lat="33.4595919" lon="9.0494518"><ele>74.0</ele><time>2026-04-29T09:19:03.518Z</time></trkpt><trkpt lat="33.4596007" lon="9.0492704"><ele>74.0</ele><time>2026-04-29T09:19:04.529Z</time></trkpt><trkpt lat="33.4596078" lon="9.0490867"><ele>74.0</ele><time>2026-04-29T09:19:05.516Z</time></trkpt><trkpt lat="33.4596121" lon="9.0489037"><ele>72.75</ele><time>2026-04-29T09:19:06.517Z</time></trkpt><trkpt lat="33.4596182" lon="9.0487288"><ele>71.5</ele><time>2026-04-29T09:19:07.515Z</time></trkpt><trkpt lat="33.4596259" lon="9.0485519"><ele>70.25</ele><time>2026-04-29T09:19:08.518Z</time></trkpt><trkpt lat="33.4596344" lon="9.0483756"><ele>69.0</ele><time>2026-04-29T09:19:09.508Z</time></trkpt><trkpt lat="33.4596456" lon="9.048198"><ele>69.0</ele><time>2026-04-29T09:19:10.547Z</time></trkpt><trkpt lat="33.4596578" lon="9.048023"><ele>69.0</ele><time>2026-04-29T09:19:11.573Z</time></trkpt><trkpt lat="33.4596694" lon="9.0478451"><ele>69.0</ele><time>2026-04-29T09:19:12.56Z</time></trkpt><trkpt lat="33.4596787" lon="9.0476681"><ele>69.0</ele><time>2026-04-29T09:19:13.546Z</time></trkpt><trkpt lat="33.4596939" lon="9.0474916"><ele>68.5</ele><time>2026-04-29T09:19:14.513Z</time></trkpt><trkpt lat="33.4597029" lon="9.0473098"><ele>68.0</ele><time>2026-04-29T09:19:15.532Z</time></trkpt><trkpt lat="33.4597102" lon="9.0471328"><ele>67.5</ele><time>2026-04-29T09:19:16.52Z</time></trkpt><trkpt lat="33.4597212" lon="9.0469591"><ele>67.0</ele><time>2026-04-29T09:19:17.526Z</time></trkpt><trkpt lat="33.459728" lon="9.0467924"><ele>67.0</ele><time>2026-04-29T09:19:18.522Z</time></trkpt><trkpt lat="33.4597327" lon="9.0466308"><ele>67.0</ele><time>2026-04-29T09:19:19.519Z</time></trkpt><trkpt lat="33.4597385" lon="9.046476"><ele>67.0</ele><time>2026-04-29T09:19:20.526Z</time></trkpt><trkpt lat="33.4597467" lon="9.046323"><ele>67.0</ele><time>2026-04-29T09:19:21.524Z</time></trkpt><trkpt lat="33.459756" lon="9.046166"><ele>67.25</ele><time>2026-04-29T09:19:22.526Z</time></trkpt><trkpt lat="33.4597675" lon="9.0460121"><ele>67.5</ele><time>2026-04-29T09:19:23.525Z</time></trkpt><trkpt lat="33.4597743" lon="9.0458498"><ele>67.75</ele><time>2026-04-29T09:19:24.531Z</time></trkpt><trkpt lat="33.459787" lon="9.0456894"><ele>68.0</ele><time>2026-04-29T09:19:25.524Z</time></trkpt><trkpt lat="33.4597955" lon="9.0455333"><ele>67.5</ele><time>2026-04-29T09:19:26.538Z</time></trkpt><trkpt lat="33.459801" lon="9.0453835"><ele>67.0</ele><time>2026-04-29T09:19:27.518Z</time></trkpt><trkpt lat="33.4598069" lon="9.0452324"><ele>66.5</ele><time>2026-04-29T09:19:28.522Z</time></trkpt><trkpt lat="33.4598126" lon="9.0450778"><ele>66.0</ele><time>2026-04-29T09:19:29.516Z</time></trkpt><trkpt lat="33.4598181" lon="9.044925"><ele>66.0</ele><time>2026-04-29T09:19:30.556Z</time></trkpt><trkpt lat="33.4598297" lon="9.0447719"><ele>66.0</ele><time>2026-04-29T09:19:31.52Z</time></trkpt><trkpt lat="33.4598358" lon="9.0446239"><ele>66.0</ele><time>2026-04-29T09:19:32.523Z</time></trkpt><trkpt lat="33.4598425" lon="9.044485"><ele>66.0</ele><time>2026-04-29T09:19:33.518Z</time></trkpt><trkpt lat="33.4598471" lon="9.0443553"><ele>66.0</ele><time>2026-04-29T09:19:34.525Z</time></trkpt><trkpt lat="33.4598544" lon="9.0442291"><ele>66.0</ele><time>2026-04-29T09:19:35.516Z</time></trkpt><trkpt lat="33.4598548" lon="9.0441052"><ele>66.0</ele><time>2026-04-29T09:19:36.512Z</time></trkpt><trkpt lat="33.4598559" lon="9.0439849"><ele>66.0</ele><time>2026-04-29T09:19:37.527Z</time></trkpt><trkpt lat="33.459859" lon="9.0438631"><ele>66.0</ele><time>2026-04-29T09:19:38.524Z</time></trkpt><trkpt lat="33.4598651" lon="9.043743"><ele>66.6</ele><time>2026-04-29T09:19:39.527Z</time></trkpt><trkpt lat="33.4598695" lon="9.0436153"><ele>67.19999999999999</ele><time>2026-04-29T09:19:40.521Z</time></trkpt><trkpt lat="33.4598767" lon="9.0434893"><ele>67.80000000000001</ele><time>2026-04-29T09:19:41.529Z</time></trkpt><trkpt lat="33.459887" lon="9.0433696"><ele>68.4</ele><time>2026-04-29T09:19:42.526Z</time></trkpt><trkpt lat="33.4598968" lon="9.0432487"><ele>69.0</ele><time>2026-04-29T09:19:43.513Z</time></trkpt><trkpt lat="33.4599037" lon="9.0431234"><ele>69.25</ele><time>2026-04-29T09:19:44.529Z</time></trkpt><trkpt lat="33.4599147" lon="9.0429897"><ele>69.5</ele><time>2026-04-29T09:19:45.521Z</time></trkpt><trkpt lat="33.4599226" lon="9.0428514"><ele>69.75</ele><time>2026-04-29T09:19:46.521Z</time></trkpt><trkpt lat="33.4599291" lon="9.0427108"><ele>70.0</ele><time>2026-04-29T09:19:47.516Z</time></trkpt><trkpt lat="33.4599405" lon="9.0425696"><ele>70.0</ele><time>2026-04-29T09:19:48.527Z</time></trkpt><trkpt lat="33.4599477" lon="9.0424246"><ele>70.0</ele><time>2026-04-29T09:19:49.519Z</time></trkpt><trkpt lat="33.459957" lon="9.0422788"><ele>70.0</ele><time>2026-04-29T09:19:50.517Z</time></trkpt><trkpt lat="33.4599675" lon="9.0421329"><ele>70.0</ele><time>2026-04-29T09:19:51.529Z</time></trkpt><trkpt lat="33.4599755" lon="9.0419893"><ele>70.0</ele><time>2026-04-29T09:19:52.519Z</time></trkpt><trkpt lat="33.459987" lon="9.0418418"><ele>70.0</ele><time>2026-04-29T09:19:53.525Z</time></trkpt><trkpt lat="33.4599962" lon="9.0416958"><ele>70.0</ele><time>2026-04-29T09:19:54.516Z</time></trkpt><trkpt lat="33.460007" lon="9.0415515"><ele>70.0</ele><time>2026-04-29T09:19:55.512Z</time></trkpt><trkpt lat="33.4600142" lon="9.0414082"><ele>69.75</ele><time>2026-04-29T09:19:56.528Z</time></trkpt><trkpt lat="33.4600222" lon="9.0412631"><ele>69.5</ele><time>2026-04-29T09:19:57.508Z</time></trkpt><trkpt lat="33.4600313" lon="9.0411238"><ele>69.25</ele><time>2026-04-29T09:19:58.521Z</time></trkpt><trkpt lat="33.4600403" lon="9.0409837"><ele>69.0</ele><time>2026-04-29T09:19:59.521Z</time></trkpt><trkpt lat="33.4600464" lon="9.0408488"><ele>69.2</ele><time>2026-04-29T09:20:00.523Z</time></trkpt><trkpt lat="33.4600535" lon="9.0407183"><ele>69.4</ele><time>2026-04-29T09:20:01.517Z</time></trkpt><trkpt lat="33.4600594" lon="9.0405942"><ele>69.6</ele><time>2026-04-29T09:20:02.528Z</time></trkpt><trkpt lat="33.4600623" lon="9.040481"><ele>69.8</ele><time>2026-04-29T09:20:03.52Z</time></trkpt><trkpt lat="33.460064" lon="9.040388"><ele>70.0</ele><time>2026-04-29T09:20:04.529Z</time></trkpt><trkpt lat="33.4600664" lon="9.0403071"><ele>70.0</ele><time>2026-04-29T09:20:05.525Z</time></trkpt><trkpt lat="33.4600634" lon="9.0402266"><ele>70.0</ele><time>2026-04-29T09:20:06.527Z</time></trkpt><trkpt lat="33.4600535" lon="9.0400867"><ele>70.0</ele><time>2026-04-29T09:20:08.512Z</time></trkpt><trkpt lat="33.4600496" lon="9.0400062"><ele>70.0</ele><time>2026-04-29T09:20:09.526Z</time></trkpt><trkpt lat="33.4600512" lon="9.0399138"><ele>70.0</ele><time>2026-04-29T09:20:10.544Z</time></trkpt><trkpt lat="33.4600443" lon="9.039823"><ele>70.0</ele><time>2026-04-29T09:20:11.525Z</time></trkpt><trkpt lat="33.460038" lon="9.0397203"><ele>69.16666666666666</ele><time>2026-04-29T09:20:12.525Z</time></trkpt><trkpt lat="33.4600327" lon="9.0396178"><ele>68.33333333333333</ele><time>2026-04-29T09:20:13.559Z</time></trkpt><trkpt lat="33.4600346" lon="9.0395174"><ele>67.5</ele><time>2026-04-29T09:20:14.513Z</time></trkpt><trkpt lat="33.4600317" lon="9.0394099"><ele>66.66666666666667</ele><time>2026-04-29T09:20:15.521Z</time></trkpt><trkpt lat="33.4600268" lon="9.0393056"><ele>65.83333333333334</ele><time>2026-04-29T09:20:16.513Z</time></trkpt><trkpt lat="33.4600212" lon="9.0392015"><ele>65.0</ele><time>2026-04-29T09:20:17.528Z</time></trkpt><trkpt lat="33.4600133" lon="9.0391015"><ele>64.83333333333334</ele><time>2026-04-29T09:20:18.523Z</time></trkpt><trkpt lat="33.460014" lon="9.0389982"><ele>64.66666666666667</ele><time>2026-04-29T09:20:19.52Z</time></trkpt><trkpt lat="33.4600091" lon="9.0388962"><ele>64.5</ele><time>2026-04-29T09:20:20.525Z</time></trkpt><trkpt lat="33.4600057" lon="9.0387952"><ele>64.33333333333333</ele><time>2026-04-29T09:20:21.509Z</time></trkpt><trkpt lat="33.4599953" lon="9.0386964"><ele>64.16666666666666</ele><time>2026-04-29T09:20:22.512Z</time></trkpt><trkpt lat="33.4599805" lon="9.0386032"><ele>64.0</ele><time>2026-04-29T09:20:23.528Z</time></trkpt><trkpt lat="33.4599704" lon="9.0385114"><ele>63.99999999999999</ele><time>2026-04-29T09:20:24.525Z</time></trkpt><trkpt lat="33.4599668" lon="9.0384208"><ele>64.0</ele><time>2026-04-29T09:20:25.53Z</time></trkpt><trkpt lat="33.4599609" lon="9.0383283"><ele>64.0</ele><time>2026-04-29T09:20:26.522Z</time></trkpt><trkpt lat="33.4599591" lon="9.0382381"><ele>64.0</ele><time>2026-04-29T09:20:27.527Z</time></trkpt><trkpt lat="33.4599556" lon="9.0381522"><ele>63.99999999999999</ele><time>2026-04-29T09:20:28.522Z</time></trkpt><trkpt lat="33.4599528" lon="9.0380713"><ele>64.0</ele><time>2026-04-29T09:20:29.516Z</time></trkpt><trkpt lat="33.4599481" lon="9.0379271"><ele>64.2</ele><time>2026-04-29T09:20:31.523Z</time></trkpt><trkpt lat="33.4599408" lon="9.0377947"><ele>64.4</ele><time>2026-04-29T09:20:33.525Z</time></trkpt><trkpt lat="33.4599386" lon="9.0376427"><ele>64.6</ele><time>2026-04-29T09:20:35.531Z</time></trkpt><trkpt lat="33.4599403" lon="9.0375624"><ele>64.8</ele><time>2026-04-29T09:20:36.519Z</time></trkpt><trkpt lat="33.4599393" lon="9.0374781"><ele>65.0</ele><time>2026-04-29T09:20:37.523Z</time></trkpt><trkpt lat="33.4599395" lon="9.0373859"><ele>65.16666666666667</ele><time>2026-04-29T09:20:38.522Z</time></trkpt><trkpt lat="33.4599393" lon="9.0372953"><ele>65.33333333333334</ele><time>2026-04-29T09:20:39.525Z</time></trkpt><trkpt lat="33.4599416" lon="9.0371998"><ele>65.5</ele><time>2026-04-29T09:20:40.523Z</time></trkpt><trkpt lat="33.4599371" lon="9.0371021"><ele>65.66666666666667</ele><time>2026-04-29T09:20:41.529Z</time></trkpt><trkpt lat="33.4599336" lon="9.0370063"><ele>65.83333333333333</ele><time>2026-04-29T09:20:42.523Z</time></trkpt><trkpt lat="33.45993" lon="9.0369095"><ele>66.0</ele><time>2026-04-29T09:20:43.527Z</time></trkpt><trkpt lat="33.4599262" lon="9.036815"><ele>66.0</ele><time>2026-04-29T09:20:44.522Z</time></trkpt><trkpt lat="33.4599253" lon="9.0367259"><ele>66.0</ele><time>2026-04-29T09:20:45.511Z</time></trkpt><trkpt lat="33.4599261" lon="9.0366361"><ele>66.0</ele><time>2026-04-29T09:20:46.525Z</time></trkpt><trkpt lat="33.4599243" lon="9.0365518"><ele>66.0</ele><time>2026-04-29T09:20:47.523Z</time></trkpt><trkpt lat="33.4599295" lon="9.0364257"><ele>66.0</ele><time>2026-04-29T09:20:49.517Z</time></trkpt><trkpt lat="33.4599354" lon="9.036332"><ele>66.0</ele><time>2026-04-29T09:20:51.54Z</time></trkpt><trkpt lat="33.4599406" lon="9.03622"><ele>66.16666666666667</ele><time>2026-04-29T09:20:53.55Z</time></trkpt><trkpt lat="33.4599426" lon="9.0360861"><ele>66.33333333333333</ele><time>2026-04-29T09:20:55.523Z</time></trkpt><trkpt lat="33.459941" lon="9.0360062"><ele>66.5</ele><time>2026-04-29T09:20:56.545Z</time></trkpt><trkpt lat="33.4599413" lon="9.0359123"><ele>66.66666666666666</ele><time>2026-04-29T09:20:57.53Z</time></trkpt><trkpt lat="33.4599371" lon="9.0358158"><ele>66.83333333333333</ele><time>2026-04-29T09:20:58.518Z</time></trkpt><trkpt lat="33.4599372" lon="9.0357217"><ele>67.0</ele><time>2026-04-29T09:20:59.522Z</time></trkpt><trkpt lat="33.4599444" lon="9.0356318"><ele>67.33333333333333</ele><time>2026-04-29T09:21:00.522Z</time></trkpt><trkpt lat="33.4599532" lon="9.0355433"><ele>67.66666666666666</ele><time>2026-04-29T09:21:01.531Z</time></trkpt><trkpt lat="33.4599675" lon="9.0354539"><ele>68.0</ele><time>2026-04-29T09:21:02.531Z</time></trkpt><trkpt lat="33.4599775" lon="9.0353481"><ele>68.33333333333333</ele><time>2026-04-29T09:21:03.531Z</time></trkpt><trkpt lat="33.4599771" lon="9.0352283"><ele>68.66666666666667</ele><time>2026-04-29T09:21:04.528Z</time></trkpt><trkpt lat="33.4599805" lon="9.0351066"><ele>69.0</ele><time>2026-04-29T09:21:05.513Z</time></trkpt><trkpt lat="33.4599864" lon="9.0349807"><ele>69.0</ele><time>2026-04-29T09:21:06.521Z</time></trkpt><trkpt lat="33.459989" lon="9.0348602"><ele>69.0</ele><time>2026-04-29T09:21:07.512Z</time></trkpt><trkpt lat="33.459992" lon="9.034735"><ele>69.0</ele><time>2026-04-29T09:21:08.517Z</time></trkpt><trkpt lat="33.4599963" lon="9.034611"><ele>69.0</ele><time>2026-04-29T09:21:09.518Z</time></trkpt><trkpt lat="33.4600046" lon="9.0344897"><ele>69.0</ele><time>2026-04-29T09:21:10.52Z</time></trkpt><trkpt lat="33.4600078" lon="9.0343741"><ele>69.0</ele><time>2026-04-29T09:21:11.52Z</time></trkpt><trkpt lat="33.4600104" lon="9.0342697"><ele>69.0</ele><time>2026-04-29T09:21:12.52Z</time></trkpt><trkpt lat="33.4600132" lon="9.0341737"><ele>69.0</ele><time>2026-04-29T09:21:13.53Z</time></trkpt><trkpt lat="33.4600188" lon="9.0340882"><ele>69.0</ele><time>2026-04-29T09:21:14.531Z</time></trkpt><trkpt lat="33.4600292" lon="9.0339479"><ele>69.0</ele><time>2026-04-29T09:21:16.521Z</time></trkpt><trkpt lat="33.4600517" lon="9.0338184"><ele>69.0</ele><time>2026-04-29T09:21:18.516Z</time></trkpt><trkpt lat="33.4600576" lon="9.0337039"><ele>69.0</ele><time>2026-04-29T09:21:20.519Z</time></trkpt><trkpt lat="33.460056" lon="9.0335977"><ele>69.0</ele><time>2026-04-29T09:21:22.513Z</time></trkpt><trkpt lat="33.4600638" lon="9.0335025"><ele>69.0</ele><time>2026-04-29T09:21:24.533Z</time></trkpt><trkpt lat="33.4600709" lon="9.0333824"><ele>69.0</ele><time>2026-04-29T09:21:27.511Z</time></trkpt><trkpt lat="33.4600776" lon="9.0332732"><ele>69.0</ele><time>2026-04-29T09:21:29.519Z</time></trkpt><trkpt lat="33.4600798" lon="9.0331439"><ele>69.0</ele><time>2026-04-29T09:21:31.524Z</time></trkpt><trkpt lat="33.4600773" lon="9.0330159"><ele>69.0</ele><time>2026-04-29T09:21:33.519Z</time></trkpt><trkpt lat="33.4600768" lon="9.032881"><ele>69.0</ele><time>2026-04-29T09:21:35.52Z</time></trkpt><trkpt lat="33.4600794" lon="9.0327473"><ele>69.0</ele><time>2026-04-29T09:21:37.518Z</time></trkpt><trkpt lat="33.4600776" lon="9.0326342"><ele>69.0</ele><time>2026-04-29T09:21:39.55Z</time></trkpt><trkpt lat="33.4600858" lon="9.0325266"><ele>69.0</ele><time>2026-04-29T09:21:41.516Z</time></trkpt><trkpt lat="33.4600955" lon="9.032402"><ele>69.0</ele><time>2026-04-29T09:21:43.528Z</time></trkpt><trkpt lat="33.4601042" lon="9.0322546"><ele>69.0</ele><time>2026-04-29T09:21:45.515Z</time></trkpt><trkpt lat="33.4601112" lon="9.0321058"><ele>69.0</ele><time>2026-04-29T09:21:47.515Z</time></trkpt><trkpt lat="33.46011" lon="9.0320291"><ele>69.0</ele><time>2026-04-29T09:21:48.515Z</time></trkpt><trkpt lat="33.4601116" lon="9.0319519"><ele>69.0</ele><time>2026-04-29T09:21:49.512Z</time></trkpt><trkpt lat="33.4601122" lon="9.0318725"><ele>69.0</ele><time>2026-04-29T09:21:50.523Z</time></trkpt><trkpt lat="33.4601128" lon="9.0317914"><ele>69.0</ele><time>2026-04-29T09:21:51.513Z</time></trkpt><trkpt lat="33.4601127" lon="9.0317122"><ele>69.0</ele><time>2026-04-29T09:21:52.525Z</time></trkpt><trkpt lat="33.460115" lon="9.0316328"><ele>69.0</ele><time>2026-04-29T09:21:53.515Z</time></trkpt><trkpt lat="33.4601252" lon="9.0314821"><ele>69.0</ele><time>2026-04-29T09:21:55.518Z</time></trkpt><trkpt lat="33.4601346" lon="9.0313583"><ele>69.0</ele><time>2026-04-29T09:21:57.518Z</time></trkpt><trkpt lat="33.4601283" lon="9.031232"><ele>69.0</ele><time>2026-04-29T09:21:59.523Z</time></trkpt><trkpt lat="33.460123" lon="9.0310856"><ele>69.0</ele><time>2026-04-29T09:22:01.517Z</time></trkpt><trkpt lat="33.4601089" lon="9.0309377"><ele>69.0</ele><time>2026-04-29T09:22:03.512Z</time></trkpt><trkpt lat="33.4600961" lon="9.0308103"><ele>69.0</ele><time>2026-04-29T09:22:05.531Z</time></trkpt><trkpt lat="33.4600863" lon="9.0306946"><ele>69.0</ele><time>2026-04-29T09:22:07.516Z</time></trkpt><trkpt lat="33.4600744" lon="9.0305538"><ele>69.0</ele><time>2026-04-29T09:22:09.529Z</time></trkpt><trkpt lat="33.4600627" lon="9.0304581"><ele>69.0</ele><time>2026-04-29T09:22:10.521Z</time></trkpt><trkpt lat="33.4600515" lon="9.0303575"><ele>69.16666666666667</ele><time>2026-04-29T09:22:11.53Z</time></trkpt><trkpt lat="33.4600429" lon="9.030272"><ele>69.33333333333333</ele><time>2026-04-29T09:22:12.515Z</time></trkpt><trkpt lat="33.4600373" lon="9.0301422"><ele>69.5</ele><time>2026-04-29T09:22:14.524Z</time></trkpt><trkpt lat="33.460034" lon="9.0300444"><ele>69.66666666666666</ele><time>2026-04-29T09:22:16.515Z</time></trkpt><trkpt lat="33.4600206" lon="9.0299535"><ele>69.83333333333333</ele><time>2026-04-29T09:22:19.516Z</time></trkpt><trkpt lat="33.4600051" lon="9.02986"><ele>70.0</ele><time>2026-04-29T09:22:22.519Z</time></trkpt><trkpt lat="33.4599942" lon="9.0297842"><ele>70.0</ele><time>2026-04-29T09:22:24.52Z</time></trkpt><trkpt lat="33.4599825" lon="9.0296787"><ele>70.0</ele><time>2026-04-29T09:22:26.52Z</time></trkpt><trkpt lat="33.4599684" lon="9.02957"><ele>70.0</ele><time>2026-04-29T09:22:28.524Z</time></trkpt><trkpt lat="33.4599605" lon="9.0294657"><ele>70.0</ele><time>2026-04-29T09:22:30.547Z</time></trkpt><trkpt lat="33.4599601" lon="9.0293585"><ele>70.0</ele><time>2026-04-29T09:22:32.515Z</time></trkpt><trkpt lat="33.4599435" lon="9.0292457"><ele>70.2</ele><time>2026-04-29T09:22:34.525Z</time></trkpt><trkpt lat="33.4599229" lon="9.0291314"><ele>70.4</ele><time>2026-04-29T09:22:36.526Z</time></trkpt><trkpt lat="33.4598986" lon="9.0290075"><ele>70.6</ele><time>2026-04-29T09:22:38.52Z</time></trkpt><trkpt lat="33.4598618" lon="9.0288756"><ele>70.8</ele><time>2026-04-29T09:22:40.522Z</time></trkpt><trkpt lat="33.4598178" lon="9.0287626"><ele>71.0</ele><time>2026-04-29T09:22:42.519Z</time></trkpt><trkpt lat="33.4597691" lon="9.0286308"><ele>71.0</ele><time>2026-04-29T09:22:44.523Z</time></trkpt><trkpt lat="33.4597296" lon="9.0285185"><ele>71.0</ele><time>2026-04-29T09:22:46.522Z</time></trkpt><trkpt lat="33.4596718" lon="9.02843"><ele>71.0</ele><time>2026-04-29T09:22:48.517Z</time></trkpt><trkpt lat="33.4596248" lon="9.028349"><ele>71.0</ele><time>2026-04-29T09:22:50.517Z</time></trkpt><trkpt lat="33.4595775" lon="9.0282644"><ele>71.0</ele><time>2026-04-29T09:22:52.518Z</time></trkpt><trkpt lat="33.4595109" lon="9.0281603"><ele>71.0</ele><time>2026-04-29T09:22:54.522Z</time></trkpt><trkpt lat="33.4594551" lon="9.0280459"><ele>71.0</ele><time>2026-04-29T09:22:56.533Z</time></trkpt><trkpt lat="33.4593964" lon="9.027941"><ele>71.0</ele><time>2026-04-29T09:22:58.525Z</time></trkpt><trkpt lat="33.4593342" lon="9.0278375"><ele>71.0</ele><time>2026-04-29T09:23:00.526Z</time></trkpt><trkpt lat="33.4592654" lon="9.0277348"><ele>71.0</ele><time>2026-04-29T09:23:02.525Z</time></trkpt><trkpt lat="33.4591929" lon="9.02764"><ele>71.0</ele><time>2026-04-29T09:23:04.516Z</time></trkpt><trkpt lat="33.4591445" lon="9.0275649"><ele>71.0</ele><time>2026-04-29T09:23:06.526Z</time></trkpt><trkpt lat="33.459082" lon="9.0275043"><ele>71.0</ele><time>2026-04-29T09:23:10.517Z</time></trkpt><trkpt lat="33.4590405" lon="9.0274334"><ele>71.0</ele><time>2026-04-29T09:23:14.52Z</time></trkpt><trkpt lat="33.4590385" lon="9.0275174"><ele>71.0</ele><time>2026-04-29T09:24:02.526Z</time></trkpt><trkpt lat="33.4590786" lon="9.0275823"><ele>71.0</ele><time>2026-04-29T09:24:05.52Z</time></trkpt><trkpt lat="33.4590227" lon="9.027494"><ele>71.0</ele><time>2026-04-29T09:27:00.532Z</time></trkpt><trkpt lat="33.45896" lon="9.0273784"><ele>71.0</ele><time>2026-04-29T09:27:02.515Z</time></trkpt><trkpt lat="33.4589126" lon="9.0273236"><ele>71.0</ele><time>2026-04-29T09:27:03.52Z</time></trkpt><trkpt lat="33.4588654" lon="9.0272667"><ele>71.0</ele><time>2026-04-29T09:27:04.524Z</time></trkpt><trkpt lat="33.4588213" lon="9.0272125"><ele>71.0</ele><time>2026-04-29T09:27:05.52Z</time></trkpt><trkpt lat="33.4587293" lon="9.0271283"><ele>71.0</ele><time>2026-04-29T09:27:07.523Z</time></trkpt><trkpt lat="33.458641" lon="9.0270538"><ele>70.75</ele><time>2026-04-29T09:27:09.541Z</time></trkpt><trkpt lat="33.4585635" lon="9.026988"><ele>70.5</ele><time>2026-04-29T09:27:11.571Z</time></trkpt><trkpt lat="33.458477" lon="9.0269052"><ele>70.25</ele><time>2026-04-29T09:27:13.518Z</time></trkpt><trkpt lat="33.4583839" lon="9.0268122"><ele>70.0</ele><time>2026-04-29T09:27:15.542Z</time></trkpt><trkpt lat="33.4582839" lon="9.0267268"><ele>70.66666666666666</ele><time>2026-04-29T09:27:17.508Z</time></trkpt><trkpt lat="33.4580799" lon="9.0265444"><ele>71.33333333333333</ele><time>2026-04-29T09:27:22.554Z</time></trkpt><trkpt lat="33.4579937" lon="9.026475"><ele>72.0</ele><time>2026-04-29T09:27:24.534Z</time></trkpt><trkpt lat="33.457909" lon="9.0264017"><ele>72.0</ele><time>2026-04-29T09:27:26.51Z</time></trkpt><trkpt lat="33.4578167" lon="9.0263114"><ele>72.0</ele><time>2026-04-29T09:27:28.522Z</time></trkpt><trkpt lat="33.4577367" lon="9.0262247"><ele>72.0</ele><time>2026-04-29T09:27:30.522Z</time></trkpt><trkpt lat="33.4576514" lon="9.026157"><ele>72.0</ele><time>2026-04-29T09:27:32.531Z</time></trkpt><trkpt lat="33.4575554" lon="9.0260741"><ele>72.0</ele><time>2026-04-29T09:27:34.575Z</time></trkpt><trkpt lat="33.4574666" lon="9.0259674"><ele>72.0</ele><time>2026-04-29T09:27:36.538Z</time></trkpt><trkpt lat="33.4574249" lon="9.0259098"><ele>72.0</ele><time>2026-04-29T09:27:37.537Z</time></trkpt><trkpt lat="33.4573605" lon="9.0258072"><ele>72.0</ele><time>2026-04-29T09:27:39.549Z</time></trkpt><trkpt lat="33.4573049" lon="9.0257006"><ele>72.0</ele><time>2026-04-29T09:27:41.538Z</time></trkpt><trkpt lat="33.4572681" lon="9.0256092"><ele>72.0</ele><time>2026-04-29T09:27:43.551Z</time></trkpt><trkpt lat="33.4572289" lon="9.0255217"><ele>72.0</ele><time>2026-04-29T09:27:45.533Z</time></trkpt><trkpt lat="33.4572072" lon="9.0254504"><ele>71.85714285714286</ele><time>2026-04-29T09:27:47.545Z</time></trkpt><trkpt lat="33.4571878" lon="9.0253746"><ele>71.71428571428572</ele><time>2026-04-29T09:27:57.547Z</time></trkpt><trkpt lat="33.4571581" lon="9.0252945"><ele>71.57142857142857</ele><time>2026-04-29T09:28:01.543Z</time></trkpt><trkpt lat="33.4571604" lon="9.0252186"><ele>71.42857142857143</ele><time>2026-04-29T09:28:05.544Z</time></trkpt><trkpt lat="33.4571639" lon="9.0251237"><ele>71.28571428571428</ele><time>2026-04-29T09:28:12.544Z</time></trkpt><trkpt lat="33.4571547" lon="9.0250142"><ele>71.14285714285714</ele><time>2026-04-29T09:28:15.539Z</time></trkpt><trkpt lat="33.4571228" lon="9.0249417"><ele>71.0</ele><time>2026-04-29T09:28:17.541Z</time></trkpt><trkpt lat="33.4570806" lon="9.0248418"><ele>70.66666666666667</ele><time>2026-04-29T09:28:19.597Z</time></trkpt><trkpt lat="33.4570431" lon="9.024706"><ele>70.33333333333334</ele><time>2026-04-29T09:28:22.528Z</time></trkpt><trkpt lat="33.4570099" lon="9.0246048"><ele>70.0</ele><time>2026-04-29T09:28:24.558Z</time></trkpt><trkpt lat="33.4569771" lon="9.0245027"><ele>69.66666666666667</ele><time>2026-04-29T09:28:26.534Z</time></trkpt><trkpt lat="33.4569478" lon="9.0244254"><ele>69.33333333333333</ele><time>2026-04-29T09:28:28.563Z</time></trkpt><trkpt lat="33.4569187" lon="9.0243511"><ele>69.0</ele><time>2026-04-29T09:28:30.559Z</time></trkpt><trkpt lat="33.4568906" lon="9.0242512"><ele>69.0</ele><time>2026-04-29T09:28:32.539Z</time></trkpt><trkpt lat="33.4568497" lon="9.024159"><ele>69.0</ele><time>2026-04-29T09:28:34.543Z</time></trkpt><trkpt lat="33.4568117" lon="9.0240932"><ele>69.0</ele><time>2026-04-29T09:28:36.539Z</time></trkpt><trkpt lat="33.4567676" lon="9.0240235"><ele>69.0</ele><time>2026-04-29T09:28:38.553Z</time></trkpt><trkpt lat="33.456712" lon="9.0239494"><ele>69.0</ele><time>2026-04-29T09:28:40.548Z</time></trkpt><trkpt lat="33.4566343" lon="9.0238776"><ele>69.0</ele><time>2026-04-29T09:28:42.548Z</time></trkpt><trkpt lat="33.4565435" lon="9.0238055"><ele>68.8</ele><time>2026-04-29T09:28:44.536Z</time></trkpt><trkpt lat="33.456459" lon="9.0237362"><ele>68.60000000000001</ele><time>2026-04-29T09:28:46.553Z</time></trkpt><trkpt lat="33.45638" lon="9.0236818"><ele>68.4</ele><time>2026-04-29T09:28:48.532Z</time></trkpt><trkpt lat="33.4562872" lon="9.0236305"><ele>68.2</ele><time>2026-04-29T09:28:50.542Z</time></trkpt><trkpt lat="33.4562036" lon="9.023591"><ele>68.0</ele><time>2026-04-29T09:28:52.542Z</time></trkpt><trkpt lat="33.4561295" lon="9.0235681"><ele>68.33333333333334</ele><time>2026-04-29T09:28:54.541Z</time></trkpt><trkpt lat="33.4560568" lon="9.0235395"><ele>68.66666666666667</ele><time>2026-04-29T09:28:56.54Z</time></trkpt><trkpt lat="33.4559737" lon="9.0235013"><ele>69.0</ele><time>2026-04-29T09:28:58.545Z</time></trkpt><trkpt lat="33.4558842" lon="9.0234754"><ele>69.33333333333333</ele><time>2026-04-29T09:29:00.545Z</time></trkpt><trkpt lat="33.4558031" lon="9.0234468"><ele>69.66666666666666</ele><time>2026-04-29T09:29:02.535Z</time></trkpt><trkpt lat="33.4557224" lon="9.0234173"><ele>70.0</ele><time>2026-04-29T09:29:05.544Z</time></trkpt><trkpt lat="33.4556595" lon="9.0234009"><ele>70.0</ele><time>2026-04-29T09:29:08.541Z</time></trkpt><trkpt lat="33.4555926" lon="9.0234048"><ele>70.0</ele><time>2026-04-29T09:29:14.537Z</time></trkpt><trkpt lat="33.4555171" lon="9.0234479"><ele>70.0</ele><time>2026-04-29T09:36:04.516Z</time></trkpt><trkpt lat="33.4554494" lon="9.0233748"><ele>70.0</ele><time>2026-04-29T09:36:08.548Z</time></trkpt><trkpt lat="33.4553852" lon="9.0233512"><ele>70.0</ele><time>2026-04-29T09:36:10.524Z</time></trkpt><trkpt lat="33.4553195" lon="9.0233175"><ele>70.0</ele><time>2026-04-29T09:36:12.535Z</time></trkpt><trkpt lat="33.4552472" lon="9.0232761"><ele>70.2</ele><time>2026-04-29T09:36:15.539Z</time></trkpt><trkpt lat="33.4551721" lon="9.0232282"><ele>70.4</ele><time>2026-04-29T09:36:17.522Z</time></trkpt><trkpt lat="33.4550851" lon="9.0231718"><ele>70.6</ele><time>2026-04-29T09:36:19.544Z</time></trkpt><trkpt lat="33.4549905" lon="9.0231262"><ele>70.8</ele><time>2026-04-29T09:36:21.528Z</time></trkpt><trkpt lat="33.4548958" lon="9.0230725"><ele>71.0</ele><time>2026-04-29T09:36:23.537Z</time></trkpt><trkpt lat="33.4547993" lon="9.0230109"><ele>71.0</ele><time>2026-04-29T09:36:25.53Z</time></trkpt><trkpt lat="33.4547071" lon="9.0229526"><ele>71.0</ele><time>2026-04-29T09:36:27.534Z</time></trkpt><trkpt lat="33.4546231" lon="9.0229053"><ele>71.0</ele><time>2026-04-29T09:36:29.531Z</time></trkpt><trkpt lat="33.4545613" lon="9.0228707"><ele>71.0</ele><time>2026-04-29T09:36:31.546Z</time></trkpt><trkpt lat="33.4545093" lon="9.0228163"><ele>71.0</ele><time>2026-04-29T09:36:34.533Z</time></trkpt><trkpt lat="33.4544678" lon="9.0227459"><ele>71.0</ele><time>2026-04-29T09:45:15.51Z</time></trkpt><trkpt lat="33.4543986" lon="9.0226956"><ele>71.0</ele><time>2026-04-29T09:45:17.536Z</time></trkpt><trkpt lat="33.4542904" lon="9.022621"><ele>71.0</ele><time>2026-04-29T09:45:19.527Z</time></trkpt><trkpt lat="33.4541876" lon="9.0225534"><ele>71.0</ele><time>2026-04-29T09:45:21.549Z</time></trkpt><trkpt lat="33.4540971" lon="9.0224847"><ele>71.0</ele><time>2026-04-29T09:45:23.561Z</time></trkpt><trkpt lat="33.4540263" lon="9.0223963"><ele>71.0</ele><time>2026-04-29T09:45:25.541Z</time></trkpt><trkpt lat="33.4539596" lon="9.0223037"><ele>71.0</ele><time>2026-04-29T09:45:27.544Z</time></trkpt><trkpt lat="33.4538918" lon="9.0221977"><ele>71.0</ele><time>2026-04-29T09:45:29.539Z</time></trkpt><trkpt lat="33.4538527" lon="9.0221359"><ele>71.0</ele><time>2026-04-29T09:45:30.512Z</time></trkpt><trkpt lat="33.4537784" lon="9.0220183"><ele>71.0</ele><time>2026-04-29T09:45:32.51Z</time></trkpt><trkpt lat="33.453739" lon="9.0219512"><ele>71.2</ele><time>2026-04-29T09:45:33.515Z</time></trkpt><trkpt lat="33.4536942" lon="9.0218861"><ele>71.39999999999999</ele><time>2026-04-29T09:45:34.51Z</time></trkpt><trkpt lat="33.453614" lon="9.021771"><ele>71.6</ele><time>2026-04-29T09:45:36.537Z</time></trkpt><trkpt lat="33.453573" lon="9.021712"><ele>71.8</ele><time>2026-04-29T09:45:37.542Z</time></trkpt><trkpt lat="33.4534955" lon="9.0216082"><ele>72.0</ele><time>2026-04-29T09:45:39.559Z</time></trkpt><trkpt lat="33.4534362" lon="9.0215145"><ele>72.33333333333333</ele><time>2026-04-29T09:45:41.542Z</time></trkpt><trkpt lat="33.4533749" lon="9.0214192"><ele>72.66666666666667</ele><time>2026-04-29T09:45:43.559Z</time></trkpt><trkpt lat="33.4533393" lon="9.0213548"><ele>73.0</ele><time>2026-04-29T09:45:44.556Z</time></trkpt><trkpt lat="33.4533018" lon="9.0212852"><ele>73.33333333333334</ele><time>2026-04-29T09:45:45.527Z</time></trkpt><trkpt lat="33.4532555" lon="9.0212072"><ele>73.66666666666667</ele><time>2026-04-29T09:45:46.522Z</time></trkpt><trkpt lat="33.4532079" lon="9.0211235"><ele>74.0</ele><time>2026-04-29T09:45:47.507Z</time></trkpt><trkpt lat="33.4531641" lon="9.0210416"><ele>74.0</ele><time>2026-04-29T09:45:48.519Z</time></trkpt><trkpt lat="33.453119" lon="9.0209561"><ele>74.0</ele><time>2026-04-29T09:45:49.543Z</time></trkpt><trkpt lat="33.4530826" lon="9.0208783"><ele>74.0</ele><time>2026-04-29T09:45:50.578Z</time></trkpt><trkpt lat="33.4530458" lon="9.0208012"><ele>74.0</ele><time>2026-04-29T09:45:51.572Z</time></trkpt><trkpt lat="33.4530038" lon="9.020728"><ele>74.0</ele><time>2026-04-29T09:45:52.571Z</time></trkpt><trkpt lat="33.4529643" lon="9.0206454"><ele>74.0</ele><time>2026-04-29T09:45:53.59Z</time></trkpt><trkpt lat="33.4529275" lon="9.0205547"><ele>74.16666666666667</ele><time>2026-04-29T09:45:54.571Z</time></trkpt><trkpt lat="33.4528823" lon="9.0204605"><ele>74.33333333333334</ele><time>2026-04-29T09:45:55.555Z</time></trkpt><trkpt lat="33.4528403" lon="9.0203692"><ele>74.5</ele><time>2026-04-29T09:45:56.504Z</time></trkpt><trkpt lat="33.4528019" lon="9.020276"><ele>74.66666666666667</ele><time>2026-04-29T09:45:57.549Z</time></trkpt><trkpt lat="33.4527772" lon="9.0201866"><ele>74.83333333333333</ele><time>2026-04-29T09:45:58.54Z</time></trkpt><trkpt lat="33.4527525" lon="9.020098"><ele>75.0</ele><time>2026-04-29T09:45:59.518Z</time></trkpt><trkpt lat="33.4527286" lon="9.0200068"><ele>74.5</ele><time>2026-04-29T09:46:00.538Z</time></trkpt><trkpt lat="33.4527062" lon="9.0199181"><ele>74.0</ele><time>2026-04-29T09:46:01.517Z</time></trkpt><trkpt lat="33.452682" lon="9.0198336"><ele>73.5</ele><time>2026-04-29T09:46:02.54Z</time></trkpt><trkpt lat="33.4526556" lon="9.0197487"><ele>73.0</ele><time>2026-04-29T09:46:03.551Z</time></trkpt><trkpt lat="33.4526271" lon="9.0196581"><ele>72.5</ele><time>2026-04-29T09:46:04.527Z</time></trkpt><trkpt lat="33.4525974" lon="9.0195685"><ele>72.0</ele><time>2026-04-29T09:46:05.547Z</time></trkpt><trkpt lat="33.4525719" lon="9.0194793"><ele>72.0</ele><time>2026-04-29T09:46:06.538Z</time></trkpt><trkpt lat="33.4525447" lon="9.0193932"><ele>72.0</ele><time>2026-04-29T09:46:07.536Z</time></trkpt><trkpt lat="33.4525177" lon="9.0193085"><ele>72.0</ele><time>2026-04-29T09:46:08.552Z</time></trkpt><trkpt lat="33.4524991" lon="9.0192313"><ele>72.0</ele><time>2026-04-29T09:46:09.553Z</time></trkpt><trkpt lat="33.4524865" lon="9.0191555"><ele>72.0</ele><time>2026-04-29T09:46:10.563Z</time></trkpt><trkpt lat="33.4524701" lon="9.0190102"><ele>72.0</ele><time>2026-04-29T09:46:12.564Z</time></trkpt><trkpt lat="33.4524621" lon="9.0189282"><ele>71.4</ele><time>2026-04-29T09:46:13.564Z</time></trkpt><trkpt lat="33.4524533" lon="9.0188413"><ele>70.80000000000001</ele><time>2026-04-29T09:46:14.565Z</time></trkpt><trkpt lat="33.4524419" lon="9.0187541"><ele>70.2</ele><time>2026-04-29T09:46:15.562Z</time></trkpt><trkpt lat="33.4524265" lon="9.0186079"><ele>69.60000000000001</ele><time>2026-04-29T09:46:17.562Z</time></trkpt><trkpt lat="33.4524101" lon="9.0184567"><ele>69.0</ele><time>2026-04-29T09:46:19.543Z</time></trkpt><trkpt lat="33.452402" lon="9.0183582"><ele>68.4</ele><time>2026-04-29T09:46:20.523Z</time></trkpt><trkpt lat="33.4523889" lon="9.0182433"><ele>67.80000000000001</ele><time>2026-04-29T09:46:21.523Z</time></trkpt><trkpt lat="33.452377" lon="9.0181261"><ele>67.19999999999999</ele><time>2026-04-29T09:46:22.527Z</time></trkpt><trkpt lat="33.4523658" lon="9.0180122"><ele>66.6</ele><time>2026-04-29T09:46:23.534Z</time></trkpt><trkpt lat="33.4523538" lon="9.0178947"><ele>66.0</ele><time>2026-04-29T09:46:24.536Z</time></trkpt><trkpt lat="33.452342" lon="9.0177761"><ele>66.0</ele><time>2026-04-29T09:46:25.552Z</time></trkpt><trkpt lat="33.4523297" lon="9.0176564"><ele>66.0</ele><time>2026-04-29T09:46:26.541Z</time></trkpt><trkpt lat="33.4523139" lon="9.0175386"><ele>66.0</ele><time>2026-04-29T09:46:27.543Z</time></trkpt><trkpt lat="33.4522982" lon="9.0174354"><ele>66.0</ele><time>2026-04-29T09:46:28.532Z</time></trkpt><trkpt lat="33.4522901" lon="9.0173285"><ele>66.0</ele><time>2026-04-29T09:46:29.562Z</time></trkpt><trkpt lat="33.4522765" lon="9.0172264"><ele>65.33333333333333</ele><time>2026-04-29T09:46:30.519Z</time></trkpt><trkpt lat="33.4522583" lon="9.0171187"><ele>64.66666666666667</ele><time>2026-04-29T09:46:31.541Z</time></trkpt><trkpt lat="33.4522422" lon="9.0170162"><ele>64.0</ele><time>2026-04-29T09:46:32.537Z</time></trkpt><trkpt lat="33.4522343" lon="9.0169159"><ele>63.333333333333336</ele><time>2026-04-29T09:46:33.543Z</time></trkpt><trkpt lat="33.4522253" lon="9.0168132"><ele>62.66666666666667</ele><time>2026-04-29T09:46:34.546Z</time></trkpt><trkpt lat="33.4522131" lon="9.0167157"><ele>62.0</ele><time>2026-04-29T09:46:35.56Z</time></trkpt><trkpt lat="33.4521979" lon="9.0166215"><ele>61.833333333333336</ele><time>2026-04-29T09:46:36.56Z</time></trkpt><trkpt lat="33.4521839" lon="9.0165334"><ele>61.66666666666667</ele><time>2026-04-29T09:46:37.56Z</time></trkpt><trkpt lat="33.4521711" lon="9.01645"><ele>61.5</ele><time>2026-04-29T09:46:38.565Z</time></trkpt><trkpt lat="33.4521583" lon="9.0163655"><ele>61.33333333333333</ele><time>2026-04-29T09:46:39.564Z</time></trkpt><trkpt lat="33.4521501" lon="9.0162613"><ele>61.166666666666664</ele><time>2026-04-29T09:46:41.55Z</time></trkpt><trkpt lat="33.4521499" lon="9.0161661"><ele>61.0</ele><time>2026-04-29T09:46:46.554Z</time></trkpt><trkpt lat="33.452101" lon="9.0160851"><ele>60.599999999999994</ele><time>2026-04-29T09:46:51.561Z</time></trkpt><trkpt lat="33.4520089" lon="9.0160666"><ele>60.199999999999996</ele><time>2026-04-29T09:46:53.545Z</time></trkpt><trkpt lat="33.451936" lon="9.0160706"><ele>59.800000000000004</ele><time>2026-04-29T09:46:54.52Z</time></trkpt><trkpt lat="33.4518486" lon="9.0160943"><ele>59.400000000000006</ele><time>2026-04-29T09:46:55.536Z</time></trkpt><trkpt lat="33.4517477" lon="9.0161185"><ele>59.0</ele><time>2026-04-29T09:46:56.515Z</time></trkpt><trkpt lat="33.4516389" lon="9.0161352"><ele>59.0</ele><time>2026-04-29T09:46:57.508Z</time></trkpt><trkpt lat="33.4515269" lon="9.0161555"><ele>59.00000000000001</ele><time>2026-04-29T09:46:58.511Z</time></trkpt><trkpt lat="33.4514197" lon="9.0161646"><ele>59.00000000000001</ele><time>2026-04-29T09:46:59.541Z</time></trkpt><trkpt lat="33.4513196" lon="9.0161837"><ele>59.0</ele><time>2026-04-29T09:47:00.518Z</time></trkpt><trkpt lat="33.4512136" lon="9.0162033"><ele>59.0</ele><time>2026-04-29T09:47:01.542Z</time></trkpt><trkpt lat="33.4511126" lon="9.0162241"><ele>58.800000000000004</ele><time>2026-04-29T09:47:02.531Z</time></trkpt><trkpt lat="33.4510154" lon="9.0162418"><ele>58.60000000000001</ele><time>2026-04-29T09:47:03.512Z</time></trkpt><trkpt lat="33.4509217" lon="9.0162592"><ele>58.4</ele><time>2026-04-29T09:47:04.531Z</time></trkpt><trkpt lat="33.4508274" lon="9.0162827"><ele>58.2</ele><time>2026-04-29T09:47:05.514Z</time></trkpt><trkpt lat="33.4507293" lon="9.0163062"><ele>58.0</ele><time>2026-04-29T09:47:06.523Z</time></trkpt><trkpt lat="33.4506288" lon="9.0163303"><ele>58.0</ele><time>2026-04-29T09:47:07.527Z</time></trkpt><trkpt lat="33.4505173" lon="9.0163523"><ele>58.0</ele><time>2026-04-29T09:47:08.53Z</time></trkpt><trkpt lat="33.4504057" lon="9.0163717"><ele>58.0</ele><time>2026-04-29T09:47:09.523Z</time></trkpt><trkpt lat="33.4502897" lon="9.0163879"><ele>58.0</ele><time>2026-04-29T09:47:10.519Z</time></trkpt><trkpt lat="33.4501725" lon="9.016412"><ele>58.0</ele><time>2026-04-29T09:47:11.51Z</time></trkpt><trkpt lat="33.4500468" lon="9.0164249"><ele>58.0</ele><time>2026-04-29T09:47:12.539Z</time></trkpt><trkpt lat="33.4499219" lon="9.0164374"><ele>58.0</ele><time>2026-04-29T09:47:13.526Z</time></trkpt><trkpt lat="33.4497959" lon="9.0164449"><ele>58.0</ele><time>2026-04-29T09:47:14.534Z</time></trkpt><trkpt lat="33.4496708" lon="9.0164513"><ele>58.0</ele><time>2026-04-29T09:47:15.537Z</time></trkpt><trkpt lat="33.4495465" lon="9.0164604"><ele>58.0</ele><time>2026-04-29T09:47:16.53Z</time></trkpt><trkpt lat="33.4494253" lon="9.0164691"><ele>58.0</ele><time>2026-04-29T09:47:17.533Z</time></trkpt><trkpt lat="33.4493065" lon="9.0164772"><ele>58.0</ele><time>2026-04-29T09:47:18.536Z</time></trkpt><trkpt lat="33.4491937" lon="9.0164853"><ele>58.0</ele><time>2026-04-29T09:47:19.522Z</time></trkpt><trkpt lat="33.4490873" lon="9.0164883"><ele>58.0</ele><time>2026-04-29T09:47:20.53Z</time></trkpt><trkpt lat="33.4489949" lon="9.0164961"><ele>58.0</ele><time>2026-04-29T09:47:21.539Z</time></trkpt><trkpt lat="33.4489052" lon="9.0165046"><ele>58.0</ele><time>2026-04-29T09:47:22.533Z</time></trkpt><trkpt lat="33.4488131" lon="9.0165132"><ele>58.0</ele><time>2026-04-29T09:47:23.529Z</time></trkpt><trkpt lat="33.4487194" lon="9.0165236"><ele>57.8</ele><time>2026-04-29T09:47:24.538Z</time></trkpt><trkpt lat="33.4486274" lon="9.0165281"><ele>57.599999999999994</ele><time>2026-04-29T09:47:25.536Z</time></trkpt><trkpt lat="33.4485273" lon="9.016539"><ele>57.400000000000006</ele><time>2026-04-29T09:47:26.527Z</time></trkpt><trkpt lat="33.4484199" lon="9.0165503"><ele>57.2</ele><time>2026-04-29T09:47:27.535Z</time></trkpt><trkpt lat="33.4483114" lon="9.0165669"><ele>57.0</ele><time>2026-04-29T09:47:28.527Z</time></trkpt><trkpt lat="33.4482062" lon="9.01658"><ele>57.0</ele><time>2026-04-29T09:47:29.53Z</time></trkpt><trkpt lat="33.4480984" lon="9.0165914"><ele>57.0</ele><time>2026-04-29T09:47:30.529Z</time></trkpt><trkpt lat="33.4479967" lon="9.0166033"><ele>57.0</ele><time>2026-04-29T09:47:31.526Z</time></trkpt><trkpt lat="33.4478916" lon="9.0166153"><ele>57.0</ele><time>2026-04-29T09:47:32.531Z</time></trkpt><trkpt lat="33.4477891" lon="9.0166251"><ele>57.0</ele><time>2026-04-29T09:47:33.517Z</time></trkpt><trkpt lat="33.44768" lon="9.0166302"><ele>57.0</ele><time>2026-04-29T09:47:34.531Z</time></trkpt><trkpt lat="33.4475731" lon="9.0166302"><ele>57.0</ele><time>2026-04-29T09:47:35.538Z</time></trkpt><trkpt lat="33.4474656" lon="9.0166257"><ele>57.0</ele><time>2026-04-29T09:47:36.545Z</time></trkpt><trkpt lat="33.447363" lon="9.0166299"><ele>57.0</ele><time>2026-04-29T09:47:37.531Z</time></trkpt><trkpt lat="33.4472579" lon="9.0166326"><ele>57.0</ele><time>2026-04-29T09:47:38.542Z</time></trkpt><trkpt lat="33.4471461" lon="9.016639"><ele>56.75</ele><time>2026-04-29T09:47:39.525Z</time></trkpt><trkpt lat="33.4470345" lon="9.016644"><ele>56.5</ele><time>2026-04-29T09:47:40.537Z</time></trkpt><trkpt lat="33.4469169" lon="9.0166443"><ele>56.25</ele><time>2026-04-29T09:47:41.529Z</time></trkpt><trkpt lat="33.4467978" lon="9.0166393"><ele>56.0</ele><time>2026-04-29T09:47:42.536Z</time></trkpt><trkpt lat="33.4466737" lon="9.0166303"><ele>56.0</ele><time>2026-04-29T09:47:43.531Z</time></trkpt><trkpt lat="33.446544" lon="9.0166212"><ele>56.0</ele><time>2026-04-29T09:47:44.528Z</time></trkpt><trkpt lat="33.4464092" lon="9.0166163"><ele>56.0</ele><time>2026-04-29T09:47:45.535Z</time></trkpt><trkpt lat="33.4462774" lon="9.016608"><ele>56.0</ele><time>2026-04-29T09:47:46.52Z</time></trkpt><trkpt lat="33.4461455" lon="9.0165981"><ele>55.75</ele><time>2026-04-29T09:47:47.528Z</time></trkpt><trkpt lat="33.4460108" lon="9.0165879"><ele>55.5</ele><time>2026-04-29T09:47:48.538Z</time></trkpt><trkpt lat="33.4458785" lon="9.0165777"><ele>55.25</ele><time>2026-04-29T09:47:49.527Z</time></trkpt><trkpt lat="33.4457457" lon="9.0165641"><ele>55.0</ele><time>2026-04-29T09:47:50.521Z</time></trkpt><trkpt lat="33.4456233" lon="9.016551"><ele>55.0</ele><time>2026-04-29T09:47:51.521Z</time></trkpt><trkpt lat="33.4455074" lon="9.0165276"><ele>55.0</ele><time>2026-04-29T09:47:52.531Z</time></trkpt><trkpt lat="33.4453951" lon="9.0164916"><ele>55.0</ele><time>2026-04-29T09:47:53.54Z</time></trkpt><trkpt lat="33.4452835" lon="9.0164529"><ele>55.0</ele><time>2026-04-29T09:47:54.528Z</time></trkpt><trkpt lat="33.4451668" lon="9.0164108"><ele>54.75</ele><time>2026-04-29T09:47:55.521Z</time></trkpt><trkpt lat="33.445053" lon="9.0163703"><ele>54.5</ele><time>2026-04-29T09:47:56.529Z</time></trkpt><trkpt lat="33.4449334" lon="9.0163276"><ele>54.25</ele><time>2026-04-29T09:47:57.528Z</time></trkpt><trkpt lat="33.444809" lon="9.016284"><ele>54.0</ele><time>2026-04-29T09:47:58.544Z</time></trkpt><trkpt lat="33.4446865" lon="9.0162397"><ele>54.25</ele><time>2026-04-29T09:47:59.521Z</time></trkpt><trkpt lat="33.4445548" lon="9.0161926"><ele>54.5</ele><time>2026-04-29T09:48:00.539Z</time></trkpt><trkpt lat="33.4444268" lon="9.016145"><ele>54.75</ele><time>2026-04-29T09:48:01.533Z</time></trkpt><trkpt lat="33.4442907" lon="9.0160992"><ele>55.0</ele><time>2026-04-29T09:48:02.534Z</time></trkpt><trkpt lat="33.4441492" lon="9.0160521"><ele>55.0</ele><time>2026-04-29T09:48:03.535Z</time></trkpt><trkpt lat="33.4440064" lon="9.0160057"><ele>55.0</ele><time>2026-04-29T09:48:04.54Z</time></trkpt><trkpt lat="33.4438625" lon="9.0159539"><ele>55.0</ele><time>2026-04-29T09:48:05.54Z</time></trkpt><trkpt lat="33.4437207" lon="9.0159057"><ele>55.0</ele><time>2026-04-29T09:48:06.534Z</time></trkpt><trkpt lat="33.443573" lon="9.0158588"><ele>54.666666666666664</ele><time>2026-04-29T09:48:07.538Z</time></trkpt><trkpt lat="33.4434246" lon="9.0158154"><ele>54.33333333333333</ele><time>2026-04-29T09:48:08.543Z</time></trkpt><trkpt lat="33.4432634" lon="9.0157739"><ele>54.0</ele><time>2026-04-29T09:48:09.525Z</time></trkpt><trkpt lat="33.4431015" lon="9.0157401"><ele>54.33333333333333</ele><time>2026-04-29T09:48:10.545Z</time></trkpt><trkpt lat="33.4429315" lon="9.0157055"><ele>54.666666666666664</ele><time>2026-04-29T09:48:11.523Z</time></trkpt><trkpt lat="33.4427603" lon="9.0156714"><ele>55.0</ele><time>2026-04-29T09:48:12.524Z</time></trkpt><trkpt lat="33.4425889" lon="9.0156399"><ele>55.0</ele><time>2026-04-29T09:48:13.533Z</time></trkpt><trkpt lat="33.4424216" lon="9.015601"><ele>55.0</ele><time>2026-04-29T09:48:14.56Z</time></trkpt><trkpt lat="33.4422551" lon="9.0155604"><ele>55.0</ele><time>2026-04-29T09:48:15.539Z</time></trkpt><trkpt lat="33.4420875" lon="9.0155176"><ele>55.666666666666664</ele><time>2026-04-29T09:48:16.53Z</time></trkpt><trkpt lat="33.4419172" lon="9.0154709"><ele>56.33333333333333</ele><time>2026-04-29T09:48:17.524Z</time></trkpt><trkpt lat="33.4417539" lon="9.0154269"><ele>57.0</ele><time>2026-04-29T09:48:18.541Z</time></trkpt><trkpt lat="33.441593" lon="9.0153853"><ele>57.0</ele><time>2026-04-29T09:48:19.531Z</time></trkpt><trkpt lat="33.4414427" lon="9.0153492"><ele>57.0</ele><time>2026-04-29T09:48:20.534Z</time></trkpt><trkpt lat="33.4413002" lon="9.0153221"><ele>57.0</ele><time>2026-04-29T09:48:21.53Z</time></trkpt><trkpt lat="33.4411641" lon="9.0152946"><ele>57.0</ele><time>2026-04-29T09:48:22.54Z</time></trkpt><trkpt lat="33.4410275" lon="9.0152778"><ele>57.25</ele><time>2026-04-29T09:48:23.532Z</time></trkpt><trkpt lat="33.4408945" lon="9.0152696"><ele>57.5</ele><time>2026-04-29T09:48:24.532Z</time></trkpt><trkpt lat="33.4407589" lon="9.0152601"><ele>57.75</ele><time>2026-04-29T09:48:25.54Z</time></trkpt><trkpt lat="33.4406277" lon="9.0152487"><ele>58.0</ele><time>2026-04-29T09:48:26.536Z</time></trkpt><trkpt lat="33.440507" lon="9.0152388"><ele>57.599999999999994</ele><time>2026-04-29T09:48:27.535Z</time></trkpt><trkpt lat="33.4403947" lon="9.0152302"><ele>57.199999999999996</ele><time>2026-04-29T09:48:28.527Z</time></trkpt><trkpt lat="33.4402847" lon="9.0152228"><ele>56.8</ele><time>2026-04-29T09:48:29.544Z</time></trkpt><trkpt lat="33.44018" lon="9.0152159"><ele>56.4</ele><time>2026-04-29T09:48:30.534Z</time></trkpt><trkpt lat="33.4400758" lon="9.0152034"><ele>56.0</ele><time>2026-04-29T09:48:31.531Z</time></trkpt><trkpt lat="33.4399682" lon="9.0151948"><ele>56.0</ele><time>2026-04-29T09:48:32.544Z</time></trkpt><trkpt lat="33.4398538" lon="9.0151819"><ele>56.0</ele><time>2026-04-29T09:48:33.549Z</time></trkpt><trkpt lat="33.4397342" lon="9.0151696"><ele>56.0</ele><time>2026-04-29T09:48:34.534Z</time></trkpt><trkpt lat="33.4396105" lon="9.0151507"><ele>56.0</ele><time>2026-04-29T09:48:35.522Z</time></trkpt><trkpt lat="33.4394931" lon="9.0151327"><ele>55.75</ele><time>2026-04-29T09:48:36.531Z</time></trkpt><trkpt lat="33.4393771" lon="9.0151178"><ele>55.5</ele><time>2026-04-29T09:48:37.539Z</time></trkpt><trkpt lat="33.4392603" lon="9.0151014"><ele>55.25</ele><time>2026-04-29T09:48:38.54Z</time></trkpt><trkpt lat="33.4391409" lon="9.0150826"><ele>55.0</ele><time>2026-04-29T09:48:39.548Z</time></trkpt><trkpt lat="33.4390215" lon="9.0150649"><ele>55.0</ele><time>2026-04-29T09:48:40.532Z</time></trkpt><trkpt lat="33.4389062" lon="9.0150473"><ele>55.0</ele><time>2026-04-29T09:48:41.534Z</time></trkpt><trkpt lat="33.4387925" lon="9.015031"><ele>55.0</ele><time>2026-04-29T09:48:42.54Z</time></trkpt><trkpt lat="33.4386863" lon="9.0150154"><ele>55.0</ele><time>2026-04-29T09:48:43.529Z</time></trkpt><trkpt lat="33.4385923" lon="9.0149999"><ele>55.0</ele><time>2026-04-29T09:48:44.535Z</time></trkpt><trkpt lat="33.4384964" lon="9.0149776"><ele>54.8</ele><time>2026-04-29T09:48:45.542Z</time></trkpt><trkpt lat="33.4383962" lon="9.0149496"><ele>54.6</ele><time>2026-04-29T09:48:46.54Z</time></trkpt><trkpt lat="33.4382902" lon="9.0149172"><ele>54.400000000000006</ele><time>2026-04-29T09:48:47.537Z</time></trkpt><trkpt lat="33.438189" lon="9.0148909"><ele>54.2</ele><time>2026-04-29T09:48:48.552Z</time></trkpt><trkpt lat="33.4380969" lon="9.014858"><ele>54.0</ele><time>2026-04-29T09:48:49.551Z</time></trkpt><trkpt lat="33.4380122" lon="9.0148289"><ele>54.166666666666664</ele><time>2026-04-29T09:48:50.537Z</time></trkpt><trkpt lat="33.437936" lon="9.0148063"><ele>54.33333333333333</ele><time>2026-04-29T09:48:51.528Z</time></trkpt><trkpt lat="33.4378658" lon="9.0147866"><ele>54.5</ele><time>2026-04-29T09:48:52.526Z</time></trkpt><trkpt lat="33.4378003" lon="9.0147737"><ele>54.666666666666664</ele><time>2026-04-29T09:48:53.539Z</time></trkpt><trkpt lat="33.4377349" lon="9.0147601"><ele>54.83333333333333</ele><time>2026-04-29T09:48:54.53Z</time></trkpt><trkpt lat="33.4376389" lon="9.0147478"><ele>55.0</ele><time>2026-04-29T09:48:55.542Z</time></trkpt><trkpt lat="33.4375252" lon="9.0147377"><ele>55.0</ele><time>2026-04-29T09:48:56.536Z</time></trkpt><trkpt lat="33.4374012" lon="9.0147107"><ele>55.0</ele><time>2026-04-29T09:48:57.546Z</time></trkpt><trkpt lat="33.4372755" lon="9.0146654"><ele>55.0</ele><time>2026-04-29T09:48:58.523Z</time></trkpt><trkpt lat="33.4371448" lon="9.014625"><ele>55.0</ele><time>2026-04-29T09:48:59.544Z</time></trkpt><trkpt lat="33.4370135" lon="9.0145965"><ele>55.0</ele><time>2026-04-29T09:49:00.544Z</time></trkpt><trkpt lat="33.4368798" lon="9.0145679"><ele>55.0</ele><time>2026-04-29T09:49:01.556Z</time></trkpt><trkpt lat="33.4367463" lon="9.0145429"><ele>55.0</ele><time>2026-04-29T09:49:02.533Z</time></trkpt><trkpt lat="33.436615" lon="9.014517"><ele>55.0</ele><time>2026-04-29T09:49:03.538Z</time></trkpt><trkpt lat="33.4364803" lon="9.0144953"><ele>55.0</ele><time>2026-04-29T09:49:04.562Z</time></trkpt><trkpt lat="33.4363434" lon="9.0144789"><ele>55.0</ele><time>2026-04-29T09:49:05.536Z</time></trkpt><trkpt lat="33.4362066" lon="9.0144585"><ele>55.0</ele><time>2026-04-29T09:49:06.532Z</time></trkpt><trkpt lat="33.4360662" lon="9.0144371"><ele>55.0</ele><time>2026-04-29T09:49:07.524Z</time></trkpt><trkpt lat="33.435933" lon="9.0144225"><ele>55.75</ele><time>2026-04-29T09:49:08.533Z</time></trkpt><trkpt lat="33.4357959" lon="9.0144062"><ele>56.5</ele><time>2026-04-29T09:49:09.534Z</time></trkpt><trkpt lat="33.4356578" lon="9.0143879"><ele>57.25</ele><time>2026-04-29T09:49:10.533Z</time></trkpt><trkpt lat="33.4355248" lon="9.0143743"><ele>58.0</ele><time>2026-04-29T09:49:11.536Z</time></trkpt><trkpt lat="33.4353873" lon="9.0143605"><ele>58.5</ele><time>2026-04-29T09:49:12.547Z</time></trkpt><trkpt lat="33.4352549" lon="9.0143456"><ele>59.0</ele><time>2026-04-29T09:49:13.539Z</time></trkpt><trkpt lat="33.4351205" lon="9.0143324"><ele>59.5</ele><time>2026-04-29T09:49:14.533Z</time></trkpt><trkpt lat="33.4349849" lon="9.0143189"><ele>60.0</ele><time>2026-04-29T09:49:15.533Z</time></trkpt><trkpt lat="33.4348417" lon="9.0143073"><ele>60.0</ele><time>2026-04-29T09:49:16.533Z</time></trkpt><trkpt lat="33.4347011" lon="9.0142913"><ele>60.0</ele><time>2026-04-29T09:49:17.524Z</time></trkpt><trkpt lat="33.434555" lon="9.0142785"><ele>60.0</ele><time>2026-04-29T09:49:18.539Z</time></trkpt><trkpt lat="33.4344077" lon="9.0142664"><ele>60.0</ele><time>2026-04-29T09:49:19.535Z</time></trkpt><trkpt lat="33.4342643" lon="9.0142536"><ele>60.0</ele><time>2026-04-29T09:49:20.543Z</time></trkpt><trkpt lat="33.4341456" lon="9.0142344"><ele>60.0</ele><time>2026-04-29T09:49:21.529Z</time></trkpt><trkpt lat="33.4340408" lon="9.0142098"><ele>60.0</ele><time>2026-04-29T09:49:22.526Z</time></trkpt><trkpt lat="33.4339402" lon="9.0141941"><ele>60.0</ele><time>2026-04-29T09:49:23.537Z</time></trkpt><trkpt lat="33.4338254" lon="9.0141807"><ele>60.0</ele><time>2026-04-29T09:49:24.544Z</time></trkpt><trkpt lat="33.433705" lon="9.014158"><ele>60.25</ele><time>2026-04-29T09:49:25.52Z</time></trkpt><trkpt lat="33.4335741" lon="9.0141382"><ele>60.5</ele><time>2026-04-29T09:49:26.55Z</time></trkpt><trkpt lat="33.4334356" lon="9.0141227"><ele>60.75</ele><time>2026-04-29T09:49:27.533Z</time></trkpt><trkpt lat="33.4332883" lon="9.0141058"><ele>61.0</ele><time>2026-04-29T09:49:28.536Z</time></trkpt><trkpt lat="33.4331385" lon="9.0140926"><ele>61.0</ele><time>2026-04-29T09:49:29.524Z</time></trkpt><trkpt lat="33.4329798" lon="9.0140721"><ele>61.0</ele><time>2026-04-29T09:49:30.549Z</time></trkpt><trkpt lat="33.4328204" lon="9.0140524"><ele>61.0</ele><time>2026-04-29T09:49:31.537Z</time></trkpt><trkpt lat="33.4326627" lon="9.0140337"><ele>61.666666666666664</ele><time>2026-04-29T09:49:32.551Z</time></trkpt><trkpt lat="33.4325106" lon="9.0140163"><ele>62.33333333333333</ele><time>2026-04-29T09:49:33.551Z</time></trkpt><trkpt lat="33.4323619" lon="9.0139972"><ele>63.0</ele><time>2026-04-29T09:49:34.546Z</time></trkpt><trkpt lat="33.4322097" lon="9.0139781"><ele>62.5</ele><time>2026-04-29T09:49:35.531Z</time></trkpt><trkpt lat="33.4320651" lon="9.0139625"><ele>62.0</ele><time>2026-04-29T09:49:36.538Z</time></trkpt><trkpt lat="33.4319177" lon="9.013942"><ele>61.5</ele><time>2026-04-29T09:49:37.551Z</time></trkpt><trkpt lat="33.4317774" lon="9.0139206"><ele>61.0</ele><time>2026-04-29T09:49:38.524Z</time></trkpt><trkpt lat="33.431638" lon="9.0139026"><ele>61.0</ele><time>2026-04-29T09:49:39.542Z</time></trkpt><trkpt lat="33.4315032" lon="9.0138878"><ele>61.0</ele><time>2026-04-29T09:49:40.534Z</time></trkpt><trkpt lat="33.4313642" lon="9.0138749"><ele>61.0</ele><time>2026-04-29T09:49:41.545Z</time></trkpt><trkpt lat="33.431229" lon="9.0138538"><ele>61.0</ele><time>2026-04-29T09:49:42.548Z</time></trkpt><trkpt lat="33.4310945" lon="9.0138363"><ele>61.25</ele><time>2026-04-29T09:49:43.53Z</time></trkpt><trkpt lat="33.4309523" lon="9.0138108"><ele>61.5</ele><time>2026-04-29T09:49:44.539Z</time></trkpt><trkpt lat="33.4308125" lon="9.0137909"><ele>61.75</ele><time>2026-04-29T09:49:45.555Z</time></trkpt><trkpt lat="33.4306677" lon="9.0137714"><ele>62.0</ele><time>2026-04-29T09:49:46.541Z</time></trkpt><trkpt lat="33.4305266" lon="9.0137527"><ele>62.0</ele><time>2026-04-29T09:49:47.548Z</time></trkpt><trkpt lat="33.4303821" lon="9.0137343"><ele>62.0</ele><time>2026-04-29T09:49:48.528Z</time></trkpt><trkpt lat="33.4302353" lon="9.0137169"><ele>62.0</ele><time>2026-04-29T09:49:49.522Z</time></trkpt><trkpt lat="33.4300914" lon="9.0136973"><ele>62.0</ele><time>2026-04-29T09:49:50.542Z</time></trkpt><trkpt lat="33.4299522" lon="9.0136733"><ele>62.0</ele><time>2026-04-29T09:49:51.527Z</time></trkpt><trkpt lat="33.4298132" lon="9.0136553"><ele>62.0</ele><time>2026-04-29T09:49:52.536Z</time></trkpt><trkpt lat="33.4296694" lon="9.0136368"><ele>62.0</ele><time>2026-04-29T09:49:53.527Z</time></trkpt><trkpt lat="33.4295277" lon="9.0136159"><ele>62.0</ele><time>2026-04-29T09:49:54.536Z</time></trkpt><trkpt lat="33.4293903" lon="9.0136018"><ele>62.75</ele><time>2026-04-29T09:49:55.528Z</time></trkpt><trkpt lat="33.4292539" lon="9.0135828"><ele>63.5</ele><time>2026-04-29T09:49:56.542Z</time></trkpt><trkpt lat="33.4291188" lon="9.0135662"><ele>64.25</ele><time>2026-04-29T09:49:57.551Z</time></trkpt><trkpt lat="33.4289841" lon="9.0135439"><ele>65.0</ele><time>2026-04-29T09:49:58.559Z</time></trkpt><trkpt lat="33.4288474" lon="9.0135287"><ele>65.75</ele><time>2026-04-29T09:49:59.548Z</time></trkpt><trkpt lat="33.4287111" lon="9.0135113"><ele>66.5</ele><time>2026-04-29T09:50:00.533Z</time></trkpt><trkpt lat="33.4285741" lon="9.0134931"><ele>67.25</ele><time>2026-04-29T09:50:01.541Z</time></trkpt><trkpt lat="33.4284272" lon="9.01347"><ele>68.0</ele><time>2026-04-29T09:50:02.539Z</time></trkpt><trkpt lat="33.4282777" lon="9.0134458"><ele>68.0</ele><time>2026-04-29T09:50:03.54Z</time></trkpt><trkpt lat="33.4281301" lon="9.013416"><ele>68.0</ele><time>2026-04-29T09:50:04.531Z</time></trkpt><trkpt lat="33.4279778" lon="9.0133795"><ele>68.0</ele><time>2026-04-29T09:50:05.532Z</time></trkpt><trkpt lat="33.4278238" lon="9.0133445"><ele>68.0</ele><time>2026-04-29T09:50:06.547Z</time></trkpt><trkpt lat="33.4276699" lon="9.0133091"><ele>68.0</ele><time>2026-04-29T09:50:07.536Z</time></trkpt><trkpt lat="33.4275198" lon="9.013278"><ele>68.0</ele><time>2026-04-29T09:50:08.539Z</time></trkpt><trkpt lat="33.4273683" lon="9.0132482"><ele>68.0</ele><time>2026-04-29T09:50:09.536Z</time></trkpt><trkpt lat="33.4272179" lon="9.0132204"><ele>68.0</ele><time>2026-04-29T09:50:10.548Z</time></trkpt><trkpt lat="33.4270666" lon="9.0131926"><ele>68.0</ele><time>2026-04-29T09:50:11.528Z</time></trkpt><trkpt lat="33.4269169" lon="9.0131715"><ele>67.75</ele><time>2026-04-29T09:50:12.546Z</time></trkpt><trkpt lat="33.4267679" lon="9.0131514"><ele>67.5</ele><time>2026-04-29T09:50:13.535Z</time></trkpt><trkpt lat="33.4266185" lon="9.0131319"><ele>67.25</ele><time>2026-04-29T09:50:14.537Z</time></trkpt><trkpt lat="33.4264722" lon="9.0131179"><ele>67.0</ele><time>2026-04-29T09:50:15.542Z</time></trkpt><trkpt lat="33.4263242" lon="9.0131091"><ele>67.0</ele><time>2026-04-29T09:50:16.545Z</time></trkpt><trkpt lat="33.4261834" lon="9.0130958"><ele>67.0</ele><time>2026-04-29T09:50:17.532Z</time></trkpt><trkpt lat="33.4260381" lon="9.0130826"><ele>67.0</ele><time>2026-04-29T09:50:18.547Z</time></trkpt><trkpt lat="33.4258929" lon="9.0130622"><ele>67.0</ele><time>2026-04-29T09:50:19.528Z</time></trkpt><trkpt lat="33.4257476" lon="9.0130466"><ele>67.0</ele><time>2026-04-29T09:50:20.533Z</time></trkpt><trkpt lat="33.4256058" lon="9.0130273"><ele>67.0</ele><time>2026-04-29T09:50:21.546Z</time></trkpt><trkpt lat="33.425466" lon="9.0130061"><ele>67.0</ele><time>2026-04-29T09:50:22.534Z</time></trkpt><trkpt lat="33.4253206" lon="9.0129809"><ele>67.0</ele><time>2026-04-29T09:50:23.544Z</time></trkpt><trkpt lat="33.4251764" lon="9.0129597"><ele>67.0</ele><time>2026-04-29T09:50:24.548Z</time></trkpt><trkpt lat="33.4250304" lon="9.0129421"><ele>67.0</ele><time>2026-04-29T09:50:25.535Z</time></trkpt><trkpt lat="33.4248791" lon="9.0129244"><ele>67.0</ele><time>2026-04-29T09:50:26.535Z</time></trkpt><trkpt lat="33.424732" lon="9.012909"><ele>67.0</ele><time>2026-04-29T09:50:27.541Z</time></trkpt><trkpt lat="33.4245848" lon="9.0128869"><ele>67.0</ele><time>2026-04-29T09:50:28.538Z</time></trkpt><trkpt lat="33.4244346" lon="9.0128624"><ele>67.0</ele><time>2026-04-29T09:50:29.539Z</time></trkpt><trkpt lat="33.4242826" lon="9.0128358"><ele>67.0</ele><time>2026-04-29T09:50:30.557Z</time></trkpt><trkpt lat="33.4241282" lon="9.0128065"><ele>67.0</ele><time>2026-04-29T09:50:31.544Z</time></trkpt><trkpt lat="33.4239739" lon="9.0127754"><ele>67.0</ele><time>2026-04-29T09:50:32.541Z</time></trkpt><trkpt lat="33.4238156" lon="9.0127422"><ele>67.0</ele><time>2026-04-29T09:50:33.532Z</time></trkpt><trkpt lat="33.4236589" lon="9.0127066"><ele>67.33333333333333</ele><time>2026-04-29T09:50:34.536Z</time></trkpt><trkpt lat="33.4235017" lon="9.0126665"><ele>67.66666666666667</ele><time>2026-04-29T09:50:35.538Z</time></trkpt><trkpt lat="33.4233468" lon="9.0126213"><ele>68.0</ele><time>2026-04-29T09:50:36.545Z</time></trkpt><trkpt lat="33.4231961" lon="9.012579"><ele>68.0</ele><time>2026-04-29T09:50:37.539Z</time></trkpt><trkpt lat="33.4230532" lon="9.0125399"><ele>68.0</ele><time>2026-04-29T09:50:38.538Z</time></trkpt><trkpt lat="33.4229089" lon="9.0125"><ele>68.0</ele><time>2026-04-29T09:50:39.542Z</time></trkpt><trkpt lat="33.4227601" lon="9.0124605"><ele>68.0</ele><time>2026-04-29T09:50:40.548Z</time></trkpt><trkpt lat="33.4226066" lon="9.01242"><ele>68.0</ele><time>2026-04-29T09:50:41.54Z</time></trkpt><trkpt lat="33.4224526" lon="9.0123899"><ele>68.0</ele><time>2026-04-29T09:50:42.546Z</time></trkpt><trkpt lat="33.422299" lon="9.0123648"><ele>68.0</ele><time>2026-04-29T09:50:43.54Z</time></trkpt><trkpt lat="33.4221451" lon="9.012342"><ele>67.33333333333334</ele><time>2026-04-29T09:50:44.526Z</time></trkpt><trkpt lat="33.4219927" lon="9.0123249"><ele>66.66666666666667</ele><time>2026-04-29T09:50:45.562Z</time></trkpt><trkpt lat="33.4218407" lon="9.0123152"><ele>66.0</ele><time>2026-04-29T09:50:46.539Z</time></trkpt><trkpt lat="33.4216879" lon="9.012315"><ele>66.0</ele><time>2026-04-29T09:50:47.532Z</time></trkpt><trkpt lat="33.4215371" lon="9.0123113"><ele>66.0</ele><time>2026-04-29T09:50:48.535Z</time></trkpt><trkpt lat="33.4213864" lon="9.0123109"><ele>66.0</ele><time>2026-04-29T09:50:49.54Z</time></trkpt><trkpt lat="33.4212376" lon="9.0123066"><ele>65.33333333333333</ele><time>2026-04-29T09:50:50.554Z</time></trkpt><trkpt lat="33.421088" lon="9.0123033"><ele>64.66666666666666</ele><time>2026-04-29T09:50:51.544Z</time></trkpt><trkpt lat="33.4209353" lon="9.0122971"><ele>64.0</ele><time>2026-04-29T09:50:52.538Z</time></trkpt><trkpt lat="33.4207815" lon="9.0122917"><ele>64.0</ele><time>2026-04-29T09:50:53.542Z</time></trkpt><trkpt lat="33.4206211" lon="9.0122853"><ele>64.0</ele><time>2026-04-29T09:50:54.56Z</time></trkpt><trkpt lat="33.4204588" lon="9.0122795"><ele>64.0</ele><time>2026-04-29T09:50:55.546Z</time></trkpt><trkpt lat="33.4203019" lon="9.0122667"><ele>64.0</ele><time>2026-04-29T09:50:56.538Z</time></trkpt><trkpt lat="33.4201454" lon="9.0122497"><ele>64.0</ele><time>2026-04-29T09:50:57.536Z</time></trkpt><trkpt lat="33.419988" lon="9.0122283"><ele>64.0</ele><time>2026-04-29T09:50:58.549Z</time></trkpt><trkpt lat="33.4198324" lon="9.0121998"><ele>64.0</ele><time>2026-04-29T09:50:59.533Z</time></trkpt><trkpt lat="33.4196761" lon="9.012167"><ele>64.0</ele><time>2026-04-29T09:51:00.538Z</time></trkpt><trkpt lat="33.4195221" lon="9.0121283"><ele>64.0</ele><time>2026-04-29T09:51:01.54Z</time></trkpt><trkpt lat="33.419368" lon="9.0120922"><ele>64.0</ele><time>2026-04-29T09:51:02.549Z</time></trkpt><trkpt lat="33.4192142" lon="9.0120543"><ele>64.0</ele><time>2026-04-29T09:51:03.544Z</time></trkpt><trkpt lat="33.4190588" lon="9.0120063"><ele>64.0</ele><time>2026-04-29T09:51:04.55Z</time></trkpt><trkpt lat="33.4188974" lon="9.0119553"><ele>64.66666666666666</ele><time>2026-04-29T09:51:05.548Z</time></trkpt><trkpt lat="33.4187341" lon="9.0119023"><ele>65.33333333333333</ele><time>2026-04-29T09:51:06.54Z</time></trkpt><trkpt lat="33.4185633" lon="9.0118475"><ele>66.0</ele><time>2026-04-29T09:51:07.53Z</time></trkpt><trkpt lat="33.4183877" lon="9.0117877"><ele>66.0</ele><time>2026-04-29T09:51:08.532Z</time></trkpt><trkpt lat="33.4182084" lon="9.0117278"><ele>66.0</ele><time>2026-04-29T09:51:09.534Z</time></trkpt><trkpt lat="33.4180279" lon="9.0116677"><ele>66.0</ele><time>2026-04-29T09:51:10.54Z</time></trkpt><trkpt lat="33.4178474" lon="9.0116087"><ele>64.66666666666667</ele><time>2026-04-29T09:51:11.557Z</time></trkpt><trkpt lat="33.4176678" lon="9.0115486"><ele>63.333333333333336</ele><time>2026-04-29T09:51:12.531Z</time></trkpt><trkpt lat="33.4174909" lon="9.0114894"><ele>62.0</ele><time>2026-04-29T09:51:13.525Z</time></trkpt><trkpt lat="33.4173118" lon="9.0114269"><ele>62.333333333333336</ele><time>2026-04-29T09:51:14.539Z</time></trkpt><trkpt lat="33.4171308" lon="9.0113637"><ele>62.66666666666667</ele><time>2026-04-29T09:51:15.536Z</time></trkpt><trkpt lat="33.4169503" lon="9.011294"><ele>63.0</ele><time>2026-04-29T09:51:16.55Z</time></trkpt><trkpt lat="33.4167678" lon="9.0112247"><ele>63.0</ele><time>2026-04-29T09:51:17.534Z</time></trkpt><trkpt lat="33.4165883" lon="9.0111545"><ele>63.0</ele><time>2026-04-29T09:51:18.54Z</time></trkpt><trkpt lat="33.4164018" lon="9.0110758"><ele>63.0</ele><time>2026-04-29T09:51:19.573Z</time></trkpt><trkpt lat="33.4162174" lon="9.0109991"><ele>63.33333333333333</ele><time>2026-04-29T09:51:20.538Z</time></trkpt><trkpt lat="33.4160366" lon="9.0109182"><ele>63.666666666666664</ele><time>2026-04-29T09:51:21.534Z</time></trkpt><trkpt lat="33.415855" lon="9.0108394"><ele>64.0</ele><time>2026-04-29T09:51:22.531Z</time></trkpt><trkpt lat="33.4156708" lon="9.0107562"><ele>64.0</ele><time>2026-04-29T09:51:23.535Z</time></trkpt><trkpt lat="33.4154894" lon="9.0106739"><ele>64.0</ele><time>2026-04-29T09:51:24.549Z</time></trkpt><trkpt lat="33.4153083" lon="9.0105925"><ele>64.0</ele><time>2026-04-29T09:51:25.529Z</time></trkpt><trkpt lat="33.4151272" lon="9.010514"><ele>64.66666666666666</ele><time>2026-04-29T09:51:26.538Z</time></trkpt><trkpt lat="33.4149463" lon="9.0104355"><ele>65.33333333333333</ele><time>2026-04-29T09:51:27.536Z</time></trkpt><trkpt lat="33.4147686" lon="9.0103556"><ele>66.0</ele><time>2026-04-29T09:51:28.556Z</time></trkpt><trkpt lat="33.4145929" lon="9.0102728"><ele>66.33333333333333</ele><time>2026-04-29T09:51:29.539Z</time></trkpt><trkpt lat="33.4144117" lon="9.0101957"><ele>66.66666666666666</ele><time>2026-04-29T09:51:30.529Z</time></trkpt><trkpt lat="33.4142327" lon="9.0101196"><ele>67.0</ele><time>2026-04-29T09:51:31.544Z</time></trkpt><trkpt lat="33.4140546" lon="9.0100438"><ele>66.33333333333333</ele><time>2026-04-29T09:51:32.533Z</time></trkpt><trkpt lat="33.4138755" lon="9.0099653"><ele>65.66666666666667</ele><time>2026-04-29T09:51:33.533Z</time></trkpt><trkpt lat="33.4136965" lon="9.0098813"><ele>65.0</ele><time>2026-04-29T09:51:34.53Z</time></trkpt><trkpt lat="33.4135235" lon="9.0097881"><ele>65.0</ele><time>2026-04-29T09:51:35.54Z</time></trkpt><trkpt lat="33.4133527" lon="9.009684"><ele>65.0</ele><time>2026-04-29T09:51:36.549Z</time></trkpt><trkpt lat="33.4131805" lon="9.0095791"><ele>65.0</ele><time>2026-04-29T09:51:37.538Z</time></trkpt><trkpt lat="33.4130127" lon="9.0094744"><ele>65.0</ele><time>2026-04-29T09:51:38.529Z</time></trkpt><trkpt lat="33.41284" lon="9.0093717"><ele>65.0</ele><time>2026-04-29T09:51:39.537Z</time></trkpt><trkpt lat="33.4126669" lon="9.0092731"><ele>65.0</ele><time>2026-04-29T09:51:40.539Z</time></trkpt><trkpt lat="33.4124951" lon="9.009173"><ele>64.66666666666667</ele><time>2026-04-29T09:51:41.535Z</time></trkpt><trkpt lat="33.412326" lon="9.0090821"><ele>64.33333333333333</ele><time>2026-04-29T09:51:42.537Z</time></trkpt><trkpt lat="33.4121558" lon="9.0089865"><ele>64.0</ele><time>2026-04-29T09:51:43.53Z</time></trkpt><trkpt lat="33.4119855" lon="9.008887"><ele>64.66666666666666</ele><time>2026-04-29T09:51:44.531Z</time></trkpt><trkpt lat="33.4118129" lon="9.0087937"><ele>65.33333333333333</ele><time>2026-04-29T09:51:45.536Z</time></trkpt><trkpt lat="33.4116384" lon="9.0087"><ele>66.0</ele><time>2026-04-29T09:51:46.535Z</time></trkpt><trkpt lat="33.4114683" lon="9.0086072"><ele>65.0</ele><time>2026-04-29T09:51:47.524Z</time></trkpt><trkpt lat="33.4112937" lon="9.0085157"><ele>64.0</ele><time>2026-04-29T09:51:48.538Z</time></trkpt><trkpt lat="33.4111196" lon="9.0084317"><ele>63.0</ele><time>2026-04-29T09:51:49.541Z</time></trkpt><trkpt lat="33.4109502" lon="9.0083534"><ele>64.0</ele><time>2026-04-29T09:51:50.539Z</time></trkpt><trkpt lat="33.4107773" lon="9.0082767"><ele>65.0</ele><time>2026-04-29T09:51:51.538Z</time></trkpt><trkpt lat="33.4106049" lon="9.0082001"><ele>66.0</ele><time>2026-04-29T09:51:52.541Z</time></trkpt><trkpt lat="33.410431" lon="9.008138"><ele>66.0</ele><time>2026-04-29T09:51:53.535Z</time></trkpt><trkpt lat="33.4102571" lon="9.0080791"><ele>66.0</ele><time>2026-04-29T09:51:54.55Z</time></trkpt><trkpt lat="33.4100849" lon="9.008025"><ele>66.0</ele><time>2026-04-29T09:51:55.53Z</time></trkpt><trkpt lat="33.4099123" lon="9.0079711"><ele>66.0</ele><time>2026-04-29T09:51:56.545Z</time></trkpt><trkpt lat="33.409745" lon="9.0079102"><ele>66.0</ele><time>2026-04-29T09:51:57.543Z</time></trkpt><trkpt lat="33.4095866" lon="9.0078472"><ele>66.0</ele><time>2026-04-29T09:51:58.533Z</time></trkpt><trkpt lat="33.4094377" lon="9.0077808"><ele>65.66666666666667</ele><time>2026-04-29T09:51:59.525Z</time></trkpt><trkpt lat="33.4092872" lon="9.0077232"><ele>65.33333333333334</ele><time>2026-04-29T09:52:00.543Z</time></trkpt><trkpt lat="33.4091406" lon="9.0076652"><ele>65.0</ele><time>2026-04-29T09:52:01.544Z</time></trkpt><trkpt lat="33.4089939" lon="9.0076182"><ele>65.0</ele><time>2026-04-29T09:52:02.528Z</time></trkpt><trkpt lat="33.4088439" lon="9.007564"><ele>65.0</ele><time>2026-04-29T09:52:03.537Z</time></trkpt><trkpt lat="33.4086938" lon="9.007509"><ele>65.0</ele><time>2026-04-29T09:52:04.536Z</time></trkpt><trkpt lat="33.4085453" lon="9.0074542"><ele>65.0</ele><time>2026-04-29T09:52:05.532Z</time></trkpt><trkpt lat="33.4083931" lon="9.0073927"><ele>65.0</ele><time>2026-04-29T09:52:06.553Z</time></trkpt><trkpt lat="33.4082417" lon="9.0073341"><ele>65.0</ele><time>2026-04-29T09:52:07.533Z</time></trkpt><trkpt lat="33.4080899" lon="9.0072742"><ele>65.0</ele><time>2026-04-29T09:52:08.537Z</time></trkpt><trkpt lat="33.4079409" lon="9.0072128"><ele>65.0</ele><time>2026-04-29T09:52:09.534Z</time></trkpt><trkpt lat="33.407793" lon="9.0071574"><ele>65.0</ele><time>2026-04-29T09:52:10.54Z</time></trkpt><trkpt lat="33.407644" lon="9.0071025"><ele>65.0</ele><time>2026-04-29T09:52:11.539Z</time></trkpt><trkpt lat="33.4074965" lon="9.0070414"><ele>65.0</ele><time>2026-04-29T09:52:12.532Z</time></trkpt><trkpt lat="33.4073439" lon="9.0069801"><ele>65.0</ele><time>2026-04-29T09:52:13.54Z</time></trkpt><trkpt lat="33.4071904" lon="9.006924"><ele>64.33333333333334</ele><time>2026-04-29T09:52:14.53Z</time></trkpt><trkpt lat="33.4070352" lon="9.006871"><ele>63.66666666666667</ele><time>2026-04-29T09:52:15.548Z</time></trkpt><trkpt lat="33.4068741" lon="9.0068159"><ele>63.0</ele><time>2026-04-29T09:52:16.533Z</time></trkpt><trkpt lat="33.4067114" lon="9.0067546"><ele>63.0</ele><time>2026-04-29T09:52:17.527Z</time></trkpt><trkpt lat="33.4065493" lon="9.0066984"><ele>63.0</ele><time>2026-04-29T09:52:18.546Z</time></trkpt><trkpt lat="33.4063807" lon="9.0066408"><ele>63.0</ele><time>2026-04-29T09:52:19.532Z</time></trkpt><trkpt lat="33.4062211" lon="9.0065815"><ele>63.66666666666667</ele><time>2026-04-29T09:52:20.529Z</time></trkpt><trkpt lat="33.4060594" lon="9.0065279"><ele>64.33333333333334</ele><time>2026-04-29T09:52:21.527Z</time></trkpt><trkpt lat="33.4059073" lon="9.0064802"><ele>65.0</ele><time>2026-04-29T09:52:22.533Z</time></trkpt><trkpt lat="33.4057687" lon="9.0064491"><ele>65.0</ele><time>2026-04-29T09:52:23.525Z</time></trkpt><trkpt lat="33.4056348" lon="9.0064409"><ele>65.0</ele><time>2026-04-29T09:52:24.546Z</time></trkpt><trkpt lat="33.4055114" lon="9.0064573"><ele>65.0</ele><time>2026-04-29T09:52:25.529Z</time></trkpt><trkpt lat="33.4054027" lon="9.0065043"><ele>65.0</ele><time>2026-04-29T09:52:26.536Z</time></trkpt><trkpt lat="33.405307" lon="9.0065653"><ele>65.0</ele><time>2026-04-29T09:52:27.537Z</time></trkpt><trkpt lat="33.4052287" lon="9.0066484"><ele>65.0</ele><time>2026-04-29T09:52:28.545Z</time></trkpt><trkpt lat="33.405165" lon="9.0067679"><ele>65.0</ele><time>2026-04-29T09:52:29.534Z</time></trkpt><trkpt lat="33.4051201" lon="9.0069035"><ele>65.0</ele><time>2026-04-29T09:52:30.541Z</time></trkpt><trkpt lat="33.405097" lon="9.0070567"><ele>65.0</ele><time>2026-04-29T09:52:31.53Z</time></trkpt><trkpt lat="33.4050746" lon="9.0072165"><ele>65.0</ele><time>2026-04-29T09:52:32.544Z</time></trkpt><trkpt lat="33.4050567" lon="9.0073884"><ele>65.0</ele><time>2026-04-29T09:52:33.542Z</time></trkpt><trkpt lat="33.4050412" lon="9.0075645"><ele>65.0</ele><time>2026-04-29T09:52:34.54Z</time></trkpt><trkpt lat="33.405028" lon="9.0077401"><ele>65.0</ele><time>2026-04-29T09:52:35.554Z</time></trkpt><trkpt lat="33.4050081" lon="9.0079034"><ele>65.0</ele><time>2026-04-29T09:52:36.535Z</time></trkpt><trkpt lat="33.4049778" lon="9.0080454"><ele>65.0</ele><time>2026-04-29T09:52:37.534Z</time></trkpt><trkpt lat="33.4049315" lon="9.0081717"><ele>65.0</ele><time>2026-04-29T09:52:38.53Z</time></trkpt><trkpt lat="33.4048647" lon="9.0082856"><ele>65.0</ele><time>2026-04-29T09:52:39.539Z</time></trkpt><trkpt lat="33.4047746" lon="9.0083786"><ele>65.0</ele><time>2026-04-29T09:52:40.524Z</time></trkpt><trkpt lat="33.4046694" lon="9.008454"><ele>65.0</ele><time>2026-04-29T09:52:41.562Z</time></trkpt><trkpt lat="33.4045505" lon="9.0085181"><ele>65.0</ele><time>2026-04-29T09:52:42.533Z</time></trkpt><trkpt lat="33.4044314" lon="9.0085808"><ele>65.0</ele><time>2026-04-29T09:52:43.538Z</time></trkpt><trkpt lat="33.4043039" lon="9.0086405"><ele>65.0</ele><time>2026-04-29T09:52:44.531Z</time></trkpt><trkpt lat="33.4041716" lon="9.0087017"><ele>65.0</ele><time>2026-04-29T09:52:45.523Z</time></trkpt><trkpt lat="33.4040369" lon="9.0087596"><ele>65.0</ele><time>2026-04-29T09:52:46.532Z</time></trkpt><trkpt lat="33.4039011" lon="9.0088217"><ele>65.0</ele><time>2026-04-29T09:52:47.545Z</time></trkpt><trkpt lat="33.4037584" lon="9.0088777"><ele>65.0</ele><time>2026-04-29T09:52:48.519Z</time></trkpt><trkpt lat="33.4036049" lon="9.0089138"><ele>65.0</ele><time>2026-04-29T09:52:49.534Z</time></trkpt><trkpt lat="33.4034509" lon="9.0089404"><ele>65.0</ele><time>2026-04-29T09:52:50.521Z</time></trkpt><trkpt lat="33.4032921" lon="9.0089502"><ele>65.0</ele><time>2026-04-29T09:52:51.579Z</time></trkpt><trkpt lat="33.4031313" lon="9.0089388"><ele>65.0</ele><time>2026-04-29T09:52:52.532Z</time></trkpt><trkpt lat="33.4029677" lon="9.0089298"><ele>65.0</ele><time>2026-04-29T09:52:53.515Z</time></trkpt><trkpt lat="33.4028042" lon="9.0089264"><ele>65.0</ele><time>2026-04-29T09:52:54.516Z</time></trkpt><trkpt lat="33.4026354" lon="9.0089321"><ele>65.0</ele><time>2026-04-29T09:52:55.532Z</time></trkpt><trkpt lat="33.4024655" lon="9.0089427"><ele>65.0</ele><time>2026-04-29T09:52:56.528Z</time></trkpt><trkpt lat="33.4022939" lon="9.0089547"><ele>65.0</ele><time>2026-04-29T09:52:57.511Z</time></trkpt><trkpt lat="33.4021228" lon="9.0089653"><ele>65.0</ele><time>2026-04-29T09:52:58.533Z</time></trkpt><trkpt lat="33.4019493" lon="9.0089754"><ele>64.33333333333334</ele><time>2026-04-29T09:52:59.528Z</time></trkpt><trkpt lat="33.4017724" lon="9.0089829"><ele>63.66666666666667</ele><time>2026-04-29T09:53:00.543Z</time></trkpt><trkpt lat="33.4016153" lon="9.0089968"><ele>63.0</ele><time>2026-04-29T09:53:01.533Z</time></trkpt><trkpt lat="33.4014855" lon="9.0090142"><ele>63.0</ele><time>2026-04-29T09:53:02.525Z</time></trkpt><trkpt lat="33.4013671" lon="9.0090304"><ele>63.0</ele><time>2026-04-29T09:53:03.542Z</time></trkpt><trkpt lat="33.4012502" lon="9.0090399"><ele>63.0</ele><time>2026-04-29T09:53:04.522Z</time></trkpt><trkpt lat="33.4011299" lon="9.0090452"><ele>63.0</ele><time>2026-04-29T09:53:05.525Z</time></trkpt><trkpt lat="33.4009998" lon="9.0090474"><ele>63.25</ele><time>2026-04-29T09:53:06.52Z</time></trkpt><trkpt lat="33.4008652" lon="9.0090478"><ele>63.5</ele><time>2026-04-29T09:53:07.527Z</time></trkpt><trkpt lat="33.4007248" lon="9.0090395"><ele>63.75</ele><time>2026-04-29T09:53:08.534Z</time></trkpt><trkpt lat="33.4005826" lon="9.0090204"><ele>64.0</ele><time>2026-04-29T09:53:09.524Z</time></trkpt><trkpt lat="33.400437" lon="9.0090036"><ele>63.5</ele><time>2026-04-29T09:53:10.53Z</time></trkpt><trkpt lat="33.4002909" lon="9.0089796"><ele>63.0</ele><time>2026-04-29T09:53:11.525Z</time></trkpt><trkpt lat="33.4001416" lon="9.008957"><ele>62.5</ele><time>2026-04-29T09:53:12.521Z</time></trkpt><trkpt lat="33.3999932" lon="9.0089275"><ele>62.0</ele><time>2026-04-29T09:53:13.536Z</time></trkpt><trkpt lat="33.3998455" lon="9.0089034"><ele>62.0</ele><time>2026-04-29T09:53:14.536Z</time></trkpt><trkpt lat="33.3996933" lon="9.008875"><ele>62.0</ele><time>2026-04-29T09:53:15.522Z</time></trkpt><trkpt lat="33.399539" lon="9.0088502"><ele>62.0</ele><time>2026-04-29T09:53:16.536Z</time></trkpt><trkpt lat="33.3993848" lon="9.0088309"><ele>62.66666666666667</ele><time>2026-04-29T09:53:17.515Z</time></trkpt><trkpt lat="33.3992275" lon="9.0088207"><ele>63.33333333333333</ele><time>2026-04-29T09:53:18.539Z</time></trkpt><trkpt lat="33.3990658" lon="9.0088145"><ele>64.0</ele><time>2026-04-29T09:53:19.527Z</time></trkpt><trkpt lat="33.398904" lon="9.0088083"><ele>63.666666666666664</ele><time>2026-04-29T09:53:20.528Z</time></trkpt><trkpt lat="33.3987461" lon="9.0088029"><ele>63.33333333333333</ele><time>2026-04-29T09:53:21.529Z</time></trkpt><trkpt lat="33.3985841" lon="9.0088012"><ele>63.0</ele><time>2026-04-29T09:53:22.524Z</time></trkpt><trkpt lat="33.3984239" lon="9.0087947"><ele>63.0</ele><time>2026-04-29T09:53:23.536Z</time></trkpt><trkpt lat="33.3982607" lon="9.0087938"><ele>63.0</ele><time>2026-04-29T09:53:24.549Z</time></trkpt><trkpt lat="33.3980971" lon="9.0087894"><ele>63.0</ele><time>2026-04-29T09:53:25.538Z</time></trkpt><trkpt lat="33.3979319" lon="9.0087886"><ele>63.33333333333333</ele><time>2026-04-29T09:53:26.53Z</time></trkpt><trkpt lat="33.3977713" lon="9.0087839"><ele>63.666666666666664</ele><time>2026-04-29T09:53:27.533Z</time></trkpt><trkpt lat="33.3976063" lon="9.0087797"><ele>64.0</ele><time>2026-04-29T09:53:28.527Z</time></trkpt><trkpt lat="33.3974406" lon="9.0087753"><ele>64.0</ele><time>2026-04-29T09:53:29.539Z</time></trkpt><trkpt lat="33.3972724" lon="9.0087751"><ele>64.0</ele><time>2026-04-29T09:53:30.526Z</time></trkpt><trkpt lat="33.3971052" lon="9.0087767"><ele>64.0</ele><time>2026-04-29T09:53:31.531Z</time></trkpt><trkpt lat="33.3969353" lon="9.0087748"><ele>64.33333333333333</ele><time>2026-04-29T09:53:32.52Z</time></trkpt><trkpt lat="33.3967689" lon="9.0087702"><ele>64.66666666666667</ele><time>2026-04-29T09:53:33.519Z</time></trkpt><trkpt lat="33.3966027" lon="9.0087648"><ele>65.0</ele><time>2026-04-29T09:53:34.527Z</time></trkpt><trkpt lat="33.3964336" lon="9.0087627"><ele>65.33333333333334</ele><time>2026-04-29T09:53:35.54Z</time></trkpt><trkpt lat="33.3962618" lon="9.0087564"><ele>65.66666666666667</ele><time>2026-04-29T09:53:36.54Z</time></trkpt><trkpt lat="33.3960918" lon="9.0087518"><ele>66.0</ele><time>2026-04-29T09:53:37.523Z</time></trkpt><trkpt lat="33.3959273" lon="9.0087477"><ele>66.0</ele><time>2026-04-29T09:53:38.536Z</time></trkpt><trkpt lat="33.3957578" lon="9.0087477"><ele>66.0</ele><time>2026-04-29T09:53:39.54Z</time></trkpt><trkpt lat="33.3955934" lon="9.0087428"><ele>66.0</ele><time>2026-04-29T09:53:40.545Z</time></trkpt><trkpt lat="33.3954244" lon="9.0087375"><ele>64.66666666666667</ele><time>2026-04-29T09:53:41.53Z</time></trkpt><trkpt lat="33.3952644" lon="9.0087363"><ele>63.333333333333336</ele><time>2026-04-29T09:53:42.538Z</time></trkpt><trkpt lat="33.3951074" lon="9.0087325"><ele>62.0</ele><time>2026-04-29T09:53:43.543Z</time></trkpt><trkpt lat="33.3949448" lon="9.0087304"><ele>62.0</ele><time>2026-04-29T09:53:44.546Z</time></trkpt><trkpt lat="33.3947788" lon="9.0087304"><ele>62.0</ele><time>2026-04-29T09:53:45.519Z</time></trkpt><trkpt lat="33.3946152" lon="9.0087289"><ele>62.0</ele><time>2026-04-29T09:53:46.538Z</time></trkpt><trkpt lat="33.3944471" lon="9.0087329"><ele>61.333333333333336</ele><time>2026-04-29T09:53:47.523Z</time></trkpt><trkpt lat="33.3942805" lon="9.008739"><ele>60.66666666666667</ele><time>2026-04-29T09:53:48.528Z</time></trkpt><trkpt lat="33.3941129" lon="9.0087456"><ele>60.0</ele><time>2026-04-29T09:53:49.526Z</time></trkpt><trkpt lat="33.3939479" lon="9.0087552"><ele>61.66666666666667</ele><time>2026-04-29T09:53:50.538Z</time></trkpt><trkpt lat="33.393782" lon="9.0087744"><ele>63.333333333333336</ele><time>2026-04-29T09:53:51.544Z</time></trkpt><trkpt lat="33.3936178" lon="9.0087958"><ele>65.0</ele><time>2026-04-29T09:53:52.533Z</time></trkpt><trkpt lat="33.3934491" lon="9.008823"><ele>65.0</ele><time>2026-04-29T09:53:53.536Z</time></trkpt><trkpt lat="33.3932841" lon="9.0088523"><ele>65.0</ele><time>2026-04-29T09:53:54.532Z</time></trkpt><trkpt lat="33.3931197" lon="9.008885"><ele>65.0</ele><time>2026-04-29T09:53:55.532Z</time></trkpt><trkpt lat="33.3929616" lon="9.0089241"><ele>65.0</ele><time>2026-04-29T09:53:56.536Z</time></trkpt><trkpt lat="33.392799" lon="9.0089676"><ele>65.0</ele><time>2026-04-29T09:53:57.538Z</time></trkpt><trkpt lat="33.3926371" lon="9.0090134"><ele>65.0</ele><time>2026-04-29T09:53:58.541Z</time></trkpt><trkpt lat="33.3924761" lon="9.0090618"><ele>65.0</ele><time>2026-04-29T09:53:59.536Z</time></trkpt><trkpt lat="33.3923182" lon="9.0091113"><ele>65.0</ele><time>2026-04-29T09:54:00.566Z</time></trkpt><trkpt lat="33.3921597" lon="9.0091714"><ele>65.0</ele><time>2026-04-29T09:54:01.536Z</time></trkpt><trkpt lat="33.3920074" lon="9.0092303"><ele>63.0</ele><time>2026-04-29T09:54:02.552Z</time></trkpt><trkpt lat="33.3918521" lon="9.0092941"><ele>61.0</ele><time>2026-04-29T09:54:03.533Z</time></trkpt><trkpt lat="33.3917" lon="9.009362"><ele>59.0</ele><time>2026-04-29T09:54:04.537Z</time></trkpt><trkpt lat="33.3915415" lon="9.009434"><ele>59.0</ele><time>2026-04-29T09:54:05.519Z</time></trkpt><trkpt lat="33.3913822" lon="9.0095091"><ele>59.0</ele><time>2026-04-29T09:54:06.534Z</time></trkpt><trkpt lat="33.3912232" lon="9.0095927"><ele>59.0</ele><time>2026-04-29T09:54:07.535Z</time></trkpt><trkpt lat="33.3910624" lon="9.0096786"><ele>60.0</ele><time>2026-04-29T09:54:08.537Z</time></trkpt><trkpt lat="33.3909093" lon="9.0097707"><ele>61.0</ele><time>2026-04-29T09:54:09.534Z</time></trkpt><trkpt lat="33.3907571" lon="9.0098626"><ele>62.0</ele><time>2026-04-29T09:54:10.529Z</time></trkpt><trkpt lat="33.390601" lon="9.0099622"><ele>63.0</ele><time>2026-04-29T09:54:11.537Z</time></trkpt><trkpt lat="33.3904474" lon="9.0100662"><ele>64.0</ele><time>2026-04-29T09:54:12.54Z</time></trkpt><trkpt lat="33.3902951" lon="9.0101785"><ele>65.0</ele><time>2026-04-29T09:54:13.537Z</time></trkpt><trkpt lat="33.3901415" lon="9.010292"><ele>65.0</ele><time>2026-04-29T09:54:14.538Z</time></trkpt><trkpt lat="33.3899894" lon="9.0104081"><ele>65.0</ele><time>2026-04-29T09:54:15.531Z</time></trkpt><trkpt lat="33.3898411" lon="9.0105278"><ele>65.0</ele><time>2026-04-29T09:54:16.544Z</time></trkpt><trkpt lat="33.3896937" lon="9.0106539"><ele>65.33333333333334</ele><time>2026-04-29T09:54:17.541Z</time></trkpt><trkpt lat="33.3895498" lon="9.0107777"><ele>65.66666666666667</ele><time>2026-04-29T09:54:18.527Z</time></trkpt><trkpt lat="33.3894042" lon="9.0109015"><ele>66.0</ele><time>2026-04-29T09:54:19.543Z</time></trkpt><trkpt lat="33.3892656" lon="9.0110361"><ele>65.33333333333333</ele><time>2026-04-29T09:54:20.535Z</time></trkpt><trkpt lat="33.3891439" lon="9.0111715"><ele>64.66666666666666</ele><time>2026-04-29T09:54:21.544Z</time></trkpt><trkpt lat="33.3890154" lon="9.0113132"><ele>64.0</ele><time>2026-04-29T09:54:22.542Z</time></trkpt><trkpt lat="33.3888911" lon="9.0114544"><ele>64.33333333333333</ele><time>2026-04-29T09:54:23.525Z</time></trkpt><trkpt lat="33.3887674" lon="9.0116016"><ele>64.66666666666667</ele><time>2026-04-29T09:54:24.54Z</time></trkpt><trkpt lat="33.3886406" lon="9.0117519"><ele>65.0</ele><time>2026-04-29T09:54:25.548Z</time></trkpt><trkpt lat="33.3885248" lon="9.0119017"><ele>64.33333333333334</ele><time>2026-04-29T09:54:26.525Z</time></trkpt><trkpt lat="33.3884059" lon="9.0120562"><ele>63.66666666666667</ele><time>2026-04-29T09:54:27.534Z</time></trkpt><trkpt lat="33.3882951" lon="9.0122121"><ele>63.0</ele><time>2026-04-29T09:54:28.537Z</time></trkpt><trkpt lat="33.3881844" lon="9.0123671"><ele>63.0</ele><time>2026-04-29T09:54:29.545Z</time></trkpt><trkpt lat="33.3880805" lon="9.0125223"><ele>63.0</ele><time>2026-04-29T09:54:30.543Z</time></trkpt><trkpt lat="33.3879782" lon="9.012677"><ele>63.0</ele><time>2026-04-29T09:54:31.52Z</time></trkpt><trkpt lat="33.387881" lon="9.0128322"><ele>63.66666666666667</ele><time>2026-04-29T09:54:32.544Z</time></trkpt><trkpt lat="33.3877878" lon="9.0129831"><ele>64.33333333333334</ele><time>2026-04-29T09:54:33.535Z</time></trkpt><trkpt lat="33.3876984" lon="9.0131395"><ele>65.0</ele><time>2026-04-29T09:54:34.538Z</time></trkpt><trkpt lat="33.3876145" lon="9.0133055"><ele>65.0</ele><time>2026-04-29T09:54:35.53Z</time></trkpt><trkpt lat="33.3875309" lon="9.0134714"><ele>65.0</ele><time>2026-04-29T09:54:36.544Z</time></trkpt><trkpt lat="33.3874545" lon="9.0136346"><ele>65.0</ele><time>2026-04-29T09:54:37.536Z</time></trkpt><trkpt lat="33.3873736" lon="9.0137995"><ele>65.0</ele><time>2026-04-29T09:54:38.535Z</time></trkpt><trkpt lat="33.3872978" lon="9.0139652"><ele>65.0</ele><time>2026-04-29T09:54:39.546Z</time></trkpt><trkpt lat="33.3872237" lon="9.0141304"><ele>65.0</ele><time>2026-04-29T09:54:40.542Z</time></trkpt><trkpt lat="33.3871571" lon="9.0142987"><ele>66.0</ele><time>2026-04-29T09:54:41.527Z</time></trkpt><trkpt lat="33.3870933" lon="9.0144587"><ele>67.0</ele><time>2026-04-29T09:54:42.544Z</time></trkpt><trkpt lat="33.3870395" lon="9.0146072"><ele>68.0</ele><time>2026-04-29T09:54:43.531Z</time></trkpt><trkpt lat="33.3869848" lon="9.0147535"><ele>69.0</ele><time>2026-04-29T09:54:44.536Z</time></trkpt><trkpt lat="33.3869358" lon="9.0148925"><ele>68.25</ele><time>2026-04-29T09:54:45.539Z</time></trkpt><trkpt lat="33.3868864" lon="9.0150168"><ele>67.5</ele><time>2026-04-29T09:54:46.535Z</time></trkpt><trkpt lat="33.386836" lon="9.0151465"><ele>66.75</ele><time>2026-04-29T09:54:47.531Z</time></trkpt><trkpt lat="33.386781" lon="9.0152787"><ele>66.0</ele><time>2026-04-29T09:54:48.535Z</time></trkpt><trkpt lat="33.3867331" lon="9.015412"><ele>66.0</ele><time>2026-04-29T09:54:49.531Z</time></trkpt><trkpt lat="33.3866792" lon="9.0155536"><ele>66.0</ele><time>2026-04-29T09:54:50.541Z</time></trkpt><trkpt lat="33.3866266" lon="9.0157071"><ele>66.0</ele><time>2026-04-29T09:54:51.535Z</time></trkpt><trkpt lat="33.3865734" lon="9.0158622"><ele>66.0</ele><time>2026-04-29T09:54:52.543Z</time></trkpt><trkpt lat="33.3865143" lon="9.0160153"><ele>65.75</ele><time>2026-04-29T09:54:53.528Z</time></trkpt><trkpt lat="33.386459" lon="9.01617"><ele>65.5</ele><time>2026-04-29T09:54:54.519Z</time></trkpt><trkpt lat="33.3864036" lon="9.0163215"><ele>65.25</ele><time>2026-04-29T09:54:55.539Z</time></trkpt><trkpt lat="33.3863485" lon="9.0164755"><ele>65.0</ele><time>2026-04-29T09:54:56.522Z</time></trkpt><trkpt lat="33.3862963" lon="9.0166365"><ele>65.33333333333334</ele><time>2026-04-29T09:54:57.533Z</time></trkpt><trkpt lat="33.3862353" lon="9.0168017"><ele>65.66666666666667</ele><time>2026-04-29T09:54:58.533Z</time></trkpt><trkpt lat="33.3861824" lon="9.0169695"><ele>66.0</ele><time>2026-04-29T09:54:59.519Z</time></trkpt><trkpt lat="33.3861291" lon="9.0171431"><ele>66.0</ele><time>2026-04-29T09:55:00.537Z</time></trkpt><trkpt lat="33.3860796" lon="9.0173202"><ele>66.0</ele><time>2026-04-29T09:55:01.524Z</time></trkpt><trkpt lat="33.3860313" lon="9.0175033"><ele>66.0</ele><time>2026-04-29T09:55:02.544Z</time></trkpt><trkpt lat="33.3859827" lon="9.0176931"><ele>67.0</ele><time>2026-04-29T09:55:03.526Z</time></trkpt><trkpt lat="33.3859385" lon="9.0178819"><ele>68.0</ele><time>2026-04-29T09:55:04.537Z</time></trkpt><trkpt lat="33.3858916" lon="9.0180728"><ele>69.0</ele><time>2026-04-29T09:55:05.538Z</time></trkpt><trkpt lat="33.3858442" lon="9.0182672"><ele>69.0</ele><time>2026-04-29T09:55:06.533Z</time></trkpt><trkpt lat="33.3857994" lon="9.0184635"><ele>69.0</ele><time>2026-04-29T09:55:07.545Z</time></trkpt><trkpt lat="33.38576" lon="9.0186602"><ele>69.0</ele><time>2026-04-29T09:55:08.546Z</time></trkpt><trkpt lat="33.3857279" lon="9.0188609"><ele>69.0</ele><time>2026-04-29T09:55:09.537Z</time></trkpt><trkpt lat="33.3856975" lon="9.0190622"><ele>69.0</ele><time>2026-04-29T09:55:10.531Z</time></trkpt><trkpt lat="33.3856693" lon="9.0192667"><ele>69.0</ele><time>2026-04-29T09:55:11.534Z</time></trkpt><trkpt lat="33.3856495" lon="9.01947"><ele>69.0</ele><time>2026-04-29T09:55:12.53Z</time></trkpt><trkpt lat="33.3856312" lon="9.0196708"><ele>69.0</ele><time>2026-04-29T09:55:13.543Z</time></trkpt><trkpt lat="33.3856172" lon="9.0198608"><ele>69.0</ele><time>2026-04-29T09:55:14.524Z</time></trkpt><trkpt lat="33.3856053" lon="9.0200531"><ele>68.66666666666667</ele><time>2026-04-29T09:55:15.533Z</time></trkpt><trkpt lat="33.3855911" lon="9.0202465"><ele>68.33333333333334</ele><time>2026-04-29T09:55:16.536Z</time></trkpt><trkpt lat="33.3855734" lon="9.0204274"><ele>68.0</ele><time>2026-04-29T09:55:17.524Z</time></trkpt><trkpt lat="33.3855598" lon="9.0205992"><ele>68.0</ele><time>2026-04-29T09:55:18.539Z</time></trkpt><trkpt lat="33.3855537" lon="9.0207821"><ele>68.0</ele><time>2026-04-29T09:55:19.529Z</time></trkpt><trkpt lat="33.3855474" lon="9.0209665"><ele>68.0</ele><time>2026-04-29T09:55:20.512Z</time></trkpt><trkpt lat="33.3855459" lon="9.0211435"><ele>67.75</ele><time>2026-04-29T09:55:21.533Z</time></trkpt><trkpt lat="33.3855475" lon="9.0213232"><ele>67.5</ele><time>2026-04-29T09:55:22.528Z</time></trkpt><trkpt lat="33.3855554" lon="9.0215001"><ele>67.25</ele><time>2026-04-29T09:55:23.538Z</time></trkpt><trkpt lat="33.3855637" lon="9.0216775"><ele>67.0</ele><time>2026-04-29T09:55:24.53Z</time></trkpt><trkpt lat="33.3855751" lon="9.0218547"><ele>67.5</ele><time>2026-04-29T09:55:25.544Z</time></trkpt><trkpt lat="33.385587" lon="9.0220235"><ele>68.0</ele><time>2026-04-29T09:55:26.534Z</time></trkpt><trkpt lat="33.3856032" lon="9.022199"><ele>68.5</ele><time>2026-04-29T09:55:27.528Z</time></trkpt><trkpt lat="33.3856189" lon="9.0223716"><ele>69.0</ele><time>2026-04-29T09:55:28.546Z</time></trkpt><trkpt lat="33.3856394" lon="9.0225553"><ele>69.33333333333333</ele><time>2026-04-29T09:55:29.544Z</time></trkpt><trkpt lat="33.3856631" lon="9.0227419"><ele>69.66666666666666</ele><time>2026-04-29T09:55:30.537Z</time></trkpt><trkpt lat="33.3856889" lon="9.0229314"><ele>70.0</ele><time>2026-04-29T09:55:31.512Z</time></trkpt><trkpt lat="33.385717" lon="9.0231208"><ele>70.0</ele><time>2026-04-29T09:55:32.544Z</time></trkpt><trkpt lat="33.3857498" lon="9.0233095"><ele>70.0</ele><time>2026-04-29T09:55:33.547Z</time></trkpt><trkpt lat="33.3857843" lon="9.0235002"><ele>70.0</ele><time>2026-04-29T09:55:34.515Z</time></trkpt><trkpt lat="33.3858145" lon="9.0236896"><ele>70.0</ele><time>2026-04-29T09:55:35.52Z</time></trkpt><trkpt lat="33.3858512" lon="9.0238727"><ele>70.0</ele><time>2026-04-29T09:55:36.531Z</time></trkpt><trkpt lat="33.385891" lon="9.0240603"><ele>70.0</ele><time>2026-04-29T09:55:37.519Z</time></trkpt><trkpt lat="33.3859294" lon="9.0242476"><ele>70.0</ele><time>2026-04-29T09:55:38.544Z</time></trkpt><trkpt lat="33.3859684" lon="9.0244279"><ele>70.0</ele><time>2026-04-29T09:55:39.515Z</time></trkpt><trkpt lat="33.386002" lon="9.0246104"><ele>70.0</ele><time>2026-04-29T09:55:40.536Z</time></trkpt><trkpt lat="33.3860378" lon="9.024797"><ele>70.0</ele><time>2026-04-29T09:55:41.529Z</time></trkpt><trkpt lat="33.3860745" lon="9.0249863"><ele>70.0</ele><time>2026-04-29T09:55:42.54Z</time></trkpt><trkpt lat="33.3861127" lon="9.0251677"><ele>70.0</ele><time>2026-04-29T09:55:43.529Z</time></trkpt><trkpt lat="33.3861452" lon="9.0253535"><ele>70.0</ele><time>2026-04-29T09:55:44.533Z</time></trkpt><trkpt lat="33.3861728" lon="9.0255408"><ele>70.0</ele><time>2026-04-29T09:55:45.534Z</time></trkpt><trkpt lat="33.3862017" lon="9.0257284"><ele>70.0</ele><time>2026-04-29T09:55:46.532Z</time></trkpt><trkpt lat="33.3862308" lon="9.0259153"><ele>70.0</ele><time>2026-04-29T09:55:47.535Z</time></trkpt><trkpt lat="33.3862525" lon="9.0261009"><ele>70.0</ele><time>2026-04-29T09:55:48.538Z</time></trkpt><trkpt lat="33.3862727" lon="9.0262932"><ele>70.0</ele><time>2026-04-29T09:55:49.531Z</time></trkpt><trkpt lat="33.3862944" lon="9.0264921"><ele>70.66666666666666</ele><time>2026-04-29T09:55:50.516Z</time></trkpt><trkpt lat="33.3863062" lon="9.0266876"><ele>71.33333333333333</ele><time>2026-04-29T09:55:51.523Z</time></trkpt><trkpt lat="33.3863157" lon="9.0268754"><ele>72.0</ele><time>2026-04-29T09:55:52.543Z</time></trkpt><trkpt lat="33.3863228" lon="9.0270644"><ele>72.0</ele><time>2026-04-29T09:55:53.536Z</time></trkpt><trkpt lat="33.3863308" lon="9.0272572"><ele>72.0</ele><time>2026-04-29T09:55:54.542Z</time></trkpt><trkpt lat="33.3863357" lon="9.0274414"><ele>72.0</ele><time>2026-04-29T09:55:55.533Z</time></trkpt><trkpt lat="33.3863364" lon="9.0276316"><ele>72.0</ele><time>2026-04-29T09:55:56.523Z</time></trkpt><trkpt lat="33.3863332" lon="9.0278197"><ele>72.0</ele><time>2026-04-29T09:55:57.528Z</time></trkpt><trkpt lat="33.3863225" lon="9.0280096"><ele>72.0</ele><time>2026-04-29T09:55:58.519Z</time></trkpt><trkpt lat="33.3863133" lon="9.0281984"><ele>71.33333333333333</ele><time>2026-04-29T09:55:59.557Z</time></trkpt><trkpt lat="33.386311" lon="9.0283954"><ele>70.66666666666666</ele><time>2026-04-29T09:56:00.54Z</time></trkpt><trkpt lat="33.3862966" lon="9.0285896"><ele>70.0</ele><time>2026-04-29T09:56:01.545Z</time></trkpt><trkpt lat="33.3862814" lon="9.0287902"><ele>70.0</ele><time>2026-04-29T09:56:02.528Z</time></trkpt><trkpt lat="33.3862645" lon="9.0290073"><ele>70.0</ele><time>2026-04-29T09:56:03.528Z</time></trkpt><trkpt lat="33.3862546" lon="9.0292292"><ele>70.0</ele><time>2026-04-29T09:56:04.546Z</time></trkpt><trkpt lat="33.3862329" lon="9.0294485"><ele>70.33333333333333</ele><time>2026-04-29T09:56:05.532Z</time></trkpt><trkpt lat="33.3862232" lon="9.0296626"><ele>70.66666666666667</ele><time>2026-04-29T09:56:06.552Z</time></trkpt><trkpt lat="33.3862108" lon="9.0298779"><ele>71.0</ele><time>2026-04-29T09:56:07.532Z</time></trkpt><trkpt lat="33.3862012" lon="9.0300946"><ele>71.66666666666667</ele><time>2026-04-29T09:56:08.541Z</time></trkpt><trkpt lat="33.3861858" lon="9.0303097"><ele>72.33333333333333</ele><time>2026-04-29T09:56:09.532Z</time></trkpt><trkpt lat="33.386168" lon="9.0305251"><ele>73.0</ele><time>2026-04-29T09:56:10.551Z</time></trkpt><trkpt lat="33.3861514" lon="9.0307403"><ele>71.33333333333333</ele><time>2026-04-29T09:56:11.53Z</time></trkpt><trkpt lat="33.3861363" lon="9.0309563"><ele>69.66666666666667</ele><time>2026-04-29T09:56:12.549Z</time></trkpt><trkpt lat="33.3861197" lon="9.0311717"><ele>68.0</ele><time>2026-04-29T09:56:13.536Z</time></trkpt><trkpt lat="33.3861081" lon="9.0313863"><ele>68.0</ele><time>2026-04-29T09:56:14.546Z</time></trkpt><trkpt lat="33.3860947" lon="9.0315938"><ele>68.0</ele><time>2026-04-29T09:56:15.532Z</time></trkpt><trkpt lat="33.3860813" lon="9.0317996"><ele>68.0</ele><time>2026-04-29T09:56:16.532Z</time></trkpt><trkpt lat="33.3860672" lon="9.0320043"><ele>68.66666666666667</ele><time>2026-04-29T09:56:17.536Z</time></trkpt><trkpt lat="33.3860523" lon="9.0322096"><ele>69.33333333333333</ele><time>2026-04-29T09:56:18.554Z</time></trkpt><trkpt lat="33.3860387" lon="9.0324134"><ele>70.0</ele><time>2026-04-29T09:56:19.547Z</time></trkpt><trkpt lat="33.3860291" lon="9.0326163"><ele>71.0</ele><time>2026-04-29T09:56:20.535Z</time></trkpt><trkpt lat="33.3860163" lon="9.032822"><ele>72.0</ele><time>2026-04-29T09:56:21.521Z</time></trkpt><trkpt lat="33.3860029" lon="9.0330296"><ele>73.0</ele><time>2026-04-29T09:56:22.52Z</time></trkpt><trkpt lat="33.3859885" lon="9.0332385"><ele>72.33333333333333</ele><time>2026-04-29T09:56:23.535Z</time></trkpt><trkpt lat="33.3859765" lon="9.0334462"><ele>71.66666666666667</ele><time>2026-04-29T09:56:24.547Z</time></trkpt><trkpt lat="33.3859651" lon="9.0336557"><ele>71.0</ele><time>2026-04-29T09:56:25.535Z</time></trkpt><trkpt lat="33.3859543" lon="9.0338634"><ele>71.0</ele><time>2026-04-29T09:56:26.546Z</time></trkpt><trkpt lat="33.3859391" lon="9.034073"><ele>71.0</ele><time>2026-04-29T09:56:27.534Z</time></trkpt><trkpt lat="33.3859231" lon="9.0342879"><ele>71.0</ele><time>2026-04-29T09:56:28.54Z</time></trkpt><trkpt lat="33.3859056" lon="9.0345021"><ele>71.0</ele><time>2026-04-29T09:56:29.531Z</time></trkpt><trkpt lat="33.3858938" lon="9.0347163"><ele>71.0</ele><time>2026-04-29T09:56:30.541Z</time></trkpt><trkpt lat="33.3858803" lon="9.0349279"><ele>71.0</ele><time>2026-04-29T09:56:31.551Z</time></trkpt><trkpt lat="33.3858642" lon="9.0351425"><ele>71.66666666666667</ele><time>2026-04-29T09:56:32.521Z</time></trkpt><trkpt lat="33.3858462" lon="9.0353543"><ele>72.33333333333333</ele><time>2026-04-29T09:56:33.53Z</time></trkpt><trkpt lat="33.3858298" lon="9.0355672"><ele>73.0</ele><time>2026-04-29T09:56:34.542Z</time></trkpt><trkpt lat="33.3858159" lon="9.035779"><ele>72.66666666666666</ele><time>2026-04-29T09:56:35.537Z</time></trkpt><trkpt lat="33.3857992" lon="9.035988"><ele>72.33333333333333</ele><time>2026-04-29T09:56:36.54Z</time></trkpt><trkpt lat="33.3857861" lon="9.0361984"><ele>72.0</ele><time>2026-04-29T09:56:37.531Z</time></trkpt><trkpt lat="33.3857728" lon="9.0364076"><ele>72.0</ele><time>2026-04-29T09:56:38.534Z</time></trkpt><trkpt lat="33.3857573" lon="9.036613"><ele>72.0</ele><time>2026-04-29T09:56:39.545Z</time></trkpt><trkpt lat="33.385742" lon="9.036815"><ele>72.0</ele><time>2026-04-29T09:56:40.547Z</time></trkpt><trkpt lat="33.3857226" lon="9.0370158"><ele>72.0</ele><time>2026-04-29T09:56:41.533Z</time></trkpt><trkpt lat="33.3857109" lon="9.0372106"><ele>72.0</ele><time>2026-04-29T09:56:42.528Z</time></trkpt><trkpt lat="33.3856988" lon="9.0374087"><ele>72.0</ele><time>2026-04-29T09:56:43.54Z</time></trkpt><trkpt lat="33.385683" lon="9.0376053"><ele>72.0</ele><time>2026-04-29T09:56:44.531Z</time></trkpt><trkpt lat="33.3856706" lon="9.0378006"><ele>72.0</ele><time>2026-04-29T09:56:45.543Z</time></trkpt><trkpt lat="33.3856639" lon="9.0379974"><ele>72.0</ele><time>2026-04-29T09:56:46.528Z</time></trkpt><trkpt lat="33.3856521" lon="9.0381963"><ele>71.0</ele><time>2026-04-29T09:56:47.53Z</time></trkpt><trkpt lat="33.3856402" lon="9.0383902"><ele>70.0</ele><time>2026-04-29T09:56:48.537Z</time></trkpt><trkpt lat="33.3856279" lon="9.0385811"><ele>69.0</ele><time>2026-04-29T09:56:49.538Z</time></trkpt><trkpt lat="33.3856173" lon="9.0387685"><ele>69.0</ele><time>2026-04-29T09:56:50.548Z</time></trkpt><trkpt lat="33.3856041" lon="9.0389576"><ele>69.0</ele><time>2026-04-29T09:56:51.547Z</time></trkpt><trkpt lat="33.3855946" lon="9.0391414"><ele>69.0</ele><time>2026-04-29T09:56:52.533Z</time></trkpt><trkpt lat="33.3855872" lon="9.039332"><ele>69.66666666666667</ele><time>2026-04-29T09:56:53.54Z</time></trkpt><trkpt lat="33.385572" lon="9.039522"><ele>70.33333333333334</ele><time>2026-04-29T09:56:54.538Z</time></trkpt><trkpt lat="33.3855589" lon="9.0397115"><ele>71.0</ele><time>2026-04-29T09:56:55.532Z</time></trkpt><trkpt lat="33.3855498" lon="9.0398983"><ele>71.33333333333334</ele><time>2026-04-29T09:56:56.532Z</time></trkpt><trkpt lat="33.3855425" lon="9.0400874"><ele>71.66666666666667</ele><time>2026-04-29T09:56:57.539Z</time></trkpt><trkpt lat="33.3855333" lon="9.0402759"><ele>72.0</ele><time>2026-04-29T09:56:58.54Z</time></trkpt><trkpt lat="33.3855207" lon="9.0404646"><ele>71.66666666666667</ele><time>2026-04-29T09:56:59.537Z</time></trkpt><trkpt lat="33.3855067" lon="9.0406562"><ele>71.33333333333334</ele><time>2026-04-29T09:57:00.54Z</time></trkpt><trkpt lat="33.3854975" lon="9.0408475"><ele>71.0</ele><time>2026-04-29T09:57:01.538Z</time></trkpt><trkpt lat="33.3854898" lon="9.0410374"><ele>71.0</ele><time>2026-04-29T09:57:02.545Z</time></trkpt><trkpt lat="33.3854835" lon="9.0412273"><ele>71.0</ele><time>2026-04-29T09:57:03.551Z</time></trkpt><trkpt lat="33.3854723" lon="9.0414117"><ele>71.0</ele><time>2026-04-29T09:57:04.538Z</time></trkpt><trkpt lat="33.3854607" lon="9.0416131"><ele>72.0</ele><time>2026-04-29T09:57:05.526Z</time></trkpt><trkpt lat="33.3854392" lon="9.0418257"><ele>73.0</ele><time>2026-04-29T09:57:06.541Z</time></trkpt><trkpt lat="33.3854194" lon="9.0420412"><ele>74.0</ele><time>2026-04-29T09:57:07.532Z</time></trkpt><trkpt lat="33.3854004" lon="9.0422697"><ele>73.0</ele><time>2026-04-29T09:57:08.538Z</time></trkpt><trkpt lat="33.385386" lon="9.0425015"><ele>72.0</ele><time>2026-04-29T09:57:09.539Z</time></trkpt><trkpt lat="33.385366" lon="9.0427298"><ele>71.0</ele><time>2026-04-29T09:57:10.538Z</time></trkpt><trkpt lat="33.3853526" lon="9.0429573"><ele>71.0</ele><time>2026-04-29T09:57:11.537Z</time></trkpt><trkpt lat="33.3853342" lon="9.0431741"><ele>71.0</ele><time>2026-04-29T09:57:12.545Z</time></trkpt><trkpt lat="33.385319" lon="9.0433779"><ele>71.0</ele><time>2026-04-29T09:57:13.537Z</time></trkpt><trkpt lat="33.3853098" lon="9.0435631"><ele>70.66666666666667</ele><time>2026-04-29T09:57:14.542Z</time></trkpt><trkpt lat="33.3852997" lon="9.0437527"><ele>70.33333333333333</ele><time>2026-04-29T09:57:15.535Z</time></trkpt><trkpt lat="33.3852926" lon="9.0439398"><ele>70.0</ele><time>2026-04-29T09:57:16.53Z</time></trkpt><trkpt lat="33.3852808" lon="9.044121"><ele>70.33333333333333</ele><time>2026-04-29T09:57:17.519Z</time></trkpt><trkpt lat="33.3852699" lon="9.0443048"><ele>70.66666666666667</ele><time>2026-04-29T09:57:18.54Z</time></trkpt><trkpt lat="33.3852528" lon="9.0444814"><ele>71.0</ele><time>2026-04-29T09:57:19.544Z</time></trkpt><trkpt lat="33.3852479" lon="9.0446649"><ele>71.0</ele><time>2026-04-29T09:57:20.535Z</time></trkpt><trkpt lat="33.3852462" lon="9.0448499"><ele>71.0</ele><time>2026-04-29T09:57:21.531Z</time></trkpt><trkpt lat="33.3852463" lon="9.0450441"><ele>71.0</ele><time>2026-04-29T09:57:22.517Z</time></trkpt><trkpt lat="33.3852423" lon="9.0452395"><ele>71.0</ele><time>2026-04-29T09:57:23.53Z</time></trkpt><trkpt lat="33.3852398" lon="9.0454387"><ele>71.0</ele><time>2026-04-29T09:57:24.546Z</time></trkpt><trkpt lat="33.3852352" lon="9.0456269"><ele>71.0</ele><time>2026-04-29T09:57:25.538Z</time></trkpt><trkpt lat="33.3852338" lon="9.0458164"><ele>70.66666666666667</ele><time>2026-04-29T09:57:26.54Z</time></trkpt><trkpt lat="33.3852355" lon="9.0460087"><ele>70.33333333333333</ele><time>2026-04-29T09:57:27.543Z</time></trkpt><trkpt lat="33.3852402" lon="9.046204"><ele>70.0</ele><time>2026-04-29T09:57:28.537Z</time></trkpt><trkpt lat="33.3852423" lon="9.0463999"><ele>70.0</ele><time>2026-04-29T09:57:29.53Z</time></trkpt><trkpt lat="33.3852511" lon="9.046597"><ele>70.0</ele><time>2026-04-29T09:57:30.532Z</time></trkpt><trkpt lat="33.3852594" lon="9.0467959"><ele>70.0</ele><time>2026-04-29T09:57:31.519Z</time></trkpt><trkpt lat="33.3852657" lon="9.0470074"><ele>70.0</ele><time>2026-04-29T09:57:32.533Z</time></trkpt><trkpt lat="33.3852796" lon="9.0472098"><ele>70.0</ele><time>2026-04-29T09:57:33.54Z</time></trkpt><trkpt lat="33.3852957" lon="9.047413"><ele>70.0</ele><time>2026-04-29T09:57:34.535Z</time></trkpt><trkpt lat="33.3853195" lon="9.0476217"><ele>70.33333333333333</ele><time>2026-04-29T09:57:35.523Z</time></trkpt><trkpt lat="33.3853454" lon="9.0478357"><ele>70.66666666666667</ele><time>2026-04-29T09:57:36.521Z</time></trkpt><trkpt lat="33.3853722" lon="9.0480566"><ele>71.0</ele><time>2026-04-29T09:57:37.533Z</time></trkpt><trkpt lat="33.385405" lon="9.0482832"><ele>73.0</ele><time>2026-04-29T09:57:38.537Z</time></trkpt><trkpt lat="33.3854399" lon="9.0485091"><ele>75.0</ele><time>2026-04-29T09:57:39.525Z</time></trkpt><trkpt lat="33.3854701" lon="9.0487334"><ele>77.0</ele><time>2026-04-29T09:57:40.541Z</time></trkpt><trkpt lat="33.3855034" lon="9.0489566"><ele>76.0</ele><time>2026-04-29T09:57:41.538Z</time></trkpt><trkpt lat="33.3855281" lon="9.0491801"><ele>75.0</ele><time>2026-04-29T09:57:42.54Z</time></trkpt><trkpt lat="33.3855572" lon="9.0493959"><ele>74.0</ele><time>2026-04-29T09:57:43.528Z</time></trkpt><trkpt lat="33.3855848" lon="9.0496115"><ele>74.0</ele><time>2026-04-29T09:57:44.528Z</time></trkpt><trkpt lat="33.3856056" lon="9.0498323"><ele>74.0</ele><time>2026-04-29T09:57:45.554Z</time></trkpt><trkpt lat="33.3856185" lon="9.050052"><ele>74.0</ele><time>2026-04-29T09:57:46.546Z</time></trkpt><trkpt lat="33.3856276" lon="9.0502696"><ele>74.33333333333334</ele><time>2026-04-29T09:57:47.548Z</time></trkpt><trkpt lat="33.3856368" lon="9.0504832"><ele>74.66666666666667</ele><time>2026-04-29T09:57:48.555Z</time></trkpt><trkpt lat="33.3856433" lon="9.0507022"><ele>75.0</ele><time>2026-04-29T09:57:49.526Z</time></trkpt><trkpt lat="33.3856435" lon="9.0509293"><ele>74.0</ele><time>2026-04-29T09:57:50.539Z</time></trkpt><trkpt lat="33.3856443" lon="9.0511572"><ele>73.0</ele><time>2026-04-29T09:57:51.538Z</time></trkpt><trkpt lat="33.3856452" lon="9.0513892"><ele>72.0</ele><time>2026-04-29T09:57:52.534Z</time></trkpt><trkpt lat="33.3856394" lon="9.051619"><ele>71.66666666666667</ele><time>2026-04-29T09:57:53.536Z</time></trkpt><trkpt lat="33.3856238" lon="9.0518453"><ele>71.33333333333334</ele><time>2026-04-29T09:57:54.54Z</time></trkpt><trkpt lat="33.3856084" lon="9.052078"><ele>71.0</ele><time>2026-04-29T09:57:55.542Z</time></trkpt><trkpt lat="33.3855919" lon="9.0523103"><ele>71.66666666666667</ele><time>2026-04-29T09:57:56.553Z</time></trkpt><trkpt lat="33.3855706" lon="9.0525433"><ele>72.33333333333333</ele><time>2026-04-29T09:57:57.532Z</time></trkpt><trkpt lat="33.3855445" lon="9.0527752"><ele>73.0</ele><time>2026-04-29T09:57:58.527Z</time></trkpt><trkpt lat="33.3855085" lon="9.0530085"><ele>73.0</ele><time>2026-04-29T09:57:59.514Z</time></trkpt><trkpt lat="33.385472" lon="9.0532412"><ele>73.0</ele><time>2026-04-29T09:58:00.536Z</time></trkpt><trkpt lat="33.385433" lon="9.0534675"><ele>73.0</ele><time>2026-04-29T09:58:01.537Z</time></trkpt><trkpt lat="33.3853966" lon="9.053699"><ele>73.0</ele><time>2026-04-29T09:58:02.528Z</time></trkpt><trkpt lat="33.3853562" lon="9.0539288"><ele>73.0</ele><time>2026-04-29T09:58:03.524Z</time></trkpt><trkpt lat="33.3853156" lon="9.0541628"><ele>73.0</ele><time>2026-04-29T09:58:04.507Z</time></trkpt><trkpt lat="33.3852744" lon="9.0543957"><ele>73.33333333333333</ele><time>2026-04-29T09:58:05.546Z</time></trkpt><trkpt lat="33.3852274" lon="9.0546268"><ele>73.66666666666667</ele><time>2026-04-29T09:58:06.528Z</time></trkpt><trkpt lat="33.3851716" lon="9.0548576"><ele>74.0</ele><time>2026-04-29T09:58:07.525Z</time></trkpt><trkpt lat="33.3851101" lon="9.0550888"><ele>75.0</ele><time>2026-04-29T09:58:08.539Z</time></trkpt><trkpt lat="33.3850521" lon="9.0553252"><ele>76.0</ele><time>2026-04-29T09:58:09.518Z</time></trkpt><trkpt lat="33.3849929" lon="9.0555622"><ele>77.0</ele><time>2026-04-29T09:58:10.529Z</time></trkpt><trkpt lat="33.3849314" lon="9.0558011"><ele>77.0</ele><time>2026-04-29T09:58:11.536Z</time></trkpt><trkpt lat="33.3848743" lon="9.0560429"><ele>77.0</ele><time>2026-04-29T09:58:12.545Z</time></trkpt><trkpt lat="33.384815" lon="9.0562878"><ele>77.0</ele><time>2026-04-29T09:58:13.513Z</time></trkpt><trkpt lat="33.3847582" lon="9.0565394"><ele>77.33333333333334</ele><time>2026-04-29T09:58:14.529Z</time></trkpt><trkpt lat="33.3847015" lon="9.0567857"><ele>77.66666666666667</ele><time>2026-04-29T09:58:15.53Z</time></trkpt><trkpt lat="33.3846419" lon="9.0570323"><ele>78.0</ele><time>2026-04-29T09:58:16.531Z</time></trkpt><trkpt lat="33.3845843" lon="9.0572754"><ele>77.33333333333333</ele><time>2026-04-29T09:58:17.534Z</time></trkpt><trkpt lat="33.3845272" lon="9.0575211"><ele>76.66666666666666</ele><time>2026-04-29T09:58:18.543Z</time></trkpt><trkpt lat="33.3844738" lon="9.057762"><ele>76.0</ele><time>2026-04-29T09:58:19.546Z</time></trkpt><trkpt lat="33.3844215" lon="9.0580047"><ele>76.0</ele><time>2026-04-29T09:58:20.527Z</time></trkpt><trkpt lat="33.3843707" lon="9.0582425"><ele>76.0</ele><time>2026-04-29T09:58:21.529Z</time></trkpt><trkpt lat="33.3843138" lon="9.0584813"><ele>76.0</ele><time>2026-04-29T09:58:22.53Z</time></trkpt><trkpt lat="33.384256" lon="9.058716"><ele>76.0</ele><time>2026-04-29T09:58:23.522Z</time></trkpt><trkpt lat="33.3841996" lon="9.0589466"><ele>76.0</ele><time>2026-04-29T09:58:24.541Z</time></trkpt><trkpt lat="33.3841506" lon="9.0591773"><ele>76.0</ele><time>2026-04-29T09:58:25.528Z</time></trkpt><trkpt lat="33.3840981" lon="9.0594077"><ele>76.0</ele><time>2026-04-29T09:58:26.532Z</time></trkpt><trkpt lat="33.3840394" lon="9.0596388"><ele>76.0</ele><time>2026-04-29T09:58:27.526Z</time></trkpt><trkpt lat="33.3839698" lon="9.0598727"><ele>76.0</ele><time>2026-04-29T09:58:28.523Z</time></trkpt><trkpt lat="33.383878" lon="9.0600981"><ele>76.66666666666666</ele><time>2026-04-29T09:58:29.524Z</time></trkpt><trkpt lat="33.3837725" lon="9.0603111"><ele>77.33333333333333</ele><time>2026-04-29T09:58:30.54Z</time></trkpt><trkpt lat="33.3836508" lon="9.0605098"><ele>78.0</ele><time>2026-04-29T09:58:31.533Z</time></trkpt><trkpt lat="33.3835076" lon="9.0607007"><ele>78.33333333333333</ele><time>2026-04-29T09:58:32.527Z</time></trkpt><trkpt lat="33.3833608" lon="9.0608859"><ele>78.66666666666666</ele><time>2026-04-29T09:58:33.533Z</time></trkpt><trkpt lat="33.3832144" lon="9.061071"><ele>79.0</ele><time>2026-04-29T09:58:34.531Z</time></trkpt><trkpt lat="33.3830572" lon="9.0612407"><ele>78.66666666666666</ele><time>2026-04-29T09:58:35.538Z</time></trkpt><trkpt lat="33.3828924" lon="9.0614072"><ele>78.33333333333333</ele><time>2026-04-29T09:58:36.543Z</time></trkpt><trkpt lat="33.3827299" lon="9.0615666"><ele>78.0</ele><time>2026-04-29T09:58:37.527Z</time></trkpt><trkpt lat="33.3825647" lon="9.0617039"><ele>78.0</ele><time>2026-04-29T09:58:38.546Z</time></trkpt><trkpt lat="33.3823984" lon="9.0618431"><ele>78.0</ele><time>2026-04-29T09:58:39.52Z</time></trkpt><trkpt lat="33.3822352" lon="9.0619677"><ele>78.0</ele><time>2026-04-29T09:58:40.536Z</time></trkpt><trkpt lat="33.3820725" lon="9.0620987"><ele>78.33333333333333</ele><time>2026-04-29T09:58:41.517Z</time></trkpt><trkpt lat="33.3819145" lon="9.0622325"><ele>78.66666666666666</ele><time>2026-04-29T09:58:42.532Z</time></trkpt><trkpt lat="33.3817574" lon="9.0623646"><ele>79.0</ele><time>2026-04-29T09:58:43.538Z</time></trkpt><trkpt lat="33.3816031" lon="9.0624962"><ele>79.0</ele><time>2026-04-29T09:58:44.542Z</time></trkpt><trkpt lat="33.3814464" lon="9.0626244"><ele>79.0</ele><time>2026-04-29T09:58:45.54Z</time></trkpt><trkpt lat="33.3813048" lon="9.062745"><ele>79.0</ele><time>2026-04-29T09:58:46.532Z</time></trkpt><trkpt lat="33.381171" lon="9.0628621"><ele>78.75</ele><time>2026-04-29T09:58:47.525Z</time></trkpt><trkpt lat="33.3810504" lon="9.0629795"><ele>78.5</ele><time>2026-04-29T09:58:48.538Z</time></trkpt><trkpt lat="33.3809369" lon="9.0630889"><ele>78.25</ele><time>2026-04-29T09:58:49.534Z</time></trkpt><trkpt lat="33.3808389" lon="9.0631877"><ele>78.0</ele><time>2026-04-29T09:58:50.525Z</time></trkpt><trkpt lat="33.380742" lon="9.0632885"><ele>77.75</ele><time>2026-04-29T09:58:51.532Z</time></trkpt><trkpt lat="33.3806499" lon="9.0633917"><ele>77.5</ele><time>2026-04-29T09:58:52.553Z</time></trkpt><trkpt lat="33.3805631" lon="9.0635057"><ele>77.25</ele><time>2026-04-29T09:58:53.532Z</time></trkpt><trkpt lat="33.3804711" lon="9.0636195"><ele>77.0</ele><time>2026-04-29T09:58:54.528Z</time></trkpt><trkpt lat="33.3803859" lon="9.0637407"><ele>77.5</ele><time>2026-04-29T09:58:55.533Z</time></trkpt><trkpt lat="33.3802984" lon="9.0638656"><ele>78.0</ele><time>2026-04-29T09:58:56.522Z</time></trkpt><trkpt lat="33.3802155" lon="9.0639924"><ele>78.5</ele><time>2026-04-29T09:58:57.533Z</time></trkpt><trkpt lat="33.3801294" lon="9.0641209"><ele>79.0</ele><time>2026-04-29T09:58:58.534Z</time></trkpt><trkpt lat="33.3800461" lon="9.0642527"><ele>79.25</ele><time>2026-04-29T09:58:59.549Z</time></trkpt><trkpt lat="33.379962" lon="9.0643948"><ele>79.5</ele><time>2026-04-29T09:59:00.522Z</time></trkpt><trkpt lat="33.3798776" lon="9.0645463"><ele>79.75</ele><time>2026-04-29T09:59:01.517Z</time></trkpt><trkpt lat="33.3798005" lon="9.0646969"><ele>80.0</ele><time>2026-04-29T09:59:02.536Z</time></trkpt><trkpt lat="33.3797208" lon="9.064842"><ele>79.66666666666667</ele><time>2026-04-29T09:59:03.533Z</time></trkpt><trkpt lat="33.3796346" lon="9.0649981"><ele>79.33333333333333</ele><time>2026-04-29T09:59:04.538Z</time></trkpt><trkpt lat="33.3795574" lon="9.0651636"><ele>79.0</ele><time>2026-04-29T09:59:05.528Z</time></trkpt><trkpt lat="33.3794917" lon="9.065341"><ele>79.0</ele><time>2026-04-29T09:59:06.54Z</time></trkpt><trkpt lat="33.3794278" lon="9.0655313"><ele>79.0</ele><time>2026-04-29T09:59:07.54Z</time></trkpt><trkpt lat="33.3793713" lon="9.0657197"><ele>79.0</ele><time>2026-04-29T09:59:08.535Z</time></trkpt><trkpt lat="33.379309" lon="9.0659129"><ele>78.33333333333333</ele><time>2026-04-29T09:59:09.527Z</time></trkpt><trkpt lat="33.3792511" lon="9.0661116"><ele>77.66666666666667</ele><time>2026-04-29T09:59:10.521Z</time></trkpt><trkpt lat="33.3792008" lon="9.0663095"><ele>77.0</ele><time>2026-04-29T09:59:11.537Z</time></trkpt><trkpt lat="33.3791579" lon="9.0665114"><ele>76.0</ele><time>2026-04-29T09:59:12.567Z</time></trkpt><trkpt lat="33.3791248" lon="9.0667156"><ele>75.0</ele><time>2026-04-29T09:59:13.53Z</time></trkpt><trkpt lat="33.3790957" lon="9.0669227"><ele>74.0</ele><time>2026-04-29T09:59:14.524Z</time></trkpt><trkpt lat="33.3790709" lon="9.0671275"><ele>74.0</ele><time>2026-04-29T09:59:15.525Z</time></trkpt><trkpt lat="33.3790494" lon="9.0673303"><ele>74.0</ele><time>2026-04-29T09:59:16.523Z</time></trkpt><trkpt lat="33.3790341" lon="9.0675349"><ele>74.0</ele><time>2026-04-29T09:59:17.525Z</time></trkpt><trkpt lat="33.3790247" lon="9.067733"><ele>74.0</ele><time>2026-04-29T09:59:18.519Z</time></trkpt><trkpt lat="33.3790194" lon="9.0679193"><ele>74.0</ele><time>2026-04-29T09:59:19.52Z</time></trkpt><trkpt lat="33.3790186" lon="9.0680963"><ele>74.0</ele><time>2026-04-29T09:59:20.522Z</time></trkpt><trkpt lat="33.3790222" lon="9.0682577"><ele>74.0</ele><time>2026-04-29T09:59:21.513Z</time></trkpt><trkpt lat="33.379032" lon="9.0684134"><ele>74.0</ele><time>2026-04-29T09:59:22.546Z</time></trkpt><trkpt lat="33.3790454" lon="9.0685577"><ele>74.0</ele><time>2026-04-29T09:59:23.53Z</time></trkpt><trkpt lat="33.3790533" lon="9.0687101"><ele>74.0</ele><time>2026-04-29T09:59:24.554Z</time></trkpt><trkpt lat="33.3790617" lon="9.0688572"><ele>74.0</ele><time>2026-04-29T09:59:25.534Z</time></trkpt><trkpt lat="33.3790706" lon="9.0690026"><ele>74.0</ele><time>2026-04-29T09:59:26.528Z</time></trkpt><trkpt lat="33.3790862" lon="9.0691435"><ele>74.0</ele><time>2026-04-29T09:59:27.538Z</time></trkpt><trkpt lat="33.3790977" lon="9.0692901"><ele>74.0</ele><time>2026-04-29T09:59:28.519Z</time></trkpt><trkpt lat="33.3791013" lon="9.0694379"><ele>74.0</ele><time>2026-04-29T09:59:29.528Z</time></trkpt><trkpt lat="33.3791096" lon="9.069588"><ele>74.0</ele><time>2026-04-29T09:59:30.54Z</time></trkpt><trkpt lat="33.3791195" lon="9.0697413"><ele>74.0</ele><time>2026-04-29T09:59:31.531Z</time></trkpt><trkpt lat="33.3791295" lon="9.069898"><ele>74.0</ele><time>2026-04-29T09:59:32.538Z</time></trkpt><trkpt lat="33.3791398" lon="9.0700578"><ele>74.0</ele><time>2026-04-29T09:59:33.545Z</time></trkpt><trkpt lat="33.3791507" lon="9.0702177"><ele>74.75</ele><time>2026-04-29T09:59:34.544Z</time></trkpt><trkpt lat="33.3791599" lon="9.070381"><ele>75.5</ele><time>2026-04-29T09:59:35.524Z</time></trkpt><trkpt lat="33.3791709" lon="9.0705459"><ele>76.25</ele><time>2026-04-29T09:59:36.524Z</time></trkpt><trkpt lat="33.3791842" lon="9.0707131"><ele>77.0</ele><time>2026-04-29T09:59:37.526Z</time></trkpt><trkpt lat="33.3791924" lon="9.0708794"><ele>77.0</ele><time>2026-04-29T09:59:38.531Z</time></trkpt><trkpt lat="33.3792035" lon="9.0710498"><ele>77.0</ele><time>2026-04-29T09:59:39.513Z</time></trkpt><trkpt lat="33.3792191" lon="9.0712209"><ele>77.0</ele><time>2026-04-29T09:59:40.505Z</time></trkpt><trkpt lat="33.3792307" lon="9.0713937"><ele>77.0</ele><time>2026-04-29T09:59:41.533Z</time></trkpt><trkpt lat="33.3792445" lon="9.071564"><ele>76.75</ele><time>2026-04-29T09:59:42.534Z</time></trkpt><trkpt lat="33.379259" lon="9.0717355"><ele>76.5</ele><time>2026-04-29T09:59:43.541Z</time></trkpt><trkpt lat="33.3792661" lon="9.0719094"><ele>76.25</ele><time>2026-04-29T09:59:44.536Z</time></trkpt><trkpt lat="33.3792791" lon="9.0720801"><ele>76.0</ele><time>2026-04-29T09:59:45.516Z</time></trkpt><trkpt lat="33.3792913" lon="9.0722535"><ele>76.0</ele><time>2026-04-29T09:59:46.531Z</time></trkpt><trkpt lat="33.3793033" lon="9.0724311"><ele>76.0</ele><time>2026-04-29T09:59:47.526Z</time></trkpt><trkpt lat="33.3793188" lon="9.0726067"><ele>76.0</ele><time>2026-04-29T09:59:48.545Z</time></trkpt><trkpt lat="33.3793374" lon="9.0727814"><ele>76.0</ele><time>2026-04-29T09:59:49.54Z</time></trkpt><trkpt lat="33.3793539" lon="9.0729558"><ele>76.25</ele><time>2026-04-29T09:59:50.528Z</time></trkpt><trkpt lat="33.3793671" lon="9.0731277"><ele>76.5</ele><time>2026-04-29T09:59:51.528Z</time></trkpt><trkpt lat="33.3793804" lon="9.0733053"><ele>76.75</ele><time>2026-04-29T09:59:52.517Z</time></trkpt><trkpt lat="33.3793918" lon="9.0734796"><ele>77.0</ele><time>2026-04-29T09:59:53.52Z</time></trkpt><trkpt lat="33.3794004" lon="9.0736609"><ele>77.0</ele><time>2026-04-29T09:59:54.528Z</time></trkpt><trkpt lat="33.3794055" lon="9.0738284"><ele>77.0</ele><time>2026-04-29T09:59:55.509Z</time></trkpt><trkpt lat="33.3794118" lon="9.0739719"><ele>77.0</ele><time>2026-04-29T09:59:56.532Z</time></trkpt><trkpt lat="33.3794194" lon="9.0741092"><ele>77.0</ele><time>2026-04-29T09:59:57.542Z</time></trkpt><trkpt lat="33.3794267" lon="9.0742334"><ele>76.0</ele><time>2026-04-29T09:59:58.523Z</time></trkpt><trkpt lat="33.3794384" lon="9.0743738"><ele>75.0</ele><time>2026-04-29T09:59:59.506Z</time></trkpt><trkpt lat="33.3794497" lon="9.0745066"><ele>74.0</ele><time>2026-04-29T10:00:00.532Z</time></trkpt><trkpt lat="33.3794555" lon="9.0746375"><ele>73.0</ele><time>2026-04-29T10:00:01.535Z</time></trkpt><trkpt lat="33.3794607" lon="9.074765"><ele>72.0</ele><time>2026-04-29T10:00:02.527Z</time></trkpt><trkpt lat="33.3794695" lon="9.0748945"><ele>72.2</ele><time>2026-04-29T10:00:03.512Z</time></trkpt><trkpt lat="33.379479" lon="9.0750205"><ele>72.4</ele><time>2026-04-29T10:00:04.526Z</time></trkpt><trkpt lat="33.3794926" lon="9.0751538"><ele>72.6</ele><time>2026-04-29T10:00:05.536Z</time></trkpt><trkpt lat="33.3795035" lon="9.0752887"><ele>72.8</ele><time>2026-04-29T10:00:06.517Z</time></trkpt><trkpt lat="33.3795111" lon="9.0754258"><ele>73.0</ele><time>2026-04-29T10:00:07.513Z</time></trkpt><trkpt lat="33.3795244" lon="9.075568"><ele>73.0</ele><time>2026-04-29T10:00:08.538Z</time></trkpt><trkpt lat="33.379537" lon="9.0757066"><ele>73.0</ele><time>2026-04-29T10:00:09.506Z</time></trkpt><trkpt lat="33.3795492" lon="9.0758356"><ele>73.0</ele><time>2026-04-29T10:00:10.563Z</time></trkpt><trkpt lat="33.3795549" lon="9.0759561"><ele>73.0</ele><time>2026-04-29T10:00:11.527Z</time></trkpt><trkpt lat="33.3795567" lon="9.0760796"><ele>73.0</ele><time>2026-04-29T10:00:12.532Z</time></trkpt><trkpt lat="33.3795568" lon="9.0762035"><ele>73.0</ele><time>2026-04-29T10:00:13.528Z</time></trkpt><trkpt lat="33.3795583" lon="9.0763295"><ele>73.0</ele><time>2026-04-29T10:00:14.523Z</time></trkpt><trkpt lat="33.3795638" lon="9.0764715"><ele>73.0</ele><time>2026-04-29T10:00:15.519Z</time></trkpt><trkpt lat="33.379565" lon="9.0766144"><ele>73.0</ele><time>2026-04-29T10:00:16.533Z</time></trkpt><trkpt lat="33.3795622" lon="9.076763"><ele>73.75</ele><time>2026-04-29T10:00:17.524Z</time></trkpt><trkpt lat="33.3795549" lon="9.0769264"><ele>74.5</ele><time>2026-04-29T10:00:18.546Z</time></trkpt><trkpt lat="33.3795446" lon="9.0770929"><ele>75.25</ele><time>2026-04-29T10:00:19.534Z</time></trkpt><trkpt lat="33.3795353" lon="9.077265"><ele>76.0</ele><time>2026-04-29T10:00:20.53Z</time></trkpt><trkpt lat="33.3795131" lon="9.0774403"><ele>76.5</ele><time>2026-04-29T10:00:21.531Z</time></trkpt><trkpt lat="33.3794879" lon="9.0776176"><ele>77.0</ele><time>2026-04-29T10:00:22.53Z</time></trkpt><trkpt lat="33.3794556" lon="9.0777912"><ele>77.5</ele><time>2026-04-29T10:00:23.507Z</time></trkpt><trkpt lat="33.3794223" lon="9.0779608"><ele>78.0</ele><time>2026-04-29T10:00:24.511Z</time></trkpt><trkpt lat="33.3793916" lon="9.0781237"><ele>78.25</ele><time>2026-04-29T10:00:25.54Z</time></trkpt><trkpt lat="33.379354" lon="9.0782786"><ele>78.5</ele><time>2026-04-29T10:00:26.539Z</time></trkpt><trkpt lat="33.3793202" lon="9.0784195"><ele>78.75</ele><time>2026-04-29T10:00:27.518Z</time></trkpt><trkpt lat="33.3792891" lon="9.0785547"><ele>79.0</ele><time>2026-04-29T10:00:28.53Z</time></trkpt><trkpt lat="33.3792522" lon="9.0786964"><ele>79.0</ele><time>2026-04-29T10:00:29.538Z</time></trkpt><trkpt lat="33.3792075" lon="9.0788397"><ele>79.0</ele><time>2026-04-29T10:00:30.54Z</time></trkpt><trkpt lat="33.3791587" lon="9.0789888"><ele>79.0</ele><time>2026-04-29T10:00:31.537Z</time></trkpt><trkpt lat="33.379108" lon="9.0791329"><ele>79.0</ele><time>2026-04-29T10:00:32.535Z</time></trkpt><trkpt lat="33.3790526" lon="9.0792802"><ele>79.0</ele><time>2026-04-29T10:00:33.512Z</time></trkpt><trkpt lat="33.3789935" lon="9.0794246"><ele>79.0</ele><time>2026-04-29T10:00:34.538Z</time></trkpt><trkpt lat="33.3789326" lon="9.0795695"><ele>79.0</ele><time>2026-04-29T10:00:35.527Z</time></trkpt><trkpt lat="33.3788713" lon="9.0797164"><ele>79.0</ele><time>2026-04-29T10:00:36.526Z</time></trkpt><trkpt lat="33.3788142" lon="9.0798651"><ele>78.5</ele><time>2026-04-29T10:00:37.537Z</time></trkpt><trkpt lat="33.3787555" lon="9.0800106"><ele>78.0</ele><time>2026-04-29T10:00:38.549Z</time></trkpt><trkpt lat="33.3787002" lon="9.0801627"><ele>77.5</ele><time>2026-04-29T10:00:39.53Z</time></trkpt><trkpt lat="33.3786394" lon="9.0803137"><ele>77.0</ele><time>2026-04-29T10:00:40.521Z</time></trkpt><trkpt lat="33.3785804" lon="9.0804651"><ele>77.0</ele><time>2026-04-29T10:00:41.544Z</time></trkpt><trkpt lat="33.3785257" lon="9.0806093"><ele>77.0</ele><time>2026-04-29T10:00:42.52Z</time></trkpt><trkpt lat="33.3784703" lon="9.0807557"><ele>77.0</ele><time>2026-04-29T10:00:43.519Z</time></trkpt><trkpt lat="33.3784176" lon="9.0808977"><ele>77.0</ele><time>2026-04-29T10:00:44.52Z</time></trkpt><trkpt lat="33.3783676" lon="9.0810367"><ele>77.25</ele><time>2026-04-29T10:00:45.533Z</time></trkpt><trkpt lat="33.3783144" lon="9.0811774"><ele>77.5</ele><time>2026-04-29T10:00:46.55Z</time></trkpt><trkpt lat="33.3782621" lon="9.0813144"><ele>77.75</ele><time>2026-04-29T10:00:47.54Z</time></trkpt><trkpt lat="33.378212" lon="9.0814566"><ele>78.0</ele><time>2026-04-29T10:00:48.551Z</time></trkpt><trkpt lat="33.3781654" lon="9.0816008"><ele>78.25</ele><time>2026-04-29T10:00:49.544Z</time></trkpt><trkpt lat="33.3781256" lon="9.0817439"><ele>78.5</ele><time>2026-04-29T10:00:50.55Z</time></trkpt><trkpt lat="33.378093" lon="9.0818935"><ele>78.75</ele><time>2026-04-29T10:00:51.54Z</time></trkpt><trkpt lat="33.3780571" lon="9.0820437"><ele>79.0</ele><time>2026-04-29T10:00:52.537Z</time></trkpt><trkpt lat="33.3780225" lon="9.0821982"><ele>78.75</ele><time>2026-04-29T10:00:53.529Z</time></trkpt><trkpt lat="33.3779862" lon="9.082358"><ele>78.5</ele><time>2026-04-29T10:00:54.539Z</time></trkpt><trkpt lat="33.3779591" lon="9.0825284"><ele>78.25</ele><time>2026-04-29T10:00:55.532Z</time></trkpt><trkpt lat="33.3779391" lon="9.0827019"><ele>78.0</ele><time>2026-04-29T10:00:56.551Z</time></trkpt><trkpt lat="33.3779206" lon="9.0828719"><ele>78.0</ele><time>2026-04-29T10:00:57.533Z</time></trkpt><trkpt lat="33.3779094" lon="9.0830484"><ele>78.0</ele><time>2026-04-29T10:00:58.538Z</time></trkpt><trkpt lat="33.3779011" lon="9.0832349"><ele>78.0</ele><time>2026-04-29T10:00:59.545Z</time></trkpt><trkpt lat="33.3779018" lon="9.0834207"><ele>77.66666666666667</ele><time>2026-04-29T10:01:00.529Z</time></trkpt><trkpt lat="33.3779085" lon="9.0836074"><ele>77.33333333333334</ele><time>2026-04-29T10:01:01.54Z</time></trkpt><trkpt lat="33.3779168" lon="9.0838013"><ele>77.0</ele><time>2026-04-29T10:01:02.527Z</time></trkpt><trkpt lat="33.3779262" lon="9.0839974"><ele>75.33333333333334</ele><time>2026-04-29T10:01:03.527Z</time></trkpt><trkpt lat="33.3779442" lon="9.0841943"><ele>73.66666666666667</ele><time>2026-04-29T10:01:04.548Z</time></trkpt><trkpt lat="33.3779681" lon="9.0843934"><ele>72.0</ele><time>2026-04-29T10:01:05.522Z</time></trkpt><trkpt lat="33.3779924" lon="9.0845902"><ele>72.0</ele><time>2026-04-29T10:01:06.529Z</time></trkpt><trkpt lat="33.3780175" lon="9.0847922"><ele>72.0</ele><time>2026-04-29T10:01:07.535Z</time></trkpt><trkpt lat="33.3780432" lon="9.0849955"><ele>72.0</ele><time>2026-04-29T10:01:08.531Z</time></trkpt><trkpt lat="33.3780677" lon="9.0851947"><ele>72.33333333333333</ele><time>2026-04-29T10:01:09.515Z</time></trkpt><trkpt lat="33.3780914" lon="9.0853997"><ele>72.66666666666666</ele><time>2026-04-29T10:01:10.523Z</time></trkpt><trkpt lat="33.3781142" lon="9.0856064"><ele>73.0</ele><time>2026-04-29T10:01:11.533Z</time></trkpt><trkpt lat="33.3781388" lon="9.0858131"><ele>73.0</ele><time>2026-04-29T10:01:12.536Z</time></trkpt><trkpt lat="33.3781619" lon="9.0860177"><ele>73.0</ele><time>2026-04-29T10:01:13.529Z</time></trkpt><trkpt lat="33.3781851" lon="9.0862244"><ele>73.0</ele><time>2026-04-29T10:01:14.522Z</time></trkpt><trkpt lat="33.3782061" lon="9.0864337"><ele>73.66666666666666</ele><time>2026-04-29T10:01:15.518Z</time></trkpt><trkpt lat="33.3782272" lon="9.0866432"><ele>74.33333333333333</ele><time>2026-04-29T10:01:16.546Z</time></trkpt><trkpt lat="33.3782506" lon="9.086844"><ele>75.0</ele><time>2026-04-29T10:01:17.539Z</time></trkpt><trkpt lat="33.3782725" lon="9.0870419"><ele>75.0</ele><time>2026-04-29T10:01:18.531Z</time></trkpt><trkpt lat="33.3782963" lon="9.0872386"><ele>75.0</ele><time>2026-04-29T10:01:19.524Z</time></trkpt><trkpt lat="33.3783211" lon="9.087437"><ele>75.0</ele><time>2026-04-29T10:01:20.53Z</time></trkpt><trkpt lat="33.3783437" lon="9.0876342"><ele>75.33333333333333</ele><time>2026-04-29T10:01:21.546Z</time></trkpt><trkpt lat="33.3783666" lon="9.0878415"><ele>75.66666666666666</ele><time>2026-04-29T10:01:22.524Z</time></trkpt><trkpt lat="33.3783879" lon="9.0880436"><ele>76.0</ele><time>2026-04-29T10:01:23.534Z</time></trkpt><trkpt lat="33.3784119" lon="9.0882493"><ele>75.66666666666666</ele><time>2026-04-29T10:01:24.544Z</time></trkpt><trkpt lat="33.3784342" lon="9.0884555"><ele>75.33333333333333</ele><time>2026-04-29T10:01:25.505Z</time></trkpt><trkpt lat="33.3784575" lon="9.0886632"><ele>75.0</ele><time>2026-04-29T10:01:26.504Z</time></trkpt><trkpt lat="33.378483" lon="9.0888714"><ele>75.0</ele><time>2026-04-29T10:01:27.54Z</time></trkpt><trkpt lat="33.3785068" lon="9.089075"><ele>75.0</ele><time>2026-04-29T10:01:28.543Z</time></trkpt><trkpt lat="33.3785323" lon="9.089282"><ele>75.0</ele><time>2026-04-29T10:01:29.526Z</time></trkpt><trkpt lat="33.3785576" lon="9.0894941"><ele>75.0</ele><time>2026-04-29T10:01:30.533Z</time></trkpt><trkpt lat="33.3785811" lon="9.0897074"><ele>75.0</ele><time>2026-04-29T10:01:31.539Z</time></trkpt><trkpt lat="33.3786035" lon="9.0899172"><ele>75.0</ele><time>2026-04-29T10:01:32.535Z</time></trkpt><trkpt lat="33.3786256" lon="9.0901284"><ele>74.66666666666667</ele><time>2026-04-29T10:01:33.532Z</time></trkpt><trkpt lat="33.3786465" lon="9.0903384"><ele>74.33333333333334</ele><time>2026-04-29T10:01:34.544Z</time></trkpt><trkpt lat="33.3786694" lon="9.0905507"><ele>74.0</ele><time>2026-04-29T10:01:35.532Z</time></trkpt><trkpt lat="33.3786939" lon="9.0907622"><ele>75.33333333333334</ele><time>2026-04-29T10:01:36.528Z</time></trkpt><trkpt lat="33.3787174" lon="9.0909745"><ele>76.66666666666667</ele><time>2026-04-29T10:01:37.542Z</time></trkpt><trkpt lat="33.378742" lon="9.0911908"><ele>78.0</ele><time>2026-04-29T10:01:38.534Z</time></trkpt><trkpt lat="33.3787678" lon="9.0914045"><ele>76.66666666666667</ele><time>2026-04-29T10:01:39.528Z</time></trkpt><trkpt lat="33.3787951" lon="9.0916215"><ele>75.33333333333334</ele><time>2026-04-29T10:01:40.517Z</time></trkpt><trkpt lat="33.3788208" lon="9.0918408"><ele>74.0</ele><time>2026-04-29T10:01:41.558Z</time></trkpt><trkpt lat="33.3788539" lon="9.09206"><ele>74.0</ele><time>2026-04-29T10:01:42.56Z</time></trkpt><trkpt lat="33.3788926" lon="9.0922702"><ele>74.0</ele><time>2026-04-29T10:01:43.543Z</time></trkpt><trkpt lat="33.3789332" lon="9.0924796"><ele>74.0</ele><time>2026-04-29T10:01:44.529Z</time></trkpt><trkpt lat="33.3789832" lon="9.0926831"><ele>74.0</ele><time>2026-04-29T10:01:45.527Z</time></trkpt><trkpt lat="33.3790406" lon="9.0928861"><ele>74.0</ele><time>2026-04-29T10:01:46.507Z</time></trkpt><trkpt lat="33.3791017" lon="9.0930823"><ele>74.0</ele><time>2026-04-29T10:01:47.53Z</time></trkpt><trkpt lat="33.3791722" lon="9.0932759"><ele>74.66666666666667</ele><time>2026-04-29T10:01:48.527Z</time></trkpt><trkpt lat="33.379241" lon="9.0934751"><ele>75.33333333333333</ele><time>2026-04-29T10:01:49.533Z</time></trkpt><trkpt lat="33.3793004" lon="9.0936698"><ele>76.0</ele><time>2026-04-29T10:01:50.511Z</time></trkpt><trkpt lat="33.3793607" lon="9.093865"><ele>76.0</ele><time>2026-04-29T10:01:51.523Z</time></trkpt><trkpt lat="33.379418" lon="9.0940614"><ele>76.0</ele><time>2026-04-29T10:01:52.531Z</time></trkpt><trkpt lat="33.3794776" lon="9.0942611"><ele>76.0</ele><time>2026-04-29T10:01:53.529Z</time></trkpt><trkpt lat="33.3795436" lon="9.094451"><ele>76.0</ele><time>2026-04-29T10:01:54.527Z</time></trkpt><trkpt lat="33.3796056" lon="9.0946438"><ele>76.0</ele><time>2026-04-29T10:01:55.51Z</time></trkpt><trkpt lat="33.3796697" lon="9.0948344"><ele>76.0</ele><time>2026-04-29T10:01:56.514Z</time></trkpt><trkpt lat="33.3797328" lon="9.0950264"><ele>76.66666666666666</ele><time>2026-04-29T10:01:57.503Z</time></trkpt><trkpt lat="33.3797958" lon="9.0952177"><ele>77.33333333333333</ele><time>2026-04-29T10:01:58.542Z</time></trkpt><trkpt lat="33.3798583" lon="9.0954073"><ele>78.0</ele><time>2026-04-29T10:01:59.514Z</time></trkpt><trkpt lat="33.379922" lon="9.0955973"><ele>77.66666666666667</ele><time>2026-04-29T10:02:00.504Z</time></trkpt><trkpt lat="33.3799831" lon="9.0957847"><ele>77.33333333333334</ele><time>2026-04-29T10:02:01.527Z</time></trkpt><trkpt lat="33.3800473" lon="9.0959733"><ele>77.0</ele><time>2026-04-29T10:02:02.518Z</time></trkpt><trkpt lat="33.3801118" lon="9.0961588"><ele>77.0</ele><time>2026-04-29T10:02:03.524Z</time></trkpt><trkpt lat="33.380177" lon="9.0963462"><ele>77.0</ele><time>2026-04-29T10:02:04.539Z</time></trkpt><trkpt lat="33.3802392" lon="9.0965324"><ele>77.0</ele><time>2026-04-29T10:02:05.526Z</time></trkpt><trkpt lat="33.3803015" lon="9.0967178"><ele>76.66666666666667</ele><time>2026-04-29T10:02:06.511Z</time></trkpt><trkpt lat="33.3803623" lon="9.0969015"><ele>76.33333333333333</ele><time>2026-04-29T10:02:07.504Z</time></trkpt><trkpt lat="33.3804211" lon="9.0970817"><ele>76.0</ele><time>2026-04-29T10:02:08.514Z</time></trkpt><trkpt lat="33.3804795" lon="9.0972638"><ele>75.66666666666666</ele><time>2026-04-29T10:02:09.528Z</time></trkpt><trkpt lat="33.3805427" lon="9.0974466"><ele>75.33333333333333</ele><time>2026-04-29T10:02:10.518Z</time></trkpt><trkpt lat="33.3806081" lon="9.0976292"><ele>75.0</ele><time>2026-04-29T10:02:11.535Z</time></trkpt><trkpt lat="33.3806733" lon="9.0978131"><ele>75.0</ele><time>2026-04-29T10:02:12.526Z</time></trkpt><trkpt lat="33.3807361" lon="9.097997"><ele>75.0</ele><time>2026-04-29T10:02:13.52Z</time></trkpt><trkpt lat="33.380797" lon="9.0981805"><ele>75.0</ele><time>2026-04-29T10:02:14.534Z</time></trkpt><trkpt lat="33.3808577" lon="9.0983668"><ele>75.0</ele><time>2026-04-29T10:02:15.529Z</time></trkpt><trkpt lat="33.3809164" lon="9.0985515"><ele>75.0</ele><time>2026-04-29T10:02:16.539Z</time></trkpt><trkpt lat="33.3809798" lon="9.0987359"><ele>75.0</ele><time>2026-04-29T10:02:17.529Z</time></trkpt><trkpt lat="33.3810434" lon="9.0989222"><ele>75.33333333333333</ele><time>2026-04-29T10:02:18.533Z</time></trkpt><trkpt lat="33.3811075" lon="9.0991064"><ele>75.66666666666666</ele><time>2026-04-29T10:02:19.518Z</time></trkpt><trkpt lat="33.3811663" lon="9.0992927"><ele>76.0</ele><time>2026-04-29T10:02:20.511Z</time></trkpt><trkpt lat="33.3812195" lon="9.0994777"><ele>76.0</ele><time>2026-04-29T10:02:21.519Z</time></trkpt><trkpt lat="33.3812647" lon="9.099668"><ele>76.0</ele><time>2026-04-29T10:02:22.519Z</time></trkpt><trkpt lat="33.3813064" lon="9.0998564"><ele>76.0</ele><time>2026-04-29T10:02:23.521Z</time></trkpt><trkpt lat="33.3813468" lon="9.1000495"><ele>76.0</ele><time>2026-04-29T10:02:24.529Z</time></trkpt><trkpt lat="33.3813845" lon="9.1002433"><ele>76.0</ele><time>2026-04-29T10:02:25.504Z</time></trkpt><trkpt lat="33.3814185" lon="9.1004419"><ele>76.0</ele><time>2026-04-29T10:02:26.5Z</time></trkpt><trkpt lat="33.3814509" lon="9.1006396"><ele>75.66666666666666</ele><time>2026-04-29T10:02:27.531Z</time></trkpt><trkpt lat="33.3814807" lon="9.1008364"><ele>75.33333333333333</ele><time>2026-04-29T10:02:28.556Z</time></trkpt><trkpt lat="33.3815124" lon="9.10104"><ele>75.0</ele><time>2026-04-29T10:02:29.545Z</time></trkpt><trkpt lat="33.3815374" lon="9.1012402"><ele>75.0</ele><time>2026-04-29T10:02:30.545Z</time></trkpt><trkpt lat="33.3815629" lon="9.1014407"><ele>75.0</ele><time>2026-04-29T10:02:31.522Z</time></trkpt><trkpt lat="33.3815911" lon="9.1016383"><ele>75.0</ele><time>2026-04-29T10:02:32.548Z</time></trkpt><trkpt lat="33.3816083" lon="9.1018393"><ele>76.0</ele><time>2026-04-29T10:02:33.532Z</time></trkpt><trkpt lat="33.3816196" lon="9.1020373"><ele>77.0</ele><time>2026-04-29T10:02:34.537Z</time></trkpt><trkpt lat="33.3816327" lon="9.1022423"><ele>78.0</ele><time>2026-04-29T10:02:35.531Z</time></trkpt><trkpt lat="33.38164" lon="9.1024463"><ele>78.66666666666667</ele><time>2026-04-29T10:02:36.535Z</time></trkpt><trkpt lat="33.3816469" lon="9.1026463"><ele>79.33333333333334</ele><time>2026-04-29T10:02:37.516Z</time></trkpt><trkpt lat="33.3816529" lon="9.1028561"><ele>80.0</ele><time>2026-04-29T10:02:38.525Z</time></trkpt><trkpt lat="33.3816521" lon="9.1030664"><ele>78.33333333333334</ele><time>2026-04-29T10:02:39.532Z</time></trkpt><trkpt lat="33.3816465" lon="9.1032741"><ele>76.66666666666667</ele><time>2026-04-29T10:02:40.519Z</time></trkpt><trkpt lat="33.3816391" lon="9.1034785"><ele>75.0</ele><time>2026-04-29T10:02:41.518Z</time></trkpt><trkpt lat="33.3816236" lon="9.1036835"><ele>75.0</ele><time>2026-04-29T10:02:42.519Z</time></trkpt><trkpt lat="33.3816111" lon="9.1038883"><ele>75.0</ele><time>2026-04-29T10:02:43.55Z</time></trkpt><trkpt lat="33.381593" lon="9.1040956"><ele>75.0</ele><time>2026-04-29T10:02:44.54Z</time></trkpt><trkpt lat="33.3815626" lon="9.1042993"><ele>74.33333333333333</ele><time>2026-04-29T10:02:45.556Z</time></trkpt><trkpt lat="33.3815192" lon="9.1044956"><ele>73.66666666666666</ele><time>2026-04-29T10:02:46.544Z</time></trkpt><trkpt lat="33.3814781" lon="9.1046881"><ele>73.0</ele><time>2026-04-29T10:02:47.522Z</time></trkpt><trkpt lat="33.3814475" lon="9.1048821"><ele>74.0</ele><time>2026-04-29T10:02:48.501Z</time></trkpt><trkpt lat="33.3814164" lon="9.105075"><ele>75.0</ele><time>2026-04-29T10:02:49.5Z</time></trkpt><trkpt lat="33.381382" lon="9.1052687"><ele>76.0</ele><time>2026-04-29T10:02:50.518Z</time></trkpt><trkpt lat="33.3813488" lon="9.1054438"><ele>76.0</ele><time>2026-04-29T10:02:51.499Z</time></trkpt><trkpt lat="33.3813156" lon="9.1056099"><ele>76.0</ele><time>2026-04-29T10:02:52.532Z</time></trkpt><trkpt lat="33.3812804" lon="9.1057671"><ele>76.0</ele><time>2026-04-29T10:02:53.522Z</time></trkpt><trkpt lat="33.3812502" lon="9.1058923"><ele>76.0</ele><time>2026-04-29T10:02:54.521Z</time></trkpt><trkpt lat="33.3812224" lon="9.1059836"><ele>75.83333333333333</ele><time>2026-04-29T10:02:55.529Z</time></trkpt><trkpt lat="33.3812016" lon="9.1060761"><ele>75.66666666666666</ele><time>2026-04-29T10:02:57.53Z</time></trkpt><trkpt lat="33.3811885" lon="9.1061714"><ele>75.5</ele><time>2026-04-29T10:02:59.532Z</time></trkpt><trkpt lat="33.3811658" lon="9.1062825"><ele>75.33333333333333</ele><time>2026-04-29T10:03:01.534Z</time></trkpt><trkpt lat="33.3811422" lon="9.1063685"><ele>75.16666666666667</ele><time>2026-04-29T10:03:02.531Z</time></trkpt><trkpt lat="33.3811102" lon="9.1064663"><ele>75.0</ele><time>2026-04-29T10:03:03.512Z</time></trkpt><trkpt lat="33.3810737" lon="9.1065865"><ele>75.0</ele><time>2026-04-29T10:03:04.532Z</time></trkpt><trkpt lat="33.3810284" lon="9.1067134"><ele>75.0</ele><time>2026-04-29T10:03:05.526Z</time></trkpt><trkpt lat="33.3809808" lon="9.1068418"><ele>75.0</ele><time>2026-04-29T10:03:06.52Z</time></trkpt><trkpt lat="33.3809274" lon="9.1069736"><ele>75.0</ele><time>2026-04-29T10:03:07.527Z</time></trkpt><trkpt lat="33.3808774" lon="9.1071092"><ele>75.0</ele><time>2026-04-29T10:03:08.529Z</time></trkpt><trkpt lat="33.3808234" lon="9.1072499"><ele>75.0</ele><time>2026-04-29T10:03:09.524Z</time></trkpt><trkpt lat="33.3807664" lon="9.1073962"><ele>75.0</ele><time>2026-04-29T10:03:10.524Z</time></trkpt><trkpt lat="33.3807034" lon="9.1075493"><ele>75.0</ele><time>2026-04-29T10:03:11.518Z</time></trkpt><trkpt lat="33.3806433" lon="9.1077065"><ele>75.5</ele><time>2026-04-29T10:03:12.519Z</time></trkpt><trkpt lat="33.3805818" lon="9.1078653"><ele>76.0</ele><time>2026-04-29T10:03:13.527Z</time></trkpt><trkpt lat="33.3805239" lon="9.1080133"><ele>76.5</ele><time>2026-04-29T10:03:14.518Z</time></trkpt><trkpt lat="33.380475" lon="9.1081501"><ele>77.0</ele><time>2026-04-29T10:03:15.528Z</time></trkpt><trkpt lat="33.3804256" lon="9.108269"><ele>77.2</ele><time>2026-04-29T10:03:16.521Z</time></trkpt><trkpt lat="33.3803786" lon="9.1083839"><ele>77.4</ele><time>2026-04-29T10:03:17.519Z</time></trkpt><trkpt lat="33.3803347" lon="9.1084891"><ele>77.6</ele><time>2026-04-29T10:03:18.514Z</time></trkpt><trkpt lat="33.3802982" lon="9.1085901"><ele>77.8</ele><time>2026-04-29T10:03:19.523Z</time></trkpt><trkpt lat="33.3802641" lon="9.1086879"><ele>78.0</ele><time>2026-04-29T10:03:20.524Z</time></trkpt><trkpt lat="33.38023" lon="9.108779"><ele>78.0</ele><time>2026-04-29T10:03:21.532Z</time></trkpt><trkpt lat="33.3801927" lon="9.1088708"><ele>78.0</ele><time>2026-04-29T10:03:22.511Z</time></trkpt><trkpt lat="33.3801513" lon="9.1089693"><ele>78.0</ele><time>2026-04-29T10:03:23.516Z</time></trkpt><trkpt lat="33.3801097" lon="9.1090632"><ele>78.0</ele><time>2026-04-29T10:03:24.522Z</time></trkpt><trkpt lat="33.3800578" lon="9.1091656"><ele>78.0</ele><time>2026-04-29T10:03:25.53Z</time></trkpt><trkpt lat="33.3800046" lon="9.1092835"><ele>77.75</ele><time>2026-04-29T10:03:26.525Z</time></trkpt><trkpt lat="33.3799525" lon="9.1094108"><ele>77.5</ele><time>2026-04-29T10:03:27.514Z</time></trkpt><trkpt lat="33.3799036" lon="9.1095436"><ele>77.25</ele><time>2026-04-29T10:03:28.535Z</time></trkpt><trkpt lat="33.3798529" lon="9.1096837"><ele>77.0</ele><time>2026-04-29T10:03:29.536Z</time></trkpt><trkpt lat="33.3798042" lon="9.1098259"><ele>77.25</ele><time>2026-04-29T10:03:30.52Z</time></trkpt><trkpt lat="33.3797493" lon="9.1099735"><ele>77.5</ele><time>2026-04-29T10:03:31.517Z</time></trkpt><trkpt lat="33.3796928" lon="9.1101129"><ele>77.75</ele><time>2026-04-29T10:03:32.529Z</time></trkpt><trkpt lat="33.3796386" lon="9.1102554"><ele>78.0</ele><time>2026-04-29T10:03:33.531Z</time></trkpt><trkpt lat="33.3795831" lon="9.1104009"><ele>78.25</ele><time>2026-04-29T10:03:34.527Z</time></trkpt><trkpt lat="33.3795255" lon="9.1105512"><ele>78.5</ele><time>2026-04-29T10:03:35.528Z</time></trkpt><trkpt lat="33.3794662" lon="9.1107086"><ele>78.75</ele><time>2026-04-29T10:03:36.526Z</time></trkpt><trkpt lat="33.3794078" lon="9.1108599"><ele>79.0</ele><time>2026-04-29T10:03:37.539Z</time></trkpt><trkpt lat="33.3793393" lon="9.111006"><ele>78.25</ele><time>2026-04-29T10:03:38.532Z</time></trkpt><trkpt lat="33.3792747" lon="9.1111479"><ele>77.5</ele><time>2026-04-29T10:03:39.53Z</time></trkpt><trkpt lat="33.379211" lon="9.111292"><ele>76.75</ele><time>2026-04-29T10:03:40.528Z</time></trkpt><trkpt lat="33.3791497" lon="9.1114422"><ele>76.0</ele><time>2026-04-29T10:03:41.539Z</time></trkpt><trkpt lat="33.3790976" lon="9.1116018"><ele>76.0</ele><time>2026-04-29T10:03:42.512Z</time></trkpt><trkpt lat="33.3790447" lon="9.111765"><ele>76.0</ele><time>2026-04-29T10:03:43.502Z</time></trkpt><trkpt lat="33.3789838" lon="9.111926"><ele>76.0</ele><time>2026-04-29T10:03:44.511Z</time></trkpt><trkpt lat="33.3789127" lon="9.1120834"><ele>76.0</ele><time>2026-04-29T10:03:45.532Z</time></trkpt><trkpt lat="33.3788411" lon="9.1122426"><ele>76.33333333333333</ele><time>2026-04-29T10:03:46.536Z</time></trkpt><trkpt lat="33.3787723" lon="9.1124025"><ele>76.66666666666667</ele><time>2026-04-29T10:03:47.522Z</time></trkpt><trkpt lat="33.3786979" lon="9.1125581"><ele>77.0</ele><time>2026-04-29T10:03:48.51Z</time></trkpt><trkpt lat="33.3786261" lon="9.1127159"><ele>77.0</ele><time>2026-04-29T10:03:49.522Z</time></trkpt><trkpt lat="33.3785509" lon="9.1128751"><ele>77.0</ele><time>2026-04-29T10:03:50.525Z</time></trkpt><trkpt lat="33.3784766" lon="9.1130262"><ele>77.0</ele><time>2026-04-29T10:03:51.513Z</time></trkpt><trkpt lat="33.3784005" lon="9.1131767"><ele>77.0</ele><time>2026-04-29T10:03:52.541Z</time></trkpt><trkpt lat="33.3783193" lon="9.1133277"><ele>77.0</ele><time>2026-04-29T10:03:53.533Z</time></trkpt><trkpt lat="33.3782404" lon="9.1134789"><ele>77.0</ele><time>2026-04-29T10:03:54.533Z</time></trkpt><trkpt lat="33.3781568" lon="9.1136345"><ele>77.0</ele><time>2026-04-29T10:03:55.519Z</time></trkpt><trkpt lat="33.3780722" lon="9.1137958"><ele>77.0</ele><time>2026-04-29T10:03:56.531Z</time></trkpt><trkpt lat="33.3779834" lon="9.1139577"><ele>77.0</ele><time>2026-04-29T10:03:57.517Z</time></trkpt><trkpt lat="33.3778952" lon="9.1141135"><ele>77.0</ele><time>2026-04-29T10:03:58.528Z</time></trkpt><trkpt lat="33.3777974" lon="9.1142647"><ele>77.0</ele><time>2026-04-29T10:03:59.528Z</time></trkpt><trkpt lat="33.3776963" lon="9.1144202"><ele>77.0</ele><time>2026-04-29T10:04:00.54Z</time></trkpt><trkpt lat="33.3776059" lon="9.1145838"><ele>77.0</ele><time>2026-04-29T10:04:01.53Z</time></trkpt><trkpt lat="33.3775156" lon="9.1147527"><ele>77.33333333333334</ele><time>2026-04-29T10:04:02.539Z</time></trkpt><trkpt lat="33.3774241" lon="9.1149165"><ele>77.66666666666667</ele><time>2026-04-29T10:04:03.525Z</time></trkpt><trkpt lat="33.3773318" lon="9.1150775"><ele>78.0</ele><time>2026-04-29T10:04:04.533Z</time></trkpt><trkpt lat="33.3772406" lon="9.1152359"><ele>78.0</ele><time>2026-04-29T10:04:05.53Z</time></trkpt><trkpt lat="33.3771549" lon="9.1153914"><ele>78.0</ele><time>2026-04-29T10:04:06.534Z</time></trkpt><trkpt lat="33.377069" lon="9.115542"><ele>78.0</ele><time>2026-04-29T10:04:07.532Z</time></trkpt><trkpt lat="33.3769862" lon="9.1156802"><ele>77.8</ele><time>2026-04-29T10:04:08.531Z</time></trkpt><trkpt lat="33.3769099" lon="9.1158111"><ele>77.6</ele><time>2026-04-29T10:04:09.533Z</time></trkpt><trkpt lat="33.3768428" lon="9.1159329"><ele>77.4</ele><time>2026-04-29T10:04:10.534Z</time></trkpt><trkpt lat="33.3767898" lon="9.1160315"><ele>77.2</ele><time>2026-04-29T10:04:11.525Z</time></trkpt><trkpt lat="33.3767442" lon="9.1161115"><ele>77.0</ele><time>2026-04-29T10:04:12.542Z</time></trkpt><trkpt lat="33.3767018" lon="9.1161889"><ele>77.0</ele><time>2026-04-29T10:04:13.53Z</time></trkpt><trkpt lat="33.3766587" lon="9.1162664"><ele>77.0</ele><time>2026-04-29T10:04:14.567Z</time></trkpt><trkpt lat="33.3766109" lon="9.1163487"><ele>77.0</ele><time>2026-04-29T10:04:15.527Z</time></trkpt><trkpt lat="33.3765651" lon="9.1164287"><ele>77.0</ele><time>2026-04-29T10:04:16.525Z</time></trkpt><trkpt lat="33.376525" lon="9.1165052"><ele>77.0</ele><time>2026-04-29T10:04:17.536Z</time></trkpt><trkpt lat="33.3764884" lon="9.1165722"><ele>77.0</ele><time>2026-04-29T10:04:18.524Z</time></trkpt><trkpt lat="33.376415" lon="9.1166906"><ele>77.0</ele><time>2026-04-29T10:04:20.532Z</time></trkpt><trkpt lat="33.3763601" lon="9.1167866"><ele>77.0</ele><time>2026-04-29T10:04:22.532Z</time></trkpt><trkpt lat="33.3763113" lon="9.1168675"><ele>77.0</ele><time>2026-04-29T10:04:24.526Z</time></trkpt><trkpt lat="33.3762667" lon="9.1169383"><ele>77.0</ele><time>2026-04-29T10:04:26.523Z</time></trkpt><trkpt lat="33.3762182" lon="9.1170063"><ele>77.0</ele><time>2026-04-29T10:04:29.53Z</time></trkpt><trkpt lat="33.3761889" lon="9.1170922"><ele>77.0</ele><time>2026-04-29T10:05:12.522Z</time></trkpt><trkpt lat="33.3761409" lon="9.1171718"><ele>77.0</ele><time>2026-04-29T10:05:14.518Z</time></trkpt><trkpt lat="33.3760619" lon="9.1172891"><ele>77.0</ele><time>2026-04-29T10:05:16.522Z</time></trkpt><trkpt lat="33.3760155" lon="9.1173704"><ele>77.0</ele><time>2026-04-29T10:05:17.515Z</time></trkpt><trkpt lat="33.3759705" lon="9.1174542"><ele>77.0</ele><time>2026-04-29T10:05:18.533Z</time></trkpt><trkpt lat="33.3759235" lon="9.1175272"><ele>77.0</ele><time>2026-04-29T10:05:19.539Z</time></trkpt><trkpt lat="33.3758663" lon="9.1176267"><ele>77.0</ele><time>2026-04-29T10:05:20.547Z</time></trkpt><trkpt lat="33.375801" lon="9.1177282"><ele>77.0</ele><time>2026-04-29T10:05:21.562Z</time></trkpt><trkpt lat="33.3757468" lon="9.1178207"><ele>77.0</ele><time>2026-04-29T10:05:22.526Z</time></trkpt><trkpt lat="33.3756987" lon="9.1178976"><ele>77.0</ele><time>2026-04-29T10:05:23.53Z</time></trkpt><trkpt lat="33.3756544" lon="9.1179757"><ele>77.0</ele><time>2026-04-29T10:05:24.551Z</time></trkpt><trkpt lat="33.3756091" lon="9.1180543"><ele>77.0</ele><time>2026-04-29T10:05:25.548Z</time></trkpt><trkpt lat="33.3755596" lon="9.1181359"><ele>77.16666666666667</ele><time>2026-04-29T10:05:26.559Z</time></trkpt><trkpt lat="33.3755096" lon="9.1182122"><ele>77.33333333333334</ele><time>2026-04-29T10:05:27.556Z</time></trkpt><trkpt lat="33.3754658" lon="9.1182818"><ele>77.5</ele><time>2026-04-29T10:05:28.498Z</time></trkpt><trkpt lat="33.3753984" lon="9.1183661"><ele>77.66666666666667</ele><time>2026-04-29T10:05:30.552Z</time></trkpt><trkpt lat="33.3753288" lon="9.1184584"><ele>77.83333333333333</ele><time>2026-04-29T10:05:32.565Z</time></trkpt><trkpt lat="33.3752763" lon="9.1185337"><ele>78.0</ele><time>2026-04-29T10:05:33.523Z</time></trkpt><trkpt lat="33.3752164" lon="9.1186205"><ele>78.0</ele><time>2026-04-29T10:05:34.559Z</time></trkpt><trkpt lat="33.3751481" lon="9.1187063"><ele>78.0</ele><time>2026-04-29T10:05:35.534Z</time></trkpt><trkpt lat="33.3750838" lon="9.1187957"><ele>78.0</ele><time>2026-04-29T10:05:36.518Z</time></trkpt><trkpt lat="33.3750203" lon="9.1188838"><ele>78.0</ele><time>2026-04-29T10:05:37.539Z</time></trkpt><trkpt lat="33.3749603" lon="9.1189754"><ele>78.0</ele><time>2026-04-29T10:05:38.511Z</time></trkpt><trkpt lat="33.3749008" lon="9.1190767"><ele>78.0</ele><time>2026-04-29T10:05:39.538Z</time></trkpt><trkpt lat="33.374851" lon="9.1191645"><ele>78.0</ele><time>2026-04-29T10:05:40.583Z</time></trkpt><trkpt lat="33.374815" lon="9.1192314"><ele>78.0</ele><time>2026-04-29T10:05:41.536Z</time></trkpt><trkpt lat="33.3747715" lon="9.1193041"><ele>78.0</ele><time>2026-04-29T10:05:43.533Z</time></trkpt><trkpt lat="33.3747264" lon="9.1193708"><ele>78.0</ele><time>2026-04-29T10:05:47.551Z</time></trkpt><trkpt lat="33.3746614" lon="9.1194653"><ele>78.0</ele><time>2026-04-29T10:05:51.526Z</time></trkpt><trkpt lat="33.3746112" lon="9.119538"><ele>78.2</ele><time>2026-04-29T10:05:52.536Z</time></trkpt><trkpt lat="33.3745603" lon="9.1196223"><ele>78.4</ele><time>2026-04-29T10:05:53.52Z</time></trkpt><trkpt lat="33.3744957" lon="9.1197163"><ele>78.60000000000001</ele><time>2026-04-29T10:05:54.548Z</time></trkpt><trkpt lat="33.3744278" lon="9.1198206"><ele>78.8</ele><time>2026-04-29T10:05:55.519Z</time></trkpt><trkpt lat="33.3743558" lon="9.1199138"><ele>79.0</ele><time>2026-04-29T10:05:56.539Z</time></trkpt><trkpt lat="33.3742902" lon="9.1200105"><ele>79.0</ele><time>2026-04-29T10:05:57.543Z</time></trkpt><trkpt lat="33.3742244" lon="9.1201019"><ele>79.0</ele><time>2026-04-29T10:05:58.552Z</time></trkpt><trkpt lat="33.3741433" lon="9.1201946"><ele>79.0</ele><time>2026-04-29T10:05:59.529Z</time></trkpt><trkpt lat="33.3740568" lon="9.1203006"><ele>79.0</ele><time>2026-04-29T10:06:00.543Z</time></trkpt><trkpt lat="33.3739737" lon="9.1204052"><ele>79.0</ele><time>2026-04-29T10:06:01.529Z</time></trkpt><trkpt lat="33.3738965" lon="9.1205094"><ele>79.0</ele><time>2026-04-29T10:06:02.531Z</time></trkpt><trkpt lat="33.3738216" lon="9.1206195"><ele>79.0</ele><time>2026-04-29T10:06:03.524Z</time></trkpt><trkpt lat="33.3737461" lon="9.1207237"><ele>79.0</ele><time>2026-04-29T10:06:04.555Z</time></trkpt><trkpt lat="33.373673" lon="9.1208315"><ele>79.5</ele><time>2026-04-29T10:06:05.52Z</time></trkpt><trkpt lat="33.3735985" lon="9.1209371"><ele>80.0</ele><time>2026-04-29T10:06:06.528Z</time></trkpt><trkpt lat="33.3735192" lon="9.1210526"><ele>80.5</ele><time>2026-04-29T10:06:07.514Z</time></trkpt><trkpt lat="33.3734382" lon="9.1211672"><ele>81.0</ele><time>2026-04-29T10:06:08.55Z</time></trkpt><trkpt lat="33.3733457" lon="9.1212866"><ele>81.0</ele><time>2026-04-29T10:06:09.563Z</time></trkpt><trkpt lat="33.3732485" lon="9.1214066"><ele>81.0</ele><time>2026-04-29T10:06:10.555Z</time></trkpt><trkpt lat="33.373152" lon="9.1215283"><ele>81.0</ele><time>2026-04-29T10:06:11.554Z</time></trkpt><trkpt lat="33.3730543" lon="9.1216443"><ele>81.0</ele><time>2026-04-29T10:06:12.53Z</time></trkpt><trkpt lat="33.3729654" lon="9.1217573"><ele>80.0</ele><time>2026-04-29T10:06:13.543Z</time></trkpt><trkpt lat="33.372871" lon="9.1218684"><ele>79.0</ele><time>2026-04-29T10:06:14.539Z</time></trkpt><trkpt lat="33.3727807" lon="9.1219817"><ele>78.0</ele><time>2026-04-29T10:06:15.533Z</time></trkpt><trkpt lat="33.3726893" lon="9.1220916"><ele>77.0</ele><time>2026-04-29T10:06:16.553Z</time></trkpt><trkpt lat="33.3725953" lon="9.1222075"><ele>77.0</ele><time>2026-04-29T10:06:17.526Z</time></trkpt><trkpt lat="33.372507" lon="9.1223307"><ele>77.0</ele><time>2026-04-29T10:06:18.556Z</time></trkpt><trkpt lat="33.3724161" lon="9.1224544"><ele>77.0</ele><time>2026-04-29T10:06:19.551Z</time></trkpt><trkpt lat="33.3723225" lon="9.1225769"><ele>77.0</ele><time>2026-04-29T10:06:20.548Z</time></trkpt><trkpt lat="33.3722192" lon="9.1227"><ele>79.0</ele><time>2026-04-29T10:06:21.548Z</time></trkpt><trkpt lat="33.3721135" lon="9.122832"><ele>81.0</ele><time>2026-04-29T10:06:22.508Z</time></trkpt><trkpt lat="33.3720039" lon="9.1229759"><ele>83.0</ele><time>2026-04-29T10:06:23.539Z</time></trkpt><trkpt lat="33.3718931" lon="9.1231212"><ele>81.33333333333334</ele><time>2026-04-29T10:06:24.554Z</time></trkpt><trkpt lat="33.3717789" lon="9.1232667"><ele>79.66666666666667</ele><time>2026-04-29T10:06:25.537Z</time></trkpt><trkpt lat="33.371665" lon="9.1234181"><ele>78.0</ele><time>2026-04-29T10:06:26.551Z</time></trkpt><trkpt lat="33.3715483" lon="9.123562"><ele>78.0</ele><time>2026-04-29T10:06:27.555Z</time></trkpt><trkpt lat="33.3714316" lon="9.1237062"><ele>78.0</ele><time>2026-04-29T10:06:28.528Z</time></trkpt><trkpt lat="33.3713163" lon="9.1238431"><ele>78.0</ele><time>2026-04-29T10:06:29.559Z</time></trkpt><trkpt lat="33.3712057" lon="9.12398"><ele>78.66666666666667</ele><time>2026-04-29T10:06:30.559Z</time></trkpt><trkpt lat="33.3710982" lon="9.124107"><ele>79.33333333333334</ele><time>2026-04-29T10:06:31.546Z</time></trkpt><trkpt lat="33.3709951" lon="9.124237"><ele>80.0</ele><time>2026-04-29T10:06:32.543Z</time></trkpt><trkpt lat="33.3708877" lon="9.1243673"><ele>80.0</ele><time>2026-04-29T10:06:33.538Z</time></trkpt><trkpt lat="33.3707809" lon="9.1244901"><ele>80.0</ele><time>2026-04-29T10:06:34.527Z</time></trkpt><trkpt lat="33.3706665" lon="9.1246188"><ele>80.0</ele><time>2026-04-29T10:06:35.549Z</time></trkpt><trkpt lat="33.3705533" lon="9.124747"><ele>79.33333333333334</ele><time>2026-04-29T10:06:36.532Z</time></trkpt><trkpt lat="33.3704437" lon="9.1248736"><ele>78.66666666666667</ele><time>2026-04-29T10:06:37.541Z</time></trkpt><trkpt lat="33.3703323" lon="9.1249935"><ele>78.0</ele><time>2026-04-29T10:06:38.537Z</time></trkpt><trkpt lat="33.3702244" lon="9.1251255"><ele>79.33333333333333</ele><time>2026-04-29T10:06:39.554Z</time></trkpt><trkpt lat="33.3701127" lon="9.1252568"><ele>80.66666666666666</ele><time>2026-04-29T10:06:40.556Z</time></trkpt><trkpt lat="33.3699946" lon="9.1253847"><ele>82.0</ele><time>2026-04-29T10:06:41.528Z</time></trkpt><trkpt lat="33.3698676" lon="9.1255114"><ele>82.0</ele><time>2026-04-29T10:06:42.545Z</time></trkpt><trkpt lat="33.3697361" lon="9.1256479"><ele>82.0</ele><time>2026-04-29T10:06:43.563Z</time></trkpt><trkpt lat="33.3696031" lon="9.1257913"><ele>82.0</ele><time>2026-04-29T10:06:44.556Z</time></trkpt><trkpt lat="33.3694702" lon="9.1259326"><ele>81.66666666666666</ele><time>2026-04-29T10:06:45.543Z</time></trkpt><trkpt lat="33.3693373" lon="9.1260794"><ele>81.33333333333333</ele><time>2026-04-29T10:06:46.551Z</time></trkpt><trkpt lat="33.3692042" lon="9.1262283"><ele>81.0</ele><time>2026-04-29T10:06:47.539Z</time></trkpt><trkpt lat="33.3690649" lon="9.1263711"><ele>81.0</ele><time>2026-04-29T10:06:48.563Z</time></trkpt><trkpt lat="33.3689218" lon="9.1265106"><ele>81.0</ele><time>2026-04-29T10:06:49.546Z</time></trkpt><trkpt lat="33.3687869" lon="9.1266429"><ele>81.0</ele><time>2026-04-29T10:06:50.565Z</time></trkpt><trkpt lat="33.3686505" lon="9.1267768"><ele>80.0</ele><time>2026-04-29T10:06:51.549Z</time></trkpt><trkpt lat="33.3685185" lon="9.126908"><ele>79.0</ele><time>2026-04-29T10:06:52.565Z</time></trkpt><trkpt lat="33.3683911" lon="9.1270372"><ele>78.0</ele><time>2026-04-29T10:06:53.546Z</time></trkpt><trkpt lat="33.3682656" lon="9.1271624"><ele>78.0</ele><time>2026-04-29T10:06:54.547Z</time></trkpt><trkpt lat="33.3681443" lon="9.1272857"><ele>78.0</ele><time>2026-04-29T10:06:55.554Z</time></trkpt><trkpt lat="33.3680215" lon="9.1274103"><ele>78.0</ele><time>2026-04-29T10:06:56.529Z</time></trkpt><trkpt lat="33.3678981" lon="9.1275341"><ele>78.0</ele><time>2026-04-29T10:06:57.564Z</time></trkpt><trkpt lat="33.367773" lon="9.1276598"><ele>78.0</ele><time>2026-04-29T10:06:58.557Z</time></trkpt><trkpt lat="33.3676453" lon="9.127782"><ele>78.0</ele><time>2026-04-29T10:06:59.513Z</time></trkpt><trkpt lat="33.3675162" lon="9.1279081"><ele>78.0</ele><time>2026-04-29T10:07:00.528Z</time></trkpt><trkpt lat="33.367388" lon="9.1280413"><ele>78.0</ele><time>2026-04-29T10:07:01.545Z</time></trkpt><trkpt lat="33.3672579" lon="9.1281719"><ele>78.0</ele><time>2026-04-29T10:07:02.517Z</time></trkpt><trkpt lat="33.3671314" lon="9.1283064"><ele>78.66666666666667</ele><time>2026-04-29T10:07:03.56Z</time></trkpt><trkpt lat="33.3670003" lon="9.1284362"><ele>79.33333333333334</ele><time>2026-04-29T10:07:04.516Z</time></trkpt><trkpt lat="33.3668756" lon="9.1285656"><ele>80.0</ele><time>2026-04-29T10:07:05.546Z</time></trkpt><trkpt lat="33.3667607" lon="9.1286828"><ele>80.0</ele><time>2026-04-29T10:07:06.544Z</time></trkpt><trkpt lat="33.3666526" lon="9.1287944"><ele>80.0</ele><time>2026-04-29T10:07:07.543Z</time></trkpt><trkpt lat="33.366547" lon="9.1289037"><ele>80.0</ele><time>2026-04-29T10:07:08.548Z</time></trkpt><trkpt lat="33.366443" lon="9.1290112"><ele>80.0</ele><time>2026-04-29T10:07:09.556Z</time></trkpt><trkpt lat="33.3663405" lon="9.1291176"><ele>80.0</ele><time>2026-04-29T10:07:10.547Z</time></trkpt><trkpt lat="33.3662473" lon="9.1292148"><ele>80.0</ele><time>2026-04-29T10:07:11.499Z</time></trkpt><trkpt lat="33.3661576" lon="9.1293042"><ele>80.0</ele><time>2026-04-29T10:07:12.507Z</time></trkpt><trkpt lat="33.3660779" lon="9.1293854"><ele>80.0</ele><time>2026-04-29T10:07:13.545Z</time></trkpt><trkpt lat="33.3660021" lon="9.1294629"><ele>80.0</ele><time>2026-04-29T10:07:14.55Z</time></trkpt><trkpt lat="33.3659222" lon="9.1295418"><ele>80.0</ele><time>2026-04-29T10:07:15.552Z</time></trkpt><trkpt lat="33.3658482" lon="9.1296135"><ele>80.0</ele><time>2026-04-29T10:07:16.56Z</time></trkpt><trkpt lat="33.3657805" lon="9.1296816"><ele>80.0</ele><time>2026-04-29T10:07:17.498Z</time></trkpt><trkpt lat="33.3657135" lon="9.1297465"><ele>80.0</ele><time>2026-04-29T10:07:18.543Z</time></trkpt><trkpt lat="33.3656539" lon="9.1298093"><ele>80.0</ele><time>2026-04-29T10:07:19.537Z</time></trkpt><trkpt lat="33.3655891" lon="9.1298806"><ele>80.0</ele><time>2026-04-29T10:07:20.549Z</time></trkpt><trkpt lat="33.3655309" lon="9.1299387"><ele>79.66666666666667</ele><time>2026-04-29T10:07:21.55Z</time></trkpt><trkpt lat="33.3654744" lon="9.1299981"><ele>79.33333333333334</ele><time>2026-04-29T10:07:22.532Z</time></trkpt><trkpt lat="33.3654125" lon="9.1300651"><ele>79.0</ele><time>2026-04-29T10:07:23.543Z</time></trkpt><trkpt lat="33.3653476" lon="9.1301309"><ele>78.66666666666667</ele><time>2026-04-29T10:07:24.555Z</time></trkpt><trkpt lat="33.3652784" lon="9.1302005"><ele>78.33333333333333</ele><time>2026-04-29T10:07:25.555Z</time></trkpt><trkpt lat="33.3652146" lon="9.1302637"><ele>78.0</ele><time>2026-04-29T10:07:26.551Z</time></trkpt><trkpt lat="33.3651481" lon="9.1303255"><ele>78.0</ele><time>2026-04-29T10:07:27.545Z</time></trkpt><trkpt lat="33.3650859" lon="9.1303876"><ele>78.0</ele><time>2026-04-29T10:07:28.553Z</time></trkpt><trkpt lat="33.3650311" lon="9.1304433"><ele>78.0</ele><time>2026-04-29T10:07:29.502Z</time></trkpt><trkpt lat="33.3649831" lon="9.1304948"><ele>78.0</ele><time>2026-04-29T10:07:30.531Z</time></trkpt><trkpt lat="33.3648939" lon="9.1305903"><ele>78.0</ele><time>2026-04-29T10:07:32.539Z</time></trkpt><trkpt lat="33.3648158" lon="9.1306691"><ele>78.0</ele><time>2026-04-29T10:07:34.536Z</time></trkpt><trkpt lat="33.364767" lon="9.1307169"><ele>78.16666666666667</ele><time>2026-04-29T10:07:36.545Z</time></trkpt><trkpt lat="33.364707" lon="9.13078"><ele>78.33333333333333</ele><time>2026-04-29T10:07:40.543Z</time></trkpt><trkpt lat="33.3646578" lon="9.1308276"><ele>78.5</ele><time>2026-04-29T10:07:44.547Z</time></trkpt><trkpt lat="33.3645905" lon="9.1309117"><ele>78.66666666666666</ele><time>2026-04-29T10:09:21.539Z</time></trkpt><trkpt lat="33.364543" lon="9.1309624"><ele>78.83333333333333</ele><time>2026-04-29T10:09:22.555Z</time></trkpt><trkpt lat="33.36449" lon="9.131019"><ele>79.0</ele><time>2026-04-29T10:09:23.557Z</time></trkpt><trkpt lat="33.3644317" lon="9.1310753"><ele>79.0</ele><time>2026-04-29T10:09:24.555Z</time></trkpt><trkpt lat="33.3643724" lon="9.1311339"><ele>79.0</ele><time>2026-04-29T10:09:25.537Z</time></trkpt><trkpt lat="33.3643151" lon="9.1311925"><ele>79.0</ele><time>2026-04-29T10:09:26.565Z</time></trkpt><trkpt lat="33.3642666" lon="9.1312481"><ele>79.0</ele><time>2026-04-29T10:09:27.544Z</time></trkpt><trkpt lat="33.3642237" lon="9.1313045"><ele>79.0</ele><time>2026-04-29T10:09:28.559Z</time></trkpt><trkpt lat="33.3641698" lon="9.1313629"><ele>79.0</ele><time>2026-04-29T10:09:29.559Z</time></trkpt><trkpt lat="33.3640795" lon="9.1314635"><ele>79.0</ele><time>2026-04-29T10:09:31.531Z</time></trkpt><trkpt lat="33.3640292" lon="9.1315166"><ele>79.0</ele><time>2026-04-29T10:09:32.551Z</time></trkpt><trkpt lat="33.363968" lon="9.1315693"><ele>79.0</ele><time>2026-04-29T10:09:33.552Z</time></trkpt><trkpt lat="33.3639184" lon="9.1316228"><ele>79.0</ele><time>2026-04-29T10:09:34.552Z</time></trkpt><trkpt lat="33.3638356" lon="9.1317113"><ele>79.0</ele><time>2026-04-29T10:09:36.554Z</time></trkpt><trkpt lat="33.3637542" lon="9.1318091"><ele>79.0</ele><time>2026-04-29T10:09:38.546Z</time></trkpt><trkpt lat="33.3636951" lon="9.1318643"><ele>79.0</ele><time>2026-04-29T10:09:39.527Z</time></trkpt><trkpt lat="33.3636301" lon="9.1319232"><ele>79.0</ele><time>2026-04-29T10:09:40.533Z</time></trkpt><trkpt lat="33.3635632" lon="9.1319846"><ele>79.0</ele><time>2026-04-29T10:09:41.554Z</time></trkpt><trkpt lat="33.3634995" lon="9.132048"><ele>79.0</ele><time>2026-04-29T10:09:42.552Z</time></trkpt><trkpt lat="33.3634377" lon="9.13211"><ele>79.0</ele><time>2026-04-29T10:09:43.55Z</time></trkpt><trkpt lat="33.3633725" lon="9.1321767"><ele>79.0</ele><time>2026-04-29T10:09:44.554Z</time></trkpt><trkpt lat="33.3633116" lon="9.1322385"><ele>79.0</ele><time>2026-04-29T10:09:45.559Z</time></trkpt><trkpt lat="33.3632476" lon="9.1323028"><ele>79.0</ele><time>2026-04-29T10:09:46.552Z</time></trkpt><trkpt lat="33.3631845" lon="9.1323728"><ele>79.0</ele><time>2026-04-29T10:09:47.537Z</time></trkpt><trkpt lat="33.3631229" lon="9.1324341"><ele>79.0</ele><time>2026-04-29T10:09:48.543Z</time></trkpt><trkpt lat="33.3630633" lon="9.1324941"><ele>79.0</ele><time>2026-04-29T10:09:49.532Z</time></trkpt><trkpt lat="33.3630013" lon="9.1325624"><ele>79.0</ele><time>2026-04-29T10:09:50.543Z</time></trkpt><trkpt lat="33.3629335" lon="9.1326386"><ele>78.66666666666666</ele><time>2026-04-29T10:09:51.558Z</time></trkpt><trkpt lat="33.3628634" lon="9.1327034"><ele>78.33333333333333</ele><time>2026-04-29T10:09:52.543Z</time></trkpt><trkpt lat="33.3627977" lon="9.1327677"><ele>78.0</ele><time>2026-04-29T10:09:53.544Z</time></trkpt><trkpt lat="33.3627315" lon="9.1328246"><ele>77.66666666666667</ele><time>2026-04-29T10:09:54.567Z</time></trkpt><trkpt lat="33.3626651" lon="9.1328727"><ele>77.33333333333334</ele><time>2026-04-29T10:09:55.541Z</time></trkpt><trkpt lat="33.3626" lon="9.1329319"><ele>77.0</ele><time>2026-04-29T10:09:56.548Z</time></trkpt><trkpt lat="33.3625302" lon="9.1330016"><ele>77.0</ele><time>2026-04-29T10:09:57.533Z</time></trkpt><trkpt lat="33.3624666" lon="9.133074"><ele>77.0</ele><time>2026-04-29T10:09:58.557Z</time></trkpt><trkpt lat="33.362405" lon="9.133145"><ele>77.0</ele><time>2026-04-29T10:09:59.507Z</time></trkpt><trkpt lat="33.3623427" lon="9.1332162"><ele>77.0</ele><time>2026-04-29T10:10:00.523Z</time></trkpt><trkpt lat="33.3622771" lon="9.133284"><ele>77.0</ele><time>2026-04-29T10:10:01.553Z</time></trkpt><trkpt lat="33.3622113" lon="9.1333435"><ele>77.0</ele><time>2026-04-29T10:10:02.532Z</time></trkpt><trkpt lat="33.362143" lon="9.1334104"><ele>77.0</ele><time>2026-04-29T10:10:03.538Z</time></trkpt><trkpt lat="33.3620772" lon="9.1334824"><ele>77.0</ele><time>2026-04-29T10:10:04.544Z</time></trkpt><trkpt lat="33.3620144" lon="9.1335503"><ele>77.0</ele><time>2026-04-29T10:10:05.546Z</time></trkpt><trkpt lat="33.3619533" lon="9.1336192"><ele>77.0</ele><time>2026-04-29T10:10:06.508Z</time></trkpt><trkpt lat="33.3618946" lon="9.1336907"><ele>77.0</ele><time>2026-04-29T10:10:07.546Z</time></trkpt><trkpt lat="33.3618416" lon="9.1337554"><ele>77.0</ele><time>2026-04-29T10:10:08.517Z</time></trkpt><trkpt lat="33.3617911" lon="9.1338168"><ele>77.0</ele><time>2026-04-29T10:10:09.556Z</time></trkpt><trkpt lat="33.3617384" lon="9.1338768"><ele>77.0</ele><time>2026-04-29T10:10:10.553Z</time></trkpt><trkpt lat="33.3616849" lon="9.1339373"><ele>77.0</ele><time>2026-04-29T10:10:11.505Z</time></trkpt><trkpt lat="33.3616317" lon="9.1339923"><ele>77.0</ele><time>2026-04-29T10:10:12.53Z</time></trkpt><trkpt lat="33.361584" lon="9.1340444"><ele>77.0</ele><time>2026-04-29T10:10:13.538Z</time></trkpt><trkpt lat="33.3615072" lon="9.1341402"><ele>77.0</ele><time>2026-04-29T10:10:15.556Z</time></trkpt><trkpt lat="33.3614615" lon="9.1341984"><ele>78.0</ele><time>2026-04-29T10:10:17.539Z</time></trkpt><trkpt lat="33.3614153" lon="9.1342543"><ele>79.0</ele><time>2026-04-29T10:10:20.54Z</time></trkpt><trkpt lat="33.3613651" lon="9.1343102"><ele>80.0</ele><time>2026-04-29T10:12:02.506Z</time></trkpt><trkpt lat="33.3613307" lon="9.134386"><ele>81.0</ele><time>2026-04-29T10:12:05.507Z</time></trkpt><trkpt lat="33.3612727" lon="9.1344509"><ele>82.0</ele><time>2026-04-29T10:12:21.534Z</time></trkpt><trkpt lat="33.3611861" lon="9.134546"><ele>83.0</ele><time>2026-04-29T10:12:23.56Z</time></trkpt><trkpt lat="33.3611357" lon="9.1346043"><ele>83.0</ele><time>2026-04-29T10:12:24.557Z</time></trkpt><trkpt lat="33.3610895" lon="9.1346632"><ele>83.0</ele><time>2026-04-29T10:12:25.546Z</time></trkpt><trkpt lat="33.3610416" lon="9.13472"><ele>83.0</ele><time>2026-04-29T10:12:26.529Z</time></trkpt><trkpt lat="33.36099" lon="9.13478"><ele>83.0</ele><time>2026-04-29T10:12:27.533Z</time></trkpt><trkpt lat="33.3609388" lon="9.1348427"><ele>83.0</ele><time>2026-04-29T10:12:28.562Z</time></trkpt><trkpt lat="33.3608895" lon="9.1349128"><ele>83.0</ele><time>2026-04-29T10:12:29.567Z</time></trkpt><trkpt lat="33.360845" lon="9.1349773"><ele>83.0</ele><time>2026-04-29T10:12:30.55Z</time></trkpt><trkpt lat="33.3607989" lon="9.1350417"><ele>83.0</ele><time>2026-04-29T10:12:31.556Z</time></trkpt><trkpt lat="33.3607486" lon="9.1351045"><ele>83.0</ele><time>2026-04-29T10:12:32.561Z</time></trkpt><trkpt lat="33.3606998" lon="9.1351627"><ele>83.0</ele><time>2026-04-29T10:12:33.499Z</time></trkpt><trkpt lat="33.3606527" lon="9.1352176"><ele>83.0</ele><time>2026-04-29T10:12:34.555Z</time></trkpt><trkpt lat="33.3606037" lon="9.1352742"><ele>83.0</ele><time>2026-04-29T10:12:35.545Z</time></trkpt><trkpt lat="33.3605483" lon="9.1353263"><ele>83.0</ele><time>2026-04-29T10:12:36.553Z</time></trkpt><trkpt lat="33.3604915" lon="9.1353779"><ele>83.0</ele><time>2026-04-29T10:12:37.554Z</time></trkpt><trkpt lat="33.3604322" lon="9.1354317"><ele>83.0</ele><time>2026-04-29T10:12:38.557Z</time></trkpt><trkpt lat="33.3603732" lon="9.1354883"><ele>83.0</ele><time>2026-04-29T10:12:39.554Z</time></trkpt><trkpt lat="33.3603197" lon="9.135555"><ele>83.0</ele><time>2026-04-29T10:12:40.56Z</time></trkpt><trkpt lat="33.3602701" lon="9.1356223"><ele>83.0</ele><time>2026-04-29T10:12:41.547Z</time></trkpt><trkpt lat="33.3602185" lon="9.135685"><ele>83.0</ele><time>2026-04-29T10:12:42.562Z</time></trkpt><trkpt lat="33.3601711" lon="9.1357498"><ele>83.0</ele><time>2026-04-29T10:12:43.544Z</time></trkpt><trkpt lat="33.3601244" lon="9.1358133"><ele>83.0</ele><time>2026-04-29T10:12:44.54Z</time></trkpt><trkpt lat="33.3600763" lon="9.1358798"><ele>83.14285714285714</ele><time>2026-04-29T10:12:45.568Z</time></trkpt><trkpt lat="33.3600302" lon="9.1359436"><ele>83.28571428571429</ele><time>2026-04-29T10:12:46.567Z</time></trkpt><trkpt lat="33.3599799" lon="9.1360072"><ele>83.42857142857143</ele><time>2026-04-29T10:12:47.574Z</time></trkpt><trkpt lat="33.3599277" lon="9.1360729"><ele>83.57142857142857</ele><time>2026-04-29T10:12:48.571Z</time></trkpt><trkpt lat="33.359874" lon="9.1361357"><ele>83.71428571428572</ele><time>2026-04-29T10:12:49.553Z</time></trkpt><trkpt lat="33.3598294" lon="9.1361981"><ele>83.85714285714286</ele><time>2026-04-29T10:12:50.547Z</time></trkpt><trkpt lat="33.3597796" lon="9.1362532"><ele>84.0</ele><time>2026-04-29T10:12:51.565Z</time></trkpt><trkpt lat="33.3597228" lon="9.1363253"><ele>82.66666666666667</ele><time>2026-04-29T10:12:52.574Z</time></trkpt><trkpt lat="33.3596335" lon="9.1364237"><ele>81.33333333333334</ele><time>2026-04-29T10:12:53.572Z</time></trkpt><trkpt lat="33.3595127" lon="9.1365501"><ele>80.0</ele><time>2026-04-29T10:12:54.558Z</time></trkpt><trkpt lat="33.359379" lon="9.1366833"><ele>80.0</ele><time>2026-04-29T10:12:55.566Z</time></trkpt><trkpt lat="33.3592576" lon="9.1368211"><ele>80.0</ele><time>2026-04-29T10:12:56.544Z</time></trkpt><trkpt lat="33.3591505" lon="9.1369355"><ele>80.0</ele><time>2026-04-29T10:12:57.563Z</time></trkpt><trkpt lat="33.3590457" lon="9.1370467"><ele>80.0</ele><time>2026-04-29T10:12:58.567Z</time></trkpt><trkpt lat="33.3589497" lon="9.1371551"><ele>80.0</ele><time>2026-04-29T10:12:59.541Z</time></trkpt><trkpt lat="33.358857" lon="9.1372679"><ele>80.0</ele><time>2026-04-29T10:13:00.528Z</time></trkpt><trkpt lat="33.3587753" lon="9.1373722"><ele>80.0</ele><time>2026-04-29T10:13:01.554Z</time></trkpt><trkpt lat="33.3586863" lon="9.1374747"><ele>80.75</ele><time>2026-04-29T10:13:02.546Z</time></trkpt><trkpt lat="33.3585942" lon="9.1375728"><ele>81.5</ele><time>2026-04-29T10:13:03.53Z</time></trkpt><trkpt lat="33.3585046" lon="9.1376739"><ele>82.25</ele><time>2026-04-29T10:13:04.525Z</time></trkpt><trkpt lat="33.3584144" lon="9.1377741"><ele>83.0</ele><time>2026-04-29T10:13:05.55Z</time></trkpt><trkpt lat="33.3583231" lon="9.1378658"><ele>83.0</ele><time>2026-04-29T10:13:06.551Z</time></trkpt><trkpt lat="33.3582472" lon="9.1379505"><ele>83.0</ele><time>2026-04-29T10:13:07.625Z</time></trkpt><trkpt lat="33.3581742" lon="9.1380283"><ele>83.0</ele><time>2026-04-29T10:13:08.548Z</time></trkpt><trkpt lat="33.3580954" lon="9.1380994"><ele>83.0</ele><time>2026-04-29T10:13:09.55Z</time></trkpt><trkpt lat="33.3580144" lon="9.1381716"><ele>83.0</ele><time>2026-04-29T10:13:10.556Z</time></trkpt><trkpt lat="33.3579297" lon="9.138246"><ele>83.5</ele><time>2026-04-29T10:13:11.553Z</time></trkpt><trkpt lat="33.3578537" lon="9.1383185"><ele>84.0</ele><time>2026-04-29T10:13:12.552Z</time></trkpt><trkpt lat="33.3577834" lon="9.1383803"><ele>84.5</ele><time>2026-04-29T10:13:13.551Z</time></trkpt><trkpt lat="33.3577346" lon="9.138453"><ele>85.0</ele><time>2026-04-29T10:13:14.561Z</time></trkpt><trkpt lat="33.3576782" lon="9.1385171"><ele>85.5</ele><time>2026-04-29T10:13:15.551Z</time></trkpt><trkpt lat="33.357607" lon="9.1385774"><ele>86.0</ele><time>2026-04-29T10:13:16.561Z</time></trkpt><trkpt lat="33.3575374" lon="9.1386413"><ele>86.0</ele><time>2026-04-29T10:13:17.569Z</time></trkpt><trkpt lat="33.3574717" lon="9.1387076"><ele>86.0</ele><time>2026-04-29T10:13:18.558Z</time></trkpt><trkpt lat="33.3574121" lon="9.1387784"><ele>86.0</ele><time>2026-04-29T10:13:19.557Z</time></trkpt><trkpt lat="33.3573512" lon="9.1388477"><ele>86.0</ele><time>2026-04-29T10:13:20.552Z</time></trkpt><trkpt lat="33.3572912" lon="9.1389311"><ele>86.0</ele><time>2026-04-29T10:13:21.553Z</time></trkpt><trkpt lat="33.3572189" lon="9.1390111"><ele>86.0</ele><time>2026-04-29T10:13:22.533Z</time></trkpt><trkpt lat="33.35715" lon="9.1390837"><ele>86.0</ele><time>2026-04-29T10:13:23.554Z</time></trkpt><trkpt lat="33.3570723" lon="9.1391537"><ele>86.0</ele><time>2026-04-29T10:13:24.547Z</time></trkpt><trkpt lat="33.3569992" lon="9.1392241"><ele>86.0</ele><time>2026-04-29T10:13:25.562Z</time></trkpt><trkpt lat="33.3569234" lon="9.139293"><ele>86.0</ele><time>2026-04-29T10:13:26.562Z</time></trkpt><trkpt lat="33.3568538" lon="9.1393627"><ele>86.0</ele><time>2026-04-29T10:13:27.553Z</time></trkpt><trkpt lat="33.3567851" lon="9.1394284"><ele>86.0</ele><time>2026-04-29T10:13:28.562Z</time></trkpt><trkpt lat="33.3567136" lon="9.139499"><ele>86.0</ele><time>2026-04-29T10:13:29.546Z</time></trkpt><trkpt lat="33.3566442" lon="9.1395699"><ele>86.0</ele><time>2026-04-29T10:13:30.553Z</time></trkpt><trkpt lat="33.3565763" lon="9.1396369"><ele>86.0</ele><time>2026-04-29T10:13:31.526Z</time></trkpt><trkpt lat="33.3565096" lon="9.1397056"><ele>86.0</ele><time>2026-04-29T10:13:32.542Z</time></trkpt><trkpt lat="33.3564392" lon="9.1397744"><ele>86.0</ele><time>2026-04-29T10:13:33.524Z</time></trkpt><trkpt lat="33.3563713" lon="9.1398446"><ele>86.0</ele><time>2026-04-29T10:13:34.521Z</time></trkpt><trkpt lat="33.356306" lon="9.1399053"><ele>86.0</ele><time>2026-04-29T10:13:35.558Z</time></trkpt><trkpt lat="33.3562422" lon="9.1399668"><ele>86.0</ele><time>2026-04-29T10:13:36.535Z</time></trkpt><trkpt lat="33.3561787" lon="9.1400251"><ele>86.0</ele><time>2026-04-29T10:13:37.565Z</time></trkpt><trkpt lat="33.356115" lon="9.1400864"><ele>86.0</ele><time>2026-04-29T10:13:38.547Z</time></trkpt><trkpt lat="33.3560505" lon="9.1401459"><ele>85.66666666666667</ele><time>2026-04-29T10:13:39.559Z</time></trkpt><trkpt lat="33.3559861" lon="9.1402068"><ele>85.33333333333334</ele><time>2026-04-29T10:13:40.557Z</time></trkpt><trkpt lat="33.3559187" lon="9.1402605"><ele>85.0</ele><time>2026-04-29T10:13:41.528Z</time></trkpt><trkpt lat="33.3558525" lon="9.1403191"><ele>84.66666666666667</ele><time>2026-04-29T10:13:42.548Z</time></trkpt><trkpt lat="33.3557931" lon="9.1403761"><ele>84.33333333333333</ele><time>2026-04-29T10:13:43.557Z</time></trkpt><trkpt lat="33.3557344" lon="9.14043"><ele>84.0</ele><time>2026-04-29T10:13:44.541Z</time></trkpt><trkpt lat="33.3556805" lon="9.1404797"><ele>84.0</ele><time>2026-04-29T10:13:45.56Z</time></trkpt><trkpt lat="33.3556249" lon="9.140537"><ele>84.0</ele><time>2026-04-29T10:13:46.534Z</time></trkpt><trkpt lat="33.355567" lon="9.1406003"><ele>84.0</ele><time>2026-04-29T10:13:47.554Z</time></trkpt><trkpt lat="33.3555031" lon="9.1406651"><ele>84.0</ele><time>2026-04-29T10:13:48.555Z</time></trkpt><trkpt lat="33.3554412" lon="9.1407282"><ele>84.0</ele><time>2026-04-29T10:13:49.552Z</time></trkpt><trkpt lat="33.3553779" lon="9.1407825"><ele>84.0</ele><time>2026-04-29T10:13:50.551Z</time></trkpt><trkpt lat="33.3553208" lon="9.1408369"><ele>83.80000000000001</ele><time>2026-04-29T10:13:51.538Z</time></trkpt><trkpt lat="33.355248" lon="9.1409017"><ele>83.60000000000001</ele><time>2026-04-29T10:13:52.534Z</time></trkpt><trkpt lat="33.3551696" lon="9.1409733"><ele>83.4</ele><time>2026-04-29T10:13:53.554Z</time></trkpt><trkpt lat="33.3550882" lon="9.1410509"><ele>83.2</ele><time>2026-04-29T10:13:54.561Z</time></trkpt><trkpt lat="33.3550043" lon="9.141131"><ele>83.0</ele><time>2026-04-29T10:13:55.563Z</time></trkpt><trkpt lat="33.3549273" lon="9.1412028"><ele>83.0</ele><time>2026-04-29T10:13:56.516Z</time></trkpt><trkpt lat="33.354866" lon="9.1412604"><ele>83.0</ele><time>2026-04-29T10:13:57.53Z</time></trkpt><trkpt lat="33.3548176" lon="9.1413101"><ele>83.0</ele><time>2026-04-29T10:13:58.546Z</time></trkpt><trkpt lat="33.3547607" lon="9.1413699"><ele>83.0</ele><time>2026-04-29T10:14:00.562Z</time></trkpt><trkpt lat="33.3546894" lon="9.1414396"><ele>83.0</ele><time>2026-04-29T10:28:15.537Z</time></trkpt><trkpt lat="33.3546021" lon="9.1415183"><ele>83.0</ele><time>2026-04-29T10:28:17.511Z</time></trkpt><trkpt lat="33.3545411" lon="9.1415707"><ele>82.83333333333334</ele><time>2026-04-29T10:28:18.539Z</time></trkpt><trkpt lat="33.3544811" lon="9.1416261"><ele>82.66666666666667</ele><time>2026-04-29T10:28:19.502Z</time></trkpt><trkpt lat="33.354417" lon="9.1416856"><ele>82.5</ele><time>2026-04-29T10:28:20.522Z</time></trkpt><trkpt lat="33.3543554" lon="9.1417381"><ele>82.33333333333333</ele><time>2026-04-29T10:28:21.522Z</time></trkpt><trkpt lat="33.3542969" lon="9.1417911"><ele>82.16666666666666</ele><time>2026-04-29T10:28:22.496Z</time></trkpt><trkpt lat="33.3542342" lon="9.1418472"><ele>82.0</ele><time>2026-04-29T10:28:23.509Z</time></trkpt><trkpt lat="33.3541599" lon="9.1419027"><ele>82.0</ele><time>2026-04-29T10:28:24.545Z</time></trkpt><trkpt lat="33.3540775" lon="9.1419625"><ele>82.0</ele><time>2026-04-29T10:28:25.531Z</time></trkpt><trkpt lat="33.3539972" lon="9.1420232"><ele>82.0</ele><time>2026-04-29T10:28:26.512Z</time></trkpt><trkpt lat="33.3539127" lon="9.1420914"><ele>82.0</ele><time>2026-04-29T10:28:27.502Z</time></trkpt><trkpt lat="33.3538324" lon="9.1421628"><ele>82.0</ele><time>2026-04-29T10:28:28.542Z</time></trkpt><trkpt lat="33.353749" lon="9.1422331"><ele>82.0</ele><time>2026-04-29T10:28:29.515Z</time></trkpt><trkpt lat="33.353661" lon="9.1423006"><ele>82.0</ele><time>2026-04-29T10:28:30.548Z</time></trkpt><trkpt lat="33.3535733" lon="9.142366"><ele>82.0</ele><time>2026-04-29T10:28:31.52Z</time></trkpt><trkpt lat="33.3534858" lon="9.1424282"><ele>82.0</ele><time>2026-04-29T10:28:32.521Z</time></trkpt><trkpt lat="33.3533963" lon="9.1424974"><ele>82.0</ele><time>2026-04-29T10:28:33.53Z</time></trkpt><trkpt lat="33.3533039" lon="9.1425704"><ele>82.19999999999999</ele><time>2026-04-29T10:28:34.532Z</time></trkpt><trkpt lat="33.3532165" lon="9.1426357"><ele>82.4</ele><time>2026-04-29T10:28:35.524Z</time></trkpt><trkpt lat="33.3531219" lon="9.1427043"><ele>82.6</ele><time>2026-04-29T10:28:36.516Z</time></trkpt><trkpt lat="33.3530281" lon="9.1427718"><ele>82.80000000000001</ele><time>2026-04-29T10:28:37.527Z</time></trkpt><trkpt lat="33.3529386" lon="9.1428444"><ele>83.0</ele><time>2026-04-29T10:28:38.522Z</time></trkpt><trkpt lat="33.352851" lon="9.1429112"><ele>83.0</ele><time>2026-04-29T10:28:39.538Z</time></trkpt><trkpt lat="33.3527719" lon="9.1429768"><ele>83.0</ele><time>2026-04-29T10:28:40.498Z</time></trkpt><trkpt lat="33.3527061" lon="9.1430264"><ele>83.0</ele><time>2026-04-29T10:28:41.55Z</time></trkpt><trkpt lat="33.3526441" lon="9.1430744"><ele>83.0</ele><time>2026-04-29T10:28:42.545Z</time></trkpt><trkpt lat="33.3525875" lon="9.1431201"><ele>83.0</ele><time>2026-04-29T10:28:43.523Z</time></trkpt><trkpt lat="33.3525268" lon="9.1431706"><ele>83.0</ele><time>2026-04-29T10:28:44.545Z</time></trkpt><trkpt lat="33.3524633" lon="9.1432223"><ele>83.14285714285714</ele><time>2026-04-29T10:28:45.572Z</time></trkpt><trkpt lat="33.3523991" lon="9.1432737"><ele>83.28571428571429</ele><time>2026-04-29T10:28:46.552Z</time></trkpt><trkpt lat="33.352343" lon="9.1433213"><ele>83.42857142857143</ele><time>2026-04-29T10:28:47.562Z</time></trkpt><trkpt lat="33.3522846" lon="9.1433717"><ele>83.57142857142857</ele><time>2026-04-29T10:28:48.555Z</time></trkpt><trkpt lat="33.3522197" lon="9.143423"><ele>83.71428571428572</ele><time>2026-04-29T10:28:49.53Z</time></trkpt><trkpt lat="33.3521596" lon="9.1434712"><ele>83.85714285714286</ele><time>2026-04-29T10:28:50.526Z</time></trkpt><trkpt lat="33.3520984" lon="9.1435251"><ele>84.0</ele><time>2026-04-29T10:28:51.546Z</time></trkpt><trkpt lat="33.3520373" lon="9.1435748"><ele>84.0</ele><time>2026-04-29T10:28:52.549Z</time></trkpt><trkpt lat="33.3519775" lon="9.1436262"><ele>84.0</ele><time>2026-04-29T10:28:53.551Z</time></trkpt><trkpt lat="33.351916" lon="9.1436718"><ele>84.0</ele><time>2026-04-29T10:28:54.51Z</time></trkpt><trkpt lat="33.3518488" lon="9.1437185"><ele>84.0</ele><time>2026-04-29T10:28:55.523Z</time></trkpt><trkpt lat="33.3517782" lon="9.143766"><ele>84.0</ele><time>2026-04-29T10:28:56.507Z</time></trkpt><trkpt lat="33.3517107" lon="9.1438214"><ele>84.0</ele><time>2026-04-29T10:28:57.515Z</time></trkpt><trkpt lat="33.3516508" lon="9.1438685"><ele>84.0</ele><time>2026-04-29T10:28:58.52Z</time></trkpt><trkpt lat="33.3515931" lon="9.143916"><ele>84.0</ele><time>2026-04-29T10:28:59.536Z</time></trkpt><trkpt lat="33.3514864" lon="9.143991"><ele>84.0</ele><time>2026-04-29T10:29:01.536Z</time></trkpt><trkpt lat="33.3514268" lon="9.144039"><ele>84.0</ele><time>2026-04-29T10:29:02.509Z</time></trkpt><trkpt lat="33.3513582" lon="9.1440913"><ele>84.0</ele><time>2026-04-29T10:29:03.519Z</time></trkpt><trkpt lat="33.3512963" lon="9.1441363"><ele>84.0</ele><time>2026-04-29T10:29:04.511Z</time></trkpt><trkpt lat="33.3511914" lon="9.1441988"><ele>83.83333333333333</ele><time>2026-04-29T10:29:06.538Z</time></trkpt><trkpt lat="33.3511288" lon="9.1442376"><ele>83.66666666666667</ele><time>2026-04-29T10:29:07.52Z</time></trkpt><trkpt lat="33.3510642" lon="9.1442741"><ele>83.5</ele><time>2026-04-29T10:29:08.54Z</time></trkpt><trkpt lat="33.3510016" lon="9.1443181"><ele>83.33333333333334</ele><time>2026-04-29T10:29:09.505Z</time></trkpt><trkpt lat="33.350937" lon="9.1443717"><ele>83.16666666666667</ele><time>2026-04-29T10:29:10.52Z</time></trkpt><trkpt lat="33.3508744" lon="9.1444259"><ele>83.0</ele><time>2026-04-29T10:29:11.514Z</time></trkpt><trkpt lat="33.3508084" lon="9.14448"><ele>83.0</ele><time>2026-04-29T10:29:12.524Z</time></trkpt><trkpt lat="33.3507476" lon="9.1445388"><ele>83.0</ele><time>2026-04-29T10:29:13.543Z</time></trkpt><trkpt lat="33.3506907" lon="9.144602"><ele>83.0</ele><time>2026-04-29T10:29:14.503Z</time></trkpt><trkpt lat="33.3506349" lon="9.1446619"><ele>83.0</ele><time>2026-04-29T10:29:15.533Z</time></trkpt><trkpt lat="33.3505798" lon="9.1447192"><ele>83.0</ele><time>2026-04-29T10:29:16.535Z</time></trkpt><trkpt lat="33.3505265" lon="9.1447707"><ele>83.0</ele><time>2026-04-29T10:29:17.517Z</time></trkpt><trkpt lat="33.3504457" lon="9.1448562"><ele>82.83333333333334</ele><time>2026-04-29T10:29:19.523Z</time></trkpt><trkpt lat="33.350347" lon="9.1449488"><ele>82.66666666666667</ele><time>2026-04-29T10:29:21.522Z</time></trkpt><trkpt lat="33.3502913" lon="9.1450021"><ele>82.5</ele><time>2026-04-29T10:29:22.531Z</time></trkpt><trkpt lat="33.3502382" lon="9.1450578"><ele>82.33333333333333</ele><time>2026-04-29T10:29:23.526Z</time></trkpt><trkpt lat="33.3501846" lon="9.145112"><ele>82.16666666666666</ele><time>2026-04-29T10:29:24.531Z</time></trkpt><trkpt lat="33.350137" lon="9.1451651"><ele>82.0</ele><time>2026-04-29T10:29:25.521Z</time></trkpt><trkpt lat="33.3500813" lon="9.1452236"><ele>81.99999999999999</ele><time>2026-04-29T10:29:26.514Z</time></trkpt><trkpt lat="33.3500203" lon="9.1452908"><ele>82.0</ele><time>2026-04-29T10:29:27.492Z</time></trkpt><trkpt lat="33.3499641" lon="9.1453597"><ele>82.0</ele><time>2026-04-29T10:29:28.495Z</time></trkpt><trkpt lat="33.3499142" lon="9.145428"><ele>82.0</ele><time>2026-04-29T10:29:29.533Z</time></trkpt><trkpt lat="33.3498609" lon="9.1454838"><ele>82.0</ele><time>2026-04-29T10:29:30.553Z</time></trkpt><trkpt lat="33.3498072" lon="9.1455343"><ele>81.99999999999999</ele><time>2026-04-29T10:29:31.544Z</time></trkpt><trkpt lat="33.3497531" lon="9.1455838"><ele>82.0</ele><time>2026-04-29T10:29:32.524Z</time></trkpt><trkpt lat="33.3496606" lon="9.1456653"><ele>82.5</ele><time>2026-04-29T10:29:34.55Z</time></trkpt><trkpt lat="33.3495635" lon="9.1457551"><ele>83.0</ele><time>2026-04-29T10:29:36.549Z</time></trkpt><trkpt lat="33.3495089" lon="9.1458031"><ele>83.5</ele><time>2026-04-29T10:29:37.555Z</time></trkpt><trkpt lat="33.3494586" lon="9.1458488"><ele>84.0</ele><time>2026-04-29T10:29:38.535Z</time></trkpt><trkpt lat="33.349412" lon="9.1459012"><ele>84.5</ele><time>2026-04-29T10:29:39.532Z</time></trkpt><trkpt lat="33.3493667" lon="9.1459579"><ele>85.0</ele><time>2026-04-29T10:29:40.549Z</time></trkpt><trkpt lat="33.34932" lon="9.1460185"><ele>85.0</ele><time>2026-04-29T10:29:41.564Z</time></trkpt><trkpt lat="33.3492757" lon="9.1460815"><ele>85.0</ele><time>2026-04-29T10:29:42.562Z</time></trkpt><trkpt lat="33.3492183" lon="9.146144"><ele>85.0</ele><time>2026-04-29T10:29:43.517Z</time></trkpt><trkpt lat="33.3491584" lon="9.1462094"><ele>85.0</ele><time>2026-04-29T10:29:44.55Z</time></trkpt><trkpt lat="33.3491007" lon="9.1462668"><ele>85.0</ele><time>2026-04-29T10:29:45.534Z</time></trkpt><trkpt lat="33.3490411" lon="9.1463291"><ele>85.0</ele><time>2026-04-29T10:29:46.541Z</time></trkpt><trkpt lat="33.3489821" lon="9.146399"><ele>85.0</ele><time>2026-04-29T10:29:47.53Z</time></trkpt><trkpt lat="33.348927" lon="9.1464643"><ele>85.0</ele><time>2026-04-29T10:29:48.552Z</time></trkpt><trkpt lat="33.3488738" lon="9.1465379"><ele>85.0</ele><time>2026-04-29T10:29:49.542Z</time></trkpt><trkpt lat="33.3488183" lon="9.146606"><ele>85.0</ele><time>2026-04-29T10:29:50.51Z</time></trkpt><trkpt lat="33.3487606" lon="9.1466721"><ele>85.0</ele><time>2026-04-29T10:29:51.538Z</time></trkpt><trkpt lat="33.3486988" lon="9.1467241"><ele>85.0</ele><time>2026-04-29T10:29:52.534Z</time></trkpt><trkpt lat="33.3486386" lon="9.1467754"><ele>84.66666666666666</ele><time>2026-04-29T10:29:53.558Z</time></trkpt><trkpt lat="33.3485807" lon="9.1468298"><ele>84.33333333333333</ele><time>2026-04-29T10:29:54.566Z</time></trkpt><trkpt lat="33.3485288" lon="9.1468879"><ele>84.0</ele><time>2026-04-29T10:29:55.538Z</time></trkpt><trkpt lat="33.3484702" lon="9.14696"><ele>83.66666666666667</ele><time>2026-04-29T10:29:56.535Z</time></trkpt><trkpt lat="33.3484129" lon="9.1470262"><ele>83.33333333333334</ele><time>2026-04-29T10:29:57.513Z</time></trkpt><trkpt lat="33.3483528" lon="9.1470988"><ele>83.0</ele><time>2026-04-29T10:29:58.538Z</time></trkpt><trkpt lat="33.3482948" lon="9.1471698"><ele>83.0</ele><time>2026-04-29T10:29:59.545Z</time></trkpt><trkpt lat="33.3482324" lon="9.1472439"><ele>83.0</ele><time>2026-04-29T10:30:00.518Z</time></trkpt><trkpt lat="33.3481638" lon="9.1473221"><ele>83.0</ele><time>2026-04-29T10:30:01.549Z</time></trkpt><trkpt lat="33.34808" lon="9.1474018"><ele>83.0</ele><time>2026-04-29T10:30:02.533Z</time></trkpt><trkpt lat="33.3479903" lon="9.1474883"><ele>83.0</ele><time>2026-04-29T10:30:03.543Z</time></trkpt><trkpt lat="33.3479037" lon="9.1475802"><ele>83.75</ele><time>2026-04-29T10:30:04.535Z</time></trkpt><trkpt lat="33.347816" lon="9.1476808"><ele>84.5</ele><time>2026-04-29T10:30:05.535Z</time></trkpt><trkpt lat="33.3477215" lon="9.1477853"><ele>85.25</ele><time>2026-04-29T10:30:06.55Z</time></trkpt><trkpt lat="33.347628" lon="9.1478877"><ele>86.0</ele><time>2026-04-29T10:30:07.542Z</time></trkpt><trkpt lat="33.3475316" lon="9.1479934"><ele>86.0</ele><time>2026-04-29T10:30:08.559Z</time></trkpt><trkpt lat="33.3474353" lon="9.1481029"><ele>86.0</ele><time>2026-04-29T10:30:09.544Z</time></trkpt><trkpt lat="33.3473376" lon="9.1482141"><ele>86.0</ele><time>2026-04-29T10:30:10.546Z</time></trkpt><trkpt lat="33.3472408" lon="9.1483198"><ele>86.0</ele><time>2026-04-29T10:30:11.552Z</time></trkpt><trkpt lat="33.3471375" lon="9.1484228"><ele>86.5</ele><time>2026-04-29T10:30:12.549Z</time></trkpt><trkpt lat="33.3470385" lon="9.14852"><ele>87.0</ele><time>2026-04-29T10:30:13.525Z</time></trkpt><trkpt lat="33.3469444" lon="9.1486057"><ele>87.5</ele><time>2026-04-29T10:30:14.512Z</time></trkpt><trkpt lat="33.3468604" lon="9.1486942"><ele>88.0</ele><time>2026-04-29T10:30:15.518Z</time></trkpt><trkpt lat="33.3467744" lon="9.1487834"><ele>88.0</ele><time>2026-04-29T10:30:16.512Z</time></trkpt><trkpt lat="33.3466918" lon="9.1488758"><ele>88.0</ele><time>2026-04-29T10:30:17.555Z</time></trkpt><trkpt lat="33.3466059" lon="9.1489704"><ele>88.0</ele><time>2026-04-29T10:30:18.535Z</time></trkpt><trkpt lat="33.34652" lon="9.1490648"><ele>88.0</ele><time>2026-04-29T10:30:19.514Z</time></trkpt><trkpt lat="33.3464372" lon="9.1491547"><ele>86.75</ele><time>2026-04-29T10:30:20.53Z</time></trkpt><trkpt lat="33.3463526" lon="9.1492465"><ele>85.5</ele><time>2026-04-29T10:30:21.524Z</time></trkpt><trkpt lat="33.346268" lon="9.1493434"><ele>84.25</ele><time>2026-04-29T10:30:22.528Z</time></trkpt><trkpt lat="33.3461752" lon="9.1494464"><ele>83.0</ele><time>2026-04-29T10:30:23.531Z</time></trkpt><trkpt lat="33.3460879" lon="9.1495503"><ele>83.0</ele><time>2026-04-29T10:30:24.564Z</time></trkpt><trkpt lat="33.3460008" lon="9.14965"><ele>83.0</ele><time>2026-04-29T10:30:25.517Z</time></trkpt><trkpt lat="33.3459138" lon="9.1497456"><ele>83.0</ele><time>2026-04-29T10:30:26.515Z</time></trkpt><trkpt lat="33.3458239" lon="9.1498395"><ele>83.0</ele><time>2026-04-29T10:30:27.506Z</time></trkpt><trkpt lat="33.3457318" lon="9.149939"><ele>83.75</ele><time>2026-04-29T10:30:28.512Z</time></trkpt><trkpt lat="33.3456449" lon="9.1500354"><ele>84.5</ele><time>2026-04-29T10:30:29.524Z</time></trkpt><trkpt lat="33.3455575" lon="9.1501354"><ele>85.25</ele><time>2026-04-29T10:30:30.555Z</time></trkpt><trkpt lat="33.345464" lon="9.1502427"><ele>86.0</ele><time>2026-04-29T10:30:31.52Z</time></trkpt><trkpt lat="33.3453726" lon="9.1503421"><ele>86.0</ele><time>2026-04-29T10:30:32.493Z</time></trkpt><trkpt lat="33.3452829" lon="9.1504452"><ele>86.0</ele><time>2026-04-29T10:30:33.493Z</time></trkpt><trkpt lat="33.3451877" lon="9.1505462"><ele>86.0</ele><time>2026-04-29T10:30:34.531Z</time></trkpt><trkpt lat="33.3450923" lon="9.1506482"><ele>86.0</ele><time>2026-04-29T10:30:35.52Z</time></trkpt><trkpt lat="33.344996" lon="9.1507485"><ele>86.0</ele><time>2026-04-29T10:30:36.538Z</time></trkpt><trkpt lat="33.3449017" lon="9.1508462"><ele>86.0</ele><time>2026-04-29T10:30:37.518Z</time></trkpt><trkpt lat="33.3448133" lon="9.1509444"><ele>86.0</ele><time>2026-04-29T10:30:38.512Z</time></trkpt><trkpt lat="33.3447242" lon="9.1510461"><ele>86.0</ele><time>2026-04-29T10:30:39.536Z</time></trkpt><trkpt lat="33.3446315" lon="9.1511476"><ele>85.25</ele><time>2026-04-29T10:30:40.538Z</time></trkpt><trkpt lat="33.3445437" lon="9.1512471"><ele>84.5</ele><time>2026-04-29T10:30:41.541Z</time></trkpt><trkpt lat="33.3444562" lon="9.1513499"><ele>83.75</ele><time>2026-04-29T10:30:42.52Z</time></trkpt><trkpt lat="33.3443653" lon="9.1514559"><ele>83.0</ele><time>2026-04-29T10:30:43.528Z</time></trkpt><trkpt lat="33.3442702" lon="9.1515598"><ele>83.0</ele><time>2026-04-29T10:30:44.534Z</time></trkpt><trkpt lat="33.3441768" lon="9.151661"><ele>83.0</ele><time>2026-04-29T10:30:45.537Z</time></trkpt><trkpt lat="33.3440808" lon="9.1517705"><ele>83.0</ele><time>2026-04-29T10:30:46.535Z</time></trkpt><trkpt lat="33.3439797" lon="9.1518765"><ele>83.0</ele><time>2026-04-29T10:30:47.535Z</time></trkpt><trkpt lat="33.3438789" lon="9.151982"><ele>83.5</ele><time>2026-04-29T10:30:48.524Z</time></trkpt><trkpt lat="33.3437758" lon="9.1520924"><ele>84.0</ele><time>2026-04-29T10:30:49.499Z</time></trkpt><trkpt lat="33.3436739" lon="9.1522049"><ele>84.5</ele><time>2026-04-29T10:30:50.528Z</time></trkpt><trkpt lat="33.3435759" lon="9.1523161"><ele>85.0</ele><time>2026-04-29T10:30:51.509Z</time></trkpt><trkpt lat="33.3434716" lon="9.1524292"><ele>85.0</ele><time>2026-04-29T10:30:52.521Z</time></trkpt><trkpt lat="33.3433702" lon="9.1525453"><ele>85.0</ele><time>2026-04-29T10:30:53.543Z</time></trkpt><trkpt lat="33.3432636" lon="9.1526547"><ele>85.0</ele><time>2026-04-29T10:30:54.544Z</time></trkpt><trkpt lat="33.3431593" lon="9.152765"><ele>85.0</ele><time>2026-04-29T10:30:55.54Z</time></trkpt><trkpt lat="33.3430515" lon="9.1528774"><ele>85.0</ele><time>2026-04-29T10:30:56.526Z</time></trkpt><trkpt lat="33.3429436" lon="9.1529947"><ele>85.0</ele><time>2026-04-29T10:30:57.537Z</time></trkpt><trkpt lat="33.3428368" lon="9.1531119"><ele>85.0</ele><time>2026-04-29T10:30:58.5Z</time></trkpt><trkpt lat="33.342734" lon="9.1532273"><ele>85.0</ele><time>2026-04-29T10:30:59.536Z</time></trkpt><trkpt lat="33.3426306" lon="9.15334"><ele>85.25</ele><time>2026-04-29T10:31:00.507Z</time></trkpt><trkpt lat="33.3425272" lon="9.1534508"><ele>85.5</ele><time>2026-04-29T10:31:01.531Z</time></trkpt><trkpt lat="33.342422" lon="9.1535623"><ele>85.75</ele><time>2026-04-29T10:31:02.524Z</time></trkpt><trkpt lat="33.3423109" lon="9.1536803"><ele>86.0</ele><time>2026-04-29T10:31:03.527Z</time></trkpt><trkpt lat="33.3421965" lon="9.1538042"><ele>86.0</ele><time>2026-04-29T10:31:04.532Z</time></trkpt><trkpt lat="33.3420807" lon="9.1539236"><ele>86.0</ele><time>2026-04-29T10:31:05.541Z</time></trkpt><trkpt lat="33.3419715" lon="9.154046"><ele>86.0</ele><time>2026-04-29T10:31:06.54Z</time></trkpt><trkpt lat="33.3418561" lon="9.1541681"><ele>85.75</ele><time>2026-04-29T10:31:07.538Z</time></trkpt><trkpt lat="33.3417507" lon="9.1542854"><ele>85.5</ele><time>2026-04-29T10:31:08.531Z</time></trkpt><trkpt lat="33.3416501" lon="9.1543957"><ele>85.25</ele><time>2026-04-29T10:31:09.559Z</time></trkpt><trkpt lat="33.3415488" lon="9.1545087"><ele>85.0</ele><time>2026-04-29T10:31:10.533Z</time></trkpt><trkpt lat="33.3414484" lon="9.1546202"><ele>84.75</ele><time>2026-04-29T10:31:11.523Z</time></trkpt><trkpt lat="33.3413486" lon="9.1547329"><ele>84.5</ele><time>2026-04-29T10:31:12.536Z</time></trkpt><trkpt lat="33.3412448" lon="9.1548452"><ele>84.25</ele><time>2026-04-29T10:31:13.529Z</time></trkpt><trkpt lat="33.3411403" lon="9.1549592"><ele>84.0</ele><time>2026-04-29T10:31:14.519Z</time></trkpt><trkpt lat="33.3410329" lon="9.1550731"><ele>84.0</ele><time>2026-04-29T10:31:15.526Z</time></trkpt><trkpt lat="33.3409245" lon="9.1551849"><ele>84.0</ele><time>2026-04-29T10:31:16.53Z</time></trkpt><trkpt lat="33.3408184" lon="9.1552993"><ele>84.0</ele><time>2026-04-29T10:31:17.535Z</time></trkpt><trkpt lat="33.3407149" lon="9.1554142"><ele>84.0</ele><time>2026-04-29T10:31:18.538Z</time></trkpt><trkpt lat="33.3406142" lon="9.1555338"><ele>84.25</ele><time>2026-04-29T10:31:19.536Z</time></trkpt><trkpt lat="33.3405148" lon="9.1556579"><ele>84.5</ele><time>2026-04-29T10:31:20.529Z</time></trkpt><trkpt lat="33.3404149" lon="9.1557833"><ele>84.75</ele><time>2026-04-29T10:31:21.521Z</time></trkpt><trkpt lat="33.3403111" lon="9.1559035"><ele>85.0</ele><time>2026-04-29T10:31:22.528Z</time></trkpt><trkpt lat="33.3402005" lon="9.15602"><ele>85.0</ele><time>2026-04-29T10:31:23.537Z</time></trkpt><trkpt lat="33.3400899" lon="9.1561334"><ele>85.0</ele><time>2026-04-29T10:31:24.526Z</time></trkpt><trkpt lat="33.3399828" lon="9.1562498"><ele>85.0</ele><time>2026-04-29T10:31:25.542Z</time></trkpt><trkpt lat="33.3398758" lon="9.1563611"><ele>85.0</ele><time>2026-04-29T10:31:26.499Z</time></trkpt><trkpt lat="33.3397664" lon="9.1564798"><ele>85.75</ele><time>2026-04-29T10:31:27.508Z</time></trkpt><trkpt lat="33.3396556" lon="9.1565992"><ele>86.5</ele><time>2026-04-29T10:31:28.533Z</time></trkpt><trkpt lat="33.33955" lon="9.1567198"><ele>87.25</ele><time>2026-04-29T10:31:29.519Z</time></trkpt><trkpt lat="33.3394451" lon="9.1568413"><ele>88.0</ele><time>2026-04-29T10:31:30.526Z</time></trkpt><trkpt lat="33.3393354" lon="9.1569632"><ele>88.0</ele><time>2026-04-29T10:31:31.538Z</time></trkpt><trkpt lat="33.3392246" lon="9.1570856"><ele>88.0</ele><time>2026-04-29T10:31:32.506Z</time></trkpt><trkpt lat="33.3391112" lon="9.1572053"><ele>88.0</ele><time>2026-04-29T10:31:33.519Z</time></trkpt><trkpt lat="33.3389961" lon="9.1573277"><ele>87.0</ele><time>2026-04-29T10:31:34.528Z</time></trkpt><trkpt lat="33.3388814" lon="9.157451"><ele>86.0</ele><time>2026-04-29T10:31:35.533Z</time></trkpt><trkpt lat="33.3387684" lon="9.1575731"><ele>85.0</ele><time>2026-04-29T10:31:36.535Z</time></trkpt><trkpt lat="33.3386534" lon="9.1576978"><ele>85.0</ele><time>2026-04-29T10:31:37.525Z</time></trkpt><trkpt lat="33.3385377" lon="9.1578222"><ele>85.0</ele><time>2026-04-29T10:31:38.542Z</time></trkpt><trkpt lat="33.3384225" lon="9.1579494"><ele>85.0</ele><time>2026-04-29T10:31:39.537Z</time></trkpt><trkpt lat="33.3383058" lon="9.1580767"><ele>85.33333333333333</ele><time>2026-04-29T10:31:40.558Z</time></trkpt><trkpt lat="33.3381907" lon="9.1582018"><ele>85.66666666666667</ele><time>2026-04-29T10:31:41.53Z</time></trkpt><trkpt lat="33.3380709" lon="9.1583319"><ele>86.0</ele><time>2026-04-29T10:31:42.529Z</time></trkpt><trkpt lat="33.337954" lon="9.1584593"><ele>86.0</ele><time>2026-04-29T10:31:43.527Z</time></trkpt><trkpt lat="33.337838" lon="9.1585864"><ele>86.0</ele><time>2026-04-29T10:31:44.54Z</time></trkpt><trkpt lat="33.3377227" lon="9.158707"><ele>86.0</ele><time>2026-04-29T10:31:45.523Z</time></trkpt><trkpt lat="33.3376021" lon="9.1588308"><ele>86.0</ele><time>2026-04-29T10:31:46.511Z</time></trkpt><trkpt lat="33.3374888" lon="9.1589523"><ele>86.0</ele><time>2026-04-29T10:31:47.536Z</time></trkpt><trkpt lat="33.3373765" lon="9.1590779"><ele>86.0</ele><time>2026-04-29T10:31:48.541Z</time></trkpt><trkpt lat="33.3372648" lon="9.1592062"><ele>85.33333333333334</ele><time>2026-04-29T10:31:49.522Z</time></trkpt><trkpt lat="33.337158" lon="9.1593329"><ele>84.66666666666667</ele><time>2026-04-29T10:31:50.536Z</time></trkpt><trkpt lat="33.3370526" lon="9.1594551"><ele>84.0</ele><time>2026-04-29T10:31:51.537Z</time></trkpt><trkpt lat="33.336942" lon="9.1595822"><ele>84.0</ele><time>2026-04-29T10:31:52.525Z</time></trkpt><trkpt lat="33.3368368" lon="9.1597073"><ele>84.0</ele><time>2026-04-29T10:31:53.529Z</time></trkpt><trkpt lat="33.336726" lon="9.1598338"><ele>84.0</ele><time>2026-04-29T10:31:54.522Z</time></trkpt><trkpt lat="33.3366101" lon="9.1599641"><ele>84.0</ele><time>2026-04-29T10:31:55.557Z</time></trkpt><trkpt lat="33.3365007" lon="9.1600927"><ele>84.0</ele><time>2026-04-29T10:31:56.531Z</time></trkpt><trkpt lat="33.3363929" lon="9.1602213"><ele>84.0</ele><time>2026-04-29T10:31:57.551Z</time></trkpt><trkpt lat="33.3362879" lon="9.1603518"><ele>84.0</ele><time>2026-04-29T10:31:58.537Z</time></trkpt><trkpt lat="33.3361771" lon="9.160486"><ele>84.0</ele><time>2026-04-29T10:31:59.541Z</time></trkpt><trkpt lat="33.3360721" lon="9.1606207"><ele>84.0</ele><time>2026-04-29T10:32:00.515Z</time></trkpt><trkpt lat="33.3359677" lon="9.1607563"><ele>83.33333333333333</ele><time>2026-04-29T10:32:01.544Z</time></trkpt><trkpt lat="33.3358589" lon="9.1608961"><ele>82.66666666666666</ele><time>2026-04-29T10:32:02.546Z</time></trkpt><trkpt lat="33.3357568" lon="9.1610351"><ele>82.0</ele><time>2026-04-29T10:32:03.518Z</time></trkpt><trkpt lat="33.3356591" lon="9.1611743"><ele>82.0</ele><time>2026-04-29T10:32:04.533Z</time></trkpt><trkpt lat="33.3355628" lon="9.1613184"><ele>82.0</ele><time>2026-04-29T10:32:05.543Z</time></trkpt><trkpt lat="33.3354755" lon="9.1614571"><ele>82.0</ele><time>2026-04-29T10:32:06.528Z</time></trkpt><trkpt lat="33.3353927" lon="9.1615862"><ele>82.0</ele><time>2026-04-29T10:32:07.549Z</time></trkpt><trkpt lat="33.335316" lon="9.1617026"><ele>83.25</ele><time>2026-04-29T10:32:08.545Z</time></trkpt><trkpt lat="33.3352412" lon="9.1618165"><ele>84.5</ele><time>2026-04-29T10:32:09.539Z</time></trkpt><trkpt lat="33.3351667" lon="9.1619331"><ele>85.75</ele><time>2026-04-29T10:32:10.552Z</time></trkpt><trkpt lat="33.3350989" lon="9.1620509"><ele>87.0</ele><time>2026-04-29T10:32:11.54Z</time></trkpt><trkpt lat="33.335032" lon="9.1621684"><ele>87.0</ele><time>2026-04-29T10:32:12.53Z</time></trkpt><trkpt lat="33.334961" lon="9.1622755"><ele>87.0</ele><time>2026-04-29T10:32:13.547Z</time></trkpt><trkpt lat="33.3348786" lon="9.162384"><ele>87.0</ele><time>2026-04-29T10:32:14.547Z</time></trkpt><trkpt lat="33.3348019" lon="9.1624894"><ele>87.0</ele><time>2026-04-29T10:32:15.536Z</time></trkpt><trkpt lat="33.3347298" lon="9.1626028"><ele>86.0</ele><time>2026-04-29T10:32:16.511Z</time></trkpt><trkpt lat="33.3346624" lon="9.1627178"><ele>85.0</ele><time>2026-04-29T10:32:17.553Z</time></trkpt><trkpt lat="33.3345971" lon="9.1628295"><ele>84.0</ele><time>2026-04-29T10:32:18.544Z</time></trkpt><trkpt lat="33.3345336" lon="9.1629405"><ele>83.0</ele><time>2026-04-29T10:32:19.547Z</time></trkpt><trkpt lat="33.33447" lon="9.1630588"><ele>83.0</ele><time>2026-04-29T10:32:20.554Z</time></trkpt><trkpt lat="33.3344103" lon="9.1631773"><ele>83.0</ele><time>2026-04-29T10:32:21.556Z</time></trkpt><trkpt lat="33.3343559" lon="9.1632983"><ele>83.0</ele><time>2026-04-29T10:32:22.536Z</time></trkpt><trkpt lat="33.3343046" lon="9.1634182"><ele>83.0</ele><time>2026-04-29T10:32:23.55Z</time></trkpt><trkpt lat="33.3342475" lon="9.163538"><ele>83.2</ele><time>2026-04-29T10:32:24.566Z</time></trkpt><trkpt lat="33.3341911" lon="9.1636512"><ele>83.4</ele><time>2026-04-29T10:32:25.564Z</time></trkpt><trkpt lat="33.33413" lon="9.1637632"><ele>83.60000000000001</ele><time>2026-04-29T10:32:26.541Z</time></trkpt><trkpt lat="33.3340744" lon="9.1638746"><ele>83.80000000000001</ele><time>2026-04-29T10:32:27.559Z</time></trkpt><trkpt lat="33.334018" lon="9.1639922"><ele>84.0</ele><time>2026-04-29T10:32:28.55Z</time></trkpt><trkpt lat="33.3339617" lon="9.1641092"><ele>84.0</ele><time>2026-04-29T10:32:29.568Z</time></trkpt><trkpt lat="33.3339074" lon="9.1642284"><ele>84.0</ele><time>2026-04-29T10:32:30.537Z</time></trkpt><trkpt lat="33.3338534" lon="9.1643467"><ele>84.0</ele><time>2026-04-29T10:32:31.568Z</time></trkpt><trkpt lat="33.3337992" lon="9.1644647"><ele>84.0</ele><time>2026-04-29T10:32:32.561Z</time></trkpt><trkpt lat="33.333744" lon="9.1645817"><ele>84.25</ele><time>2026-04-29T10:32:33.567Z</time></trkpt><trkpt lat="33.3336896" lon="9.164698"><ele>84.5</ele><time>2026-04-29T10:32:34.552Z</time></trkpt><trkpt lat="33.3336301" lon="9.1648141"><ele>84.75</ele><time>2026-04-29T10:32:35.503Z</time></trkpt><trkpt lat="33.3335784" lon="9.1649333"><ele>85.0</ele><time>2026-04-29T10:32:36.564Z</time></trkpt><trkpt lat="33.3335246" lon="9.1650578"><ele>86.0</ele><time>2026-04-29T10:32:37.518Z</time></trkpt><trkpt lat="33.3334732" lon="9.1651767"><ele>87.0</ele><time>2026-04-29T10:32:38.555Z</time></trkpt><trkpt lat="33.3334201" lon="9.1653017"><ele>88.0</ele><time>2026-04-29T10:32:39.548Z</time></trkpt><trkpt lat="33.3333688" lon="9.1654243"><ele>89.0</ele><time>2026-04-29T10:32:40.563Z</time></trkpt><trkpt lat="33.3333208" lon="9.1655551"><ele>89.0</ele><time>2026-04-29T10:32:41.548Z</time></trkpt><trkpt lat="33.3332715" lon="9.1656886"><ele>89.0</ele><time>2026-04-29T10:32:42.543Z</time></trkpt><trkpt lat="33.3332265" lon="9.165828"><ele>89.0</ele><time>2026-04-29T10:32:43.547Z</time></trkpt><trkpt lat="33.3331789" lon="9.1659667"><ele>89.0</ele><time>2026-04-29T10:32:44.545Z</time></trkpt><trkpt lat="33.3331294" lon="9.1661048"><ele>88.75</ele><time>2026-04-29T10:32:45.548Z</time></trkpt><trkpt lat="33.3330836" lon="9.1662451"><ele>88.5</ele><time>2026-04-29T10:32:46.535Z</time></trkpt><trkpt lat="33.333036" lon="9.1663782"><ele>88.25</ele><time>2026-04-29T10:32:47.537Z</time></trkpt><trkpt lat="33.3329976" lon="9.1665035"><ele>88.0</ele><time>2026-04-29T10:32:48.546Z</time></trkpt><trkpt lat="33.3329565" lon="9.1666121"><ele>87.33333333333333</ele><time>2026-04-29T10:32:49.516Z</time></trkpt><trkpt lat="33.3329251" lon="9.1667051"><ele>86.66666666666666</ele><time>2026-04-29T10:32:50.548Z</time></trkpt><trkpt lat="33.3328971" lon="9.1667915"><ele>86.0</ele><time>2026-04-29T10:32:51.544Z</time></trkpt><trkpt lat="33.3328699" lon="9.1668619"><ele>85.33333333333333</ele><time>2026-04-29T10:32:52.553Z</time></trkpt><trkpt lat="33.332834" lon="9.1669613"><ele>84.66666666666667</ele><time>2026-04-29T10:32:54.552Z</time></trkpt><trkpt lat="33.3328058" lon="9.1670391"><ele>84.0</ele><time>2026-04-29T10:33:04.555Z</time></trkpt><trkpt lat="33.3327754" lon="9.1671435"><ele>84.0</ele><time>2026-04-29T10:33:06.608Z</time></trkpt><trkpt lat="33.3327455" lon="9.1672448"><ele>84.0</ele><time>2026-04-29T10:33:08.553Z</time></trkpt><trkpt lat="33.3327191" lon="9.1673261"><ele>84.0</ele><time>2026-04-29T10:33:10.544Z</time></trkpt><trkpt lat="33.3326903" lon="9.1673955"><ele>84.0</ele><time>2026-04-29T10:33:27.577Z</time></trkpt><trkpt lat="33.3326601" lon="9.1675018"><ele>84.0</ele><time>2026-04-29T10:33:29.616Z</time></trkpt><trkpt lat="33.3326355" lon="9.1675712"><ele>84.0</ele><time>2026-04-29T10:33:30.618Z</time></trkpt><trkpt lat="33.3326063" lon="9.1676513"><ele>83.66666666666667</ele><time>2026-04-29T10:33:31.592Z</time></trkpt><trkpt lat="33.3325727" lon="9.167736"><ele>83.33333333333333</ele><time>2026-04-29T10:33:32.637Z</time></trkpt><trkpt lat="33.3325464" lon="9.167823"><ele>83.0</ele><time>2026-04-29T10:33:33.633Z</time></trkpt><trkpt lat="33.3325148" lon="9.1679225"><ele>82.66666666666666</ele><time>2026-04-29T10:33:34.643Z</time></trkpt><trkpt lat="33.3324865" lon="9.1680156"><ele>82.33333333333333</ele><time>2026-04-29T10:33:35.643Z</time></trkpt><trkpt lat="33.3324561" lon="9.1681076"><ele>82.0</ele><time>2026-04-29T10:33:36.63Z</time></trkpt><trkpt lat="33.3324266" lon="9.168202"><ele>82.66666666666666</ele><time>2026-04-29T10:33:37.622Z</time></trkpt><trkpt lat="33.3323951" lon="9.1682895"><ele>83.33333333333333</ele><time>2026-04-29T10:33:38.609Z</time></trkpt><trkpt lat="33.3323677" lon="9.1683747"><ele>84.0</ele><time>2026-04-29T10:33:39.578Z</time></trkpt><trkpt lat="33.332344" lon="9.1684586"><ele>84.66666666666667</ele><time>2026-04-29T10:33:40.638Z</time></trkpt><trkpt lat="33.3323168" lon="9.1685408"><ele>85.33333333333334</ele><time>2026-04-29T10:33:41.616Z</time></trkpt><trkpt lat="33.3322865" lon="9.1686217"><ele>86.0</ele><time>2026-04-29T10:33:42.62Z</time></trkpt><trkpt lat="33.3322594" lon="9.1687044"><ele>86.0</ele><time>2026-04-29T10:33:43.628Z</time></trkpt><trkpt lat="33.3322308" lon="9.1687883"><ele>86.0</ele><time>2026-04-29T10:33:44.62Z</time></trkpt><trkpt lat="33.3322033" lon="9.1688774"><ele>86.0</ele><time>2026-04-29T10:33:45.609Z</time></trkpt><trkpt lat="33.3321785" lon="9.1689568"><ele>86.0</ele><time>2026-04-29T10:33:46.617Z</time></trkpt><trkpt lat="33.3321473" lon="9.1690467"><ele>86.0</ele><time>2026-04-29T10:33:47.617Z</time></trkpt><trkpt lat="33.3321168" lon="9.1691288"><ele>86.0</ele><time>2026-04-29T10:33:48.612Z</time></trkpt><trkpt lat="33.3320791" lon="9.1692187"><ele>86.33333333333334</ele><time>2026-04-29T10:33:49.598Z</time></trkpt><trkpt lat="33.3320414" lon="9.1693118"><ele>86.66666666666667</ele><time>2026-04-29T10:33:50.612Z</time></trkpt><trkpt lat="33.3320075" lon="9.1694005"><ele>87.0</ele><time>2026-04-29T10:33:51.599Z</time></trkpt><trkpt lat="33.3319715" lon="9.1694924"><ele>87.33333333333333</ele><time>2026-04-29T10:33:52.622Z</time></trkpt><trkpt lat="33.3319324" lon="9.1695783"><ele>87.66666666666666</ele><time>2026-04-29T10:33:53.616Z</time></trkpt><trkpt lat="33.3318994" lon="9.1696669"><ele>88.0</ele><time>2026-04-29T10:33:54.58Z</time></trkpt><trkpt lat="33.3318669" lon="9.1697521"><ele>88.0</ele><time>2026-04-29T10:33:55.617Z</time></trkpt><trkpt lat="33.3318382" lon="9.1698405"><ele>88.0</ele><time>2026-04-29T10:33:56.574Z</time></trkpt><trkpt lat="33.3318149" lon="9.1699234"><ele>88.0</ele><time>2026-04-29T10:33:57.585Z</time></trkpt><trkpt lat="33.3317919" lon="9.1700101"><ele>88.0</ele><time>2026-04-29T10:33:58.617Z</time></trkpt><trkpt lat="33.3317662" lon="9.1700972"><ele>88.0</ele><time>2026-04-29T10:33:59.599Z</time></trkpt><trkpt lat="33.3317393" lon="9.170184"><ele>88.0</ele><time>2026-04-29T10:34:00.575Z</time></trkpt><trkpt lat="33.3317089" lon="9.1702768"><ele>88.16666666666666</ele><time>2026-04-29T10:34:01.594Z</time></trkpt><trkpt lat="33.3316816" lon="9.1703637"><ele>88.33333333333333</ele><time>2026-04-29T10:34:02.598Z</time></trkpt><trkpt lat="33.3316505" lon="9.170451"><ele>88.5</ele><time>2026-04-29T10:34:03.608Z</time></trkpt><trkpt lat="33.3316206" lon="9.1705409"><ele>88.66666666666667</ele><time>2026-04-29T10:34:04.626Z</time></trkpt><trkpt lat="33.3315929" lon="9.1706344"><ele>88.83333333333334</ele><time>2026-04-29T10:34:05.609Z</time></trkpt><trkpt lat="33.3315603" lon="9.1707266"><ele>89.0</ele><time>2026-04-29T10:34:06.582Z</time></trkpt><trkpt lat="33.3315299" lon="9.170822"><ele>89.0</ele><time>2026-04-29T10:34:07.621Z</time></trkpt><trkpt lat="33.3315017" lon="9.1709106"><ele>89.0</ele><time>2026-04-29T10:34:08.629Z</time></trkpt><trkpt lat="33.3314673" lon="9.1710026"><ele>89.0</ele><time>2026-04-29T10:34:09.604Z</time></trkpt><trkpt lat="33.3314388" lon="9.171092"><ele>89.0</ele><time>2026-04-29T10:34:10.608Z</time></trkpt><trkpt lat="33.3314139" lon="9.1711772"><ele>89.0</ele><time>2026-04-29T10:34:11.592Z</time></trkpt><trkpt lat="33.3313882" lon="9.1712633"><ele>89.0</ele><time>2026-04-29T10:34:12.598Z</time></trkpt><trkpt lat="33.3313609" lon="9.1713498"><ele>89.0</ele><time>2026-04-29T10:34:13.609Z</time></trkpt><trkpt lat="33.3313349" lon="9.1714308"><ele>89.0</ele><time>2026-04-29T10:34:14.642Z</time></trkpt><trkpt lat="33.3313086" lon="9.1715001"><ele>89.0</ele><time>2026-04-29T10:34:15.623Z</time></trkpt><trkpt lat="33.3312714" lon="9.1716433"><ele>89.0</ele><time>2026-04-29T10:34:17.615Z</time></trkpt><trkpt lat="33.3312516" lon="9.1717259"><ele>89.0</ele><time>2026-04-29T10:34:18.556Z</time></trkpt><trkpt lat="33.3312262" lon="9.1718135"><ele>89.0</ele><time>2026-04-29T10:34:19.607Z</time></trkpt><trkpt lat="33.3311926" lon="9.1719011"><ele>89.0</ele><time>2026-04-29T10:34:20.617Z</time></trkpt><trkpt lat="33.3311602" lon="9.1719855"><ele>89.0</ele><time>2026-04-29T10:34:21.62Z</time></trkpt><trkpt lat="33.3311242" lon="9.1720742"><ele>89.0</ele><time>2026-04-29T10:34:22.617Z</time></trkpt><trkpt lat="33.3310938" lon="9.1721659"><ele>89.0</ele><time>2026-04-29T10:34:23.61Z</time></trkpt><trkpt lat="33.3310599" lon="9.1722553"><ele>89.0</ele><time>2026-04-29T10:34:24.611Z</time></trkpt><trkpt lat="33.3310305" lon="9.1723398"><ele>89.0</ele><time>2026-04-29T10:34:25.588Z</time></trkpt><trkpt lat="33.3310024" lon="9.1724223"><ele>89.0</ele><time>2026-04-29T10:34:26.58Z</time></trkpt><trkpt lat="33.3309757" lon="9.1725056"><ele>89.0</ele><time>2026-04-29T10:34:27.63Z</time></trkpt><trkpt lat="33.3309448" lon="9.1725878"><ele>89.0</ele><time>2026-04-29T10:34:28.61Z</time></trkpt><trkpt lat="33.3309136" lon="9.1726728"><ele>89.0</ele><time>2026-04-29T10:34:29.617Z</time></trkpt><trkpt lat="33.3308818" lon="9.1727587"><ele>89.0</ele><time>2026-04-29T10:34:30.613Z</time></trkpt><trkpt lat="33.3308509" lon="9.1728404"><ele>89.0</ele><time>2026-04-29T10:34:31.615Z</time></trkpt><trkpt lat="33.3308165" lon="9.1729206"><ele>89.0</ele><time>2026-04-29T10:34:32.6Z</time></trkpt><trkpt lat="33.3307807" lon="9.1730082"><ele>89.0</ele><time>2026-04-29T10:34:33.615Z</time></trkpt><trkpt lat="33.3307485" lon="9.1730894"><ele>89.0</ele><time>2026-04-29T10:34:34.624Z</time></trkpt><trkpt lat="33.3307143" lon="9.1731715"><ele>89.0</ele><time>2026-04-29T10:34:35.617Z</time></trkpt><trkpt lat="33.3306763" lon="9.1732578"><ele>89.0</ele><time>2026-04-29T10:34:36.629Z</time></trkpt><trkpt lat="33.33064" lon="9.1733404"><ele>89.0</ele><time>2026-04-29T10:34:37.583Z</time></trkpt><trkpt lat="33.3306072" lon="9.1734198"><ele>89.0</ele><time>2026-04-29T10:34:38.613Z</time></trkpt><trkpt lat="33.330568" lon="9.1734975"><ele>89.0</ele><time>2026-04-29T10:34:39.62Z</time></trkpt><trkpt lat="33.33053" lon="9.1735815"><ele>89.0</ele><time>2026-04-29T10:34:40.629Z</time></trkpt><trkpt lat="33.3304941" lon="9.1736702"><ele>89.0</ele><time>2026-04-29T10:34:41.618Z</time></trkpt><trkpt lat="33.3304603" lon="9.1737549"><ele>89.0</ele><time>2026-04-29T10:34:42.581Z</time></trkpt><trkpt lat="33.3304282" lon="9.1738377"><ele>89.0</ele><time>2026-04-29T10:34:43.554Z</time></trkpt><trkpt lat="33.3303933" lon="9.1739196"><ele>89.0</ele><time>2026-04-29T10:34:44.619Z</time></trkpt><trkpt lat="33.3303573" lon="9.1740087"><ele>89.0</ele><time>2026-04-29T10:34:45.619Z</time></trkpt><trkpt lat="33.3303205" lon="9.1740907"><ele>89.0</ele><time>2026-04-29T10:34:46.616Z</time></trkpt><trkpt lat="33.330284" lon="9.1741688"><ele>89.0</ele><time>2026-04-29T10:34:47.587Z</time></trkpt><trkpt lat="33.3302458" lon="9.1742483"><ele>89.0</ele><time>2026-04-29T10:34:48.607Z</time></trkpt><trkpt lat="33.3302065" lon="9.1743265"><ele>89.0</ele><time>2026-04-29T10:34:49.6Z</time></trkpt><trkpt lat="33.3301654" lon="9.1744041"><ele>89.14285714285714</ele><time>2026-04-29T10:34:50.616Z</time></trkpt><trkpt lat="33.3301267" lon="9.1744839"><ele>89.28571428571428</ele><time>2026-04-29T10:34:51.613Z</time></trkpt><trkpt lat="33.3300866" lon="9.1745605"><ele>89.42857142857142</ele><time>2026-04-29T10:34:52.61Z</time></trkpt><trkpt lat="33.3300508" lon="9.1746399"><ele>89.57142857142857</ele><time>2026-04-29T10:34:53.619Z</time></trkpt><trkpt lat="33.3300169" lon="9.1747159"><ele>89.71428571428572</ele><time>2026-04-29T10:34:54.642Z</time></trkpt><trkpt lat="33.3299815" lon="9.1747914"><ele>89.85714285714285</ele><time>2026-04-29T10:34:55.633Z</time></trkpt><trkpt lat="33.329945" lon="9.1748617"><ele>90.0</ele><time>2026-04-29T10:34:56.627Z</time></trkpt><trkpt lat="33.3299035" lon="9.1749434"><ele>90.0</ele><time>2026-04-29T10:34:57.6Z</time></trkpt><trkpt lat="33.3298619" lon="9.1750222"><ele>90.0</ele><time>2026-04-29T10:34:58.626Z</time></trkpt><trkpt lat="33.3298201" lon="9.1751"><ele>90.0</ele><time>2026-04-29T10:34:59.623Z</time></trkpt><trkpt lat="33.3297742" lon="9.1751786"><ele>90.0</ele><time>2026-04-29T10:35:00.579Z</time></trkpt><trkpt lat="33.3297351" lon="9.1752593"><ele>90.0</ele><time>2026-04-29T10:35:01.629Z</time></trkpt><trkpt lat="33.3296989" lon="9.1753412"><ele>90.0</ele><time>2026-04-29T10:35:02.619Z</time></trkpt><trkpt lat="33.3296643" lon="9.1754242"><ele>89.66666666666667</ele><time>2026-04-29T10:35:03.618Z</time></trkpt><trkpt lat="33.3296297" lon="9.175509"><ele>89.33333333333333</ele><time>2026-04-29T10:35:04.633Z</time></trkpt><trkpt lat="33.3295884" lon="9.1755898"><ele>89.0</ele><time>2026-04-29T10:35:05.612Z</time></trkpt><trkpt lat="33.3295438" lon="9.1756648"><ele>88.66666666666666</ele><time>2026-04-29T10:35:06.615Z</time></trkpt><trkpt lat="33.3295033" lon="9.1757374"><ele>88.33333333333333</ele><time>2026-04-29T10:35:07.598Z</time></trkpt><trkpt lat="33.3294569" lon="9.1758144"><ele>88.0</ele><time>2026-04-29T10:35:08.614Z</time></trkpt><trkpt lat="33.3294134" lon="9.1758941"><ele>87.33333333333333</ele><time>2026-04-29T10:35:09.617Z</time></trkpt><trkpt lat="33.3293702" lon="9.1759731"><ele>86.66666666666666</ele><time>2026-04-29T10:35:10.615Z</time></trkpt><trkpt lat="33.3293285" lon="9.1760497"><ele>86.0</ele><time>2026-04-29T10:35:11.619Z</time></trkpt><trkpt lat="33.3292896" lon="9.1761297"><ele>85.33333333333333</ele><time>2026-04-29T10:35:12.618Z</time></trkpt><trkpt lat="33.329248" lon="9.1762109"><ele>84.66666666666667</ele><time>2026-04-29T10:35:13.624Z</time></trkpt><trkpt lat="33.329206" lon="9.1762902"><ele>84.0</ele><time>2026-04-29T10:35:14.619Z</time></trkpt><trkpt lat="33.3291641" lon="9.1763681"><ele>84.0</ele><time>2026-04-29T10:35:15.625Z</time></trkpt><trkpt lat="33.3291165" lon="9.1764438"><ele>84.0</ele><time>2026-04-29T10:35:16.619Z</time></trkpt><trkpt lat="33.329069" lon="9.1765218"><ele>84.0</ele><time>2026-04-29T10:35:17.62Z</time></trkpt><trkpt lat="33.3290248" lon="9.1765942"><ele>84.0</ele><time>2026-04-29T10:35:18.609Z</time></trkpt><trkpt lat="33.3289764" lon="9.1766745"><ele>84.0</ele><time>2026-04-29T10:35:19.614Z</time></trkpt><trkpt lat="33.3289314" lon="9.1767514"><ele>84.0</ele><time>2026-04-29T10:35:20.613Z</time></trkpt><trkpt lat="33.3288837" lon="9.1768354"><ele>84.4</ele><time>2026-04-29T10:35:21.621Z</time></trkpt><trkpt lat="33.3288373" lon="9.1769189"><ele>84.80000000000001</ele><time>2026-04-29T10:35:22.614Z</time></trkpt><trkpt lat="33.3287918" lon="9.1769971"><ele>85.19999999999999</ele><time>2026-04-29T10:35:23.621Z</time></trkpt><trkpt lat="33.3287132" lon="9.1770737"><ele>85.6</ele><time>2026-04-29T10:35:24.573Z</time></trkpt><trkpt lat="33.3286502" lon="9.1771654"><ele>86.0</ele><time>2026-04-29T10:35:25.619Z</time></trkpt><trkpt lat="33.3285828" lon="9.1772584"><ele>87.0</ele><time>2026-04-29T10:35:26.626Z</time></trkpt><trkpt lat="33.3285148" lon="9.1773549"><ele>88.0</ele><time>2026-04-29T10:35:27.597Z</time></trkpt><trkpt lat="33.3284435" lon="9.1774541"><ele>89.0</ele><time>2026-04-29T10:35:28.576Z</time></trkpt><trkpt lat="33.3283716" lon="9.1775541"><ele>90.0</ele><time>2026-04-29T10:35:29.602Z</time></trkpt><trkpt lat="33.3282987" lon="9.177654"><ele>91.0</ele><time>2026-04-29T10:35:30.569Z</time></trkpt><trkpt lat="33.3282273" lon="9.1777527"><ele>91.0</ele><time>2026-04-29T10:35:31.615Z</time></trkpt><trkpt lat="33.3281568" lon="9.1778524"><ele>91.0</ele><time>2026-04-29T10:35:32.63Z</time></trkpt><trkpt lat="33.3280853" lon="9.177952"><ele>91.0</ele><time>2026-04-29T10:35:33.61Z</time></trkpt><trkpt lat="33.3280127" lon="9.1780505"><ele>91.0</ele><time>2026-04-29T10:35:34.608Z</time></trkpt><trkpt lat="33.3279401" lon="9.1781487"><ele>91.0</ele><time>2026-04-29T10:35:35.603Z</time></trkpt><trkpt lat="33.3278676" lon="9.1782507"><ele>91.0</ele><time>2026-04-29T10:35:36.627Z</time></trkpt><trkpt lat="33.3277948" lon="9.1783504"><ele>91.0</ele><time>2026-04-29T10:35:37.62Z</time></trkpt><trkpt lat="33.3277197" lon="9.1784511"><ele>91.0</ele><time>2026-04-29T10:35:38.616Z</time></trkpt><trkpt lat="33.3276428" lon="9.1785508"><ele>91.0</ele><time>2026-04-29T10:35:39.622Z</time></trkpt><trkpt lat="33.3275667" lon="9.1786444"><ele>91.0</ele><time>2026-04-29T10:35:40.619Z</time></trkpt><trkpt lat="33.3274942" lon="9.178737"><ele>91.0</ele><time>2026-04-29T10:35:41.627Z</time></trkpt><trkpt lat="33.3274202" lon="9.1788315"><ele>91.0</ele><time>2026-04-29T10:35:42.621Z</time></trkpt><trkpt lat="33.3273479" lon="9.1789215"><ele>91.0</ele><time>2026-04-29T10:35:43.616Z</time></trkpt><trkpt lat="33.3272755" lon="9.1790124"><ele>91.0</ele><time>2026-04-29T10:35:44.616Z</time></trkpt><trkpt lat="33.3272023" lon="9.1790989"><ele>91.0</ele><time>2026-04-29T10:35:45.608Z</time></trkpt><trkpt lat="33.3271329" lon="9.17918"><ele>91.16666666666666</ele><time>2026-04-29T10:35:46.593Z</time></trkpt><trkpt lat="33.3270778" lon="9.1792461"><ele>91.33333333333333</ele><time>2026-04-29T10:35:47.621Z</time></trkpt><trkpt lat="33.3270192" lon="9.1793158"><ele>91.5</ele><time>2026-04-29T10:35:48.607Z</time></trkpt><trkpt lat="33.3269556" lon="9.1793864"><ele>91.66666666666667</ele><time>2026-04-29T10:35:49.623Z</time></trkpt><trkpt lat="33.3268761" lon="9.1794721"><ele>91.83333333333334</ele><time>2026-04-29T10:35:50.602Z</time></trkpt><trkpt lat="33.3268069" lon="9.1795485"><ele>92.0</ele><time>2026-04-29T10:35:51.595Z</time></trkpt><trkpt lat="33.3267346" lon="9.1796268"><ele>92.0</ele><time>2026-04-29T10:35:52.594Z</time></trkpt><trkpt lat="33.326659" lon="9.1797081"><ele>92.0</ele><time>2026-04-29T10:35:53.63Z</time></trkpt><trkpt lat="33.3265867" lon="9.1797887"><ele>92.0</ele><time>2026-04-29T10:35:54.615Z</time></trkpt><trkpt lat="33.3265139" lon="9.1798668"><ele>92.0</ele><time>2026-04-29T10:35:55.559Z</time></trkpt><trkpt lat="33.3264411" lon="9.1799421"><ele>92.0</ele><time>2026-04-29T10:35:56.623Z</time></trkpt><trkpt lat="33.3263698" lon="9.1800199"><ele>91.8</ele><time>2026-04-29T10:35:57.623Z</time></trkpt><trkpt lat="33.3262966" lon="9.1800968"><ele>91.6</ele><time>2026-04-29T10:35:58.623Z</time></trkpt><trkpt lat="33.3262247" lon="9.1801753"><ele>91.39999999999999</ele><time>2026-04-29T10:35:59.628Z</time></trkpt><trkpt lat="33.3261497" lon="9.1802569"><ele>91.19999999999999</ele><time>2026-04-29T10:36:00.564Z</time></trkpt><trkpt lat="33.3260683" lon="9.1803386"><ele>91.0</ele><time>2026-04-29T10:36:01.632Z</time></trkpt><trkpt lat="33.325986" lon="9.1804201"><ele>91.0</ele><time>2026-04-29T10:36:02.635Z</time></trkpt><trkpt lat="33.3259018" lon="9.1805048"><ele>91.0</ele><time>2026-04-29T10:36:03.614Z</time></trkpt><trkpt lat="33.3258209" lon="9.1805882"><ele>91.0</ele><time>2026-04-29T10:36:04.63Z</time></trkpt><trkpt lat="33.325752" lon="9.1806578"><ele>91.0</ele><time>2026-04-29T10:36:05.602Z</time></trkpt><trkpt lat="33.3256825" lon="9.1807232"><ele>91.0</ele><time>2026-04-29T10:36:06.643Z</time></trkpt><trkpt lat="33.3256248" lon="9.180786"><ele>91.0</ele><time>2026-04-29T10:36:07.63Z</time></trkpt><trkpt lat="33.3255686" lon="9.1808421"><ele>91.0</ele><time>2026-04-29T10:36:08.626Z</time></trkpt><trkpt lat="33.3255135" lon="9.1808931"><ele>91.0</ele><time>2026-04-29T10:36:09.628Z</time></trkpt><trkpt lat="33.3254634" lon="9.1809437"><ele>91.0</ele><time>2026-04-29T10:36:10.596Z</time></trkpt><trkpt lat="33.3254126" lon="9.1809965"><ele>91.0</ele><time>2026-04-29T10:36:11.624Z</time></trkpt><trkpt lat="33.3253584" lon="9.1810528"><ele>91.0</ele><time>2026-04-29T10:36:12.62Z</time></trkpt><trkpt lat="33.3252965" lon="9.1811195"><ele>91.0</ele><time>2026-04-29T10:36:13.608Z</time></trkpt><trkpt lat="33.3252272" lon="9.1811874"><ele>91.0</ele><time>2026-04-29T10:36:14.624Z</time></trkpt><trkpt lat="33.3251561" lon="9.1812678"><ele>91.0</ele><time>2026-04-29T10:36:15.632Z</time></trkpt><trkpt lat="33.3250824" lon="9.1813415"><ele>91.0</ele><time>2026-04-29T10:36:16.585Z</time></trkpt><trkpt lat="33.3250079" lon="9.1814175"><ele>91.0</ele><time>2026-04-29T10:36:17.612Z</time></trkpt><trkpt lat="33.324932" lon="9.1815001"><ele>91.0</ele><time>2026-04-29T10:36:18.627Z</time></trkpt><trkpt lat="33.3248538" lon="9.181583"><ele>91.0</ele><time>2026-04-29T10:36:19.615Z</time></trkpt><trkpt lat="33.3247764" lon="9.1816656"><ele>91.0</ele><time>2026-04-29T10:36:20.632Z</time></trkpt><trkpt lat="33.3246983" lon="9.1817456"><ele>91.0</ele><time>2026-04-29T10:36:21.631Z</time></trkpt><trkpt lat="33.3246213" lon="9.1818264"><ele>91.0</ele><time>2026-04-29T10:36:22.613Z</time></trkpt><trkpt lat="33.3245434" lon="9.1819089"><ele>91.0</ele><time>2026-04-29T10:36:23.595Z</time></trkpt><trkpt lat="33.3244693" lon="9.1819975"><ele>91.0</ele><time>2026-04-29T10:36:24.626Z</time></trkpt><trkpt lat="33.3243929" lon="9.182086"><ele>91.0</ele><time>2026-04-29T10:36:25.626Z</time></trkpt><trkpt lat="33.3243144" lon="9.1821698"><ele>91.0</ele><time>2026-04-29T10:36:26.621Z</time></trkpt><trkpt lat="33.3242346" lon="9.1822525"><ele>91.0</ele><time>2026-04-29T10:36:27.618Z</time></trkpt><trkpt lat="33.3241562" lon="9.1823371"><ele>91.0</ele><time>2026-04-29T10:36:28.631Z</time></trkpt><trkpt lat="33.3240733" lon="9.1824224"><ele>90.5</ele><time>2026-04-29T10:36:29.605Z</time></trkpt><trkpt lat="33.3239847" lon="9.1825008"><ele>90.0</ele><time>2026-04-29T10:36:30.603Z</time></trkpt><trkpt lat="33.3238926" lon="9.1825825"><ele>89.5</ele><time>2026-04-29T10:36:31.609Z</time></trkpt><trkpt lat="33.3238025" lon="9.1826712"><ele>89.0</ele><time>2026-04-29T10:36:32.617Z</time></trkpt><trkpt lat="33.3237122" lon="9.1827614"><ele>89.0</ele><time>2026-04-29T10:36:33.601Z</time></trkpt><trkpt lat="33.3236233" lon="9.1828515"><ele>89.0</ele><time>2026-04-29T10:36:34.596Z</time></trkpt><trkpt lat="33.3235344" lon="9.1829448"><ele>89.0</ele><time>2026-04-29T10:36:35.628Z</time></trkpt><trkpt lat="33.3234434" lon="9.1830431"><ele>89.0</ele><time>2026-04-29T10:36:36.619Z</time></trkpt><trkpt lat="33.3233524" lon="9.183143"><ele>89.0</ele><time>2026-04-29T10:36:37.617Z</time></trkpt><trkpt lat="33.3232576" lon="9.1832421"><ele>89.0</ele><time>2026-04-29T10:36:38.586Z</time></trkpt><trkpt lat="33.3231669" lon="9.1833352"><ele>89.0</ele><time>2026-04-29T10:36:39.615Z</time></trkpt><trkpt lat="33.323082" lon="9.1834222"><ele>89.0</ele><time>2026-04-29T10:36:40.557Z</time></trkpt><trkpt lat="33.323" lon="9.1835017"><ele>89.0</ele><time>2026-04-29T10:36:41.554Z</time></trkpt><trkpt lat="33.3229221" lon="9.1835753"><ele>89.0</ele><time>2026-04-29T10:36:42.609Z</time></trkpt><trkpt lat="33.3228429" lon="9.1836552"><ele>89.0</ele><time>2026-04-29T10:36:43.611Z</time></trkpt><trkpt lat="33.322762" lon="9.183735"><ele>89.0</ele><time>2026-04-29T10:36:44.62Z</time></trkpt><trkpt lat="33.3226874" lon="9.1838134"><ele>89.0</ele><time>2026-04-29T10:36:45.56Z</time></trkpt><trkpt lat="33.3226169" lon="9.1838895"><ele>89.0</ele><time>2026-04-29T10:36:46.588Z</time></trkpt><trkpt lat="33.3225582" lon="9.1839557"><ele>89.0</ele><time>2026-04-29T10:36:47.62Z</time></trkpt><trkpt lat="33.3224998" lon="9.1840197"><ele>89.0</ele><time>2026-04-29T10:36:48.615Z</time></trkpt><trkpt lat="33.3224458" lon="9.1840772"><ele>89.0</ele><time>2026-04-29T10:36:49.619Z</time></trkpt><trkpt lat="33.3223584" lon="9.1841744"><ele>89.0</ele><time>2026-04-29T10:36:51.587Z</time></trkpt><trkpt lat="33.3223079" lon="9.184225"><ele>89.0</ele><time>2026-04-29T10:36:52.616Z</time></trkpt><trkpt lat="33.3222556" lon="9.1842784"><ele>89.33333333333334</ele><time>2026-04-29T10:36:53.614Z</time></trkpt><trkpt lat="33.3222" lon="9.184339"><ele>89.66666666666667</ele><time>2026-04-29T10:36:54.622Z</time></trkpt><trkpt lat="33.3221377" lon="9.1844002"><ele>90.0</ele><time>2026-04-29T10:36:55.619Z</time></trkpt><trkpt lat="33.322073" lon="9.1844666"><ele>90.33333333333333</ele><time>2026-04-29T10:36:56.582Z</time></trkpt><trkpt lat="33.3219963" lon="9.1845421"><ele>90.66666666666666</ele><time>2026-04-29T10:36:57.619Z</time></trkpt><trkpt lat="33.3219271" lon="9.1846105"><ele>91.0</ele><time>2026-04-29T10:36:58.631Z</time></trkpt><trkpt lat="33.3218518" lon="9.1846822"><ele>91.0</ele><time>2026-04-29T10:36:59.612Z</time></trkpt><trkpt lat="33.3217762" lon="9.1847569"><ele>91.0</ele><time>2026-04-29T10:37:00.591Z</time></trkpt><trkpt lat="33.3216969" lon="9.1848369"><ele>91.0</ele><time>2026-04-29T10:37:01.627Z</time></trkpt><trkpt lat="33.3216241" lon="9.1849125"><ele>91.0</ele><time>2026-04-29T10:37:02.582Z</time></trkpt><trkpt lat="33.3215501" lon="9.1849876"><ele>91.0</ele><time>2026-04-29T10:37:03.622Z</time></trkpt><trkpt lat="33.3214754" lon="9.185062"><ele>91.0</ele><time>2026-04-29T10:37:04.581Z</time></trkpt><trkpt lat="33.3213993" lon="9.1851369"><ele>91.0</ele><time>2026-04-29T10:37:05.626Z</time></trkpt><trkpt lat="33.3213237" lon="9.1852149"><ele>91.0</ele><time>2026-04-29T10:37:06.637Z</time></trkpt><trkpt lat="33.3212497" lon="9.1852948"><ele>91.0</ele><time>2026-04-29T10:37:07.634Z</time></trkpt><trkpt lat="33.3211798" lon="9.1853756"><ele>91.0</ele><time>2026-04-29T10:37:08.591Z</time></trkpt><trkpt lat="33.3211122" lon="9.1854529"><ele>91.0</ele><time>2026-04-29T10:37:09.605Z</time></trkpt><trkpt lat="33.3210423" lon="9.1855329"><ele>91.0</ele><time>2026-04-29T10:37:10.614Z</time></trkpt><trkpt lat="33.320967" lon="9.1856139"><ele>91.0</ele><time>2026-04-29T10:37:11.581Z</time></trkpt><trkpt lat="33.3208891" lon="9.1856961"><ele>91.0</ele><time>2026-04-29T10:37:12.599Z</time></trkpt><trkpt lat="33.3208105" lon="9.1857791"><ele>91.0</ele><time>2026-04-29T10:37:13.615Z</time></trkpt><trkpt lat="33.3207298" lon="9.1858651"><ele>91.0</ele><time>2026-04-29T10:37:14.55Z</time></trkpt><trkpt lat="33.3206476" lon="9.1859534"><ele>91.0</ele><time>2026-04-29T10:37:15.604Z</time></trkpt><trkpt lat="33.3205622" lon="9.1860425"><ele>91.0</ele><time>2026-04-29T10:37:16.621Z</time></trkpt><trkpt lat="33.3204735" lon="9.1861329"><ele>91.0</ele><time>2026-04-29T10:37:17.619Z</time></trkpt><trkpt lat="33.3203814" lon="9.1862221"><ele>91.5</ele><time>2026-04-29T10:37:18.591Z</time></trkpt><trkpt lat="33.3202873" lon="9.1863154"><ele>92.0</ele><time>2026-04-29T10:37:19.629Z</time></trkpt><trkpt lat="33.3201925" lon="9.1864101"><ele>92.5</ele><time>2026-04-29T10:37:20.614Z</time></trkpt><trkpt lat="33.3200929" lon="9.1865064"><ele>93.0</ele><time>2026-04-29T10:37:21.622Z</time></trkpt><trkpt lat="33.3199939" lon="9.1866036"><ele>93.0</ele><time>2026-04-29T10:37:22.616Z</time></trkpt><trkpt lat="33.3198957" lon="9.1867044"><ele>93.0</ele><time>2026-04-29T10:37:23.583Z</time></trkpt><trkpt lat="33.3197964" lon="9.1868079"><ele>93.0</ele><time>2026-04-29T10:37:24.618Z</time></trkpt><trkpt lat="33.3196994" lon="9.1869093"><ele>93.0</ele><time>2026-04-29T10:37:25.619Z</time></trkpt><trkpt lat="33.3196031" lon="9.1870091"><ele>93.5</ele><time>2026-04-29T10:37:26.622Z</time></trkpt><trkpt lat="33.3195069" lon="9.1871074"><ele>94.0</ele><time>2026-04-29T10:37:27.608Z</time></trkpt><trkpt lat="33.3194118" lon="9.1872073"><ele>94.5</ele><time>2026-04-29T10:37:28.566Z</time></trkpt><trkpt lat="33.3193169" lon="9.1873076"><ele>95.0</ele><time>2026-04-29T10:37:29.596Z</time></trkpt><trkpt lat="33.3192211" lon="9.1874058"><ele>94.0</ele><time>2026-04-29T10:37:30.629Z</time></trkpt><trkpt lat="33.3191246" lon="9.1875048"><ele>93.0</ele><time>2026-04-29T10:37:31.592Z</time></trkpt><trkpt lat="33.3190318" lon="9.1876037"><ele>92.0</ele><time>2026-04-29T10:37:32.583Z</time></trkpt><trkpt lat="33.3189367" lon="9.1877039"><ele>91.0</ele><time>2026-04-29T10:37:33.618Z</time></trkpt><trkpt lat="33.3188417" lon="9.1878038"><ele>91.0</ele><time>2026-04-29T10:37:34.61Z</time></trkpt><trkpt lat="33.3187455" lon="9.187904"><ele>91.0</ele><time>2026-04-29T10:37:35.548Z</time></trkpt><trkpt lat="33.3186545" lon="9.1879984"><ele>91.0</ele><time>2026-04-29T10:37:36.623Z</time></trkpt><trkpt lat="33.3185646" lon="9.1880901"><ele>91.0</ele><time>2026-04-29T10:37:37.602Z</time></trkpt><trkpt lat="33.3184784" lon="9.1881792"><ele>91.0</ele><time>2026-04-29T10:37:38.607Z</time></trkpt><trkpt lat="33.3183944" lon="9.1882645"><ele>91.0</ele><time>2026-04-29T10:37:39.615Z</time></trkpt><trkpt lat="33.3183167" lon="9.1883464"><ele>91.0</ele><time>2026-04-29T10:37:40.616Z</time></trkpt><trkpt lat="33.3182444" lon="9.1884227"><ele>91.0</ele><time>2026-04-29T10:37:41.624Z</time></trkpt><trkpt lat="33.3181863" lon="9.1884862"><ele>91.0</ele><time>2026-04-29T10:37:42.604Z</time></trkpt><trkpt lat="33.3181283" lon="9.1885474"><ele>91.0</ele><time>2026-04-29T10:37:43.608Z</time></trkpt><trkpt lat="33.3180784" lon="9.1885997"><ele>91.0</ele><time>2026-04-29T10:37:44.595Z</time></trkpt><trkpt lat="33.3179959" lon="9.1886926"><ele>91.0</ele><time>2026-04-29T10:37:46.626Z</time></trkpt><trkpt lat="33.3179164" lon="9.1887699"><ele>91.0</ele><time>2026-04-29T10:37:48.631Z</time></trkpt><trkpt lat="33.3178372" lon="9.1888491"><ele>91.0</ele><time>2026-04-29T10:37:50.618Z</time></trkpt><trkpt lat="33.3177889" lon="9.1888998"><ele>91.0</ele><time>2026-04-29T10:37:51.636Z</time></trkpt><trkpt lat="33.3177345" lon="9.1889558"><ele>90.83333333333333</ele><time>2026-04-29T10:37:52.627Z</time></trkpt><trkpt lat="33.3176786" lon="9.1890156"><ele>90.66666666666666</ele><time>2026-04-29T10:37:53.63Z</time></trkpt><trkpt lat="33.3176225" lon="9.1890778"><ele>90.5</ele><time>2026-04-29T10:37:54.623Z</time></trkpt><trkpt lat="33.3175582" lon="9.1891418"><ele>90.33333333333333</ele><time>2026-04-29T10:37:55.612Z</time></trkpt><trkpt lat="33.3174906" lon="9.1892086"><ele>90.16666666666667</ele><time>2026-04-29T10:37:56.621Z</time></trkpt><trkpt lat="33.3174269" lon="9.1892769"><ele>90.0</ele><time>2026-04-29T10:37:57.619Z</time></trkpt><trkpt lat="33.3173633" lon="9.1893425"><ele>90.0</ele><time>2026-04-29T10:37:58.632Z</time></trkpt><trkpt lat="33.3172982" lon="9.1894087"><ele>90.0</ele><time>2026-04-29T10:37:59.613Z</time></trkpt><trkpt lat="33.3172373" lon="9.189474"><ele>90.0</ele><time>2026-04-29T10:38:00.619Z</time></trkpt><trkpt lat="33.3171832" lon="9.1895336"><ele>90.0</ele><time>2026-04-29T10:38:01.606Z</time></trkpt><trkpt lat="33.3171291" lon="9.1895909"><ele>90.0</ele><time>2026-04-29T10:38:02.634Z</time></trkpt><trkpt lat="33.3170761" lon="9.189645"><ele>90.0</ele><time>2026-04-29T10:38:03.625Z</time></trkpt><trkpt lat="33.3170178" lon="9.1896949"><ele>90.0</ele><time>2026-04-29T10:38:05.614Z</time></trkpt><trkpt lat="33.3169438" lon="9.1897754"><ele>90.0</ele><time>2026-04-29T10:38:08.609Z</time></trkpt><trkpt lat="33.3168449" lon="9.1898698"><ele>90.0</ele><time>2026-04-29T10:38:10.609Z</time></trkpt><trkpt lat="33.3167903" lon="9.1899184"><ele>90.0</ele><time>2026-04-29T10:38:11.556Z</time></trkpt><trkpt lat="33.316726" lon="9.1899711"><ele>90.0</ele><time>2026-04-29T10:38:12.562Z</time></trkpt><trkpt lat="33.3166662" lon="9.1900271"><ele>90.0</ele><time>2026-04-29T10:38:13.594Z</time></trkpt><trkpt lat="33.3166081" lon="9.1900872"><ele>90.0</ele><time>2026-04-29T10:38:14.618Z</time></trkpt><trkpt lat="33.316551" lon="9.1901456"><ele>90.0</ele><time>2026-04-29T10:38:15.608Z</time></trkpt><trkpt lat="33.3164958" lon="9.1902011"><ele>90.0</ele><time>2026-04-29T10:38:16.611Z</time></trkpt><trkpt lat="33.3164479" lon="9.1902543"><ele>90.0</ele><time>2026-04-29T10:38:17.626Z</time></trkpt><trkpt lat="33.3163962" lon="9.1903083"><ele>90.0</ele><time>2026-04-29T10:38:18.601Z</time></trkpt><trkpt lat="33.3163414" lon="9.1903651"><ele>90.0</ele><time>2026-04-29T10:38:19.574Z</time></trkpt><trkpt lat="33.3162852" lon="9.1904245"><ele>90.0</ele><time>2026-04-29T10:38:20.619Z</time></trkpt><trkpt lat="33.3162325" lon="9.1904813"><ele>90.0</ele><time>2026-04-29T10:38:21.6Z</time></trkpt><trkpt lat="33.3161784" lon="9.1905341"><ele>90.0</ele><time>2026-04-29T10:38:22.576Z</time></trkpt><trkpt lat="33.3161256" lon="9.19059"><ele>90.0</ele><time>2026-04-29T10:38:23.614Z</time></trkpt><trkpt lat="33.3160684" lon="9.1906473"><ele>90.0</ele><time>2026-04-29T10:38:24.615Z</time></trkpt><trkpt lat="33.3160108" lon="9.1907082"><ele>90.0</ele><time>2026-04-29T10:38:25.613Z</time></trkpt><trkpt lat="33.3159532" lon="9.1907697"><ele>90.0</ele><time>2026-04-29T10:38:26.598Z</time></trkpt><trkpt lat="33.3158996" lon="9.1908287"><ele>90.0</ele><time>2026-04-29T10:38:27.566Z</time></trkpt><trkpt lat="33.3158447" lon="9.190887"><ele>90.16666666666667</ele><time>2026-04-29T10:38:28.623Z</time></trkpt><trkpt lat="33.3157872" lon="9.1909453"><ele>90.33333333333333</ele><time>2026-04-29T10:38:29.591Z</time></trkpt><trkpt lat="33.3157294" lon="9.1910036"><ele>90.5</ele><time>2026-04-29T10:38:30.563Z</time></trkpt><trkpt lat="33.3156756" lon="9.1910639"><ele>90.66666666666666</ele><time>2026-04-29T10:38:31.619Z</time></trkpt><trkpt lat="33.3156172" lon="9.191129"><ele>90.83333333333333</ele><time>2026-04-29T10:38:32.628Z</time></trkpt><trkpt lat="33.3155615" lon="9.1911882"><ele>91.0</ele><time>2026-04-29T10:38:33.608Z</time></trkpt><trkpt lat="33.3155" lon="9.1912494"><ele>91.16666666666666</ele><time>2026-04-29T10:38:34.613Z</time></trkpt><trkpt lat="33.3154378" lon="9.1913084"><ele>91.33333333333333</ele><time>2026-04-29T10:38:35.62Z</time></trkpt><trkpt lat="33.3153761" lon="9.1913677"><ele>91.5</ele><time>2026-04-29T10:38:36.576Z</time></trkpt><trkpt lat="33.3153254" lon="9.1914176"><ele>91.66666666666667</ele><time>2026-04-29T10:38:37.546Z</time></trkpt><trkpt lat="33.3152391" lon="9.1915087"><ele>91.83333333333334</ele><time>2026-04-29T10:38:39.545Z</time></trkpt><trkpt lat="33.3151912" lon="9.1915731"><ele>92.0</ele><time>2026-04-29T10:38:40.548Z</time></trkpt><trkpt lat="33.3151319" lon="9.191646"><ele>91.5</ele><time>2026-04-29T10:38:41.555Z</time></trkpt><trkpt lat="33.3150572" lon="9.1917388"><ele>91.0</ele><time>2026-04-29T10:38:42.562Z</time></trkpt><trkpt lat="33.314968" lon="9.1918369"><ele>90.5</ele><time>2026-04-29T10:38:43.541Z</time></trkpt><trkpt lat="33.3148789" lon="9.19193"><ele>90.0</ele><time>2026-04-29T10:38:44.561Z</time></trkpt><trkpt lat="33.3147894" lon="9.1920289"><ele>90.0</ele><time>2026-04-29T10:38:45.553Z</time></trkpt><trkpt lat="33.3146979" lon="9.1921202"><ele>90.0</ele><time>2026-04-29T10:38:46.523Z</time></trkpt><trkpt lat="33.3146023" lon="9.1922148"><ele>90.0</ele><time>2026-04-29T10:38:47.526Z</time></trkpt><trkpt lat="33.3145051" lon="9.1923073"><ele>90.0</ele><time>2026-04-29T10:38:48.543Z</time></trkpt><trkpt lat="33.3144123" lon="9.1924058"><ele>90.25</ele><time>2026-04-29T10:38:49.528Z</time></trkpt><trkpt lat="33.3143199" lon="9.1925012"><ele>90.5</ele><time>2026-04-29T10:38:50.531Z</time></trkpt><trkpt lat="33.3142241" lon="9.1925974"><ele>90.75</ele><time>2026-04-29T10:38:51.539Z</time></trkpt><trkpt lat="33.3141256" lon="9.1926912"><ele>91.0</ele><time>2026-04-29T10:38:52.541Z</time></trkpt><trkpt lat="33.3140307" lon="9.1927951"><ele>91.0</ele><time>2026-04-29T10:38:53.55Z</time></trkpt><trkpt lat="33.3139352" lon="9.1928899"><ele>91.0</ele><time>2026-04-29T10:38:54.531Z</time></trkpt><trkpt lat="33.3138369" lon="9.1929908"><ele>91.0</ele><time>2026-04-29T10:38:55.559Z</time></trkpt><trkpt lat="33.3137358" lon="9.1930932"><ele>91.0</ele><time>2026-04-29T10:38:56.543Z</time></trkpt><trkpt lat="33.3136385" lon="9.1932013"><ele>91.25</ele><time>2026-04-29T10:38:57.554Z</time></trkpt><trkpt lat="33.3135388" lon="9.1933043"><ele>91.5</ele><time>2026-04-29T10:38:58.512Z</time></trkpt><trkpt lat="33.3134387" lon="9.1934066"><ele>91.75</ele><time>2026-04-29T10:38:59.534Z</time></trkpt><trkpt lat="33.3133388" lon="9.1935088"><ele>92.0</ele><time>2026-04-29T10:39:00.523Z</time></trkpt><trkpt lat="33.3132511" lon="9.1936011"><ele>92.0</ele><time>2026-04-29T10:39:01.528Z</time></trkpt><trkpt lat="33.3131622" lon="9.193691"><ele>92.0</ele><time>2026-04-29T10:39:02.538Z</time></trkpt><trkpt lat="33.3130759" lon="9.1937818"><ele>92.0</ele><time>2026-04-29T10:39:03.524Z</time></trkpt><trkpt lat="33.3129867" lon="9.1938756"><ele>92.0</ele><time>2026-04-29T10:39:04.53Z</time></trkpt><trkpt lat="33.3128974" lon="9.1939671"><ele>91.8</ele><time>2026-04-29T10:39:05.542Z</time></trkpt><trkpt lat="33.3128182" lon="9.1940549"><ele>91.6</ele><time>2026-04-29T10:39:06.548Z</time></trkpt><trkpt lat="33.3127402" lon="9.1941408"><ele>91.39999999999999</ele><time>2026-04-29T10:39:07.509Z</time></trkpt><trkpt lat="33.3126624" lon="9.194223"><ele>91.19999999999999</ele><time>2026-04-29T10:39:08.548Z</time></trkpt><trkpt lat="33.3125846" lon="9.1943085"><ele>91.0</ele><time>2026-04-29T10:39:09.537Z</time></trkpt><trkpt lat="33.3125049" lon="9.1943853"><ele>91.0</ele><time>2026-04-29T10:39:10.554Z</time></trkpt><trkpt lat="33.312438" lon="9.1944583"><ele>91.0</ele><time>2026-04-29T10:39:11.549Z</time></trkpt><trkpt lat="33.3123723" lon="9.1945268"><ele>91.0</ele><time>2026-04-29T10:39:12.537Z</time></trkpt><trkpt lat="33.3123064" lon="9.1945956"><ele>91.0</ele><time>2026-04-29T10:39:13.545Z</time></trkpt><trkpt lat="33.3122505" lon="9.1946513"><ele>91.0</ele><time>2026-04-29T10:39:14.546Z</time></trkpt><trkpt lat="33.3121794" lon="9.1947114"><ele>91.0</ele><time>2026-04-29T10:39:16.542Z</time></trkpt><trkpt lat="33.3121007" lon="9.1947925"><ele>90.57142857142857</ele><time>2026-04-29T10:39:19.546Z</time></trkpt><trkpt lat="33.3120503" lon="9.1948443"><ele>90.14285714285714</ele><time>2026-04-29T10:39:20.588Z</time></trkpt><trkpt lat="33.3119977" lon="9.1948964"><ele>89.71428571428572</ele><time>2026-04-29T10:39:21.537Z</time></trkpt><trkpt lat="33.3119456" lon="9.1949517"><ele>89.28571428571428</ele><time>2026-04-29T10:39:22.546Z</time></trkpt><trkpt lat="33.3118903" lon="9.1950089"><ele>88.85714285714286</ele><time>2026-04-29T10:39:23.554Z</time></trkpt><trkpt lat="33.3118294" lon="9.1950686"><ele>88.42857142857143</ele><time>2026-04-29T10:39:24.55Z</time></trkpt><trkpt lat="33.3117644" lon="9.1951348"><ele>88.0</ele><time>2026-04-29T10:39:25.54Z</time></trkpt><trkpt lat="33.3116949" lon="9.1952029"><ele>88.0</ele><time>2026-04-29T10:39:26.542Z</time></trkpt><trkpt lat="33.3116324" lon="9.1952638"><ele>88.0</ele><time>2026-04-29T10:39:27.536Z</time></trkpt><trkpt lat="33.3115737" lon="9.195324"><ele>88.0</ele><time>2026-04-29T10:39:28.541Z</time></trkpt><trkpt lat="33.3115149" lon="9.1953806"><ele>88.0</ele><time>2026-04-29T10:39:29.537Z</time></trkpt><trkpt lat="33.3114533" lon="9.1954417"><ele>88.0</ele><time>2026-04-29T10:39:30.502Z</time></trkpt><trkpt lat="33.3113941" lon="9.1955069"><ele>88.0</ele><time>2026-04-29T10:39:31.55Z</time></trkpt><trkpt lat="33.3113325" lon="9.1955663"><ele>88.16666666666666</ele><time>2026-04-29T10:39:32.551Z</time></trkpt><trkpt lat="33.3112741" lon="9.1956296"><ele>88.33333333333333</ele><time>2026-04-29T10:39:33.547Z</time></trkpt><trkpt lat="33.3112116" lon="9.1956928"><ele>88.5</ele><time>2026-04-29T10:39:34.551Z</time></trkpt><trkpt lat="33.3111461" lon="9.1957583"><ele>88.66666666666667</ele><time>2026-04-29T10:39:35.552Z</time></trkpt><trkpt lat="33.3110825" lon="9.1958216"><ele>88.83333333333334</ele><time>2026-04-29T10:39:36.549Z</time></trkpt><trkpt lat="33.3110213" lon="9.1958845"><ele>89.0</ele><time>2026-04-29T10:39:37.543Z</time></trkpt><trkpt lat="33.3109593" lon="9.1959435"><ele>89.0</ele><time>2026-04-29T10:39:38.551Z</time></trkpt><trkpt lat="33.3108911" lon="9.1960079"><ele>89.0</ele><time>2026-04-29T10:39:39.517Z</time></trkpt><trkpt lat="33.3108245" lon="9.1960711"><ele>89.0</ele><time>2026-04-29T10:39:40.529Z</time></trkpt><trkpt lat="33.3107632" lon="9.196134"><ele>89.0</ele><time>2026-04-29T10:39:41.545Z</time></trkpt><trkpt lat="33.3107024" lon="9.196192"><ele>89.0</ele><time>2026-04-29T10:39:42.552Z</time></trkpt><trkpt lat="33.3106418" lon="9.196255"><ele>89.0</ele><time>2026-04-29T10:39:43.543Z</time></trkpt><trkpt lat="33.3105783" lon="9.196317"><ele>89.16666666666667</ele><time>2026-04-29T10:39:44.554Z</time></trkpt><trkpt lat="33.3105165" lon="9.1963862"><ele>89.33333333333334</ele><time>2026-04-29T10:39:45.533Z</time></trkpt><trkpt lat="33.3104538" lon="9.1964559"><ele>89.5</ele><time>2026-04-29T10:39:46.528Z</time></trkpt><trkpt lat="33.3103947" lon="9.1965228"><ele>89.66666666666667</ele><time>2026-04-29T10:39:47.519Z</time></trkpt><trkpt lat="33.3103335" lon="9.1965936"><ele>89.83333333333333</ele><time>2026-04-29T10:39:48.542Z</time></trkpt><trkpt lat="33.3102686" lon="9.1966586"><ele>90.0</ele><time>2026-04-29T10:39:49.517Z</time></trkpt><trkpt lat="33.3102037" lon="9.1967273"><ele>90.2</ele><time>2026-04-29T10:39:50.538Z</time></trkpt><trkpt lat="33.31013" lon="9.1967932"><ele>90.4</ele><time>2026-04-29T10:39:51.55Z</time></trkpt><trkpt lat="33.3100559" lon="9.1968608"><ele>90.6</ele><time>2026-04-29T10:39:52.541Z</time></trkpt><trkpt lat="33.3099829" lon="9.1969355"><ele>90.8</ele><time>2026-04-29T10:39:53.541Z</time></trkpt><trkpt lat="33.3099114" lon="9.197009"><ele>91.0</ele><time>2026-04-29T10:39:54.551Z</time></trkpt><trkpt lat="33.3098335" lon="9.1970852"><ele>91.0</ele><time>2026-04-29T10:39:55.552Z</time></trkpt><trkpt lat="33.3097593" lon="9.1971624"><ele>91.0</ele><time>2026-04-29T10:39:56.543Z</time></trkpt><trkpt lat="33.3097026" lon="9.1972205"><ele>91.0</ele><time>2026-04-29T10:39:57.536Z</time></trkpt><trkpt lat="33.3096521" lon="9.1972701"><ele>91.0</ele><time>2026-04-29T10:39:58.545Z</time></trkpt><trkpt lat="33.3095992" lon="9.1973225"><ele>91.0</ele><time>2026-04-29T10:40:00.531Z</time></trkpt><trkpt lat="33.3095379" lon="9.1973653"><ele>91.0</ele><time>2026-04-29T10:40:16.531Z</time></trkpt><trkpt lat="33.3094644" lon="9.1974476"><ele>91.6</ele><time>2026-04-29T10:40:18.542Z</time></trkpt><trkpt lat="33.3093948" lon="9.1975068"><ele>92.19999999999999</ele><time>2026-04-29T10:40:19.539Z</time></trkpt><trkpt lat="33.3093219" lon="9.1975682"><ele>92.80000000000001</ele><time>2026-04-29T10:40:20.548Z</time></trkpt><trkpt lat="33.309252" lon="9.1976393"><ele>93.4</ele><time>2026-04-29T10:40:21.527Z</time></trkpt><trkpt lat="33.3091719" lon="9.1977062"><ele>94.0</ele><time>2026-04-29T10:40:22.543Z</time></trkpt><trkpt lat="33.3090917" lon="9.1977824"><ele>94.0</ele><time>2026-04-29T10:40:23.543Z</time></trkpt><trkpt lat="33.3090096" lon="9.1978571"><ele>94.0</ele><time>2026-04-29T10:40:24.556Z</time></trkpt><trkpt lat="33.3089242" lon="9.1979316"><ele>94.0</ele><time>2026-04-29T10:40:25.559Z</time></trkpt><trkpt lat="33.3088406" lon="9.1980082"><ele>94.0</ele><time>2026-04-29T10:40:26.531Z</time></trkpt><trkpt lat="33.3087458" lon="9.1980857"><ele>94.0</ele><time>2026-04-29T10:40:27.523Z</time></trkpt><trkpt lat="33.3086564" lon="9.1981673"><ele>93.5</ele><time>2026-04-29T10:40:28.542Z</time></trkpt><trkpt lat="33.3085638" lon="9.1982452"><ele>93.0</ele><time>2026-04-29T10:40:29.535Z</time></trkpt><trkpt lat="33.30847" lon="9.1983251"><ele>92.5</ele><time>2026-04-29T10:40:30.529Z</time></trkpt><trkpt lat="33.3083753" lon="9.1984025"><ele>92.0</ele><time>2026-04-29T10:40:31.54Z</time></trkpt><trkpt lat="33.3082829" lon="9.1984805"><ele>92.0</ele><time>2026-04-29T10:40:32.527Z</time></trkpt><trkpt lat="33.3081944" lon="9.1985546"><ele>92.0</ele><time>2026-04-29T10:40:33.552Z</time></trkpt><trkpt lat="33.3081092" lon="9.1986249"><ele>92.0</ele><time>2026-04-29T10:40:34.539Z</time></trkpt><trkpt lat="33.3080282" lon="9.1986905"><ele>92.0</ele><time>2026-04-29T10:40:35.547Z</time></trkpt><trkpt lat="33.3079486" lon="9.1987518"><ele>92.0</ele><time>2026-04-29T10:40:36.562Z</time></trkpt><trkpt lat="33.3078639" lon="9.1988183"><ele>92.0</ele><time>2026-04-29T10:40:37.524Z</time></trkpt><trkpt lat="33.3077769" lon="9.1988858"><ele>92.0</ele><time>2026-04-29T10:40:38.528Z</time></trkpt><trkpt lat="33.3076886" lon="9.1989565"><ele>92.0</ele><time>2026-04-29T10:40:39.523Z</time></trkpt><trkpt lat="33.3076052" lon="9.1990388"><ele>92.0</ele><time>2026-04-29T10:40:40.539Z</time></trkpt><trkpt lat="33.3075169" lon="9.1991111"><ele>92.0</ele><time>2026-04-29T10:40:41.546Z</time></trkpt><trkpt lat="33.3074304" lon="9.1991805"><ele>92.0</ele><time>2026-04-29T10:40:42.546Z</time></trkpt><trkpt lat="33.3073387" lon="9.1992493"><ele>92.0</ele><time>2026-04-29T10:40:43.529Z</time></trkpt><trkpt lat="33.3072464" lon="9.1993166"><ele>92.0</ele><time>2026-04-29T10:40:44.542Z</time></trkpt><trkpt lat="33.3071672" lon="9.1993866"><ele>92.0</ele><time>2026-04-29T10:40:45.546Z</time></trkpt><trkpt lat="33.3070898" lon="9.1994382"><ele>92.0</ele><time>2026-04-29T10:40:46.543Z</time></trkpt><trkpt lat="33.3070175" lon="9.1994961"><ele>92.0</ele><time>2026-04-29T10:40:48.543Z</time></trkpt><trkpt lat="33.306929" lon="9.1995756"><ele>92.0</ele><time>2026-04-29T10:40:51.541Z</time></trkpt><trkpt lat="33.306875" lon="9.199625"><ele>92.0</ele><time>2026-04-29T10:40:52.532Z</time></trkpt><trkpt lat="33.306817" lon="9.1996743"><ele>92.0</ele><time>2026-04-29T10:40:53.536Z</time></trkpt><trkpt lat="33.3067504" lon="9.1997289"><ele>92.0</ele><time>2026-04-29T10:40:54.55Z</time></trkpt><trkpt lat="33.306689" lon="9.1997806"><ele>92.0</ele><time>2026-04-29T10:40:55.538Z</time></trkpt><trkpt lat="33.3066183" lon="9.1998375"><ele>92.0</ele><time>2026-04-29T10:40:56.538Z</time></trkpt><trkpt lat="33.3065536" lon="9.1998933"><ele>92.0</ele><time>2026-04-29T10:40:57.514Z</time></trkpt><trkpt lat="33.3064826" lon="9.199946"><ele>92.0</ele><time>2026-04-29T10:40:58.542Z</time></trkpt><trkpt lat="33.3064146" lon="9.2000022"><ele>92.0</ele><time>2026-04-29T10:40:59.535Z</time></trkpt><trkpt lat="33.3063551" lon="9.2000585"><ele>92.0</ele><time>2026-04-29T10:41:00.535Z</time></trkpt><trkpt lat="33.3062909" lon="9.2001173"><ele>92.0</ele><time>2026-04-29T10:41:01.542Z</time></trkpt><trkpt lat="33.3062314" lon="9.2001705"><ele>92.0</ele><time>2026-04-29T10:41:02.546Z</time></trkpt><trkpt lat="33.3061679" lon="9.2002242"><ele>92.0</ele><time>2026-04-29T10:41:03.486Z</time></trkpt><trkpt lat="33.3061023" lon="9.2002782"><ele>92.0</ele><time>2026-04-29T10:41:04.514Z</time></trkpt><trkpt lat="33.3060373" lon="9.2003356"><ele>92.0</ele><time>2026-04-29T10:41:05.547Z</time></trkpt><trkpt lat="33.3059734" lon="9.2003948"><ele>92.0</ele><time>2026-04-29T10:41:06.55Z</time></trkpt><trkpt lat="33.3059087" lon="9.2004503"><ele>92.0</ele><time>2026-04-29T10:41:07.512Z</time></trkpt><trkpt lat="33.3058458" lon="9.200501"><ele>92.0</ele><time>2026-04-29T10:41:08.539Z</time></trkpt><trkpt lat="33.3057762" lon="9.2005573"><ele>92.0</ele><time>2026-04-29T10:41:09.556Z</time></trkpt><trkpt lat="33.3057004" lon="9.2006269"><ele>92.0</ele><time>2026-04-29T10:41:10.542Z</time></trkpt><trkpt lat="33.305616" lon="9.2006956"><ele>92.0</ele><time>2026-04-29T10:41:11.557Z</time></trkpt><trkpt lat="33.3055318" lon="9.2007638"><ele>92.0</ele><time>2026-04-29T10:41:12.561Z</time></trkpt><trkpt lat="33.3054464" lon="9.2008283"><ele>91.83333333333334</ele><time>2026-04-29T10:41:13.541Z</time></trkpt><trkpt lat="33.3053673" lon="9.200885"><ele>91.66666666666667</ele><time>2026-04-29T10:41:14.524Z</time></trkpt><trkpt lat="33.3052918" lon="9.2009401"><ele>91.5</ele><time>2026-04-29T10:41:15.543Z</time></trkpt><trkpt lat="33.3052187" lon="9.2009985"><ele>91.33333333333333</ele><time>2026-04-29T10:41:16.551Z</time></trkpt><trkpt lat="33.3051488" lon="9.201054"><ele>91.16666666666666</ele><time>2026-04-29T10:41:17.548Z</time></trkpt><trkpt lat="33.3050778" lon="9.201113"><ele>91.0</ele><time>2026-04-29T10:41:18.549Z</time></trkpt><trkpt lat="33.3050082" lon="9.2011684"><ele>91.0</ele><time>2026-04-29T10:41:19.549Z</time></trkpt><trkpt lat="33.3049404" lon="9.2012217"><ele>91.0</ele><time>2026-04-29T10:41:20.542Z</time></trkpt><trkpt lat="33.3048747" lon="9.2012805"><ele>91.0</ele><time>2026-04-29T10:41:21.55Z</time></trkpt><trkpt lat="33.3048158" lon="9.2013355"><ele>91.0</ele><time>2026-04-29T10:41:22.545Z</time></trkpt><trkpt lat="33.3047523" lon="9.2013944"><ele>91.0</ele><time>2026-04-29T10:41:23.542Z</time></trkpt><trkpt lat="33.3046886" lon="9.2014515"><ele>91.0</ele><time>2026-04-29T10:41:24.531Z</time></trkpt><trkpt lat="33.3046245" lon="9.2015105"><ele>91.19999999999999</ele><time>2026-04-29T10:41:25.546Z</time></trkpt><trkpt lat="33.3045562" lon="9.2015708"><ele>91.39999999999999</ele><time>2026-04-29T10:41:26.507Z</time></trkpt><trkpt lat="33.3044822" lon="9.2016316"><ele>91.6</ele><time>2026-04-29T10:41:27.541Z</time></trkpt><trkpt lat="33.3044084" lon="9.2016925"><ele>91.8</ele><time>2026-04-29T10:41:28.542Z</time></trkpt><trkpt lat="33.3043283" lon="9.20176"><ele>92.0</ele><time>2026-04-29T10:41:29.538Z</time></trkpt><trkpt lat="33.3042425" lon="9.2018318"><ele>92.0</ele><time>2026-04-29T10:41:30.552Z</time></trkpt><trkpt lat="33.3041497" lon="9.2019093"><ele>92.0</ele><time>2026-04-29T10:41:31.546Z</time></trkpt><trkpt lat="33.3040548" lon="9.2019872"><ele>92.0</ele><time>2026-04-29T10:41:32.549Z</time></trkpt><trkpt lat="33.3039582" lon="9.2020639"><ele>92.0</ele><time>2026-04-29T10:41:33.552Z</time></trkpt><trkpt lat="33.3038606" lon="9.2021436"><ele>92.0</ele><time>2026-04-29T10:41:34.544Z</time></trkpt><trkpt lat="33.3037609" lon="9.2022253"><ele>92.0</ele><time>2026-04-29T10:41:35.542Z</time></trkpt><trkpt lat="33.3036612" lon="9.2023016"><ele>92.0</ele><time>2026-04-29T10:41:36.529Z</time></trkpt><trkpt lat="33.3035697" lon="9.2023715"><ele>92.0</ele><time>2026-04-29T10:41:37.509Z</time></trkpt><trkpt lat="33.3034784" lon="9.2024435"><ele>92.0</ele><time>2026-04-29T10:41:38.507Z</time></trkpt><trkpt lat="33.3033908" lon="9.2025141"><ele>92.0</ele><time>2026-04-29T10:41:39.531Z</time></trkpt><trkpt lat="33.3033" lon="9.2025798"><ele>92.0</ele><time>2026-04-29T10:41:40.515Z</time></trkpt><trkpt lat="33.3032087" lon="9.2026531"><ele>92.0</ele><time>2026-04-29T10:41:41.528Z</time></trkpt><trkpt lat="33.3031171" lon="9.2027223"><ele>92.0</ele><time>2026-04-29T10:41:42.542Z</time></trkpt><trkpt lat="33.3030271" lon="9.2028007"><ele>92.0</ele><time>2026-04-29T10:41:43.531Z</time></trkpt><trkpt lat="33.3029372" lon="9.2028753"><ele>92.0</ele><time>2026-04-29T10:41:44.533Z</time></trkpt><trkpt lat="33.3028426" lon="9.2029437"><ele>92.0</ele><time>2026-04-29T10:41:45.528Z</time></trkpt><trkpt lat="33.3027474" lon="9.2030137"><ele>92.0</ele><time>2026-04-29T10:41:46.531Z</time></trkpt><trkpt lat="33.3026603" lon="9.2030797"><ele>92.0</ele><time>2026-04-29T10:41:47.526Z</time></trkpt><trkpt lat="33.3025757" lon="9.2031476"><ele>92.19999999999999</ele><time>2026-04-29T10:41:48.525Z</time></trkpt><trkpt lat="33.3024912" lon="9.203218"><ele>92.4</ele><time>2026-04-29T10:41:49.534Z</time></trkpt><trkpt lat="33.3024059" lon="9.2032894"><ele>92.6</ele><time>2026-04-29T10:41:50.523Z</time></trkpt><trkpt lat="33.3023161" lon="9.2033677"><ele>92.80000000000001</ele><time>2026-04-29T10:41:51.525Z</time></trkpt><trkpt lat="33.3022253" lon="9.2034462"><ele>93.0</ele><time>2026-04-29T10:41:52.54Z</time></trkpt><trkpt lat="33.3021273" lon="9.2035282"><ele>92.5</ele><time>2026-04-29T10:41:53.544Z</time></trkpt><trkpt lat="33.3020251" lon="9.2036035"><ele>92.0</ele><time>2026-04-29T10:41:54.519Z</time></trkpt><trkpt lat="33.3019263" lon="9.2036745"><ele>91.5</ele><time>2026-04-29T10:41:55.526Z</time></trkpt><trkpt lat="33.3018181" lon="9.2037443"><ele>91.0</ele><time>2026-04-29T10:41:56.523Z</time></trkpt><trkpt lat="33.301711" lon="9.203827"><ele>91.0</ele><time>2026-04-29T10:41:57.539Z</time></trkpt><trkpt lat="33.3016036" lon="9.2039118"><ele>91.0</ele><time>2026-04-29T10:41:58.515Z</time></trkpt><trkpt lat="33.3015025" lon="9.2039939"><ele>91.0</ele><time>2026-04-29T10:41:59.508Z</time></trkpt><trkpt lat="33.3014065" lon="9.204078"><ele>91.0</ele><time>2026-04-29T10:42:00.526Z</time></trkpt><trkpt lat="33.3013115" lon="9.204162"><ele>90.6</ele><time>2026-04-29T10:42:01.522Z</time></trkpt><trkpt lat="33.3012195" lon="9.2042386"><ele>90.19999999999999</ele><time>2026-04-29T10:42:02.524Z</time></trkpt><trkpt lat="33.3011299" lon="9.2043146"><ele>89.80000000000001</ele><time>2026-04-29T10:42:03.521Z</time></trkpt><trkpt lat="33.3010415" lon="9.2043896"><ele>89.4</ele><time>2026-04-29T10:42:04.5Z</time></trkpt><trkpt lat="33.3009551" lon="9.2044543"><ele>89.0</ele><time>2026-04-29T10:42:05.529Z</time></trkpt><trkpt lat="33.3008738" lon="9.2045204"><ele>89.0</ele><time>2026-04-29T10:42:06.532Z</time></trkpt><trkpt lat="33.3007977" lon="9.2045852"><ele>89.0</ele><time>2026-04-29T10:42:07.52Z</time></trkpt><trkpt lat="33.3007223" lon="9.2046447"><ele>89.0</ele><time>2026-04-29T10:42:08.549Z</time></trkpt><trkpt lat="33.3006493" lon="9.204702"><ele>89.0</ele><time>2026-04-29T10:42:09.516Z</time></trkpt><trkpt lat="33.3005822" lon="9.2047553"><ele>89.0</ele><time>2026-04-29T10:42:10.507Z</time></trkpt><trkpt lat="33.3005097" lon="9.2048095"><ele>89.0</ele><time>2026-04-29T10:42:11.556Z</time></trkpt><trkpt lat="33.3004381" lon="9.2048623"><ele>89.16666666666667</ele><time>2026-04-29T10:42:12.54Z</time></trkpt><trkpt lat="33.3003738" lon="9.2049148"><ele>89.33333333333334</ele><time>2026-04-29T10:42:13.541Z</time></trkpt><trkpt lat="33.3003013" lon="9.2049728"><ele>89.5</ele><time>2026-04-29T10:42:14.55Z</time></trkpt><trkpt lat="33.3002307" lon="9.2050327"><ele>89.66666666666667</ele><time>2026-04-29T10:42:15.54Z</time></trkpt><trkpt lat="33.3001619" lon="9.2050835"><ele>89.83333333333333</ele><time>2026-04-29T10:42:16.554Z</time></trkpt><trkpt lat="33.3001031" lon="9.2051171"><ele>90.0</ele><time>2026-04-29T10:42:17.52Z</time></trkpt><trkpt lat="33.3000467" lon="9.2051531"><ele>90.0</ele><time>2026-04-29T10:42:20.517Z</time></trkpt><trkpt lat="33.2999616" lon="9.2052312"><ele>90.0</ele><time>2026-04-29T10:42:33.55Z</time></trkpt><trkpt lat="33.299895" lon="9.2052833"><ele>90.0</ele><time>2026-04-29T10:42:34.528Z</time></trkpt><trkpt lat="33.2998201" lon="9.2053405"><ele>90.0</ele><time>2026-04-29T10:42:35.557Z</time></trkpt><trkpt lat="33.2997384" lon="9.2054019"><ele>90.0</ele><time>2026-04-29T10:42:36.521Z</time></trkpt><trkpt lat="33.2996503" lon="9.205474"><ele>90.2</ele><time>2026-04-29T10:42:37.512Z</time></trkpt><trkpt lat="33.2995628" lon="9.2055413"><ele>90.4</ele><time>2026-04-29T10:42:38.518Z</time></trkpt><trkpt lat="33.2994741" lon="9.2056099"><ele>90.6</ele><time>2026-04-29T10:42:39.529Z</time></trkpt><trkpt lat="33.2993794" lon="9.2056811"><ele>90.8</ele><time>2026-04-29T10:42:40.5Z</time></trkpt><trkpt lat="33.299288" lon="9.2057521"><ele>91.0</ele><time>2026-04-29T10:42:41.528Z</time></trkpt><trkpt lat="33.2991956" lon="9.2058253"><ele>91.0</ele><time>2026-04-29T10:42:42.532Z</time></trkpt><trkpt lat="33.2991068" lon="9.2058981"><ele>91.0</ele><time>2026-04-29T10:42:43.518Z</time></trkpt><trkpt lat="33.2990194" lon="9.2059647"><ele>91.0</ele><time>2026-04-29T10:42:44.533Z</time></trkpt><trkpt lat="33.2989301" lon="9.2060382"><ele>91.0</ele><time>2026-04-29T10:42:45.512Z</time></trkpt><trkpt lat="33.2988404" lon="9.2061085"><ele>91.0</ele><time>2026-04-29T10:42:46.525Z</time></trkpt><trkpt lat="33.2987476" lon="9.2061815"><ele>91.0</ele><time>2026-04-29T10:42:47.52Z</time></trkpt><trkpt lat="33.2986571" lon="9.20625"><ele>91.0</ele><time>2026-04-29T10:42:48.525Z</time></trkpt><trkpt lat="33.2985647" lon="9.2063245"><ele>91.0</ele><time>2026-04-29T10:42:49.548Z</time></trkpt><trkpt lat="33.2984756" lon="9.2063954"><ele>91.0</ele><time>2026-04-29T10:42:50.541Z</time></trkpt><trkpt lat="33.2983832" lon="9.206469"><ele>91.0</ele><time>2026-04-29T10:42:51.536Z</time></trkpt><trkpt lat="33.2982892" lon="9.2065439"><ele>91.25</ele><time>2026-04-29T10:42:52.55Z</time></trkpt><trkpt lat="33.298197" lon="9.2066165"><ele>91.5</ele><time>2026-04-29T10:42:53.554Z</time></trkpt><trkpt lat="33.298098" lon="9.2066926"><ele>91.75</ele><time>2026-04-29T10:42:54.501Z</time></trkpt><trkpt lat="33.2980015" lon="9.206764"><ele>92.0</ele><time>2026-04-29T10:42:55.523Z</time></trkpt><trkpt lat="33.297907" lon="9.2068386"><ele>92.25</ele><time>2026-04-29T10:42:56.531Z</time></trkpt><trkpt lat="33.2978122" lon="9.2069155"><ele>92.5</ele><time>2026-04-29T10:42:57.531Z</time></trkpt><trkpt lat="33.2977152" lon="9.2069901"><ele>92.75</ele><time>2026-04-29T10:42:58.533Z</time></trkpt><trkpt lat="33.2976164" lon="9.2070662"><ele>93.0</ele><time>2026-04-29T10:42:59.52Z</time></trkpt><trkpt lat="33.2975153" lon="9.2071433"><ele>93.0</ele><time>2026-04-29T10:43:00.55Z</time></trkpt><trkpt lat="33.297417" lon="9.2072178"><ele>93.0</ele><time>2026-04-29T10:43:01.543Z</time></trkpt><trkpt lat="33.2973217" lon="9.2072912"><ele>93.0</ele><time>2026-04-29T10:43:02.533Z</time></trkpt><trkpt lat="33.2972271" lon="9.2073645"><ele>93.0</ele><time>2026-04-29T10:43:03.529Z</time></trkpt><trkpt lat="33.2971328" lon="9.2074403"><ele>93.2</ele><time>2026-04-29T10:43:04.53Z</time></trkpt><trkpt lat="33.2970391" lon="9.2075139"><ele>93.4</ele><time>2026-04-29T10:43:05.536Z</time></trkpt><trkpt lat="33.2969469" lon="9.2075867"><ele>93.60000000000001</ele><time>2026-04-29T10:43:06.535Z</time></trkpt><trkpt lat="33.296857" lon="9.2076557"><ele>93.80000000000001</ele><time>2026-04-29T10:43:07.524Z</time></trkpt><trkpt lat="33.2967645" lon="9.2077249"><ele>94.0</ele><time>2026-04-29T10:43:08.546Z</time></trkpt><trkpt lat="33.2966773" lon="9.2077959"><ele>94.0</ele><time>2026-04-29T10:43:09.543Z</time></trkpt><trkpt lat="33.2965983" lon="9.2078638"><ele>94.0</ele><time>2026-04-29T10:43:10.505Z</time></trkpt><trkpt lat="33.29652" lon="9.2079369"><ele>94.0</ele><time>2026-04-29T10:43:11.555Z</time></trkpt><trkpt lat="33.2964391" lon="9.2080048"><ele>94.0</ele><time>2026-04-29T10:43:12.529Z</time></trkpt><trkpt lat="33.2963563" lon="9.2080735"><ele>94.0</ele><time>2026-04-29T10:43:13.515Z</time></trkpt><trkpt lat="33.2962818" lon="9.2081366"><ele>94.16666666666666</ele><time>2026-04-29T10:43:14.517Z</time></trkpt><trkpt lat="33.2962179" lon="9.2081979"><ele>94.33333333333333</ele><time>2026-04-29T10:43:15.522Z</time></trkpt><trkpt lat="33.2961505" lon="9.2082535"><ele>94.5</ele><time>2026-04-29T10:43:16.522Z</time></trkpt><trkpt lat="33.2960853" lon="9.2083116"><ele>94.66666666666667</ele><time>2026-04-29T10:43:17.512Z</time></trkpt><trkpt lat="33.2960179" lon="9.208371"><ele>94.83333333333334</ele><time>2026-04-29T10:43:18.524Z</time></trkpt><trkpt lat="33.2959501" lon="9.2084227"><ele>95.0</ele><time>2026-04-29T10:43:19.553Z</time></trkpt><trkpt lat="33.2958796" lon="9.2084732"><ele>95.0</ele><time>2026-04-29T10:43:20.533Z</time></trkpt><trkpt lat="33.295807" lon="9.2085332"><ele>95.0</ele><time>2026-04-29T10:43:21.531Z</time></trkpt><trkpt lat="33.2957359" lon="9.2085913"><ele>95.0</ele><time>2026-04-29T10:43:22.545Z</time></trkpt><trkpt lat="33.2956638" lon="9.2086484"><ele>95.0</ele><time>2026-04-29T10:43:23.54Z</time></trkpt><trkpt lat="33.2955898" lon="9.2087075"><ele>95.0</ele><time>2026-04-29T10:43:24.545Z</time></trkpt><trkpt lat="33.2955148" lon="9.2087716"><ele>95.0</ele><time>2026-04-29T10:43:25.521Z</time></trkpt><trkpt lat="33.2954443" lon="9.2088265"><ele>95.5</ele><time>2026-04-29T10:43:26.532Z</time></trkpt><trkpt lat="33.2953754" lon="9.2088819"><ele>96.0</ele><time>2026-04-29T10:43:27.519Z</time></trkpt><trkpt lat="33.2953091" lon="9.208938"><ele>96.5</ele><time>2026-04-29T10:43:28.527Z</time></trkpt><trkpt lat="33.2952436" lon="9.2090038"><ele>97.0</ele><time>2026-04-29T10:43:29.523Z</time></trkpt><trkpt lat="33.2951731" lon="9.2090694"><ele>97.49999999999999</ele><time>2026-04-29T10:43:30.525Z</time></trkpt><trkpt lat="33.2951023" lon="9.2091324"><ele>98.0</ele><time>2026-04-29T10:43:31.534Z</time></trkpt><trkpt lat="33.2950293" lon="9.2091999"><ele>98.0</ele><time>2026-04-29T10:43:32.537Z</time></trkpt><trkpt lat="33.2949508" lon="9.2092741"><ele>98.0</ele><time>2026-04-29T10:43:33.528Z</time></trkpt><trkpt lat="33.2948744" lon="9.2093379"><ele>98.0</ele><time>2026-04-29T10:43:34.547Z</time></trkpt><trkpt lat="33.2947987" lon="9.209407"><ele>98.0</ele><time>2026-04-29T10:43:35.529Z</time></trkpt><trkpt lat="33.2947173" lon="9.2094755"><ele>98.0</ele><time>2026-04-29T10:43:36.528Z</time></trkpt><trkpt lat="33.2946373" lon="9.2095404"><ele>97.80000000000001</ele><time>2026-04-29T10:43:37.519Z</time></trkpt><trkpt lat="33.2945545" lon="9.2096049"><ele>97.6</ele><time>2026-04-29T10:43:38.531Z</time></trkpt><trkpt lat="33.2944734" lon="9.2096695"><ele>97.4</ele><time>2026-04-29T10:43:39.534Z</time></trkpt><trkpt lat="33.2943974" lon="9.2097431"><ele>97.19999999999999</ele><time>2026-04-29T10:43:40.505Z</time></trkpt><trkpt lat="33.294317" lon="9.2098129"><ele>97.0</ele><time>2026-04-29T10:43:41.534Z</time></trkpt><trkpt lat="33.2942372" lon="9.2098825"><ele>97.19999999999999</ele><time>2026-04-29T10:43:42.542Z</time></trkpt><trkpt lat="33.2941596" lon="9.2099547"><ele>97.4</ele><time>2026-04-29T10:43:43.529Z</time></trkpt><trkpt lat="33.2940845" lon="9.2100235"><ele>97.6</ele><time>2026-04-29T10:43:44.544Z</time></trkpt><trkpt lat="33.294008" lon="9.2100922"><ele>97.80000000000001</ele><time>2026-04-29T10:43:45.537Z</time></trkpt><trkpt lat="33.2939293" lon="9.2101573"><ele>98.0</ele><time>2026-04-29T10:43:46.539Z</time></trkpt><trkpt lat="33.2938562" lon="9.2102206"><ele>98.0</ele><time>2026-04-29T10:43:47.52Z</time></trkpt><trkpt lat="33.2937801" lon="9.2102836"><ele>98.0</ele><time>2026-04-29T10:43:48.534Z</time></trkpt><trkpt lat="33.2937088" lon="9.2103481"><ele>98.0</ele><time>2026-04-29T10:43:49.546Z</time></trkpt><trkpt lat="33.2936398" lon="9.2104133"><ele>98.0</ele><time>2026-04-29T10:43:50.534Z</time></trkpt><trkpt lat="33.2935656" lon="9.2104794"><ele>98.0</ele><time>2026-04-29T10:43:51.55Z</time></trkpt><trkpt lat="33.2934913" lon="9.2105474"><ele>98.0</ele><time>2026-04-29T10:43:52.542Z</time></trkpt><trkpt lat="33.2934159" lon="9.2106165"><ele>98.0</ele><time>2026-04-29T10:43:53.494Z</time></trkpt><trkpt lat="33.293342" lon="9.2106843"><ele>98.0</ele><time>2026-04-29T10:43:54.542Z</time></trkpt><trkpt lat="33.2932693" lon="9.2107551"><ele>98.0</ele><time>2026-04-29T10:43:55.505Z</time></trkpt><trkpt lat="33.2931918" lon="9.2108213"><ele>98.0</ele><time>2026-04-29T10:43:56.499Z</time></trkpt><trkpt lat="33.2931168" lon="9.2108842"><ele>97.0</ele><time>2026-04-29T10:43:57.539Z</time></trkpt><trkpt lat="33.2930433" lon="9.2109525"><ele>96.0</ele><time>2026-04-29T10:43:58.544Z</time></trkpt><trkpt lat="33.2929703" lon="9.2110192"><ele>95.0</ele><time>2026-04-29T10:43:59.531Z</time></trkpt><trkpt lat="33.2929008" lon="9.2110864"><ele>94.0</ele><time>2026-04-29T10:44:00.545Z</time></trkpt><trkpt lat="33.2928366" lon="9.2111561"><ele>93.0</ele><time>2026-04-29T10:44:01.542Z</time></trkpt><trkpt lat="33.2927652" lon="9.2112202"><ele>93.0</ele><time>2026-04-29T10:44:02.549Z</time></trkpt><trkpt lat="33.292693" lon="9.2112834"><ele>93.0</ele><time>2026-04-29T10:44:03.538Z</time></trkpt><trkpt lat="33.292626" lon="9.2113437"><ele>93.0</ele><time>2026-04-29T10:44:04.554Z</time></trkpt><trkpt lat="33.2925578" lon="9.2114038"><ele>93.0</ele><time>2026-04-29T10:44:05.532Z</time></trkpt><trkpt lat="33.292495" lon="9.2114616"><ele>93.0</ele><time>2026-04-29T10:44:06.517Z</time></trkpt><trkpt lat="33.2924301" lon="9.211514"><ele>93.0</ele><time>2026-04-29T10:44:07.521Z</time></trkpt><trkpt lat="33.2923625" lon="9.2115719"><ele>93.0</ele><time>2026-04-29T10:44:08.539Z</time></trkpt><trkpt lat="33.2922965" lon="9.2116302"><ele>93.0</ele><time>2026-04-29T10:44:09.542Z</time></trkpt><trkpt lat="33.292229" lon="9.2116931"><ele>93.0</ele><time>2026-04-29T10:44:10.542Z</time></trkpt><trkpt lat="33.292166" lon="9.2117476"><ele>93.0</ele><time>2026-04-29T10:44:11.532Z</time></trkpt><trkpt lat="33.2921069" lon="9.2118068"><ele>93.0</ele><time>2026-04-29T10:44:12.552Z</time></trkpt><trkpt lat="33.2920475" lon="9.2118673"><ele>93.0</ele><time>2026-04-29T10:44:13.519Z</time></trkpt><trkpt lat="33.2919847" lon="9.2119285"><ele>92.66666666666667</ele><time>2026-04-29T10:44:14.55Z</time></trkpt><trkpt lat="33.2919152" lon="9.2119882"><ele>92.33333333333333</ele><time>2026-04-29T10:44:15.541Z</time></trkpt><trkpt lat="33.2918509" lon="9.2120483"><ele>92.0</ele><time>2026-04-29T10:44:16.542Z</time></trkpt><trkpt lat="33.2917874" lon="9.2121059"><ele>91.66666666666666</ele><time>2026-04-29T10:44:17.542Z</time></trkpt><trkpt lat="33.2917211" lon="9.2121697"><ele>91.33333333333333</ele><time>2026-04-29T10:44:18.547Z</time></trkpt><trkpt lat="33.2916574" lon="9.2122306"><ele>91.0</ele><time>2026-04-29T10:44:19.531Z</time></trkpt><trkpt lat="33.2915915" lon="9.2122907"><ele>91.0</ele><time>2026-04-29T10:44:20.555Z</time></trkpt><trkpt lat="33.2915257" lon="9.212354"><ele>91.0</ele><time>2026-04-29T10:44:21.55Z</time></trkpt><trkpt lat="33.2914589" lon="9.2124173"><ele>91.0</ele><time>2026-04-29T10:44:22.534Z</time></trkpt><trkpt lat="33.2913922" lon="9.2124764"><ele>91.0</ele><time>2026-04-29T10:44:23.557Z</time></trkpt><trkpt lat="33.2913249" lon="9.2125344"><ele>91.0</ele><time>2026-04-29T10:44:24.565Z</time></trkpt><trkpt lat="33.2912598" lon="9.2125921"><ele>91.0</ele><time>2026-04-29T10:44:25.559Z</time></trkpt><trkpt lat="33.2911928" lon="9.2126522"><ele>91.16666666666666</ele><time>2026-04-29T10:44:26.548Z</time></trkpt><trkpt lat="33.2911286" lon="9.2127148"><ele>91.33333333333333</ele><time>2026-04-29T10:44:27.555Z</time></trkpt><trkpt lat="33.2910624" lon="9.2127758"><ele>91.5</ele><time>2026-04-29T10:44:28.554Z</time></trkpt><trkpt lat="33.2909932" lon="9.2128385"><ele>91.66666666666667</ele><time>2026-04-29T10:44:29.553Z</time></trkpt><trkpt lat="33.2909259" lon="9.2129003"><ele>91.83333333333334</ele><time>2026-04-29T10:44:30.548Z</time></trkpt><trkpt lat="33.2908608" lon="9.2129651"><ele>92.0</ele><time>2026-04-29T10:44:31.556Z</time></trkpt><trkpt lat="33.2907919" lon="9.2130325"><ele>92.0</ele><time>2026-04-29T10:44:32.543Z</time></trkpt><trkpt lat="33.2907244" lon="9.2130932"><ele>92.0</ele><time>2026-04-29T10:44:33.55Z</time></trkpt><trkpt lat="33.2906592" lon="9.2131529"><ele>92.0</ele><time>2026-04-29T10:44:34.547Z</time></trkpt><trkpt lat="33.2905926" lon="9.2132188"><ele>92.0</ele><time>2026-04-29T10:44:35.545Z</time></trkpt><trkpt lat="33.2905321" lon="9.2132795"><ele>92.0</ele><time>2026-04-29T10:44:36.504Z</time></trkpt><trkpt lat="33.2904725" lon="9.2133403"><ele>92.0</ele><time>2026-04-29T10:44:37.526Z</time></trkpt><trkpt lat="33.2904077" lon="9.2133962"><ele>91.83333333333334</ele><time>2026-04-29T10:44:38.56Z</time></trkpt><trkpt lat="33.2903558" lon="9.2134419"><ele>91.66666666666667</ele><time>2026-04-29T10:44:39.538Z</time></trkpt><trkpt lat="33.2902662" lon="9.2135254"><ele>91.5</ele><time>2026-04-29T10:44:41.527Z</time></trkpt><trkpt lat="33.2902139" lon="9.2135813"><ele>91.33333333333333</ele><time>2026-04-29T10:44:43.548Z</time></trkpt><trkpt lat="33.2901294" lon="9.2136555"><ele>91.16666666666666</ele><time>2026-04-29T10:45:14.527Z</time></trkpt><trkpt lat="33.290062" lon="9.2137221"><ele>91.0</ele><time>2026-04-29T10:45:15.546Z</time></trkpt><trkpt lat="33.2899805" lon="9.2138038"><ele>91.0</ele><time>2026-04-29T10:45:16.546Z</time></trkpt><trkpt lat="33.2898896" lon="9.2138951"><ele>91.0</ele><time>2026-04-29T10:45:17.54Z</time></trkpt><trkpt lat="33.2897989" lon="9.2139924"><ele>91.0</ele><time>2026-04-29T10:45:18.516Z</time></trkpt><trkpt lat="33.2897139" lon="9.2140913"><ele>91.0</ele><time>2026-04-29T10:45:19.512Z</time></trkpt><trkpt lat="33.2896302" lon="9.2141844"><ele>90.8</ele><time>2026-04-29T10:45:20.549Z</time></trkpt><trkpt lat="33.2895461" lon="9.2142766"><ele>90.6</ele><time>2026-04-29T10:45:21.536Z</time></trkpt><trkpt lat="33.2894598" lon="9.2143608"><ele>90.4</ele><time>2026-04-29T10:45:22.548Z</time></trkpt><trkpt lat="33.2893834" lon="9.2144468"><ele>90.2</ele><time>2026-04-29T10:45:23.532Z</time></trkpt><trkpt lat="33.2893031" lon="9.2145335"><ele>90.0</ele><time>2026-04-29T10:45:24.558Z</time></trkpt><trkpt lat="33.2892182" lon="9.2146227"><ele>90.0</ele><time>2026-04-29T10:45:25.541Z</time></trkpt><trkpt lat="33.2891335" lon="9.2147107"><ele>90.0</ele><time>2026-04-29T10:45:26.55Z</time></trkpt><trkpt lat="33.2890509" lon="9.2147988"><ele>90.0</ele><time>2026-04-29T10:45:27.535Z</time></trkpt><trkpt lat="33.2889702" lon="9.2148901"><ele>90.0</ele><time>2026-04-29T10:45:28.549Z</time></trkpt><trkpt lat="33.2888862" lon="9.2149814"><ele>90.0</ele><time>2026-04-29T10:45:29.538Z</time></trkpt><trkpt lat="33.2888004" lon="9.2150705"><ele>90.2</ele><time>2026-04-29T10:45:30.542Z</time></trkpt><trkpt lat="33.2887159" lon="9.2151622"><ele>90.4</ele><time>2026-04-29T10:45:31.548Z</time></trkpt><trkpt lat="33.2886314" lon="9.2152514"><ele>90.6</ele><time>2026-04-29T10:45:32.545Z</time></trkpt><trkpt lat="33.2885465" lon="9.2153384"><ele>90.8</ele><time>2026-04-29T10:45:33.513Z</time></trkpt><trkpt lat="33.288465" lon="9.2154233"><ele>91.0</ele><time>2026-04-29T10:45:34.541Z</time></trkpt><trkpt lat="33.2883837" lon="9.2155098"><ele>91.0</ele><time>2026-04-29T10:45:35.543Z</time></trkpt><trkpt lat="33.2882985" lon="9.2156005"><ele>91.0</ele><time>2026-04-29T10:45:36.551Z</time></trkpt><trkpt lat="33.2882104" lon="9.2156904"><ele>91.0</ele><time>2026-04-29T10:45:37.548Z</time></trkpt><trkpt lat="33.2881153" lon="9.2157864"><ele>91.0</ele><time>2026-04-29T10:45:38.549Z</time></trkpt><trkpt lat="33.288026" lon="9.2158799"><ele>91.4</ele><time>2026-04-29T10:45:39.547Z</time></trkpt><trkpt lat="33.2879376" lon="9.2159763"><ele>91.8</ele><time>2026-04-29T10:45:40.537Z</time></trkpt><trkpt lat="33.2878587" lon="9.2160637"><ele>92.2</ele><time>2026-04-29T10:45:41.546Z</time></trkpt><trkpt lat="33.2877952" lon="9.2161356"><ele>92.60000000000001</ele><time>2026-04-29T10:45:42.508Z</time></trkpt><trkpt lat="33.287707" lon="9.2162322"><ele>93.0</ele><time>2026-04-29T10:45:44.548Z</time></trkpt><trkpt lat="33.287659" lon="9.2162844"><ele>93.0</ele><time>2026-04-29T10:45:45.544Z</time></trkpt><trkpt lat="33.2876053" lon="9.2163334"><ele>93.0</ele><time>2026-04-29T10:45:46.554Z</time></trkpt><trkpt lat="33.2875301" lon="9.2164073"><ele>93.0</ele><time>2026-04-29T10:45:48.558Z</time></trkpt><trkpt lat="33.2874808" lon="9.2164622"><ele>93.0</ele><time>2026-04-29T10:45:52.554Z</time></trkpt><trkpt lat="33.2874228" lon="9.2165391"><ele>93.0</ele><time>2026-04-29T10:46:30.522Z</time></trkpt><trkpt lat="33.2873699" lon="9.2165904"><ele>93.0</ele><time>2026-04-29T10:46:31.518Z</time></trkpt><trkpt lat="33.2873129" lon="9.2166446"><ele>92.83333333333333</ele><time>2026-04-29T10:46:32.539Z</time></trkpt><trkpt lat="33.2872119" lon="9.2167353"><ele>92.66666666666667</ele><time>2026-04-29T10:46:34.553Z</time></trkpt><trkpt lat="33.2871575" lon="9.2167853"><ele>92.5</ele><time>2026-04-29T10:46:35.55Z</time></trkpt><trkpt lat="33.2871077" lon="9.2168336"><ele>92.33333333333334</ele><time>2026-04-29T10:46:36.547Z</time></trkpt><trkpt lat="33.2870532" lon="9.216889"><ele>92.16666666666667</ele><time>2026-04-29T10:46:37.549Z</time></trkpt><trkpt lat="33.2869928" lon="9.2169524"><ele>92.0</ele><time>2026-04-29T10:46:38.513Z</time></trkpt><trkpt lat="33.2869455" lon="9.2170092"><ele>92.0</ele><time>2026-04-29T10:46:39.522Z</time></trkpt><trkpt lat="33.2868928" lon="9.2170694"><ele>92.0</ele><time>2026-04-29T10:46:40.543Z</time></trkpt><trkpt lat="33.2868311" lon="9.2171353"><ele>92.0</ele><time>2026-04-29T10:46:41.521Z</time></trkpt><trkpt lat="33.2867655" lon="9.2172057"><ele>92.0</ele><time>2026-04-29T10:46:42.55Z</time></trkpt><trkpt lat="33.2866931" lon="9.2172793"><ele>92.0</ele><time>2026-04-29T10:46:43.544Z</time></trkpt><trkpt lat="33.2866249" lon="9.217355"><ele>92.0</ele><time>2026-04-29T10:46:44.541Z</time></trkpt><trkpt lat="33.2865559" lon="9.2174308"><ele>92.0</ele><time>2026-04-29T10:46:45.499Z</time></trkpt><trkpt lat="33.2864876" lon="9.2175104"><ele>92.0</ele><time>2026-04-29T10:46:46.543Z</time></trkpt><trkpt lat="33.2864171" lon="9.217594"><ele>92.0</ele><time>2026-04-29T10:46:47.538Z</time></trkpt><trkpt lat="33.2863433" lon="9.2176668"><ele>92.0</ele><time>2026-04-29T10:46:48.542Z</time></trkpt><trkpt lat="33.2862726" lon="9.2177424"><ele>92.0</ele><time>2026-04-29T10:46:49.544Z</time></trkpt><trkpt lat="33.2862006" lon="9.2178217"><ele>91.39999999999999</ele><time>2026-04-29T10:46:50.514Z</time></trkpt><trkpt lat="33.2861198" lon="9.2179"><ele>90.8</ele><time>2026-04-29T10:46:51.528Z</time></trkpt><trkpt lat="33.2860433" lon="9.2179819"><ele>90.2</ele><time>2026-04-29T10:46:52.553Z</time></trkpt><trkpt lat="33.2859657" lon="9.2180635"><ele>89.6</ele><time>2026-04-29T10:46:53.532Z</time></trkpt><trkpt lat="33.2858869" lon="9.2181445"><ele>89.0</ele><time>2026-04-29T10:46:54.532Z</time></trkpt><trkpt lat="33.2858154" lon="9.2182252"><ele>89.0</ele><time>2026-04-29T10:46:55.543Z</time></trkpt><trkpt lat="33.2857428" lon="9.2183093"><ele>89.0</ele><time>2026-04-29T10:46:56.557Z</time></trkpt><trkpt lat="33.2856782" lon="9.2183968"><ele>89.0</ele><time>2026-04-29T10:46:57.545Z</time></trkpt><trkpt lat="33.2856172" lon="9.2184867"><ele>89.0</ele><time>2026-04-29T10:46:58.55Z</time></trkpt><trkpt lat="33.2855416" lon="9.2185662"><ele>89.0</ele><time>2026-04-29T10:46:59.54Z</time></trkpt><trkpt lat="33.2854679" lon="9.2186447"><ele>89.4</ele><time>2026-04-29T10:47:00.554Z</time></trkpt><trkpt lat="33.2853821" lon="9.2187296"><ele>89.80000000000001</ele><time>2026-04-29T10:47:01.543Z</time></trkpt><trkpt lat="33.2853043" lon="9.2188232"><ele>90.19999999999999</ele><time>2026-04-29T10:47:02.545Z</time></trkpt><trkpt lat="33.2852279" lon="9.218909"><ele>90.6</ele><time>2026-04-29T10:47:03.549Z</time></trkpt><trkpt lat="33.2851562" lon="9.2189956"><ele>91.0</ele><time>2026-04-29T10:47:04.542Z</time></trkpt><trkpt lat="33.2850789" lon="9.2190784"><ele>91.19999999999999</ele><time>2026-04-29T10:47:05.536Z</time></trkpt><trkpt lat="33.2849994" lon="9.2191624"><ele>91.39999999999999</ele><time>2026-04-29T10:47:06.53Z</time></trkpt><trkpt lat="33.2849231" lon="9.2192432"><ele>91.6</ele><time>2026-04-29T10:47:07.526Z</time></trkpt><trkpt lat="33.2848522" lon="9.2193262"><ele>91.8</ele><time>2026-04-29T10:47:08.539Z</time></trkpt><trkpt lat="33.2847853" lon="9.2194115"><ele>92.0</ele><time>2026-04-29T10:47:09.531Z</time></trkpt><trkpt lat="33.2847179" lon="9.2194962"><ele>92.0</ele><time>2026-04-29T10:47:10.535Z</time></trkpt><trkpt lat="33.2846464" lon="9.2195774"><ele>92.0</ele><time>2026-04-29T10:47:11.535Z</time></trkpt><trkpt lat="33.2845756" lon="9.2196639"><ele>92.0</ele><time>2026-04-29T10:47:12.506Z</time></trkpt><trkpt lat="33.2845035" lon="9.2197508"><ele>92.0</ele><time>2026-04-29T10:47:13.541Z</time></trkpt><trkpt lat="33.2844392" lon="9.2198374"><ele>92.0</ele><time>2026-04-29T10:47:14.546Z</time></trkpt><trkpt lat="33.2843726" lon="9.2199181"><ele>92.19999999999999</ele><time>2026-04-29T10:47:15.547Z</time></trkpt><trkpt lat="33.2843069" lon="9.2199978"><ele>92.4</ele><time>2026-04-29T10:47:16.537Z</time></trkpt><trkpt lat="33.2842414" lon="9.2200777"><ele>92.6</ele><time>2026-04-29T10:47:17.54Z</time></trkpt><trkpt lat="33.2841716" lon="9.2201533"><ele>92.80000000000001</ele><time>2026-04-29T10:47:18.55Z</time></trkpt><trkpt lat="33.2841095" lon="9.2202335"><ele>93.0</ele><time>2026-04-29T10:47:19.54Z</time></trkpt><trkpt lat="33.28404" lon="9.2203116"><ele>93.0</ele><time>2026-04-29T10:47:20.545Z</time></trkpt><trkpt lat="33.2839641" lon="9.2203921"><ele>93.0</ele><time>2026-04-29T10:47:21.547Z</time></trkpt><trkpt lat="33.2838943" lon="9.2204777"><ele>93.0</ele><time>2026-04-29T10:47:22.512Z</time></trkpt><trkpt lat="33.2838245" lon="9.2205562"><ele>93.0</ele><time>2026-04-29T10:47:23.534Z</time></trkpt><trkpt lat="33.2837571" lon="9.2206414"><ele>93.0</ele><time>2026-04-29T10:47:24.547Z</time></trkpt><trkpt lat="33.2836874" lon="9.22072"><ele>92.60000000000001</ele><time>2026-04-29T10:47:25.507Z</time></trkpt><trkpt lat="33.2836163" lon="9.220806"><ele>92.2</ele><time>2026-04-29T10:47:26.534Z</time></trkpt><trkpt lat="33.2835398" lon="9.2208926"><ele>91.8</ele><time>2026-04-29T10:47:27.555Z</time></trkpt><trkpt lat="33.2834605" lon="9.2209805"><ele>91.4</ele><time>2026-04-29T10:47:28.513Z</time></trkpt><trkpt lat="33.2833867" lon="9.2210652"><ele>91.0</ele><time>2026-04-29T10:47:29.555Z</time></trkpt><trkpt lat="33.2833162" lon="9.2211479"><ele>91.0</ele><time>2026-04-29T10:47:30.538Z</time></trkpt><trkpt lat="33.2832489" lon="9.2212259"><ele>91.0</ele><time>2026-04-29T10:47:31.512Z</time></trkpt><trkpt lat="33.2831839" lon="9.2212995"><ele>91.0</ele><time>2026-04-29T10:47:32.515Z</time></trkpt><trkpt lat="33.2831287" lon="9.2213667"><ele>91.0</ele><time>2026-04-29T10:47:33.633Z</time></trkpt><trkpt lat="33.2830771" lon="9.2214333"><ele>91.0</ele><time>2026-04-29T10:47:34.619Z</time></trkpt><trkpt lat="33.283032" lon="9.2214908"><ele>91.0</ele><time>2026-04-29T10:47:35.591Z</time></trkpt><trkpt lat="33.2829876" lon="9.2215443"><ele>91.0</ele><time>2026-04-29T10:47:37.535Z</time></trkpt><trkpt lat="33.2830714" lon="9.2214509"><ele>91.0</ele><time>2026-04-29T10:49:31.483Z</time></trkpt><trkpt lat="33.2831649" lon="9.221357"><ele>91.0</ele><time>2026-04-29T10:49:33.495Z</time></trkpt><trkpt lat="33.2832518" lon="9.2212562"><ele>91.0</ele><time>2026-04-29T10:49:35.526Z</time></trkpt><trkpt lat="33.2833313" lon="9.2211654"><ele>91.0</ele><time>2026-04-29T10:49:37.503Z</time></trkpt><trkpt lat="33.2833998" lon="9.22108"><ele>91.0</ele><time>2026-04-29T10:49:39.488Z</time></trkpt><trkpt lat="33.283458" lon="9.2210453"><ele>91.0</ele><time>2026-04-29T10:49:42.493Z</time></trkpt><trkpt lat="33.28342" lon="9.2211109"><ele>91.0</ele><time>2026-04-29T10:49:46.509Z</time></trkpt><trkpt lat="33.2833455" lon="9.2211189"><ele>91.0</ele><time>2026-04-29T10:49:50.505Z</time></trkpt><trkpt lat="33.2832749" lon="9.2212129"><ele>91.0</ele><time>2026-04-29T10:49:53.518Z</time></trkpt><trkpt lat="33.2832243" lon="9.221273"><ele>91.0</ele><time>2026-04-29T10:49:54.515Z</time></trkpt><trkpt lat="33.2831816" lon="9.2213297"><ele>91.0</ele><time>2026-04-29T10:49:55.513Z</time></trkpt><trkpt lat="33.2831049" lon="9.2214425"><ele>91.0</ele><time>2026-04-29T10:49:57.514Z</time></trkpt><trkpt lat="33.2830648" lon="9.221503"><ele>91.0</ele><time>2026-04-29T10:49:58.519Z</time></trkpt><trkpt lat="33.2829948" lon="9.221614"><ele>91.0</ele><time>2026-04-29T10:50:00.521Z</time></trkpt><trkpt lat="33.2829323" lon="9.2217117"><ele>91.0</ele><time>2026-04-29T10:50:02.513Z</time></trkpt><trkpt lat="33.2828526" lon="9.2217961"><ele>91.0</ele><time>2026-04-29T10:50:04.531Z</time></trkpt><trkpt lat="33.2828063" lon="9.2218477"><ele>91.0</ele><time>2026-04-29T10:50:05.528Z</time></trkpt><trkpt lat="33.2827514" lon="9.2218889"><ele>91.0</ele><time>2026-04-29T10:50:06.517Z</time></trkpt><trkpt lat="33.28268" lon="9.2219429"><ele>91.0</ele><time>2026-04-29T10:50:08.508Z</time></trkpt><trkpt lat="33.2826156" lon="9.2220056"><ele>91.0</ele><time>2026-04-29T10:50:11.529Z</time></trkpt><trkpt lat="33.2825622" lon="9.2220612"><ele>91.0</ele><time>2026-04-29T10:50:15.515Z</time></trkpt><trkpt lat="33.2825219" lon="9.222146"><ele>91.0</ele><time>2026-04-29T10:50:34.509Z</time></trkpt><trkpt lat="33.282445" lon="9.2222608"><ele>91.0</ele><time>2026-04-29T10:50:36.543Z</time></trkpt><trkpt lat="33.2823765" lon="9.2223518"><ele>91.0</ele><time>2026-04-29T10:50:38.505Z</time></trkpt><trkpt lat="33.2822865" lon="9.222438"><ele>91.0</ele><time>2026-04-29T10:50:40.518Z</time></trkpt><trkpt lat="33.2822335" lon="9.2224884"><ele>91.16666666666666</ele><time>2026-04-29T10:50:41.526Z</time></trkpt><trkpt lat="33.282179" lon="9.2225394"><ele>91.33333333333333</ele><time>2026-04-29T10:50:42.519Z</time></trkpt><trkpt lat="33.2821229" lon="9.2225976"><ele>91.5</ele><time>2026-04-29T10:50:43.51Z</time></trkpt><trkpt lat="33.2820627" lon="9.2226636"><ele>91.66666666666667</ele><time>2026-04-29T10:50:44.523Z</time></trkpt><trkpt lat="33.2819922" lon="9.2227417"><ele>91.83333333333334</ele><time>2026-04-29T10:50:45.527Z</time></trkpt><trkpt lat="33.2819209" lon="9.2228272"><ele>92.0</ele><time>2026-04-29T10:50:46.526Z</time></trkpt><trkpt lat="33.2818482" lon="9.2229107"><ele>92.0</ele><time>2026-04-29T10:50:47.519Z</time></trkpt><trkpt lat="33.28178" lon="9.22299"><ele>92.0</ele><time>2026-04-29T10:50:48.516Z</time></trkpt><trkpt lat="33.2817086" lon="9.2230648"><ele>92.0</ele><time>2026-04-29T10:50:49.513Z</time></trkpt><trkpt lat="33.2816416" lon="9.2231449"><ele>92.0</ele><time>2026-04-29T10:50:50.52Z</time></trkpt><trkpt lat="33.2815695" lon="9.2232271"><ele>92.0</ele><time>2026-04-29T10:50:51.506Z</time></trkpt><trkpt lat="33.2814955" lon="9.2233095"><ele>92.0</ele><time>2026-04-29T10:50:52.515Z</time></trkpt><trkpt lat="33.2814229" lon="9.2233965"><ele>92.0</ele><time>2026-04-29T10:50:53.501Z</time></trkpt><trkpt lat="33.2813493" lon="9.2234853"><ele>92.0</ele><time>2026-04-29T10:50:54.52Z</time></trkpt><trkpt lat="33.2812756" lon="9.2235697"><ele>92.0</ele><time>2026-04-29T10:50:55.513Z</time></trkpt><trkpt lat="33.281202" lon="9.2236604"><ele>92.0</ele><time>2026-04-29T10:50:56.532Z</time></trkpt><trkpt lat="33.2811303" lon="9.2237547"><ele>92.0</ele><time>2026-04-29T10:50:57.52Z</time></trkpt><trkpt lat="33.2810601" lon="9.2238438"><ele>92.0</ele><time>2026-04-29T10:50:58.525Z</time></trkpt><trkpt lat="33.2809944" lon="9.2239306"><ele>92.0</ele><time>2026-04-29T10:50:59.515Z</time></trkpt><trkpt lat="33.2809303" lon="9.2240119"><ele>92.0</ele><time>2026-04-29T10:51:00.524Z</time></trkpt><trkpt lat="33.2808673" lon="9.2240943"><ele>92.0</ele><time>2026-04-29T10:51:01.524Z</time></trkpt><trkpt lat="33.2808047" lon="9.2241798"><ele>91.8</ele><time>2026-04-29T10:51:02.52Z</time></trkpt><trkpt lat="33.280747" lon="9.2242692"><ele>91.6</ele><time>2026-04-29T10:51:03.512Z</time></trkpt><trkpt lat="33.2806899" lon="9.2243641"><ele>91.39999999999999</ele><time>2026-04-29T10:51:04.531Z</time></trkpt><trkpt lat="33.2806373" lon="9.2244522"><ele>91.19999999999999</ele><time>2026-04-29T10:51:05.513Z</time></trkpt><trkpt lat="33.2805866" lon="9.2245311"><ele>91.0</ele><time>2026-04-29T10:51:06.516Z</time></trkpt><trkpt lat="33.2805297" lon="9.2246078"><ele>91.0</ele><time>2026-04-29T10:51:07.521Z</time></trkpt><trkpt lat="33.2804689" lon="9.224692"><ele>91.0</ele><time>2026-04-29T10:51:08.517Z</time></trkpt><trkpt lat="33.2804014" lon="9.2247801"><ele>91.0</ele><time>2026-04-29T10:51:09.53Z</time></trkpt><trkpt lat="33.2803415" lon="9.2248672"><ele>91.0</ele><time>2026-04-29T10:51:10.516Z</time></trkpt><trkpt lat="33.2802896" lon="9.2249549"><ele>91.0</ele><time>2026-04-29T10:51:11.51Z</time></trkpt><trkpt lat="33.2802408" lon="9.2250463"><ele>91.0</ele><time>2026-04-29T10:51:12.527Z</time></trkpt><trkpt lat="33.280189" lon="9.2251298"><ele>91.0</ele><time>2026-04-29T10:51:13.536Z</time></trkpt><trkpt lat="33.2801343" lon="9.2252044"><ele>91.0</ele><time>2026-04-29T10:51:14.52Z</time></trkpt><trkpt lat="33.2800756" lon="9.2252839"><ele>91.0</ele><time>2026-04-29T10:51:15.528Z</time></trkpt><trkpt lat="33.2800291" lon="9.2253638"><ele>91.0</ele><time>2026-04-29T10:51:16.528Z</time></trkpt><trkpt lat="33.2799734" lon="9.2254531"><ele>91.0</ele><time>2026-04-29T10:51:17.552Z</time></trkpt><trkpt lat="33.279923" lon="9.2255498"><ele>91.0</ele><time>2026-04-29T10:51:18.539Z</time></trkpt><trkpt lat="33.2798778" lon="9.22564"><ele>91.0</ele><time>2026-04-29T10:51:19.506Z</time></trkpt><trkpt lat="33.2798311" lon="9.2257302"><ele>91.0</ele><time>2026-04-29T10:51:20.512Z</time></trkpt><trkpt lat="33.2797795" lon="9.2258291"><ele>91.0</ele><time>2026-04-29T10:51:21.53Z</time></trkpt><trkpt lat="33.2797307" lon="9.2259161"><ele>91.0</ele><time>2026-04-29T10:51:22.513Z</time></trkpt><trkpt lat="33.2796768" lon="9.2259993"><ele>91.16666666666666</ele><time>2026-04-29T10:51:23.52Z</time></trkpt><trkpt lat="33.2796216" lon="9.226086"><ele>91.33333333333333</ele><time>2026-04-29T10:51:24.527Z</time></trkpt><trkpt lat="33.2795727" lon="9.2261713"><ele>91.5</ele><time>2026-04-29T10:51:25.536Z</time></trkpt><trkpt lat="33.2795223" lon="9.2262536"><ele>91.66666666666667</ele><time>2026-04-29T10:51:26.517Z</time></trkpt><trkpt lat="33.2794773" lon="9.2263341"><ele>91.83333333333334</ele><time>2026-04-29T10:51:27.527Z</time></trkpt><trkpt lat="33.2794437" lon="9.2264084"><ele>92.0</ele><time>2026-04-29T10:51:28.522Z</time></trkpt><trkpt lat="33.2794159" lon="9.2264812"><ele>92.0</ele><time>2026-04-29T10:51:29.511Z</time></trkpt><trkpt lat="33.2793198" lon="9.2265574"><ele>92.0</ele><time>2026-04-29T10:51:31.541Z</time></trkpt><trkpt lat="33.2792492" lon="9.2266686"><ele>92.0</ele><time>2026-04-29T10:51:33.505Z</time></trkpt><trkpt lat="33.2791888" lon="9.2268128"><ele>92.0</ele><time>2026-04-29T10:51:35.505Z</time></trkpt><trkpt lat="33.2791514" lon="9.2268946"><ele>92.0</ele><time>2026-04-29T10:51:36.508Z</time></trkpt><trkpt lat="33.2791079" lon="9.2269765"><ele>92.0</ele><time>2026-04-29T10:51:37.505Z</time></trkpt><trkpt lat="33.2790536" lon="9.2270549"><ele>92.0</ele><time>2026-04-29T10:51:38.515Z</time></trkpt><trkpt lat="33.2790054" lon="9.2271297"><ele>92.0</ele><time>2026-04-29T10:51:39.511Z</time></trkpt><trkpt lat="33.278953" lon="9.2272077"><ele>92.0</ele><time>2026-04-29T10:51:40.503Z</time></trkpt><trkpt lat="33.2789041" lon="9.2272824"><ele>92.0</ele><time>2026-04-29T10:51:41.527Z</time></trkpt><trkpt lat="33.2788518" lon="9.227361"><ele>92.0</ele><time>2026-04-29T10:51:42.527Z</time></trkpt><trkpt lat="33.2788098" lon="9.2274372"><ele>92.5</ele><time>2026-04-29T10:51:43.502Z</time></trkpt><trkpt lat="33.2787575" lon="9.2275102"><ele>93.0</ele><time>2026-04-29T10:51:44.528Z</time></trkpt><trkpt lat="33.2786969" lon="9.2275692"><ele>93.5</ele><time>2026-04-29T10:51:45.506Z</time></trkpt><trkpt lat="33.2786384" lon="9.2276266"><ele>94.0</ele><time>2026-04-29T10:51:46.519Z</time></trkpt><trkpt lat="33.2785868" lon="9.2276924"><ele>94.5</ele><time>2026-04-29T10:51:47.532Z</time></trkpt><trkpt lat="33.2785362" lon="9.2277728"><ele>95.0</ele><time>2026-04-29T10:51:48.521Z</time></trkpt><trkpt lat="33.2784923" lon="9.2278525"><ele>95.0</ele><time>2026-04-29T10:51:49.512Z</time></trkpt><trkpt lat="33.278448" lon="9.2279262"><ele>95.0</ele><time>2026-04-29T10:51:50.536Z</time></trkpt><trkpt lat="33.2783935" lon="9.2279954"><ele>95.0</ele><time>2026-04-29T10:51:51.52Z</time></trkpt><trkpt lat="33.2783327" lon="9.2280578"><ele>95.0</ele><time>2026-04-29T10:51:52.499Z</time></trkpt><trkpt lat="33.2782748" lon="9.2281319"><ele>95.0</ele><time>2026-04-29T10:51:53.519Z</time></trkpt><trkpt lat="33.2782217" lon="9.2282164"><ele>95.0</ele><time>2026-04-29T10:51:54.5Z</time></trkpt><trkpt lat="33.2781731" lon="9.228299"><ele>94.83333333333334</ele><time>2026-04-29T10:51:55.532Z</time></trkpt><trkpt lat="33.2781238" lon="9.2283889"><ele>94.66666666666667</ele><time>2026-04-29T10:51:56.512Z</time></trkpt><trkpt lat="33.2780674" lon="9.2284803"><ele>94.5</ele><time>2026-04-29T10:51:57.517Z</time></trkpt><trkpt lat="33.2780194" lon="9.2285574"><ele>94.33333333333333</ele><time>2026-04-29T10:51:58.529Z</time></trkpt><trkpt lat="33.2779652" lon="9.2286401"><ele>94.16666666666666</ele><time>2026-04-29T10:51:59.521Z</time></trkpt><trkpt lat="33.2779129" lon="9.2287136"><ele>94.0</ele><time>2026-04-29T10:52:00.52Z</time></trkpt><trkpt lat="33.2778674" lon="9.2287755"><ele>94.33333333333333</ele><time>2026-04-29T10:52:01.498Z</time></trkpt><trkpt lat="33.2778066" lon="9.2288565"><ele>94.66666666666666</ele><time>2026-04-29T10:52:03.508Z</time></trkpt><trkpt lat="33.2777731" lon="9.2289223"><ele>95.0</ele><time>2026-04-29T10:52:16.517Z</time></trkpt><trkpt lat="33.2777191" lon="9.2290061"><ele>95.33333333333333</ele><time>2026-04-29T10:52:18.511Z</time></trkpt><trkpt lat="33.2776688" lon="9.2290751"><ele>95.66666666666667</ele><time>2026-04-29T10:52:19.516Z</time></trkpt><trkpt lat="33.2776258" lon="9.229142"><ele>96.0</ele><time>2026-04-29T10:52:20.52Z</time></trkpt><trkpt lat="33.2775815" lon="9.2292149"><ele>96.16666666666667</ele><time>2026-04-29T10:52:21.507Z</time></trkpt><trkpt lat="33.2775363" lon="9.2292925"><ele>96.33333333333334</ele><time>2026-04-29T10:52:22.527Z</time></trkpt><trkpt lat="33.2774832" lon="9.2293715"><ele>96.5</ele><time>2026-04-29T10:52:23.508Z</time></trkpt><trkpt lat="33.2774304" lon="9.2294505"><ele>96.66666666666667</ele><time>2026-04-29T10:52:24.518Z</time></trkpt><trkpt lat="33.2773814" lon="9.2295242"><ele>96.83333333333334</ele><time>2026-04-29T10:52:25.518Z</time></trkpt><trkpt lat="33.2773291" lon="9.2296023"><ele>97.0</ele><time>2026-04-29T10:52:26.527Z</time></trkpt><trkpt lat="33.2772776" lon="9.2296793"><ele>97.00000000000001</ele><time>2026-04-29T10:52:27.519Z</time></trkpt><trkpt lat="33.2772235" lon="9.2297527"><ele>97.0</ele><time>2026-04-29T10:52:28.515Z</time></trkpt><trkpt lat="33.2771716" lon="9.229828"><ele>97.0</ele><time>2026-04-29T10:52:29.51Z</time></trkpt><trkpt lat="33.2771189" lon="9.2299073"><ele>97.0</ele><time>2026-04-29T10:52:30.519Z</time></trkpt><trkpt lat="33.2770704" lon="9.2299891"><ele>97.00000000000001</ele><time>2026-04-29T10:52:31.506Z</time></trkpt><trkpt lat="33.2770177" lon="9.2300694"><ele>97.0</ele><time>2026-04-29T10:52:32.528Z</time></trkpt><trkpt lat="33.2769642" lon="9.2301483"><ele>97.00000000000001</ele><time>2026-04-29T10:52:33.523Z</time></trkpt><trkpt lat="33.2769132" lon="9.2302275"><ele>97.0</ele><time>2026-04-29T10:52:34.531Z</time></trkpt><trkpt lat="33.2768644" lon="9.2303125"><ele>97.0</ele><time>2026-04-29T10:52:35.503Z</time></trkpt><trkpt lat="33.2768214" lon="9.2303968"><ele>97.0</ele><time>2026-04-29T10:52:36.533Z</time></trkpt><trkpt lat="33.2767805" lon="9.2304751"><ele>97.00000000000001</ele><time>2026-04-29T10:52:37.53Z</time></trkpt><trkpt lat="33.2767326" lon="9.2305494"><ele>97.0</ele><time>2026-04-29T10:52:38.534Z</time></trkpt><trkpt lat="33.2766853" lon="9.2306272"><ele>97.00000000000001</ele><time>2026-04-29T10:52:39.501Z</time></trkpt><trkpt lat="33.2766374" lon="9.2307085"><ele>97.0</ele><time>2026-04-29T10:52:40.506Z</time></trkpt><trkpt lat="33.2765946" lon="9.2307834"><ele>97.0</ele><time>2026-04-29T10:52:41.51Z</time></trkpt><trkpt lat="33.2765447" lon="9.2308634"><ele>97.0</ele><time>2026-04-29T10:52:42.51Z</time></trkpt><trkpt lat="33.2764895" lon="9.23094"><ele>97.00000000000001</ele><time>2026-04-29T10:52:43.508Z</time></trkpt><trkpt lat="33.2764302" lon="9.2310145"><ele>97.0</ele><time>2026-04-29T10:52:44.535Z</time></trkpt><trkpt lat="33.2763708" lon="9.2310873"><ele>97.16666666666667</ele><time>2026-04-29T10:52:45.52Z</time></trkpt><trkpt lat="33.2763161" lon="9.2311662"><ele>97.33333333333334</ele><time>2026-04-29T10:52:46.517Z</time></trkpt><trkpt lat="33.2762621" lon="9.2312454"><ele>97.5</ele><time>2026-04-29T10:52:47.515Z</time></trkpt><trkpt lat="33.2762072" lon="9.2313294"><ele>97.66666666666666</ele><time>2026-04-29T10:52:48.517Z</time></trkpt><trkpt lat="33.276145" lon="9.2314141"><ele>97.83333333333333</ele><time>2026-04-29T10:52:49.52Z</time></trkpt><trkpt lat="33.2760877" lon="9.2314987"><ele>98.0</ele><time>2026-04-29T10:52:50.525Z</time></trkpt><trkpt lat="33.2760315" lon="9.2315793"><ele>98.33333333333333</ele><time>2026-04-29T10:52:51.504Z</time></trkpt><trkpt lat="33.275976" lon="9.2316654"><ele>98.66666666666666</ele><time>2026-04-29T10:52:52.513Z</time></trkpt><trkpt lat="33.2759247" lon="9.2317485"><ele>99.0</ele><time>2026-04-29T10:52:53.514Z</time></trkpt><trkpt lat="33.2758678" lon="9.2318242"><ele>99.33333333333334</ele><time>2026-04-29T10:52:54.515Z</time></trkpt><trkpt lat="33.2758076" lon="9.2319054"><ele>99.66666666666667</ele><time>2026-04-29T10:52:55.505Z</time></trkpt><trkpt lat="33.2757503" lon="9.2319859"><ele>100.0</ele><time>2026-04-29T10:52:56.506Z</time></trkpt><trkpt lat="33.2756912" lon="9.2320631"><ele>100.00000000000001</ele><time>2026-04-29T10:52:57.514Z</time></trkpt><trkpt lat="33.2756288" lon="9.2321385"><ele>100.0</ele><time>2026-04-29T10:52:58.536Z</time></trkpt><trkpt lat="33.2755688" lon="9.2322138"><ele>100.0</ele><time>2026-04-29T10:52:59.517Z</time></trkpt><trkpt lat="33.2755071" lon="9.2322908"><ele>100.0</ele><time>2026-04-29T10:53:00.507Z</time></trkpt><trkpt lat="33.2754507" lon="9.2323712"><ele>100.00000000000001</ele><time>2026-04-29T10:53:01.501Z</time></trkpt><trkpt lat="33.275392" lon="9.2324481"><ele>100.0</ele><time>2026-04-29T10:53:02.521Z</time></trkpt><trkpt lat="33.2753361" lon="9.2325225"><ele>99.66666666666667</ele><time>2026-04-29T10:53:03.515Z</time></trkpt><trkpt lat="33.27528" lon="9.2325987"><ele>99.33333333333334</ele><time>2026-04-29T10:53:04.507Z</time></trkpt><trkpt lat="33.2752243" lon="9.2326729"><ele>99.0</ele><time>2026-04-29T10:53:05.507Z</time></trkpt><trkpt lat="33.2751715" lon="9.2327456"><ele>98.66666666666666</ele><time>2026-04-29T10:53:06.498Z</time></trkpt><trkpt lat="33.275112" lon="9.2328229"><ele>98.33333333333333</ele><time>2026-04-29T10:53:07.516Z</time></trkpt><trkpt lat="33.2750467" lon="9.2329051"><ele>98.0</ele><time>2026-04-29T10:53:08.519Z</time></trkpt><trkpt lat="33.2749824" lon="9.2329918"><ele>98.0</ele><time>2026-04-29T10:53:09.509Z</time></trkpt><trkpt lat="33.2749107" lon="9.2330786"><ele>98.0</ele><time>2026-04-29T10:53:10.517Z</time></trkpt><trkpt lat="33.2748437" lon="9.2331642"><ele>98.0</ele><time>2026-04-29T10:53:11.509Z</time></trkpt><trkpt lat="33.2747787" lon="9.2332482"><ele>98.0</ele><time>2026-04-29T10:53:12.527Z</time></trkpt><trkpt lat="33.2747169" lon="9.2333297"><ele>98.0</ele><time>2026-04-29T10:53:13.518Z</time></trkpt><trkpt lat="33.2746489" lon="9.2334133"><ele>97.60000000000001</ele><time>2026-04-29T10:53:14.527Z</time></trkpt><trkpt lat="33.2745761" lon="9.2335058"><ele>97.2</ele><time>2026-04-29T10:53:15.512Z</time></trkpt><trkpt lat="33.2745003" lon="9.2335982"><ele>96.8</ele><time>2026-04-29T10:53:16.522Z</time></trkpt><trkpt lat="33.2744263" lon="9.2336881"><ele>96.4</ele><time>2026-04-29T10:53:17.499Z</time></trkpt><trkpt lat="33.2743526" lon="9.2337804"><ele>96.0</ele><time>2026-04-29T10:53:18.525Z</time></trkpt><trkpt lat="33.2742694" lon="9.2338823"><ele>95.75</ele><time>2026-04-29T10:53:19.522Z</time></trkpt><trkpt lat="33.2741749" lon="9.2339895"><ele>95.5</ele><time>2026-04-29T10:53:20.527Z</time></trkpt><trkpt lat="33.2740723" lon="9.2341095"><ele>95.25</ele><time>2026-04-29T10:53:21.518Z</time></trkpt><trkpt lat="33.2739583" lon="9.2342364"><ele>95.0</ele><time>2026-04-29T10:53:22.524Z</time></trkpt><trkpt lat="33.2738353" lon="9.2343682"><ele>95.66666666666667</ele><time>2026-04-29T10:53:23.521Z</time></trkpt><trkpt lat="33.2737117" lon="9.2345011"><ele>96.33333333333334</ele><time>2026-04-29T10:53:24.517Z</time></trkpt><trkpt lat="33.2735888" lon="9.2346308"><ele>97.0</ele><time>2026-04-29T10:53:25.518Z</time></trkpt><trkpt lat="33.2734683" lon="9.2347562"><ele>97.0</ele><time>2026-04-29T10:53:26.533Z</time></trkpt><trkpt lat="33.273348" lon="9.2348831"><ele>97.0</ele><time>2026-04-29T10:53:27.507Z</time></trkpt><trkpt lat="33.273222" lon="9.2350082"><ele>97.0</ele><time>2026-04-29T10:53:28.532Z</time></trkpt><trkpt lat="33.273095" lon="9.2351336"><ele>96.33333333333334</ele><time>2026-04-29T10:53:29.514Z</time></trkpt><trkpt lat="33.2729722" lon="9.2352589"><ele>95.66666666666667</ele><time>2026-04-29T10:53:30.509Z</time></trkpt><trkpt lat="33.2728474" lon="9.2353863"><ele>95.0</ele><time>2026-04-29T10:53:31.521Z</time></trkpt><trkpt lat="33.2727268" lon="9.2355091"><ele>95.0</ele><time>2026-04-29T10:53:32.521Z</time></trkpt><trkpt lat="33.272602" lon="9.235633"><ele>95.0</ele><time>2026-04-29T10:53:33.518Z</time></trkpt><trkpt lat="33.2724794" lon="9.2357599"><ele>95.0</ele><time>2026-04-29T10:53:34.511Z</time></trkpt><trkpt lat="33.2723577" lon="9.2358859"><ele>96.33333333333334</ele><time>2026-04-29T10:53:35.51Z</time></trkpt><trkpt lat="33.2722335" lon="9.2360076"><ele>97.66666666666667</ele><time>2026-04-29T10:53:36.505Z</time></trkpt><trkpt lat="33.2721145" lon="9.2361282"><ele>99.0</ele><time>2026-04-29T10:53:37.518Z</time></trkpt><trkpt lat="33.2719934" lon="9.2362494"><ele>99.0</ele><time>2026-04-29T10:53:38.515Z</time></trkpt><trkpt lat="33.2718713" lon="9.236373"><ele>99.0</ele><time>2026-04-29T10:53:39.513Z</time></trkpt><trkpt lat="33.2717524" lon="9.2364986"><ele>99.0</ele><time>2026-04-29T10:53:40.515Z</time></trkpt><trkpt lat="33.271633" lon="9.2366239"><ele>98.66666666666666</ele><time>2026-04-29T10:53:41.51Z</time></trkpt><trkpt lat="33.2715138" lon="9.2367507"><ele>98.33333333333333</ele><time>2026-04-29T10:53:42.512Z</time></trkpt><trkpt lat="33.2713953" lon="9.2368746"><ele>98.0</ele><time>2026-04-29T10:53:43.509Z</time></trkpt><trkpt lat="33.2712728" lon="9.2370024"><ele>98.0</ele><time>2026-04-29T10:53:44.521Z</time></trkpt><trkpt lat="33.2711536" lon="9.2371292"><ele>98.0</ele><time>2026-04-29T10:53:45.523Z</time></trkpt><trkpt lat="33.2710297" lon="9.2372538"><ele>98.0</ele><time>2026-04-29T10:53:46.51Z</time></trkpt><trkpt lat="33.2709016" lon="9.2373771"><ele>97.66666666666666</ele><time>2026-04-29T10:53:47.526Z</time></trkpt><trkpt lat="33.2707755" lon="9.2375024"><ele>97.33333333333334</ele><time>2026-04-29T10:53:48.527Z</time></trkpt><trkpt lat="33.2706488" lon="9.2376216"><ele>97.0</ele><time>2026-04-29T10:53:49.544Z</time></trkpt><trkpt lat="33.2705234" lon="9.2377481"><ele>97.66666666666667</ele><time>2026-04-29T10:53:50.522Z</time></trkpt><trkpt lat="33.2704052" lon="9.2378733"><ele>98.33333333333334</ele><time>2026-04-29T10:53:51.506Z</time></trkpt><trkpt lat="33.2702821" lon="9.2379961"><ele>99.0</ele><time>2026-04-29T10:53:52.52Z</time></trkpt><trkpt lat="33.2701596" lon="9.2381175"><ele>98.0</ele><time>2026-04-29T10:53:53.518Z</time></trkpt><trkpt lat="33.2700418" lon="9.2382362"><ele>97.0</ele><time>2026-04-29T10:53:54.524Z</time></trkpt><trkpt lat="33.26992" lon="9.2383543"><ele>96.0</ele><time>2026-04-29T10:53:55.517Z</time></trkpt><trkpt lat="33.2698028" lon="9.2384731"><ele>97.0</ele><time>2026-04-29T10:53:56.518Z</time></trkpt><trkpt lat="33.2696885" lon="9.2385911"><ele>98.0</ele><time>2026-04-29T10:53:57.518Z</time></trkpt><trkpt lat="33.2695713" lon="9.2387089"><ele>99.0</ele><time>2026-04-29T10:53:58.528Z</time></trkpt><trkpt lat="33.2694586" lon="9.2388265"><ele>99.0</ele><time>2026-04-29T10:53:59.535Z</time></trkpt><trkpt lat="33.26934" lon="9.2389417"><ele>99.0</ele><time>2026-04-29T10:54:00.515Z</time></trkpt><trkpt lat="33.2692244" lon="9.2390614"><ele>99.0</ele><time>2026-04-29T10:54:01.504Z</time></trkpt><trkpt lat="33.269106" lon="9.2391799"><ele>99.0</ele><time>2026-04-29T10:54:02.513Z</time></trkpt><trkpt lat="33.2689917" lon="9.2392948"><ele>99.0</ele><time>2026-04-29T10:54:03.505Z</time></trkpt><trkpt lat="33.2688731" lon="9.2394092"><ele>99.0</ele><time>2026-04-29T10:54:04.531Z</time></trkpt><trkpt lat="33.268754" lon="9.2395277"><ele>99.0</ele><time>2026-04-29T10:54:05.556Z</time></trkpt><trkpt lat="33.2686324" lon="9.2396493"><ele>99.0</ele><time>2026-04-29T10:54:06.529Z</time></trkpt><trkpt lat="33.268516" lon="9.2397671"><ele>99.0</ele><time>2026-04-29T10:54:07.514Z</time></trkpt><trkpt lat="33.2683972" lon="9.2398887"><ele>99.0</ele><time>2026-04-29T10:54:08.528Z</time></trkpt><trkpt lat="33.2682763" lon="9.2400085"><ele>99.0</ele><time>2026-04-29T10:54:09.522Z</time></trkpt><trkpt lat="33.2681558" lon="9.2401299"><ele>99.0</ele><time>2026-04-29T10:54:10.53Z</time></trkpt><trkpt lat="33.2680349" lon="9.2402484"><ele>98.33333333333334</ele><time>2026-04-29T10:54:11.514Z</time></trkpt><trkpt lat="33.2679102" lon="9.2403719"><ele>97.66666666666667</ele><time>2026-04-29T10:54:12.523Z</time></trkpt><trkpt lat="33.26779" lon="9.2404935"><ele>97.0</ele><time>2026-04-29T10:54:13.508Z</time></trkpt><trkpt lat="33.2676679" lon="9.240619"><ele>97.33333333333334</ele><time>2026-04-29T10:54:14.506Z</time></trkpt><trkpt lat="33.2675466" lon="9.2407426"><ele>97.66666666666666</ele><time>2026-04-29T10:54:15.511Z</time></trkpt><trkpt lat="33.2674223" lon="9.2408658"><ele>98.0</ele><time>2026-04-29T10:54:16.509Z</time></trkpt><trkpt lat="33.2673024" lon="9.2409884"><ele>98.33333333333333</ele><time>2026-04-29T10:54:17.512Z</time></trkpt><trkpt lat="33.2671794" lon="9.2411135"><ele>98.66666666666666</ele><time>2026-04-29T10:54:18.51Z</time></trkpt><trkpt lat="33.267055" lon="9.241241"><ele>99.0</ele><time>2026-04-29T10:54:19.53Z</time></trkpt><trkpt lat="33.2669303" lon="9.241367"><ele>100.66666666666666</ele><time>2026-04-29T10:54:20.51Z</time></trkpt><trkpt lat="33.2668086" lon="9.2414953"><ele>102.33333333333333</ele><time>2026-04-29T10:54:21.521Z</time></trkpt><trkpt lat="33.2666835" lon="9.2416165"><ele>104.0</ele><time>2026-04-29T10:54:22.527Z</time></trkpt><trkpt lat="33.2665644" lon="9.2417414"><ele>102.33333333333333</ele><time>2026-04-29T10:54:23.531Z</time></trkpt><trkpt lat="33.2664414" lon="9.2418666"><ele>100.66666666666666</ele><time>2026-04-29T10:54:24.527Z</time></trkpt><trkpt lat="33.2663197" lon="9.2419876"><ele>99.0</ele><time>2026-04-29T10:54:25.521Z</time></trkpt><trkpt lat="33.2661947" lon="9.242112"><ele>99.0</ele><time>2026-04-29T10:54:26.511Z</time></trkpt><trkpt lat="33.2660676" lon="9.2422308"><ele>99.0</ele><time>2026-04-29T10:54:27.523Z</time></trkpt><trkpt lat="33.2659447" lon="9.2423583"><ele>99.0</ele><time>2026-04-29T10:54:28.505Z</time></trkpt><trkpt lat="33.265813" lon="9.2424826"><ele>99.33333333333334</ele><time>2026-04-29T10:54:29.517Z</time></trkpt><trkpt lat="33.2656867" lon="9.2426135"><ele>99.66666666666667</ele><time>2026-04-29T10:54:30.513Z</time></trkpt><trkpt lat="33.265562" lon="9.2427421"><ele>100.0</ele><time>2026-04-29T10:54:31.523Z</time></trkpt><trkpt lat="33.2654389" lon="9.2428701"><ele>100.0</ele><time>2026-04-29T10:54:32.525Z</time></trkpt><trkpt lat="33.2653094" lon="9.2430065"><ele>100.0</ele><time>2026-04-29T10:54:33.524Z</time></trkpt><trkpt lat="33.2651816" lon="9.2431374"><ele>100.0</ele><time>2026-04-29T10:54:34.516Z</time></trkpt><trkpt lat="33.2650532" lon="9.2432688"><ele>100.0</ele><time>2026-04-29T10:54:35.506Z</time></trkpt><trkpt lat="33.264923" lon="9.2434034"><ele>100.0</ele><time>2026-04-29T10:54:36.526Z</time></trkpt><trkpt lat="33.2648" lon="9.243536"><ele>100.0</ele><time>2026-04-29T10:54:37.515Z</time></trkpt><trkpt lat="33.2646731" lon="9.2436673"><ele>100.0</ele><time>2026-04-29T10:54:38.517Z</time></trkpt><trkpt lat="33.2645429" lon="9.2437919"><ele>100.0</ele><time>2026-04-29T10:54:39.508Z</time></trkpt><trkpt lat="33.2644107" lon="9.2439218"><ele>100.0</ele><time>2026-04-29T10:54:40.502Z</time></trkpt><trkpt lat="33.2642791" lon="9.2440501"><ele>100.0</ele><time>2026-04-29T10:54:41.524Z</time></trkpt><trkpt lat="33.2641514" lon="9.2441842"><ele>100.0</ele><time>2026-04-29T10:54:42.517Z</time></trkpt><trkpt lat="33.2640268" lon="9.2443156"><ele>100.0</ele><time>2026-04-29T10:54:43.512Z</time></trkpt><trkpt lat="33.2639002" lon="9.2444477"><ele>100.0</ele><time>2026-04-29T10:54:44.529Z</time></trkpt><trkpt lat="33.2637754" lon="9.2445744"><ele>100.0</ele><time>2026-04-29T10:54:45.506Z</time></trkpt><trkpt lat="33.2636519" lon="9.2447028"><ele>100.0</ele><time>2026-04-29T10:54:46.504Z</time></trkpt><trkpt lat="33.2635237" lon="9.2448295"><ele>100.0</ele><time>2026-04-29T10:54:47.52Z</time></trkpt><trkpt lat="33.2633943" lon="9.2449597"><ele>100.0</ele><time>2026-04-29T10:54:48.523Z</time></trkpt><trkpt lat="33.2632646" lon="9.2450851"><ele>100.0</ele><time>2026-04-29T10:54:49.503Z</time></trkpt><trkpt lat="33.2631366" lon="9.2452157"><ele>100.66666666666667</ele><time>2026-04-29T10:54:50.525Z</time></trkpt><trkpt lat="33.2630104" lon="9.2453472"><ele>101.33333333333334</ele><time>2026-04-29T10:54:51.519Z</time></trkpt><trkpt lat="33.2628826" lon="9.2454741"><ele>102.0</ele><time>2026-04-29T10:54:52.518Z</time></trkpt><trkpt lat="33.262752" lon="9.2455981"><ele>101.25</ele><time>2026-04-29T10:54:53.515Z</time></trkpt><trkpt lat="33.2626338" lon="9.2457166"><ele>100.5</ele><time>2026-04-29T10:54:54.525Z</time></trkpt><trkpt lat="33.2625291" lon="9.2458268"><ele>99.75</ele><time>2026-04-29T10:54:55.528Z</time></trkpt><trkpt lat="33.2624193" lon="9.2459324"><ele>99.0</ele><time>2026-04-29T10:54:56.523Z</time></trkpt><trkpt lat="33.2623191" lon="9.2460324"><ele>98.80000000000001</ele><time>2026-04-29T10:54:57.52Z</time></trkpt><trkpt lat="33.2622288" lon="9.2461262"><ele>98.60000000000001</ele><time>2026-04-29T10:54:58.55Z</time></trkpt><trkpt lat="33.2621445" lon="9.2462143"><ele>98.4</ele><time>2026-04-29T10:54:59.515Z</time></trkpt><trkpt lat="33.2620628" lon="9.2462951"><ele>98.2</ele><time>2026-04-29T10:55:00.505Z</time></trkpt><trkpt lat="33.2619795" lon="9.2463742"><ele>98.0</ele><time>2026-04-29T10:55:01.52Z</time></trkpt><trkpt lat="33.2619063" lon="9.2464472"><ele>98.16666666666666</ele><time>2026-04-29T10:55:02.531Z</time></trkpt><trkpt lat="33.2618404" lon="9.2465139"><ele>98.33333333333333</ele><time>2026-04-29T10:55:03.521Z</time></trkpt><trkpt lat="33.2617759" lon="9.2465734"><ele>98.5</ele><time>2026-04-29T10:55:04.526Z</time></trkpt><trkpt lat="33.2617227" lon="9.2466295"><ele>98.66666666666666</ele><time>2026-04-29T10:55:05.519Z</time></trkpt><trkpt lat="33.2616734" lon="9.2466781"><ele>98.83333333333333</ele><time>2026-04-29T10:55:06.51Z</time></trkpt><trkpt lat="33.2615927" lon="9.2467664"><ele>99.0</ele><time>2026-04-29T10:55:08.525Z</time></trkpt><trkpt lat="33.2615256" lon="9.2468381"><ele>99.0</ele><time>2026-04-29T10:55:10.512Z</time></trkpt><trkpt lat="33.2614725" lon="9.2469019"><ele>99.0</ele><time>2026-04-29T10:55:12.527Z</time></trkpt><trkpt lat="33.2614195" lon="9.2469642"><ele>99.0</ele><time>2026-04-29T10:55:14.5Z</time></trkpt><trkpt lat="33.2613594" lon="9.2470157"><ele>99.0</ele><time>2026-04-29T10:55:16.519Z</time></trkpt><trkpt lat="33.2612992" lon="9.2470571"><ele>99.0</ele><time>2026-04-29T10:55:18.519Z</time></trkpt><trkpt lat="33.2612231" lon="9.2471147"><ele>99.0</ele><time>2026-04-29T10:55:20.51Z</time></trkpt><trkpt lat="33.2611375" lon="9.2471951"><ele>99.33333333333333</ele><time>2026-04-29T10:55:22.508Z</time></trkpt><trkpt lat="33.2610771" lon="9.2472473"><ele>99.66666666666666</ele><time>2026-04-29T10:55:24.515Z</time></trkpt><trkpt lat="33.2611623" lon="9.247225"><ele>100.0</ele><time>2026-04-29T10:55:31.502Z</time></trkpt><trkpt lat="33.2612188" lon="9.2471633"><ele>100.33333333333333</ele><time>2026-04-29T10:55:33.505Z</time></trkpt><trkpt lat="33.2612719" lon="9.2471109"><ele>100.66666666666666</ele><time>2026-04-29T10:55:35.519Z</time></trkpt><trkpt lat="33.2613405" lon="9.2470525"><ele>101.0</ele><time>2026-04-29T10:55:38.529Z</time></trkpt><trkpt lat="33.2614073" lon="9.2470258"><ele>101.0</ele><time>2026-04-29T10:55:42.524Z</time></trkpt></trkseg><trkseg><trkpt lat="33.2614972" lon="9.2469104"><ele>99.0</ele><time>2026-04-29T11:49:21.506Z</time></trkpt><trkpt lat="33.2615686" lon="9.2468298"><ele>99.0</ele><time>2026-04-29T11:49:22.505Z</time></trkpt><trkpt lat="33.2616573" lon="9.246746"><ele>99.0</ele><time>2026-04-29T11:49:23.512Z</time></trkpt><trkpt lat="33.2619679" lon="9.246414"><ele>99.0</ele><time>2026-04-29T11:49:26.539Z</time></trkpt><trkpt lat="33.2620714" lon="9.2463035"><ele>99.0</ele><time>2026-04-29T11:49:27.529Z</time></trkpt><trkpt lat="33.2621773" lon="9.2461924"><ele>99.0</ele><time>2026-04-29T11:49:28.501Z</time></trkpt><trkpt lat="33.2622845" lon="9.2460838"><ele>99.0</ele><time>2026-04-29T11:49:29.496Z</time></trkpt><trkpt lat="33.2624011" lon="9.2459694"><ele>99.0</ele><time>2026-04-29T11:49:30.513Z</time></trkpt><trkpt lat="33.2625099" lon="9.2458502"><ele>99.0</ele><time>2026-04-29T11:49:31.504Z</time></trkpt><trkpt lat="33.2626312" lon="9.2457345"><ele>99.0</ele><time>2026-04-29T11:49:32.51Z</time></trkpt><trkpt lat="33.2627493" lon="9.2456107"><ele>100.0</ele><time>2026-04-29T11:49:33.51Z</time></trkpt><trkpt lat="33.262867" lon="9.2454916"><ele>101.0</ele><time>2026-04-29T11:49:34.519Z</time></trkpt><trkpt lat="33.2629875" lon="9.2453715"><ele>102.0</ele><time>2026-04-29T11:49:35.545Z</time></trkpt><trkpt lat="33.2631105" lon="9.2452525"><ele>101.33333333333334</ele><time>2026-04-29T11:49:36.523Z</time></trkpt><trkpt lat="33.263231" lon="9.2451333"><ele>100.66666666666667</ele><time>2026-04-29T11:49:37.511Z</time></trkpt><trkpt lat="33.2633544" lon="9.2450102"><ele>100.0</ele><time>2026-04-29T11:49:38.511Z</time></trkpt><trkpt lat="33.2634814" lon="9.2448872"><ele>100.33333333333334</ele><time>2026-04-29T11:49:39.515Z</time></trkpt><trkpt lat="33.2636023" lon="9.2447644"><ele>100.66666666666666</ele><time>2026-04-29T11:49:40.514Z</time></trkpt><trkpt lat="33.2637231" lon="9.2446401"><ele>101.0</ele><time>2026-04-29T11:49:41.535Z</time></trkpt><trkpt lat="33.2638489" lon="9.2445175"><ele>100.66666666666666</ele><time>2026-04-29T11:49:42.507Z</time></trkpt><trkpt lat="33.2639714" lon="9.2443918"><ele>100.33333333333334</ele><time>2026-04-29T11:49:43.517Z</time></trkpt><trkpt lat="33.2640928" lon="9.2442671"><ele>100.0</ele><time>2026-04-29T11:49:44.513Z</time></trkpt><trkpt lat="33.2642172" lon="9.2441454"><ele>100.0</ele><time>2026-04-29T11:49:45.519Z</time></trkpt><trkpt lat="33.2643428" lon="9.2440163"><ele>100.0</ele><time>2026-04-29T11:49:46.523Z</time></trkpt><trkpt lat="33.2644651" lon="9.2438922"><ele>100.0</ele><time>2026-04-29T11:49:47.536Z</time></trkpt><trkpt lat="33.2645857" lon="9.2437695"><ele>100.0</ele><time>2026-04-29T11:49:48.527Z</time></trkpt><trkpt lat="33.2646969" lon="9.2436567"><ele>100.0</ele><time>2026-04-29T11:49:49.523Z</time></trkpt><trkpt lat="33.2648" lon="9.2435501"><ele>100.0</ele><time>2026-04-29T11:49:50.523Z</time></trkpt><trkpt lat="33.2648994" lon="9.2434558"><ele>100.0</ele><time>2026-04-29T11:49:51.52Z</time></trkpt><trkpt lat="33.2649994" lon="9.2433609"><ele>100.0</ele><time>2026-04-29T11:49:52.566Z</time></trkpt><trkpt lat="33.2650998" lon="9.2432529"><ele>100.0</ele><time>2026-04-29T11:49:53.525Z</time></trkpt><trkpt lat="33.2652138" lon="9.2431369"><ele>100.0</ele><time>2026-04-29T11:49:54.53Z</time></trkpt><trkpt lat="33.2653295" lon="9.2430163"><ele>100.0</ele><time>2026-04-29T11:49:55.521Z</time></trkpt><trkpt lat="33.2654504" lon="9.2428934"><ele>100.0</ele><time>2026-04-29T11:49:56.525Z</time></trkpt><trkpt lat="33.2655702" lon="9.242771"><ele>100.0</ele><time>2026-04-29T11:49:57.541Z</time></trkpt><trkpt lat="33.2656923" lon="9.2426487"><ele>100.0</ele><time>2026-04-29T11:49:58.531Z</time></trkpt><trkpt lat="33.2658113" lon="9.2425242"><ele>100.0</ele><time>2026-04-29T11:49:59.526Z</time></trkpt><trkpt lat="33.2659262" lon="9.2424052"><ele>100.0</ele><time>2026-04-29T11:50:00.525Z</time></trkpt><trkpt lat="33.2660412" lon="9.2422904"><ele>100.0</ele><time>2026-04-29T11:50:01.54Z</time></trkpt><trkpt lat="33.2661532" lon="9.242178"><ele>100.0</ele><time>2026-04-29T11:50:02.534Z</time></trkpt><trkpt lat="33.2662666" lon="9.2420673"><ele>99.75</ele><time>2026-04-29T11:50:03.53Z</time></trkpt><trkpt lat="33.2663759" lon="9.2419555"><ele>99.5</ele><time>2026-04-29T11:50:04.527Z</time></trkpt><trkpt lat="33.2664867" lon="9.2418454"><ele>99.25</ele><time>2026-04-29T11:50:05.527Z</time></trkpt><trkpt lat="33.266598" lon="9.2417301"><ele>99.0</ele><time>2026-04-29T11:50:06.536Z</time></trkpt><trkpt lat="33.2667104" lon="9.2416163"><ele>99.0</ele><time>2026-04-29T11:50:07.536Z</time></trkpt><trkpt lat="33.2668241" lon="9.2414962"><ele>99.0</ele><time>2026-04-29T11:50:08.517Z</time></trkpt><trkpt lat="33.2669378" lon="9.2413838"><ele>99.0</ele><time>2026-04-29T11:50:09.528Z</time></trkpt><trkpt lat="33.2670562" lon="9.2412624"><ele>99.0</ele><time>2026-04-29T11:50:10.558Z</time></trkpt><trkpt lat="33.2671762" lon="9.2411443"><ele>99.0</ele><time>2026-04-29T11:50:11.528Z</time></trkpt><trkpt lat="33.2672965" lon="9.2410237"><ele>99.0</ele><time>2026-04-29T11:50:12.526Z</time></trkpt><trkpt lat="33.267417" lon="9.2409003"><ele>98.66666666666666</ele><time>2026-04-29T11:50:13.532Z</time></trkpt><trkpt lat="33.2675421" lon="9.2407779"><ele>98.33333333333333</ele><time>2026-04-29T11:50:14.536Z</time></trkpt><trkpt lat="33.2676657" lon="9.2406542"><ele>98.0</ele><time>2026-04-29T11:50:15.538Z</time></trkpt><trkpt lat="33.2677849" lon="9.2405314"><ele>97.66666666666666</ele><time>2026-04-29T11:50:16.529Z</time></trkpt><trkpt lat="33.2679093" lon="9.2404078"><ele>97.33333333333334</ele><time>2026-04-29T11:50:17.53Z</time></trkpt><trkpt lat="33.2680319" lon="9.2402802"><ele>97.0</ele><time>2026-04-29T11:50:18.529Z</time></trkpt><trkpt lat="33.2681519" lon="9.2401573"><ele>97.66666666666667</ele><time>2026-04-29T11:50:19.548Z</time></trkpt><trkpt lat="33.2682726" lon="9.2400313"><ele>98.33333333333334</ele><time>2026-04-29T11:50:20.524Z</time></trkpt><trkpt lat="33.2683885" lon="9.2399172"><ele>99.0</ele><time>2026-04-29T11:50:21.542Z</time></trkpt><trkpt lat="33.2685056" lon="9.2398017"><ele>99.0</ele><time>2026-04-29T11:50:22.534Z</time></trkpt><trkpt lat="33.2686232" lon="9.2396874"><ele>99.0</ele><time>2026-04-29T11:50:23.523Z</time></trkpt><trkpt lat="33.2687378" lon="9.2395735"><ele>99.0</ele><time>2026-04-29T11:50:24.518Z</time></trkpt><trkpt lat="33.2688508" lon="9.2394585"><ele>99.0</ele><time>2026-04-29T11:50:25.54Z</time></trkpt><trkpt lat="33.2689671" lon="9.2393428"><ele>99.0</ele><time>2026-04-29T11:50:26.531Z</time></trkpt><trkpt lat="33.2690795" lon="9.2392313"><ele>99.0</ele><time>2026-04-29T11:50:27.526Z</time></trkpt><trkpt lat="33.2691949" lon="9.2391199"><ele>99.0</ele><time>2026-04-29T11:50:28.531Z</time></trkpt><trkpt lat="33.2693114" lon="9.2390062"><ele>99.0</ele><time>2026-04-29T11:50:29.529Z</time></trkpt><trkpt lat="33.2694245" lon="9.238895"><ele>99.0</ele><time>2026-04-29T11:50:30.55Z</time></trkpt><trkpt lat="33.269537" lon="9.2387804"><ele>99.0</ele><time>2026-04-29T11:50:31.54Z</time></trkpt><trkpt lat="33.2696475" lon="9.2386687"><ele>99.0</ele><time>2026-04-29T11:50:32.526Z</time></trkpt><trkpt lat="33.2697569" lon="9.238552"><ele>99.0</ele><time>2026-04-29T11:50:33.517Z</time></trkpt><trkpt lat="33.2698665" lon="9.2384417"><ele>99.0</ele><time>2026-04-29T11:50:34.508Z</time></trkpt><trkpt lat="33.2699745" lon="9.2383329"><ele>99.0</ele><time>2026-04-29T11:50:35.515Z</time></trkpt><trkpt lat="33.2700775" lon="9.2382355"><ele>99.0</ele><time>2026-04-29T11:50:36.553Z</time></trkpt><trkpt lat="33.2701734" lon="9.2381341"><ele>99.0</ele><time>2026-04-29T11:50:37.561Z</time></trkpt><trkpt lat="33.2702698" lon="9.2380376"><ele>99.0</ele><time>2026-04-29T11:50:38.525Z</time></trkpt><trkpt lat="33.2703669" lon="9.2379422"><ele>99.0</ele><time>2026-04-29T11:50:39.507Z</time></trkpt><trkpt lat="33.2704679" lon="9.237837"><ele>99.0</ele><time>2026-04-29T11:50:40.523Z</time></trkpt><trkpt lat="33.2705687" lon="9.2377361"><ele>99.0</ele><time>2026-04-29T11:50:41.516Z</time></trkpt><trkpt lat="33.2706694" lon="9.237638"><ele>98.75</ele><time>2026-04-29T11:50:42.537Z</time></trkpt><trkpt lat="33.2707734" lon="9.2375359"><ele>98.5</ele><time>2026-04-29T11:50:43.56Z</time></trkpt><trkpt lat="33.2708743" lon="9.2374419"><ele>98.25</ele><time>2026-04-29T11:50:44.533Z</time></trkpt><trkpt lat="33.2709629" lon="9.2373475"><ele>98.0</ele><time>2026-04-29T11:50:45.538Z</time></trkpt><trkpt lat="33.2710482" lon="9.2372563"><ele>98.0</ele><time>2026-04-29T11:50:46.541Z</time></trkpt><trkpt lat="33.2711314" lon="9.2371702"><ele>98.0</ele><time>2026-04-29T11:50:47.56Z</time></trkpt><trkpt lat="33.2712174" lon="9.2370807"><ele>98.0</ele><time>2026-04-29T11:50:48.55Z</time></trkpt><trkpt lat="33.271301" lon="9.2369882"><ele>98.0</ele><time>2026-04-29T11:50:49.537Z</time></trkpt><trkpt lat="33.2713844" lon="9.2368955"><ele>97.75</ele><time>2026-04-29T11:50:50.556Z</time></trkpt><trkpt lat="33.2714713" lon="9.2368025"><ele>97.5</ele><time>2026-04-29T11:50:51.514Z</time></trkpt><trkpt lat="33.2715583" lon="9.2367104"><ele>97.25</ele><time>2026-04-29T11:50:52.555Z</time></trkpt><trkpt lat="33.2716416" lon="9.2366207"><ele>97.0</ele><time>2026-04-29T11:50:53.542Z</time></trkpt><trkpt lat="33.2717235" lon="9.2365305"><ele>97.39999999999999</ele><time>2026-04-29T11:50:54.533Z</time></trkpt><trkpt lat="33.2718081" lon="9.2364412"><ele>97.8</ele><time>2026-04-29T11:50:55.556Z</time></trkpt><trkpt lat="33.271887" lon="9.2363585"><ele>98.2</ele><time>2026-04-29T11:50:56.575Z</time></trkpt><trkpt lat="33.2719688" lon="9.236278"><ele>98.6</ele><time>2026-04-29T11:50:57.559Z</time></trkpt><trkpt lat="33.2720477" lon="9.2361964"><ele>99.0</ele><time>2026-04-29T11:50:58.549Z</time></trkpt><trkpt lat="33.2721289" lon="9.23612"><ele>99.0</ele><time>2026-04-29T11:50:59.523Z</time></trkpt><trkpt lat="33.2722192" lon="9.2360429"><ele>99.0</ele><time>2026-04-29T11:51:00.516Z</time></trkpt><trkpt lat="33.272314" lon="9.2359644"><ele>99.0</ele><time>2026-04-29T11:51:01.556Z</time></trkpt><trkpt lat="33.2724099" lon="9.2358748"><ele>99.0</ele><time>2026-04-29T11:51:02.552Z</time></trkpt><trkpt lat="33.272509" lon="9.2357837"><ele>98.6</ele><time>2026-04-29T11:51:03.543Z</time></trkpt><trkpt lat="33.2726041" lon="9.2356926"><ele>98.2</ele><time>2026-04-29T11:51:04.552Z</time></trkpt><trkpt lat="33.2726866" lon="9.2356052"><ele>97.8</ele><time>2026-04-29T11:51:05.527Z</time></trkpt><trkpt lat="33.2727675" lon="9.2355211"><ele>97.39999999999999</ele><time>2026-04-29T11:51:06.535Z</time></trkpt><trkpt lat="33.2728454" lon="9.23544"><ele>97.0</ele><time>2026-04-29T11:51:07.551Z</time></trkpt><trkpt lat="33.2729241" lon="9.2353571"><ele>97.0</ele><time>2026-04-29T11:51:08.56Z</time></trkpt><trkpt lat="33.2730056" lon="9.2352764"><ele>97.0</ele><time>2026-04-29T11:51:09.54Z</time></trkpt><trkpt lat="33.2730865" lon="9.2351912"><ele>97.0</ele><time>2026-04-29T11:51:10.57Z</time></trkpt><trkpt lat="33.2731685" lon="9.2350987"><ele>97.0</ele><time>2026-04-29T11:51:11.543Z</time></trkpt><trkpt lat="33.2732531" lon="9.2350119"><ele>97.0</ele><time>2026-04-29T11:51:12.539Z</time></trkpt><trkpt lat="33.2733359" lon="9.2349273"><ele>97.0</ele><time>2026-04-29T11:51:13.533Z</time></trkpt><trkpt lat="33.2734146" lon="9.2348389"><ele>97.0</ele><time>2026-04-29T11:51:14.54Z</time></trkpt><trkpt lat="33.2735018" lon="9.234747"><ele>97.0</ele><time>2026-04-29T11:51:15.555Z</time></trkpt><trkpt lat="33.2735876" lon="9.2346545"><ele>97.0</ele><time>2026-04-29T11:51:16.536Z</time></trkpt><trkpt lat="33.2736693" lon="9.2345674"><ele>97.0</ele><time>2026-04-29T11:51:17.557Z</time></trkpt><trkpt lat="33.273749" lon="9.2344831"><ele>97.0</ele><time>2026-04-29T11:51:18.553Z</time></trkpt><trkpt lat="33.2738272" lon="9.2343978"><ele>97.0</ele><time>2026-04-29T11:51:19.539Z</time></trkpt><trkpt lat="33.2739082" lon="9.2343094"><ele>97.0</ele><time>2026-04-29T11:51:20.553Z</time></trkpt><trkpt lat="33.2739846" lon="9.2342279"><ele>97.0</ele><time>2026-04-29T11:51:21.532Z</time></trkpt><trkpt lat="33.2740606" lon="9.2341504"><ele>97.0</ele><time>2026-04-29T11:51:22.561Z</time></trkpt><trkpt lat="33.2741376" lon="9.2340656"><ele>96.8</ele><time>2026-04-29T11:51:23.558Z</time></trkpt><trkpt lat="33.2742094" lon="9.2339824"><ele>96.6</ele><time>2026-04-29T11:51:24.556Z</time></trkpt><trkpt lat="33.2742874" lon="9.2338965"><ele>96.39999999999999</ele><time>2026-04-29T11:51:25.547Z</time></trkpt><trkpt lat="33.2743648" lon="9.2338056"><ele>96.19999999999999</ele><time>2026-04-29T11:51:26.529Z</time></trkpt><trkpt lat="33.274435" lon="9.2337135"><ele>96.0</ele><time>2026-04-29T11:51:27.549Z</time></trkpt><trkpt lat="33.2744947" lon="9.2336302"><ele>96.0</ele><time>2026-04-29T11:51:28.524Z</time></trkpt><trkpt lat="33.2745551" lon="9.2335587"><ele>96.0</ele><time>2026-04-29T11:51:29.526Z</time></trkpt><trkpt lat="33.2746157" lon="9.2334797"><ele>96.0</ele><time>2026-04-29T11:51:30.553Z</time></trkpt><trkpt lat="33.2746789" lon="9.2333998"><ele>96.0</ele><time>2026-04-29T11:51:31.554Z</time></trkpt><trkpt lat="33.2747484" lon="9.2333086"><ele>96.0</ele><time>2026-04-29T11:51:32.55Z</time></trkpt><trkpt lat="33.2748172" lon="9.2332178"><ele>96.4</ele><time>2026-04-29T11:51:33.549Z</time></trkpt><trkpt lat="33.274882" lon="9.2331299"><ele>96.8</ele><time>2026-04-29T11:51:34.549Z</time></trkpt><trkpt lat="33.2749466" lon="9.2330517"><ele>97.2</ele><time>2026-04-29T11:51:35.525Z</time></trkpt><trkpt lat="33.275008" lon="9.2329749"><ele>97.60000000000001</ele><time>2026-04-29T11:51:36.625Z</time></trkpt><trkpt lat="33.2750684" lon="9.2328946"><ele>98.0</ele><time>2026-04-29T11:51:37.612Z</time></trkpt><trkpt lat="33.2751289" lon="9.2328126"><ele>97.99999999999999</ele><time>2026-04-29T11:51:38.617Z</time></trkpt><trkpt lat="33.2751876" lon="9.2327388"><ele>98.0</ele><time>2026-04-29T11:51:39.567Z</time></trkpt><trkpt lat="33.2752518" lon="9.2326602"><ele>98.0</ele><time>2026-04-29T11:51:40.541Z</time></trkpt><trkpt lat="33.2753112" lon="9.2325815"><ele>98.0</ele><time>2026-04-29T11:51:41.554Z</time></trkpt><trkpt lat="33.2753738" lon="9.2325002"><ele>97.99999999999999</ele><time>2026-04-29T11:51:42.555Z</time></trkpt><trkpt lat="33.275436" lon="9.2324219"><ele>98.0</ele><time>2026-04-29T11:51:43.561Z</time></trkpt><trkpt lat="33.2754901" lon="9.2323549"><ele>97.83333333333333</ele><time>2026-04-29T11:51:44.565Z</time></trkpt><trkpt lat="33.2755509" lon="9.2322757"><ele>97.66666666666666</ele><time>2026-04-29T11:51:46.543Z</time></trkpt><trkpt lat="33.2755889" lon="9.2322152"><ele>97.5</ele><time>2026-04-29T11:51:49.548Z</time></trkpt><trkpt lat="33.275631" lon="9.2321493"><ele>97.33333333333334</ele><time>2026-04-29T11:52:28.56Z</time></trkpt><trkpt lat="33.2757187" lon="9.2320463"><ele>97.16666666666667</ele><time>2026-04-29T11:52:30.558Z</time></trkpt><trkpt lat="33.2757644" lon="9.231976"><ele>97.0</ele><time>2026-04-29T11:52:31.551Z</time></trkpt><trkpt lat="33.2758165" lon="9.2319017"><ele>97.6</ele><time>2026-04-29T11:52:32.556Z</time></trkpt><trkpt lat="33.2758791" lon="9.2318215"><ele>98.19999999999999</ele><time>2026-04-29T11:52:33.557Z</time></trkpt><trkpt lat="33.2759342" lon="9.2317346"><ele>98.8</ele><time>2026-04-29T11:52:34.553Z</time></trkpt><trkpt lat="33.2759945" lon="9.2316537"><ele>99.4</ele><time>2026-04-29T11:52:35.506Z</time></trkpt><trkpt lat="33.2760511" lon="9.2315696"><ele>100.0</ele><time>2026-04-29T11:52:36.515Z</time></trkpt><trkpt lat="33.2761147" lon="9.2314869"><ele>99.66666666666667</ele><time>2026-04-29T11:52:37.506Z</time></trkpt><trkpt lat="33.2761763" lon="9.231408"><ele>99.33333333333334</ele><time>2026-04-29T11:52:38.532Z</time></trkpt><trkpt lat="33.2762296" lon="9.2313283"><ele>99.0</ele><time>2026-04-29T11:52:39.55Z</time></trkpt><trkpt lat="33.2762788" lon="9.2312516"><ele>98.66666666666666</ele><time>2026-04-29T11:52:40.554Z</time></trkpt><trkpt lat="33.2763293" lon="9.231172"><ele>98.33333333333333</ele><time>2026-04-29T11:52:41.51Z</time></trkpt><trkpt lat="33.2763757" lon="9.2310975"><ele>98.0</ele><time>2026-04-29T11:52:42.503Z</time></trkpt><trkpt lat="33.276428" lon="9.2310186"><ele>97.83333333333333</ele><time>2026-04-29T11:52:43.54Z</time></trkpt><trkpt lat="33.2764878" lon="9.2309446"><ele>97.66666666666666</ele><time>2026-04-29T11:52:44.572Z</time></trkpt><trkpt lat="33.2765397" lon="9.230865"><ele>97.5</ele><time>2026-04-29T11:52:45.506Z</time></trkpt><trkpt lat="33.2765902" lon="9.2307929"><ele>97.33333333333334</ele><time>2026-04-29T11:52:46.538Z</time></trkpt><trkpt lat="33.2766356" lon="9.2307229"><ele>97.16666666666667</ele><time>2026-04-29T11:52:47.543Z</time></trkpt><trkpt lat="33.276681" lon="9.2306533"><ele>97.0</ele><time>2026-04-29T11:52:48.558Z</time></trkpt><trkpt lat="33.2767258" lon="9.2305748"><ele>97.00000000000001</ele><time>2026-04-29T11:52:49.545Z</time></trkpt><trkpt lat="33.2767664" lon="9.2304928"><ele>97.0</ele><time>2026-04-29T11:52:50.543Z</time></trkpt><trkpt lat="33.2768199" lon="9.2304175"><ele>97.0</ele><time>2026-04-29T11:52:51.552Z</time></trkpt><trkpt lat="33.2768723" lon="9.2303409"><ele>97.0</ele><time>2026-04-29T11:52:52.555Z</time></trkpt><trkpt lat="33.2769213" lon="9.230264"><ele>97.00000000000001</ele><time>2026-04-29T11:52:53.56Z</time></trkpt><trkpt lat="33.2769803" lon="9.2301887"><ele>97.0</ele><time>2026-04-29T11:52:54.545Z</time></trkpt><trkpt lat="33.2770337" lon="9.2301082"><ele>97.00000000000001</ele><time>2026-04-29T11:52:55.549Z</time></trkpt><trkpt lat="33.2770859" lon="9.2300254"><ele>97.0</ele><time>2026-04-29T11:52:56.564Z</time></trkpt><trkpt lat="33.2771264" lon="9.2299436"><ele>97.0</ele><time>2026-04-29T11:52:57.539Z</time></trkpt><trkpt lat="33.2771685" lon="9.2298639"><ele>97.0</ele><time>2026-04-29T11:52:58.527Z</time></trkpt><trkpt lat="33.2772193" lon="9.2297789"><ele>97.00000000000001</ele><time>2026-04-29T11:52:59.557Z</time></trkpt><trkpt lat="33.2772828" lon="9.2296863"><ele>97.0</ele><time>2026-04-29T11:53:00.566Z</time></trkpt><trkpt lat="33.2773512" lon="9.2295809"><ele>97.0</ele><time>2026-04-29T11:53:01.551Z</time></trkpt><trkpt lat="33.2774273" lon="9.2294737"><ele>97.0</ele><time>2026-04-29T11:53:02.525Z</time></trkpt><trkpt lat="33.2774922" lon="9.2293702"><ele>97.0</ele><time>2026-04-29T11:53:03.536Z</time></trkpt><trkpt lat="33.2775558" lon="9.229278"><ele>97.0</ele><time>2026-04-29T11:53:04.563Z</time></trkpt><trkpt lat="33.2776202" lon="9.2291858"><ele>97.0</ele><time>2026-04-29T11:53:05.554Z</time></trkpt><trkpt lat="33.2776909" lon="9.2290724"><ele>96.75</ele><time>2026-04-29T11:53:06.544Z</time></trkpt><trkpt lat="33.2777611" lon="9.2289626"><ele>96.5</ele><time>2026-04-29T11:53:07.541Z</time></trkpt><trkpt lat="33.2778332" lon="9.2288475"><ele>96.25</ele><time>2026-04-29T11:53:08.541Z</time></trkpt><trkpt lat="33.2779072" lon="9.2287294"><ele>96.0</ele><time>2026-04-29T11:53:09.54Z</time></trkpt><trkpt lat="33.2779795" lon="9.228617"><ele>96.0</ele><time>2026-04-29T11:53:10.548Z</time></trkpt><trkpt lat="33.278051" lon="9.2285049"><ele>96.0</ele><time>2026-04-29T11:53:11.534Z</time></trkpt><trkpt lat="33.2781173" lon="9.2283909"><ele>96.0</ele><time>2026-04-29T11:53:12.535Z</time></trkpt><trkpt lat="33.2781814" lon="9.2282915"><ele>96.0</ele><time>2026-04-29T11:53:13.547Z</time></trkpt><trkpt lat="33.2782377" lon="9.2281878"><ele>96.0</ele><time>2026-04-29T11:53:14.562Z</time></trkpt><trkpt lat="33.2782997" lon="9.2280934"><ele>95.8</ele><time>2026-04-29T11:53:15.523Z</time></trkpt><trkpt lat="33.2783603" lon="9.2279977"><ele>95.6</ele><time>2026-04-29T11:53:16.554Z</time></trkpt><trkpt lat="33.2784217" lon="9.2279028"><ele>95.4</ele><time>2026-04-29T11:53:17.551Z</time></trkpt><trkpt lat="33.2784856" lon="9.2278117"><ele>95.2</ele><time>2026-04-29T11:53:18.535Z</time></trkpt><trkpt lat="33.278553" lon="9.2277294"><ele>95.0</ele><time>2026-04-29T11:53:19.559Z</time></trkpt><trkpt lat="33.2786194" lon="9.2276372"><ele>95.0</ele><time>2026-04-29T11:53:20.548Z</time></trkpt><trkpt lat="33.2786894" lon="9.2275413"><ele>95.0</ele><time>2026-04-29T11:53:21.538Z</time></trkpt><trkpt lat="33.2787594" lon="9.2274548"><ele>95.0</ele><time>2026-04-29T11:53:22.54Z</time></trkpt><trkpt lat="33.2788207" lon="9.2273672"><ele>95.0</ele><time>2026-04-29T11:53:23.547Z</time></trkpt><trkpt lat="33.2788725" lon="9.2272816"><ele>95.0</ele><time>2026-04-29T11:53:24.538Z</time></trkpt><trkpt lat="33.2789251" lon="9.2271953"><ele>94.4</ele><time>2026-04-29T11:53:25.535Z</time></trkpt><trkpt lat="33.2789854" lon="9.2270988"><ele>93.8</ele><time>2026-04-29T11:53:26.528Z</time></trkpt><trkpt lat="33.2790531" lon="9.227005"><ele>93.19999999999999</ele><time>2026-04-29T11:53:27.523Z</time></trkpt><trkpt lat="33.2791227" lon="9.2269024"><ele>92.6</ele><time>2026-04-29T11:53:28.556Z</time></trkpt><trkpt lat="33.279187" lon="9.2267976"><ele>92.0</ele><time>2026-04-29T11:53:29.55Z</time></trkpt><trkpt lat="33.2792507" lon="9.2267003"><ele>92.0</ele><time>2026-04-29T11:53:30.555Z</time></trkpt><trkpt lat="33.2793108" lon="9.2266005"><ele>92.0</ele><time>2026-04-29T11:53:31.554Z</time></trkpt><trkpt lat="33.2793633" lon="9.226501"><ele>92.0</ele><time>2026-04-29T11:53:32.522Z</time></trkpt><trkpt lat="33.2794175" lon="9.2263963"><ele>92.0</ele><time>2026-04-29T11:53:33.544Z</time></trkpt><trkpt lat="33.2794666" lon="9.2263002"><ele>92.0</ele><time>2026-04-29T11:53:34.525Z</time></trkpt><trkpt lat="33.2795204" lon="9.2262103"><ele>92.19999999999999</ele><time>2026-04-29T11:53:35.517Z</time></trkpt><trkpt lat="33.2795769" lon="9.2261194"><ele>92.4</ele><time>2026-04-29T11:53:36.556Z</time></trkpt><trkpt lat="33.279637" lon="9.2260287"><ele>92.6</ele><time>2026-04-29T11:53:37.503Z</time></trkpt><trkpt lat="33.2797025" lon="9.2259278"><ele>92.80000000000001</ele><time>2026-04-29T11:53:38.535Z</time></trkpt><trkpt lat="33.2797643" lon="9.2258323"><ele>93.0</ele><time>2026-04-29T11:53:39.548Z</time></trkpt><trkpt lat="33.2798199" lon="9.2257356"><ele>93.0</ele><time>2026-04-29T11:53:40.545Z</time></trkpt><trkpt lat="33.2798733" lon="9.2256474"><ele>93.0</ele><time>2026-04-29T11:53:41.539Z</time></trkpt><trkpt lat="33.2799231" lon="9.2255601"><ele>93.0</ele><time>2026-04-29T11:53:42.547Z</time></trkpt><trkpt lat="33.279974" lon="9.2254642"><ele>93.0</ele><time>2026-04-29T11:53:43.518Z</time></trkpt><trkpt lat="33.2800261" lon="9.2253679"><ele>93.0</ele><time>2026-04-29T11:53:44.524Z</time></trkpt><trkpt lat="33.2800878" lon="9.2252685"><ele>92.66666666666667</ele><time>2026-04-29T11:53:45.54Z</time></trkpt><trkpt lat="33.2801542" lon="9.2251681"><ele>92.33333333333333</ele><time>2026-04-29T11:53:46.543Z</time></trkpt><trkpt lat="33.2802186" lon="9.2250737"><ele>92.0</ele><time>2026-04-29T11:53:47.518Z</time></trkpt><trkpt lat="33.2802683" lon="9.2249865"><ele>91.66666666666666</ele><time>2026-04-29T11:53:48.535Z</time></trkpt><trkpt lat="33.2803158" lon="9.2249097"><ele>91.33333333333333</ele><time>2026-04-29T11:53:49.524Z</time></trkpt><trkpt lat="33.2803595" lon="9.2248443"><ele>91.0</ele><time>2026-04-29T11:53:50.551Z</time></trkpt><trkpt lat="33.2804007" lon="9.2247795"><ele>91.0</ele><time>2026-04-29T11:53:51.551Z</time></trkpt><trkpt lat="33.2804453" lon="9.2247097"><ele>91.0</ele><time>2026-04-29T11:53:52.522Z</time></trkpt><trkpt lat="33.2804934" lon="9.2246335"><ele>91.0</ele><time>2026-04-29T11:53:53.539Z</time></trkpt><trkpt lat="33.2805423" lon="9.2245588"><ele>91.0</ele><time>2026-04-29T11:53:54.535Z</time></trkpt><trkpt lat="33.2806003" lon="9.2244832"><ele>91.0</ele><time>2026-04-29T11:53:55.548Z</time></trkpt><trkpt lat="33.280654" lon="9.2244029"><ele>91.0</ele><time>2026-04-29T11:53:56.549Z</time></trkpt><trkpt lat="33.2807153" lon="9.2243181"><ele>91.19999999999999</ele><time>2026-04-29T11:53:57.528Z</time></trkpt><trkpt lat="33.2807813" lon="9.2242256"><ele>91.39999999999999</ele><time>2026-04-29T11:53:58.531Z</time></trkpt><trkpt lat="33.2808508" lon="9.2241362"><ele>91.6</ele><time>2026-04-29T11:53:59.547Z</time></trkpt><trkpt lat="33.2809224" lon="9.224041"><ele>91.8</ele><time>2026-04-29T11:54:00.543Z</time></trkpt><trkpt lat="33.2809922" lon="9.2239557"><ele>92.0</ele><time>2026-04-29T11:54:01.524Z</time></trkpt><trkpt lat="33.2810549" lon="9.22388"><ele>92.0</ele><time>2026-04-29T11:54:02.552Z</time></trkpt><trkpt lat="33.2811054" lon="9.2238199"><ele>92.0</ele><time>2026-04-29T11:54:03.574Z</time></trkpt><trkpt lat="33.2811468" lon="9.2237623"><ele>92.0</ele><time>2026-04-29T11:54:04.554Z</time></trkpt><trkpt lat="33.2812285" lon="9.223655"><ele>92.0</ele><time>2026-04-29T11:54:06.553Z</time></trkpt><trkpt lat="33.2812722" lon="9.2236002"><ele>92.0</ele><time>2026-04-29T11:54:07.531Z</time></trkpt><trkpt lat="33.2813405" lon="9.2235146"><ele>92.0</ele><time>2026-04-29T11:54:09.555Z</time></trkpt><trkpt lat="33.2814028" lon="9.2234421"><ele>92.0</ele><time>2026-04-29T11:54:12.55Z</time></trkpt><trkpt lat="33.2814502" lon="9.2233849"><ele>92.0</ele><time>2026-04-29T11:54:15.58Z</time></trkpt><trkpt lat="33.2814956" lon="9.2233175"><ele>92.0</ele><time>2026-04-29T11:54:19.548Z</time></trkpt><trkpt lat="33.2815601" lon="9.2232346"><ele>92.0</ele><time>2026-04-29T11:54:21.551Z</time></trkpt><trkpt lat="33.2816506" lon="9.2231302"><ele>92.0</ele><time>2026-04-29T11:54:23.555Z</time></trkpt><trkpt lat="33.2816996" lon="9.2230821"><ele>92.0</ele><time>2026-04-29T11:54:24.534Z</time></trkpt><trkpt lat="33.2817512" lon="9.2230238"><ele>92.0</ele><time>2026-04-29T11:54:26.553Z</time></trkpt><trkpt lat="33.281821" lon="9.2229399"><ele>92.0</ele><time>2026-04-29T11:54:52.546Z</time></trkpt><trkpt lat="33.2819144" lon="9.2228419"><ele>92.0</ele><time>2026-04-29T11:54:54.557Z</time></trkpt><trkpt lat="33.2819689" lon="9.2227766"><ele>92.0</ele><time>2026-04-29T11:54:55.667Z</time></trkpt><trkpt lat="33.2820294" lon="9.2227002"><ele>92.0</ele><time>2026-04-29T11:54:56.629Z</time></trkpt><trkpt lat="33.2820917" lon="9.2226288"><ele>92.0</ele><time>2026-04-29T11:54:57.609Z</time></trkpt><trkpt lat="33.2821587" lon="9.2225576"><ele>92.0</ele><time>2026-04-29T11:54:58.573Z</time></trkpt><trkpt lat="33.2822222" lon="9.2224817"><ele>92.0</ele><time>2026-04-29T11:54:59.617Z</time></trkpt><trkpt lat="33.2822808" lon="9.2224104"><ele>92.0</ele><time>2026-04-29T11:55:00.613Z</time></trkpt><trkpt lat="33.282341" lon="9.2223404"><ele>92.0</ele><time>2026-04-29T11:55:01.579Z</time></trkpt><trkpt lat="33.2823972" lon="9.2222803"><ele>92.0</ele><time>2026-04-29T11:55:02.612Z</time></trkpt><trkpt lat="33.2824496" lon="9.2222201"><ele>91.83333333333334</ele><time>2026-04-29T11:55:03.533Z</time></trkpt><trkpt lat="33.2825068" lon="9.2221533"><ele>91.66666666666667</ele><time>2026-04-29T11:55:04.545Z</time></trkpt><trkpt lat="33.2825693" lon="9.2220858"><ele>91.5</ele><time>2026-04-29T11:55:05.569Z</time></trkpt><trkpt lat="33.2826292" lon="9.2220159"><ele>91.33333333333333</ele><time>2026-04-29T11:55:06.55Z</time></trkpt><trkpt lat="33.2826886" lon="9.2219513"><ele>91.16666666666666</ele><time>2026-04-29T11:55:07.549Z</time></trkpt><trkpt lat="33.2827404" lon="9.2218869"><ele>91.0</ele><time>2026-04-29T11:55:08.562Z</time></trkpt><trkpt lat="33.2827742" lon="9.2218225"><ele>91.0</ele><time>2026-04-29T11:55:14.56Z</time></trkpt><trkpt lat="33.282856" lon="9.2217104"><ele>91.0</ele><time>2026-04-29T11:55:16.547Z</time></trkpt><trkpt lat="33.2829113" lon="9.2216484"><ele>91.0</ele><time>2026-04-29T11:55:17.554Z</time></trkpt><trkpt lat="33.2829652" lon="9.2215859"><ele>91.0</ele><time>2026-04-29T11:55:18.549Z</time></trkpt><trkpt lat="33.2830134" lon="9.2215235"><ele>91.0</ele><time>2026-04-29T11:55:19.535Z</time></trkpt><trkpt lat="33.2830696" lon="9.22147"><ele>91.0</ele><time>2026-04-29T11:55:20.541Z</time></trkpt><trkpt lat="33.283131" lon="9.2214094"><ele>91.0</ele><time>2026-04-29T11:55:21.533Z</time></trkpt><trkpt lat="33.2831817" lon="9.2213509"><ele>91.0</ele><time>2026-04-29T11:55:22.55Z</time></trkpt><trkpt lat="33.2832305" lon="9.2212881"><ele>91.0</ele><time>2026-04-29T11:55:23.546Z</time></trkpt><trkpt lat="33.2832744" lon="9.2212287"><ele>91.0</ele><time>2026-04-29T11:55:24.54Z</time></trkpt><trkpt lat="33.2833186" lon="9.2211655"><ele>91.0</ele><time>2026-04-29T11:55:25.545Z</time></trkpt><trkpt lat="33.283372" lon="9.2211069"><ele>91.0</ele><time>2026-04-29T11:55:26.547Z</time></trkpt><trkpt lat="33.2834288" lon="9.2210548"><ele>91.0</ele><time>2026-04-29T11:55:27.558Z</time></trkpt><trkpt lat="33.2834911" lon="9.2209914"><ele>91.0</ele><time>2026-04-29T11:55:28.541Z</time></trkpt><trkpt lat="33.2835452" lon="9.2209275"><ele>91.0</ele><time>2026-04-29T11:55:29.597Z</time></trkpt><trkpt lat="33.2835954" lon="9.2208579"><ele>91.0</ele><time>2026-04-29T11:55:30.554Z</time></trkpt><trkpt lat="33.2836474" lon="9.2207897"><ele>91.0</ele><time>2026-04-29T11:55:31.532Z</time></trkpt><trkpt lat="33.283705" lon="9.2207222"><ele>91.0</ele><time>2026-04-29T11:55:32.55Z</time></trkpt><trkpt lat="33.2837632" lon="9.2206511"><ele>91.0</ele><time>2026-04-29T11:55:33.558Z</time></trkpt><trkpt lat="33.2838195" lon="9.2205799"><ele>91.0</ele><time>2026-04-29T11:55:34.532Z</time></trkpt><trkpt lat="33.2838712" lon="9.2205092"><ele>91.0</ele><time>2026-04-29T11:55:35.531Z</time></trkpt><trkpt lat="33.2839293" lon="9.2204377"><ele>91.0</ele><time>2026-04-29T11:55:36.551Z</time></trkpt><trkpt lat="33.2839847" lon="9.220365"><ele>91.0</ele><time>2026-04-29T11:55:37.53Z</time></trkpt><trkpt lat="33.2840433" lon="9.2202909"><ele>91.0</ele><time>2026-04-29T11:55:38.554Z</time></trkpt><trkpt lat="33.2841043" lon="9.2202219"><ele>91.0</ele><time>2026-04-29T11:55:39.543Z</time></trkpt><trkpt lat="33.2841641" lon="9.220151"><ele>91.16666666666666</ele><time>2026-04-29T11:55:40.547Z</time></trkpt><trkpt lat="33.2842257" lon="9.2200764"><ele>91.33333333333333</ele><time>2026-04-29T11:55:41.537Z</time></trkpt><trkpt lat="33.2842884" lon="9.2200077"><ele>91.5</ele><time>2026-04-29T11:55:42.555Z</time></trkpt><trkpt lat="33.2843483" lon="9.2199413"><ele>91.66666666666667</ele><time>2026-04-29T11:55:43.555Z</time></trkpt><trkpt lat="33.2844033" lon="9.2198738"><ele>91.83333333333334</ele><time>2026-04-29T11:55:44.574Z</time></trkpt><trkpt lat="33.2844571" lon="9.2198153"><ele>92.0</ele><time>2026-04-29T11:55:45.537Z</time></trkpt><trkpt lat="33.2845034" lon="9.2197637"><ele>92.0</ele><time>2026-04-29T11:55:46.542Z</time></trkpt><trkpt lat="33.2845838" lon="9.2196528"><ele>92.0</ele><time>2026-04-29T11:55:48.543Z</time></trkpt><trkpt lat="33.2846315" lon="9.2196026"><ele>92.0</ele><time>2026-04-29T11:55:49.549Z</time></trkpt><trkpt lat="33.2846776" lon="9.2195453"><ele>92.0</ele><time>2026-04-29T11:55:50.543Z</time></trkpt><trkpt lat="33.2847296" lon="9.219486"><ele>92.0</ele><time>2026-04-29T11:55:51.529Z</time></trkpt><trkpt lat="33.2847822" lon="9.2194243"><ele>92.0</ele><time>2026-04-29T11:55:52.546Z</time></trkpt><trkpt lat="33.2848307" lon="9.2193699"><ele>92.39999999999999</ele><time>2026-04-29T11:55:53.549Z</time></trkpt><trkpt lat="33.2849121" lon="9.219274"><ele>92.8</ele><time>2026-04-29T11:55:55.524Z</time></trkpt><trkpt lat="33.2849846" lon="9.2191924"><ele>93.2</ele><time>2026-04-29T11:55:57.55Z</time></trkpt><trkpt lat="33.2850362" lon="9.2191335"><ele>93.6</ele><time>2026-04-29T11:55:59.549Z</time></trkpt><trkpt lat="33.2850997" lon="9.2190551"><ele>94.0</ele><time>2026-04-29T11:56:02.526Z</time></trkpt><trkpt lat="33.2851597" lon="9.2189982"><ele>93.5</ele><time>2026-04-29T11:56:05.567Z</time></trkpt><trkpt lat="33.2852071" lon="9.2189448"><ele>93.0</ele><time>2026-04-29T11:56:41.528Z</time></trkpt><trkpt lat="33.2852646" lon="9.2188716"><ele>92.5</ele><time>2026-04-29T11:56:42.54Z</time></trkpt><trkpt lat="33.2853331" lon="9.218795"><ele>92.0</ele><time>2026-04-29T11:56:43.548Z</time></trkpt><trkpt lat="33.2854053" lon="9.2187261"><ele>91.5</ele><time>2026-04-29T11:56:44.546Z</time></trkpt><trkpt lat="33.2854671" lon="9.2186555"><ele>91.0</ele><time>2026-04-29T11:56:45.542Z</time></trkpt><trkpt lat="33.2855364" lon="9.2185924"><ele>90.66666666666666</ele><time>2026-04-29T11:56:46.551Z</time></trkpt><trkpt lat="33.285602" lon="9.2185285"><ele>90.33333333333333</ele><time>2026-04-29T11:56:47.502Z</time></trkpt><trkpt lat="33.2856577" lon="9.218462"><ele>90.0</ele><time>2026-04-29T11:56:48.562Z</time></trkpt><trkpt lat="33.2857241" lon="9.2183875"><ele>89.66666666666667</ele><time>2026-04-29T11:56:49.557Z</time></trkpt><trkpt lat="33.2857904" lon="9.2183229"><ele>89.33333333333334</ele><time>2026-04-29T11:56:50.541Z</time></trkpt><trkpt lat="33.2858512" lon="9.2182558"><ele>89.0</ele><time>2026-04-29T11:56:51.548Z</time></trkpt><trkpt lat="33.2859092" lon="9.2181812"><ele>89.0</ele><time>2026-04-29T11:56:52.551Z</time></trkpt><trkpt lat="33.2859837" lon="9.2181045"><ele>89.0</ele><time>2026-04-29T11:56:53.553Z</time></trkpt><trkpt lat="33.2860598" lon="9.218034"><ele>89.0</ele><time>2026-04-29T11:56:54.552Z</time></trkpt><trkpt lat="33.2861256" lon="9.2179622"><ele>89.0</ele><time>2026-04-29T11:56:55.529Z</time></trkpt><trkpt lat="33.2861908" lon="9.2178857"><ele>89.0</ele><time>2026-04-29T11:56:56.539Z</time></trkpt><trkpt lat="33.2862572" lon="9.2178023"><ele>89.0</ele><time>2026-04-29T11:56:57.551Z</time></trkpt><trkpt lat="33.286328" lon="9.2177266"><ele>89.0</ele><time>2026-04-29T11:56:58.524Z</time></trkpt><trkpt lat="33.2864006" lon="9.2176519"><ele>89.0</ele><time>2026-04-29T11:56:59.547Z</time></trkpt><trkpt lat="33.286467" lon="9.2175749"><ele>89.0</ele><time>2026-04-29T11:57:00.548Z</time></trkpt><trkpt lat="33.2865347" lon="9.2174948"><ele>89.0</ele><time>2026-04-29T11:57:01.544Z</time></trkpt><trkpt lat="33.2866064" lon="9.2174209"><ele>89.6</ele><time>2026-04-29T11:57:02.545Z</time></trkpt><trkpt lat="33.2866831" lon="9.2173394"><ele>90.2</ele><time>2026-04-29T11:57:03.541Z</time></trkpt><trkpt lat="33.2867572" lon="9.2172577"><ele>90.8</ele><time>2026-04-29T11:57:04.557Z</time></trkpt><trkpt lat="33.2868301" lon="9.2171762"><ele>91.39999999999999</ele><time>2026-04-29T11:57:05.553Z</time></trkpt><trkpt lat="33.2869009" lon="9.217093"><ele>92.0</ele><time>2026-04-29T11:57:06.527Z</time></trkpt><trkpt lat="33.2869651" lon="9.2170049"><ele>92.0</ele><time>2026-04-29T11:57:07.55Z</time></trkpt><trkpt lat="33.2870391" lon="9.2169232"><ele>92.0</ele><time>2026-04-29T11:57:08.545Z</time></trkpt><trkpt lat="33.2871177" lon="9.2168449"><ele>92.0</ele><time>2026-04-29T11:57:09.538Z</time></trkpt><trkpt lat="33.287201" lon="9.216767"><ele>92.0</ele><time>2026-04-29T11:57:10.554Z</time></trkpt><trkpt lat="33.2872752" lon="9.2166921"><ele>92.0</ele><time>2026-04-29T11:57:11.542Z</time></trkpt><trkpt lat="33.2873513" lon="9.2166262"><ele>92.0</ele><time>2026-04-29T11:57:12.546Z</time></trkpt><trkpt lat="33.2874228" lon="9.2165662"><ele>92.0</ele><time>2026-04-29T11:57:13.554Z</time></trkpt><trkpt lat="33.2874961" lon="9.216501"><ele>92.0</ele><time>2026-04-29T11:57:14.545Z</time></trkpt><trkpt lat="33.2875666" lon="9.2164251"><ele>92.0</ele><time>2026-04-29T11:57:15.547Z</time></trkpt><trkpt lat="33.2876311" lon="9.2163578"><ele>92.0</ele><time>2026-04-29T11:57:16.55Z</time></trkpt><trkpt lat="33.2876893" lon="9.2162877"><ele>92.0</ele><time>2026-04-29T11:57:17.547Z</time></trkpt><trkpt lat="33.2877482" lon="9.216218"><ele>92.19999999999999</ele><time>2026-04-29T11:57:18.526Z</time></trkpt><trkpt lat="33.2878137" lon="9.2161462"><ele>92.4</ele><time>2026-04-29T11:57:19.53Z</time></trkpt><trkpt lat="33.2878766" lon="9.2160754"><ele>92.6</ele><time>2026-04-29T11:57:20.541Z</time></trkpt><trkpt lat="33.2879486" lon="9.216012"><ele>92.80000000000001</ele><time>2026-04-29T11:57:21.545Z</time></trkpt><trkpt lat="33.2880165" lon="9.215936"><ele>93.0</ele><time>2026-04-29T11:57:22.546Z</time></trkpt><trkpt lat="33.2880826" lon="9.2158523"><ele>92.5</ele><time>2026-04-29T11:57:23.54Z</time></trkpt><trkpt lat="33.2881596" lon="9.2157754"><ele>92.0</ele><time>2026-04-29T11:57:24.528Z</time></trkpt><trkpt lat="33.2882471" lon="9.215681"><ele>91.5</ele><time>2026-04-29T11:57:25.55Z</time></trkpt><trkpt lat="33.2883417" lon="9.2155818"><ele>91.0</ele><time>2026-04-29T11:57:26.558Z</time></trkpt><trkpt lat="33.2884339" lon="9.2154844"><ele>91.0</ele><time>2026-04-29T11:57:27.541Z</time></trkpt><trkpt lat="33.288526" lon="9.2153912"><ele>91.0</ele><time>2026-04-29T11:57:28.515Z</time></trkpt><trkpt lat="33.2886151" lon="9.2152953"><ele>91.0</ele><time>2026-04-29T11:57:29.521Z</time></trkpt><trkpt lat="33.288702" lon="9.2152028"><ele>91.0</ele><time>2026-04-29T11:57:30.516Z</time></trkpt><trkpt lat="33.2887885" lon="9.2151045"><ele>91.0</ele><time>2026-04-29T11:57:31.533Z</time></trkpt><trkpt lat="33.2888729" lon="9.2150084"><ele>91.0</ele><time>2026-04-29T11:57:32.547Z</time></trkpt><trkpt lat="33.2889626" lon="9.214911"><ele>91.0</ele><time>2026-04-29T11:57:33.546Z</time></trkpt><trkpt lat="33.2890501" lon="9.2148224"><ele>91.0</ele><time>2026-04-29T11:57:34.546Z</time></trkpt><trkpt lat="33.2891315" lon="9.2147375"><ele>90.8</ele><time>2026-04-29T11:57:35.559Z</time></trkpt><trkpt lat="33.289214" lon="9.2146582"><ele>90.6</ele><time>2026-04-29T11:57:36.543Z</time></trkpt><trkpt lat="33.2892953" lon="9.2145715"><ele>90.4</ele><time>2026-04-29T11:57:37.542Z</time></trkpt><trkpt lat="33.2893731" lon="9.2144857"><ele>90.2</ele><time>2026-04-29T11:57:38.53Z</time></trkpt><trkpt lat="33.2894489" lon="9.2144038"><ele>90.0</ele><time>2026-04-29T11:57:39.551Z</time></trkpt><trkpt lat="33.2895228" lon="9.2143279"><ele>90.0</ele><time>2026-04-29T11:57:40.517Z</time></trkpt><trkpt lat="33.289597" lon="9.2142489"><ele>90.0</ele><time>2026-04-29T11:57:41.546Z</time></trkpt><trkpt lat="33.2896771" lon="9.2141721"><ele>90.0</ele><time>2026-04-29T11:57:42.545Z</time></trkpt><trkpt lat="33.2897513" lon="9.2140927"><ele>90.0</ele><time>2026-04-29T11:57:43.539Z</time></trkpt><trkpt lat="33.2898237" lon="9.2140176"><ele>90.0</ele><time>2026-04-29T11:57:44.545Z</time></trkpt><trkpt lat="33.2898975" lon="9.2139384"><ele>90.2</ele><time>2026-04-29T11:57:45.536Z</time></trkpt><trkpt lat="33.2899703" lon="9.2138574"><ele>90.4</ele><time>2026-04-29T11:57:46.538Z</time></trkpt><trkpt lat="33.2900478" lon="9.2137757"><ele>90.6</ele><time>2026-04-29T11:57:47.521Z</time></trkpt><trkpt lat="33.2901327" lon="9.2136906"><ele>90.8</ele><time>2026-04-29T11:57:48.558Z</time></trkpt><trkpt lat="33.2902239" lon="9.2135992"><ele>91.0</ele><time>2026-04-29T11:57:49.547Z</time></trkpt><trkpt lat="33.2903128" lon="9.2135101"><ele>91.0</ele><time>2026-04-29T11:57:50.559Z</time></trkpt><trkpt lat="33.2904083" lon="9.2134257"><ele>91.0</ele><time>2026-04-29T11:57:51.549Z</time></trkpt><trkpt lat="33.2904971" lon="9.2133387"><ele>91.0</ele><time>2026-04-29T11:57:52.551Z</time></trkpt><trkpt lat="33.2905833" lon="9.2132576"><ele>91.0</ele><time>2026-04-29T11:57:53.554Z</time></trkpt><trkpt lat="33.2906641" lon="9.2131785"><ele>91.0</ele><time>2026-04-29T11:57:54.542Z</time></trkpt><trkpt lat="33.2907514" lon="9.2130965"><ele>91.19999999999999</ele><time>2026-04-29T11:57:55.548Z</time></trkpt><trkpt lat="33.2908377" lon="9.2130173"><ele>91.39999999999999</ele><time>2026-04-29T11:57:56.546Z</time></trkpt><trkpt lat="33.2909248" lon="9.2129337"><ele>91.6</ele><time>2026-04-29T11:57:57.544Z</time></trkpt><trkpt lat="33.2910137" lon="9.2128501"><ele>91.8</ele><time>2026-04-29T11:57:58.531Z</time></trkpt><trkpt lat="33.291104" lon="9.2127688"><ele>92.0</ele><time>2026-04-29T11:57:59.516Z</time></trkpt><trkpt lat="33.2911885" lon="9.2126872"><ele>92.0</ele><time>2026-04-29T11:58:00.542Z</time></trkpt><trkpt lat="33.2912733" lon="9.2126102"><ele>92.0</ele><time>2026-04-29T11:58:01.547Z</time></trkpt><trkpt lat="33.2913597" lon="9.2125302"><ele>92.0</ele><time>2026-04-29T11:58:02.561Z</time></trkpt><trkpt lat="33.2914392" lon="9.2124508"><ele>92.0</ele><time>2026-04-29T11:58:03.528Z</time></trkpt><trkpt lat="33.2915257" lon="9.2123703"><ele>92.0</ele><time>2026-04-29T11:58:04.534Z</time></trkpt><trkpt lat="33.291608" lon="9.2122899"><ele>91.8</ele><time>2026-04-29T11:58:05.521Z</time></trkpt><trkpt lat="33.2916891" lon="9.2122134"><ele>91.6</ele><time>2026-04-29T11:58:06.547Z</time></trkpt><trkpt lat="33.2917739" lon="9.2121362"><ele>91.39999999999999</ele><time>2026-04-29T11:58:07.551Z</time></trkpt><trkpt lat="33.2918571" lon="9.2120598"><ele>91.19999999999999</ele><time>2026-04-29T11:58:08.545Z</time></trkpt><trkpt lat="33.2919409" lon="9.2119851"><ele>91.0</ele><time>2026-04-29T11:58:09.533Z</time></trkpt><trkpt lat="33.2920269" lon="9.2119038"><ele>91.0</ele><time>2026-04-29T11:58:10.533Z</time></trkpt><trkpt lat="33.292108" lon="9.2118237"><ele>91.0</ele><time>2026-04-29T11:58:11.529Z</time></trkpt><trkpt lat="33.2921859" lon="9.2117464"><ele>91.0</ele><time>2026-04-29T11:58:12.536Z</time></trkpt><trkpt lat="33.2922651" lon="9.2116715"><ele>91.0</ele><time>2026-04-29T11:58:13.572Z</time></trkpt><trkpt lat="33.2923467" lon="9.2116007"><ele>91.0</ele><time>2026-04-29T11:58:14.54Z</time></trkpt><trkpt lat="33.2924282" lon="9.2115288"><ele>91.4</ele><time>2026-04-29T11:58:15.53Z</time></trkpt><trkpt lat="33.2925097" lon="9.2114559"><ele>91.8</ele><time>2026-04-29T11:58:16.553Z</time></trkpt><trkpt lat="33.2925894" lon="9.2113842"><ele>92.2</ele><time>2026-04-29T11:58:17.546Z</time></trkpt><trkpt lat="33.2926702" lon="9.2113103"><ele>92.60000000000001</ele><time>2026-04-29T11:58:18.544Z</time></trkpt><trkpt lat="33.2927565" lon="9.2112337"><ele>93.0</ele><time>2026-04-29T11:58:19.545Z</time></trkpt><trkpt lat="33.2928403" lon="9.2111583"><ele>93.0</ele><time>2026-04-29T11:58:20.534Z</time></trkpt><trkpt lat="33.2929237" lon="9.2110831"><ele>93.0</ele><time>2026-04-29T11:58:21.523Z</time></trkpt><trkpt lat="33.2930058" lon="9.2110159"><ele>93.0</ele><time>2026-04-29T11:58:22.537Z</time></trkpt><trkpt lat="33.2930823" lon="9.210943"><ele>93.0</ele><time>2026-04-29T11:58:23.544Z</time></trkpt><trkpt lat="33.2931571" lon="9.2108702"><ele>93.0</ele><time>2026-04-29T11:58:24.545Z</time></trkpt><trkpt lat="33.2932346" lon="9.2108059"><ele>93.4</ele><time>2026-04-29T11:58:25.541Z</time></trkpt><trkpt lat="33.2933163" lon="9.2107348"><ele>93.80000000000001</ele><time>2026-04-29T11:58:26.546Z</time></trkpt><trkpt lat="33.2934005" lon="9.2106595"><ele>94.2</ele><time>2026-04-29T11:58:27.539Z</time></trkpt><trkpt lat="33.293479" lon="9.2105862"><ele>94.6</ele><time>2026-04-29T11:58:28.537Z</time></trkpt><trkpt lat="33.2935576" lon="9.2105155"><ele>95.0</ele><time>2026-04-29T11:58:29.544Z</time></trkpt><trkpt lat="33.2936337" lon="9.2104501"><ele>95.0</ele><time>2026-04-29T11:58:30.555Z</time></trkpt><trkpt lat="33.2937037" lon="9.2103901"><ele>95.0</ele><time>2026-04-29T11:58:31.542Z</time></trkpt><trkpt lat="33.2937777" lon="9.2103313"><ele>95.0</ele><time>2026-04-29T11:58:32.558Z</time></trkpt><trkpt lat="33.2938363" lon="9.2102805"><ele>95.0</ele><time>2026-04-29T11:58:33.541Z</time></trkpt><trkpt lat="33.2938923" lon="9.2102356"><ele>95.0</ele><time>2026-04-29T11:58:52.551Z</time></trkpt><trkpt lat="33.2939802" lon="9.210165"><ele>95.0</ele><time>2026-04-29T11:58:54.539Z</time></trkpt><trkpt lat="33.2940567" lon="9.210095"><ele>95.0</ele><time>2026-04-29T11:58:55.554Z</time></trkpt><trkpt lat="33.2941385" lon="9.2100259"><ele>95.0</ele><time>2026-04-29T11:58:56.539Z</time></trkpt><trkpt lat="33.2942161" lon="9.2099505"><ele>95.0</ele><time>2026-04-29T11:58:57.537Z</time></trkpt><trkpt lat="33.2943037" lon="9.2098725"><ele>95.0</ele><time>2026-04-29T11:58:58.54Z</time></trkpt><trkpt lat="33.2943904" lon="9.209791"><ele>95.0</ele><time>2026-04-29T11:58:59.526Z</time></trkpt><trkpt lat="33.29449" lon="9.2097066"><ele>95.66666666666667</ele><time>2026-04-29T11:59:00.519Z</time></trkpt><trkpt lat="33.2946061" lon="9.2096116"><ele>96.33333333333334</ele><time>2026-04-29T11:59:01.521Z</time></trkpt><trkpt lat="33.2947289" lon="9.2095022"><ele>97.0</ele><time>2026-04-29T11:59:02.545Z</time></trkpt><trkpt lat="33.2948538" lon="9.2093882"><ele>97.25</ele><time>2026-04-29T11:59:03.492Z</time></trkpt><trkpt lat="33.2949808" lon="9.2092802"><ele>97.5</ele><time>2026-04-29T11:59:04.548Z</time></trkpt><trkpt lat="33.2950953" lon="9.2091787"><ele>97.75</ele><time>2026-04-29T11:59:05.545Z</time></trkpt><trkpt lat="33.2952074" lon="9.2090758"><ele>98.0</ele><time>2026-04-29T11:59:06.537Z</time></trkpt><trkpt lat="33.2953229" lon="9.2089715"><ele>98.0</ele><time>2026-04-29T11:59:07.546Z</time></trkpt><trkpt lat="33.2954328" lon="9.2088755"><ele>98.0</ele><time>2026-04-29T11:59:08.551Z</time></trkpt><trkpt lat="33.2955387" lon="9.2087824"><ele>98.0</ele><time>2026-04-29T11:59:09.507Z</time></trkpt><trkpt lat="33.2956437" lon="9.2086924"><ele>98.0</ele><time>2026-04-29T11:59:10.543Z</time></trkpt><trkpt lat="33.2957469" lon="9.2086109"><ele>97.49999999999999</ele><time>2026-04-29T11:59:11.543Z</time></trkpt><trkpt lat="33.295836" lon="9.2085363"><ele>97.0</ele><time>2026-04-29T11:59:12.563Z</time></trkpt><trkpt lat="33.2959174" lon="9.2084689"><ele>96.5</ele><time>2026-04-29T11:59:13.54Z</time></trkpt><trkpt lat="33.2959852" lon="9.2084076"><ele>96.0</ele><time>2026-04-29T11:59:14.542Z</time></trkpt><trkpt lat="33.2960497" lon="9.2083548"><ele>95.5</ele><time>2026-04-29T11:59:15.548Z</time></trkpt><trkpt lat="33.2961138" lon="9.2083042"><ele>95.0</ele><time>2026-04-29T11:59:16.494Z</time></trkpt><trkpt lat="33.2961777" lon="9.2082508"><ele>95.0</ele><time>2026-04-29T11:59:17.522Z</time></trkpt><trkpt lat="33.2962336" lon="9.2082016"><ele>95.0</ele><time>2026-04-29T11:59:18.522Z</time></trkpt><trkpt lat="33.2963248" lon="9.2081266"><ele>95.0</ele><time>2026-04-29T11:59:20.518Z</time></trkpt><trkpt lat="33.2963864" lon="9.2080744"><ele>95.0</ele><time>2026-04-29T11:59:22.55Z</time></trkpt><trkpt lat="33.2964452" lon="9.2080196"><ele>95.0</ele><time>2026-04-29T11:59:25.566Z</time></trkpt><trkpt lat="33.2965699" lon="9.207919"><ele>94.8</ele><time>2026-04-29T11:59:27.542Z</time></trkpt><trkpt lat="33.2966506" lon="9.2078578"><ele>94.6</ele><time>2026-04-29T11:59:28.536Z</time></trkpt><trkpt lat="33.2967345" lon="9.2077908"><ele>94.4</ele><time>2026-04-29T11:59:29.539Z</time></trkpt><trkpt lat="33.296821" lon="9.2077166"><ele>94.2</ele><time>2026-04-29T11:59:30.54Z</time></trkpt><trkpt lat="33.2969141" lon="9.2076357"><ele>94.0</ele><time>2026-04-29T11:59:31.552Z</time></trkpt><trkpt lat="33.2970156" lon="9.2075561"><ele>94.0</ele><time>2026-04-29T11:59:32.559Z</time></trkpt><trkpt lat="33.2971202" lon="9.2074739"><ele>94.0</ele><time>2026-04-29T11:59:33.55Z</time></trkpt><trkpt lat="33.2972249" lon="9.2073924"><ele>94.0</ele><time>2026-04-29T11:59:34.535Z</time></trkpt><trkpt lat="33.2973231" lon="9.2073123"><ele>94.0</ele><time>2026-04-29T11:59:35.506Z</time></trkpt><trkpt lat="33.2974318" lon="9.2072341"><ele>93.75</ele><time>2026-04-29T11:59:36.56Z</time></trkpt><trkpt lat="33.2975341" lon="9.2071491"><ele>93.5</ele><time>2026-04-29T11:59:37.523Z</time></trkpt><trkpt lat="33.2976388" lon="9.2070664"><ele>93.25</ele><time>2026-04-29T11:59:38.539Z</time></trkpt><trkpt lat="33.2977393" lon="9.2069851"><ele>93.0</ele><time>2026-04-29T11:59:39.533Z</time></trkpt><trkpt lat="33.2978429" lon="9.2069043"><ele>93.0</ele><time>2026-04-29T11:59:40.523Z</time></trkpt><trkpt lat="33.2979406" lon="9.2068274"><ele>93.0</ele><time>2026-04-29T11:59:41.551Z</time></trkpt><trkpt lat="33.2980415" lon="9.206747"><ele>93.0</ele><time>2026-04-29T11:59:42.536Z</time></trkpt><trkpt lat="33.2981357" lon="9.206667"><ele>93.0</ele><time>2026-04-29T11:59:43.549Z</time></trkpt><trkpt lat="33.2982372" lon="9.2065882"><ele>92.75</ele><time>2026-04-29T11:59:44.537Z</time></trkpt><trkpt lat="33.2983367" lon="9.2065161"><ele>92.5</ele><time>2026-04-29T11:59:45.522Z</time></trkpt><trkpt lat="33.298438" lon="9.2064391"><ele>92.25</ele><time>2026-04-29T11:59:46.551Z</time></trkpt><trkpt lat="33.2985398" lon="9.2063612"><ele>92.0</ele><time>2026-04-29T11:59:47.534Z</time></trkpt><trkpt lat="33.2986442" lon="9.2062802"><ele>91.75</ele><time>2026-04-29T11:59:48.523Z</time></trkpt><trkpt lat="33.2987578" lon="9.2061947"><ele>91.5</ele><time>2026-04-29T11:59:49.55Z</time></trkpt><trkpt lat="33.298867" lon="9.2061053"><ele>91.25</ele><time>2026-04-29T11:59:50.548Z</time></trkpt><trkpt lat="33.2989723" lon="9.2060168"><ele>91.0</ele><time>2026-04-29T11:59:51.56Z</time></trkpt><trkpt lat="33.2990809" lon="9.2059313"><ele>91.0</ele><time>2026-04-29T11:59:52.545Z</time></trkpt><trkpt lat="33.2991895" lon="9.2058443"><ele>91.0</ele><time>2026-04-29T11:59:53.54Z</time></trkpt><trkpt lat="33.2992974" lon="9.205755"><ele>91.0</ele><time>2026-04-29T11:59:54.542Z</time></trkpt><trkpt lat="33.2994062" lon="9.2056694"><ele>91.0</ele><time>2026-04-29T11:59:55.55Z</time></trkpt><trkpt lat="33.2995207" lon="9.2055791"><ele>90.75</ele><time>2026-04-29T11:59:56.526Z</time></trkpt><trkpt lat="33.2996342" lon="9.2054919"><ele>90.5</ele><time>2026-04-29T11:59:57.54Z</time></trkpt><trkpt lat="33.2997446" lon="9.2054027"><ele>90.25</ele><time>2026-04-29T11:59:58.527Z</time></trkpt><trkpt lat="33.2998532" lon="9.2053235"><ele>90.0</ele><time>2026-04-29T11:59:59.546Z</time></trkpt><trkpt lat="33.2999663" lon="9.2052423"><ele>90.0</ele><time>2026-04-29T12:00:00.543Z</time></trkpt><trkpt lat="33.3000793" lon="9.2051575"><ele>90.0</ele><time>2026-04-29T12:00:01.553Z</time></trkpt><trkpt lat="33.3001905" lon="9.2050759"><ele>90.0</ele><time>2026-04-29T12:00:02.549Z</time></trkpt><trkpt lat="33.3003028" lon="9.2049891"><ele>90.0</ele><time>2026-04-29T12:00:03.56Z</time></trkpt><trkpt lat="33.3004158" lon="9.204902"><ele>89.75</ele><time>2026-04-29T12:00:04.552Z</time></trkpt><trkpt lat="33.3005273" lon="9.2048144"><ele>89.5</ele><time>2026-04-29T12:00:05.561Z</time></trkpt><trkpt lat="33.3006327" lon="9.204726"><ele>89.25</ele><time>2026-04-29T12:00:06.55Z</time></trkpt><trkpt lat="33.3007393" lon="9.2046378"><ele>89.0</ele><time>2026-04-29T12:00:07.537Z</time></trkpt><trkpt lat="33.3008472" lon="9.2045495"><ele>89.0</ele><time>2026-04-29T12:00:08.56Z</time></trkpt><trkpt lat="33.3009587" lon="9.2044564"><ele>89.0</ele><time>2026-04-29T12:00:09.552Z</time></trkpt><trkpt lat="33.30107" lon="9.2043671"><ele>89.0</ele><time>2026-04-29T12:00:10.537Z</time></trkpt><trkpt lat="33.3011828" lon="9.2042807"><ele>89.0</ele><time>2026-04-29T12:00:11.553Z</time></trkpt><trkpt lat="33.3012943" lon="9.2041948"><ele>89.0</ele><time>2026-04-29T12:00:12.516Z</time></trkpt><trkpt lat="33.3014025" lon="9.2041111"><ele>89.0</ele><time>2026-04-29T12:00:13.549Z</time></trkpt><trkpt lat="33.3015062" lon="9.2040267"><ele>89.0</ele><time>2026-04-29T12:00:14.548Z</time></trkpt><trkpt lat="33.3016089" lon="9.2039396"><ele>89.0</ele><time>2026-04-29T12:00:15.548Z</time></trkpt><trkpt lat="33.3017192" lon="9.2038492"><ele>89.5</ele><time>2026-04-29T12:00:16.552Z</time></trkpt><trkpt lat="33.3018307" lon="9.203756"><ele>90.0</ele><time>2026-04-29T12:00:17.547Z</time></trkpt><trkpt lat="33.3019391" lon="9.2036662"><ele>90.5</ele><time>2026-04-29T12:00:18.555Z</time></trkpt><trkpt lat="33.302056" lon="9.2035871"><ele>91.0</ele><time>2026-04-29T12:00:19.562Z</time></trkpt><trkpt lat="33.3021708" lon="9.2035065"><ele>91.25</ele><time>2026-04-29T12:00:20.547Z</time></trkpt><trkpt lat="33.3022827" lon="9.2034142"><ele>91.5</ele><time>2026-04-29T12:00:21.537Z</time></trkpt><trkpt lat="33.3023921" lon="9.2033234"><ele>91.75</ele><time>2026-04-29T12:00:22.545Z</time></trkpt><trkpt lat="33.3024964" lon="9.2032329"><ele>92.0</ele><time>2026-04-29T12:00:23.538Z</time></trkpt><trkpt lat="33.3025961" lon="9.2031496"><ele>92.0</ele><time>2026-04-29T12:00:24.555Z</time></trkpt><trkpt lat="33.3026939" lon="9.2030702"><ele>92.0</ele><time>2026-04-29T12:00:25.548Z</time></trkpt><trkpt lat="33.3027903" lon="9.2029948"><ele>92.0</ele><time>2026-04-29T12:00:26.541Z</time></trkpt><trkpt lat="33.3028936" lon="9.2029145"><ele>92.0</ele><time>2026-04-29T12:00:27.551Z</time></trkpt><trkpt lat="33.3029988" lon="9.2028327"><ele>92.0</ele><time>2026-04-29T12:00:28.545Z</time></trkpt><trkpt lat="33.3031039" lon="9.2027491"><ele>92.0</ele><time>2026-04-29T12:00:29.549Z</time></trkpt><trkpt lat="33.3032071" lon="9.2026649"><ele>92.0</ele><time>2026-04-29T12:00:30.556Z</time></trkpt><trkpt lat="33.3033064" lon="9.2025808"><ele>92.0</ele><time>2026-04-29T12:00:31.531Z</time></trkpt><trkpt lat="33.3034008" lon="9.2025088"><ele>92.0</ele><time>2026-04-29T12:00:32.545Z</time></trkpt><trkpt lat="33.303488" lon="9.202443"><ele>92.0</ele><time>2026-04-29T12:00:33.562Z</time></trkpt><trkpt lat="33.3035665" lon="9.2023813"><ele>92.0</ele><time>2026-04-29T12:00:34.527Z</time></trkpt><trkpt lat="33.3036352" lon="9.2023296"><ele>92.0</ele><time>2026-04-29T12:00:35.534Z</time></trkpt><trkpt lat="33.3036932" lon="9.2022888"><ele>92.0</ele><time>2026-04-29T12:00:36.534Z</time></trkpt><trkpt lat="33.3037495" lon="9.2022516"><ele>92.0</ele><time>2026-04-29T12:00:37.539Z</time></trkpt><trkpt lat="33.3038445" lon="9.20218"><ele>92.0</ele><time>2026-04-29T12:00:39.545Z</time></trkpt><trkpt lat="33.3039173" lon="9.2021124"><ele>92.0</ele><time>2026-04-29T12:00:41.57Z</time></trkpt><trkpt lat="33.3039713" lon="9.2020634"><ele>92.0</ele><time>2026-04-29T12:00:43.547Z</time></trkpt><trkpt lat="33.3040281" lon="9.2020177"><ele>92.0</ele><time>2026-04-29T12:00:46.554Z</time></trkpt><trkpt lat="33.3040813" lon="9.2019661"><ele>92.0</ele><time>2026-04-29T12:00:50.543Z</time></trkpt><trkpt lat="33.3041477" lon="9.2019117"><ele>92.0</ele><time>2026-04-29T12:00:52.549Z</time></trkpt><trkpt lat="33.304204" lon="9.2018581"><ele>92.0</ele><time>2026-04-29T12:00:53.512Z</time></trkpt><trkpt lat="33.3042682" lon="9.2018019"><ele>92.0</ele><time>2026-04-29T12:00:54.551Z</time></trkpt><trkpt lat="33.3043319" lon="9.2017478"><ele>92.0</ele><time>2026-04-29T12:00:55.518Z</time></trkpt><trkpt lat="33.3043988" lon="9.2016911"><ele>92.0</ele><time>2026-04-29T12:00:56.55Z</time></trkpt><trkpt lat="33.3044744" lon="9.2016318"><ele>92.0</ele><time>2026-04-29T12:00:57.549Z</time></trkpt><trkpt lat="33.3045601" lon="9.2015659"><ele>92.0</ele><time>2026-04-29T12:00:58.543Z</time></trkpt><trkpt lat="33.3046537" lon="9.2014905"><ele>91.75</ele><time>2026-04-29T12:00:59.551Z</time></trkpt><trkpt lat="33.3047492" lon="9.2014092"><ele>91.5</ele><time>2026-04-29T12:01:00.537Z</time></trkpt><trkpt lat="33.3048415" lon="9.2013337"><ele>91.25</ele><time>2026-04-29T12:01:01.563Z</time></trkpt><trkpt lat="33.304932" lon="9.2012585"><ele>91.0</ele><time>2026-04-29T12:01:02.545Z</time></trkpt><trkpt lat="33.3050289" lon="9.201186"><ele>91.0</ele><time>2026-04-29T12:01:03.518Z</time></trkpt><trkpt lat="33.305123" lon="9.2011144"><ele>91.0</ele><time>2026-04-29T12:01:04.559Z</time></trkpt><trkpt lat="33.3052158" lon="9.2010404"><ele>91.0</ele><time>2026-04-29T12:01:05.53Z</time></trkpt><trkpt lat="33.3053074" lon="9.2009644"><ele>91.0</ele><time>2026-04-29T12:01:06.54Z</time></trkpt><trkpt lat="33.3053964" lon="9.2008875"><ele>91.0</ele><time>2026-04-29T12:01:07.55Z</time></trkpt><trkpt lat="33.3054838" lon="9.2008147"><ele>91.0</ele><time>2026-04-29T12:01:08.567Z</time></trkpt><trkpt lat="33.3055705" lon="9.2007411"><ele>91.0</ele><time>2026-04-29T12:01:09.551Z</time></trkpt><trkpt lat="33.3056596" lon="9.2006645"><ele>91.0</ele><time>2026-04-29T12:01:10.549Z</time></trkpt><trkpt lat="33.3057515" lon="9.2005885"><ele>91.0</ele><time>2026-04-29T12:01:11.542Z</time></trkpt><trkpt lat="33.3058433" lon="9.2005134"><ele>91.0</ele><time>2026-04-29T12:01:12.528Z</time></trkpt><trkpt lat="33.3059286" lon="9.2004383"><ele>91.19999999999999</ele><time>2026-04-29T12:01:13.562Z</time></trkpt><trkpt lat="33.3060128" lon="9.2003656"><ele>91.39999999999999</ele><time>2026-04-29T12:01:14.52Z</time></trkpt><trkpt lat="33.306099" lon="9.2002932"><ele>91.6</ele><time>2026-04-29T12:01:15.524Z</time></trkpt><trkpt lat="33.3061932" lon="9.2002087"><ele>91.8</ele><time>2026-04-29T12:01:16.565Z</time></trkpt><trkpt lat="33.3062911" lon="9.2001245"><ele>92.0</ele><time>2026-04-29T12:01:17.533Z</time></trkpt><trkpt lat="33.3063846" lon="9.2000467"><ele>92.0</ele><time>2026-04-29T12:01:18.556Z</time></trkpt><trkpt lat="33.3064775" lon="9.1999773"><ele>92.0</ele><time>2026-04-29T12:01:19.553Z</time></trkpt><trkpt lat="33.3065743" lon="9.199902"><ele>92.0</ele><time>2026-04-29T12:01:20.548Z</time></trkpt><trkpt lat="33.3066644" lon="9.1998265"><ele>92.0</ele><time>2026-04-29T12:01:21.546Z</time></trkpt><trkpt lat="33.3067589" lon="9.1997422"><ele>92.0</ele><time>2026-04-29T12:01:22.548Z</time></trkpt><trkpt lat="33.3068565" lon="9.1996575"><ele>92.0</ele><time>2026-04-29T12:01:23.547Z</time></trkpt><trkpt lat="33.3069518" lon="9.1995801"><ele>92.0</ele><time>2026-04-29T12:01:24.551Z</time></trkpt><trkpt lat="33.3070389" lon="9.1995067"><ele>92.0</ele><time>2026-04-29T12:01:25.547Z</time></trkpt><trkpt lat="33.3071093" lon="9.1994502"><ele>92.0</ele><time>2026-04-29T12:01:26.541Z</time></trkpt><trkpt lat="33.307165" lon="9.1993957"><ele>92.0</ele><time>2026-04-29T12:01:27.545Z</time></trkpt><trkpt lat="33.3072496" lon="9.1993236"><ele>92.0</ele><time>2026-04-29T12:01:29.549Z</time></trkpt><trkpt lat="33.3073199" lon="9.1992738"><ele>92.0</ele><time>2026-04-29T12:01:32.551Z</time></trkpt><trkpt lat="33.3073815" lon="9.1992248"><ele>92.0</ele><time>2026-04-29T12:01:36.545Z</time></trkpt><trkpt lat="33.307458" lon="9.1991662"><ele>92.0</ele><time>2026-04-29T12:01:41.551Z</time></trkpt><trkpt lat="33.3075527" lon="9.1990889"><ele>92.0</ele><time>2026-04-29T12:01:43.518Z</time></trkpt><trkpt lat="33.3076128" lon="9.1990421"><ele>92.0</ele><time>2026-04-29T12:01:44.553Z</time></trkpt><trkpt lat="33.3076806" lon="9.1989877"><ele>92.0</ele><time>2026-04-29T12:01:45.534Z</time></trkpt><trkpt lat="33.3077507" lon="9.1989248"><ele>92.0</ele><time>2026-04-29T12:01:46.542Z</time></trkpt><trkpt lat="33.3078151" lon="9.1988704"><ele>92.0</ele><time>2026-04-29T12:01:47.525Z</time></trkpt><trkpt lat="33.3078901" lon="9.1988066"><ele>92.0</ele><time>2026-04-29T12:01:48.527Z</time></trkpt><trkpt lat="33.3079717" lon="9.1987407"><ele>92.0</ele><time>2026-04-29T12:01:49.553Z</time></trkpt><trkpt lat="33.3080561" lon="9.1986728"><ele>92.0</ele><time>2026-04-29T12:01:50.527Z</time></trkpt><trkpt lat="33.3081408" lon="9.1986033"><ele>92.0</ele><time>2026-04-29T12:01:51.546Z</time></trkpt><trkpt lat="33.3082305" lon="9.1985331"><ele>92.0</ele><time>2026-04-29T12:01:52.562Z</time></trkpt><trkpt lat="33.3083212" lon="9.1984581"><ele>92.0</ele><time>2026-04-29T12:01:53.55Z</time></trkpt><trkpt lat="33.30841" lon="9.1983865"><ele>92.0</ele><time>2026-04-29T12:01:54.549Z</time></trkpt><trkpt lat="33.3085034" lon="9.1983104"><ele>92.0</ele><time>2026-04-29T12:01:55.544Z</time></trkpt><trkpt lat="33.3085971" lon="9.1982368"><ele>92.0</ele><time>2026-04-29T12:01:56.54Z</time></trkpt><trkpt lat="33.3086894" lon="9.1981565"><ele>92.0</ele><time>2026-04-29T12:01:57.545Z</time></trkpt><trkpt lat="33.3087798" lon="9.1980791"><ele>91.75</ele><time>2026-04-29T12:01:58.538Z</time></trkpt><trkpt lat="33.3088758" lon="9.1979957"><ele>91.5</ele><time>2026-04-29T12:01:59.55Z</time></trkpt><trkpt lat="33.3089689" lon="9.1979181"><ele>91.25</ele><time>2026-04-29T12:02:00.526Z</time></trkpt><trkpt lat="33.3090588" lon="9.1978371"><ele>91.0</ele><time>2026-04-29T12:02:01.514Z</time></trkpt><trkpt lat="33.3091502" lon="9.1977561"><ele>91.75</ele><time>2026-04-29T12:02:02.554Z</time></trkpt><trkpt lat="33.3092419" lon="9.1976768"><ele>92.5</ele><time>2026-04-29T12:02:03.549Z</time></trkpt><trkpt lat="33.3093343" lon="9.1975914"><ele>93.25</ele><time>2026-04-29T12:02:04.537Z</time></trkpt><trkpt lat="33.3094262" lon="9.1975074"><ele>94.0</ele><time>2026-04-29T12:02:05.547Z</time></trkpt><trkpt lat="33.3095157" lon="9.1974346"><ele>94.0</ele><time>2026-04-29T12:02:06.545Z</time></trkpt><trkpt lat="33.3096016" lon="9.1973613"><ele>94.0</ele><time>2026-04-29T12:02:07.552Z</time></trkpt><trkpt lat="33.3096879" lon="9.1972858"><ele>94.0</ele><time>2026-04-29T12:02:08.537Z</time></trkpt><trkpt lat="33.3097722" lon="9.1972151"><ele>94.0</ele><time>2026-04-29T12:02:09.548Z</time></trkpt><trkpt lat="33.3098549" lon="9.1971479"><ele>94.0</ele><time>2026-04-29T12:02:10.551Z</time></trkpt><trkpt lat="33.3099275" lon="9.197076"><ele>93.4</ele><time>2026-04-29T12:02:11.542Z</time></trkpt><trkpt lat="33.3099981" lon="9.1969915"><ele>92.80000000000001</ele><time>2026-04-29T12:02:12.539Z</time></trkpt><trkpt lat="33.3100705" lon="9.1969035"><ele>92.19999999999999</ele><time>2026-04-29T12:02:13.549Z</time></trkpt><trkpt lat="33.3101448" lon="9.196819"><ele>91.6</ele><time>2026-04-29T12:02:14.546Z</time></trkpt><trkpt lat="33.3102259" lon="9.1967244"><ele>91.0</ele><time>2026-04-29T12:02:15.534Z</time></trkpt><trkpt lat="33.3103128" lon="9.1966342"><ele>91.0</ele><time>2026-04-29T12:02:16.515Z</time></trkpt><trkpt lat="33.3103972" lon="9.1965538"><ele>91.0</ele><time>2026-04-29T12:02:17.556Z</time></trkpt><trkpt lat="33.3104766" lon="9.1964884"><ele>91.0</ele><time>2026-04-29T12:02:18.56Z</time></trkpt><trkpt lat="33.3105498" lon="9.1964218"><ele>91.0</ele><time>2026-04-29T12:02:19.52Z</time></trkpt><trkpt lat="33.3106284" lon="9.1963555"><ele>91.0</ele><time>2026-04-29T12:02:20.528Z</time></trkpt><trkpt lat="33.3107027" lon="9.1962782"><ele>90.6</ele><time>2026-04-29T12:02:21.544Z</time></trkpt><trkpt lat="33.3107798" lon="9.1962044"><ele>90.19999999999999</ele><time>2026-04-29T12:02:22.549Z</time></trkpt><trkpt lat="33.3108544" lon="9.1961238"><ele>89.80000000000001</ele><time>2026-04-29T12:02:23.557Z</time></trkpt><trkpt lat="33.3109304" lon="9.1960391"><ele>89.4</ele><time>2026-04-29T12:02:24.555Z</time></trkpt><trkpt lat="33.3110123" lon="9.1959442"><ele>89.0</ele><time>2026-04-29T12:02:25.548Z</time></trkpt><trkpt lat="33.3110968" lon="9.1958474"><ele>89.0</ele><time>2026-04-29T12:02:26.555Z</time></trkpt><trkpt lat="33.311188" lon="9.1957526"><ele>89.0</ele><time>2026-04-29T12:02:27.543Z</time></trkpt><trkpt lat="33.3112782" lon="9.1956592"><ele>89.0</ele><time>2026-04-29T12:02:28.535Z</time></trkpt><trkpt lat="33.3113669" lon="9.1955655"><ele>89.0</ele><time>2026-04-29T12:02:29.553Z</time></trkpt><trkpt lat="33.3114604" lon="9.1954705"><ele>88.75</ele><time>2026-04-29T12:02:30.538Z</time></trkpt><trkpt lat="33.3115492" lon="9.1953787"><ele>88.5</ele><time>2026-04-29T12:02:31.551Z</time></trkpt><trkpt lat="33.3116419" lon="9.1952882"><ele>88.25</ele><time>2026-04-29T12:02:32.572Z</time></trkpt><trkpt lat="33.3117308" lon="9.1952015"><ele>88.0</ele><time>2026-04-29T12:02:33.545Z</time></trkpt><trkpt lat="33.3118203" lon="9.1951122"><ele>88.0</ele><time>2026-04-29T12:02:34.538Z</time></trkpt><trkpt lat="33.311906" lon="9.1950273"><ele>88.0</ele><time>2026-04-29T12:02:35.544Z</time></trkpt><trkpt lat="33.3119947" lon="9.1949412"><ele>88.0</ele><time>2026-04-29T12:02:36.551Z</time></trkpt><trkpt lat="33.3120813" lon="9.1948495"><ele>88.0</ele><time>2026-04-29T12:02:37.542Z</time></trkpt><trkpt lat="33.3121625" lon="9.1947599"><ele>88.60000000000001</ele><time>2026-04-29T12:02:38.524Z</time></trkpt><trkpt lat="33.3122405" lon="9.1946844"><ele>89.2</ele><time>2026-04-29T12:02:39.557Z</time></trkpt><trkpt lat="33.3123142" lon="9.1946116"><ele>89.8</ele><time>2026-04-29T12:02:40.567Z</time></trkpt><trkpt lat="33.3123829" lon="9.1945488"><ele>90.4</ele><time>2026-04-29T12:02:41.551Z</time></trkpt><trkpt lat="33.312451" lon="9.1944838"><ele>91.0</ele><time>2026-04-29T12:02:42.555Z</time></trkpt><trkpt lat="33.3125187" lon="9.1944198"><ele>91.0</ele><time>2026-04-29T12:02:43.539Z</time></trkpt><trkpt lat="33.3125839" lon="9.19435"><ele>91.0</ele><time>2026-04-29T12:02:44.537Z</time></trkpt><trkpt lat="33.3126521" lon="9.1942842"><ele>91.0</ele><time>2026-04-29T12:02:45.547Z</time></trkpt><trkpt lat="33.3127195" lon="9.1942183"><ele>91.0</ele><time>2026-04-29T12:02:46.554Z</time></trkpt><trkpt lat="33.3127797" lon="9.1941563"><ele>91.0</ele><time>2026-04-29T12:02:47.51Z</time></trkpt><trkpt lat="33.3128365" lon="9.1940963"><ele>91.0</ele><time>2026-04-29T12:02:48.546Z</time></trkpt><trkpt lat="33.3128891" lon="9.1940512"><ele>90.83333333333333</ele><time>2026-04-29T12:02:49.542Z</time></trkpt><trkpt lat="33.3129569" lon="9.1939904"><ele>90.66666666666666</ele><time>2026-04-29T12:02:51.547Z</time></trkpt><trkpt lat="33.313007" lon="9.1939282"><ele>90.5</ele><time>2026-04-29T12:03:04.555Z</time></trkpt><trkpt lat="33.3130768" lon="9.193834"><ele>90.33333333333333</ele><time>2026-04-29T12:03:06.539Z</time></trkpt><trkpt lat="33.3131315" lon="9.1937698"><ele>90.16666666666667</ele><time>2026-04-29T12:03:07.536Z</time></trkpt><trkpt lat="33.3132008" lon="9.1936969"><ele>90.0</ele><time>2026-04-29T12:03:08.555Z</time></trkpt><trkpt lat="33.3132778" lon="9.1936209"><ele>90.4</ele><time>2026-04-29T12:03:09.548Z</time></trkpt><trkpt lat="33.3133562" lon="9.193536"><ele>90.8</ele><time>2026-04-29T12:03:10.531Z</time></trkpt><trkpt lat="33.3134369" lon="9.1934493"><ele>91.19999999999999</ele><time>2026-04-29T12:03:11.545Z</time></trkpt><trkpt lat="33.3135206" lon="9.1933618"><ele>91.6</ele><time>2026-04-29T12:03:12.536Z</time></trkpt><trkpt lat="33.3136061" lon="9.1932691"><ele>92.0</ele><time>2026-04-29T12:03:13.536Z</time></trkpt><trkpt lat="33.3136916" lon="9.1931838"><ele>92.19999999999999</ele><time>2026-04-29T12:03:14.544Z</time></trkpt><trkpt lat="33.3137726" lon="9.1930986"><ele>92.4</ele><time>2026-04-29T12:03:15.53Z</time></trkpt><trkpt lat="33.3138568" lon="9.1930094"><ele>92.6</ele><time>2026-04-29T12:03:16.53Z</time></trkpt><trkpt lat="33.3139394" lon="9.1929214"><ele>92.80000000000001</ele><time>2026-04-29T12:03:17.542Z</time></trkpt><trkpt lat="33.3140214" lon="9.1928325"><ele>93.0</ele><time>2026-04-29T12:03:18.548Z</time></trkpt><trkpt lat="33.3141057" lon="9.1927402"><ele>92.5</ele><time>2026-04-29T12:03:19.55Z</time></trkpt><trkpt lat="33.3141895" lon="9.1926509"><ele>92.0</ele><time>2026-04-29T12:03:20.522Z</time></trkpt><trkpt lat="33.3142743" lon="9.1925601"><ele>91.5</ele><time>2026-04-29T12:03:21.546Z</time></trkpt><trkpt lat="33.3143582" lon="9.1924757"><ele>91.0</ele><time>2026-04-29T12:03:22.551Z</time></trkpt><trkpt lat="33.3144496" lon="9.1923921"><ele>90.8</ele><time>2026-04-29T12:03:23.545Z</time></trkpt><trkpt lat="33.3145369" lon="9.1923073"><ele>90.6</ele><time>2026-04-29T12:03:24.545Z</time></trkpt><trkpt lat="33.3146224" lon="9.1922217"><ele>90.4</ele><time>2026-04-29T12:03:25.566Z</time></trkpt><trkpt lat="33.3147078" lon="9.1921365"><ele>90.2</ele><time>2026-04-29T12:03:26.553Z</time></trkpt><trkpt lat="33.3147939" lon="9.1920508"><ele>90.0</ele><time>2026-04-29T12:03:27.542Z</time></trkpt><trkpt lat="33.3148796" lon="9.1919639"><ele>90.0</ele><time>2026-04-29T12:03:28.525Z</time></trkpt><trkpt lat="33.3149603" lon="9.191876"><ele>90.0</ele><time>2026-04-29T12:03:29.565Z</time></trkpt><trkpt lat="33.3150358" lon="9.1917826"><ele>90.0</ele><time>2026-04-29T12:03:30.521Z</time></trkpt><trkpt lat="33.3151156" lon="9.1916948"><ele>90.0</ele><time>2026-04-29T12:03:31.555Z</time></trkpt><trkpt lat="33.3152003" lon="9.1916042"><ele>90.0</ele><time>2026-04-29T12:03:32.558Z</time></trkpt><trkpt lat="33.3152866" lon="9.1915178"><ele>90.25</ele><time>2026-04-29T12:03:33.562Z</time></trkpt><trkpt lat="33.315372" lon="9.191428"><ele>90.5</ele><time>2026-04-29T12:03:34.55Z</time></trkpt><trkpt lat="33.3154563" lon="9.1913355"><ele>90.75</ele><time>2026-04-29T12:03:35.521Z</time></trkpt><trkpt lat="33.3155468" lon="9.1912448"><ele>91.0</ele><time>2026-04-29T12:03:36.549Z</time></trkpt><trkpt lat="33.3156314" lon="9.1911557"><ele>91.0</ele><time>2026-04-29T12:03:37.52Z</time></trkpt><trkpt lat="33.3157155" lon="9.1910615"><ele>91.0</ele><time>2026-04-29T12:03:38.527Z</time></trkpt><trkpt lat="33.3157971" lon="9.190973"><ele>91.0</ele><time>2026-04-29T12:03:39.561Z</time></trkpt><trkpt lat="33.3158839" lon="9.1908853"><ele>91.0</ele><time>2026-04-29T12:03:40.552Z</time></trkpt><trkpt lat="33.3159654" lon="9.1907991"><ele>91.0</ele><time>2026-04-29T12:03:41.549Z</time></trkpt><trkpt lat="33.3160506" lon="9.1907143"><ele>91.0</ele><time>2026-04-29T12:03:42.525Z</time></trkpt><trkpt lat="33.3161386" lon="9.1906238"><ele>91.0</ele><time>2026-04-29T12:03:43.546Z</time></trkpt><trkpt lat="33.3162285" lon="9.1905353"><ele>91.0</ele><time>2026-04-29T12:03:44.538Z</time></trkpt><trkpt lat="33.3163161" lon="9.1904456"><ele>91.0</ele><time>2026-04-29T12:03:45.532Z</time></trkpt><trkpt lat="33.316407" lon="9.1903511"><ele>91.0</ele><time>2026-04-29T12:03:46.543Z</time></trkpt><trkpt lat="33.3164985" lon="9.1902615"><ele>91.0</ele><time>2026-04-29T12:03:47.538Z</time></trkpt><trkpt lat="33.3165883" lon="9.1901654"><ele>91.0</ele><time>2026-04-29T12:03:48.548Z</time></trkpt><trkpt lat="33.3166818" lon="9.1900696"><ele>91.0</ele><time>2026-04-29T12:03:49.545Z</time></trkpt><trkpt lat="33.3167833" lon="9.1899678"><ele>91.0</ele><time>2026-04-29T12:03:50.542Z</time></trkpt><trkpt lat="33.3168877" lon="9.1898567"><ele>91.0</ele><time>2026-04-29T12:03:51.549Z</time></trkpt><trkpt lat="33.3169929" lon="9.1897448"><ele>91.0</ele><time>2026-04-29T12:03:52.521Z</time></trkpt><trkpt lat="33.3171018" lon="9.1896329"><ele>91.0</ele><time>2026-04-29T12:03:53.523Z</time></trkpt><trkpt lat="33.3172066" lon="9.1895207"><ele>90.75</ele><time>2026-04-29T12:03:54.541Z</time></trkpt><trkpt lat="33.3173114" lon="9.1894116"><ele>90.5</ele><time>2026-04-29T12:03:55.568Z</time></trkpt><trkpt lat="33.3174167" lon="9.1893015"><ele>90.25</ele><time>2026-04-29T12:03:56.552Z</time></trkpt><trkpt lat="33.3175201" lon="9.1891919"><ele>90.0</ele><time>2026-04-29T12:03:57.552Z</time></trkpt><trkpt lat="33.3176247" lon="9.1890818"><ele>90.0</ele><time>2026-04-29T12:03:58.539Z</time></trkpt><trkpt lat="33.3177325" lon="9.188975"><ele>90.0</ele><time>2026-04-29T12:03:59.54Z</time></trkpt><trkpt lat="33.3178441" lon="9.1888649"><ele>90.0</ele><time>2026-04-29T12:04:00.529Z</time></trkpt><trkpt lat="33.317952" lon="9.1887608"><ele>90.0</ele><time>2026-04-29T12:04:01.548Z</time></trkpt><trkpt lat="33.3180605" lon="9.1886593"><ele>90.25</ele><time>2026-04-29T12:04:02.52Z</time></trkpt><trkpt lat="33.31817" lon="9.1885494"><ele>90.5</ele><time>2026-04-29T12:04:03.524Z</time></trkpt><trkpt lat="33.3182778" lon="9.1884443"><ele>90.75</ele><time>2026-04-29T12:04:04.547Z</time></trkpt><trkpt lat="33.3183832" lon="9.1883361"><ele>91.0</ele><time>2026-04-29T12:04:05.551Z</time></trkpt><trkpt lat="33.3184833" lon="9.1882294"><ele>91.0</ele><time>2026-04-29T12:04:06.549Z</time></trkpt><trkpt lat="33.3185816" lon="9.1881227"><ele>91.0</ele><time>2026-04-29T12:04:07.553Z</time></trkpt><trkpt lat="33.318682" lon="9.1880126"><ele>91.0</ele><time>2026-04-29T12:04:08.558Z</time></trkpt><trkpt lat="33.3187811" lon="9.1879084"><ele>91.0</ele><time>2026-04-29T12:04:09.56Z</time></trkpt><trkpt lat="33.3188761" lon="9.1877991"><ele>91.0</ele><time>2026-04-29T12:04:10.55Z</time></trkpt><trkpt lat="33.318975" lon="9.1876973"><ele>91.0</ele><time>2026-04-29T12:04:11.523Z</time></trkpt><trkpt lat="33.3190751" lon="9.1875898"><ele>91.0</ele><time>2026-04-29T12:04:12.554Z</time></trkpt><trkpt lat="33.3191752" lon="9.1874829"><ele>91.0</ele><time>2026-04-29T12:04:13.534Z</time></trkpt><trkpt lat="33.3192732" lon="9.1873751"><ele>92.0</ele><time>2026-04-29T12:04:14.544Z</time></trkpt><trkpt lat="33.3193754" lon="9.1872678"><ele>93.0</ele><time>2026-04-29T12:04:15.54Z</time></trkpt><trkpt lat="33.3194784" lon="9.1871522"><ele>94.0</ele><time>2026-04-29T12:04:16.535Z</time></trkpt><trkpt lat="33.3195809" lon="9.1870483"><ele>95.0</ele><time>2026-04-29T12:04:17.546Z</time></trkpt><trkpt lat="33.3196828" lon="9.1869435"><ele>94.5</ele><time>2026-04-29T12:04:18.53Z</time></trkpt><trkpt lat="33.3197854" lon="9.1868379"><ele>94.0</ele><time>2026-04-29T12:04:19.542Z</time></trkpt><trkpt lat="33.3198896" lon="9.1867358"><ele>93.5</ele><time>2026-04-29T12:04:20.555Z</time></trkpt><trkpt lat="33.3199973" lon="9.1866364"><ele>93.0</ele><time>2026-04-29T12:04:21.528Z</time></trkpt><trkpt lat="33.3201017" lon="9.1865369"><ele>93.0</ele><time>2026-04-29T12:04:22.558Z</time></trkpt><trkpt lat="33.3202053" lon="9.1864342"><ele>93.0</ele><time>2026-04-29T12:04:23.525Z</time></trkpt><trkpt lat="33.3203086" lon="9.1863241"><ele>93.0</ele><time>2026-04-29T12:04:24.546Z</time></trkpt><trkpt lat="33.320415" lon="9.1862137"><ele>93.0</ele><time>2026-04-29T12:04:25.549Z</time></trkpt><trkpt lat="33.3205178" lon="9.1861079"><ele>92.5</ele><time>2026-04-29T12:04:26.556Z</time></trkpt><trkpt lat="33.3206219" lon="9.1860036"><ele>92.0</ele><time>2026-04-29T12:04:27.508Z</time></trkpt><trkpt lat="33.3207234" lon="9.1858995"><ele>91.5</ele><time>2026-04-29T12:04:28.538Z</time></trkpt><trkpt lat="33.3208253" lon="9.1857936"><ele>91.0</ele><time>2026-04-29T12:04:29.552Z</time></trkpt><trkpt lat="33.320928" lon="9.1856906"><ele>90.5</ele><time>2026-04-29T12:04:30.549Z</time></trkpt><trkpt lat="33.3210256" lon="9.1855831"><ele>90.0</ele><time>2026-04-29T12:04:31.539Z</time></trkpt><trkpt lat="33.3211224" lon="9.185474"><ele>89.5</ele><time>2026-04-29T12:04:32.569Z</time></trkpt><trkpt lat="33.3212216" lon="9.1853718"><ele>89.0</ele><time>2026-04-29T12:04:33.552Z</time></trkpt><trkpt lat="33.3213225" lon="9.1852679"><ele>89.5</ele><time>2026-04-29T12:04:34.558Z</time></trkpt><trkpt lat="33.3214164" lon="9.1851602"><ele>90.0</ele><time>2026-04-29T12:04:35.528Z</time></trkpt><trkpt lat="33.321513" lon="9.1850536"><ele>90.5</ele><time>2026-04-29T12:04:36.561Z</time></trkpt><trkpt lat="33.3216127" lon="9.1849467"><ele>91.0</ele><time>2026-04-29T12:04:37.535Z</time></trkpt><trkpt lat="33.321709" lon="9.184841"><ele>91.0</ele><time>2026-04-29T12:04:38.52Z</time></trkpt><trkpt lat="33.3218018" lon="9.1847416"><ele>91.0</ele><time>2026-04-29T12:04:39.545Z</time></trkpt><trkpt lat="33.3218947" lon="9.1846431"><ele>91.0</ele><time>2026-04-29T12:04:40.548Z</time></trkpt><trkpt lat="33.321993" lon="9.1845511"><ele>91.0</ele><time>2026-04-29T12:04:41.564Z</time></trkpt><trkpt lat="33.3220947" lon="9.1844572"><ele>91.0</ele><time>2026-04-29T12:04:42.55Z</time></trkpt><trkpt lat="33.3221968" lon="9.1843546"><ele>91.0</ele><time>2026-04-29T12:04:43.489Z</time></trkpt><trkpt lat="33.3223015" lon="9.1842528"><ele>91.0</ele><time>2026-04-29T12:04:44.515Z</time></trkpt><trkpt lat="33.3224021" lon="9.1841505"><ele>91.0</ele><time>2026-04-29T12:04:45.498Z</time></trkpt><trkpt lat="33.322508" lon="9.1840445"><ele>90.5</ele><time>2026-04-29T12:04:46.49Z</time></trkpt><trkpt lat="33.3226116" lon="9.1839379"><ele>90.0</ele><time>2026-04-29T12:04:47.486Z</time></trkpt><trkpt lat="33.3227125" lon="9.1838298"><ele>89.5</ele><time>2026-04-29T12:04:48.491Z</time></trkpt><trkpt lat="33.3228167" lon="9.1837197"><ele>89.0</ele><time>2026-04-29T12:04:49.518Z</time></trkpt><trkpt lat="33.3229174" lon="9.1836107"><ele>89.0</ele><time>2026-04-29T12:04:50.518Z</time></trkpt><trkpt lat="33.3230256" lon="9.1835063"><ele>89.0</ele><time>2026-04-29T12:04:51.536Z</time></trkpt><trkpt lat="33.3231353" lon="9.183397"><ele>89.0</ele><time>2026-04-29T12:04:52.505Z</time></trkpt><trkpt lat="33.3232414" lon="9.1832895"><ele>89.0</ele><time>2026-04-29T12:04:53.546Z</time></trkpt><trkpt lat="33.3233439" lon="9.1831855"><ele>89.0</ele><time>2026-04-29T12:04:54.546Z</time></trkpt><trkpt lat="33.3234489" lon="9.183073"><ele>89.0</ele><time>2026-04-29T12:04:55.538Z</time></trkpt><trkpt lat="33.3235552" lon="9.182968"><ele>89.0</ele><time>2026-04-29T12:04:56.539Z</time></trkpt><trkpt lat="33.3236596" lon="9.1828613"><ele>89.0</ele><time>2026-04-29T12:04:57.528Z</time></trkpt><trkpt lat="33.3237632" lon="9.1827545"><ele>89.0</ele><time>2026-04-29T12:04:58.524Z</time></trkpt><trkpt lat="33.3238658" lon="9.1826525"><ele>89.0</ele><time>2026-04-29T12:04:59.546Z</time></trkpt><trkpt lat="33.3239604" lon="9.1825499"><ele>89.0</ele><time>2026-04-29T12:05:00.504Z</time></trkpt><trkpt lat="33.3240514" lon="9.1824672"><ele>89.0</ele><time>2026-04-29T12:05:01.563Z</time></trkpt><trkpt lat="33.3241199" lon="9.1823975"><ele>89.33333333333334</ele><time>2026-04-29T12:05:02.563Z</time></trkpt><trkpt lat="33.3241833" lon="9.1823282"><ele>89.66666666666667</ele><time>2026-04-29T12:05:03.547Z</time></trkpt><trkpt lat="33.3242473" lon="9.1822671"><ele>90.0</ele><time>2026-04-29T12:05:04.534Z</time></trkpt><trkpt lat="33.32431" lon="9.1822068"><ele>90.33333333333333</ele><time>2026-04-29T12:05:05.558Z</time></trkpt><trkpt lat="33.3243744" lon="9.1821444"><ele>90.66666666666666</ele><time>2026-04-29T12:05:06.557Z</time></trkpt><trkpt lat="33.3244423" lon="9.1820739"><ele>91.0</ele><time>2026-04-29T12:05:07.565Z</time></trkpt><trkpt lat="33.3245054" lon="9.1819982"><ele>91.0</ele><time>2026-04-29T12:05:08.549Z</time></trkpt><trkpt lat="33.3245752" lon="9.1819112"><ele>91.0</ele><time>2026-04-29T12:05:09.502Z</time></trkpt><trkpt lat="33.3246509" lon="9.1818279"><ele>91.0</ele><time>2026-04-29T12:05:10.54Z</time></trkpt><trkpt lat="33.3247352" lon="9.1817409"><ele>91.0</ele><time>2026-04-29T12:05:11.542Z</time></trkpt><trkpt lat="33.3248164" lon="9.1816531"><ele>91.0</ele><time>2026-04-29T12:05:12.557Z</time></trkpt><trkpt lat="33.3248981" lon="9.1815662"><ele>91.0</ele><time>2026-04-29T12:05:13.526Z</time></trkpt><trkpt lat="33.3249806" lon="9.1814744"><ele>91.0</ele><time>2026-04-29T12:05:14.55Z</time></trkpt><trkpt lat="33.3250596" lon="9.1813877"><ele>91.0</ele><time>2026-04-29T12:05:15.504Z</time></trkpt><trkpt lat="33.3251414" lon="9.1813013"><ele>91.0</ele><time>2026-04-29T12:05:16.54Z</time></trkpt><trkpt lat="33.3252249" lon="9.1812073"><ele>91.0</ele><time>2026-04-29T12:05:17.543Z</time></trkpt><trkpt lat="33.3253085" lon="9.1811206"><ele>91.0</ele><time>2026-04-29T12:05:18.559Z</time></trkpt><trkpt lat="33.3253929" lon="9.1810403"><ele>91.0</ele><time>2026-04-29T12:05:19.548Z</time></trkpt><trkpt lat="33.3254755" lon="9.1809582"><ele>91.0</ele><time>2026-04-29T12:05:20.538Z</time></trkpt><trkpt lat="33.3255631" lon="9.1808819"><ele>91.0</ele><time>2026-04-29T12:05:21.54Z</time></trkpt><trkpt lat="33.3256467" lon="9.1808014"><ele>91.0</ele><time>2026-04-29T12:05:22.545Z</time></trkpt><trkpt lat="33.3257375" lon="9.1807208"><ele>91.0</ele><time>2026-04-29T12:05:23.529Z</time></trkpt><trkpt lat="33.3258245" lon="9.1806409"><ele>91.0</ele><time>2026-04-29T12:05:24.555Z</time></trkpt><trkpt lat="33.3259063" lon="9.1805584"><ele>91.0</ele><time>2026-04-29T12:05:25.559Z</time></trkpt><trkpt lat="33.3259834" lon="9.1804788"><ele>91.0</ele><time>2026-04-29T12:05:26.51Z</time></trkpt><trkpt lat="33.326057" lon="9.1803976"><ele>91.0</ele><time>2026-04-29T12:05:27.499Z</time></trkpt><trkpt lat="33.3261348" lon="9.1803165"><ele>91.0</ele><time>2026-04-29T12:05:28.506Z</time></trkpt><trkpt lat="33.3262114" lon="9.1802371"><ele>91.0</ele><time>2026-04-29T12:05:29.545Z</time></trkpt><trkpt lat="33.326289" lon="9.1801572"><ele>91.0</ele><time>2026-04-29T12:05:30.533Z</time></trkpt><trkpt lat="33.3263702" lon="9.1800728"><ele>91.0</ele><time>2026-04-29T12:05:31.537Z</time></trkpt><trkpt lat="33.3264585" lon="9.1799795"><ele>91.0</ele><time>2026-04-29T12:05:32.547Z</time></trkpt><trkpt lat="33.3265553" lon="9.1798754"><ele>91.25</ele><time>2026-04-29T12:05:33.556Z</time></trkpt><trkpt lat="33.3266495" lon="9.1797671"><ele>91.5</ele><time>2026-04-29T12:05:34.543Z</time></trkpt><trkpt lat="33.3267488" lon="9.1796581"><ele>91.75</ele><time>2026-04-29T12:05:35.555Z</time></trkpt><trkpt lat="33.3268389" lon="9.1795516"><ele>92.0</ele><time>2026-04-29T12:05:36.549Z</time></trkpt><trkpt lat="33.326927" lon="9.1794497"><ele>92.0</ele><time>2026-04-29T12:05:37.555Z</time></trkpt><trkpt lat="33.327007" lon="9.1793606"><ele>92.0</ele><time>2026-04-29T12:05:38.511Z</time></trkpt><trkpt lat="33.3270754" lon="9.1792856"><ele>92.0</ele><time>2026-04-29T12:05:39.544Z</time></trkpt><trkpt lat="33.3271364" lon="9.1792184"><ele>92.0</ele><time>2026-04-29T12:05:40.553Z</time></trkpt><trkpt lat="33.3271966" lon="9.1791493"><ele>92.0</ele><time>2026-04-29T12:05:41.538Z</time></trkpt><trkpt lat="33.3272537" lon="9.1790885"><ele>92.0</ele><time>2026-04-29T12:05:42.543Z</time></trkpt><trkpt lat="33.3273073" lon="9.1790316"><ele>91.83333333333334</ele><time>2026-04-29T12:05:43.542Z</time></trkpt><trkpt lat="33.327354" lon="9.1789785"><ele>91.66666666666667</ele><time>2026-04-29T12:05:44.517Z</time></trkpt><trkpt lat="33.3274287" lon="9.1789005"><ele>91.5</ele><time>2026-04-29T12:05:46.543Z</time></trkpt><trkpt lat="33.3274782" lon="9.178844"><ele>91.33333333333333</ele><time>2026-04-29T12:05:49.542Z</time></trkpt><trkpt lat="33.3275468" lon="9.17874"><ele>91.16666666666666</ele><time>2026-04-29T12:06:21.549Z</time></trkpt><trkpt lat="33.3276061" lon="9.178652"><ele>91.0</ele><time>2026-04-29T12:06:22.551Z</time></trkpt><trkpt lat="33.3276694" lon="9.1785591"><ele>91.0</ele><time>2026-04-29T12:06:23.563Z</time></trkpt><trkpt lat="33.3277356" lon="9.1784698"><ele>91.0</ele><time>2026-04-29T12:06:24.556Z</time></trkpt><trkpt lat="33.3278034" lon="9.1783751"><ele>91.0</ele><time>2026-04-29T12:06:25.539Z</time></trkpt><trkpt lat="33.327872" lon="9.178282"><ele>91.0</ele><time>2026-04-29T12:06:26.527Z</time></trkpt><trkpt lat="33.3279429" lon="9.1781846"><ele>91.0</ele><time>2026-04-29T12:06:27.521Z</time></trkpt><trkpt lat="33.3280154" lon="9.1780881"><ele>91.0</ele><time>2026-04-29T12:06:28.562Z</time></trkpt><trkpt lat="33.3280856" lon="9.1779919"><ele>91.0</ele><time>2026-04-29T12:06:29.543Z</time></trkpt><trkpt lat="33.3281574" lon="9.1778853"><ele>91.0</ele><time>2026-04-29T12:06:30.548Z</time></trkpt><trkpt lat="33.3282346" lon="9.1777852"><ele>91.0</ele><time>2026-04-29T12:06:31.533Z</time></trkpt><trkpt lat="33.3283091" lon="9.1776857"><ele>91.0</ele><time>2026-04-29T12:06:32.564Z</time></trkpt><trkpt lat="33.3283804" lon="9.1775865"><ele>91.0</ele><time>2026-04-29T12:06:33.556Z</time></trkpt><trkpt lat="33.3284549" lon="9.1774834"><ele>91.0</ele><time>2026-04-29T12:06:34.565Z</time></trkpt><trkpt lat="33.3285285" lon="9.1773831"><ele>91.0</ele><time>2026-04-29T12:06:35.559Z</time></trkpt><trkpt lat="33.3285981" lon="9.1772879"><ele>91.0</ele><time>2026-04-29T12:06:36.538Z</time></trkpt><trkpt lat="33.3286681" lon="9.1771919"><ele>91.0</ele><time>2026-04-29T12:06:37.538Z</time></trkpt><trkpt lat="33.3287331" lon="9.1770976"><ele>90.0</ele><time>2026-04-29T12:06:38.542Z</time></trkpt><trkpt lat="33.3287916" lon="9.1770032"><ele>89.0</ele><time>2026-04-29T12:06:39.542Z</time></trkpt><trkpt lat="33.328857" lon="9.1769056"><ele>88.0</ele><time>2026-04-29T12:06:40.556Z</time></trkpt><trkpt lat="33.3289168" lon="9.1768023"><ele>87.0</ele><time>2026-04-29T12:06:41.518Z</time></trkpt><trkpt lat="33.3289764" lon="9.1767027"><ele>86.0</ele><time>2026-04-29T12:06:42.535Z</time></trkpt><trkpt lat="33.3290358" lon="9.1766018"><ele>85.6</ele><time>2026-04-29T12:06:43.537Z</time></trkpt><trkpt lat="33.329096" lon="9.176498"><ele>85.19999999999999</ele><time>2026-04-29T12:06:44.565Z</time></trkpt><trkpt lat="33.3291536" lon="9.1763863"><ele>84.80000000000001</ele><time>2026-04-29T12:06:45.543Z</time></trkpt><trkpt lat="33.3292141" lon="9.1762796"><ele>84.4</ele><time>2026-04-29T12:06:46.559Z</time></trkpt><trkpt lat="33.3292721" lon="9.1761716"><ele>84.0</ele><time>2026-04-29T12:06:47.558Z</time></trkpt><trkpt lat="33.3293324" lon="9.1760652"><ele>84.0</ele><time>2026-04-29T12:06:48.546Z</time></trkpt><trkpt lat="33.3293855" lon="9.1759545"><ele>84.0</ele><time>2026-04-29T12:06:49.523Z</time></trkpt><trkpt lat="33.3294425" lon="9.1758471"><ele>84.0</ele><time>2026-04-29T12:06:50.546Z</time></trkpt><trkpt lat="33.3295023" lon="9.1757382"><ele>84.0</ele><time>2026-04-29T12:06:51.561Z</time></trkpt><trkpt lat="33.3295623" lon="9.1756298"><ele>84.0</ele><time>2026-04-29T12:06:52.523Z</time></trkpt><trkpt lat="33.3296166" lon="9.175521"><ele>84.80000000000001</ele><time>2026-04-29T12:06:53.556Z</time></trkpt><trkpt lat="33.3296744" lon="9.1754144"><ele>85.60000000000001</ele><time>2026-04-29T12:06:54.554Z</time></trkpt><trkpt lat="33.3297255" lon="9.1753119"><ele>86.4</ele><time>2026-04-29T12:06:55.544Z</time></trkpt><trkpt lat="33.3297795" lon="9.1752081"><ele>87.2</ele><time>2026-04-29T12:06:56.559Z</time></trkpt><trkpt lat="33.3298243" lon="9.1751052"><ele>88.0</ele><time>2026-04-29T12:06:57.544Z</time></trkpt><trkpt lat="33.3298718" lon="9.1750045"><ele>88.33333333333333</ele><time>2026-04-29T12:06:58.544Z</time></trkpt><trkpt lat="33.3299225" lon="9.1749122"><ele>88.66666666666666</ele><time>2026-04-29T12:06:59.562Z</time></trkpt><trkpt lat="33.3299728" lon="9.1748232"><ele>89.0</ele><time>2026-04-29T12:07:00.522Z</time></trkpt><trkpt lat="33.3300171" lon="9.1747383"><ele>89.33333333333333</ele><time>2026-04-29T12:07:01.55Z</time></trkpt><trkpt lat="33.3300597" lon="9.1746566"><ele>89.66666666666667</ele><time>2026-04-29T12:07:02.531Z</time></trkpt><trkpt lat="33.3301" lon="9.174569"><ele>90.0</ele><time>2026-04-29T12:07:03.547Z</time></trkpt><trkpt lat="33.3301425" lon="9.1744691"><ele>89.83333333333333</ele><time>2026-04-29T12:07:04.546Z</time></trkpt><trkpt lat="33.3301912" lon="9.1743765"><ele>89.66666666666667</ele><time>2026-04-29T12:07:05.557Z</time></trkpt><trkpt lat="33.3302402" lon="9.1743008"><ele>89.5</ele><time>2026-04-29T12:07:06.552Z</time></trkpt><trkpt lat="33.3302847" lon="9.174222"><ele>89.33333333333334</ele><time>2026-04-29T12:07:07.553Z</time></trkpt><trkpt lat="33.3303236" lon="9.1741544"><ele>89.16666666666667</ele><time>2026-04-29T12:07:08.513Z</time></trkpt><trkpt lat="33.3303552" lon="9.1740882"><ele>89.0</ele><time>2026-04-29T12:07:09.541Z</time></trkpt><trkpt lat="33.3304122" lon="9.173935"><ele>89.0</ele><time>2026-04-29T12:07:11.526Z</time></trkpt><trkpt lat="33.3304569" lon="9.1738228"><ele>89.0</ele><time>2026-04-29T12:07:12.54Z</time></trkpt><trkpt lat="33.3305135" lon="9.1736991"><ele>89.0</ele><time>2026-04-29T12:07:13.552Z</time></trkpt><trkpt lat="33.3305591" lon="9.1735737"><ele>89.0</ele><time>2026-04-29T12:07:14.553Z</time></trkpt><trkpt lat="33.3306077" lon="9.1734503"><ele>89.0</ele><time>2026-04-29T12:07:15.538Z</time></trkpt><trkpt lat="33.3306588" lon="9.1733397"><ele>89.0</ele><time>2026-04-29T12:07:16.571Z</time></trkpt><trkpt lat="33.3307008" lon="9.1732252"><ele>89.0</ele><time>2026-04-29T12:07:17.522Z</time></trkpt><trkpt lat="33.3307411" lon="9.1731144"><ele>89.0</ele><time>2026-04-29T12:07:18.557Z</time></trkpt><trkpt lat="33.3307826" lon="9.1730014"><ele>89.0</ele><time>2026-04-29T12:07:19.523Z</time></trkpt><trkpt lat="33.3308276" lon="9.1728884"><ele>89.0</ele><time>2026-04-29T12:07:20.55Z</time></trkpt><trkpt lat="33.3308743" lon="9.1727777"><ele>89.0</ele><time>2026-04-29T12:07:21.54Z</time></trkpt><trkpt lat="33.3309165" lon="9.1726678"><ele>89.0</ele><time>2026-04-29T12:07:22.495Z</time></trkpt><trkpt lat="33.3309571" lon="9.1725517"><ele>89.0</ele><time>2026-04-29T12:07:23.547Z</time></trkpt><trkpt lat="33.3309987" lon="9.1724399"><ele>89.0</ele><time>2026-04-29T12:07:24.547Z</time></trkpt><trkpt lat="33.3310395" lon="9.1723315"><ele>89.0</ele><time>2026-04-29T12:07:25.544Z</time></trkpt><trkpt lat="33.3310793" lon="9.1722258"><ele>89.0</ele><time>2026-04-29T12:07:26.543Z</time></trkpt><trkpt lat="33.3311142" lon="9.1721343"><ele>89.0</ele><time>2026-04-29T12:07:27.543Z</time></trkpt><trkpt lat="33.3311433" lon="9.1720581"><ele>89.0</ele><time>2026-04-29T12:07:28.547Z</time></trkpt><trkpt lat="33.3311809" lon="9.1719464"><ele>89.0</ele><time>2026-04-29T12:07:30.556Z</time></trkpt><trkpt lat="33.3312086" lon="9.1718729"><ele>89.0</ele><time>2026-04-29T12:07:32.536Z</time></trkpt><trkpt lat="33.3312436" lon="9.1717812"><ele>89.0</ele><time>2026-04-29T12:07:44.516Z</time></trkpt><trkpt lat="33.3312786" lon="9.1716274"><ele>89.0</ele><time>2026-04-29T12:07:46.526Z</time></trkpt><trkpt lat="33.3312974" lon="9.1715215"><ele>89.0</ele><time>2026-04-29T12:07:47.529Z</time></trkpt><trkpt lat="33.331321" lon="9.1714085"><ele>89.0</ele><time>2026-04-29T12:07:48.553Z</time></trkpt><trkpt lat="33.3313547" lon="9.1712943"><ele>89.0</ele><time>2026-04-29T12:07:49.509Z</time></trkpt><trkpt lat="33.3313908" lon="9.1711759"><ele>89.0</ele><time>2026-04-29T12:07:50.555Z</time></trkpt><trkpt lat="33.3314211" lon="9.1710685"><ele>89.0</ele><time>2026-04-29T12:07:51.547Z</time></trkpt><trkpt lat="33.3314579" lon="9.1709615"><ele>89.0</ele><time>2026-04-29T12:07:52.556Z</time></trkpt><trkpt lat="33.3314907" lon="9.1708538"><ele>89.0</ele><time>2026-04-29T12:07:53.548Z</time></trkpt><trkpt lat="33.3315236" lon="9.1707406"><ele>89.0</ele><time>2026-04-29T12:07:54.551Z</time></trkpt><trkpt lat="33.3315569" lon="9.1706257"><ele>89.0</ele><time>2026-04-29T12:07:55.554Z</time></trkpt><trkpt lat="33.3315937" lon="9.1705129"><ele>89.0</ele><time>2026-04-29T12:07:56.553Z</time></trkpt><trkpt lat="33.3316333" lon="9.170398"><ele>89.0</ele><time>2026-04-29T12:07:57.549Z</time></trkpt><trkpt lat="33.3316735" lon="9.1702848"><ele>89.0</ele><time>2026-04-29T12:07:58.524Z</time></trkpt><trkpt lat="33.3317136" lon="9.1701705"><ele>89.0</ele><time>2026-04-29T12:07:59.548Z</time></trkpt><trkpt lat="33.3317545" lon="9.170054"><ele>89.0</ele><time>2026-04-29T12:08:00.516Z</time></trkpt><trkpt lat="33.3317957" lon="9.1699459"><ele>89.0</ele><time>2026-04-29T12:08:01.553Z</time></trkpt><trkpt lat="33.3318359" lon="9.1698349"><ele>89.0</ele><time>2026-04-29T12:08:02.539Z</time></trkpt><trkpt lat="33.3318752" lon="9.1697245"><ele>89.0</ele><time>2026-04-29T12:08:03.543Z</time></trkpt><trkpt lat="33.3319131" lon="9.1696153"><ele>89.0</ele><time>2026-04-29T12:08:04.555Z</time></trkpt><trkpt lat="33.3319488" lon="9.1695107"><ele>88.80000000000001</ele><time>2026-04-29T12:08:05.565Z</time></trkpt><trkpt lat="33.3319885" lon="9.1694071"><ele>88.60000000000001</ele><time>2026-04-29T12:08:06.561Z</time></trkpt><trkpt lat="33.3320247" lon="9.1693065"><ele>88.4</ele><time>2026-04-29T12:08:07.551Z</time></trkpt><trkpt lat="33.3320626" lon="9.1692016"><ele>88.2</ele><time>2026-04-29T12:08:08.557Z</time></trkpt><trkpt lat="33.3320975" lon="9.1691016"><ele>88.0</ele><time>2026-04-29T12:08:09.556Z</time></trkpt><trkpt lat="33.332137" lon="9.1690009"><ele>87.80000000000001</ele><time>2026-04-29T12:08:10.553Z</time></trkpt><trkpt lat="33.3321782" lon="9.1689005"><ele>87.6</ele><time>2026-04-29T12:08:11.539Z</time></trkpt><trkpt lat="33.332214" lon="9.1687969"><ele>87.4</ele><time>2026-04-29T12:08:12.533Z</time></trkpt><trkpt lat="33.3322479" lon="9.1686929"><ele>87.19999999999999</ele><time>2026-04-29T12:08:13.54Z</time></trkpt><trkpt lat="33.3322807" lon="9.16859"><ele>87.0</ele><time>2026-04-29T12:08:14.53Z</time></trkpt><trkpt lat="33.3323173" lon="9.1684828"><ele>86.8</ele><time>2026-04-29T12:08:15.545Z</time></trkpt><trkpt lat="33.3323504" lon="9.1683766"><ele>86.6</ele><time>2026-04-29T12:08:16.559Z</time></trkpt><trkpt lat="33.3323818" lon="9.1682717"><ele>86.39999999999999</ele><time>2026-04-29T12:08:17.531Z</time></trkpt><trkpt lat="33.3324218" lon="9.1681533"><ele>86.19999999999999</ele><time>2026-04-29T12:08:18.513Z</time></trkpt><trkpt lat="33.3324659" lon="9.1680264"><ele>86.0</ele><time>2026-04-29T12:08:19.514Z</time></trkpt><trkpt lat="33.3325176" lon="9.1679022"><ele>85.0</ele><time>2026-04-29T12:08:20.548Z</time></trkpt><trkpt lat="33.3325637" lon="9.1677772"><ele>84.0</ele><time>2026-04-29T12:08:21.565Z</time></trkpt><trkpt lat="33.3326071" lon="9.1676507"><ele>83.0</ele><time>2026-04-29T12:08:22.57Z</time></trkpt><trkpt lat="33.3326554" lon="9.167518"><ele>82.0</ele><time>2026-04-29T12:08:23.568Z</time></trkpt><trkpt lat="33.3327044" lon="9.1673882"><ele>82.5</ele><time>2026-04-29T12:08:24.552Z</time></trkpt><trkpt lat="33.3327529" lon="9.1672525"><ele>83.0</ele><time>2026-04-29T12:08:25.548Z</time></trkpt><trkpt lat="33.3327949" lon="9.1671147"><ele>83.5</ele><time>2026-04-29T12:08:26.556Z</time></trkpt><trkpt lat="33.3328344" lon="9.1669747"><ele>84.0</ele><time>2026-04-29T12:08:27.532Z</time></trkpt><trkpt lat="33.3328751" lon="9.1668246"><ele>84.0</ele><time>2026-04-29T12:08:28.565Z</time></trkpt><trkpt lat="33.3329213" lon="9.1666819"><ele>84.0</ele><time>2026-04-29T12:08:29.548Z</time></trkpt><trkpt lat="33.3329699" lon="9.1665521"><ele>84.0</ele><time>2026-04-29T12:08:30.548Z</time></trkpt><trkpt lat="33.3330099" lon="9.1664281"><ele>84.0</ele><time>2026-04-29T12:08:31.552Z</time></trkpt><trkpt lat="33.3330499" lon="9.1663063"><ele>85.0</ele><time>2026-04-29T12:08:32.552Z</time></trkpt><trkpt lat="33.3330936" lon="9.1661842"><ele>86.0</ele><time>2026-04-29T12:08:33.557Z</time></trkpt><trkpt lat="33.3331377" lon="9.1660583"><ele>87.0</ele><time>2026-04-29T12:08:34.526Z</time></trkpt><trkpt lat="33.3331818" lon="9.1659316"><ele>88.0</ele><time>2026-04-29T12:08:35.572Z</time></trkpt><trkpt lat="33.3332272" lon="9.1658019"><ele>88.25</ele><time>2026-04-29T12:08:36.555Z</time></trkpt><trkpt lat="33.3332724" lon="9.1656777"><ele>88.5</ele><time>2026-04-29T12:08:37.542Z</time></trkpt><trkpt lat="33.3333227" lon="9.1655531"><ele>88.75</ele><time>2026-04-29T12:08:38.552Z</time></trkpt><trkpt lat="33.3333723" lon="9.165424"><ele>89.0</ele><time>2026-04-29T12:08:39.537Z</time></trkpt><trkpt lat="33.3334215" lon="9.1652941"><ele>89.0</ele><time>2026-04-29T12:08:40.553Z</time></trkpt><trkpt lat="33.3334692" lon="9.1651693"><ele>89.0</ele><time>2026-04-29T12:08:41.561Z</time></trkpt><trkpt lat="33.3335211" lon="9.165047"><ele>89.0</ele><time>2026-04-29T12:08:42.542Z</time></trkpt><trkpt lat="33.3335691" lon="9.1649313"><ele>89.0</ele><time>2026-04-29T12:08:43.559Z</time></trkpt><trkpt lat="33.333619" lon="9.1648197"><ele>89.0</ele><time>2026-04-29T12:08:44.541Z</time></trkpt><trkpt lat="33.3336631" lon="9.1647241"><ele>88.33333333333334</ele><time>2026-04-29T12:08:45.534Z</time></trkpt><trkpt lat="33.3337046" lon="9.1646358"><ele>87.66666666666667</ele><time>2026-04-29T12:08:46.545Z</time></trkpt><trkpt lat="33.3337469" lon="9.1645457"><ele>87.0</ele><time>2026-04-29T12:08:47.553Z</time></trkpt><trkpt lat="33.3337875" lon="9.1644599"><ele>86.33333333333333</ele><time>2026-04-29T12:08:48.556Z</time></trkpt><trkpt lat="33.3338364" lon="9.1643737"><ele>85.66666666666666</ele><time>2026-04-29T12:08:49.551Z</time></trkpt><trkpt lat="33.3338834" lon="9.164275"><ele>85.0</ele><time>2026-04-29T12:08:50.548Z</time></trkpt><trkpt lat="33.33393" lon="9.1641783"><ele>84.8</ele><time>2026-04-29T12:08:51.527Z</time></trkpt><trkpt lat="33.3339794" lon="9.1640796"><ele>84.6</ele><time>2026-04-29T12:08:52.547Z</time></trkpt><trkpt lat="33.3340311" lon="9.163973"><ele>84.4</ele><time>2026-04-29T12:08:53.548Z</time></trkpt><trkpt lat="33.3340867" lon="9.1638664"><ele>84.2</ele><time>2026-04-29T12:08:54.549Z</time></trkpt><trkpt lat="33.3341401" lon="9.163758"><ele>84.0</ele><time>2026-04-29T12:08:55.548Z</time></trkpt><trkpt lat="33.3341943" lon="9.1636558"><ele>84.0</ele><time>2026-04-29T12:08:56.547Z</time></trkpt><trkpt lat="33.3342498" lon="9.1635525"><ele>84.0</ele><time>2026-04-29T12:08:57.552Z</time></trkpt><trkpt lat="33.3343058" lon="9.1634418"><ele>84.0</ele><time>2026-04-29T12:08:58.536Z</time></trkpt><trkpt lat="33.334359" lon="9.1633313"><ele>84.0</ele><time>2026-04-29T12:08:59.536Z</time></trkpt><trkpt lat="33.3344144" lon="9.1632195"><ele>84.0</ele><time>2026-04-29T12:09:00.497Z</time></trkpt><trkpt lat="33.3344674" lon="9.1631139"><ele>83.80000000000001</ele><time>2026-04-29T12:09:01.55Z</time></trkpt><trkpt lat="33.3345213" lon="9.1630039"><ele>83.60000000000001</ele><time>2026-04-29T12:09:02.551Z</time></trkpt><trkpt lat="33.334578" lon="9.1629004"><ele>83.4</ele><time>2026-04-29T12:09:03.546Z</time></trkpt><trkpt lat="33.334627" lon="9.1627972"><ele>83.2</ele><time>2026-04-29T12:09:04.537Z</time></trkpt><trkpt lat="33.3346851" lon="9.1626943"><ele>83.0</ele><time>2026-04-29T12:09:05.532Z</time></trkpt><trkpt lat="33.3347403" lon="9.1625965"><ele>83.80000000000001</ele><time>2026-04-29T12:09:06.55Z</time></trkpt><trkpt lat="33.3347974" lon="9.1625058"><ele>84.6</ele><time>2026-04-29T12:09:07.501Z</time></trkpt><trkpt lat="33.3348754" lon="9.1624166"><ele>85.4</ele><time>2026-04-29T12:09:08.557Z</time></trkpt><trkpt lat="33.3349466" lon="9.1623247"><ele>86.19999999999999</ele><time>2026-04-29T12:09:09.552Z</time></trkpt><trkpt lat="33.3350201" lon="9.1622071"><ele>87.0</ele><time>2026-04-29T12:09:10.545Z</time></trkpt><trkpt lat="33.335097" lon="9.1620864"><ele>87.0</ele><time>2026-04-29T12:09:11.552Z</time></trkpt><trkpt lat="33.3351791" lon="9.1619593"><ele>87.0</ele><time>2026-04-29T12:09:12.509Z</time></trkpt><trkpt lat="33.3352579" lon="9.1618337"><ele>87.0</ele><time>2026-04-29T12:09:13.524Z</time></trkpt><trkpt lat="33.3353356" lon="9.1617067"><ele>87.0</ele><time>2026-04-29T12:09:14.548Z</time></trkpt><trkpt lat="33.3354168" lon="9.161585"><ele>86.75</ele><time>2026-04-29T12:09:15.555Z</time></trkpt><trkpt lat="33.3355019" lon="9.1614589"><ele>86.5</ele><time>2026-04-29T12:09:16.558Z</time></trkpt><trkpt lat="33.3355882" lon="9.1613324"><ele>86.25</ele><time>2026-04-29T12:09:17.53Z</time></trkpt><trkpt lat="33.3356728" lon="9.1612079"><ele>86.0</ele><time>2026-04-29T12:09:18.534Z</time></trkpt><trkpt lat="33.3357617" lon="9.1610769"><ele>85.5</ele><time>2026-04-29T12:09:19.554Z</time></trkpt><trkpt lat="33.3358502" lon="9.1609424"><ele>85.0</ele><time>2026-04-29T12:09:20.543Z</time></trkpt><trkpt lat="33.3359422" lon="9.1608049"><ele>84.5</ele><time>2026-04-29T12:09:21.55Z</time></trkpt><trkpt lat="33.3360359" lon="9.1606776"><ele>84.0</ele><time>2026-04-29T12:09:22.542Z</time></trkpt><trkpt lat="33.3361333" lon="9.1605531"><ele>84.0</ele><time>2026-04-29T12:09:23.506Z</time></trkpt><trkpt lat="33.3362302" lon="9.1604277"><ele>84.0</ele><time>2026-04-29T12:09:24.551Z</time></trkpt><trkpt lat="33.3363298" lon="9.1603047"><ele>84.0</ele><time>2026-04-29T12:09:25.526Z</time></trkpt><trkpt lat="33.3364309" lon="9.1601822"><ele>84.0</ele><time>2026-04-29T12:09:26.545Z</time></trkpt><trkpt lat="33.3365286" lon="9.1600593"><ele>84.0</ele><time>2026-04-29T12:09:27.555Z</time></trkpt><trkpt lat="33.336631" lon="9.1599363"><ele>84.0</ele><time>2026-04-29T12:09:28.549Z</time></trkpt><trkpt lat="33.3367291" lon="9.159816"><ele>84.0</ele><time>2026-04-29T12:09:29.547Z</time></trkpt><trkpt lat="33.3368332" lon="9.1597104"><ele>84.0</ele><time>2026-04-29T12:09:30.553Z</time></trkpt><trkpt lat="33.3369313" lon="9.1596062"><ele>84.0</ele><time>2026-04-29T12:09:31.548Z</time></trkpt><trkpt lat="33.3370325" lon="9.1594984"><ele>84.0</ele><time>2026-04-29T12:09:32.549Z</time></trkpt><trkpt lat="33.337131" lon="9.1593938"><ele>84.0</ele><time>2026-04-29T12:09:33.519Z</time></trkpt><trkpt lat="33.3372262" lon="9.159291"><ele>84.0</ele><time>2026-04-29T12:09:34.554Z</time></trkpt><trkpt lat="33.3373132" lon="9.1591919"><ele>84.2</ele><time>2026-04-29T12:09:35.55Z</time></trkpt><trkpt lat="33.3373946" lon="9.1591021"><ele>84.4</ele><time>2026-04-29T12:09:36.553Z</time></trkpt><trkpt lat="33.3374742" lon="9.1590275"><ele>84.6</ele><time>2026-04-29T12:09:37.546Z</time></trkpt><trkpt lat="33.3375571" lon="9.1589474"><ele>84.8</ele><time>2026-04-29T12:09:38.542Z</time></trkpt><trkpt lat="33.3376394" lon="9.1588634"><ele>85.0</ele><time>2026-04-29T12:09:39.504Z</time></trkpt><trkpt lat="33.3377241" lon="9.1587721"><ele>85.25</ele><time>2026-04-29T12:09:40.524Z</time></trkpt><trkpt lat="33.3378096" lon="9.1586802"><ele>85.5</ele><time>2026-04-29T12:09:41.548Z</time></trkpt><trkpt lat="33.3379019" lon="9.1585726"><ele>85.75</ele><time>2026-04-29T12:09:42.553Z</time></trkpt><trkpt lat="33.3379944" lon="9.1584723"><ele>86.0</ele><time>2026-04-29T12:09:43.549Z</time></trkpt><trkpt lat="33.3380864" lon="9.1583663"><ele>86.0</ele><time>2026-04-29T12:09:44.553Z</time></trkpt><trkpt lat="33.3381824" lon="9.1582645"><ele>86.0</ele><time>2026-04-29T12:09:45.538Z</time></trkpt><trkpt lat="33.3382789" lon="9.1581611"><ele>86.0</ele><time>2026-04-29T12:09:46.552Z</time></trkpt><trkpt lat="33.3383786" lon="9.1580599"><ele>86.0</ele><time>2026-04-29T12:09:47.546Z</time></trkpt><trkpt lat="33.3384771" lon="9.1579557"><ele>85.75</ele><time>2026-04-29T12:09:48.549Z</time></trkpt><trkpt lat="33.338576" lon="9.1578436"><ele>85.5</ele><time>2026-04-29T12:09:49.558Z</time></trkpt><trkpt lat="33.3386738" lon="9.1577349"><ele>85.25</ele><time>2026-04-29T12:09:50.55Z</time></trkpt><trkpt lat="33.3387657" lon="9.1576255"><ele>85.0</ele><time>2026-04-29T12:09:51.57Z</time></trkpt><trkpt lat="33.3388614" lon="9.1575157"><ele>85.75</ele><time>2026-04-29T12:09:52.552Z</time></trkpt><trkpt lat="33.3389556" lon="9.1574095"><ele>86.5</ele><time>2026-04-29T12:09:53.549Z</time></trkpt><trkpt lat="33.3390487" lon="9.1573001"><ele>87.25</ele><time>2026-04-29T12:09:54.529Z</time></trkpt><trkpt lat="33.3391457" lon="9.1572014"><ele>88.0</ele><time>2026-04-29T12:09:55.558Z</time></trkpt><trkpt lat="33.3392476" lon="9.1571022"><ele>88.0</ele><time>2026-04-29T12:09:56.562Z</time></trkpt><trkpt lat="33.3393447" lon="9.1569965"><ele>88.0</ele><time>2026-04-29T12:09:57.545Z</time></trkpt><trkpt lat="33.3394374" lon="9.1568925"><ele>88.0</ele><time>2026-04-29T12:09:58.514Z</time></trkpt><trkpt lat="33.3395299" lon="9.1567896"><ele>88.0</ele><time>2026-04-29T12:09:59.55Z</time></trkpt><trkpt lat="33.3396178" lon="9.156691"><ele>88.0</ele><time>2026-04-29T12:10:00.521Z</time></trkpt><trkpt lat="33.3396991" lon="9.1565917"><ele>88.0</ele><time>2026-04-29T12:10:01.543Z</time></trkpt><trkpt lat="33.3397837" lon="9.1564962"><ele>88.0</ele><time>2026-04-29T12:10:02.557Z</time></trkpt><trkpt lat="33.3398666" lon="9.1564033"><ele>88.0</ele><time>2026-04-29T12:10:03.537Z</time></trkpt><trkpt lat="33.33995" lon="9.1563164"><ele>87.25</ele><time>2026-04-29T12:10:04.546Z</time></trkpt><trkpt lat="33.3400365" lon="9.1562255"><ele>86.5</ele><time>2026-04-29T12:10:05.552Z</time></trkpt><trkpt lat="33.3401207" lon="9.1561295"><ele>85.75</ele><time>2026-04-29T12:10:06.528Z</time></trkpt><trkpt lat="33.3402089" lon="9.1560312"><ele>85.0</ele><time>2026-04-29T12:10:07.544Z</time></trkpt><trkpt lat="33.3403012" lon="9.155919"><ele>85.0</ele><time>2026-04-29T12:10:08.515Z</time></trkpt><trkpt lat="33.3403996" lon="9.1558086"><ele>85.0</ele><time>2026-04-29T12:10:09.545Z</time></trkpt><trkpt lat="33.3404974" lon="9.1556953"><ele>85.0</ele><time>2026-04-29T12:10:10.538Z</time></trkpt><trkpt lat="33.3405943" lon="9.1555807"><ele>85.0</ele><time>2026-04-29T12:10:11.558Z</time></trkpt><trkpt lat="33.3406893" lon="9.155465"><ele>84.75</ele><time>2026-04-29T12:10:12.544Z</time></trkpt><trkpt lat="33.3407848" lon="9.1553539"><ele>84.5</ele><time>2026-04-29T12:10:13.553Z</time></trkpt><trkpt lat="33.3408873" lon="9.1552408"><ele>84.25</ele><time>2026-04-29T12:10:14.534Z</time></trkpt><trkpt lat="33.3409919" lon="9.1551258"><ele>84.0</ele><time>2026-04-29T12:10:15.553Z</time></trkpt><trkpt lat="33.3410926" lon="9.1550103"><ele>84.0</ele><time>2026-04-29T12:10:16.546Z</time></trkpt><trkpt lat="33.3411999" lon="9.1548938"><ele>84.0</ele><time>2026-04-29T12:10:17.553Z</time></trkpt><trkpt lat="33.341316" lon="9.1547702"><ele>84.0</ele><time>2026-04-29T12:10:18.553Z</time></trkpt><trkpt lat="33.3414416" lon="9.154633"><ele>84.33333333333333</ele><time>2026-04-29T12:10:19.56Z</time></trkpt><trkpt lat="33.3415684" lon="9.1544957"><ele>84.66666666666666</ele><time>2026-04-29T12:10:20.542Z</time></trkpt><trkpt lat="33.3416968" lon="9.1543614"><ele>85.0</ele><time>2026-04-29T12:10:21.555Z</time></trkpt><trkpt lat="33.3418229" lon="9.1542168"><ele>85.0</ele><time>2026-04-29T12:10:22.559Z</time></trkpt><trkpt lat="33.3419517" lon="9.1540799"><ele>85.0</ele><time>2026-04-29T12:10:23.55Z</time></trkpt><trkpt lat="33.3420784" lon="9.1539467"><ele>85.0</ele><time>2026-04-29T12:10:24.565Z</time></trkpt><trkpt lat="33.3422094" lon="9.1538101"><ele>85.66666666666666</ele><time>2026-04-29T12:10:25.546Z</time></trkpt><trkpt lat="33.3423326" lon="9.1536743"><ele>86.33333333333333</ele><time>2026-04-29T12:10:26.548Z</time></trkpt><trkpt lat="33.3424516" lon="9.1535402"><ele>87.0</ele><time>2026-04-29T12:10:27.553Z</time></trkpt><trkpt lat="33.342579" lon="9.1534035"><ele>87.0</ele><time>2026-04-29T12:10:28.547Z</time></trkpt><trkpt lat="33.3427043" lon="9.1532707"><ele>87.0</ele><time>2026-04-29T12:10:29.554Z</time></trkpt><trkpt lat="33.3428303" lon="9.1531362"><ele>87.0</ele><time>2026-04-29T12:10:30.544Z</time></trkpt><trkpt lat="33.3429497" lon="9.1530032"><ele>86.33333333333333</ele><time>2026-04-29T12:10:31.514Z</time></trkpt><trkpt lat="33.3430669" lon="9.1528735"><ele>85.66666666666666</ele><time>2026-04-29T12:10:32.55Z</time></trkpt><trkpt lat="33.3431884" lon="9.1527489"><ele>85.0</ele><time>2026-04-29T12:10:33.528Z</time></trkpt><trkpt lat="33.343312" lon="9.1526224"><ele>85.0</ele><time>2026-04-29T12:10:34.546Z</time></trkpt><trkpt lat="33.3434316" lon="9.1524995"><ele>85.0</ele><time>2026-04-29T12:10:35.545Z</time></trkpt><trkpt lat="33.3435483" lon="9.1523783"><ele>85.0</ele><time>2026-04-29T12:10:36.556Z</time></trkpt><trkpt lat="33.3436673" lon="9.1522514"><ele>85.33333333333333</ele><time>2026-04-29T12:10:37.549Z</time></trkpt><trkpt lat="33.3437828" lon="9.1521211"><ele>85.66666666666667</ele><time>2026-04-29T12:10:38.548Z</time></trkpt><trkpt lat="33.3439002" lon="9.1519881"><ele>86.0</ele><time>2026-04-29T12:10:39.546Z</time></trkpt><trkpt lat="33.3440169" lon="9.1518604"><ele>85.0</ele><time>2026-04-29T12:10:40.54Z</time></trkpt><trkpt lat="33.3441361" lon="9.1517319"><ele>84.0</ele><time>2026-04-29T12:10:41.545Z</time></trkpt><trkpt lat="33.3442548" lon="9.1516014"><ele>83.0</ele><time>2026-04-29T12:10:42.546Z</time></trkpt><trkpt lat="33.3443766" lon="9.151469"><ele>83.0</ele><time>2026-04-29T12:10:43.539Z</time></trkpt><trkpt lat="33.3444953" lon="9.1513394"><ele>83.0</ele><time>2026-04-29T12:10:44.55Z</time></trkpt><trkpt lat="33.3446097" lon="9.1512096"><ele>83.0</ele><time>2026-04-29T12:10:45.529Z</time></trkpt><trkpt lat="33.3447261" lon="9.1510849"><ele>84.0</ele><time>2026-04-29T12:10:46.551Z</time></trkpt><trkpt lat="33.3448403" lon="9.150958"><ele>85.0</ele><time>2026-04-29T12:10:47.522Z</time></trkpt><trkpt lat="33.3449502" lon="9.1508283"><ele>86.0</ele><time>2026-04-29T12:10:48.542Z</time></trkpt><trkpt lat="33.3450667" lon="9.1506969"><ele>86.0</ele><time>2026-04-29T12:10:49.553Z</time></trkpt><trkpt lat="33.3451834" lon="9.1505695"><ele>86.0</ele><time>2026-04-29T12:10:50.523Z</time></trkpt><trkpt lat="33.3452985" lon="9.1504426"><ele>86.0</ele><time>2026-04-29T12:10:51.526Z</time></trkpt><trkpt lat="33.3454176" lon="9.1503123"><ele>86.0</ele><time>2026-04-29T12:10:52.541Z</time></trkpt><trkpt lat="33.3455364" lon="9.1501867"><ele>86.0</ele><time>2026-04-29T12:10:53.539Z</time></trkpt><trkpt lat="33.3456532" lon="9.1500594"><ele>86.0</ele><time>2026-04-29T12:10:54.559Z</time></trkpt><trkpt lat="33.3457683" lon="9.1499349"><ele>85.0</ele><time>2026-04-29T12:10:55.546Z</time></trkpt><trkpt lat="33.3458841" lon="9.1498083"><ele>84.0</ele><time>2026-04-29T12:10:56.555Z</time></trkpt><trkpt lat="33.3459991" lon="9.1496816"><ele>83.0</ele><time>2026-04-29T12:10:57.538Z</time></trkpt><trkpt lat="33.3461019" lon="9.1495661"><ele>83.0</ele><time>2026-04-29T12:10:58.524Z</time></trkpt><trkpt lat="33.3462001" lon="9.1494561"><ele>83.0</ele><time>2026-04-29T12:10:59.542Z</time></trkpt><trkpt lat="33.3462922" lon="9.1493478"><ele>83.0</ele><time>2026-04-29T12:11:00.54Z</time></trkpt><trkpt lat="33.3463812" lon="9.1492449"><ele>83.0</ele><time>2026-04-29T12:11:01.563Z</time></trkpt><trkpt lat="33.3464749" lon="9.1491407"><ele>84.25</ele><time>2026-04-29T12:11:02.547Z</time></trkpt><trkpt lat="33.3465653" lon="9.1490377"><ele>85.5</ele><time>2026-04-29T12:11:03.516Z</time></trkpt><trkpt lat="33.3466611" lon="9.1489329"><ele>86.75</ele><time>2026-04-29T12:11:04.553Z</time></trkpt><trkpt lat="33.3467582" lon="9.1488259"><ele>88.0</ele><time>2026-04-29T12:11:05.541Z</time></trkpt><trkpt lat="33.3468533" lon="9.1487214"><ele>88.0</ele><time>2026-04-29T12:11:06.54Z</time></trkpt><trkpt lat="33.3469516" lon="9.1486161"><ele>88.0</ele><time>2026-04-29T12:11:07.546Z</time></trkpt><trkpt lat="33.3470505" lon="9.1485134"><ele>88.0</ele><time>2026-04-29T12:11:08.551Z</time></trkpt><trkpt lat="33.3471485" lon="9.148412"><ele>88.0</ele><time>2026-04-29T12:11:09.544Z</time></trkpt><trkpt lat="33.347248" lon="9.1483166"><ele>87.5</ele><time>2026-04-29T12:11:10.556Z</time></trkpt><trkpt lat="33.3473512" lon="9.1482151"><ele>87.0</ele><time>2026-04-29T12:11:11.562Z</time></trkpt><trkpt lat="33.3474481" lon="9.1481095"><ele>86.5</ele><time>2026-04-29T12:11:12.554Z</time></trkpt><trkpt lat="33.3475395" lon="9.1480049"><ele>86.0</ele><time>2026-04-29T12:11:13.559Z</time></trkpt><trkpt lat="33.3476244" lon="9.1479004"><ele>86.0</ele><time>2026-04-29T12:11:14.539Z</time></trkpt><trkpt lat="33.3477086" lon="9.1478108"><ele>86.0</ele><time>2026-04-29T12:11:15.556Z</time></trkpt><trkpt lat="33.3477859" lon="9.1477282"><ele>86.0</ele><time>2026-04-29T12:11:16.558Z</time></trkpt><trkpt lat="33.3478541" lon="9.1476552"><ele>86.0</ele><time>2026-04-29T12:11:17.536Z</time></trkpt><trkpt lat="33.3479061" lon="9.1475972"><ele>86.0</ele><time>2026-04-29T12:11:18.55Z</time></trkpt><trkpt lat="33.3479767" lon="9.1475206"><ele>86.0</ele><time>2026-04-29T12:11:20.562Z</time></trkpt><trkpt lat="33.3480454" lon="9.1474356"><ele>86.0</ele><time>2026-04-29T12:11:36.535Z</time></trkpt><trkpt lat="33.3480986" lon="9.147375"><ele>86.0</ele><time>2026-04-29T12:11:37.556Z</time></trkpt><trkpt lat="33.3481643" lon="9.1473093"><ele>86.0</ele><time>2026-04-29T12:11:38.562Z</time></trkpt><trkpt lat="33.3482273" lon="9.1472481"><ele>86.0</ele><time>2026-04-29T12:11:39.545Z</time></trkpt><trkpt lat="33.3482895" lon="9.1471737"><ele>86.0</ele><time>2026-04-29T12:11:40.553Z</time></trkpt><trkpt lat="33.3483559" lon="9.1471022"><ele>85.4</ele><time>2026-04-29T12:11:41.547Z</time></trkpt><trkpt lat="33.3484199" lon="9.1470289"><ele>84.8</ele><time>2026-04-29T12:11:42.558Z</time></trkpt><trkpt lat="33.3484816" lon="9.1469492"><ele>84.2</ele><time>2026-04-29T12:11:43.538Z</time></trkpt><trkpt lat="33.3485517" lon="9.1468741"><ele>83.60000000000001</ele><time>2026-04-29T12:11:44.524Z</time></trkpt><trkpt lat="33.3486168" lon="9.1468019"><ele>83.0</ele><time>2026-04-29T12:11:45.53Z</time></trkpt><trkpt lat="33.3486885" lon="9.1467231"><ele>83.0</ele><time>2026-04-29T12:11:46.557Z</time></trkpt><trkpt lat="33.3487605" lon="9.146653"><ele>83.0</ele><time>2026-04-29T12:11:47.536Z</time></trkpt><trkpt lat="33.3488247" lon="9.1465882"><ele>83.0</ele><time>2026-04-29T12:11:48.537Z</time></trkpt><trkpt lat="33.3488825" lon="9.1465218"><ele>83.0</ele><time>2026-04-29T12:11:49.544Z</time></trkpt><trkpt lat="33.3489434" lon="9.1464534"><ele>83.0</ele><time>2026-04-29T12:11:50.552Z</time></trkpt><trkpt lat="33.349006" lon="9.1463814"><ele>83.0</ele><time>2026-04-29T12:11:51.53Z</time></trkpt><trkpt lat="33.3490783" lon="9.146302"><ele>83.33333333333334</ele><time>2026-04-29T12:11:52.553Z</time></trkpt><trkpt lat="33.3491499" lon="9.1462244"><ele>83.66666666666667</ele><time>2026-04-29T12:11:53.547Z</time></trkpt><trkpt lat="33.3492185" lon="9.1461542"><ele>84.0</ele><time>2026-04-29T12:11:54.526Z</time></trkpt><trkpt lat="33.3492839" lon="9.1460834"><ele>84.33333333333333</ele><time>2026-04-29T12:11:55.543Z</time></trkpt><trkpt lat="33.3493454" lon="9.146011"><ele>84.66666666666666</ele><time>2026-04-29T12:11:56.528Z</time></trkpt><trkpt lat="33.3494058" lon="9.1459354"><ele>85.0</ele><time>2026-04-29T12:11:57.544Z</time></trkpt><trkpt lat="33.3494616" lon="9.1458631"><ele>85.0</ele><time>2026-04-29T12:11:58.543Z</time></trkpt><trkpt lat="33.3495247" lon="9.1457919"><ele>85.0</ele><time>2026-04-29T12:11:59.542Z</time></trkpt><trkpt lat="33.3495873" lon="9.1457302"><ele>85.0</ele><time>2026-04-29T12:12:00.522Z</time></trkpt><trkpt lat="33.3496512" lon="9.1456755"><ele>85.0</ele><time>2026-04-29T12:12:01.551Z</time></trkpt><trkpt lat="33.3497166" lon="9.1456232"><ele>85.0</ele><time>2026-04-29T12:12:02.558Z</time></trkpt><trkpt lat="33.3497851" lon="9.1455712"><ele>85.0</ele><time>2026-04-29T12:12:03.531Z</time></trkpt><trkpt lat="33.3498495" lon="9.1455155"><ele>84.5</ele><time>2026-04-29T12:12:04.555Z</time></trkpt><trkpt lat="33.3499143" lon="9.1454556"><ele>84.0</ele><time>2026-04-29T12:12:05.553Z</time></trkpt><trkpt lat="33.3499741" lon="9.1453878"><ele>83.5</ele><time>2026-04-29T12:12:06.564Z</time></trkpt><trkpt lat="33.3500335" lon="9.1453208"><ele>83.0</ele><time>2026-04-29T12:12:07.534Z</time></trkpt><trkpt lat="33.3500903" lon="9.1452448"><ele>82.5</ele><time>2026-04-29T12:12:08.54Z</time></trkpt><trkpt lat="33.3501483" lon="9.1451766"><ele>82.0</ele><time>2026-04-29T12:12:09.55Z</time></trkpt><trkpt lat="33.3502069" lon="9.1451111"><ele>82.0</ele><time>2026-04-29T12:12:10.499Z</time></trkpt><trkpt lat="33.3502664" lon="9.1450496"><ele>82.0</ele><time>2026-04-29T12:12:11.55Z</time></trkpt><trkpt lat="33.3503221" lon="9.1449935"><ele>82.0</ele><time>2026-04-29T12:12:12.561Z</time></trkpt><trkpt lat="33.3503741" lon="9.1449405"><ele>82.0</ele><time>2026-04-29T12:12:13.522Z</time></trkpt><trkpt lat="33.3504501" lon="9.1448714"><ele>82.0</ele><time>2026-04-29T12:12:15.55Z</time></trkpt><trkpt lat="33.3505166" lon="9.1448066"><ele>82.0</ele><time>2026-04-29T12:13:08.546Z</time></trkpt><trkpt lat="33.3505807" lon="9.1447552"><ele>82.16666666666666</ele><time>2026-04-29T12:13:09.542Z</time></trkpt><trkpt lat="33.3506322" lon="9.1447067"><ele>82.33333333333333</ele><time>2026-04-29T12:13:10.544Z</time></trkpt><trkpt lat="33.3507215" lon="9.1446077"><ele>82.5</ele><time>2026-04-29T12:13:12.534Z</time></trkpt><trkpt lat="33.3507731" lon="9.1445522"><ele>82.66666666666667</ele><time>2026-04-29T12:13:13.536Z</time></trkpt><trkpt lat="33.3508288" lon="9.1445026"><ele>82.83333333333334</ele><time>2026-04-29T12:13:14.532Z</time></trkpt><trkpt lat="33.3508758" lon="9.1444477"><ele>83.0</ele><time>2026-04-29T12:13:15.511Z</time></trkpt><trkpt lat="33.3509276" lon="9.1443969"><ele>83.0</ele><time>2026-04-29T12:13:16.544Z</time></trkpt><trkpt lat="33.3509844" lon="9.1443532"><ele>83.0</ele><time>2026-04-29T12:13:17.537Z</time></trkpt><trkpt lat="33.3510924" lon="9.1442749"><ele>83.0</ele><time>2026-04-29T12:13:19.546Z</time></trkpt><trkpt lat="33.3511499" lon="9.1442364"><ele>83.0</ele><time>2026-04-29T12:13:20.575Z</time></trkpt><trkpt lat="33.351268" lon="9.1441687"><ele>83.0</ele><time>2026-04-29T12:13:22.546Z</time></trkpt><trkpt lat="33.3513258" lon="9.1441213"><ele>83.0</ele><time>2026-04-29T12:13:23.535Z</time></trkpt><trkpt lat="33.3513819" lon="9.1440766"><ele>83.0</ele><time>2026-04-29T12:13:24.556Z</time></trkpt><trkpt lat="33.351456" lon="9.1440228"><ele>83.0</ele><time>2026-04-29T12:13:26.547Z</time></trkpt><trkpt lat="33.3514028" lon="9.1440682"><ele>83.0</ele><time>2026-04-29T12:16:55.53Z</time></trkpt><trkpt lat="33.3513441" lon="9.1441148"><ele>83.0</ele><time>2026-04-29T12:16:59.564Z</time></trkpt><trkpt lat="33.3512708" lon="9.1441516"><ele>83.0</ele><time>2026-04-29T12:17:04.548Z</time></trkpt><trkpt lat="33.3513271" lon="9.1441042"><ele>83.0</ele><time>2026-04-29T12:17:55.553Z</time></trkpt><trkpt lat="33.3513946" lon="9.1440556"><ele>83.2</ele><time>2026-04-29T12:18:04.528Z</time></trkpt><trkpt lat="33.3514654" lon="9.1440005"><ele>83.4</ele><time>2026-04-29T12:18:06.559Z</time></trkpt><trkpt lat="33.3515668" lon="9.1439152"><ele>83.60000000000001</ele><time>2026-04-29T12:18:08.563Z</time></trkpt><trkpt lat="33.3516676" lon="9.1438362"><ele>83.80000000000001</ele><time>2026-04-29T12:18:10.556Z</time></trkpt><trkpt lat="33.3517494" lon="9.1437701"><ele>84.0</ele><time>2026-04-29T12:18:12.518Z</time></trkpt><trkpt lat="33.351837" lon="9.1437188"><ele>84.0</ele><time>2026-04-29T12:18:14.521Z</time></trkpt><trkpt lat="33.3519435" lon="9.1436416"><ele>84.0</ele><time>2026-04-29T12:18:16.539Z</time></trkpt><trkpt lat="33.352004" lon="9.1435975"><ele>84.0</ele><time>2026-04-29T12:18:17.53Z</time></trkpt><trkpt lat="33.3520643" lon="9.1435527"><ele>84.0</ele><time>2026-04-29T12:18:18.541Z</time></trkpt><trkpt lat="33.3521284" lon="9.1435002"><ele>84.0</ele><time>2026-04-29T12:18:19.526Z</time></trkpt><trkpt lat="33.3521878" lon="9.1434437"><ele>84.0</ele><time>2026-04-29T12:18:20.539Z</time></trkpt><trkpt lat="33.352253" lon="9.1433844"><ele>84.0</ele><time>2026-04-29T12:18:21.559Z</time></trkpt><trkpt lat="33.3523198" lon="9.1433331"><ele>84.0</ele><time>2026-04-29T12:18:22.545Z</time></trkpt><trkpt lat="33.3523921" lon="9.1432741"><ele>84.0</ele><time>2026-04-29T12:18:23.536Z</time></trkpt><trkpt lat="33.352468" lon="9.1432123"><ele>84.0</ele><time>2026-04-29T12:18:24.537Z</time></trkpt><trkpt lat="33.3525496" lon="9.1431516"><ele>84.0</ele><time>2026-04-29T12:18:25.557Z</time></trkpt><trkpt lat="33.3526277" lon="9.1430985"><ele>84.0</ele><time>2026-04-29T12:18:26.53Z</time></trkpt><trkpt lat="33.3526948" lon="9.1430508"><ele>83.80000000000001</ele><time>2026-04-29T12:18:27.513Z</time></trkpt><trkpt lat="33.3527924" lon="9.1429827"><ele>83.60000000000001</ele><time>2026-04-29T12:18:29.534Z</time></trkpt><trkpt lat="33.3528918" lon="9.1429128"><ele>83.4</ele><time>2026-04-29T12:18:31.567Z</time></trkpt><trkpt lat="33.3529836" lon="9.142845"><ele>83.2</ele><time>2026-04-29T12:18:33.527Z</time></trkpt><trkpt lat="33.3530619" lon="9.1427844"><ele>83.0</ele><time>2026-04-29T12:18:35.569Z</time></trkpt><trkpt lat="33.3531179" lon="9.1427356"><ele>83.0</ele><time>2026-04-29T12:18:37.559Z</time></trkpt><trkpt lat="33.3531968" lon="9.1426729"><ele>83.0</ele><time>2026-04-29T12:18:40.553Z</time></trkpt><trkpt lat="33.3532612" lon="9.1426131"><ele>83.0</ele><time>2026-04-29T12:18:42.562Z</time></trkpt><trkpt lat="33.3533522" lon="9.1425557"><ele>83.0</ele><time>2026-04-29T12:18:44.548Z</time></trkpt><trkpt lat="33.3534584" lon="9.1424781"><ele>83.0</ele><time>2026-04-29T12:18:46.538Z</time></trkpt><trkpt lat="33.3535084" lon="9.1424323"><ele>82.75</ele><time>2026-04-29T12:18:47.54Z</time></trkpt><trkpt lat="33.3536059" lon="9.1423601"><ele>82.5</ele><time>2026-04-29T12:18:49.546Z</time></trkpt><trkpt lat="33.3537078" lon="9.14229"><ele>82.25</ele><time>2026-04-29T12:18:51.563Z</time></trkpt><trkpt lat="33.3538037" lon="9.1422046"><ele>82.0</ele><time>2026-04-29T12:18:53.542Z</time></trkpt><trkpt lat="33.3539052" lon="9.1421161"><ele>82.0</ele><time>2026-04-29T12:18:55.553Z</time></trkpt><trkpt lat="33.3540123" lon="9.1420412"><ele>82.0</ele><time>2026-04-29T12:18:57.55Z</time></trkpt><trkpt lat="33.354068" lon="9.1419999"><ele>82.0</ele><time>2026-04-29T12:18:58.532Z</time></trkpt><trkpt lat="33.354124" lon="9.1419545"><ele>82.0</ele><time>2026-04-29T12:18:59.543Z</time></trkpt><trkpt lat="33.3541799" lon="9.1419027"><ele>82.0</ele><time>2026-04-29T12:19:00.544Z</time></trkpt><trkpt lat="33.3542398" lon="9.1418517"><ele>82.0</ele><time>2026-04-29T12:19:01.526Z</time></trkpt><trkpt lat="33.3542973" lon="9.1417959"><ele>82.0</ele><time>2026-04-29T12:19:02.554Z</time></trkpt><trkpt lat="33.3543566" lon="9.1417412"><ele>82.0</ele><time>2026-04-29T12:19:03.546Z</time></trkpt><trkpt lat="33.3544246" lon="9.1416814"><ele>82.0</ele><time>2026-04-29T12:19:04.535Z</time></trkpt><trkpt lat="33.3544872" lon="9.1416218"><ele>82.0</ele><time>2026-04-29T12:19:05.544Z</time></trkpt><trkpt lat="33.3545478" lon="9.1415644"><ele>82.0</ele><time>2026-04-29T12:19:06.551Z</time></trkpt><trkpt lat="33.3546079" lon="9.1415044"><ele>82.0</ele><time>2026-04-29T12:19:07.552Z</time></trkpt><trkpt lat="33.3546672" lon="9.1414413"><ele>82.16666666666666</ele><time>2026-04-29T12:19:08.557Z</time></trkpt><trkpt lat="33.3547294" lon="9.1413839"><ele>82.33333333333333</ele><time>2026-04-29T12:19:09.551Z</time></trkpt><trkpt lat="33.3547931" lon="9.1413248"><ele>82.5</ele><time>2026-04-29T12:19:10.554Z</time></trkpt><trkpt lat="33.3548566" lon="9.1412684"><ele>82.66666666666667</ele><time>2026-04-29T12:19:11.553Z</time></trkpt><trkpt lat="33.3549226" lon="9.1412153"><ele>82.83333333333334</ele><time>2026-04-29T12:19:12.548Z</time></trkpt><trkpt lat="33.3549822" lon="9.1411516"><ele>83.0</ele><time>2026-04-29T12:19:13.584Z</time></trkpt><trkpt lat="33.3550418" lon="9.1410898"><ele>83.0</ele><time>2026-04-29T12:19:14.562Z</time></trkpt><trkpt lat="33.3551023" lon="9.1410342"><ele>83.0</ele><time>2026-04-29T12:19:15.575Z</time></trkpt><trkpt lat="33.3551643" lon="9.1409792"><ele>83.0</ele><time>2026-04-29T12:19:16.556Z</time></trkpt><trkpt lat="33.3552246" lon="9.1409248"><ele>83.0</ele><time>2026-04-29T12:19:17.537Z</time></trkpt><trkpt lat="33.3552854" lon="9.1408783"><ele>83.0</ele><time>2026-04-29T12:19:18.547Z</time></trkpt><trkpt lat="33.3553448" lon="9.1408293"><ele>83.0</ele><time>2026-04-29T12:19:19.549Z</time></trkpt><trkpt lat="33.3554021" lon="9.1407779"><ele>83.0</ele><time>2026-04-29T12:19:20.555Z</time></trkpt><trkpt lat="33.3554631" lon="9.1407252"><ele>83.2</ele><time>2026-04-29T12:19:21.558Z</time></trkpt><trkpt lat="33.3555152" lon="9.1406812"><ele>83.4</ele><time>2026-04-29T12:19:22.563Z</time></trkpt><trkpt lat="33.3555951" lon="9.1405998"><ele>83.60000000000001</ele><time>2026-04-29T12:19:24.558Z</time></trkpt><trkpt lat="33.3556764" lon="9.1405212"><ele>83.80000000000001</ele><time>2026-04-29T12:19:26.569Z</time></trkpt><trkpt lat="33.3557527" lon="9.1404491"><ele>84.0</ele><time>2026-04-29T12:19:28.565Z</time></trkpt><trkpt lat="33.3558239" lon="9.1403906"><ele>84.0</ele><time>2026-04-29T12:19:30.509Z</time></trkpt><trkpt lat="33.3558759" lon="9.1403419"><ele>84.0</ele><time>2026-04-29T12:19:32.555Z</time></trkpt><trkpt lat="33.3559258" lon="9.1402948"><ele>84.0</ele><time>2026-04-29T12:19:35.559Z</time></trkpt><trkpt lat="33.3559912" lon="9.1402312"><ele>84.0</ele><time>2026-04-29T12:19:56.534Z</time></trkpt><trkpt lat="33.3560592" lon="9.1401653"><ele>84.0</ele><time>2026-04-29T12:19:58.559Z</time></trkpt><trkpt lat="33.356135" lon="9.1400938"><ele>84.0</ele><time>2026-04-29T12:20:00.544Z</time></trkpt><trkpt lat="33.3562174" lon="9.140013"><ele>84.0</ele><time>2026-04-29T12:20:02.527Z</time></trkpt><trkpt lat="33.3562966" lon="9.1399348"><ele>84.0</ele><time>2026-04-29T12:20:04.574Z</time></trkpt><trkpt lat="33.3563706" lon="9.1398655"><ele>84.0</ele><time>2026-04-29T12:20:06.549Z</time></trkpt><trkpt lat="33.3564704" lon="9.1397719"><ele>84.0</ele><time>2026-04-29T12:20:08.542Z</time></trkpt><trkpt lat="33.356526" lon="9.139723"><ele>84.0</ele><time>2026-04-29T12:20:09.549Z</time></trkpt><trkpt lat="33.3565825" lon="9.1396683"><ele>84.28571428571429</ele><time>2026-04-29T12:20:10.559Z</time></trkpt><trkpt lat="33.3566404" lon="9.1396079"><ele>84.57142857142857</ele><time>2026-04-29T12:20:11.555Z</time></trkpt><trkpt lat="33.3566934" lon="9.1395462"><ele>84.85714285714286</ele><time>2026-04-29T12:20:12.524Z</time></trkpt><trkpt lat="33.356754" lon="9.1394887"><ele>85.14285714285714</ele><time>2026-04-29T12:20:13.554Z</time></trkpt><trkpt lat="33.3568153" lon="9.139428"><ele>85.42857142857143</ele><time>2026-04-29T12:20:14.563Z</time></trkpt><trkpt lat="33.3568712" lon="9.1393734"><ele>85.71428571428572</ele><time>2026-04-29T12:20:15.566Z</time></trkpt><trkpt lat="33.3569241" lon="9.139321"><ele>86.0</ele><time>2026-04-29T12:20:16.561Z</time></trkpt><trkpt lat="33.3570114" lon="9.1392406"><ele>86.0</ele><time>2026-04-29T12:20:18.545Z</time></trkpt><trkpt lat="33.357063" lon="9.139191"><ele>86.0</ele><time>2026-04-29T12:20:20.549Z</time></trkpt><trkpt lat="33.3571177" lon="9.1391255"><ele>86.0</ele><time>2026-04-29T12:20:45.554Z</time></trkpt><trkpt lat="33.3571925" lon="9.1390552"><ele>86.0</ele><time>2026-04-29T12:20:47.546Z</time></trkpt><trkpt lat="33.3572881" lon="9.1389575"><ele>86.0</ele><time>2026-04-29T12:20:49.555Z</time></trkpt><trkpt lat="33.3573432" lon="9.1389"><ele>86.0</ele><time>2026-04-29T12:20:50.554Z</time></trkpt><trkpt lat="33.3573957" lon="9.1388435"><ele>86.0</ele><time>2026-04-29T12:20:51.527Z</time></trkpt><trkpt lat="33.3574448" lon="9.1387792"><ele>86.0</ele><time>2026-04-29T12:20:52.568Z</time></trkpt><trkpt lat="33.3574946" lon="9.1387129"><ele>86.0</ele><time>2026-04-29T12:20:53.56Z</time></trkpt><trkpt lat="33.3575403" lon="9.1386528"><ele>86.0</ele><time>2026-04-29T12:20:54.562Z</time></trkpt><trkpt lat="33.357588" lon="9.1385978"><ele>86.0</ele><time>2026-04-29T12:20:55.561Z</time></trkpt><trkpt lat="33.3576901" lon="9.1384983"><ele>86.0</ele><time>2026-04-29T12:20:57.562Z</time></trkpt><trkpt lat="33.3577484" lon="9.1384416"><ele>86.00000000000001</ele><time>2026-04-29T12:20:58.536Z</time></trkpt><trkpt lat="33.3578092" lon="9.1383842"><ele>86.0</ele><time>2026-04-29T12:20:59.566Z</time></trkpt><trkpt lat="33.3578618" lon="9.1383245"><ele>86.0</ele><time>2026-04-29T12:21:00.527Z</time></trkpt><trkpt lat="33.3579125" lon="9.1382625"><ele>86.0</ele><time>2026-04-29T12:21:01.553Z</time></trkpt><trkpt lat="33.3579628" lon="9.1382078"><ele>86.0</ele><time>2026-04-29T12:21:02.544Z</time></trkpt><trkpt lat="33.3580181" lon="9.138154"><ele>86.00000000000001</ele><time>2026-04-29T12:21:03.568Z</time></trkpt><trkpt lat="33.3580821" lon="9.1380919"><ele>86.0</ele><time>2026-04-29T12:21:04.558Z</time></trkpt><trkpt lat="33.3581528" lon="9.1380272"><ele>85.4</ele><time>2026-04-29T12:21:05.573Z</time></trkpt><trkpt lat="33.3582259" lon="9.1379617"><ele>84.8</ele><time>2026-04-29T12:21:06.58Z</time></trkpt><trkpt lat="33.358297" lon="9.1378825"><ele>84.2</ele><time>2026-04-29T12:21:07.542Z</time></trkpt><trkpt lat="33.3583704" lon="9.1378161"><ele>83.60000000000001</ele><time>2026-04-29T12:21:08.563Z</time></trkpt><trkpt lat="33.3584424" lon="9.1377493"><ele>83.0</ele><time>2026-04-29T12:21:09.565Z</time></trkpt><trkpt lat="33.3585089" lon="9.1376801"><ele>83.0</ele><time>2026-04-29T12:21:10.531Z</time></trkpt><trkpt lat="33.3585738" lon="9.1376094"><ele>83.0</ele><time>2026-04-29T12:21:11.569Z</time></trkpt><trkpt lat="33.3586418" lon="9.1375322"><ele>83.0</ele><time>2026-04-29T12:21:12.568Z</time></trkpt><trkpt lat="33.3587013" lon="9.1374654"><ele>83.0</ele><time>2026-04-29T12:21:13.58Z</time></trkpt><trkpt lat="33.358749" lon="9.1374112"><ele>83.0</ele><time>2026-04-29T12:21:14.57Z</time></trkpt><trkpt lat="33.358832" lon="9.1373273"><ele>83.0</ele><time>2026-04-29T12:21:16.551Z</time></trkpt><trkpt lat="33.3589114" lon="9.1372394"><ele>82.5</ele><time>2026-04-29T12:21:18.565Z</time></trkpt><trkpt lat="33.3589737" lon="9.1371689"><ele>82.0</ele><time>2026-04-29T12:21:20.542Z</time></trkpt><trkpt lat="33.3590349" lon="9.1371028"><ele>81.5</ele><time>2026-04-29T12:21:23.546Z</time></trkpt><trkpt lat="33.3590895" lon="9.1370418"><ele>81.0</ele><time>2026-04-29T12:21:26.54Z</time></trkpt><trkpt lat="33.3591462" lon="9.136978"><ele>80.5</ele><time>2026-04-29T12:21:30.548Z</time></trkpt><trkpt lat="33.3592125" lon="9.1368938"><ele>80.0</ele><time>2026-04-29T12:21:33.539Z</time></trkpt><trkpt lat="33.3592622" lon="9.1368406"><ele>80.0</ele><time>2026-04-29T12:21:34.553Z</time></trkpt><trkpt lat="33.3593225" lon="9.1367764"><ele>80.0</ele><time>2026-04-29T12:21:35.55Z</time></trkpt><trkpt lat="33.3593832" lon="9.1367143"><ele>80.0</ele><time>2026-04-29T12:21:36.548Z</time></trkpt><trkpt lat="33.3594388" lon="9.1366474"><ele>80.0</ele><time>2026-04-29T12:21:37.556Z</time></trkpt><trkpt lat="33.3594945" lon="9.136582"><ele>80.0</ele><time>2026-04-29T12:21:38.525Z</time></trkpt><trkpt lat="33.3595507" lon="9.1365186"><ele>80.0</ele><time>2026-04-29T12:21:39.527Z</time></trkpt><trkpt lat="33.3596036" lon="9.1364532"><ele>80.0</ele><time>2026-04-29T12:21:40.572Z</time></trkpt><trkpt lat="33.3596582" lon="9.1363931"><ele>80.0</ele><time>2026-04-29T12:21:41.572Z</time></trkpt><trkpt lat="33.3597084" lon="9.1363295"><ele>80.0</ele><time>2026-04-29T12:21:42.552Z</time></trkpt><trkpt lat="33.3597575" lon="9.1362712"><ele>80.0</ele><time>2026-04-29T12:21:43.506Z</time></trkpt><trkpt lat="33.3598069" lon="9.1362103"><ele>80.0</ele><time>2026-04-29T12:21:44.503Z</time></trkpt><trkpt lat="33.3598552" lon="9.1361479"><ele>80.0</ele><time>2026-04-29T12:21:45.553Z</time></trkpt><trkpt lat="33.3599093" lon="9.1360898"><ele>80.0</ele><time>2026-04-29T12:21:46.506Z</time></trkpt><trkpt lat="33.3599601" lon="9.1360269"><ele>80.42857142857143</ele><time>2026-04-29T12:21:47.545Z</time></trkpt><trkpt lat="33.3600074" lon="9.1359698"><ele>80.85714285714286</ele><time>2026-04-29T12:21:48.552Z</time></trkpt><trkpt lat="33.3600575" lon="9.1359111"><ele>81.28571428571428</ele><time>2026-04-29T12:21:49.56Z</time></trkpt><trkpt lat="33.3601081" lon="9.1358525"><ele>81.71428571428572</ele><time>2026-04-29T12:21:50.513Z</time></trkpt><trkpt lat="33.3601565" lon="9.13579"><ele>82.14285714285715</ele><time>2026-04-29T12:21:51.547Z</time></trkpt><trkpt lat="33.3602029" lon="9.1357245"><ele>82.57142857142857</ele><time>2026-04-29T12:21:52.556Z</time></trkpt><trkpt lat="33.3602573" lon="9.135656"><ele>83.0</ele><time>2026-04-29T12:21:53.498Z</time></trkpt><trkpt lat="33.3603071" lon="9.1355886"><ele>83.0</ele><time>2026-04-29T12:21:54.551Z</time></trkpt><trkpt lat="33.3603579" lon="9.1355213"><ele>83.0</ele><time>2026-04-29T12:21:55.511Z</time></trkpt><trkpt lat="33.3604128" lon="9.135456"><ele>83.0</ele><time>2026-04-29T12:21:56.536Z</time></trkpt><trkpt lat="33.3604724" lon="9.1353981"><ele>83.0</ele><time>2026-04-29T12:21:57.556Z</time></trkpt><trkpt lat="33.3605312" lon="9.1353431"><ele>83.0</ele><time>2026-04-29T12:21:58.537Z</time></trkpt><trkpt lat="33.3605942" lon="9.1352917"><ele>83.0</ele><time>2026-04-29T12:21:59.553Z</time></trkpt><trkpt lat="33.3606554" lon="9.1352307"><ele>83.0</ele><time>2026-04-29T12:22:00.564Z</time></trkpt><trkpt lat="33.3607134" lon="9.135168"><ele>83.0</ele><time>2026-04-29T12:22:01.532Z</time></trkpt><trkpt lat="33.3607657" lon="9.1351023"><ele>83.0</ele><time>2026-04-29T12:22:02.563Z</time></trkpt><trkpt lat="33.3608178" lon="9.1350328"><ele>83.0</ele><time>2026-04-29T12:22:03.55Z</time></trkpt><trkpt lat="33.360869" lon="9.1349647"><ele>83.0</ele><time>2026-04-29T12:22:04.566Z</time></trkpt><trkpt lat="33.3609179" lon="9.1348964"><ele>83.0</ele><time>2026-04-29T12:22:05.567Z</time></trkpt><trkpt lat="33.3609728" lon="9.1348304"><ele>83.0</ele><time>2026-04-29T12:22:06.586Z</time></trkpt><trkpt lat="33.3610256" lon="9.1347635"><ele>83.0</ele><time>2026-04-29T12:22:07.558Z</time></trkpt><trkpt lat="33.3610762" lon="9.1346997"><ele>83.0</ele><time>2026-04-29T12:22:08.54Z</time></trkpt><trkpt lat="33.3611343" lon="9.1346306"><ele>83.0</ele><time>2026-04-29T12:22:09.538Z</time></trkpt><trkpt lat="33.3611905" lon="9.1345676"><ele>83.0</ele><time>2026-04-29T12:22:10.554Z</time></trkpt><trkpt lat="33.361249" lon="9.1344982"><ele>83.0</ele><time>2026-04-29T12:22:11.502Z</time></trkpt><trkpt lat="33.3613058" lon="9.134426"><ele>83.0</ele><time>2026-04-29T12:22:12.558Z</time></trkpt><trkpt lat="33.3613646" lon="9.1343533"><ele>83.0</ele><time>2026-04-29T12:22:13.557Z</time></trkpt><trkpt lat="33.361422" lon="9.1342786"><ele>83.0</ele><time>2026-04-29T12:22:14.545Z</time></trkpt><trkpt lat="33.3614813" lon="9.1342084"><ele>83.0</ele><time>2026-04-29T12:22:15.564Z</time></trkpt><trkpt lat="33.3615424" lon="9.1341368"><ele>83.0</ele><time>2026-04-29T12:22:16.554Z</time></trkpt><trkpt lat="33.3616077" lon="9.1340643"><ele>83.0</ele><time>2026-04-29T12:22:17.558Z</time></trkpt><trkpt lat="33.3616724" lon="9.1339882"><ele>82.0</ele><time>2026-04-29T12:22:18.523Z</time></trkpt><trkpt lat="33.3617342" lon="9.133911"><ele>81.0</ele><time>2026-04-29T12:22:19.556Z</time></trkpt><trkpt lat="33.3617926" lon="9.1338438"><ele>80.0</ele><time>2026-04-29T12:22:20.545Z</time></trkpt><trkpt lat="33.361848" lon="9.1337783"><ele>79.0</ele><time>2026-04-29T12:22:21.56Z</time></trkpt><trkpt lat="33.3619071" lon="9.1337119"><ele>78.0</ele><time>2026-04-29T12:22:22.565Z</time></trkpt><trkpt lat="33.3619694" lon="9.1336457"><ele>77.0</ele><time>2026-04-29T12:22:23.559Z</time></trkpt><trkpt lat="33.362031" lon="9.1335789"><ele>77.0</ele><time>2026-04-29T12:22:24.53Z</time></trkpt><trkpt lat="33.3620934" lon="9.1335129"><ele>77.0</ele><time>2026-04-29T12:22:25.504Z</time></trkpt><trkpt lat="33.3621506" lon="9.1334507"><ele>77.0</ele><time>2026-04-29T12:22:26.562Z</time></trkpt><trkpt lat="33.3622144" lon="9.1333881"><ele>77.0</ele><time>2026-04-29T12:22:27.541Z</time></trkpt><trkpt lat="33.3622757" lon="9.1333223"><ele>77.0</ele><time>2026-04-29T12:22:28.531Z</time></trkpt><trkpt lat="33.3623343" lon="9.1332566"><ele>77.0</ele><time>2026-04-29T12:22:29.542Z</time></trkpt><trkpt lat="33.3623941" lon="9.1331896"><ele>77.0</ele><time>2026-04-29T12:22:30.532Z</time></trkpt><trkpt lat="33.3624513" lon="9.1331245"><ele>77.0</ele><time>2026-04-29T12:22:31.57Z</time></trkpt><trkpt lat="33.3625073" lon="9.1330638"><ele>77.0</ele><time>2026-04-29T12:22:32.563Z</time></trkpt><trkpt lat="33.3625572" lon="9.1330103"><ele>77.0</ele><time>2026-04-29T12:22:33.568Z</time></trkpt><trkpt lat="33.3626057" lon="9.1329577"><ele>77.0</ele><time>2026-04-29T12:22:34.576Z</time></trkpt><trkpt lat="33.3626568" lon="9.1329118"><ele>77.0</ele><time>2026-04-29T12:22:35.547Z</time></trkpt><trkpt lat="33.3627062" lon="9.1328618"><ele>77.0</ele><time>2026-04-29T12:22:36.569Z</time></trkpt><trkpt lat="33.3627619" lon="9.1328053"><ele>77.0</ele><time>2026-04-29T12:22:37.56Z</time></trkpt><trkpt lat="33.362816" lon="9.1327511"><ele>77.0</ele><time>2026-04-29T12:22:38.592Z</time></trkpt><trkpt lat="33.3629147" lon="9.1326676"><ele>77.0</ele><time>2026-04-29T12:22:40.567Z</time></trkpt><trkpt lat="33.3629658" lon="9.1326129"><ele>77.0</ele><time>2026-04-29T12:22:41.572Z</time></trkpt><trkpt lat="33.3630134" lon="9.1325527"><ele>77.0</ele><time>2026-04-29T12:22:42.575Z</time></trkpt><trkpt lat="33.3630674" lon="9.1324995"><ele>77.0</ele><time>2026-04-29T12:22:43.567Z</time></trkpt><trkpt lat="33.3631548" lon="9.1324076"><ele>77.4</ele><time>2026-04-29T12:22:45.559Z</time></trkpt><trkpt lat="33.3632486" lon="9.1323099"><ele>77.80000000000001</ele><time>2026-04-29T12:22:47.554Z</time></trkpt><trkpt lat="33.3633347" lon="9.132206"><ele>78.2</ele><time>2026-04-29T12:22:49.562Z</time></trkpt><trkpt lat="33.3633869" lon="9.1321553"><ele>78.60000000000001</ele><time>2026-04-29T12:22:50.557Z</time></trkpt><trkpt lat="33.3634374" lon="9.1321077"><ele>79.0</ele><time>2026-04-29T12:22:51.564Z</time></trkpt><trkpt lat="33.3635171" lon="9.1320398"><ele>79.0</ele><time>2026-04-29T12:22:53.551Z</time></trkpt><trkpt lat="33.3635743" lon="9.1319874"><ele>79.0</ele><time>2026-04-29T12:22:58.538Z</time></trkpt><trkpt lat="33.3636381" lon="9.1319018"><ele>79.0</ele><time>2026-04-29T12:23:08.521Z</time></trkpt><trkpt lat="33.3636916" lon="9.1318533"><ele>79.0</ele><time>2026-04-29T12:23:09.541Z</time></trkpt><trkpt lat="33.3637517" lon="9.1318022"><ele>79.0</ele><time>2026-04-29T12:23:10.526Z</time></trkpt><trkpt lat="33.3638154" lon="9.1317406"><ele>79.0</ele><time>2026-04-29T12:23:11.526Z</time></trkpt><trkpt lat="33.3638727" lon="9.1316894"><ele>79.0</ele><time>2026-04-29T12:23:12.501Z</time></trkpt><trkpt lat="33.3639243" lon="9.1316387"><ele>79.0</ele><time>2026-04-29T12:23:13.547Z</time></trkpt><trkpt lat="33.3640119" lon="9.1315495"><ele>79.0</ele><time>2026-04-29T12:23:15.524Z</time></trkpt><trkpt lat="33.3640873" lon="9.1314576"><ele>79.0</ele><time>2026-04-29T12:23:17.545Z</time></trkpt><trkpt lat="33.3641858" lon="9.1313482"><ele>79.0</ele><time>2026-04-29T12:23:19.541Z</time></trkpt><trkpt lat="33.3642413" lon="9.131278"><ele>79.0</ele><time>2026-04-29T12:23:20.554Z</time></trkpt><trkpt lat="33.3642918" lon="9.1312144"><ele>79.0</ele><time>2026-04-29T12:23:21.531Z</time></trkpt><trkpt lat="33.3643514" lon="9.1311579"><ele>79.0</ele><time>2026-04-29T12:23:22.516Z</time></trkpt><trkpt lat="33.3644089" lon="9.1310928"><ele>79.0</ele><time>2026-04-29T12:23:23.545Z</time></trkpt><trkpt lat="33.3644726" lon="9.1310319"><ele>79.0</ele><time>2026-04-29T12:23:24.532Z</time></trkpt><trkpt lat="33.3645333" lon="9.1309746"><ele>79.0</ele><time>2026-04-29T12:23:25.545Z</time></trkpt><trkpt lat="33.3645941" lon="9.130914"><ele>79.0</ele><time>2026-04-29T12:23:26.547Z</time></trkpt><trkpt lat="33.3646586" lon="9.1308491"><ele>79.0</ele><time>2026-04-29T12:23:27.547Z</time></trkpt><trkpt lat="33.3647217" lon="9.1307908"><ele>79.0</ele><time>2026-04-29T12:23:28.559Z</time></trkpt><trkpt lat="33.3647835" lon="9.1307309"><ele>79.0</ele><time>2026-04-29T12:23:29.549Z</time></trkpt><trkpt lat="33.364849" lon="9.1306739"><ele>79.0</ele><time>2026-04-29T12:23:30.535Z</time></trkpt><trkpt lat="33.3649114" lon="9.1306064"><ele>79.0</ele><time>2026-04-29T12:23:31.541Z</time></trkpt><trkpt lat="33.3649787" lon="9.1305307"><ele>78.8</ele><time>2026-04-29T12:23:32.525Z</time></trkpt><trkpt lat="33.3650435" lon="9.1304597"><ele>78.60000000000001</ele><time>2026-04-29T12:23:33.558Z</time></trkpt><trkpt lat="33.3651159" lon="9.1303887"><ele>78.4</ele><time>2026-04-29T12:23:34.549Z</time></trkpt><trkpt lat="33.3651934" lon="9.1303108"><ele>78.2</ele><time>2026-04-29T12:23:35.555Z</time></trkpt><trkpt lat="33.3652779" lon="9.1302235"><ele>78.0</ele><time>2026-04-29T12:23:36.564Z</time></trkpt><trkpt lat="33.3653626" lon="9.1301374"><ele>78.0</ele><time>2026-04-29T12:23:37.56Z</time></trkpt><trkpt lat="33.3654465" lon="9.1300507"><ele>78.0</ele><time>2026-04-29T12:23:38.575Z</time></trkpt><trkpt lat="33.365532" lon="9.1299655"><ele>78.0</ele><time>2026-04-29T12:23:39.557Z</time></trkpt><trkpt lat="33.3656175" lon="9.1298738"><ele>78.0</ele><time>2026-04-29T12:23:40.545Z</time></trkpt><trkpt lat="33.3657011" lon="9.1297859"><ele>78.0</ele><time>2026-04-29T12:23:41.561Z</time></trkpt><trkpt lat="33.3657849" lon="9.1296976"><ele>78.4</ele><time>2026-04-29T12:23:42.558Z</time></trkpt><trkpt lat="33.3658692" lon="9.1296126"><ele>78.8</ele><time>2026-04-29T12:23:43.559Z</time></trkpt><trkpt lat="33.3659554" lon="9.1295329"><ele>79.2</ele><time>2026-04-29T12:23:44.539Z</time></trkpt><trkpt lat="33.366043" lon="9.1294498"><ele>79.6</ele><time>2026-04-29T12:23:45.549Z</time></trkpt><trkpt lat="33.3661284" lon="9.1293636"><ele>80.0</ele><time>2026-04-29T12:23:46.53Z</time></trkpt><trkpt lat="33.3662151" lon="9.1292689"><ele>80.0</ele><time>2026-04-29T12:23:47.515Z</time></trkpt><trkpt lat="33.366298" lon="9.1291775"><ele>80.0</ele><time>2026-04-29T12:23:48.51Z</time></trkpt><trkpt lat="33.3663814" lon="9.1290923"><ele>80.0</ele><time>2026-04-29T12:23:49.493Z</time></trkpt><trkpt lat="33.3664651" lon="9.1290068"><ele>80.0</ele><time>2026-04-29T12:23:50.502Z</time></trkpt><trkpt lat="33.366551" lon="9.1289168"><ele>80.0</ele><time>2026-04-29T12:23:51.543Z</time></trkpt><trkpt lat="33.3666308" lon="9.1288282"><ele>80.0</ele><time>2026-04-29T12:23:52.557Z</time></trkpt><trkpt lat="33.3667182" lon="9.1287485"><ele>80.0</ele><time>2026-04-29T12:23:53.546Z</time></trkpt><trkpt lat="33.3668062" lon="9.1286592"><ele>80.0</ele><time>2026-04-29T12:23:54.55Z</time></trkpt><trkpt lat="33.3668947" lon="9.1285794"><ele>80.0</ele><time>2026-04-29T12:23:55.52Z</time></trkpt><trkpt lat="33.3669772" lon="9.1284993"><ele>80.0</ele><time>2026-04-29T12:23:56.538Z</time></trkpt><trkpt lat="33.3670619" lon="9.1284204"><ele>80.0</ele><time>2026-04-29T12:23:57.546Z</time></trkpt><trkpt lat="33.3671465" lon="9.1283427"><ele>80.0</ele><time>2026-04-29T12:23:58.542Z</time></trkpt><trkpt lat="33.3672316" lon="9.1282614"><ele>80.0</ele><time>2026-04-29T12:23:59.548Z</time></trkpt><trkpt lat="33.367317" lon="9.1281734"><ele>80.0</ele><time>2026-04-29T12:24:00.545Z</time></trkpt><trkpt lat="33.3673968" lon="9.1280845"><ele>80.0</ele><time>2026-04-29T12:24:01.55Z</time></trkpt><trkpt lat="33.3674748" lon="9.1279992"><ele>79.6</ele><time>2026-04-29T12:24:02.531Z</time></trkpt><trkpt lat="33.3675526" lon="9.1279148"><ele>79.2</ele><time>2026-04-29T12:24:03.516Z</time></trkpt><trkpt lat="33.3676317" lon="9.1278279"><ele>78.8</ele><time>2026-04-29T12:24:04.522Z</time></trkpt><trkpt lat="33.367713" lon="9.1277457"><ele>78.4</ele><time>2026-04-29T12:24:05.541Z</time></trkpt><trkpt lat="33.3677943" lon="9.1276683"><ele>78.0</ele><time>2026-04-29T12:24:06.553Z</time></trkpt><trkpt lat="33.3678762" lon="9.1275892"><ele>78.0</ele><time>2026-04-29T12:24:07.551Z</time></trkpt><trkpt lat="33.3679572" lon="9.1275071"><ele>78.0</ele><time>2026-04-29T12:24:08.544Z</time></trkpt><trkpt lat="33.368041" lon="9.12743"><ele>78.0</ele><time>2026-04-29T12:24:09.533Z</time></trkpt><trkpt lat="33.3681244" lon="9.1273468"><ele>78.0</ele><time>2026-04-29T12:24:10.555Z</time></trkpt><trkpt lat="33.3682109" lon="9.127257"><ele>78.0</ele><time>2026-04-29T12:24:11.56Z</time></trkpt><trkpt lat="33.3682989" lon="9.1271674"><ele>78.0</ele><time>2026-04-29T12:24:12.545Z</time></trkpt><trkpt lat="33.3683905" lon="9.1270755"><ele>78.0</ele><time>2026-04-29T12:24:13.56Z</time></trkpt><trkpt lat="33.3684836" lon="9.1269779"><ele>78.0</ele><time>2026-04-29T12:24:14.536Z</time></trkpt><trkpt lat="33.3685745" lon="9.1268781"><ele>78.0</ele><time>2026-04-29T12:24:15.545Z</time></trkpt><trkpt lat="33.3686685" lon="9.1267841"><ele>78.0</ele><time>2026-04-29T12:24:16.564Z</time></trkpt><trkpt lat="33.3687634" lon="9.1266877"><ele>78.0</ele><time>2026-04-29T12:24:17.55Z</time></trkpt><trkpt lat="33.3688604" lon="9.1265908"><ele>78.0</ele><time>2026-04-29T12:24:18.567Z</time></trkpt><trkpt lat="33.3689592" lon="9.1264934"><ele>78.0</ele><time>2026-04-29T12:24:19.561Z</time></trkpt><trkpt lat="33.3690549" lon="9.1264021"><ele>78.75</ele><time>2026-04-29T12:24:20.522Z</time></trkpt><trkpt lat="33.3691536" lon="9.1263023"><ele>79.5</ele><time>2026-04-29T12:24:21.542Z</time></trkpt><trkpt lat="33.3692502" lon="9.1262034"><ele>80.25</ele><time>2026-04-29T12:24:22.544Z</time></trkpt><trkpt lat="33.3693463" lon="9.1260966"><ele>81.0</ele><time>2026-04-29T12:24:23.546Z</time></trkpt><trkpt lat="33.3694441" lon="9.1259955"><ele>81.0</ele><time>2026-04-29T12:24:24.559Z</time></trkpt><trkpt lat="33.3695389" lon="9.1258904"><ele>81.0</ele><time>2026-04-29T12:24:25.553Z</time></trkpt><trkpt lat="33.3696367" lon="9.1257812"><ele>81.0</ele><time>2026-04-29T12:24:26.558Z</time></trkpt><trkpt lat="33.3697335" lon="9.1256748"><ele>81.0</ele><time>2026-04-29T12:24:27.526Z</time></trkpt><trkpt lat="33.3698341" lon="9.125564"><ele>81.25</ele><time>2026-04-29T12:24:28.567Z</time></trkpt><trkpt lat="33.3699334" lon="9.1254554"><ele>81.5</ele><time>2026-04-29T12:24:29.551Z</time></trkpt><trkpt lat="33.3700357" lon="9.1253399"><ele>81.75</ele><time>2026-04-29T12:24:30.57Z</time></trkpt><trkpt lat="33.3701356" lon="9.12523"><ele>82.0</ele><time>2026-04-29T12:24:31.569Z</time></trkpt><trkpt lat="33.3702339" lon="9.1251173"><ele>82.0</ele><time>2026-04-29T12:24:32.489Z</time></trkpt><trkpt lat="33.3703287" lon="9.1250102"><ele>82.0</ele><time>2026-04-29T12:24:33.512Z</time></trkpt><trkpt lat="33.3704233" lon="9.1249038"><ele>82.0</ele><time>2026-04-29T12:24:34.506Z</time></trkpt><trkpt lat="33.3705225" lon="9.124795"><ele>82.0</ele><time>2026-04-29T12:24:35.507Z</time></trkpt><trkpt lat="33.3706212" lon="9.1246954"><ele>81.5</ele><time>2026-04-29T12:24:36.564Z</time></trkpt><trkpt lat="33.370714" lon="9.1245902"><ele>81.0</ele><time>2026-04-29T12:24:37.521Z</time></trkpt><trkpt lat="33.3708041" lon="9.1244861"><ele>80.5</ele><time>2026-04-29T12:24:38.569Z</time></trkpt><trkpt lat="33.3708945" lon="9.1243756"><ele>80.0</ele><time>2026-04-29T12:24:39.544Z</time></trkpt><trkpt lat="33.3709905" lon="9.1242662"><ele>80.0</ele><time>2026-04-29T12:24:40.56Z</time></trkpt><trkpt lat="33.3710858" lon="9.1241597"><ele>80.0</ele><time>2026-04-29T12:24:41.545Z</time></trkpt><trkpt lat="33.3711768" lon="9.1240527"><ele>80.0</ele><time>2026-04-29T12:24:42.555Z</time></trkpt><trkpt lat="33.3712666" lon="9.1239514"><ele>80.0</ele><time>2026-04-29T12:24:43.551Z</time></trkpt><trkpt lat="33.3713591" lon="9.1238444"><ele>79.5</ele><time>2026-04-29T12:24:44.549Z</time></trkpt><trkpt lat="33.3714488" lon="9.1237364"><ele>79.0</ele><time>2026-04-29T12:24:45.554Z</time></trkpt><trkpt lat="33.3715352" lon="9.123623"><ele>78.5</ele><time>2026-04-29T12:24:46.546Z</time></trkpt><trkpt lat="33.371626" lon="9.1235144"><ele>78.0</ele><time>2026-04-29T12:24:47.544Z</time></trkpt><trkpt lat="33.3717149" lon="9.1233988"><ele>78.0</ele><time>2026-04-29T12:24:48.559Z</time></trkpt><trkpt lat="33.3718058" lon="9.1232861"><ele>78.0</ele><time>2026-04-29T12:24:49.551Z</time></trkpt><trkpt lat="33.3718949" lon="9.123174"><ele>78.0</ele><time>2026-04-29T12:24:50.538Z</time></trkpt><trkpt lat="33.3719845" lon="9.123058"><ele>78.0</ele><time>2026-04-29T12:24:51.543Z</time></trkpt><trkpt lat="33.3720757" lon="9.1229394"><ele>78.0</ele><time>2026-04-29T12:24:52.521Z</time></trkpt><trkpt lat="33.3721692" lon="9.1228225"><ele>78.0</ele><time>2026-04-29T12:24:53.541Z</time></trkpt><trkpt lat="33.3722606" lon="9.1227047"><ele>78.0</ele><time>2026-04-29T12:24:54.55Z</time></trkpt><trkpt lat="33.372353" lon="9.1225824"><ele>78.0</ele><time>2026-04-29T12:24:55.546Z</time></trkpt><trkpt lat="33.3724443" lon="9.1224671"><ele>77.75</ele><time>2026-04-29T12:24:56.534Z</time></trkpt><trkpt lat="33.3725355" lon="9.1223516"><ele>77.5</ele><time>2026-04-29T12:24:57.545Z</time></trkpt><trkpt lat="33.3726268" lon="9.1222351"><ele>77.25</ele><time>2026-04-29T12:24:58.529Z</time></trkpt><trkpt lat="33.3727177" lon="9.1221269"><ele>77.0</ele><time>2026-04-29T12:24:59.552Z</time></trkpt><trkpt lat="33.3728048" lon="9.122008"><ele>77.0</ele><time>2026-04-29T12:25:00.542Z</time></trkpt><trkpt lat="33.3728885" lon="9.1218916"><ele>77.0</ele><time>2026-04-29T12:25:01.545Z</time></trkpt><trkpt lat="33.3729721" lon="9.1217769"><ele>77.0</ele><time>2026-04-29T12:25:02.554Z</time></trkpt><trkpt lat="33.3730535" lon="9.1216723"><ele>77.0</ele><time>2026-04-29T12:25:03.527Z</time></trkpt><trkpt lat="33.3731407" lon="9.1215642"><ele>78.0</ele><time>2026-04-29T12:25:04.547Z</time></trkpt><trkpt lat="33.3732283" lon="9.1214573"><ele>79.0</ele><time>2026-04-29T12:25:05.542Z</time></trkpt><trkpt lat="33.3733119" lon="9.1213483"><ele>80.0</ele><time>2026-04-29T12:25:06.532Z</time></trkpt><trkpt lat="33.3733958" lon="9.1212381"><ele>81.0</ele><time>2026-04-29T12:25:07.556Z</time></trkpt><trkpt lat="33.3734772" lon="9.1211263"><ele>81.0</ele><time>2026-04-29T12:25:08.532Z</time></trkpt><trkpt lat="33.3735602" lon="9.1210161"><ele>81.0</ele><time>2026-04-29T12:25:09.555Z</time></trkpt><trkpt lat="33.3736388" lon="9.1209094"><ele>81.0</ele><time>2026-04-29T12:25:10.542Z</time></trkpt><trkpt lat="33.3737195" lon="9.1208011"><ele>81.0</ele><time>2026-04-29T12:25:11.528Z</time></trkpt><trkpt lat="33.3737975" lon="9.120696"><ele>80.6</ele><time>2026-04-29T12:25:12.572Z</time></trkpt><trkpt lat="33.373874" lon="9.1205892"><ele>80.19999999999999</ele><time>2026-04-29T12:25:13.521Z</time></trkpt><trkpt lat="33.3739481" lon="9.1204847"><ele>79.80000000000001</ele><time>2026-04-29T12:25:14.547Z</time></trkpt><trkpt lat="33.3740182" lon="9.1203851"><ele>79.4</ele><time>2026-04-29T12:25:15.546Z</time></trkpt><trkpt lat="33.3740842" lon="9.1203004"><ele>79.0</ele><time>2026-04-29T12:25:16.549Z</time></trkpt><trkpt lat="33.3741325" lon="9.1202354"><ele>79.0</ele><time>2026-04-29T12:25:17.544Z</time></trkpt><trkpt lat="33.3741793" lon="9.1201685"><ele>79.0</ele><time>2026-04-29T12:25:18.524Z</time></trkpt><trkpt lat="33.3742286" lon="9.1200951"><ele>79.0</ele><time>2026-04-29T12:25:19.543Z</time></trkpt><trkpt lat="33.3742824" lon="9.1200255"><ele>79.0</ele><time>2026-04-29T12:25:20.533Z</time></trkpt><trkpt lat="33.3743401" lon="9.1199583"><ele>79.0</ele><time>2026-04-29T12:25:21.563Z</time></trkpt><trkpt lat="33.3743913" lon="9.1198929"><ele>79.0</ele><time>2026-04-29T12:25:22.547Z</time></trkpt><trkpt lat="33.3744437" lon="9.1198246"><ele>79.0</ele><time>2026-04-29T12:25:23.553Z</time></trkpt><trkpt lat="33.3744928" lon="9.1197511"><ele>79.0</ele><time>2026-04-29T12:25:24.564Z</time></trkpt><trkpt lat="33.3745437" lon="9.1196739"><ele>79.0</ele><time>2026-04-29T12:25:25.534Z</time></trkpt><trkpt lat="33.3745921" lon="9.1195968"><ele>79.0</ele><time>2026-04-29T12:25:26.554Z</time></trkpt><trkpt lat="33.3746374" lon="9.1195228"><ele>79.0</ele><time>2026-04-29T12:25:27.552Z</time></trkpt><trkpt lat="33.3746878" lon="9.1194534"><ele>79.0</ele><time>2026-04-29T12:25:28.55Z</time></trkpt><trkpt lat="33.3747394" lon="9.1193841"><ele>78.85714285714286</ele><time>2026-04-29T12:25:29.552Z</time></trkpt><trkpt lat="33.3747854" lon="9.1193113"><ele>78.71428571428572</ele><time>2026-04-29T12:25:30.56Z</time></trkpt><trkpt lat="33.3748311" lon="9.1192433"><ele>78.57142857142858</ele><time>2026-04-29T12:25:31.575Z</time></trkpt><trkpt lat="33.3748779" lon="9.1191719"><ele>78.42857142857143</ele><time>2026-04-29T12:25:32.545Z</time></trkpt><trkpt lat="33.3749222" lon="9.1191014"><ele>78.28571428571428</ele><time>2026-04-29T12:25:33.561Z</time></trkpt><trkpt lat="33.3749624" lon="9.119032"><ele>78.14285714285715</ele><time>2026-04-29T12:25:34.531Z</time></trkpt><trkpt lat="33.3750049" lon="9.1189616"><ele>78.0</ele><time>2026-04-29T12:25:35.527Z</time></trkpt><trkpt lat="33.3750458" lon="9.1188932"><ele>78.0</ele><time>2026-04-29T12:25:36.547Z</time></trkpt><trkpt lat="33.3750896" lon="9.1188236"><ele>78.0</ele><time>2026-04-29T12:25:37.553Z</time></trkpt><trkpt lat="33.3751338" lon="9.1187538"><ele>78.0</ele><time>2026-04-29T12:25:38.551Z</time></trkpt><trkpt lat="33.3751804" lon="9.1186859"><ele>78.0</ele><time>2026-04-29T12:25:39.553Z</time></trkpt><trkpt lat="33.375226" lon="9.1186186"><ele>78.0</ele><time>2026-04-29T12:25:40.55Z</time></trkpt><trkpt lat="33.375274" lon="9.1185516"><ele>78.0</ele><time>2026-04-29T12:25:41.547Z</time></trkpt><trkpt lat="33.3753194" lon="9.1184814"><ele>78.0</ele><time>2026-04-29T12:25:42.566Z</time></trkpt><trkpt lat="33.3753699" lon="9.1184118"><ele>78.0</ele><time>2026-04-29T12:25:43.532Z</time></trkpt><trkpt lat="33.3754184" lon="9.1183416"><ele>78.0</ele><time>2026-04-29T12:25:44.541Z</time></trkpt><trkpt lat="33.3754626" lon="9.118275"><ele>78.0</ele><time>2026-04-29T12:25:45.553Z</time></trkpt><trkpt lat="33.3755067" lon="9.1182123"><ele>78.0</ele><time>2026-04-29T12:25:46.548Z</time></trkpt><trkpt lat="33.3755546" lon="9.1181484"><ele>78.0</ele><time>2026-04-29T12:25:47.534Z</time></trkpt><trkpt lat="33.3755971" lon="9.1180804"><ele>78.0</ele><time>2026-04-29T12:25:48.564Z</time></trkpt><trkpt lat="33.3756452" lon="9.1180037"><ele>78.0</ele><time>2026-04-29T12:25:49.551Z</time></trkpt><trkpt lat="33.3756974" lon="9.1179269"><ele>77.83333333333333</ele><time>2026-04-29T12:25:50.513Z</time></trkpt><trkpt lat="33.3757407" lon="9.1178514"><ele>77.66666666666667</ele><time>2026-04-29T12:25:51.519Z</time></trkpt><trkpt lat="33.3757863" lon="9.1177718"><ele>77.5</ele><time>2026-04-29T12:25:52.557Z</time></trkpt><trkpt lat="33.3758368" lon="9.1176962"><ele>77.33333333333334</ele><time>2026-04-29T12:25:53.543Z</time></trkpt><trkpt lat="33.3758852" lon="9.1176127"><ele>77.16666666666667</ele><time>2026-04-29T12:25:54.492Z</time></trkpt><trkpt lat="33.375938" lon="9.1175275"><ele>77.0</ele><time>2026-04-29T12:25:55.514Z</time></trkpt><trkpt lat="33.3759921" lon="9.1174404"><ele>77.2</ele><time>2026-04-29T12:25:56.502Z</time></trkpt><trkpt lat="33.3760488" lon="9.1173522"><ele>77.4</ele><time>2026-04-29T12:25:57.536Z</time></trkpt><trkpt lat="33.3760978" lon="9.1172578"><ele>77.6</ele><time>2026-04-29T12:25:58.533Z</time></trkpt><trkpt lat="33.376148" lon="9.117163"><ele>77.8</ele><time>2026-04-29T12:25:59.539Z</time></trkpt><trkpt lat="33.3762095" lon="9.1170682"><ele>78.0</ele><time>2026-04-29T12:26:00.535Z</time></trkpt><trkpt lat="33.3762695" lon="9.1169675"><ele>78.0</ele><time>2026-04-29T12:26:01.538Z</time></trkpt><trkpt lat="33.3763332" lon="9.1168667"><ele>78.0</ele><time>2026-04-29T12:26:02.538Z</time></trkpt><trkpt lat="33.3763951" lon="9.1167645"><ele>78.0</ele><time>2026-04-29T12:26:03.532Z</time></trkpt><trkpt lat="33.3764569" lon="9.1166581"><ele>78.0</ele><time>2026-04-29T12:26:04.506Z</time></trkpt><trkpt lat="33.3765176" lon="9.1165528"><ele>78.0</ele><time>2026-04-29T12:26:05.532Z</time></trkpt><trkpt lat="33.3765786" lon="9.1164461"><ele>77.8</ele><time>2026-04-29T12:26:06.542Z</time></trkpt><trkpt lat="33.376641" lon="9.1163364"><ele>77.6</ele><time>2026-04-29T12:26:07.53Z</time></trkpt><trkpt lat="33.3767036" lon="9.1162283"><ele>77.4</ele><time>2026-04-29T12:26:08.543Z</time></trkpt><trkpt lat="33.3767635" lon="9.1161244"><ele>77.2</ele><time>2026-04-29T12:26:09.545Z</time></trkpt><trkpt lat="33.3768209" lon="9.1160201"><ele>77.0</ele><time>2026-04-29T12:26:10.554Z</time></trkpt><trkpt lat="33.3768827" lon="9.11592"><ele>77.0</ele><time>2026-04-29T12:26:11.547Z</time></trkpt><trkpt lat="33.3769401" lon="9.1158147"><ele>77.0</ele><time>2026-04-29T12:26:12.55Z</time></trkpt><trkpt lat="33.3769999" lon="9.1157131"><ele>77.0</ele><time>2026-04-29T12:26:13.547Z</time></trkpt><trkpt lat="33.3770545" lon="9.1156057"><ele>77.0</ele><time>2026-04-29T12:26:14.559Z</time></trkpt><trkpt lat="33.377112" lon="9.1154961"><ele>77.0</ele><time>2026-04-29T12:26:15.546Z</time></trkpt><trkpt lat="33.3771717" lon="9.1153851"><ele>77.25</ele><time>2026-04-29T12:26:16.51Z</time></trkpt><trkpt lat="33.3772312" lon="9.1152769"><ele>77.5</ele><time>2026-04-29T12:26:17.528Z</time></trkpt><trkpt lat="33.3772968" lon="9.1151672"><ele>77.75</ele><time>2026-04-29T12:26:18.548Z</time></trkpt><trkpt lat="33.3773626" lon="9.115053"><ele>78.0</ele><time>2026-04-29T12:26:19.545Z</time></trkpt><trkpt lat="33.3774265" lon="9.1149389"><ele>77.75</ele><time>2026-04-29T12:26:20.507Z</time></trkpt><trkpt lat="33.3774936" lon="9.1148264"><ele>77.5</ele><time>2026-04-29T12:26:21.569Z</time></trkpt><trkpt lat="33.3775584" lon="9.1147191"><ele>77.25</ele><time>2026-04-29T12:26:22.555Z</time></trkpt><trkpt lat="33.3776244" lon="9.1146083"><ele>77.0</ele><time>2026-04-29T12:26:23.524Z</time></trkpt><trkpt lat="33.3776925" lon="9.1144956"><ele>77.0</ele><time>2026-04-29T12:26:24.558Z</time></trkpt><trkpt lat="33.3777597" lon="9.1143835"><ele>77.0</ele><time>2026-04-29T12:26:25.549Z</time></trkpt><trkpt lat="33.3778231" lon="9.1142753"><ele>77.0</ele><time>2026-04-29T12:26:26.532Z</time></trkpt><trkpt lat="33.3778826" lon="9.1141647"><ele>77.0</ele><time>2026-04-29T12:26:27.562Z</time></trkpt><trkpt lat="33.3779395" lon="9.1140596"><ele>77.0</ele><time>2026-04-29T12:26:28.543Z</time></trkpt><trkpt lat="33.3779995" lon="9.1139503"><ele>77.0</ele><time>2026-04-29T12:26:29.555Z</time></trkpt><trkpt lat="33.378058" lon="9.1138454"><ele>77.0</ele><time>2026-04-29T12:26:30.57Z</time></trkpt><trkpt lat="33.378116" lon="9.1137468"><ele>77.0</ele><time>2026-04-29T12:26:31.572Z</time></trkpt><trkpt lat="33.3781663" lon="9.1136466"><ele>77.0</ele><time>2026-04-29T12:26:32.542Z</time></trkpt><trkpt lat="33.3782117" lon="9.1135549"><ele>77.0</ele><time>2026-04-29T12:26:33.543Z</time></trkpt><trkpt lat="33.3782597" lon="9.1134604"><ele>77.0</ele><time>2026-04-29T12:26:34.546Z</time></trkpt><trkpt lat="33.3783106" lon="9.1133729"><ele>77.0</ele><time>2026-04-29T12:26:35.558Z</time></trkpt><trkpt lat="33.3783572" lon="9.1132887"><ele>77.0</ele><time>2026-04-29T12:26:36.553Z</time></trkpt><trkpt lat="33.378401" lon="9.1132037"><ele>77.0</ele><time>2026-04-29T12:26:37.541Z</time></trkpt><trkpt lat="33.3784457" lon="9.1131199"><ele>77.0</ele><time>2026-04-29T12:26:38.541Z</time></trkpt><trkpt lat="33.3784886" lon="9.1130354"><ele>77.0</ele><time>2026-04-29T12:26:39.538Z</time></trkpt><trkpt lat="33.3785279" lon="9.1129506"><ele>77.0</ele><time>2026-04-29T12:26:40.518Z</time></trkpt><trkpt lat="33.3785725" lon="9.1128648"><ele>77.0</ele><time>2026-04-29T12:26:41.544Z</time></trkpt><trkpt lat="33.3786132" lon="9.1127905"><ele>77.0</ele><time>2026-04-29T12:26:42.559Z</time></trkpt><trkpt lat="33.3786505" lon="9.1127275"><ele>77.0</ele><time>2026-04-29T12:26:43.522Z</time></trkpt><trkpt lat="33.3787056" lon="9.1126258"><ele>77.0</ele><time>2026-04-29T12:26:45.54Z</time></trkpt><trkpt lat="33.3787394" lon="9.1125489"><ele>77.0</ele><time>2026-04-29T12:26:47.529Z</time></trkpt><trkpt lat="33.3787694" lon="9.1124823"><ele>77.0</ele><time>2026-04-29T12:26:49.544Z</time></trkpt><trkpt lat="33.3788032" lon="9.11241"><ele>77.0</ele><time>2026-04-29T12:26:52.547Z</time></trkpt><trkpt lat="33.3788311" lon="9.1123324"><ele>77.0</ele><time>2026-04-29T12:26:54.543Z</time></trkpt><trkpt lat="33.3788824" lon="9.1122005"><ele>77.0</ele><time>2026-04-29T12:26:56.54Z</time></trkpt><trkpt lat="33.3789222" lon="9.1121218"><ele>77.0</ele><time>2026-04-29T12:26:57.555Z</time></trkpt><trkpt lat="33.3789601" lon="9.1120451"><ele>77.0</ele><time>2026-04-29T12:26:58.537Z</time></trkpt><trkpt lat="33.3789978" lon="9.1119653"><ele>76.85714285714286</ele><time>2026-04-29T12:26:59.542Z</time></trkpt><trkpt lat="33.3790319" lon="9.1118846"><ele>76.71428571428572</ele><time>2026-04-29T12:27:00.548Z</time></trkpt><trkpt lat="33.379066" lon="9.1117996"><ele>76.57142857142857</ele><time>2026-04-29T12:27:01.544Z</time></trkpt><trkpt lat="33.3790958" lon="9.1117212"><ele>76.42857142857143</ele><time>2026-04-29T12:27:02.554Z</time></trkpt><trkpt lat="33.379127" lon="9.1116404"><ele>76.28571428571429</ele><time>2026-04-29T12:27:03.537Z</time></trkpt><trkpt lat="33.3791572" lon="9.1115608"><ele>76.14285714285714</ele><time>2026-04-29T12:27:04.567Z</time></trkpt><trkpt lat="33.3791886" lon="9.1114799"><ele>76.0</ele><time>2026-04-29T12:27:05.566Z</time></trkpt><trkpt lat="33.379217" lon="9.1113991"><ele>75.83333333333333</ele><time>2026-04-29T12:27:06.57Z</time></trkpt><trkpt lat="33.3792499" lon="9.1113183"><ele>75.66666666666666</ele><time>2026-04-29T12:27:07.561Z</time></trkpt><trkpt lat="33.3792831" lon="9.1112336"><ele>75.5</ele><time>2026-04-29T12:27:08.537Z</time></trkpt><trkpt lat="33.3793196" lon="9.1111511"><ele>75.33333333333333</ele><time>2026-04-29T12:27:09.547Z</time></trkpt><trkpt lat="33.3793472" lon="9.1110646"><ele>75.16666666666667</ele><time>2026-04-29T12:27:10.511Z</time></trkpt><trkpt lat="33.3793762" lon="9.1109806"><ele>75.0</ele><time>2026-04-29T12:27:11.537Z</time></trkpt><trkpt lat="33.3794082" lon="9.1108997"><ele>75.0</ele><time>2026-04-29T12:27:12.547Z</time></trkpt><trkpt lat="33.3794369" lon="9.1108147"><ele>75.0</ele><time>2026-04-29T12:27:13.53Z</time></trkpt><trkpt lat="33.3794703" lon="9.1107229"><ele>75.0</ele><time>2026-04-29T12:27:14.536Z</time></trkpt><trkpt lat="33.3795087" lon="9.110629"><ele>75.0</ele><time>2026-04-29T12:27:15.539Z</time></trkpt><trkpt lat="33.3795468" lon="9.1105333"><ele>75.0</ele><time>2026-04-29T12:27:16.534Z</time></trkpt><trkpt lat="33.3795809" lon="9.110442"><ele>75.0</ele><time>2026-04-29T12:27:17.535Z</time></trkpt><trkpt lat="33.3796126" lon="9.1103617"><ele>75.33333333333333</ele><time>2026-04-29T12:27:18.539Z</time></trkpt><trkpt lat="33.3796431" lon="9.1102889"><ele>75.66666666666667</ele><time>2026-04-29T12:27:19.562Z</time></trkpt><trkpt lat="33.3796744" lon="9.1102086"><ele>76.0</ele><time>2026-04-29T12:27:20.535Z</time></trkpt><trkpt lat="33.3797063" lon="9.1101253"><ele>76.33333333333334</ele><time>2026-04-29T12:27:21.53Z</time></trkpt><trkpt lat="33.379742" lon="9.1100339"><ele>76.66666666666667</ele><time>2026-04-29T12:27:22.553Z</time></trkpt><trkpt lat="33.3797767" lon="9.1099423"><ele>77.0</ele><time>2026-04-29T12:27:23.561Z</time></trkpt><trkpt lat="33.3798083" lon="9.1098466"><ele>77.0</ele><time>2026-04-29T12:27:24.558Z</time></trkpt><trkpt lat="33.3798396" lon="9.1097543"><ele>77.0</ele><time>2026-04-29T12:27:25.567Z</time></trkpt><trkpt lat="33.3798746" lon="9.1096612"><ele>77.0</ele><time>2026-04-29T12:27:26.573Z</time></trkpt><trkpt lat="33.3799105" lon="9.1095668"><ele>77.0</ele><time>2026-04-29T12:27:27.524Z</time></trkpt><trkpt lat="33.3799489" lon="9.1094632"><ele>77.0</ele><time>2026-04-29T12:27:28.546Z</time></trkpt><trkpt lat="33.3799851" lon="9.1093593"><ele>77.0</ele><time>2026-04-29T12:27:29.559Z</time></trkpt><trkpt lat="33.3800275" lon="9.1092517"><ele>77.0</ele><time>2026-04-29T12:27:30.559Z</time></trkpt><trkpt lat="33.380072" lon="9.1091438"><ele>77.0</ele><time>2026-04-29T12:27:31.545Z</time></trkpt><trkpt lat="33.3801213" lon="9.1090318"><ele>77.0</ele><time>2026-04-29T12:27:32.568Z</time></trkpt><trkpt lat="33.3801705" lon="9.10892"><ele>77.0</ele><time>2026-04-29T12:27:33.564Z</time></trkpt><trkpt lat="33.3802231" lon="9.1088059"><ele>77.0</ele><time>2026-04-29T12:27:34.529Z</time></trkpt><trkpt lat="33.3802714" lon="9.1086911"><ele>77.2</ele><time>2026-04-29T12:27:35.557Z</time></trkpt><trkpt lat="33.3803184" lon="9.108576"><ele>77.4</ele><time>2026-04-29T12:27:36.557Z</time></trkpt><trkpt lat="33.3803668" lon="9.108459"><ele>77.6</ele><time>2026-04-29T12:27:37.557Z</time></trkpt><trkpt lat="33.3804117" lon="9.1083397"><ele>77.8</ele><time>2026-04-29T12:27:38.56Z</time></trkpt><trkpt lat="33.3804572" lon="9.1082255"><ele>78.0</ele><time>2026-04-29T12:27:39.568Z</time></trkpt><trkpt lat="33.3805006" lon="9.1081036"><ele>77.8</ele><time>2026-04-29T12:27:40.544Z</time></trkpt><trkpt lat="33.380547" lon="9.1079834"><ele>77.6</ele><time>2026-04-29T12:27:41.536Z</time></trkpt><trkpt lat="33.3805962" lon="9.1078603"><ele>77.4</ele><time>2026-04-29T12:27:42.546Z</time></trkpt><trkpt lat="33.3806416" lon="9.1077436"><ele>77.2</ele><time>2026-04-29T12:27:43.534Z</time></trkpt><trkpt lat="33.3806862" lon="9.1076263"><ele>77.0</ele><time>2026-04-29T12:27:44.538Z</time></trkpt><trkpt lat="33.38073" lon="9.1075155"><ele>76.6</ele><time>2026-04-29T12:27:45.538Z</time></trkpt><trkpt lat="33.3807723" lon="9.1074099"><ele>76.2</ele><time>2026-04-29T12:27:46.516Z</time></trkpt><trkpt lat="33.3808167" lon="9.1073043"><ele>75.8</ele><time>2026-04-29T12:27:47.493Z</time></trkpt><trkpt lat="33.3808562" lon="9.1071935"><ele>75.4</ele><time>2026-04-29T12:27:48.561Z</time></trkpt><trkpt lat="33.3808979" lon="9.1070854"><ele>75.0</ele><time>2026-04-29T12:27:49.531Z</time></trkpt><trkpt lat="33.380937" lon="9.1069767"><ele>75.0</ele><time>2026-04-29T12:27:50.542Z</time></trkpt><trkpt lat="33.3809814" lon="9.1068648"><ele>75.0</ele><time>2026-04-29T12:27:51.543Z</time></trkpt><trkpt lat="33.3810309" lon="9.106744"><ele>75.0</ele><time>2026-04-29T12:27:52.555Z</time></trkpt><trkpt lat="33.3810751" lon="9.1066285"><ele>75.0</ele><time>2026-04-29T12:27:53.552Z</time></trkpt><trkpt lat="33.3811162" lon="9.1065054"><ele>75.0</ele><time>2026-04-29T12:27:54.537Z</time></trkpt><trkpt lat="33.3811544" lon="9.1063775"><ele>75.0</ele><time>2026-04-29T12:27:55.554Z</time></trkpt><trkpt lat="33.3811888" lon="9.1062488"><ele>75.0</ele><time>2026-04-29T12:27:56.553Z</time></trkpt><trkpt lat="33.3812221" lon="9.1061222"><ele>75.0</ele><time>2026-04-29T12:27:57.515Z</time></trkpt><trkpt lat="33.3812473" lon="9.1059903"><ele>75.0</ele><time>2026-04-29T12:27:58.546Z</time></trkpt><trkpt lat="33.381275" lon="9.1058609"><ele>75.0</ele><time>2026-04-29T12:27:59.541Z</time></trkpt><trkpt lat="33.3813092" lon="9.1057283"><ele>75.25</ele><time>2026-04-29T12:28:00.512Z</time></trkpt><trkpt lat="33.3813375" lon="9.1055984"><ele>75.5</ele><time>2026-04-29T12:28:01.538Z</time></trkpt><trkpt lat="33.381367" lon="9.105463"><ele>75.75</ele><time>2026-04-29T12:28:02.521Z</time></trkpt><trkpt lat="33.3813919" lon="9.1053257"><ele>76.0</ele><time>2026-04-29T12:28:03.516Z</time></trkpt><trkpt lat="33.3814157" lon="9.1051941"><ele>76.0</ele><time>2026-04-29T12:28:04.516Z</time></trkpt><trkpt lat="33.3814412" lon="9.1050638"><ele>76.0</ele><time>2026-04-29T12:28:05.561Z</time></trkpt><trkpt lat="33.3814637" lon="9.1049333"><ele>76.0</ele><time>2026-04-29T12:28:06.509Z</time></trkpt><trkpt lat="33.381486" lon="9.104794"><ele>76.0</ele><time>2026-04-29T12:28:07.524Z</time></trkpt><trkpt lat="33.3815073" lon="9.1046581"><ele>75.75</ele><time>2026-04-29T12:28:08.532Z</time></trkpt><trkpt lat="33.3815271" lon="9.1045136"><ele>75.5</ele><time>2026-04-29T12:28:09.509Z</time></trkpt><trkpt lat="33.3815417" lon="9.1043626"><ele>75.25</ele><time>2026-04-29T12:28:10.52Z</time></trkpt><trkpt lat="33.3815603" lon="9.1041957"><ele>75.0</ele><time>2026-04-29T12:28:11.535Z</time></trkpt><trkpt lat="33.3815772" lon="9.1040249"><ele>75.0</ele><time>2026-04-29T12:28:12.524Z</time></trkpt><trkpt lat="33.3815883" lon="9.1038539"><ele>75.0</ele><time>2026-04-29T12:28:13.542Z</time></trkpt><trkpt lat="33.3815975" lon="9.1036776"><ele>75.0</ele><time>2026-04-29T12:28:14.52Z</time></trkpt><trkpt lat="33.3816125" lon="9.1035083"><ele>75.0</ele><time>2026-04-29T12:28:15.525Z</time></trkpt><trkpt lat="33.3816251" lon="9.103336"><ele>76.25</ele><time>2026-04-29T12:28:16.536Z</time></trkpt><trkpt lat="33.3816351" lon="9.1031659"><ele>77.5</ele><time>2026-04-29T12:28:17.502Z</time></trkpt><trkpt lat="33.3816459" lon="9.1029964"><ele>78.75</ele><time>2026-04-29T12:28:18.51Z</time></trkpt><trkpt lat="33.3816526" lon="9.1028209"><ele>80.0</ele><time>2026-04-29T12:28:19.5Z</time></trkpt><trkpt lat="33.3816537" lon="9.1026461"><ele>80.0</ele><time>2026-04-29T12:28:20.526Z</time></trkpt><trkpt lat="33.3816548" lon="9.1024697"><ele>80.0</ele><time>2026-04-29T12:28:21.492Z</time></trkpt><trkpt lat="33.3816472" lon="9.1022928"><ele>80.0</ele><time>2026-04-29T12:28:22.536Z</time></trkpt><trkpt lat="33.3816382" lon="9.1021143"><ele>80.0</ele><time>2026-04-29T12:28:23.54Z</time></trkpt><trkpt lat="33.3816292" lon="9.1019341"><ele>79.5</ele><time>2026-04-29T12:28:24.551Z</time></trkpt><trkpt lat="33.3816174" lon="9.1017546"><ele>79.0</ele><time>2026-04-29T12:28:25.542Z</time></trkpt><trkpt lat="33.381604" lon="9.1015771"><ele>78.5</ele><time>2026-04-29T12:28:26.544Z</time></trkpt><trkpt lat="33.3815917" lon="9.1014014"><ele>78.0</ele><time>2026-04-29T12:28:27.506Z</time></trkpt><trkpt lat="33.3815762" lon="9.1012219"><ele>77.5</ele><time>2026-04-29T12:28:28.527Z</time></trkpt><trkpt lat="33.3815571" lon="9.1010526"><ele>77.0</ele><time>2026-04-29T12:28:29.52Z</time></trkpt><trkpt lat="33.3815345" lon="9.1008779"><ele>76.5</ele><time>2026-04-29T12:28:30.565Z</time></trkpt><trkpt lat="33.3815121" lon="9.1007033"><ele>76.0</ele><time>2026-04-29T12:28:31.547Z</time></trkpt><trkpt lat="33.3814876" lon="9.1005323"><ele>76.0</ele><time>2026-04-29T12:28:32.57Z</time></trkpt><trkpt lat="33.3814588" lon="9.1003664"><ele>76.0</ele><time>2026-04-29T12:28:33.5Z</time></trkpt><trkpt lat="33.3814251" lon="9.1001939"><ele>76.0</ele><time>2026-04-29T12:28:34.543Z</time></trkpt><trkpt lat="33.3813901" lon="9.1000233"><ele>76.0</ele><time>2026-04-29T12:28:35.56Z</time></trkpt><trkpt lat="33.3813517" lon="9.0998567"><ele>76.0</ele><time>2026-04-29T12:28:36.546Z</time></trkpt><trkpt lat="33.3813116" lon="9.099689"><ele>76.0</ele><time>2026-04-29T12:28:37.594Z</time></trkpt><trkpt lat="33.3812687" lon="9.0995213"><ele>76.0</ele><time>2026-04-29T12:28:38.546Z</time></trkpt><trkpt lat="33.381216" lon="9.0993594"><ele>76.0</ele><time>2026-04-29T12:28:39.533Z</time></trkpt><trkpt lat="33.381163" lon="9.0991969"><ele>75.75</ele><time>2026-04-29T12:28:40.531Z</time></trkpt><trkpt lat="33.3811116" lon="9.0990349"><ele>75.5</ele><time>2026-04-29T12:28:41.534Z</time></trkpt><trkpt lat="33.3810623" lon="9.0988718"><ele>75.25</ele><time>2026-04-29T12:28:42.558Z</time></trkpt><trkpt lat="33.3810105" lon="9.098712"><ele>75.0</ele><time>2026-04-29T12:28:43.53Z</time></trkpt><trkpt lat="33.380958" lon="9.098552"><ele>75.0</ele><time>2026-04-29T12:28:44.533Z</time></trkpt><trkpt lat="33.3809041" lon="9.0983897"><ele>75.0</ele><time>2026-04-29T12:28:45.52Z</time></trkpt><trkpt lat="33.3808451" lon="9.0982278"><ele>75.0</ele><time>2026-04-29T12:28:46.555Z</time></trkpt><trkpt lat="33.3807975" lon="9.0980692"><ele>75.0</ele><time>2026-04-29T12:28:47.532Z</time></trkpt><trkpt lat="33.3807475" lon="9.0979088"><ele>75.0</ele><time>2026-04-29T12:28:48.519Z</time></trkpt><trkpt lat="33.3806971" lon="9.097749"><ele>75.0</ele><time>2026-04-29T12:28:49.548Z</time></trkpt><trkpt lat="33.3806439" lon="9.0975848"><ele>75.0</ele><time>2026-04-29T12:28:50.524Z</time></trkpt><trkpt lat="33.3805939" lon="9.0974253"><ele>75.0</ele><time>2026-04-29T12:28:51.543Z</time></trkpt><trkpt lat="33.380539" lon="9.0972647"><ele>75.25</ele><time>2026-04-29T12:28:52.571Z</time></trkpt><trkpt lat="33.3804851" lon="9.0971077"><ele>75.5</ele><time>2026-04-29T12:28:53.519Z</time></trkpt><trkpt lat="33.3804315" lon="9.0969555"><ele>75.75</ele><time>2026-04-29T12:28:54.541Z</time></trkpt><trkpt lat="33.380381" lon="9.0968022"><ele>76.0</ele><time>2026-04-29T12:28:55.542Z</time></trkpt><trkpt lat="33.3803339" lon="9.0966531"><ele>76.25</ele><time>2026-04-29T12:28:56.535Z</time></trkpt><trkpt lat="33.3802843" lon="9.0964957"><ele>76.5</ele><time>2026-04-29T12:28:57.543Z</time></trkpt><trkpt lat="33.3802334" lon="9.0963412"><ele>76.75</ele><time>2026-04-29T12:28:58.526Z</time></trkpt><trkpt lat="33.3801806" lon="9.0961899"><ele>77.0</ele><time>2026-04-29T12:28:59.532Z</time></trkpt><trkpt lat="33.3801275" lon="9.0960392"><ele>77.0</ele><time>2026-04-29T12:29:00.512Z</time></trkpt><trkpt lat="33.3800757" lon="9.0958868"><ele>77.0</ele><time>2026-04-29T12:29:01.52Z</time></trkpt><trkpt lat="33.3800192" lon="9.0957364"><ele>77.0</ele><time>2026-04-29T12:29:02.513Z</time></trkpt><trkpt lat="33.3799695" lon="9.0955896"><ele>77.0</ele><time>2026-04-29T12:29:03.538Z</time></trkpt><trkpt lat="33.3799221" lon="9.0954444"><ele>77.25</ele><time>2026-04-29T12:29:04.544Z</time></trkpt><trkpt lat="33.3798732" lon="9.0953025"><ele>77.5</ele><time>2026-04-29T12:29:05.556Z</time></trkpt><trkpt lat="33.3798224" lon="9.0951523"><ele>77.75</ele><time>2026-04-29T12:29:06.534Z</time></trkpt><trkpt lat="33.379778" lon="9.0950064"><ele>78.0</ele><time>2026-04-29T12:29:07.532Z</time></trkpt><trkpt lat="33.3797271" lon="9.094855"><ele>77.5</ele><time>2026-04-29T12:29:08.505Z</time></trkpt><trkpt lat="33.3796739" lon="9.0947019"><ele>77.0</ele><time>2026-04-29T12:29:09.491Z</time></trkpt><trkpt lat="33.3796246" lon="9.0945431"><ele>76.5</ele><time>2026-04-29T12:29:10.546Z</time></trkpt><trkpt lat="33.3795765" lon="9.09439"><ele>76.0</ele><time>2026-04-29T12:29:11.548Z</time></trkpt><trkpt lat="33.3795237" lon="9.0942425"><ele>76.0</ele><time>2026-04-29T12:29:12.535Z</time></trkpt><trkpt lat="33.3794681" lon="9.0940927"><ele>76.0</ele><time>2026-04-29T12:29:13.545Z</time></trkpt><trkpt lat="33.3794164" lon="9.0939406"><ele>76.0</ele><time>2026-04-29T12:29:14.49Z</time></trkpt><trkpt lat="33.3793662" lon="9.0937869"><ele>76.0</ele><time>2026-04-29T12:29:15.533Z</time></trkpt><trkpt lat="33.3793131" lon="9.0936388"><ele>76.0</ele><time>2026-04-29T12:29:16.541Z</time></trkpt><trkpt lat="33.3792638" lon="9.0934862"><ele>76.0</ele><time>2026-04-29T12:29:17.554Z</time></trkpt><trkpt lat="33.379216" lon="9.0933325"><ele>76.0</ele><time>2026-04-29T12:29:18.54Z</time></trkpt><trkpt lat="33.3791724" lon="9.0931831"><ele>76.0</ele><time>2026-04-29T12:29:19.554Z</time></trkpt><trkpt lat="33.3791298" lon="9.0930344"><ele>75.5</ele><time>2026-04-29T12:29:20.508Z</time></trkpt><trkpt lat="33.3790908" lon="9.0928874"><ele>75.0</ele><time>2026-04-29T12:29:21.556Z</time></trkpt><trkpt lat="33.3790515" lon="9.0927347"><ele>74.5</ele><time>2026-04-29T12:29:22.575Z</time></trkpt><trkpt lat="33.3790132" lon="9.0925884"><ele>74.0</ele><time>2026-04-29T12:29:23.549Z</time></trkpt><trkpt lat="33.3789771" lon="9.092442"><ele>73.0</ele><time>2026-04-29T12:29:24.523Z</time></trkpt><trkpt lat="33.3789409" lon="9.0923006"><ele>72.0</ele><time>2026-04-29T12:29:25.573Z</time></trkpt><trkpt lat="33.3789075" lon="9.0921608"><ele>71.0</ele><time>2026-04-29T12:29:26.525Z</time></trkpt><trkpt lat="33.3788777" lon="9.0920124"><ele>70.0</ele><time>2026-04-29T12:29:27.554Z</time></trkpt><trkpt lat="33.3788552" lon="9.091856"><ele>71.0</ele><time>2026-04-29T12:29:28.532Z</time></trkpt><trkpt lat="33.3788296" lon="9.0916909"><ele>72.0</ele><time>2026-04-29T12:29:29.512Z</time></trkpt><trkpt lat="33.3788075" lon="9.091523"><ele>73.0</ele><time>2026-04-29T12:29:30.547Z</time></trkpt><trkpt lat="33.3787853" lon="9.0913506"><ele>74.0</ele><time>2026-04-29T12:29:31.561Z</time></trkpt><trkpt lat="33.3787673" lon="9.0911672"><ele>74.0</ele><time>2026-04-29T12:29:32.51Z</time></trkpt><trkpt lat="33.3787479" lon="9.0909891"><ele>74.0</ele><time>2026-04-29T12:29:33.561Z</time></trkpt><trkpt lat="33.3787268" lon="9.0908134"><ele>74.0</ele><time>2026-04-29T12:29:34.563Z</time></trkpt><trkpt lat="33.3787086" lon="9.0906389"><ele>74.0</ele><time>2026-04-29T12:29:35.512Z</time></trkpt><trkpt lat="33.3786858" lon="9.0904657"><ele>74.0</ele><time>2026-04-29T12:29:36.541Z</time></trkpt><trkpt lat="33.378665" lon="9.0902926"><ele>74.0</ele><time>2026-04-29T12:29:37.554Z</time></trkpt><trkpt lat="33.378645" lon="9.0901217"><ele>74.0</ele><time>2026-04-29T12:29:38.552Z</time></trkpt><trkpt lat="33.378629" lon="9.0899452"><ele>74.0</ele><time>2026-04-29T12:29:39.555Z</time></trkpt><trkpt lat="33.3786121" lon="9.0897737"><ele>74.25</ele><time>2026-04-29T12:29:40.538Z</time></trkpt><trkpt lat="33.3785959" lon="9.0895947"><ele>74.5</ele><time>2026-04-29T12:29:41.528Z</time></trkpt><trkpt lat="33.3785726" lon="9.0894192"><ele>74.75</ele><time>2026-04-29T12:29:42.533Z</time></trkpt><trkpt lat="33.3785542" lon="9.089241"><ele>75.0</ele><time>2026-04-29T12:29:43.533Z</time></trkpt><trkpt lat="33.3785379" lon="9.0890667"><ele>75.0</ele><time>2026-04-29T12:29:44.497Z</time></trkpt><trkpt lat="33.3785195" lon="9.0888872"><ele>75.0</ele><time>2026-04-29T12:29:45.514Z</time></trkpt><trkpt lat="33.378501" lon="9.0887128"><ele>75.0</ele><time>2026-04-29T12:29:46.548Z</time></trkpt><trkpt lat="33.3784812" lon="9.0885353"><ele>75.0</ele><time>2026-04-29T12:29:47.564Z</time></trkpt><trkpt lat="33.3784588" lon="9.0883627"><ele>75.25</ele><time>2026-04-29T12:29:48.534Z</time></trkpt><trkpt lat="33.3784356" lon="9.0881866"><ele>75.5</ele><time>2026-04-29T12:29:49.535Z</time></trkpt><trkpt lat="33.378418" lon="9.0880156"><ele>75.75</ele><time>2026-04-29T12:29:50.536Z</time></trkpt><trkpt lat="33.3784024" lon="9.0878437"><ele>76.0</ele><time>2026-04-29T12:29:51.534Z</time></trkpt><trkpt lat="33.3783882" lon="9.087674"><ele>76.0</ele><time>2026-04-29T12:29:52.561Z</time></trkpt><trkpt lat="33.3783743" lon="9.0875095"><ele>76.0</ele><time>2026-04-29T12:29:53.538Z</time></trkpt><trkpt lat="33.3783523" lon="9.0873405"><ele>76.0</ele><time>2026-04-29T12:29:54.536Z</time></trkpt><trkpt lat="33.3783289" lon="9.087173"><ele>76.0</ele><time>2026-04-29T12:29:55.55Z</time></trkpt><trkpt lat="33.378305" lon="9.0870019"><ele>75.75</ele><time>2026-04-29T12:29:56.562Z</time></trkpt><trkpt lat="33.3782841" lon="9.0868327"><ele>75.5</ele><time>2026-04-29T12:29:57.552Z</time></trkpt><trkpt lat="33.3782608" lon="9.0866595"><ele>75.25</ele><time>2026-04-29T12:29:58.498Z</time></trkpt><trkpt lat="33.3782363" lon="9.0864907"><ele>75.0</ele><time>2026-04-29T12:29:59.53Z</time></trkpt><trkpt lat="33.3782132" lon="9.0863187"><ele>74.5</ele><time>2026-04-29T12:30:00.553Z</time></trkpt><trkpt lat="33.3781934" lon="9.0861468"><ele>74.0</ele><time>2026-04-29T12:30:01.561Z</time></trkpt><trkpt lat="33.3781741" lon="9.0859746"><ele>73.5</ele><time>2026-04-29T12:30:02.558Z</time></trkpt><trkpt lat="33.378155" lon="9.0857991"><ele>73.0</ele><time>2026-04-29T12:30:03.534Z</time></trkpt><trkpt lat="33.3781378" lon="9.0856192"><ele>72.0</ele><time>2026-04-29T12:30:04.545Z</time></trkpt><trkpt lat="33.3781161" lon="9.0854448"><ele>71.0</ele><time>2026-04-29T12:30:05.552Z</time></trkpt><trkpt lat="33.3780958" lon="9.0852666"><ele>70.0</ele><time>2026-04-29T12:30:06.559Z</time></trkpt><trkpt lat="33.3780763" lon="9.0850849"><ele>70.5</ele><time>2026-04-29T12:30:07.574Z</time></trkpt><trkpt lat="33.3780567" lon="9.0849076"><ele>71.0</ele><time>2026-04-29T12:30:08.557Z</time></trkpt><trkpt lat="33.3780381" lon="9.0847323"><ele>71.5</ele><time>2026-04-29T12:30:09.541Z</time></trkpt><trkpt lat="33.3780171" lon="9.0845559"><ele>72.0</ele><time>2026-04-29T12:30:10.497Z</time></trkpt><trkpt lat="33.3780014" lon="9.0843775"><ele>72.0</ele><time>2026-04-29T12:30:11.519Z</time></trkpt><trkpt lat="33.3779875" lon="9.0842058"><ele>72.0</ele><time>2026-04-29T12:30:12.509Z</time></trkpt><trkpt lat="33.3779777" lon="9.0840315"><ele>72.0</ele><time>2026-04-29T12:30:13.542Z</time></trkpt><trkpt lat="33.3779633" lon="9.0838576"><ele>72.0</ele><time>2026-04-29T12:30:14.53Z</time></trkpt><trkpt lat="33.3779518" lon="9.0836841"><ele>73.25</ele><time>2026-04-29T12:30:15.518Z</time></trkpt><trkpt lat="33.3779418" lon="9.0835151"><ele>74.5</ele><time>2026-04-29T12:30:16.549Z</time></trkpt><trkpt lat="33.3779307" lon="9.0833399"><ele>75.75</ele><time>2026-04-29T12:30:17.561Z</time></trkpt><trkpt lat="33.3779339" lon="9.0831671"><ele>77.0</ele><time>2026-04-29T12:30:18.54Z</time></trkpt><trkpt lat="33.3779383" lon="9.0829994"><ele>77.25</ele><time>2026-04-29T12:30:19.518Z</time></trkpt><trkpt lat="33.3779505" lon="9.0828348"><ele>77.5</ele><time>2026-04-29T12:30:20.495Z</time></trkpt><trkpt lat="33.3779671" lon="9.0826738"><ele>77.75</ele><time>2026-04-29T12:30:21.529Z</time></trkpt><trkpt lat="33.3779865" lon="9.082511"><ele>78.0</ele><time>2026-04-29T12:30:22.517Z</time></trkpt><trkpt lat="33.3780148" lon="9.082344"><ele>78.25</ele><time>2026-04-29T12:30:23.533Z</time></trkpt><trkpt lat="33.3780469" lon="9.0821817"><ele>78.5</ele><time>2026-04-29T12:30:24.544Z</time></trkpt><trkpt lat="33.3780831" lon="9.0820145"><ele>78.75</ele><time>2026-04-29T12:30:25.514Z</time></trkpt><trkpt lat="33.378123" lon="9.0818626"><ele>79.0</ele><time>2026-04-29T12:30:26.54Z</time></trkpt><trkpt lat="33.3781634" lon="9.0817229"><ele>78.75</ele><time>2026-04-29T12:30:27.525Z</time></trkpt><trkpt lat="33.3782069" lon="9.0815788"><ele>78.5</ele><time>2026-04-29T12:30:28.509Z</time></trkpt><trkpt lat="33.378256" lon="9.0814336"><ele>78.25</ele><time>2026-04-29T12:30:29.547Z</time></trkpt><trkpt lat="33.3783065" lon="9.0812965"><ele>78.0</ele><time>2026-04-29T12:30:30.526Z</time></trkpt><trkpt lat="33.3783578" lon="9.0811551"><ele>78.0</ele><time>2026-04-29T12:30:31.539Z</time></trkpt><trkpt lat="33.3784095" lon="9.0810108"><ele>78.0</ele><time>2026-04-29T12:30:32.529Z</time></trkpt><trkpt lat="33.378461" lon="9.0808699"><ele>78.0</ele><time>2026-04-29T12:30:33.536Z</time></trkpt><trkpt lat="33.3785114" lon="9.0807354"><ele>78.0</ele><time>2026-04-29T12:30:34.51Z</time></trkpt><trkpt lat="33.3785649" lon="9.0805954"><ele>77.75</ele><time>2026-04-29T12:30:35.492Z</time></trkpt><trkpt lat="33.3786163" lon="9.0804583"><ele>77.5</ele><time>2026-04-29T12:30:36.541Z</time></trkpt><trkpt lat="33.3786696" lon="9.0803244"><ele>77.25</ele><time>2026-04-29T12:30:37.543Z</time></trkpt><trkpt lat="33.3787241" lon="9.0801875"><ele>77.0</ele><time>2026-04-29T12:30:38.542Z</time></trkpt><trkpt lat="33.3787767" lon="9.0800533"><ele>77.5</ele><time>2026-04-29T12:30:39.525Z</time></trkpt><trkpt lat="33.3788308" lon="9.0799173"><ele>78.0</ele><time>2026-04-29T12:30:40.546Z</time></trkpt><trkpt lat="33.3788852" lon="9.0797816"><ele>78.5</ele><time>2026-04-29T12:30:41.55Z</time></trkpt><trkpt lat="33.3789395" lon="9.0796478"><ele>79.0</ele><time>2026-04-29T12:30:42.538Z</time></trkpt><trkpt lat="33.378996" lon="9.0795117"><ele>79.0</ele><time>2026-04-29T12:30:43.562Z</time></trkpt><trkpt lat="33.3790505" lon="9.0793796"><ele>79.0</ele><time>2026-04-29T12:30:44.539Z</time></trkpt><trkpt lat="33.3790983" lon="9.0792407"><ele>79.0</ele><time>2026-04-29T12:30:45.493Z</time></trkpt><trkpt lat="33.3791403" lon="9.0790992"><ele>79.0</ele><time>2026-04-29T12:30:46.533Z</time></trkpt><trkpt lat="33.3791811" lon="9.0789613"><ele>79.0</ele><time>2026-04-29T12:30:47.538Z</time></trkpt><trkpt lat="33.3792184" lon="9.078821"><ele>79.0</ele><time>2026-04-29T12:30:48.536Z</time></trkpt><trkpt lat="33.3792603" lon="9.0786852"><ele>79.0</ele><time>2026-04-29T12:30:49.534Z</time></trkpt><trkpt lat="33.3793002" lon="9.0785412"><ele>79.0</ele><time>2026-04-29T12:30:50.545Z</time></trkpt><trkpt lat="33.3793373" lon="9.0783966"><ele>78.75</ele><time>2026-04-29T12:30:51.514Z</time></trkpt><trkpt lat="33.3793735" lon="9.078258"><ele>78.5</ele><time>2026-04-29T12:30:52.543Z</time></trkpt><trkpt lat="33.3794106" lon="9.0781203"><ele>78.25</ele><time>2026-04-29T12:30:53.555Z</time></trkpt><trkpt lat="33.3794433" lon="9.0779623"><ele>78.0</ele><time>2026-04-29T12:30:54.54Z</time></trkpt><trkpt lat="33.3794791" lon="9.0778018"><ele>78.0</ele><time>2026-04-29T12:30:55.499Z</time></trkpt><trkpt lat="33.3795107" lon="9.07763"><ele>78.0</ele><time>2026-04-29T12:30:56.514Z</time></trkpt><trkpt lat="33.3795395" lon="9.0774565"><ele>78.0</ele><time>2026-04-29T12:30:57.546Z</time></trkpt><trkpt lat="33.3795558" lon="9.0772732"><ele>78.0</ele><time>2026-04-29T12:30:58.548Z</time></trkpt><trkpt lat="33.3795772" lon="9.0770909"><ele>77.33333333333333</ele><time>2026-04-29T12:30:59.505Z</time></trkpt><trkpt lat="33.3795939" lon="9.0769081"><ele>76.66666666666666</ele><time>2026-04-29T12:31:00.562Z</time></trkpt><trkpt lat="33.3796014" lon="9.0767243"><ele>76.0</ele><time>2026-04-29T12:31:01.542Z</time></trkpt><trkpt lat="33.3795996" lon="9.0765479"><ele>75.25</ele><time>2026-04-29T12:31:02.554Z</time></trkpt><trkpt lat="33.3796035" lon="9.0763631"><ele>74.5</ele><time>2026-04-29T12:31:03.512Z</time></trkpt><trkpt lat="33.379596" lon="9.0761874"><ele>73.75</ele><time>2026-04-29T12:31:04.547Z</time></trkpt><trkpt lat="33.3795859" lon="9.0760126"><ele>73.0</ele><time>2026-04-29T12:31:05.546Z</time></trkpt><trkpt lat="33.3795743" lon="9.0758392"><ele>73.0</ele><time>2026-04-29T12:31:06.546Z</time></trkpt><trkpt lat="33.3795651" lon="9.0756685"><ele>73.0</ele><time>2026-04-29T12:31:07.549Z</time></trkpt><trkpt lat="33.3795579" lon="9.0755035"><ele>73.0</ele><time>2026-04-29T12:31:08.539Z</time></trkpt><trkpt lat="33.3795472" lon="9.0753378"><ele>73.0</ele><time>2026-04-29T12:31:09.537Z</time></trkpt><trkpt lat="33.3795359" lon="9.0751667"><ele>73.0</ele><time>2026-04-29T12:31:10.572Z</time></trkpt><trkpt lat="33.3795203" lon="9.0749914"><ele>73.0</ele><time>2026-04-29T12:31:11.538Z</time></trkpt><trkpt lat="33.3795087" lon="9.0748184"><ele>73.0</ele><time>2026-04-29T12:31:12.566Z</time></trkpt><trkpt lat="33.3794972" lon="9.0746484"><ele>73.0</ele><time>2026-04-29T12:31:13.544Z</time></trkpt><trkpt lat="33.3794856" lon="9.0744769"><ele>72.75</ele><time>2026-04-29T12:31:14.572Z</time></trkpt><trkpt lat="33.3794743" lon="9.0743075"><ele>72.5</ele><time>2026-04-29T12:31:15.556Z</time></trkpt><trkpt lat="33.379463" lon="9.0741438"><ele>72.25</ele><time>2026-04-29T12:31:16.515Z</time></trkpt><trkpt lat="33.3794483" lon="9.0739839"><ele>72.0</ele><time>2026-04-29T12:31:17.539Z</time></trkpt><trkpt lat="33.3794405" lon="9.0738265"><ele>73.25</ele><time>2026-04-29T12:31:18.546Z</time></trkpt><trkpt lat="33.3794366" lon="9.0736646"><ele>74.5</ele><time>2026-04-29T12:31:19.54Z</time></trkpt><trkpt lat="33.3794284" lon="9.0735059"><ele>75.75</ele><time>2026-04-29T12:31:20.559Z</time></trkpt><trkpt lat="33.3794177" lon="9.0733448"><ele>77.0</ele><time>2026-04-29T12:31:21.566Z</time></trkpt><trkpt lat="33.3794079" lon="9.0731873"><ele>77.25</ele><time>2026-04-29T12:31:22.542Z</time></trkpt><trkpt lat="33.3793965" lon="9.0730243"><ele>77.5</ele><time>2026-04-29T12:31:23.561Z</time></trkpt><trkpt lat="33.3793842" lon="9.072862"><ele>77.75</ele><time>2026-04-29T12:31:24.562Z</time></trkpt><trkpt lat="33.3793704" lon="9.0727017"><ele>78.0</ele><time>2026-04-29T12:31:25.568Z</time></trkpt><trkpt lat="33.3793595" lon="9.0725354"><ele>77.5</ele><time>2026-04-29T12:31:26.533Z</time></trkpt><trkpt lat="33.3793452" lon="9.0723687"><ele>77.0</ele><time>2026-04-29T12:31:27.529Z</time></trkpt><trkpt lat="33.3793296" lon="9.0721982"><ele>76.5</ele><time>2026-04-29T12:31:28.522Z</time></trkpt><trkpt lat="33.3793156" lon="9.0720303"><ele>76.0</ele><time>2026-04-29T12:31:29.548Z</time></trkpt><trkpt lat="33.3792997" lon="9.071869"><ele>76.0</ele><time>2026-04-29T12:31:30.549Z</time></trkpt><trkpt lat="33.379285" lon="9.0717026"><ele>76.0</ele><time>2026-04-29T12:31:31.551Z</time></trkpt><trkpt lat="33.3792724" lon="9.0715329"><ele>76.0</ele><time>2026-04-29T12:31:32.554Z</time></trkpt><trkpt lat="33.3792595" lon="9.0713649"><ele>76.0</ele><time>2026-04-29T12:31:33.554Z</time></trkpt><trkpt lat="33.3792491" lon="9.0711944"><ele>76.25</ele><time>2026-04-29T12:31:34.559Z</time></trkpt><trkpt lat="33.3792361" lon="9.0710258"><ele>76.5</ele><time>2026-04-29T12:31:35.563Z</time></trkpt><trkpt lat="33.3792238" lon="9.0708496"><ele>76.75</ele><time>2026-04-29T12:31:36.555Z</time></trkpt><trkpt lat="33.3792121" lon="9.070676"><ele>77.0</ele><time>2026-04-29T12:31:37.528Z</time></trkpt><trkpt lat="33.3791981" lon="9.0705045"><ele>77.25</ele><time>2026-04-29T12:31:38.539Z</time></trkpt><trkpt lat="33.3791843" lon="9.0703346"><ele>77.5</ele><time>2026-04-29T12:31:39.54Z</time></trkpt><trkpt lat="33.379173" lon="9.070166"><ele>77.75</ele><time>2026-04-29T12:31:40.521Z</time></trkpt><trkpt lat="33.3791627" lon="9.0699977"><ele>78.0</ele><time>2026-04-29T12:31:41.55Z</time></trkpt><trkpt lat="33.3791516" lon="9.0698325"><ele>77.0</ele><time>2026-04-29T12:31:42.557Z</time></trkpt><trkpt lat="33.3791407" lon="9.0696702"><ele>76.0</ele><time>2026-04-29T12:31:43.546Z</time></trkpt><trkpt lat="33.3791333" lon="9.0695119"><ele>75.0</ele><time>2026-04-29T12:31:44.559Z</time></trkpt><trkpt lat="33.379121" lon="9.0693588"><ele>74.0</ele><time>2026-04-29T12:31:45.558Z</time></trkpt><trkpt lat="33.379114" lon="9.0692088"><ele>74.0</ele><time>2026-04-29T12:31:46.528Z</time></trkpt><trkpt lat="33.3791038" lon="9.0690593"><ele>74.0</ele><time>2026-04-29T12:31:47.491Z</time></trkpt><trkpt lat="33.3790958" lon="9.0689079"><ele>74.0</ele><time>2026-04-29T12:31:48.527Z</time></trkpt><trkpt lat="33.3790886" lon="9.0687578"><ele>74.0</ele><time>2026-04-29T12:31:49.538Z</time></trkpt><trkpt lat="33.379087" lon="9.0686044"><ele>74.0</ele><time>2026-04-29T12:31:50.515Z</time></trkpt><trkpt lat="33.3790789" lon="9.0684509"><ele>74.0</ele><time>2026-04-29T12:31:51.524Z</time></trkpt><trkpt lat="33.3790659" lon="9.0682992"><ele>74.0</ele><time>2026-04-29T12:31:52.542Z</time></trkpt><trkpt lat="33.3790555" lon="9.0681513"><ele>74.0</ele><time>2026-04-29T12:31:53.536Z</time></trkpt><trkpt lat="33.379051" lon="9.0679998"><ele>74.0</ele><time>2026-04-29T12:31:54.541Z</time></trkpt><trkpt lat="33.3790559" lon="9.06784"><ele>74.0</ele><time>2026-04-29T12:31:55.535Z</time></trkpt><trkpt lat="33.379065" lon="9.0676705"><ele>74.0</ele><time>2026-04-29T12:31:56.566Z</time></trkpt><trkpt lat="33.3790759" lon="9.0674951"><ele>74.0</ele><time>2026-04-29T12:31:57.55Z</time></trkpt><trkpt lat="33.3790891" lon="9.0673213"><ele>74.0</ele><time>2026-04-29T12:31:58.54Z</time></trkpt><trkpt lat="33.3791023" lon="9.0671496"><ele>74.0</ele><time>2026-04-29T12:31:59.555Z</time></trkpt><trkpt lat="33.3791247" lon="9.0669694"><ele>74.0</ele><time>2026-04-29T12:32:00.56Z</time></trkpt><trkpt lat="33.3791471" lon="9.0667933"><ele>74.0</ele><time>2026-04-29T12:32:01.553Z</time></trkpt><trkpt lat="33.379171" lon="9.0666247"><ele>74.75</ele><time>2026-04-29T12:32:02.562Z</time></trkpt><trkpt lat="33.3792015" lon="9.0664597"><ele>75.5</ele><time>2026-04-29T12:32:03.528Z</time></trkpt><trkpt lat="33.3792377" lon="9.0662945"><ele>76.25</ele><time>2026-04-29T12:32:04.547Z</time></trkpt><trkpt lat="33.3792797" lon="9.0661314"><ele>77.0</ele><time>2026-04-29T12:32:05.516Z</time></trkpt><trkpt lat="33.3793214" lon="9.065972"><ele>77.0</ele><time>2026-04-29T12:32:06.532Z</time></trkpt><trkpt lat="33.3793701" lon="9.0658164"><ele>77.0</ele><time>2026-04-29T12:32:07.522Z</time></trkpt><trkpt lat="33.3794244" lon="9.0656583"><ele>77.0</ele><time>2026-04-29T12:32:08.53Z</time></trkpt><trkpt lat="33.3794867" lon="9.0654981"><ele>77.0</ele><time>2026-04-29T12:32:09.53Z</time></trkpt><trkpt lat="33.3795437" lon="9.0653471"><ele>77.5</ele><time>2026-04-29T12:32:10.528Z</time></trkpt><trkpt lat="33.3796043" lon="9.0651898"><ele>78.0</ele><time>2026-04-29T12:32:11.538Z</time></trkpt><trkpt lat="33.3796646" lon="9.0650334"><ele>78.5</ele><time>2026-04-29T12:32:12.578Z</time></trkpt><trkpt lat="33.379726" lon="9.0648906"><ele>79.0</ele><time>2026-04-29T12:32:13.552Z</time></trkpt><trkpt lat="33.3797924" lon="9.0647492"><ele>79.25</ele><time>2026-04-29T12:32:14.542Z</time></trkpt><trkpt lat="33.3798617" lon="9.0646202"><ele>79.5</ele><time>2026-04-29T12:32:15.547Z</time></trkpt><trkpt lat="33.3799324" lon="9.0644959"><ele>79.75</ele><time>2026-04-29T12:32:16.498Z</time></trkpt><trkpt lat="33.3799973" lon="9.0643685"><ele>80.0</ele><time>2026-04-29T12:32:17.558Z</time></trkpt><trkpt lat="33.3800705" lon="9.0642443"><ele>80.0</ele><time>2026-04-29T12:32:18.53Z</time></trkpt><trkpt lat="33.3801432" lon="9.0641259"><ele>80.0</ele><time>2026-04-29T12:32:19.493Z</time></trkpt><trkpt lat="33.3802225" lon="9.0640135"><ele>80.0</ele><time>2026-04-29T12:32:20.537Z</time></trkpt><trkpt lat="33.3803045" lon="9.0639075"><ele>80.0</ele><time>2026-04-29T12:32:21.542Z</time></trkpt><trkpt lat="33.380386" lon="9.0637994"><ele>79.75</ele><time>2026-04-29T12:32:22.515Z</time></trkpt><trkpt lat="33.3804645" lon="9.0636874"><ele>79.5</ele><time>2026-04-29T12:32:23.53Z</time></trkpt><trkpt lat="33.3805469" lon="9.0635783"><ele>79.25</ele><time>2026-04-29T12:32:24.547Z</time></trkpt><trkpt lat="33.3806327" lon="9.063467"><ele>79.0</ele><time>2026-04-29T12:32:25.501Z</time></trkpt><trkpt lat="33.3807219" lon="9.0633609"><ele>78.75</ele><time>2026-04-29T12:32:26.543Z</time></trkpt><trkpt lat="33.3808115" lon="9.0632631"><ele>78.5</ele><time>2026-04-29T12:32:27.547Z</time></trkpt><trkpt lat="33.3808958" lon="9.0631715"><ele>78.25</ele><time>2026-04-29T12:32:28.562Z</time></trkpt><trkpt lat="33.3809852" lon="9.0630791"><ele>78.0</ele><time>2026-04-29T12:32:29.525Z</time></trkpt><trkpt lat="33.3810726" lon="9.0629895"><ele>78.0</ele><time>2026-04-29T12:32:30.559Z</time></trkpt><trkpt lat="33.3811594" lon="9.0629017"><ele>78.0</ele><time>2026-04-29T12:32:31.545Z</time></trkpt><trkpt lat="33.3812525" lon="9.0628143"><ele>78.0</ele><time>2026-04-29T12:32:32.521Z</time></trkpt><trkpt lat="33.3813471" lon="9.0627204"><ele>78.0</ele><time>2026-04-29T12:32:33.552Z</time></trkpt><trkpt lat="33.3814458" lon="9.0626323"><ele>78.25</ele><time>2026-04-29T12:32:34.545Z</time></trkpt><trkpt lat="33.3815504" lon="9.0625467"><ele>78.5</ele><time>2026-04-29T12:32:35.538Z</time></trkpt><trkpt lat="33.3816633" lon="9.0624578"><ele>78.75</ele><time>2026-04-29T12:32:36.542Z</time></trkpt><trkpt lat="33.3817712" lon="9.0623705"><ele>79.0</ele><time>2026-04-29T12:32:37.532Z</time></trkpt><trkpt lat="33.3818822" lon="9.0622797"><ele>78.75</ele><time>2026-04-29T12:32:38.55Z</time></trkpt><trkpt lat="33.3819922" lon="9.0621819"><ele>78.5</ele><time>2026-04-29T12:32:39.535Z</time></trkpt><trkpt lat="33.3821044" lon="9.062089"><ele>78.25</ele><time>2026-04-29T12:32:40.543Z</time></trkpt><trkpt lat="33.3822168" lon="9.0619903"><ele>78.0</ele><time>2026-04-29T12:32:41.533Z</time></trkpt><trkpt lat="33.3823285" lon="9.0618957"><ele>78.0</ele><time>2026-04-29T12:32:42.536Z</time></trkpt><trkpt lat="33.3824429" lon="9.0617976"><ele>78.0</ele><time>2026-04-29T12:32:43.523Z</time></trkpt><trkpt lat="33.3825564" lon="9.0616961"><ele>78.0</ele><time>2026-04-29T12:32:44.539Z</time></trkpt><trkpt lat="33.3826707" lon="9.0615992"><ele>78.0</ele><time>2026-04-29T12:32:45.552Z</time></trkpt><trkpt lat="33.38279" lon="9.0615004"><ele>78.25</ele><time>2026-04-29T12:32:46.515Z</time></trkpt><trkpt lat="33.3829021" lon="9.0614012"><ele>78.5</ele><time>2026-04-29T12:32:47.539Z</time></trkpt><trkpt lat="33.3830153" lon="9.0612962"><ele>78.75</ele><time>2026-04-29T12:32:48.544Z</time></trkpt><trkpt lat="33.3831247" lon="9.0611905"><ele>79.0</ele><time>2026-04-29T12:32:49.537Z</time></trkpt><trkpt lat="33.3832318" lon="9.0610777"><ele>79.0</ele><time>2026-04-29T12:32:50.544Z</time></trkpt><trkpt lat="33.3833361" lon="9.060954"><ele>79.0</ele><time>2026-04-29T12:32:51.528Z</time></trkpt><trkpt lat="33.3834369" lon="9.060826"><ele>79.0</ele><time>2026-04-29T12:32:52.532Z</time></trkpt><trkpt lat="33.3835374" lon="9.0606872"><ele>79.0</ele><time>2026-04-29T12:32:53.546Z</time></trkpt><trkpt lat="33.3836385" lon="9.0605425"><ele>78.66666666666666</ele><time>2026-04-29T12:32:54.497Z</time></trkpt><trkpt lat="33.3837419" lon="9.0603884"><ele>78.33333333333333</ele><time>2026-04-29T12:32:55.559Z</time></trkpt><trkpt lat="33.3838527" lon="9.0602132"><ele>78.0</ele><time>2026-04-29T12:32:56.546Z</time></trkpt><trkpt lat="33.3839489" lon="9.0600246"><ele>77.33333333333333</ele><time>2026-04-29T12:32:57.545Z</time></trkpt><trkpt lat="33.3840323" lon="9.0598173"><ele>76.66666666666666</ele><time>2026-04-29T12:32:58.514Z</time></trkpt><trkpt lat="33.3840953" lon="9.0596028"><ele>76.0</ele><time>2026-04-29T12:32:59.519Z</time></trkpt><trkpt lat="33.3841456" lon="9.0593869"><ele>76.0</ele><time>2026-04-29T12:33:00.553Z</time></trkpt><trkpt lat="33.3841961" lon="9.0591716"><ele>76.0</ele><time>2026-04-29T12:33:01.548Z</time></trkpt><trkpt lat="33.3842423" lon="9.0589429"><ele>76.0</ele><time>2026-04-29T12:33:02.541Z</time></trkpt><trkpt lat="33.3842924" lon="9.0587181"><ele>76.0</ele><time>2026-04-29T12:33:03.521Z</time></trkpt><trkpt lat="33.3843417" lon="9.0584959"><ele>76.0</ele><time>2026-04-29T12:33:04.536Z</time></trkpt><trkpt lat="33.3843925" lon="9.0582785"><ele>76.0</ele><time>2026-04-29T12:33:05.514Z</time></trkpt><trkpt lat="33.3844442" lon="9.0580621"><ele>76.0</ele><time>2026-04-29T12:33:06.5Z</time></trkpt><trkpt lat="33.384491" lon="9.057845"><ele>76.0</ele><time>2026-04-29T12:33:07.559Z</time></trkpt><trkpt lat="33.3845433" lon="9.0576274"><ele>76.0</ele><time>2026-04-29T12:33:08.536Z</time></trkpt><trkpt lat="33.3845893" lon="9.0574107"><ele>76.66666666666666</ele><time>2026-04-29T12:33:09.553Z</time></trkpt><trkpt lat="33.3846366" lon="9.0571934"><ele>77.33333333333333</ele><time>2026-04-29T12:33:10.561Z</time></trkpt><trkpt lat="33.3846849" lon="9.0569726"><ele>78.0</ele><time>2026-04-29T12:33:11.55Z</time></trkpt><trkpt lat="33.3847347" lon="9.0567509"><ele>77.66666666666667</ele><time>2026-04-29T12:33:12.539Z</time></trkpt><trkpt lat="33.3847879" lon="9.056529"><ele>77.33333333333334</ele><time>2026-04-29T12:33:13.539Z</time></trkpt><trkpt lat="33.3848411" lon="9.0563054"><ele>77.0</ele><time>2026-04-29T12:33:14.507Z</time></trkpt><trkpt lat="33.3848922" lon="9.0560825"><ele>77.0</ele><time>2026-04-29T12:33:15.545Z</time></trkpt><trkpt lat="33.3849414" lon="9.0558674"><ele>77.0</ele><time>2026-04-29T12:33:16.54Z</time></trkpt><trkpt lat="33.3849926" lon="9.0556492"><ele>77.0</ele><time>2026-04-29T12:33:17.541Z</time></trkpt><trkpt lat="33.3850425" lon="9.0554292"><ele>77.0</ele><time>2026-04-29T12:33:18.538Z</time></trkpt><trkpt lat="33.3850953" lon="9.0552093"><ele>77.0</ele><time>2026-04-29T12:33:19.53Z</time></trkpt><trkpt lat="33.3851526" lon="9.0549853"><ele>77.0</ele><time>2026-04-29T12:33:20.54Z</time></trkpt><trkpt lat="33.3852081" lon="9.0547667"><ele>76.0</ele><time>2026-04-29T12:33:21.539Z</time></trkpt><trkpt lat="33.3852584" lon="9.0545455"><ele>75.0</ele><time>2026-04-29T12:33:22.536Z</time></trkpt><trkpt lat="33.3853075" lon="9.0543255"><ele>74.0</ele><time>2026-04-29T12:33:23.538Z</time></trkpt><trkpt lat="33.385357" lon="9.0540994"><ele>73.66666666666667</ele><time>2026-04-29T12:33:24.535Z</time></trkpt><trkpt lat="33.3854033" lon="9.0538697"><ele>73.33333333333333</ele><time>2026-04-29T12:33:25.536Z</time></trkpt><trkpt lat="33.3854481" lon="9.0536468"><ele>73.0</ele><time>2026-04-29T12:33:26.552Z</time></trkpt><trkpt lat="33.3854888" lon="9.0534233"><ele>73.0</ele><time>2026-04-29T12:33:27.541Z</time></trkpt><trkpt lat="33.3855261" lon="9.0532002"><ele>73.0</ele><time>2026-04-29T12:33:28.542Z</time></trkpt><trkpt lat="33.385562" lon="9.0529718"><ele>73.0</ele><time>2026-04-29T12:33:29.559Z</time></trkpt><trkpt lat="33.3855945" lon="9.0527473"><ele>73.0</ele><time>2026-04-29T12:33:30.543Z</time></trkpt><trkpt lat="33.3856238" lon="9.0525153"><ele>73.0</ele><time>2026-04-29T12:33:31.555Z</time></trkpt><trkpt lat="33.3856442" lon="9.0522855"><ele>73.0</ele><time>2026-04-29T12:33:32.498Z</time></trkpt><trkpt lat="33.3856627" lon="9.0520528"><ele>72.66666666666666</ele><time>2026-04-29T12:33:33.552Z</time></trkpt><trkpt lat="33.3856754" lon="9.0518264"><ele>72.33333333333333</ele><time>2026-04-29T12:33:34.517Z</time></trkpt><trkpt lat="33.3856853" lon="9.0515945"><ele>72.0</ele><time>2026-04-29T12:33:35.507Z</time></trkpt><trkpt lat="33.385693" lon="9.0513615"><ele>72.0</ele><time>2026-04-29T12:33:36.542Z</time></trkpt><trkpt lat="33.3856984" lon="9.0511335"><ele>72.0</ele><time>2026-04-29T12:33:37.523Z</time></trkpt><trkpt lat="33.3857016" lon="9.0509118"><ele>72.0</ele><time>2026-04-29T12:33:38.519Z</time></trkpt><trkpt lat="33.3856954" lon="9.050697"><ele>73.0</ele><time>2026-04-29T12:33:39.529Z</time></trkpt><trkpt lat="33.3856826" lon="9.0504903"><ele>74.0</ele><time>2026-04-29T12:33:40.529Z</time></trkpt><trkpt lat="33.3856655" lon="9.0502849"><ele>75.0</ele><time>2026-04-29T12:33:41.545Z</time></trkpt><trkpt lat="33.3856482" lon="9.0500817"><ele>74.66666666666667</ele><time>2026-04-29T12:33:42.53Z</time></trkpt><trkpt lat="33.385635" lon="9.0498821"><ele>74.33333333333334</ele><time>2026-04-29T12:33:43.534Z</time></trkpt><trkpt lat="33.3856205" lon="9.0496847"><ele>74.0</ele><time>2026-04-29T12:33:44.545Z</time></trkpt><trkpt lat="33.3856027" lon="9.0494916"><ele>74.0</ele><time>2026-04-29T12:33:45.517Z</time></trkpt><trkpt lat="33.3855774" lon="9.049297"><ele>74.0</ele><time>2026-04-29T12:33:46.538Z</time></trkpt><trkpt lat="33.3855507" lon="9.0491073"><ele>74.0</ele><time>2026-04-29T12:33:47.525Z</time></trkpt><trkpt lat="33.3855213" lon="9.0489119"><ele>75.0</ele><time>2026-04-29T12:33:48.547Z</time></trkpt><trkpt lat="33.3854931" lon="9.0487187"><ele>76.0</ele><time>2026-04-29T12:33:49.548Z</time></trkpt><trkpt lat="33.3854678" lon="9.0485254"><ele>77.0</ele><time>2026-04-29T12:33:50.543Z</time></trkpt><trkpt lat="33.3854398" lon="9.0483309"><ele>75.0</ele><time>2026-04-29T12:33:51.526Z</time></trkpt><trkpt lat="33.385414" lon="9.0481316"><ele>73.0</ele><time>2026-04-29T12:33:52.537Z</time></trkpt><trkpt lat="33.3853858" lon="9.0479336"><ele>71.0</ele><time>2026-04-29T12:33:53.551Z</time></trkpt><trkpt lat="33.3853616" lon="9.0477402"><ele>71.0</ele><time>2026-04-29T12:33:54.545Z</time></trkpt><trkpt lat="33.3853424" lon="9.0475484"><ele>71.0</ele><time>2026-04-29T12:33:55.531Z</time></trkpt><trkpt lat="33.3853232" lon="9.0473522"><ele>71.0</ele><time>2026-04-29T12:33:56.544Z</time></trkpt><trkpt lat="33.3853055" lon="9.0471606"><ele>70.66666666666667</ele><time>2026-04-29T12:33:57.542Z</time></trkpt><trkpt lat="33.3852891" lon="9.0469721"><ele>70.33333333333333</ele><time>2026-04-29T12:33:58.542Z</time></trkpt><trkpt lat="33.3852763" lon="9.046785"><ele>70.0</ele><time>2026-04-29T12:33:59.552Z</time></trkpt><trkpt lat="33.3852662" lon="9.046601"><ele>70.0</ele><time>2026-04-29T12:34:00.56Z</time></trkpt><trkpt lat="33.3852545" lon="9.0464157"><ele>70.0</ele><time>2026-04-29T12:34:01.558Z</time></trkpt><trkpt lat="33.3852454" lon="9.0462316"><ele>70.0</ele><time>2026-04-29T12:34:02.516Z</time></trkpt><trkpt lat="33.3852395" lon="9.0460391"><ele>70.0</ele><time>2026-04-29T12:34:03.553Z</time></trkpt><trkpt lat="33.3852383" lon="9.0458483"><ele>70.0</ele><time>2026-04-29T12:34:04.552Z</time></trkpt><trkpt lat="33.3852413" lon="9.0456548"><ele>70.0</ele><time>2026-04-29T12:34:05.555Z</time></trkpt><trkpt lat="33.3852461" lon="9.0454596"><ele>70.33333333333333</ele><time>2026-04-29T12:34:06.557Z</time></trkpt><trkpt lat="33.3852509" lon="9.045268"><ele>70.66666666666667</ele><time>2026-04-29T12:34:07.531Z</time></trkpt><trkpt lat="33.3852534" lon="9.0450613"><ele>71.0</ele><time>2026-04-29T12:34:08.56Z</time></trkpt><trkpt lat="33.3852552" lon="9.0448604"><ele>71.0</ele><time>2026-04-29T12:34:09.558Z</time></trkpt><trkpt lat="33.3852577" lon="9.0446595"><ele>71.0</ele><time>2026-04-29T12:34:10.565Z</time></trkpt><trkpt lat="33.3852643" lon="9.0444651"><ele>71.0</ele><time>2026-04-29T12:34:11.535Z</time></trkpt><trkpt lat="33.3852763" lon="9.0442693"><ele>70.66666666666667</ele><time>2026-04-29T12:34:12.542Z</time></trkpt><trkpt lat="33.3852894" lon="9.0440793"><ele>70.33333333333333</ele><time>2026-04-29T12:34:13.539Z</time></trkpt><trkpt lat="33.3853087" lon="9.0438875"><ele>70.0</ele><time>2026-04-29T12:34:14.535Z</time></trkpt><trkpt lat="33.3853284" lon="9.043692"><ele>70.0</ele><time>2026-04-29T12:34:15.498Z</time></trkpt><trkpt lat="33.385347" lon="9.0434908"><ele>70.0</ele><time>2026-04-29T12:34:16.531Z</time></trkpt><trkpt lat="33.385361" lon="9.0432935"><ele>70.0</ele><time>2026-04-29T12:34:17.55Z</time></trkpt><trkpt lat="33.3853748" lon="9.0431005"><ele>70.33333333333333</ele><time>2026-04-29T12:34:18.534Z</time></trkpt><trkpt lat="33.38539" lon="9.0429016"><ele>70.66666666666667</ele><time>2026-04-29T12:34:19.527Z</time></trkpt><trkpt lat="33.3854077" lon="9.0427014"><ele>71.0</ele><time>2026-04-29T12:34:20.535Z</time></trkpt><trkpt lat="33.3854199" lon="9.0425064"><ele>72.0</ele><time>2026-04-29T12:34:21.527Z</time></trkpt><trkpt lat="33.3854347" lon="9.0423106"><ele>73.0</ele><time>2026-04-29T12:34:22.535Z</time></trkpt><trkpt lat="33.3854481" lon="9.0421172"><ele>74.0</ele><time>2026-04-29T12:34:23.541Z</time></trkpt><trkpt lat="33.3854626" lon="9.0419275"><ele>74.0</ele><time>2026-04-29T12:34:24.536Z</time></trkpt><trkpt lat="33.3854742" lon="9.0417359"><ele>74.0</ele><time>2026-04-29T12:34:25.541Z</time></trkpt><trkpt lat="33.3854855" lon="9.0415461"><ele>74.0</ele><time>2026-04-29T12:34:26.517Z</time></trkpt><trkpt lat="33.3854975" lon="9.041347"><ele>73.33333333333334</ele><time>2026-04-29T12:34:27.55Z</time></trkpt><trkpt lat="33.3855108" lon="9.0411495"><ele>72.66666666666667</ele><time>2026-04-29T12:34:28.546Z</time></trkpt><trkpt lat="33.3855224" lon="9.0409523"><ele>72.0</ele><time>2026-04-29T12:34:29.56Z</time></trkpt><trkpt lat="33.3855313" lon="9.0407525"><ele>72.0</ele><time>2026-04-29T12:34:30.547Z</time></trkpt><trkpt lat="33.3855414" lon="9.0405529"><ele>72.0</ele><time>2026-04-29T12:34:31.537Z</time></trkpt><trkpt lat="33.3855516" lon="9.0403487"><ele>72.0</ele><time>2026-04-29T12:34:32.566Z</time></trkpt><trkpt lat="33.3855644" lon="9.0401498"><ele>71.66666666666667</ele><time>2026-04-29T12:34:33.549Z</time></trkpt><trkpt lat="33.3855807" lon="9.0399512"><ele>71.33333333333334</ele><time>2026-04-29T12:34:34.559Z</time></trkpt><trkpt lat="33.3855936" lon="9.0397561"><ele>71.0</ele><time>2026-04-29T12:34:35.546Z</time></trkpt><trkpt lat="33.3856039" lon="9.0395617"><ele>71.0</ele><time>2026-04-29T12:34:36.562Z</time></trkpt><trkpt lat="33.3856167" lon="9.0393728"><ele>71.0</ele><time>2026-04-29T12:34:37.515Z</time></trkpt><trkpt lat="33.38563" lon="9.0391779"><ele>71.0</ele><time>2026-04-29T12:34:38.533Z</time></trkpt><trkpt lat="33.3856396" lon="9.038986"><ele>70.33333333333334</ele><time>2026-04-29T12:34:39.53Z</time></trkpt><trkpt lat="33.3856518" lon="9.0387876"><ele>69.66666666666667</ele><time>2026-04-29T12:34:40.549Z</time></trkpt><trkpt lat="33.3856626" lon="9.0385892"><ele>69.0</ele><time>2026-04-29T12:34:41.538Z</time></trkpt><trkpt lat="33.3856738" lon="9.0383871"><ele>70.0</ele><time>2026-04-29T12:34:42.534Z</time></trkpt><trkpt lat="33.3856855" lon="9.0381852"><ele>71.0</ele><time>2026-04-29T12:34:43.561Z</time></trkpt><trkpt lat="33.3856995" lon="9.0379874"><ele>72.0</ele><time>2026-04-29T12:34:44.545Z</time></trkpt><trkpt lat="33.3857147" lon="9.0377881"><ele>72.0</ele><time>2026-04-29T12:34:45.515Z</time></trkpt><trkpt lat="33.3857299" lon="9.0375862"><ele>72.0</ele><time>2026-04-29T12:34:46.543Z</time></trkpt><trkpt lat="33.3857435" lon="9.0373829"><ele>72.0</ele><time>2026-04-29T12:34:47.571Z</time></trkpt><trkpt lat="33.3857553" lon="9.037182"><ele>72.0</ele><time>2026-04-29T12:34:48.537Z</time></trkpt><trkpt lat="33.3857696" lon="9.0369753"><ele>72.0</ele><time>2026-04-29T12:34:49.52Z</time></trkpt><trkpt lat="33.3857851" lon="9.0367674"><ele>72.0</ele><time>2026-04-29T12:34:50.553Z</time></trkpt><trkpt lat="33.385802" lon="9.0365652"><ele>72.0</ele><time>2026-04-29T12:34:51.533Z</time></trkpt><trkpt lat="33.3858171" lon="9.0363624"><ele>72.0</ele><time>2026-04-29T12:34:52.515Z</time></trkpt><trkpt lat="33.3858326" lon="9.0361514"><ele>72.0</ele><time>2026-04-29T12:34:53.527Z</time></trkpt><trkpt lat="33.3858486" lon="9.0359419"><ele>72.33333333333333</ele><time>2026-04-29T12:34:54.544Z</time></trkpt><trkpt lat="33.3858625" lon="9.0357386"><ele>72.66666666666666</ele><time>2026-04-29T12:34:55.544Z</time></trkpt><trkpt lat="33.3858772" lon="9.0355334"><ele>73.0</ele><time>2026-04-29T12:34:56.538Z</time></trkpt><trkpt lat="33.3858913" lon="9.035328"><ele>73.0</ele><time>2026-04-29T12:34:57.527Z</time></trkpt><trkpt lat="33.3859049" lon="9.0351192"><ele>73.0</ele><time>2026-04-29T12:34:58.519Z</time></trkpt><trkpt lat="33.3859158" lon="9.0349124"><ele>73.0</ele><time>2026-04-29T12:34:59.555Z</time></trkpt><trkpt lat="33.3859265" lon="9.0347078"><ele>72.33333333333333</ele><time>2026-04-29T12:35:00.551Z</time></trkpt><trkpt lat="33.3859413" lon="9.0345"><ele>71.66666666666667</ele><time>2026-04-29T12:35:01.556Z</time></trkpt><trkpt lat="33.3859582" lon="9.0342982"><ele>71.0</ele><time>2026-04-29T12:35:02.559Z</time></trkpt><trkpt lat="33.3859734" lon="9.0340984"><ele>71.0</ele><time>2026-04-29T12:35:03.514Z</time></trkpt><trkpt lat="33.3859918" lon="9.0338942"><ele>71.0</ele><time>2026-04-29T12:35:04.552Z</time></trkpt><trkpt lat="33.3860084" lon="9.0336885"><ele>71.0</ele><time>2026-04-29T12:35:05.541Z</time></trkpt><trkpt lat="33.3860208" lon="9.0334858"><ele>71.66666666666667</ele><time>2026-04-29T12:35:06.554Z</time></trkpt><trkpt lat="33.3860357" lon="9.0332824"><ele>72.33333333333333</ele><time>2026-04-29T12:35:07.502Z</time></trkpt><trkpt lat="33.3860483" lon="9.0330793"><ele>73.0</ele><time>2026-04-29T12:35:08.553Z</time></trkpt><trkpt lat="33.386059" lon="9.032889"><ele>73.0</ele><time>2026-04-29T12:35:09.558Z</time></trkpt><trkpt lat="33.3860658" lon="9.0327029"><ele>73.0</ele><time>2026-04-29T12:35:10.542Z</time></trkpt><trkpt lat="33.3860801" lon="9.0325171"><ele>73.0</ele><time>2026-04-29T12:35:11.542Z</time></trkpt><trkpt lat="33.3860921" lon="9.0323318"><ele>72.0</ele><time>2026-04-29T12:35:12.531Z</time></trkpt><trkpt lat="33.3861036" lon="9.0321493"><ele>71.0</ele><time>2026-04-29T12:35:13.537Z</time></trkpt><trkpt lat="33.3861223" lon="9.0319701"><ele>70.0</ele><time>2026-04-29T12:35:14.501Z</time></trkpt><trkpt lat="33.3861351" lon="9.0317922"><ele>69.5</ele><time>2026-04-29T12:35:15.48Z</time></trkpt><trkpt lat="33.3861452" lon="9.0316181"><ele>69.0</ele><time>2026-04-29T12:35:16.518Z</time></trkpt><trkpt lat="33.3861529" lon="9.0314415"><ele>68.5</ele><time>2026-04-29T12:35:17.507Z</time></trkpt><trkpt lat="33.3861649" lon="9.0312696"><ele>68.0</ele><time>2026-04-29T12:35:18.485Z</time></trkpt><trkpt lat="33.3861783" lon="9.0310952"><ele>68.0</ele><time>2026-04-29T12:35:19.513Z</time></trkpt><trkpt lat="33.3861914" lon="9.0309257"><ele>68.0</ele><time>2026-04-29T12:35:20.493Z</time></trkpt><trkpt lat="33.3862025" lon="9.0307512"><ele>68.0</ele><time>2026-04-29T12:35:21.497Z</time></trkpt><trkpt lat="33.3862112" lon="9.0305773"><ele>68.0</ele><time>2026-04-29T12:35:22.539Z</time></trkpt><trkpt lat="33.3862219" lon="9.0304022"><ele>68.75</ele><time>2026-04-29T12:35:23.534Z</time></trkpt><trkpt lat="33.3862351" lon="9.0302256"><ele>69.5</ele><time>2026-04-29T12:35:24.537Z</time></trkpt><trkpt lat="33.3862466" lon="9.0300427"><ele>70.25</ele><time>2026-04-29T12:35:25.523Z</time></trkpt><trkpt lat="33.3862555" lon="9.0298655"><ele>71.0</ele><time>2026-04-29T12:35:26.533Z</time></trkpt><trkpt lat="33.3862695" lon="9.0296886"><ele>71.0</ele><time>2026-04-29T12:35:27.541Z</time></trkpt><trkpt lat="33.3862782" lon="9.0295141"><ele>71.0</ele><time>2026-04-29T12:35:28.541Z</time></trkpt><trkpt lat="33.3862872" lon="9.0293383"><ele>71.0</ele><time>2026-04-29T12:35:29.532Z</time></trkpt><trkpt lat="33.3862974" lon="9.0291635"><ele>71.0</ele><time>2026-04-29T12:35:30.54Z</time></trkpt><trkpt lat="33.3863067" lon="9.0289927"><ele>70.75</ele><time>2026-04-29T12:35:31.537Z</time></trkpt><trkpt lat="33.386314" lon="9.0288216"><ele>70.5</ele><time>2026-04-29T12:35:32.54Z</time></trkpt><trkpt lat="33.3863206" lon="9.0286454"><ele>70.25</ele><time>2026-04-29T12:35:33.529Z</time></trkpt><trkpt lat="33.3863258" lon="9.0284703"><ele>70.0</ele><time>2026-04-29T12:35:34.54Z</time></trkpt><trkpt lat="33.3863276" lon="9.0282909"><ele>69.66666666666666</ele><time>2026-04-29T12:35:35.55Z</time></trkpt><trkpt lat="33.3863313" lon="9.0281107"><ele>69.33333333333333</ele><time>2026-04-29T12:35:36.558Z</time></trkpt><trkpt lat="33.3863407" lon="9.027933"><ele>69.0</ele><time>2026-04-29T12:35:37.511Z</time></trkpt><trkpt lat="33.3863485" lon="9.027751"><ele>69.0</ele><time>2026-04-29T12:35:38.517Z</time></trkpt><trkpt lat="33.3863565" lon="9.0275645"><ele>69.0</ele><time>2026-04-29T12:35:39.523Z</time></trkpt><trkpt lat="33.386357" lon="9.0273798"><ele>69.0</ele><time>2026-04-29T12:35:40.533Z</time></trkpt><trkpt lat="33.3863587" lon="9.027197"><ele>69.33333333333333</ele><time>2026-04-29T12:35:41.551Z</time></trkpt><trkpt lat="33.3863514" lon="9.0270175"><ele>69.66666666666666</ele><time>2026-04-29T12:35:42.557Z</time></trkpt><trkpt lat="33.3863399" lon="9.0268314"><ele>70.0</ele><time>2026-04-29T12:35:43.528Z</time></trkpt><trkpt lat="33.3863262" lon="9.0266472"><ele>70.0</ele><time>2026-04-29T12:35:44.539Z</time></trkpt><trkpt lat="33.3863101" lon="9.0264652"><ele>70.0</ele><time>2026-04-29T12:35:45.543Z</time></trkpt><trkpt lat="33.3862909" lon="9.0262813"><ele>70.0</ele><time>2026-04-29T12:35:46.546Z</time></trkpt><trkpt lat="33.3862703" lon="9.0260985"><ele>70.0</ele><time>2026-04-29T12:35:47.535Z</time></trkpt><trkpt lat="33.3862474" lon="9.0259194"><ele>70.0</ele><time>2026-04-29T12:35:48.522Z</time></trkpt><trkpt lat="33.3862259" lon="9.0257332"><ele>70.0</ele><time>2026-04-29T12:35:49.508Z</time></trkpt><trkpt lat="33.3861988" lon="9.0255491"><ele>70.0</ele><time>2026-04-29T12:35:50.545Z</time></trkpt><trkpt lat="33.3861703" lon="9.025367"><ele>70.0</ele><time>2026-04-29T12:35:51.528Z</time></trkpt><trkpt lat="33.3861375" lon="9.0251896"><ele>70.0</ele><time>2026-04-29T12:35:52.511Z</time></trkpt><trkpt lat="33.3861063" lon="9.0250116"><ele>70.0</ele><time>2026-04-29T12:35:53.512Z</time></trkpt><trkpt lat="33.3860722" lon="9.0248288"><ele>70.0</ele><time>2026-04-29T12:35:54.539Z</time></trkpt><trkpt lat="33.3860418" lon="9.0246452"><ele>70.0</ele><time>2026-04-29T12:35:55.543Z</time></trkpt><trkpt lat="33.3860065" lon="9.024465"><ele>70.0</ele><time>2026-04-29T12:35:56.537Z</time></trkpt><trkpt lat="33.3859708" lon="9.0242849"><ele>70.0</ele><time>2026-04-29T12:35:57.543Z</time></trkpt><trkpt lat="33.3859358" lon="9.0241078"><ele>70.0</ele><time>2026-04-29T12:35:58.545Z</time></trkpt><trkpt lat="33.3859014" lon="9.0239275"><ele>69.66666666666666</ele><time>2026-04-29T12:35:59.554Z</time></trkpt><trkpt lat="33.3858701" lon="9.0237508"><ele>69.33333333333333</ele><time>2026-04-29T12:36:00.51Z</time></trkpt><trkpt lat="33.3858333" lon="9.0235714"><ele>69.0</ele><time>2026-04-29T12:36:01.548Z</time></trkpt><trkpt lat="33.3858006" lon="9.0233915"><ele>69.33333333333333</ele><time>2026-04-29T12:36:02.534Z</time></trkpt><trkpt lat="33.3857688" lon="9.0232113"><ele>69.66666666666666</ele><time>2026-04-29T12:36:03.525Z</time></trkpt><trkpt lat="33.3857413" lon="9.0230307"><ele>70.0</ele><time>2026-04-29T12:36:04.539Z</time></trkpt><trkpt lat="33.3857184" lon="9.0228516"><ele>70.0</ele><time>2026-04-29T12:36:05.512Z</time></trkpt><trkpt lat="33.3856953" lon="9.0226718"><ele>70.0</ele><time>2026-04-29T12:36:06.542Z</time></trkpt><trkpt lat="33.3856705" lon="9.0224909"><ele>70.0</ele><time>2026-04-29T12:36:07.535Z</time></trkpt><trkpt lat="33.3856482" lon="9.0223134"><ele>69.66666666666666</ele><time>2026-04-29T12:36:08.545Z</time></trkpt><trkpt lat="33.3856256" lon="9.0221362"><ele>69.33333333333333</ele><time>2026-04-29T12:36:09.547Z</time></trkpt><trkpt lat="33.3856082" lon="9.0219557"><ele>69.0</ele><time>2026-04-29T12:36:10.541Z</time></trkpt><trkpt lat="33.3855958" lon="9.0217708"><ele>68.33333333333333</ele><time>2026-04-29T12:36:11.552Z</time></trkpt><trkpt lat="33.3855838" lon="9.0215872"><ele>67.66666666666666</ele><time>2026-04-29T12:36:12.54Z</time></trkpt><trkpt lat="33.3855754" lon="9.0214055"><ele>67.0</ele><time>2026-04-29T12:36:13.547Z</time></trkpt><trkpt lat="33.3855724" lon="9.021219"><ele>67.0</ele><time>2026-04-29T12:36:14.541Z</time></trkpt><trkpt lat="33.3855639" lon="9.0210404"><ele>67.0</ele><time>2026-04-29T12:36:15.539Z</time></trkpt><trkpt lat="33.3855645" lon="9.0208665"><ele>67.0</ele><time>2026-04-29T12:36:16.536Z</time></trkpt><trkpt lat="33.3855712" lon="9.0207018"><ele>67.0</ele><time>2026-04-29T12:36:17.519Z</time></trkpt><trkpt lat="33.3855841" lon="9.0205413"><ele>67.25</ele><time>2026-04-29T12:36:18.504Z</time></trkpt><trkpt lat="33.3855952" lon="9.0203815"><ele>67.5</ele><time>2026-04-29T12:36:19.535Z</time></trkpt><trkpt lat="33.3856059" lon="9.0202144"><ele>67.75</ele><time>2026-04-29T12:36:20.549Z</time></trkpt><trkpt lat="33.3856185" lon="9.0200526"><ele>68.0</ele><time>2026-04-29T12:36:21.524Z</time></trkpt><trkpt lat="33.3856305" lon="9.0198844"><ele>68.25</ele><time>2026-04-29T12:36:22.544Z</time></trkpt><trkpt lat="33.3856415" lon="9.0197142"><ele>68.5</ele><time>2026-04-29T12:36:23.544Z</time></trkpt><trkpt lat="33.385654" lon="9.0195474"><ele>68.75</ele><time>2026-04-29T12:36:24.544Z</time></trkpt><trkpt lat="33.3856681" lon="9.0193793"><ele>69.0</ele><time>2026-04-29T12:36:25.535Z</time></trkpt><trkpt lat="33.3856849" lon="9.0192099"><ele>69.0</ele><time>2026-04-29T12:36:26.538Z</time></trkpt><trkpt lat="33.3857068" lon="9.0190422"><ele>69.0</ele><time>2026-04-29T12:36:27.539Z</time></trkpt><trkpt lat="33.3857353" lon="9.0188779"><ele>69.0</ele><time>2026-04-29T12:36:28.545Z</time></trkpt><trkpt lat="33.3857669" lon="9.0187139"><ele>69.0</ele><time>2026-04-29T12:36:29.545Z</time></trkpt><trkpt lat="33.3858039" lon="9.0185557"><ele>69.0</ele><time>2026-04-29T12:36:30.539Z</time></trkpt><trkpt lat="33.3858427" lon="9.0183912"><ele>69.0</ele><time>2026-04-29T12:36:31.534Z</time></trkpt><trkpt lat="33.38588" lon="9.0182223"><ele>69.0</ele><time>2026-04-29T12:36:32.507Z</time></trkpt><trkpt lat="33.385924" lon="9.0180558"><ele>69.0</ele><time>2026-04-29T12:36:33.528Z</time></trkpt><trkpt lat="33.3859658" lon="9.017888"><ele>69.0</ele><time>2026-04-29T12:36:34.531Z</time></trkpt><trkpt lat="33.3860103" lon="9.0177163"><ele>69.0</ele><time>2026-04-29T12:36:35.548Z</time></trkpt><trkpt lat="33.3860567" lon="9.0175479"><ele>69.0</ele><time>2026-04-29T12:36:36.556Z</time></trkpt><trkpt lat="33.3861005" lon="9.0173807"><ele>69.0</ele><time>2026-04-29T12:36:37.535Z</time></trkpt><trkpt lat="33.3861485" lon="9.0172125"><ele>68.25</ele><time>2026-04-29T12:36:38.544Z</time></trkpt><trkpt lat="33.3861962" lon="9.0170452"><ele>67.5</ele><time>2026-04-29T12:36:39.53Z</time></trkpt><trkpt lat="33.3862444" lon="9.0168748"><ele>66.75</ele><time>2026-04-29T12:36:40.509Z</time></trkpt><trkpt lat="33.3862939" lon="9.0167074"><ele>66.0</ele><time>2026-04-29T12:36:41.547Z</time></trkpt><trkpt lat="33.3863499" lon="9.0165412"><ele>65.75</ele><time>2026-04-29T12:36:42.54Z</time></trkpt><trkpt lat="33.3864062" lon="9.0163765"><ele>65.5</ele><time>2026-04-29T12:36:43.536Z</time></trkpt><trkpt lat="33.3864636" lon="9.0162094"><ele>65.25</ele><time>2026-04-29T12:36:44.538Z</time></trkpt><trkpt lat="33.3865166" lon="9.0160451"><ele>65.0</ele><time>2026-04-29T12:36:45.526Z</time></trkpt><trkpt lat="33.3865768" lon="9.015885"><ele>65.25</ele><time>2026-04-29T12:36:46.549Z</time></trkpt><trkpt lat="33.3866368" lon="9.0157285"><ele>65.5</ele><time>2026-04-29T12:36:47.515Z</time></trkpt><trkpt lat="33.3867007" lon="9.0155713"><ele>65.75</ele><time>2026-04-29T12:36:48.549Z</time></trkpt><trkpt lat="33.3867611" lon="9.0154165"><ele>66.0</ele><time>2026-04-29T12:36:49.521Z</time></trkpt><trkpt lat="33.3868265" lon="9.0152546"><ele>66.0</ele><time>2026-04-29T12:36:50.523Z</time></trkpt><trkpt lat="33.386892" lon="9.0150915"><ele>66.0</ele><time>2026-04-29T12:36:51.545Z</time></trkpt><trkpt lat="33.3869584" lon="9.0149243"><ele>66.0</ele><time>2026-04-29T12:36:52.538Z</time></trkpt><trkpt lat="33.3870205" lon="9.0147596"><ele>66.66666666666667</ele><time>2026-04-29T12:36:53.542Z</time></trkpt><trkpt lat="33.3870819" lon="9.0145943"><ele>67.33333333333334</ele><time>2026-04-29T12:36:54.54Z</time></trkpt><trkpt lat="33.3871449" lon="9.0144273"><ele>68.0</ele><time>2026-04-29T12:36:55.533Z</time></trkpt><trkpt lat="33.3872093" lon="9.0142636"><ele>67.0</ele><time>2026-04-29T12:36:56.537Z</time></trkpt><trkpt lat="33.3872759" lon="9.014096"><ele>66.0</ele><time>2026-04-29T12:36:57.534Z</time></trkpt><trkpt lat="33.3873405" lon="9.0139358"><ele>65.0</ele><time>2026-04-29T12:36:58.504Z</time></trkpt><trkpt lat="33.3874112" lon="9.0137739"><ele>65.0</ele><time>2026-04-29T12:36:59.545Z</time></trkpt><trkpt lat="33.3874851" lon="9.0136111"><ele>65.0</ele><time>2026-04-29T12:37:00.545Z</time></trkpt><trkpt lat="33.3875626" lon="9.0134543"><ele>65.0</ele><time>2026-04-29T12:37:01.531Z</time></trkpt><trkpt lat="33.3876436" lon="9.0133022"><ele>65.0</ele><time>2026-04-29T12:37:02.539Z</time></trkpt><trkpt lat="33.3877291" lon="9.0131469"><ele>65.0</ele><time>2026-04-29T12:37:03.54Z</time></trkpt><trkpt lat="33.3878129" lon="9.0129932"><ele>65.0</ele><time>2026-04-29T12:37:04.502Z</time></trkpt><trkpt lat="33.3879001" lon="9.0128447"><ele>65.0</ele><time>2026-04-29T12:37:05.525Z</time></trkpt><trkpt lat="33.3879934" lon="9.0126899"><ele>65.0</ele><time>2026-04-29T12:37:06.515Z</time></trkpt><trkpt lat="33.3880886" lon="9.0125431"><ele>65.0</ele><time>2026-04-29T12:37:07.493Z</time></trkpt><trkpt lat="33.3881819" lon="9.0124014"><ele>64.5</ele><time>2026-04-29T12:37:08.528Z</time></trkpt><trkpt lat="33.388277" lon="9.0122624"><ele>64.0</ele><time>2026-04-29T12:37:09.533Z</time></trkpt><trkpt lat="33.3883755" lon="9.0121226"><ele>63.5</ele><time>2026-04-29T12:37:10.534Z</time></trkpt><trkpt lat="33.3884682" lon="9.0119873"><ele>63.0</ele><time>2026-04-29T12:37:11.53Z</time></trkpt><trkpt lat="33.3885612" lon="9.0118532"><ele>63.0</ele><time>2026-04-29T12:37:12.546Z</time></trkpt><trkpt lat="33.388661" lon="9.0117313"><ele>63.0</ele><time>2026-04-29T12:37:13.527Z</time></trkpt><trkpt lat="33.3887651" lon="9.0116097"><ele>63.0</ele><time>2026-04-29T12:37:14.554Z</time></trkpt><trkpt lat="33.3888694" lon="9.0114905"><ele>63.0</ele><time>2026-04-29T12:37:15.517Z</time></trkpt><trkpt lat="33.3889733" lon="9.0113683"><ele>63.25</ele><time>2026-04-29T12:37:16.549Z</time></trkpt><trkpt lat="33.389083" lon="9.0112486"><ele>63.5</ele><time>2026-04-29T12:37:17.536Z</time></trkpt><trkpt lat="33.3891927" lon="9.0111326"><ele>63.75</ele><time>2026-04-29T12:37:18.544Z</time></trkpt><trkpt lat="33.389305" lon="9.0110182"><ele>64.0</ele><time>2026-04-29T12:37:19.531Z</time></trkpt><trkpt lat="33.3894194" lon="9.0109097"><ele>64.25</ele><time>2026-04-29T12:37:20.539Z</time></trkpt><trkpt lat="33.3895321" lon="9.0108047"><ele>64.5</ele><time>2026-04-29T12:37:21.514Z</time></trkpt><trkpt lat="33.3896517" lon="9.0107076"><ele>64.75</ele><time>2026-04-29T12:37:22.544Z</time></trkpt><trkpt lat="33.389773" lon="9.0106228"><ele>65.0</ele><time>2026-04-29T12:37:23.538Z</time></trkpt><trkpt lat="33.3898984" lon="9.0105353"><ele>65.0</ele><time>2026-04-29T12:37:24.536Z</time></trkpt><trkpt lat="33.3900232" lon="9.0104342"><ele>65.0</ele><time>2026-04-29T12:37:25.537Z</time></trkpt><trkpt lat="33.3901517" lon="9.0103335"><ele>65.0</ele><time>2026-04-29T12:37:26.53Z</time></trkpt><trkpt lat="33.3902769" lon="9.0102349"><ele>65.0</ele><time>2026-04-29T12:37:27.535Z</time></trkpt><trkpt lat="33.3904057" lon="9.0101364"><ele>65.0</ele><time>2026-04-29T12:37:28.542Z</time></trkpt><trkpt lat="33.3905311" lon="9.0100428"><ele>65.0</ele><time>2026-04-29T12:37:29.551Z</time></trkpt><trkpt lat="33.3906572" lon="9.0099578"><ele>65.0</ele><time>2026-04-29T12:37:30.549Z</time></trkpt><trkpt lat="33.3907893" lon="9.0098708"><ele>64.25</ele><time>2026-04-29T12:37:31.516Z</time></trkpt><trkpt lat="33.3909188" lon="9.0097884"><ele>63.5</ele><time>2026-04-29T12:37:32.549Z</time></trkpt><trkpt lat="33.3910556" lon="9.0097085"><ele>62.75</ele><time>2026-04-29T12:37:33.544Z</time></trkpt><trkpt lat="33.3911927" lon="9.0096345"><ele>62.0</ele><time>2026-04-29T12:37:34.49Z</time></trkpt><trkpt lat="33.3913347" lon="9.009557"><ele>61.0</ele><time>2026-04-29T12:37:35.539Z</time></trkpt><trkpt lat="33.3914798" lon="9.0094885"><ele>60.0</ele><time>2026-04-29T12:37:36.542Z</time></trkpt><trkpt lat="33.391625" lon="9.0094191"><ele>59.0</ele><time>2026-04-29T12:37:37.536Z</time></trkpt><trkpt lat="33.3917708" lon="9.0093583"><ele>59.0</ele><time>2026-04-29T12:37:38.525Z</time></trkpt><trkpt lat="33.3919143" lon="9.0092962"><ele>59.0</ele><time>2026-04-29T12:37:39.548Z</time></trkpt><trkpt lat="33.3920566" lon="9.0092426"><ele>59.0</ele><time>2026-04-29T12:37:40.516Z</time></trkpt><trkpt lat="33.3921985" lon="9.0091973"><ele>59.0</ele><time>2026-04-29T12:37:41.543Z</time></trkpt><trkpt lat="33.3923413" lon="9.0091507"><ele>61.0</ele><time>2026-04-29T12:37:42.503Z</time></trkpt><trkpt lat="33.3924841" lon="9.0091015"><ele>63.0</ele><time>2026-04-29T12:37:43.561Z</time></trkpt><trkpt lat="33.3926339" lon="9.0090533"><ele>65.0</ele><time>2026-04-29T12:37:44.559Z</time></trkpt><trkpt lat="33.3927881" lon="9.0090015"><ele>65.0</ele><time>2026-04-29T12:37:45.542Z</time></trkpt><trkpt lat="33.3929511" lon="9.008952"><ele>65.0</ele><time>2026-04-29T12:37:46.532Z</time></trkpt><trkpt lat="33.3931227" lon="9.0089151"><ele>65.0</ele><time>2026-04-29T12:37:47.535Z</time></trkpt><trkpt lat="33.3932823" lon="9.0088811"><ele>65.0</ele><time>2026-04-29T12:37:48.521Z</time></trkpt><trkpt lat="33.3934478" lon="9.0088478"><ele>65.0</ele><time>2026-04-29T12:37:49.525Z</time></trkpt><trkpt lat="33.3936152" lon="9.0088208"><ele>65.0</ele><time>2026-04-29T12:37:50.526Z</time></trkpt><trkpt lat="33.3937858" lon="9.0087917"><ele>63.333333333333336</ele><time>2026-04-29T12:37:51.523Z</time></trkpt><trkpt lat="33.3939595" lon="9.0087641"><ele>61.66666666666667</ele><time>2026-04-29T12:37:52.539Z</time></trkpt><trkpt lat="33.3941378" lon="9.0087457"><ele>60.0</ele><time>2026-04-29T12:37:53.544Z</time></trkpt><trkpt lat="33.3943216" lon="9.0087316"><ele>60.0</ele><time>2026-04-29T12:37:54.507Z</time></trkpt><trkpt lat="33.3945063" lon="9.0087233"><ele>60.0</ele><time>2026-04-29T12:37:55.533Z</time></trkpt><trkpt lat="33.3946892" lon="9.0087239"><ele>60.0</ele><time>2026-04-29T12:37:56.53Z</time></trkpt><trkpt lat="33.3948685" lon="9.0087355"><ele>60.66666666666667</ele><time>2026-04-29T12:37:57.531Z</time></trkpt><trkpt lat="33.3950497" lon="9.0087503"><ele>61.333333333333336</ele><time>2026-04-29T12:37:58.516Z</time></trkpt><trkpt lat="33.3952214" lon="9.0087622"><ele>62.0</ele><time>2026-04-29T12:37:59.542Z</time></trkpt><trkpt lat="33.3953853" lon="9.0087692"><ele>63.333333333333336</ele><time>2026-04-29T12:38:00.566Z</time></trkpt><trkpt lat="33.3955435" lon="9.0087756"><ele>64.66666666666667</ele><time>2026-04-29T12:38:01.535Z</time></trkpt><trkpt lat="33.3957011" lon="9.0087783"><ele>66.0</ele><time>2026-04-29T12:38:02.561Z</time></trkpt><trkpt lat="33.3958622" lon="9.0087801"><ele>66.0</ele><time>2026-04-29T12:38:03.508Z</time></trkpt><trkpt lat="33.3960288" lon="9.0087822"><ele>66.0</ele><time>2026-04-29T12:38:04.561Z</time></trkpt><trkpt lat="33.3961945" lon="9.0087809"><ele>66.0</ele><time>2026-04-29T12:38:05.54Z</time></trkpt><trkpt lat="33.3963585" lon="9.0087794"><ele>65.66666666666667</ele><time>2026-04-29T12:38:06.544Z</time></trkpt><trkpt lat="33.3965235" lon="9.0087819"><ele>65.33333333333334</ele><time>2026-04-29T12:38:07.547Z</time></trkpt><trkpt lat="33.3966846" lon="9.0087783"><ele>65.0</ele><time>2026-04-29T12:38:08.551Z</time></trkpt><trkpt lat="33.3968425" lon="9.0087736"><ele>65.0</ele><time>2026-04-29T12:38:09.525Z</time></trkpt><trkpt lat="33.3970029" lon="9.0087715"><ele>65.0</ele><time>2026-04-29T12:38:10.519Z</time></trkpt><trkpt lat="33.3971696" lon="9.0087725"><ele>65.0</ele><time>2026-04-29T12:38:11.558Z</time></trkpt><trkpt lat="33.3973334" lon="9.0087748"><ele>64.66666666666667</ele><time>2026-04-29T12:38:12.517Z</time></trkpt><trkpt lat="33.3974978" lon="9.0087776"><ele>64.33333333333333</ele><time>2026-04-29T12:38:13.493Z</time></trkpt><trkpt lat="33.3976628" lon="9.0087801"><ele>64.0</ele><time>2026-04-29T12:38:14.479Z</time></trkpt><trkpt lat="33.3978298" lon="9.0087819"><ele>64.0</ele><time>2026-04-29T12:38:15.478Z</time></trkpt><trkpt lat="33.397992" lon="9.0087946"><ele>64.0</ele><time>2026-04-29T12:38:16.537Z</time></trkpt><trkpt lat="33.3981596" lon="9.0088016"><ele>64.0</ele><time>2026-04-29T12:38:17.541Z</time></trkpt><trkpt lat="33.3983252" lon="9.0088108"><ele>63.666666666666664</ele><time>2026-04-29T12:38:18.549Z</time></trkpt><trkpt lat="33.3984939" lon="9.0088166"><ele>63.33333333333333</ele><time>2026-04-29T12:38:19.558Z</time></trkpt><trkpt lat="33.39866" lon="9.0088218"><ele>63.0</ele><time>2026-04-29T12:38:20.495Z</time></trkpt><trkpt lat="33.3988286" lon="9.0088264"><ele>63.33333333333333</ele><time>2026-04-29T12:38:21.54Z</time></trkpt><trkpt lat="33.3989973" lon="9.008834"><ele>63.666666666666664</ele><time>2026-04-29T12:38:22.547Z</time></trkpt><trkpt lat="33.3991681" lon="9.0088414"><ele>64.0</ele><time>2026-04-29T12:38:23.54Z</time></trkpt><trkpt lat="33.3993392" lon="9.0088492"><ele>64.0</ele><time>2026-04-29T12:38:24.514Z</time></trkpt><trkpt lat="33.399511" lon="9.0088591"><ele>64.0</ele><time>2026-04-29T12:38:25.521Z</time></trkpt><trkpt lat="33.3996789" lon="9.0088687"><ele>64.0</ele><time>2026-04-29T12:38:26.534Z</time></trkpt><trkpt lat="33.3998455" lon="9.0088873"><ele>63.33333333333333</ele><time>2026-04-29T12:38:27.531Z</time></trkpt><trkpt lat="33.4000115" lon="9.0089157"><ele>62.66666666666667</ele><time>2026-04-29T12:38:28.536Z</time></trkpt><trkpt lat="33.4001735" lon="9.0089517"><ele>62.0</ele><time>2026-04-29T12:38:29.536Z</time></trkpt><trkpt lat="33.4003329" lon="9.0089885"><ele>62.0</ele><time>2026-04-29T12:38:30.501Z</time></trkpt><trkpt lat="33.4004957" lon="9.0090261"><ele>62.0</ele><time>2026-04-29T12:38:31.547Z</time></trkpt><trkpt lat="33.4006611" lon="9.0090444"><ele>62.0</ele><time>2026-04-29T12:38:32.539Z</time></trkpt><trkpt lat="33.4008273" lon="9.0090552"><ele>62.66666666666667</ele><time>2026-04-29T12:38:33.531Z</time></trkpt><trkpt lat="33.4009954" lon="9.0090575"><ele>63.33333333333333</ele><time>2026-04-29T12:38:34.54Z</time></trkpt><trkpt lat="33.4011571" lon="9.0090554"><ele>64.0</ele><time>2026-04-29T12:38:35.55Z</time></trkpt><trkpt lat="33.4013166" lon="9.0090487"><ele>63.666666666666664</ele><time>2026-04-29T12:38:36.553Z</time></trkpt><trkpt lat="33.4014736" lon="9.0090316"><ele>63.33333333333333</ele><time>2026-04-29T12:38:37.508Z</time></trkpt><trkpt lat="33.4016367" lon="9.0090186"><ele>63.0</ele><time>2026-04-29T12:38:38.533Z</time></trkpt><trkpt lat="33.4017963" lon="9.0090062"><ele>63.0</ele><time>2026-04-29T12:38:39.535Z</time></trkpt><trkpt lat="33.4019558" lon="9.0089936"><ele>63.0</ele><time>2026-04-29T12:38:40.531Z</time></trkpt><trkpt lat="33.4021189" lon="9.0089775"><ele>63.0</ele><time>2026-04-29T12:38:41.538Z</time></trkpt><trkpt lat="33.4022835" lon="9.0089661"><ele>63.66666666666667</ele><time>2026-04-29T12:38:42.493Z</time></trkpt><trkpt lat="33.402441" lon="9.0089611"><ele>64.33333333333334</ele><time>2026-04-29T12:38:43.556Z</time></trkpt><trkpt lat="33.4026058" lon="9.0089534"><ele>65.0</ele><time>2026-04-29T12:38:44.541Z</time></trkpt><trkpt lat="33.4027697" lon="9.0089466"><ele>65.0</ele><time>2026-04-29T12:38:45.516Z</time></trkpt><trkpt lat="33.4029264" lon="9.0089413"><ele>65.0</ele><time>2026-04-29T12:38:46.534Z</time></trkpt><trkpt lat="33.4030796" lon="9.0089433"><ele>65.0</ele><time>2026-04-29T12:38:47.527Z</time></trkpt><trkpt lat="33.403226" lon="9.0089506"><ele>65.0</ele><time>2026-04-29T12:38:48.547Z</time></trkpt><trkpt lat="33.4033778" lon="9.0089564"><ele>65.0</ele><time>2026-04-29T12:38:49.5Z</time></trkpt><trkpt lat="33.4035262" lon="9.0089546"><ele>65.0</ele><time>2026-04-29T12:38:50.527Z</time></trkpt><trkpt lat="33.4036784" lon="9.0089279"><ele>65.0</ele><time>2026-04-29T12:38:51.543Z</time></trkpt><trkpt lat="33.4038238" lon="9.0088829"><ele>65.0</ele><time>2026-04-29T12:38:52.543Z</time></trkpt><trkpt lat="33.4039663" lon="9.0088262"><ele>65.0</ele><time>2026-04-29T12:38:53.531Z</time></trkpt><trkpt lat="33.4041092" lon="9.008763"><ele>65.0</ele><time>2026-04-29T12:38:54.537Z</time></trkpt><trkpt lat="33.4042425" lon="9.0087009"><ele>65.0</ele><time>2026-04-29T12:38:55.512Z</time></trkpt><trkpt lat="33.404374" lon="9.0086394"><ele>65.0</ele><time>2026-04-29T12:38:56.565Z</time></trkpt><trkpt lat="33.404502" lon="9.0085747"><ele>65.0</ele><time>2026-04-29T12:38:57.519Z</time></trkpt><trkpt lat="33.4046318" lon="9.008497"><ele>65.0</ele><time>2026-04-29T12:38:58.549Z</time></trkpt><trkpt lat="33.4047522" lon="9.0084099"><ele>65.0</ele><time>2026-04-29T12:38:59.554Z</time></trkpt><trkpt lat="33.4048556" lon="9.0083162"><ele>65.0</ele><time>2026-04-29T12:39:00.509Z</time></trkpt><trkpt lat="33.4049442" lon="9.0082072"><ele>65.0</ele><time>2026-04-29T12:39:01.524Z</time></trkpt><trkpt lat="33.4050043" lon="9.0080836"><ele>65.0</ele><time>2026-04-29T12:39:02.531Z</time></trkpt><trkpt lat="33.4050476" lon="9.0079458"><ele>65.0</ele><time>2026-04-29T12:39:03.52Z</time></trkpt><trkpt lat="33.4050601" lon="9.0078163"><ele>65.0</ele><time>2026-04-29T12:39:04.526Z</time></trkpt><trkpt lat="33.4050584" lon="9.0077053"><ele>65.0</ele><time>2026-04-29T12:39:05.521Z</time></trkpt><trkpt lat="33.4050569" lon="9.0076039"><ele>65.0</ele><time>2026-04-29T12:39:06.522Z</time></trkpt><trkpt lat="33.4050677" lon="9.0075144"><ele>64.66666666666667</ele><time>2026-04-29T12:39:07.53Z</time></trkpt><trkpt lat="33.4050744" lon="9.0074301"><ele>64.33333333333334</ele><time>2026-04-29T12:39:08.527Z</time></trkpt><trkpt lat="33.4050833" lon="9.0073459"><ele>64.0</ele><time>2026-04-29T12:39:09.532Z</time></trkpt><trkpt lat="33.4050898" lon="9.0072686"><ele>63.66666666666667</ele><time>2026-04-29T12:39:10.533Z</time></trkpt><trkpt lat="33.4051045" lon="9.0071883"><ele>63.333333333333336</ele><time>2026-04-29T12:39:11.53Z</time></trkpt><trkpt lat="33.405127" lon="9.0070387"><ele>63.0</ele><time>2026-04-29T12:39:13.517Z</time></trkpt><trkpt lat="33.4051503" lon="9.0068853"><ele>63.0</ele><time>2026-04-29T12:39:15.495Z</time></trkpt><trkpt lat="33.4051702" lon="9.0068106"><ele>63.0</ele><time>2026-04-29T12:39:16.533Z</time></trkpt><trkpt lat="33.405198" lon="9.0067404"><ele>63.0</ele><time>2026-04-29T12:39:17.542Z</time></trkpt><trkpt lat="33.4052361" lon="9.0066746"><ele>63.0</ele><time>2026-04-29T12:39:18.524Z</time></trkpt><trkpt lat="33.4052844" lon="9.0066076"><ele>63.0</ele><time>2026-04-29T12:39:19.52Z</time></trkpt><trkpt lat="33.4053433" lon="9.006545"><ele>63.0</ele><time>2026-04-29T12:39:20.521Z</time></trkpt><trkpt lat="33.4054142" lon="9.0064945"><ele>63.0</ele><time>2026-04-29T12:39:21.529Z</time></trkpt><trkpt lat="33.405488" lon="9.0064553"><ele>63.4</ele><time>2026-04-29T12:39:22.504Z</time></trkpt><trkpt lat="33.4055693" lon="9.0064328"><ele>63.8</ele><time>2026-04-29T12:39:23.499Z</time></trkpt><trkpt lat="33.4056546" lon="9.0064274"><ele>64.2</ele><time>2026-04-29T12:39:24.532Z</time></trkpt><trkpt lat="33.4057472" lon="9.0064407"><ele>64.6</ele><time>2026-04-29T12:39:25.519Z</time></trkpt><trkpt lat="33.4058398" lon="9.0064638"><ele>65.0</ele><time>2026-04-29T12:39:26.521Z</time></trkpt><trkpt lat="33.4059321" lon="9.0064874"><ele>65.0</ele><time>2026-04-29T12:39:27.484Z</time></trkpt><trkpt lat="33.4060102" lon="9.0065178"><ele>65.0</ele><time>2026-04-29T12:39:28.504Z</time></trkpt><trkpt lat="33.4060801" lon="9.0065474"><ele>65.0</ele><time>2026-04-29T12:39:29.516Z</time></trkpt><trkpt lat="33.4061427" lon="9.0065741"><ele>65.0</ele><time>2026-04-29T12:39:30.531Z</time></trkpt><trkpt lat="33.4062432" lon="9.0066105"><ele>65.0</ele><time>2026-04-29T12:39:32.528Z</time></trkpt><trkpt lat="33.4063215" lon="9.0066492"><ele>65.0</ele><time>2026-04-29T12:39:34.524Z</time></trkpt><trkpt lat="33.4064168" lon="9.0066824"><ele>64.66666666666667</ele><time>2026-04-29T12:39:36.551Z</time></trkpt><trkpt lat="33.4064796" lon="9.006703"><ele>64.33333333333334</ele><time>2026-04-29T12:39:37.547Z</time></trkpt><trkpt lat="33.406546" lon="9.0067254"><ele>64.0</ele><time>2026-04-29T12:39:38.534Z</time></trkpt><trkpt lat="33.4066244" lon="9.0067471"><ele>63.66666666666667</ele><time>2026-04-29T12:39:39.55Z</time></trkpt><trkpt lat="33.4067" lon="9.0067717"><ele>63.333333333333336</ele><time>2026-04-29T12:39:40.531Z</time></trkpt><trkpt lat="33.4067755" lon="9.0067985"><ele>63.0</ele><time>2026-04-29T12:39:41.538Z</time></trkpt><trkpt lat="33.4068537" lon="9.0068204"><ele>63.0</ele><time>2026-04-29T12:39:42.491Z</time></trkpt><trkpt lat="33.406941" lon="9.0068504"><ele>63.0</ele><time>2026-04-29T12:39:43.519Z</time></trkpt><trkpt lat="33.4070305" lon="9.0068788"><ele>63.0</ele><time>2026-04-29T12:39:44.512Z</time></trkpt><trkpt lat="33.4071208" lon="9.0069078"><ele>63.0</ele><time>2026-04-29T12:39:45.547Z</time></trkpt><trkpt lat="33.4072106" lon="9.0069424"><ele>63.0</ele><time>2026-04-29T12:39:46.548Z</time></trkpt><trkpt lat="33.4073157" lon="9.0069857"><ele>63.5</ele><time>2026-04-29T12:39:47.525Z</time></trkpt><trkpt lat="33.40742" lon="9.0070269"><ele>64.0</ele><time>2026-04-29T12:39:48.549Z</time></trkpt><trkpt lat="33.40753" lon="9.0070699"><ele>64.5</ele><time>2026-04-29T12:39:49.483Z</time></trkpt><trkpt lat="33.4076425" lon="9.0071144"><ele>65.0</ele><time>2026-04-29T12:39:50.538Z</time></trkpt><trkpt lat="33.4077568" lon="9.0071555"><ele>65.0</ele><time>2026-04-29T12:39:51.541Z</time></trkpt><trkpt lat="33.4078727" lon="9.007199"><ele>65.0</ele><time>2026-04-29T12:39:52.538Z</time></trkpt><trkpt lat="33.4079905" lon="9.0072512"><ele>65.0</ele><time>2026-04-29T12:39:53.54Z</time></trkpt><trkpt lat="33.4081137" lon="9.0073012"><ele>65.0</ele><time>2026-04-29T12:39:54.536Z</time></trkpt><trkpt lat="33.4082338" lon="9.0073484"><ele>65.0</ele><time>2026-04-29T12:39:55.532Z</time></trkpt><trkpt lat="33.4083603" lon="9.007393"><ele>65.0</ele><time>2026-04-29T12:39:56.555Z</time></trkpt><trkpt lat="33.4084931" lon="9.0074427"><ele>65.0</ele><time>2026-04-29T12:39:57.551Z</time></trkpt><trkpt lat="33.4086252" lon="9.00749"><ele>65.0</ele><time>2026-04-29T12:39:58.533Z</time></trkpt><trkpt lat="33.4087645" lon="9.007545"><ele>65.0</ele><time>2026-04-29T12:39:59.491Z</time></trkpt><trkpt lat="33.4089044" lon="9.007597"><ele>65.0</ele><time>2026-04-29T12:40:00.536Z</time></trkpt><trkpt lat="33.4090471" lon="9.0076487"><ele>65.0</ele><time>2026-04-29T12:40:01.561Z</time></trkpt><trkpt lat="33.4091947" lon="9.0076982"><ele>65.0</ele><time>2026-04-29T12:40:02.543Z</time></trkpt><trkpt lat="33.4093446" lon="9.0077502"><ele>65.0</ele><time>2026-04-29T12:40:03.554Z</time></trkpt><trkpt lat="33.4094954" lon="9.0077998"><ele>65.0</ele><time>2026-04-29T12:40:04.546Z</time></trkpt><trkpt lat="33.4096443" lon="9.0078546"><ele>65.0</ele><time>2026-04-29T12:40:05.55Z</time></trkpt><trkpt lat="33.4098001" lon="9.0079127"><ele>65.33333333333334</ele><time>2026-04-29T12:40:06.553Z</time></trkpt><trkpt lat="33.4099502" lon="9.0079696"><ele>65.66666666666667</ele><time>2026-04-29T12:40:07.556Z</time></trkpt><trkpt lat="33.4101017" lon="9.0080234"><ele>66.0</ele><time>2026-04-29T12:40:08.549Z</time></trkpt><trkpt lat="33.4102577" lon="9.0080769"><ele>66.0</ele><time>2026-04-29T12:40:09.518Z</time></trkpt><trkpt lat="33.410418" lon="9.0081397"><ele>66.0</ele><time>2026-04-29T12:40:10.547Z</time></trkpt><trkpt lat="33.4105784" lon="9.0082004"><ele>66.0</ele><time>2026-04-29T12:40:11.545Z</time></trkpt><trkpt lat="33.4107369" lon="9.0082642"><ele>65.0</ele><time>2026-04-29T12:40:12.55Z</time></trkpt><trkpt lat="33.4108915" lon="9.0083307"><ele>64.0</ele><time>2026-04-29T12:40:13.508Z</time></trkpt><trkpt lat="33.4110477" lon="9.0084068"><ele>63.0</ele><time>2026-04-29T12:40:14.516Z</time></trkpt><trkpt lat="33.4112015" lon="9.0084829"><ele>64.0</ele><time>2026-04-29T12:40:15.522Z</time></trkpt><trkpt lat="33.4113551" lon="9.0085622"><ele>65.0</ele><time>2026-04-29T12:40:16.513Z</time></trkpt><trkpt lat="33.4115122" lon="9.008643"><ele>66.0</ele><time>2026-04-29T12:40:17.561Z</time></trkpt><trkpt lat="33.4116677" lon="9.0087233"><ele>66.0</ele><time>2026-04-29T12:40:18.538Z</time></trkpt><trkpt lat="33.4118212" lon="9.0088037"><ele>66.0</ele><time>2026-04-29T12:40:19.539Z</time></trkpt><trkpt lat="33.411977" lon="9.0088782"><ele>66.0</ele><time>2026-04-29T12:40:20.553Z</time></trkpt><trkpt lat="33.4121261" lon="9.008956"><ele>65.66666666666667</ele><time>2026-04-29T12:40:21.544Z</time></trkpt><trkpt lat="33.4122797" lon="9.0090427"><ele>65.33333333333334</ele><time>2026-04-29T12:40:22.55Z</time></trkpt><trkpt lat="33.4124289" lon="9.0091311"><ele>65.0</ele><time>2026-04-29T12:40:23.531Z</time></trkpt><trkpt lat="33.4125805" lon="9.0092184"><ele>65.0</ele><time>2026-04-29T12:40:24.542Z</time></trkpt><trkpt lat="33.4127313" lon="9.0093083"><ele>65.0</ele><time>2026-04-29T12:40:25.545Z</time></trkpt><trkpt lat="33.4128804" lon="9.0094043"><ele>65.0</ele><time>2026-04-29T12:40:26.543Z</time></trkpt><trkpt lat="33.4130341" lon="9.009498"><ele>65.0</ele><time>2026-04-29T12:40:27.541Z</time></trkpt><trkpt lat="33.4131869" lon="9.0095878"><ele>65.0</ele><time>2026-04-29T12:40:28.541Z</time></trkpt><trkpt lat="33.4133359" lon="9.0096791"><ele>65.0</ele><time>2026-04-29T12:40:29.532Z</time></trkpt><trkpt lat="33.413488" lon="9.009769"><ele>65.0</ele><time>2026-04-29T12:40:30.555Z</time></trkpt><trkpt lat="33.4136352" lon="9.0098572"><ele>65.0</ele><time>2026-04-29T12:40:31.543Z</time></trkpt><trkpt lat="33.4137892" lon="9.0099416"><ele>65.0</ele><time>2026-04-29T12:40:32.532Z</time></trkpt><trkpt lat="33.4139449" lon="9.0100244"><ele>65.66666666666667</ele><time>2026-04-29T12:40:33.535Z</time></trkpt><trkpt lat="33.4140999" lon="9.0100937"><ele>66.33333333333333</ele><time>2026-04-29T12:40:34.551Z</time></trkpt><trkpt lat="33.4142552" lon="9.0101598"><ele>67.0</ele><time>2026-04-29T12:40:35.518Z</time></trkpt><trkpt lat="33.4144201" lon="9.01023"><ele>67.0</ele><time>2026-04-29T12:40:36.534Z</time></trkpt><trkpt lat="33.4145893" lon="9.0102977"><ele>67.0</ele><time>2026-04-29T12:40:37.535Z</time></trkpt><trkpt lat="33.4147704" lon="9.0103677"><ele>67.0</ele><time>2026-04-29T12:40:38.531Z</time></trkpt><trkpt lat="33.414976" lon="9.0104524"><ele>66.5</ele><time>2026-04-29T12:40:39.541Z</time></trkpt><trkpt lat="33.4151919" lon="9.0105462"><ele>66.0</ele><time>2026-04-29T12:40:40.54Z</time></trkpt><trkpt lat="33.4154185" lon="9.0106508"><ele>66.0</ele><time>2026-04-29T12:40:41.552Z</time></trkpt><trkpt lat="33.4156458" lon="9.0107593"><ele>66.0</ele><time>2026-04-29T12:40:42.545Z</time></trkpt><trkpt lat="33.4158754" lon="9.0108655"><ele>66.0</ele><time>2026-04-29T12:40:43.537Z</time></trkpt><trkpt lat="33.4161032" lon="9.010973"><ele>66.0</ele><time>2026-04-29T12:40:44.547Z</time></trkpt><trkpt lat="33.4163343" lon="9.0110795"><ele>64.5</ele><time>2026-04-29T12:40:45.571Z</time></trkpt><trkpt lat="33.4165675" lon="9.0111769"><ele>63.0</ele><time>2026-04-29T12:40:46.554Z</time></trkpt><trkpt lat="33.4167985" lon="9.0112655"><ele>63.0</ele><time>2026-04-29T12:40:47.549Z</time></trkpt><trkpt lat="33.4170325" lon="9.0113506"><ele>63.0</ele><time>2026-04-29T12:40:48.539Z</time></trkpt><trkpt lat="33.4172617" lon="9.0114358"><ele>62.5</ele><time>2026-04-29T12:40:49.556Z</time></trkpt><trkpt lat="33.4174944" lon="9.0115149"><ele>62.0</ele><time>2026-04-29T12:40:50.515Z</time></trkpt><trkpt lat="33.4177303" lon="9.0115929"><ele>64.0</ele><time>2026-04-29T12:40:51.528Z</time></trkpt><trkpt lat="33.4179638" lon="9.0116711"><ele>66.0</ele><time>2026-04-29T12:40:52.535Z</time></trkpt><trkpt lat="33.418199" lon="9.011748"><ele>66.0</ele><time>2026-04-29T12:40:53.516Z</time></trkpt><trkpt lat="33.4184336" lon="9.0118212"><ele>66.0</ele><time>2026-04-29T12:40:54.512Z</time></trkpt><trkpt lat="33.4186683" lon="9.0118967"><ele>65.0</ele><time>2026-04-29T12:40:55.54Z</time></trkpt><trkpt lat="33.4189025" lon="9.0119752"><ele>64.0</ele><time>2026-04-29T12:40:56.537Z</time></trkpt><trkpt lat="33.419134" lon="9.0120489"><ele>64.0</ele><time>2026-04-29T12:40:57.531Z</time></trkpt><trkpt lat="33.4193672" lon="9.012122"><ele>64.0</ele><time>2026-04-29T12:40:58.521Z</time></trkpt><trkpt lat="33.4196036" lon="9.0121863"><ele>64.0</ele><time>2026-04-29T12:40:59.527Z</time></trkpt><trkpt lat="33.4198464" lon="9.0122337"><ele>64.0</ele><time>2026-04-29T12:41:00.55Z</time></trkpt><trkpt lat="33.4200873" lon="9.0122655"><ele>64.0</ele><time>2026-04-29T12:41:01.537Z</time></trkpt><trkpt lat="33.4203312" lon="9.0122895"><ele>64.0</ele><time>2026-04-29T12:41:02.5Z</time></trkpt><trkpt lat="33.4205808" lon="9.0123056"><ele>64.0</ele><time>2026-04-29T12:41:03.526Z</time></trkpt><trkpt lat="33.4208271" lon="9.0123178"><ele>64.0</ele><time>2026-04-29T12:41:04.528Z</time></trkpt><trkpt lat="33.4210642" lon="9.0123269"><ele>64.0</ele><time>2026-04-29T12:41:05.561Z</time></trkpt><trkpt lat="33.4213017" lon="9.0123302"><ele>64.0</ele><time>2026-04-29T12:41:06.556Z</time></trkpt><trkpt lat="33.4215406" lon="9.0123348"><ele>65.0</ele><time>2026-04-29T12:41:07.535Z</time></trkpt><trkpt lat="33.421784" lon="9.0123401"><ele>66.0</ele><time>2026-04-29T12:41:08.554Z</time></trkpt><trkpt lat="33.4220229" lon="9.0123526"><ele>67.0</ele><time>2026-04-29T12:41:09.54Z</time></trkpt><trkpt lat="33.4222644" lon="9.0123729"><ele>68.0</ele><time>2026-04-29T12:41:10.521Z</time></trkpt><trkpt lat="33.4225053" lon="9.0124136"><ele>68.0</ele><time>2026-04-29T12:41:11.549Z</time></trkpt><trkpt lat="33.4227405" lon="9.0124592"><ele>68.0</ele><time>2026-04-29T12:41:12.518Z</time></trkpt><trkpt lat="33.4229781" lon="9.0125222"><ele>68.0</ele><time>2026-04-29T12:41:13.546Z</time></trkpt><trkpt lat="33.4232181" lon="9.0125978"><ele>68.0</ele><time>2026-04-29T12:41:14.549Z</time></trkpt><trkpt lat="33.4234582" lon="9.0126696"><ele>68.0</ele><time>2026-04-29T12:41:15.532Z</time></trkpt><trkpt lat="33.423693" lon="9.0127304"><ele>68.0</ele><time>2026-04-29T12:41:16.542Z</time></trkpt><trkpt lat="33.4239293" lon="9.0127835"><ele>67.5</ele><time>2026-04-29T12:41:17.54Z</time></trkpt><trkpt lat="33.4241662" lon="9.0128299"><ele>67.0</ele><time>2026-04-29T12:41:18.537Z</time></trkpt><trkpt lat="33.4244054" lon="9.0128767"><ele>67.0</ele><time>2026-04-29T12:41:19.525Z</time></trkpt><trkpt lat="33.4246459" lon="9.0129165"><ele>67.0</ele><time>2026-04-29T12:41:20.542Z</time></trkpt><trkpt lat="33.4248884" lon="9.0129527"><ele>68.5</ele><time>2026-04-29T12:41:21.572Z</time></trkpt><trkpt lat="33.4251278" lon="9.0129883"><ele>70.0</ele><time>2026-04-29T12:41:22.549Z</time></trkpt><trkpt lat="33.4253681" lon="9.0130225"><ele>68.5</ele><time>2026-04-29T12:41:23.541Z</time></trkpt><trkpt lat="33.4256125" lon="9.0130534"><ele>67.0</ele><time>2026-04-29T12:41:24.553Z</time></trkpt><trkpt lat="33.4258519" lon="9.0130867"><ele>67.0</ele><time>2026-04-29T12:41:25.541Z</time></trkpt><trkpt lat="33.4260954" lon="9.0131187"><ele>67.0</ele><time>2026-04-29T12:41:26.553Z</time></trkpt><trkpt lat="33.4263348" lon="9.0131469"><ele>67.0</ele><time>2026-04-29T12:41:27.542Z</time></trkpt><trkpt lat="33.4265744" lon="9.013172"><ele>67.0</ele><time>2026-04-29T12:41:28.545Z</time></trkpt><trkpt lat="33.4268165" lon="9.013195"><ele>67.0</ele><time>2026-04-29T12:41:29.553Z</time></trkpt><trkpt lat="33.4270533" lon="9.013219"><ele>67.0</ele><time>2026-04-29T12:41:30.507Z</time></trkpt><trkpt lat="33.4272969" lon="9.0132546"><ele>67.5</ele><time>2026-04-29T12:41:31.521Z</time></trkpt><trkpt lat="33.4275344" lon="9.0132995"><ele>68.0</ele><time>2026-04-29T12:41:32.538Z</time></trkpt><trkpt lat="33.4277714" lon="9.0133512"><ele>68.0</ele><time>2026-04-29T12:41:33.544Z</time></trkpt><trkpt lat="33.4280116" lon="9.0134057"><ele>68.0</ele><time>2026-04-29T12:41:34.561Z</time></trkpt><trkpt lat="33.4282466" lon="9.0134562"><ele>68.0</ele><time>2026-04-29T12:41:35.52Z</time></trkpt><trkpt lat="33.4284883" lon="9.0135043"><ele>68.0</ele><time>2026-04-29T12:41:36.531Z</time></trkpt><trkpt lat="33.4287267" lon="9.0135528"><ele>66.5</ele><time>2026-04-29T12:41:37.543Z</time></trkpt><trkpt lat="33.4289668" lon="9.0135942"><ele>65.0</ele><time>2026-04-29T12:41:38.54Z</time></trkpt><trkpt lat="33.4292078" lon="9.013633"><ele>65.0</ele><time>2026-04-29T12:41:39.541Z</time></trkpt><trkpt lat="33.4294476" lon="9.0136649"><ele>65.0</ele><time>2026-04-29T12:41:40.533Z</time></trkpt><trkpt lat="33.4296885" lon="9.0136931"><ele>63.5</ele><time>2026-04-29T12:41:41.531Z</time></trkpt><trkpt lat="33.4299308" lon="9.0137193"><ele>62.0</ele><time>2026-04-29T12:41:42.548Z</time></trkpt><trkpt lat="33.4301701" lon="9.0137459"><ele>62.0</ele><time>2026-04-29T12:41:43.528Z</time></trkpt><trkpt lat="33.4304099" lon="9.013775"><ele>62.0</ele><time>2026-04-29T12:41:44.55Z</time></trkpt><trkpt lat="33.4306444" lon="9.0138029"><ele>62.0</ele><time>2026-04-29T12:41:45.53Z</time></trkpt><trkpt lat="33.430872" lon="9.0138294"><ele>62.0</ele><time>2026-04-29T12:41:46.539Z</time></trkpt><trkpt lat="33.4310848" lon="9.0138636"><ele>62.0</ele><time>2026-04-29T12:41:47.525Z</time></trkpt><trkpt lat="33.4312746" lon="9.0138892"><ele>61.66666666666667</ele><time>2026-04-29T12:41:48.546Z</time></trkpt><trkpt lat="33.4314397" lon="9.013911"><ele>61.33333333333333</ele><time>2026-04-29T12:41:49.532Z</time></trkpt><trkpt lat="33.4315979" lon="9.0139295"><ele>61.0</ele><time>2026-04-29T12:41:50.533Z</time></trkpt><trkpt lat="33.43175" lon="9.0139506"><ele>61.0</ele><time>2026-04-29T12:41:51.534Z</time></trkpt><trkpt lat="33.4318885" lon="9.0139661"><ele>61.0</ele><time>2026-04-29T12:41:52.532Z</time></trkpt><trkpt lat="33.432023" lon="9.0139813"><ele>61.0</ele><time>2026-04-29T12:41:53.502Z</time></trkpt><trkpt lat="33.4321559" lon="9.0139927"><ele>61.0</ele><time>2026-04-29T12:41:54.532Z</time></trkpt><trkpt lat="33.4322743" lon="9.0139963"><ele>61.5</ele><time>2026-04-29T12:41:55.514Z</time></trkpt><trkpt lat="33.4324018" lon="9.0140034"><ele>62.0</ele><time>2026-04-29T12:41:56.549Z</time></trkpt><trkpt lat="33.4325256" lon="9.0140179"><ele>62.5</ele><time>2026-04-29T12:41:57.533Z</time></trkpt><trkpt lat="33.432662" lon="9.0140484"><ele>63.0</ele><time>2026-04-29T12:41:58.528Z</time></trkpt><trkpt lat="33.4328094" lon="9.014074"><ele>63.0</ele><time>2026-04-29T12:41:59.545Z</time></trkpt><trkpt lat="33.4329604" lon="9.0140948"><ele>63.0</ele><time>2026-04-29T12:42:00.541Z</time></trkpt><trkpt lat="33.4331146" lon="9.0141153"><ele>63.0</ele><time>2026-04-29T12:42:01.537Z</time></trkpt><trkpt lat="33.4332705" lon="9.014135"><ele>63.0</ele><time>2026-04-29T12:42:02.512Z</time></trkpt><trkpt lat="33.4334299" lon="9.0141573"><ele>63.0</ele><time>2026-04-29T12:42:03.533Z</time></trkpt><trkpt lat="33.4335919" lon="9.014181"><ele>63.0</ele><time>2026-04-29T12:42:04.535Z</time></trkpt><trkpt lat="33.4337538" lon="9.0142023"><ele>62.4</ele><time>2026-04-29T12:42:05.525Z</time></trkpt><trkpt lat="33.4339073" lon="9.0142226"><ele>61.8</ele><time>2026-04-29T12:42:06.543Z</time></trkpt><trkpt lat="33.43403" lon="9.0142355"><ele>61.2</ele><time>2026-04-29T12:42:07.546Z</time></trkpt><trkpt lat="33.4341251" lon="9.0142447"><ele>60.6</ele><time>2026-04-29T12:42:08.538Z</time></trkpt><trkpt lat="33.434201" lon="9.014251"><ele>60.0</ele><time>2026-04-29T12:42:09.537Z</time></trkpt><trkpt lat="33.434279" lon="9.0142599"><ele>60.0</ele><time>2026-04-29T12:42:10.515Z</time></trkpt><trkpt lat="33.4343744" lon="9.0142701"><ele>60.0</ele><time>2026-04-29T12:42:11.535Z</time></trkpt><trkpt lat="33.43448" lon="9.0142794"><ele>60.0</ele><time>2026-04-29T12:42:12.538Z</time></trkpt><trkpt lat="33.4345902" lon="9.0142858"><ele>60.0</ele><time>2026-04-29T12:42:13.539Z</time></trkpt><trkpt lat="33.4347055" lon="9.0142957"><ele>60.0</ele><time>2026-04-29T12:42:14.534Z</time></trkpt><trkpt lat="33.4348344" lon="9.0143162"><ele>60.0</ele><time>2026-04-29T12:42:15.523Z</time></trkpt><trkpt lat="33.434968" lon="9.0143346"><ele>60.0</ele><time>2026-04-29T12:42:16.514Z</time></trkpt><trkpt lat="33.4351068" lon="9.0143522"><ele>60.0</ele><time>2026-04-29T12:42:17.512Z</time></trkpt><trkpt lat="33.4352506" lon="9.014367"><ele>60.0</ele><time>2026-04-29T12:42:18.539Z</time></trkpt><trkpt lat="33.4353955" lon="9.0143832"><ele>59.5</ele><time>2026-04-29T12:42:19.539Z</time></trkpt><trkpt lat="33.4355409" lon="9.0143989"><ele>59.0</ele><time>2026-04-29T12:42:20.485Z</time></trkpt><trkpt lat="33.4356921" lon="9.0144186"><ele>58.5</ele><time>2026-04-29T12:42:21.544Z</time></trkpt><trkpt lat="33.4358355" lon="9.0144382"><ele>58.0</ele><time>2026-04-29T12:42:22.554Z</time></trkpt><trkpt lat="33.4359777" lon="9.0144534"><ele>58.0</ele><time>2026-04-29T12:42:23.53Z</time></trkpt><trkpt lat="33.4361216" lon="9.0144692"><ele>58.0</ele><time>2026-04-29T12:42:24.55Z</time></trkpt><trkpt lat="33.4362624" lon="9.0144887"><ele>58.0</ele><time>2026-04-29T12:42:25.53Z</time></trkpt><trkpt lat="33.4364017" lon="9.0145103"><ele>58.0</ele><time>2026-04-29T12:42:26.529Z</time></trkpt><trkpt lat="33.4365429" lon="9.0145337"><ele>57.25</ele><time>2026-04-29T12:42:27.527Z</time></trkpt><trkpt lat="33.4366844" lon="9.0145534"><ele>56.5</ele><time>2026-04-29T12:42:28.536Z</time></trkpt><trkpt lat="33.4368232" lon="9.014574"><ele>55.75</ele><time>2026-04-29T12:42:29.541Z</time></trkpt><trkpt lat="33.4369574" lon="9.014597"><ele>55.0</ele><time>2026-04-29T12:42:30.544Z</time></trkpt><trkpt lat="33.4370921" lon="9.0146283"><ele>55.0</ele><time>2026-04-29T12:42:31.537Z</time></trkpt><trkpt lat="33.4372245" lon="9.0146625"><ele>55.0</ele><time>2026-04-29T12:42:32.538Z</time></trkpt><trkpt lat="33.4373586" lon="9.0147"><ele>55.0</ele><time>2026-04-29T12:42:33.525Z</time></trkpt><trkpt lat="33.4374841" lon="9.0147331"><ele>55.0</ele><time>2026-04-29T12:42:34.544Z</time></trkpt><trkpt lat="33.4377058" lon="9.0147927"><ele>55.0</ele><time>2026-04-29T12:42:36.531Z</time></trkpt><trkpt lat="33.4378078" lon="9.0148158"><ele>55.0</ele><time>2026-04-29T12:42:37.539Z</time></trkpt><trkpt lat="33.4379013" lon="9.014837"><ele>55.0</ele><time>2026-04-29T12:42:38.543Z</time></trkpt><trkpt lat="33.4379829" lon="9.0148597"><ele>55.0</ele><time>2026-04-29T12:42:39.51Z</time></trkpt><trkpt lat="33.4380705" lon="9.0148769"><ele>55.0</ele><time>2026-04-29T12:42:40.561Z</time></trkpt><trkpt lat="33.4381631" lon="9.0148994"><ele>55.0</ele><time>2026-04-29T12:42:41.567Z</time></trkpt><trkpt lat="33.4382627" lon="9.0149217"><ele>55.0</ele><time>2026-04-29T12:42:42.538Z</time></trkpt><trkpt lat="33.4383654" lon="9.0149484"><ele>55.0</ele><time>2026-04-29T12:42:43.536Z</time></trkpt><trkpt lat="33.4384704" lon="9.014978"><ele>55.0</ele><time>2026-04-29T12:42:44.529Z</time></trkpt><trkpt lat="33.4385771" lon="9.0150101"><ele>55.0</ele><time>2026-04-29T12:42:45.553Z</time></trkpt><trkpt lat="33.438685" lon="9.0150346"><ele>55.0</ele><time>2026-04-29T12:42:46.534Z</time></trkpt><trkpt lat="33.438794" lon="9.0150546"><ele>55.0</ele><time>2026-04-29T12:42:47.543Z</time></trkpt><trkpt lat="33.4389025" lon="9.0150749"><ele>55.0</ele><time>2026-04-29T12:42:48.549Z</time></trkpt><trkpt lat="33.4390065" lon="9.015091"><ele>55.0</ele><time>2026-04-29T12:42:49.525Z</time></trkpt><trkpt lat="33.4391177" lon="9.0151086"><ele>55.0</ele><time>2026-04-29T12:42:50.526Z</time></trkpt><trkpt lat="33.4392194" lon="9.0151232"><ele>54.99999999999999</ele><time>2026-04-29T12:42:51.556Z</time></trkpt><trkpt lat="33.4393081" lon="9.0151391"><ele>55.0</ele><time>2026-04-29T12:42:52.533Z</time></trkpt><trkpt lat="33.4393935" lon="9.0151536"><ele>55.0</ele><time>2026-04-29T12:42:53.557Z</time></trkpt><trkpt lat="33.439476" lon="9.0151769"><ele>55.0</ele><time>2026-04-29T12:42:54.535Z</time></trkpt><trkpt lat="33.4395491" lon="9.0152216"><ele>54.99999999999999</ele><time>2026-04-29T12:42:55.535Z</time></trkpt><trkpt lat="33.4396167" lon="9.015281"><ele>55.0</ele><time>2026-04-29T12:42:56.538Z</time></trkpt><trkpt lat="33.4396903" lon="9.0153264"><ele>55.2</ele><time>2026-04-29T12:42:57.541Z</time></trkpt><trkpt lat="33.4397841" lon="9.0153352"><ele>55.4</ele><time>2026-04-29T12:42:58.51Z</time></trkpt><trkpt lat="33.4398897" lon="9.0153243"><ele>55.599999999999994</ele><time>2026-04-29T12:42:59.532Z</time></trkpt><trkpt lat="33.4400029" lon="9.0152958"><ele>55.8</ele><time>2026-04-29T12:43:00.5Z</time></trkpt><trkpt lat="33.4401152" lon="9.0152707"><ele>56.0</ele><time>2026-04-29T12:43:01.556Z</time></trkpt><trkpt lat="33.4402357" lon="9.0152685"><ele>56.0</ele><time>2026-04-29T12:43:02.55Z</time></trkpt><trkpt lat="33.4403455" lon="9.0152731"><ele>55.99999999999999</ele><time>2026-04-29T12:43:03.538Z</time></trkpt><trkpt lat="33.4404506" lon="9.0152786"><ele>55.99999999999999</ele><time>2026-04-29T12:43:04.532Z</time></trkpt><trkpt lat="33.4405628" lon="9.0152855"><ele>56.0</ele><time>2026-04-29T12:43:05.532Z</time></trkpt><trkpt lat="33.4406769" lon="9.0152958"><ele>56.0</ele><time>2026-04-29T12:43:06.549Z</time></trkpt><trkpt lat="33.4407861" lon="9.0153058"><ele>56.199999999999996</ele><time>2026-04-29T12:43:07.515Z</time></trkpt><trkpt lat="33.4408957" lon="9.0153164"><ele>56.39999999999999</ele><time>2026-04-29T12:43:08.533Z</time></trkpt><trkpt lat="33.4410057" lon="9.015328"><ele>56.6</ele><time>2026-04-29T12:43:09.551Z</time></trkpt><trkpt lat="33.4411169" lon="9.015338"><ele>56.8</ele><time>2026-04-29T12:43:10.537Z</time></trkpt><trkpt lat="33.4412297" lon="9.015351"><ele>57.0</ele><time>2026-04-29T12:43:11.546Z</time></trkpt><trkpt lat="33.4413422" lon="9.0153673"><ele>57.0</ele><time>2026-04-29T12:43:12.549Z</time></trkpt><trkpt lat="33.4414403" lon="9.0153874"><ele>57.0</ele><time>2026-04-29T12:43:13.536Z</time></trkpt><trkpt lat="33.4415419" lon="9.015412"><ele>57.0</ele><time>2026-04-29T12:43:14.547Z</time></trkpt><trkpt lat="33.4416309" lon="9.0154335"><ele>57.0</ele><time>2026-04-29T12:43:15.557Z</time></trkpt><trkpt lat="33.4417254" lon="9.0154581"><ele>57.0</ele><time>2026-04-29T12:43:16.541Z</time></trkpt><trkpt lat="33.4418172" lon="9.0154836"><ele>57.0</ele><time>2026-04-29T12:43:17.541Z</time></trkpt><trkpt lat="33.4419144" lon="9.0155134"><ele>57.0</ele><time>2026-04-29T12:43:18.49Z</time></trkpt><trkpt lat="33.442014" lon="9.0155412"><ele>57.0</ele><time>2026-04-29T12:43:19.51Z</time></trkpt><trkpt lat="33.4421135" lon="9.015564"><ele>57.0</ele><time>2026-04-29T12:43:20.546Z</time></trkpt><trkpt lat="33.4422166" lon="9.0155879"><ele>57.0</ele><time>2026-04-29T12:43:21.515Z</time></trkpt><trkpt lat="33.4423219" lon="9.0156092"><ele>56.5</ele><time>2026-04-29T12:43:22.525Z</time></trkpt><trkpt lat="33.4424325" lon="9.0156371"><ele>56.0</ele><time>2026-04-29T12:43:23.53Z</time></trkpt><trkpt lat="33.4425453" lon="9.0156622"><ele>55.5</ele><time>2026-04-29T12:43:24.534Z</time></trkpt><trkpt lat="33.4426574" lon="9.0156867"><ele>55.0</ele><time>2026-04-29T12:43:25.517Z</time></trkpt><trkpt lat="33.4427706" lon="9.0157092"><ele>55.0</ele><time>2026-04-29T12:43:26.536Z</time></trkpt><trkpt lat="33.4428852" lon="9.0157284"><ele>55.0</ele><time>2026-04-29T12:43:27.541Z</time></trkpt><trkpt lat="33.4429952" lon="9.0157512"><ele>55.0</ele><time>2026-04-29T12:43:28.531Z</time></trkpt><trkpt lat="33.4431035" lon="9.0157765"><ele>55.0</ele><time>2026-04-29T12:43:29.542Z</time></trkpt><trkpt lat="33.443212" lon="9.0157988"><ele>55.0</ele><time>2026-04-29T12:43:30.541Z</time></trkpt><trkpt lat="33.4433205" lon="9.0158237"><ele>55.0</ele><time>2026-04-29T12:43:31.533Z</time></trkpt><trkpt lat="33.443431" lon="9.0158554"><ele>55.0</ele><time>2026-04-29T12:43:32.539Z</time></trkpt><trkpt lat="33.4435411" lon="9.01589"><ele>55.0</ele><time>2026-04-29T12:43:33.507Z</time></trkpt><trkpt lat="33.4436533" lon="9.0159264"><ele>55.0</ele><time>2026-04-29T12:43:34.538Z</time></trkpt><trkpt lat="33.4437615" lon="9.0159615"><ele>55.0</ele><time>2026-04-29T12:43:35.53Z</time></trkpt><trkpt lat="33.4438713" lon="9.0159989"><ele>55.0</ele><time>2026-04-29T12:43:36.538Z</time></trkpt><trkpt lat="33.4439789" lon="9.0160319"><ele>55.0</ele><time>2026-04-29T12:43:37.523Z</time></trkpt><trkpt lat="33.4440905" lon="9.0160674"><ele>55.0</ele><time>2026-04-29T12:43:38.533Z</time></trkpt><trkpt lat="33.4442001" lon="9.0161034"><ele>55.0</ele><time>2026-04-29T12:43:39.489Z</time></trkpt><trkpt lat="33.4443116" lon="9.0161459"><ele>55.0</ele><time>2026-04-29T12:43:40.53Z</time></trkpt><trkpt lat="33.444428" lon="9.016187"><ele>55.0</ele><time>2026-04-29T12:43:41.513Z</time></trkpt><trkpt lat="33.4445483" lon="9.0162266"><ele>55.0</ele><time>2026-04-29T12:43:42.539Z</time></trkpt><trkpt lat="33.4446686" lon="9.0162682"><ele>54.75</ele><time>2026-04-29T12:43:43.54Z</time></trkpt><trkpt lat="33.4447916" lon="9.0163126"><ele>54.5</ele><time>2026-04-29T12:43:44.525Z</time></trkpt><trkpt lat="33.4449128" lon="9.0163574"><ele>54.25</ele><time>2026-04-29T12:43:45.541Z</time></trkpt><trkpt lat="33.4450371" lon="9.0164071"><ele>54.0</ele><time>2026-04-29T12:43:46.542Z</time></trkpt><trkpt lat="33.445163" lon="9.0164534"><ele>54.0</ele><time>2026-04-29T12:43:47.532Z</time></trkpt><trkpt lat="33.4452909" lon="9.0164967"><ele>54.0</ele><time>2026-04-29T12:43:48.541Z</time></trkpt><trkpt lat="33.4454179" lon="9.0165341"><ele>54.0</ele><time>2026-04-29T12:43:49.543Z</time></trkpt><trkpt lat="33.445551" lon="9.0165666"><ele>54.0</ele><time>2026-04-29T12:43:50.531Z</time></trkpt><trkpt lat="33.4456844" lon="9.0165895"><ele>54.25</ele><time>2026-04-29T12:43:51.539Z</time></trkpt><trkpt lat="33.4458142" lon="9.0166069"><ele>54.5</ele><time>2026-04-29T12:43:52.552Z</time></trkpt><trkpt lat="33.4459423" lon="9.0166163"><ele>54.75</ele><time>2026-04-29T12:43:53.53Z</time></trkpt><trkpt lat="33.4460752" lon="9.0166233"><ele>55.0</ele><time>2026-04-29T12:43:54.553Z</time></trkpt><trkpt lat="33.446213" lon="9.0166323"><ele>55.25</ele><time>2026-04-29T12:43:55.533Z</time></trkpt><trkpt lat="33.4463542" lon="9.0166356"><ele>55.5</ele><time>2026-04-29T12:43:56.546Z</time></trkpt><trkpt lat="33.4464889" lon="9.0166395"><ele>55.75</ele><time>2026-04-29T12:43:57.501Z</time></trkpt><trkpt lat="33.4466272" lon="9.0166458"><ele>56.0</ele><time>2026-04-29T12:43:58.523Z</time></trkpt><trkpt lat="33.4467685" lon="9.0166502"><ele>56.0</ele><time>2026-04-29T12:43:59.539Z</time></trkpt><trkpt lat="33.4469057" lon="9.0166528"><ele>56.0</ele><time>2026-04-29T12:44:00.538Z</time></trkpt><trkpt lat="33.447045" lon="9.0166561"><ele>56.0</ele><time>2026-04-29T12:44:01.544Z</time></trkpt><trkpt lat="33.4471826" lon="9.0166623"><ele>56.0</ele><time>2026-04-29T12:44:02.542Z</time></trkpt><trkpt lat="33.4473231" lon="9.0166688"><ele>56.25</ele><time>2026-04-29T12:44:03.517Z</time></trkpt><trkpt lat="33.4474584" lon="9.0166753"><ele>56.5</ele><time>2026-04-29T12:44:04.54Z</time></trkpt><trkpt lat="33.4475969" lon="9.0166789"><ele>56.75</ele><time>2026-04-29T12:44:05.539Z</time></trkpt><trkpt lat="33.4477313" lon="9.0166763"><ele>57.0</ele><time>2026-04-29T12:44:06.542Z</time></trkpt><trkpt lat="33.4478734" lon="9.0166664"><ele>57.0</ele><time>2026-04-29T12:44:07.54Z</time></trkpt><trkpt lat="33.448014" lon="9.0166529"><ele>57.0</ele><time>2026-04-29T12:44:08.54Z</time></trkpt><trkpt lat="33.4481521" lon="9.0166383"><ele>57.0</ele><time>2026-04-29T12:44:09.521Z</time></trkpt><trkpt lat="33.4482892" lon="9.016618"><ele>57.0</ele><time>2026-04-29T12:44:10.543Z</time></trkpt><trkpt lat="33.4484306" lon="9.0166003"><ele>57.0</ele><time>2026-04-29T12:44:11.532Z</time></trkpt><trkpt lat="33.4485692" lon="9.0165852"><ele>57.0</ele><time>2026-04-29T12:44:12.533Z</time></trkpt><trkpt lat="33.4487141" lon="9.0165669"><ele>57.0</ele><time>2026-04-29T12:44:13.527Z</time></trkpt><trkpt lat="33.4488523" lon="9.016552"><ele>57.0</ele><time>2026-04-29T12:44:14.53Z</time></trkpt><trkpt lat="33.4489955" lon="9.0165354"><ele>57.25</ele><time>2026-04-29T12:44:15.545Z</time></trkpt><trkpt lat="33.4491358" lon="9.0165206"><ele>57.5</ele><time>2026-04-29T12:44:16.548Z</time></trkpt><trkpt lat="33.4492795" lon="9.0165108"><ele>57.75</ele><time>2026-04-29T12:44:17.564Z</time></trkpt><trkpt lat="33.4494237" lon="9.016505"><ele>58.0</ele><time>2026-04-29T12:44:18.524Z</time></trkpt><trkpt lat="33.4495639" lon="9.0164906"><ele>58.0</ele><time>2026-04-29T12:44:19.54Z</time></trkpt><trkpt lat="33.4497082" lon="9.0164829"><ele>58.0</ele><time>2026-04-29T12:44:20.533Z</time></trkpt><trkpt lat="33.4498523" lon="9.0164764"><ele>58.0</ele><time>2026-04-29T12:44:21.52Z</time></trkpt><trkpt lat="33.4499946" lon="9.0164701"><ele>58.0</ele><time>2026-04-29T12:44:22.545Z</time></trkpt><trkpt lat="33.4501417" lon="9.0164584"><ele>58.0</ele><time>2026-04-29T12:44:23.536Z</time></trkpt><trkpt lat="33.4502829" lon="9.016443"><ele>58.0</ele><time>2026-04-29T12:44:24.55Z</time></trkpt><trkpt lat="33.4504239" lon="9.0164257"><ele>58.0</ele><time>2026-04-29T12:44:25.516Z</time></trkpt><trkpt lat="33.450564" lon="9.0164031"><ele>58.0</ele><time>2026-04-29T12:44:26.538Z</time></trkpt><trkpt lat="33.4507096" lon="9.0163712"><ele>58.0</ele><time>2026-04-29T12:44:27.545Z</time></trkpt><trkpt lat="33.4508533" lon="9.0163344"><ele>58.0</ele><time>2026-04-29T12:44:28.536Z</time></trkpt><trkpt lat="33.4509967" lon="9.0162971"><ele>58.0</ele><time>2026-04-29T12:44:29.535Z</time></trkpt><trkpt lat="33.451145" lon="9.0162688"><ele>58.0</ele><time>2026-04-29T12:44:30.545Z</time></trkpt><trkpt lat="33.4512943" lon="9.0162419"><ele>58.25</ele><time>2026-04-29T12:44:31.506Z</time></trkpt><trkpt lat="33.4514333" lon="9.0162252"><ele>58.5</ele><time>2026-04-29T12:44:32.537Z</time></trkpt><trkpt lat="33.451559" lon="9.0161969"><ele>58.75</ele><time>2026-04-29T12:44:33.542Z</time></trkpt><trkpt lat="33.4516726" lon="9.0161759"><ele>59.0</ele><time>2026-04-29T12:44:34.538Z</time></trkpt><trkpt lat="33.451784" lon="9.0161595"><ele>59.00000000000001</ele><time>2026-04-29T12:44:35.537Z</time></trkpt><trkpt lat="33.4518757" lon="9.0161356"><ele>59.0</ele><time>2026-04-29T12:44:36.545Z</time></trkpt><trkpt lat="33.4519647" lon="9.0161164"><ele>59.0</ele><time>2026-04-29T12:44:37.528Z</time></trkpt><trkpt lat="33.4520419" lon="9.0161045"><ele>59.0</ele><time>2026-04-29T12:44:38.53Z</time></trkpt><trkpt lat="33.4521287" lon="9.01612"><ele>59.00000000000001</ele><time>2026-04-29T12:44:40.536Z</time></trkpt><trkpt lat="33.4521495" lon="9.016232"><ele>59.0</ele><time>2026-04-29T12:44:42.543Z</time></trkpt><trkpt lat="33.4521551" lon="9.0163458"><ele>59.5</ele><time>2026-04-29T12:44:43.529Z</time></trkpt><trkpt lat="33.4521599" lon="9.016486"><ele>60.0</ele><time>2026-04-29T12:44:44.547Z</time></trkpt><trkpt lat="33.452164" lon="9.0166259"><ele>60.5</ele><time>2026-04-29T12:44:45.535Z</time></trkpt><trkpt lat="33.4521914" lon="9.0167878"><ele>61.0</ele><time>2026-04-29T12:44:46.545Z</time></trkpt><trkpt lat="33.4522124" lon="9.0169395"><ele>61.25</ele><time>2026-04-29T12:44:47.528Z</time></trkpt><trkpt lat="33.4522378" lon="9.017104"><ele>61.5</ele><time>2026-04-29T12:44:48.53Z</time></trkpt><trkpt lat="33.4522612" lon="9.0172622"><ele>61.75</ele><time>2026-04-29T12:44:49.531Z</time></trkpt><trkpt lat="33.4522786" lon="9.0174169"><ele>62.0</ele><time>2026-04-29T12:44:50.517Z</time></trkpt><trkpt lat="33.4522947" lon="9.0175663"><ele>63.0</ele><time>2026-04-29T12:44:51.549Z</time></trkpt><trkpt lat="33.4523152" lon="9.0177213"><ele>64.0</ele><time>2026-04-29T12:44:52.537Z</time></trkpt><trkpt lat="33.452334" lon="9.0178724"><ele>65.0</ele><time>2026-04-29T12:44:53.526Z</time></trkpt><trkpt lat="33.4523508" lon="9.0180299"><ele>66.0</ele><time>2026-04-29T12:44:54.537Z</time></trkpt><trkpt lat="33.4523697" lon="9.0181825"><ele>66.6</ele><time>2026-04-29T12:44:55.527Z</time></trkpt><trkpt lat="33.4523812" lon="9.0183285"><ele>67.19999999999999</ele><time>2026-04-29T12:44:56.538Z</time></trkpt><trkpt lat="33.4523984" lon="9.0184599"><ele>67.80000000000001</ele><time>2026-04-29T12:44:57.541Z</time></trkpt><trkpt lat="33.452412" lon="9.0185703"><ele>68.4</ele><time>2026-04-29T12:44:58.524Z</time></trkpt><trkpt lat="33.452426" lon="9.0186711"><ele>69.0</ele><time>2026-04-29T12:44:59.533Z</time></trkpt><trkpt lat="33.4524312" lon="9.0187533"><ele>69.0</ele><time>2026-04-29T12:45:00.535Z</time></trkpt><trkpt lat="33.4524417" lon="9.0188383"><ele>69.0</ele><time>2026-04-29T12:45:01.537Z</time></trkpt><trkpt lat="33.4524552" lon="9.018934"><ele>69.0</ele><time>2026-04-29T12:45:02.532Z</time></trkpt><trkpt lat="33.4524747" lon="9.0190437"><ele>69.0</ele><time>2026-04-29T12:45:03.544Z</time></trkpt><trkpt lat="33.4524907" lon="9.0191529"><ele>69.0</ele><time>2026-04-29T12:45:04.535Z</time></trkpt><trkpt lat="33.4525082" lon="9.0192476"><ele>69.0</ele><time>2026-04-29T12:45:05.546Z</time></trkpt><trkpt lat="33.4525286" lon="9.0193351"><ele>69.5</ele><time>2026-04-29T12:45:06.514Z</time></trkpt><trkpt lat="33.4525478" lon="9.0194105"><ele>70.0</ele><time>2026-04-29T12:45:07.537Z</time></trkpt><trkpt lat="33.4525785" lon="9.0195579"><ele>70.5</ele><time>2026-04-29T12:45:09.5Z</time></trkpt><trkpt lat="33.4526004" lon="9.0196412"><ele>71.0</ele><time>2026-04-29T12:45:10.543Z</time></trkpt><trkpt lat="33.4526325" lon="9.019742"><ele>71.5</ele><time>2026-04-29T12:45:11.537Z</time></trkpt><trkpt lat="33.4526604" lon="9.019843"><ele>72.0</ele><time>2026-04-29T12:45:12.56Z</time></trkpt><trkpt lat="33.4526822" lon="9.0199491"><ele>72.5</ele><time>2026-04-29T12:45:13.528Z</time></trkpt><trkpt lat="33.4527056" lon="9.0200568"><ele>73.0</ele><time>2026-04-29T12:45:14.511Z</time></trkpt><trkpt lat="33.4527353" lon="9.0201595"><ele>73.5</ele><time>2026-04-29T12:45:15.528Z</time></trkpt><trkpt lat="33.4527693" lon="9.0202599"><ele>74.0</ele><time>2026-04-29T12:45:16.529Z</time></trkpt><trkpt lat="33.4528039" lon="9.0203501"><ele>74.5</ele><time>2026-04-29T12:45:17.534Z</time></trkpt><trkpt lat="33.4528387" lon="9.0204268"><ele>75.0</ele><time>2026-04-29T12:45:18.538Z</time></trkpt><trkpt lat="33.4528735" lon="9.0205055"><ele>75.0</ele><time>2026-04-29T12:45:19.54Z</time></trkpt><trkpt lat="33.4529053" lon="9.0205825"><ele>75.0</ele><time>2026-04-29T12:45:20.537Z</time></trkpt><trkpt lat="33.4529515" lon="9.0207131"><ele>75.0</ele><time>2026-04-29T12:45:22.536Z</time></trkpt><trkpt lat="33.4529885" lon="9.0208238"><ele>75.0</ele><time>2026-04-29T12:45:24.511Z</time></trkpt><trkpt lat="33.4530342" lon="9.020924"><ele>75.0</ele><time>2026-04-29T12:45:26.526Z</time></trkpt><trkpt lat="33.4530868" lon="9.021035"><ele>74.8</ele><time>2026-04-29T12:45:28.533Z</time></trkpt><trkpt lat="33.4531373" lon="9.0211513"><ele>74.6</ele><time>2026-04-29T12:45:30.501Z</time></trkpt><trkpt lat="33.4531882" lon="9.0212688"><ele>74.4</ele><time>2026-04-29T12:45:32.532Z</time></trkpt><trkpt lat="33.4532286" lon="9.0213577"><ele>74.2</ele><time>2026-04-29T12:45:34.543Z</time></trkpt><trkpt lat="33.4532987" lon="9.021335"><ele>74.0</ele><time>2026-04-29T12:45:38.537Z</time></trkpt><trkpt lat="33.4532995" lon="9.0212316"><ele>74.0</ele><time>2026-04-29T12:45:41.501Z</time></trkpt><trkpt lat="33.453252" lon="9.021153"><ele>74.0</ele><time>2026-04-29T12:45:43.543Z</time></trkpt><trkpt lat="33.4532053" lon="9.0210774"><ele>74.0</ele><time>2026-04-29T12:45:45.543Z</time></trkpt><trkpt lat="33.4531417" lon="9.0209551"><ele>74.0</ele><time>2026-04-29T12:45:47.525Z</time></trkpt><trkpt lat="33.4530852" lon="9.0208486"><ele>74.0</ele><time>2026-04-29T12:45:49.543Z</time></trkpt><trkpt lat="33.4530163" lon="9.0207304"><ele>74.16666666666667</ele><time>2026-04-29T12:45:51.532Z</time></trkpt><trkpt lat="33.4529819" lon="9.0206537"><ele>74.33333333333334</ele><time>2026-04-29T12:45:52.526Z</time></trkpt><trkpt lat="33.4529513" lon="9.0205825"><ele>74.5</ele><time>2026-04-29T12:45:53.562Z</time></trkpt><trkpt lat="33.4529065" lon="9.0204651"><ele>74.66666666666667</ele><time>2026-04-29T12:45:55.529Z</time></trkpt><trkpt lat="33.4528664" lon="9.020358"><ele>74.83333333333333</ele><time>2026-04-29T12:45:57.535Z</time></trkpt><trkpt lat="33.4528366" lon="9.0202751"><ele>75.0</ele><time>2026-04-29T12:45:59.542Z</time></trkpt><trkpt lat="33.452792" lon="9.0201869"><ele>75.0</ele><time>2026-04-29T12:46:02.518Z</time></trkpt><trkpt lat="33.4527148" lon="9.0201954"><ele>75.0</ele><time>2026-04-29T12:46:05.509Z</time></trkpt><trkpt lat="33.4527165" lon="9.0202719"><ele>75.0</ele><time>2026-04-29T12:46:08.531Z</time></trkpt><trkpt lat="33.4527693" lon="9.0203548"><ele>75.0</ele><time>2026-04-29T12:46:11.531Z</time></trkpt><trkpt lat="33.4528125" lon="9.0204383"><ele>75.0</ele><time>2026-04-29T12:46:14.518Z</time></trkpt></trkseg><trkseg><trkpt lat="33.4528588" lon="9.0205868"><ele>75.0</ele><time>2026-04-29T14:35:19.484Z</time></trkpt><trkpt lat="33.4529096" lon="9.0206769"><ele>75.0</ele><time>2026-04-29T14:35:21.465Z</time></trkpt><trkpt lat="33.452957" lon="9.0207572"><ele>75.0</ele><time>2026-04-29T14:35:23.445Z</time></trkpt><trkpt lat="33.4529988" lon="9.0208339"><ele>75.0</ele><time>2026-04-29T14:35:25.483Z</time></trkpt><trkpt lat="33.4530378" lon="9.0209128"><ele>75.0</ele><time>2026-04-29T14:35:27.47Z</time></trkpt><trkpt lat="33.4530778" lon="9.0210093"><ele>75.0</ele><time>2026-04-29T14:35:29.458Z</time></trkpt><trkpt lat="33.4531255" lon="9.0211162"><ele>74.8</ele><time>2026-04-29T14:35:31.454Z</time></trkpt><trkpt lat="33.4531777" lon="9.021254"><ele>74.6</ele><time>2026-04-29T14:35:33.458Z</time></trkpt><trkpt lat="33.4532471" lon="9.021374"><ele>74.4</ele><time>2026-04-29T14:35:35.468Z</time></trkpt><trkpt lat="33.4532905" lon="9.0214336"><ele>74.2</ele><time>2026-04-29T14:35:36.476Z</time></trkpt><trkpt lat="33.4533362" lon="9.0214944"><ele>74.0</ele><time>2026-04-29T14:35:37.46Z</time></trkpt><trkpt lat="33.4533882" lon="9.0215565"><ele>74.0</ele><time>2026-04-29T14:35:38.472Z</time></trkpt><trkpt lat="33.4534451" lon="9.0216298"><ele>74.0</ele><time>2026-04-29T14:35:39.495Z</time></trkpt><trkpt lat="33.4534984" lon="9.0217109"><ele>74.0</ele><time>2026-04-29T14:35:40.463Z</time></trkpt><trkpt lat="33.4535579" lon="9.0217996"><ele>74.0</ele><time>2026-04-29T14:35:41.444Z</time></trkpt><trkpt lat="33.4536201" lon="9.0218823"><ele>74.0</ele><time>2026-04-29T14:35:42.49Z</time></trkpt><trkpt lat="33.4536797" lon="9.0219637"><ele>74.0</ele><time>2026-04-29T14:35:43.476Z</time></trkpt><trkpt lat="33.453735" lon="9.0220492"><ele>73.5</ele><time>2026-04-29T14:35:44.467Z</time></trkpt><trkpt lat="33.4537917" lon="9.0221354"><ele>73.0</ele><time>2026-04-29T14:35:45.46Z</time></trkpt><trkpt lat="33.4538434" lon="9.0222206"><ele>72.5</ele><time>2026-04-29T14:35:46.502Z</time></trkpt><trkpt lat="33.4538982" lon="9.022304"><ele>72.0</ele><time>2026-04-29T14:35:47.454Z</time></trkpt><trkpt lat="33.4539529" lon="9.0223788"><ele>71.5</ele><time>2026-04-29T14:35:48.467Z</time></trkpt><trkpt lat="33.4540056" lon="9.022461"><ele>71.0</ele><time>2026-04-29T14:35:49.481Z</time></trkpt><trkpt lat="33.4540581" lon="9.022536"><ele>71.0</ele><time>2026-04-29T14:35:50.466Z</time></trkpt><trkpt lat="33.4541162" lon="9.0226125"><ele>71.0</ele><time>2026-04-29T14:35:51.487Z</time></trkpt><trkpt lat="33.454175" lon="9.0226899"><ele>71.0</ele><time>2026-04-29T14:35:52.53Z</time></trkpt><trkpt lat="33.4542305" lon="9.0227657"><ele>71.0</ele><time>2026-04-29T14:35:53.513Z</time></trkpt><trkpt lat="33.4542839" lon="9.0228495"><ele>71.0</ele><time>2026-04-29T14:35:54.47Z</time></trkpt><trkpt lat="33.4543362" lon="9.0229278"><ele>71.0</ele><time>2026-04-29T14:35:55.466Z</time></trkpt><trkpt lat="33.4543947" lon="9.0230083"><ele>71.0</ele><time>2026-04-29T14:35:56.494Z</time></trkpt><trkpt lat="33.4544414" lon="9.0230871"><ele>71.0</ele><time>2026-04-29T14:35:57.456Z</time></trkpt><trkpt lat="33.4544943" lon="9.0231688"><ele>71.0</ele><time>2026-04-29T14:35:58.448Z</time></trkpt><trkpt lat="33.4545482" lon="9.0232416"><ele>71.0</ele><time>2026-04-29T14:35:59.485Z</time></trkpt><trkpt lat="33.4545949" lon="9.0233229"><ele>71.0</ele><time>2026-04-29T14:36:00.464Z</time></trkpt><trkpt lat="33.4546447" lon="9.023396"><ele>71.0</ele><time>2026-04-29T14:36:01.47Z</time></trkpt><trkpt lat="33.4547012" lon="9.0234751"><ele>71.0</ele><time>2026-04-29T14:36:02.504Z</time></trkpt><trkpt lat="33.4547582" lon="9.023551"><ele>71.0</ele><time>2026-04-29T14:36:03.468Z</time></trkpt><trkpt lat="33.4548122" lon="9.0236337"><ele>71.0</ele><time>2026-04-29T14:36:04.456Z</time></trkpt><trkpt lat="33.4548681" lon="9.0237158"><ele>71.0</ele><time>2026-04-29T14:36:05.451Z</time></trkpt><trkpt lat="33.454923" lon="9.023797"><ele>71.0</ele><time>2026-04-29T14:36:06.442Z</time></trkpt><trkpt lat="33.4549739" lon="9.0238732"><ele>71.0</ele><time>2026-04-29T14:36:07.475Z</time></trkpt><trkpt lat="33.4550204" lon="9.0239386"><ele>71.0</ele><time>2026-04-29T14:36:08.472Z</time></trkpt><trkpt lat="33.4550635" lon="9.0240005"><ele>71.0</ele><time>2026-04-29T14:36:09.496Z</time></trkpt><trkpt lat="33.4551465" lon="9.0241054"><ele>71.0</ele><time>2026-04-29T14:36:11.504Z</time></trkpt><trkpt lat="33.4552079" lon="9.024193"><ele>71.0</ele><time>2026-04-29T14:36:13.5Z</time></trkpt><trkpt lat="33.4552504" lon="9.0242678"><ele>71.0</ele><time>2026-04-29T14:36:17.498Z</time></trkpt><trkpt lat="33.4552819" lon="9.0243439"><ele>71.0</ele><time>2026-04-29T14:36:20.471Z</time></trkpt><trkpt lat="33.4553006" lon="9.02443"><ele>70.85714285714286</ele><time>2026-04-29T14:36:23.504Z</time></trkpt><trkpt lat="33.4552994" lon="9.0245139"><ele>70.71428571428571</ele><time>2026-04-29T14:36:27.466Z</time></trkpt><trkpt lat="33.4553256" lon="9.024603"><ele>70.57142857142857</ele><time>2026-04-29T14:36:31.477Z</time></trkpt><trkpt lat="33.4553443" lon="9.024677"><ele>70.42857142857143</ele><time>2026-04-29T14:36:34.447Z</time></trkpt><trkpt lat="33.4553656" lon="9.0247564"><ele>70.28571428571428</ele><time>2026-04-29T14:36:38.502Z</time></trkpt><trkpt lat="33.4553821" lon="9.0248314"><ele>70.14285714285714</ele><time>2026-04-29T14:36:41.476Z</time></trkpt><trkpt lat="33.4554078" lon="9.0249127"><ele>70.0</ele><time>2026-04-29T14:36:44.491Z</time></trkpt><trkpt lat="33.4554312" lon="9.0249991"><ele>70.0</ele><time>2026-04-29T14:36:47.503Z</time></trkpt><trkpt lat="33.4554431" lon="9.0250734"><ele>70.0</ele><time>2026-04-29T14:36:50.462Z</time></trkpt><trkpt lat="33.4554693" lon="9.0251555"><ele>70.0</ele><time>2026-04-29T14:36:53.497Z</time></trkpt><trkpt lat="33.4554833" lon="9.0252396"><ele>70.0</ele><time>2026-04-29T14:36:56.49Z</time></trkpt><trkpt lat="33.455507" lon="9.0253148"><ele>70.0</ele><time>2026-04-29T14:36:59.487Z</time></trkpt><trkpt lat="33.4555453" lon="9.0253822"><ele>70.0</ele><time>2026-04-29T14:37:03.505Z</time></trkpt><trkpt lat="33.4555229" lon="9.0254611"><ele>70.0</ele><time>2026-04-29T14:37:06.489Z</time></trkpt><trkpt lat="33.4554551" lon="9.0255012"><ele>70.0</ele><time>2026-04-29T14:37:09.494Z</time></trkpt><trkpt lat="33.4553886" lon="9.0255096"><ele>70.0</ele><time>2026-04-29T14:37:12.488Z</time></trkpt><trkpt lat="33.455324" lon="9.0255278"><ele>70.0</ele><time>2026-04-29T14:37:16.489Z</time></trkpt><trkpt lat="33.4552894" lon="9.0255982"><ele>70.0</ele><time>2026-04-29T14:37:34.48Z</time></trkpt><trkpt lat="33.4552723" lon="9.0256835"><ele>70.0</ele><time>2026-04-29T14:37:37.492Z</time></trkpt><trkpt lat="33.4552831" lon="9.0257763"><ele>70.0</ele><time>2026-04-29T14:37:41.5Z</time></trkpt><trkpt lat="33.4552959" lon="9.0258581"><ele>70.0</ele><time>2026-04-29T14:37:46.489Z</time></trkpt><trkpt lat="33.4553092" lon="9.0259373"><ele>69.85714285714286</ele><time>2026-04-29T14:37:50.499Z</time></trkpt><trkpt lat="33.4553373" lon="9.026016"><ele>69.71428571428572</ele><time>2026-04-29T14:37:56.452Z</time></trkpt><trkpt lat="33.455341" lon="9.0260944"><ele>69.57142857142857</ele><time>2026-04-29T14:38:01.501Z</time></trkpt><trkpt lat="33.4553617" lon="9.0261834"><ele>69.42857142857143</ele><time>2026-04-29T14:38:09.5Z</time></trkpt><trkpt lat="33.4553878" lon="9.0262562"><ele>69.28571428571429</ele><time>2026-04-29T14:38:12.462Z</time></trkpt><trkpt lat="33.4554001" lon="9.0263365"><ele>69.14285714285714</ele><time>2026-04-29T14:38:15.494Z</time></trkpt><trkpt lat="33.4554281" lon="9.0264084"><ele>69.0</ele><time>2026-04-29T14:38:20.504Z</time></trkpt><trkpt lat="33.4554925" lon="9.0264149"><ele>69.0</ele><time>2026-04-29T14:38:22.492Z</time></trkpt><trkpt lat="33.4555924" lon="9.0264051"><ele>69.0</ele><time>2026-04-29T14:38:24.474Z</time></trkpt><trkpt lat="33.4556647" lon="9.0263865"><ele>69.0</ele><time>2026-04-29T14:38:26.488Z</time></trkpt><trkpt lat="33.455729" lon="9.0263629"><ele>69.0</ele><time>2026-04-29T14:38:28.497Z</time></trkpt><trkpt lat="33.4557997" lon="9.026331"><ele>69.0</ele><time>2026-04-29T14:38:31.446Z</time></trkpt><trkpt lat="33.4558779" lon="9.0263037"><ele>69.0</ele><time>2026-04-29T14:38:35.494Z</time></trkpt><trkpt lat="33.4559616" lon="9.0262847"><ele>69.0</ele><time>2026-04-29T14:38:38.449Z</time></trkpt><trkpt lat="33.4560397" lon="9.0262593"><ele>69.0</ele><time>2026-04-29T14:38:41.479Z</time></trkpt><trkpt lat="33.4561187" lon="9.0262334"><ele>69.0</ele><time>2026-04-29T14:38:44.499Z</time></trkpt><trkpt lat="33.4561925" lon="9.0262174"><ele>69.0</ele><time>2026-04-29T14:38:47.482Z</time></trkpt><trkpt lat="33.4562606" lon="9.026211"><ele>69.0</ele><time>2026-04-29T14:38:49.501Z</time></trkpt><trkpt lat="33.4563249" lon="9.0261895"><ele>69.0</ele><time>2026-04-29T14:38:51.473Z</time></trkpt><trkpt lat="33.4564128" lon="9.0261678"><ele>69.14285714285714</ele><time>2026-04-29T14:38:54.492Z</time></trkpt><trkpt lat="33.4564942" lon="9.0261416"><ele>69.28571428571429</ele><time>2026-04-29T14:38:57.458Z</time></trkpt><trkpt lat="33.4565595" lon="9.0261238"><ele>69.42857142857143</ele><time>2026-04-29T14:39:01.454Z</time></trkpt><trkpt lat="33.4566232" lon="9.0261362"><ele>69.57142857142857</ele><time>2026-04-29T14:40:25.514Z</time></trkpt><trkpt lat="33.4566606" lon="9.0260523"><ele>69.71428571428572</ele><time>2026-04-29T14:40:42.492Z</time></trkpt><trkpt lat="33.4566723" lon="9.0259769"><ele>69.85714285714286</ele><time>2026-04-29T14:40:44.461Z</time></trkpt><trkpt lat="33.4566697" lon="9.0258825"><ele>70.0</ele><time>2026-04-29T14:40:46.487Z</time></trkpt><trkpt lat="33.4566615" lon="9.0258045"><ele>70.16666666666666</ele><time>2026-04-29T14:40:48.489Z</time></trkpt><trkpt lat="33.4566451" lon="9.0256938"><ele>70.33333333333333</ele><time>2026-04-29T14:40:51.478Z</time></trkpt><trkpt lat="33.4566118" lon="9.0255976"><ele>70.5</ele><time>2026-04-29T14:40:53.508Z</time></trkpt><trkpt lat="33.4565943" lon="9.0255001"><ele>70.66666666666667</ele><time>2026-04-29T14:40:55.495Z</time></trkpt><trkpt lat="33.4565819" lon="9.0254053"><ele>70.83333333333334</ele><time>2026-04-29T14:40:57.501Z</time></trkpt><trkpt lat="33.4565686" lon="9.0253261"><ele>71.0</ele><time>2026-04-29T14:40:59.486Z</time></trkpt><trkpt lat="33.4565467" lon="9.0252541"><ele>71.0</ele><time>2026-04-29T14:41:02.455Z</time></trkpt><trkpt lat="33.4565299" lon="9.0251612"><ele>71.0</ele><time>2026-04-29T14:41:05.484Z</time></trkpt><trkpt lat="33.4565202" lon="9.0250323"><ele>71.0</ele><time>2026-04-29T14:41:07.48Z</time></trkpt><trkpt lat="33.4564989" lon="9.0249547"><ele>71.0</ele><time>2026-04-29T14:41:08.478Z</time></trkpt><trkpt lat="33.4564763" lon="9.0248231"><ele>71.0</ele><time>2026-04-29T14:41:10.492Z</time></trkpt><trkpt lat="33.4564733" lon="9.0247211"><ele>70.6</ele><time>2026-04-29T14:41:12.489Z</time></trkpt><trkpt lat="33.45646" lon="9.0245991"><ele>70.19999999999999</ele><time>2026-04-29T14:41:14.467Z</time></trkpt><trkpt lat="33.4564506" lon="9.0244983"><ele>69.80000000000001</ele><time>2026-04-29T14:41:16.493Z</time></trkpt><trkpt lat="33.4564398" lon="9.0243828"><ele>69.4</ele><time>2026-04-29T14:41:18.492Z</time></trkpt><trkpt lat="33.4564147" lon="9.0242718"><ele>69.0</ele><time>2026-04-29T14:41:20.492Z</time></trkpt><trkpt lat="33.4563959" lon="9.0241431"><ele>68.83333333333333</ele><time>2026-04-29T14:41:22.489Z</time></trkpt><trkpt lat="33.4563786" lon="9.0240142"><ele>68.66666666666667</ele><time>2026-04-29T14:41:24.5Z</time></trkpt><trkpt lat="33.4563601" lon="9.0238919"><ele>68.5</ele><time>2026-04-29T14:41:26.468Z</time></trkpt><trkpt lat="33.4563501" lon="9.0237936"><ele>68.33333333333334</ele><time>2026-04-29T14:41:28.468Z</time></trkpt><trkpt lat="33.4563347" lon="9.0237"><ele>68.16666666666667</ele><time>2026-04-29T14:41:31.513Z</time></trkpt><trkpt lat="33.4562921" lon="9.0236292"><ele>68.0</ele><time>2026-04-29T14:41:38.49Z</time></trkpt><trkpt lat="33.4562441" lon="9.0235708"><ele>68.0</ele><time>2026-04-29T14:41:41.491Z</time></trkpt><trkpt lat="33.4562935" lon="9.0236503"><ele>68.0</ele><time>2026-04-29T14:43:30.47Z</time></trkpt><trkpt lat="33.4563922" lon="9.0237039"><ele>68.0</ele><time>2026-04-29T14:43:32.454Z</time></trkpt><trkpt lat="33.4564936" lon="9.0237823"><ele>68.0</ele><time>2026-04-29T14:43:34.522Z</time></trkpt><trkpt lat="33.4565911" lon="9.0238654"><ele>68.0</ele><time>2026-04-29T14:43:36.465Z</time></trkpt><trkpt lat="33.45667" lon="9.0239461"><ele>68.0</ele><time>2026-04-29T14:43:38.469Z</time></trkpt><trkpt lat="33.4567316" lon="9.0240386"><ele>68.0</ele><time>2026-04-29T14:43:40.494Z</time></trkpt><trkpt lat="33.4568322" lon="9.0242213"><ele>68.0</ele><time>2026-04-29T14:43:44.468Z</time></trkpt><trkpt lat="33.4568611" lon="9.0242968"><ele>68.0</ele><time>2026-04-29T14:43:46.502Z</time></trkpt><trkpt lat="33.4568807" lon="9.0243765"><ele>68.0</ele><time>2026-04-29T14:43:49.44Z</time></trkpt><trkpt lat="33.4569017" lon="9.0244729"><ele>68.2</ele><time>2026-04-29T14:43:52.458Z</time></trkpt><trkpt lat="33.4569188" lon="9.0245785"><ele>68.4</ele><time>2026-04-29T14:43:54.45Z</time></trkpt><trkpt lat="33.4569511" lon="9.0246996"><ele>68.60000000000001</ele><time>2026-04-29T14:43:56.461Z</time></trkpt><trkpt lat="33.4569942" lon="9.0248153"><ele>68.8</ele><time>2026-04-29T14:43:58.476Z</time></trkpt><trkpt lat="33.4570249" lon="9.0249242"><ele>69.0</ele><time>2026-04-29T14:44:00.48Z</time></trkpt><trkpt lat="33.4570647" lon="9.0250294"><ele>69.33333333333333</ele><time>2026-04-29T14:44:02.487Z</time></trkpt><trkpt lat="33.4571245" lon="9.0250826"><ele>69.66666666666667</ele><time>2026-04-29T14:44:05.474Z</time></trkpt><trkpt lat="33.4572122" lon="9.0250567"><ele>70.0</ele><time>2026-04-29T14:44:09.491Z</time></trkpt><trkpt lat="33.4573094" lon="9.0250421"><ele>70.33333333333334</ele><time>2026-04-29T14:44:11.465Z</time></trkpt><trkpt lat="33.4573734" lon="9.0250261"><ele>70.66666666666667</ele><time>2026-04-29T14:44:12.489Z</time></trkpt><trkpt lat="33.4574366" lon="9.0250086"><ele>71.0</ele><time>2026-04-29T14:44:13.489Z</time></trkpt><trkpt lat="33.4575039" lon="9.024999"><ele>71.0</ele><time>2026-04-29T14:44:14.481Z</time></trkpt><trkpt lat="33.4575725" lon="9.0249818"><ele>71.0</ele><time>2026-04-29T14:44:15.473Z</time></trkpt><trkpt lat="33.4576391" lon="9.0249668"><ele>71.0</ele><time>2026-04-29T14:44:16.476Z</time></trkpt><trkpt lat="33.4577071" lon="9.0249483"><ele>71.0</ele><time>2026-04-29T14:44:17.473Z</time></trkpt><trkpt lat="33.4577839" lon="9.0249319"><ele>71.0</ele><time>2026-04-29T14:44:18.478Z</time></trkpt><trkpt lat="33.4578633" lon="9.0249087"><ele>71.0</ele><time>2026-04-29T14:44:19.489Z</time></trkpt><trkpt lat="33.4579495" lon="9.0248923"><ele>71.0</ele><time>2026-04-29T14:44:20.483Z</time></trkpt><trkpt lat="33.458036" lon="9.0248713"><ele>71.0</ele><time>2026-04-29T14:44:21.469Z</time></trkpt><trkpt lat="33.4581208" lon="9.0248538"><ele>71.0</ele><time>2026-04-29T14:44:22.469Z</time></trkpt><trkpt lat="33.4582028" lon="9.0248387"><ele>71.0</ele><time>2026-04-29T14:44:23.459Z</time></trkpt><trkpt lat="33.4582858" lon="9.024823"><ele>71.0</ele><time>2026-04-29T14:44:24.473Z</time></trkpt><trkpt lat="33.4583612" lon="9.0248068"><ele>71.0</ele><time>2026-04-29T14:44:25.482Z</time></trkpt><trkpt lat="33.4584348" lon="9.0247939"><ele>71.0</ele><time>2026-04-29T14:44:26.48Z</time></trkpt><trkpt lat="33.4585153" lon="9.024783"><ele>71.0</ele><time>2026-04-29T14:44:27.484Z</time></trkpt><trkpt lat="33.4585953" lon="9.0247657"><ele>71.0</ele><time>2026-04-29T14:44:28.475Z</time></trkpt><trkpt lat="33.4586746" lon="9.0247537"><ele>71.0</ele><time>2026-04-29T14:44:29.48Z</time></trkpt><trkpt lat="33.4587501" lon="9.0247358"><ele>71.0</ele><time>2026-04-29T14:44:30.478Z</time></trkpt><trkpt lat="33.4588251" lon="9.0247148"><ele>71.0</ele><time>2026-04-29T14:44:31.463Z</time></trkpt><trkpt lat="33.4588966" lon="9.0246972"><ele>71.14285714285714</ele><time>2026-04-29T14:44:32.49Z</time></trkpt><trkpt lat="33.4589752" lon="9.0246851"><ele>71.28571428571428</ele><time>2026-04-29T14:44:33.486Z</time></trkpt><trkpt lat="33.459052" lon="9.0246729"><ele>71.42857142857143</ele><time>2026-04-29T14:44:34.484Z</time></trkpt><trkpt lat="33.4591223" lon="9.0246581"><ele>71.57142857142857</ele><time>2026-04-29T14:44:35.469Z</time></trkpt><trkpt lat="33.4591918" lon="9.0246361"><ele>71.71428571428572</ele><time>2026-04-29T14:44:36.475Z</time></trkpt><trkpt lat="33.4592611" lon="9.0246207"><ele>71.85714285714286</ele><time>2026-04-29T14:44:37.489Z</time></trkpt><trkpt lat="33.4593361" lon="9.0245971"><ele>72.0</ele><time>2026-04-29T14:44:38.498Z</time></trkpt><trkpt lat="33.4594095" lon="9.0245797"><ele>72.0</ele><time>2026-04-29T14:44:39.479Z</time></trkpt><trkpt lat="33.4594881" lon="9.0245628"><ele>72.0</ele><time>2026-04-29T14:44:40.483Z</time></trkpt><trkpt lat="33.4595775" lon="9.0245425"><ele>72.0</ele><time>2026-04-29T14:44:41.476Z</time></trkpt><trkpt lat="33.4596613" lon="9.0245212"><ele>72.0</ele><time>2026-04-29T14:44:42.465Z</time></trkpt><trkpt lat="33.4597516" lon="9.0244999"><ele>72.0</ele><time>2026-04-29T14:44:43.467Z</time></trkpt><trkpt lat="33.4598386" lon="9.024477"><ele>72.0</ele><time>2026-04-29T14:44:44.441Z</time></trkpt><trkpt lat="33.4599292" lon="9.0244535"><ele>72.0</ele><time>2026-04-29T14:44:45.48Z</time></trkpt><trkpt lat="33.4600185" lon="9.0244313"><ele>72.0</ele><time>2026-04-29T14:44:46.465Z</time></trkpt><trkpt lat="33.4601113" lon="9.0244148"><ele>72.0</ele><time>2026-04-29T14:44:47.462Z</time></trkpt><trkpt lat="33.4601981" lon="9.024398"><ele>72.0</ele><time>2026-04-29T14:44:48.463Z</time></trkpt><trkpt lat="33.4602808" lon="9.0243755"><ele>72.0</ele><time>2026-04-29T14:44:49.465Z</time></trkpt><trkpt lat="33.4603614" lon="9.024355"><ele>72.0</ele><time>2026-04-29T14:44:50.451Z</time></trkpt><trkpt lat="33.4604411" lon="9.0243348"><ele>72.0</ele><time>2026-04-29T14:44:51.48Z</time></trkpt><trkpt lat="33.4605277" lon="9.0243154"><ele>72.0</ele><time>2026-04-29T14:44:52.451Z</time></trkpt><trkpt lat="33.4606105" lon="9.024293"><ele>72.0</ele><time>2026-04-29T14:44:53.447Z</time></trkpt><trkpt lat="33.4606981" lon="9.0242728"><ele>72.0</ele><time>2026-04-29T14:44:54.458Z</time></trkpt><trkpt lat="33.4607786" lon="9.0242538"><ele>72.0</ele><time>2026-04-29T14:44:55.456Z</time></trkpt><trkpt lat="33.4608582" lon="9.0242362"><ele>72.0</ele><time>2026-04-29T14:44:56.465Z</time></trkpt><trkpt lat="33.4609333" lon="9.0242208"><ele>72.0</ele><time>2026-04-29T14:44:57.474Z</time></trkpt><trkpt lat="33.4610153" lon="9.0242109"><ele>72.0</ele><time>2026-04-29T14:44:58.473Z</time></trkpt><trkpt lat="33.4611043" lon="9.024203"><ele>72.0</ele><time>2026-04-29T14:44:59.483Z</time></trkpt><trkpt lat="33.4611947" lon="9.0241901"><ele>72.0</ele><time>2026-04-29T14:45:00.473Z</time></trkpt><trkpt lat="33.4612867" lon="9.0241713"><ele>72.0</ele><time>2026-04-29T14:45:01.478Z</time></trkpt><trkpt lat="33.461382" lon="9.0241553"><ele>71.4</ele><time>2026-04-29T14:45:02.495Z</time></trkpt><trkpt lat="33.4614731" lon="9.0241321"><ele>70.80000000000001</ele><time>2026-04-29T14:45:03.479Z</time></trkpt><trkpt lat="33.4615668" lon="9.0241083"><ele>70.2</ele><time>2026-04-29T14:45:04.474Z</time></trkpt><trkpt lat="33.4616621" lon="9.0240851"><ele>69.60000000000001</ele><time>2026-04-29T14:45:05.466Z</time></trkpt><trkpt lat="33.4617573" lon="9.024068"><ele>69.0</ele><time>2026-04-29T14:45:06.478Z</time></trkpt><trkpt lat="33.4618547" lon="9.0240466"><ele>69.0</ele><time>2026-04-29T14:45:07.48Z</time></trkpt><trkpt lat="33.4619556" lon="9.0240185"><ele>69.0</ele><time>2026-04-29T14:45:08.466Z</time></trkpt><trkpt lat="33.4620615" lon="9.0239934"><ele>69.0</ele><time>2026-04-29T14:45:09.464Z</time></trkpt><trkpt lat="33.4621672" lon="9.0239709"><ele>69.0</ele><time>2026-04-29T14:45:10.455Z</time></trkpt><trkpt lat="33.4622789" lon="9.0239549"><ele>69.0</ele><time>2026-04-29T14:45:11.478Z</time></trkpt><trkpt lat="33.462391" lon="9.0239455"><ele>69.0</ele><time>2026-04-29T14:45:12.484Z</time></trkpt><trkpt lat="33.4625033" lon="9.0239352"><ele>69.0</ele><time>2026-04-29T14:45:13.458Z</time></trkpt><trkpt lat="33.4626157" lon="9.0239238"><ele>69.0</ele><time>2026-04-29T14:45:14.46Z</time></trkpt><trkpt lat="33.4627282" lon="9.023908"><ele>69.0</ele><time>2026-04-29T14:45:15.477Z</time></trkpt><trkpt lat="33.4628413" lon="9.0238953"><ele>68.8</ele><time>2026-04-29T14:45:16.47Z</time></trkpt><trkpt lat="33.4629511" lon="9.0238828"><ele>68.60000000000001</ele><time>2026-04-29T14:45:17.488Z</time></trkpt><trkpt lat="33.4630628" lon="9.0238691"><ele>68.4</ele><time>2026-04-29T14:45:18.478Z</time></trkpt><trkpt lat="33.4631753" lon="9.0238586"><ele>68.2</ele><time>2026-04-29T14:45:19.483Z</time></trkpt><trkpt lat="33.4632859" lon="9.0238527"><ele>68.0</ele><time>2026-04-29T14:45:20.492Z</time></trkpt><trkpt lat="33.4633931" lon="9.0238545"><ele>68.0</ele><time>2026-04-29T14:45:21.485Z</time></trkpt><trkpt lat="33.4635023" lon="9.0238465"><ele>68.0</ele><time>2026-04-29T14:45:22.497Z</time></trkpt><trkpt lat="33.4636191" lon="9.0238474"><ele>68.0</ele><time>2026-04-29T14:45:23.473Z</time></trkpt><trkpt lat="33.4637448" lon="9.0238473"><ele>68.0</ele><time>2026-04-29T14:45:24.477Z</time></trkpt><trkpt lat="33.4638704" lon="9.0238385"><ele>67.75</ele><time>2026-04-29T14:45:25.482Z</time></trkpt><trkpt lat="33.4639909" lon="9.0238325"><ele>67.5</ele><time>2026-04-29T14:45:26.467Z</time></trkpt><trkpt lat="33.4641161" lon="9.0238265"><ele>67.25</ele><time>2026-04-29T14:45:27.473Z</time></trkpt><trkpt lat="33.4642342" lon="9.0238202"><ele>67.0</ele><time>2026-04-29T14:45:28.464Z</time></trkpt><trkpt lat="33.4643571" lon="9.0238105"><ele>67.0</ele><time>2026-04-29T14:45:29.477Z</time></trkpt><trkpt lat="33.4644786" lon="9.0238047"><ele>67.0</ele><time>2026-04-29T14:45:30.491Z</time></trkpt><trkpt lat="33.4646" lon="9.0237979"><ele>67.0</ele><time>2026-04-29T14:45:31.469Z</time></trkpt><trkpt lat="33.4647213" lon="9.0237961"><ele>67.0</ele><time>2026-04-29T14:45:32.504Z</time></trkpt><trkpt lat="33.4648411" lon="9.0237928"><ele>66.8</ele><time>2026-04-29T14:45:33.474Z</time></trkpt><trkpt lat="33.464958" lon="9.0237843"><ele>66.6</ele><time>2026-04-29T14:45:34.47Z</time></trkpt><trkpt lat="33.465073" lon="9.0237812"><ele>66.39999999999999</ele><time>2026-04-29T14:45:35.492Z</time></trkpt><trkpt lat="33.4651834" lon="9.0237788"><ele>66.2</ele><time>2026-04-29T14:45:36.474Z</time></trkpt><trkpt lat="33.4652882" lon="9.0237731"><ele>66.0</ele><time>2026-04-29T14:45:37.467Z</time></trkpt><trkpt lat="33.4653766" lon="9.0237653"><ele>65.66666666666667</ele><time>2026-04-29T14:45:38.475Z</time></trkpt><trkpt lat="33.4654556" lon="9.0237586"><ele>65.33333333333333</ele><time>2026-04-29T14:45:39.498Z</time></trkpt><trkpt lat="33.465525" lon="9.0237546"><ele>65.0</ele><time>2026-04-29T14:45:40.474Z</time></trkpt><trkpt lat="33.4655937" lon="9.0237557"><ele>64.66666666666666</ele><time>2026-04-29T14:45:41.467Z</time></trkpt><trkpt lat="33.4657022" lon="9.0237516"><ele>64.33333333333333</ele><time>2026-04-29T14:45:43.486Z</time></trkpt><trkpt lat="33.4658093" lon="9.0237498"><ele>64.0</ele><time>2026-04-29T14:45:45.465Z</time></trkpt><trkpt lat="33.4658954" lon="9.0237532"><ele>64.0</ele><time>2026-04-29T14:45:47.463Z</time></trkpt><trkpt lat="33.4659669" lon="9.0237791"><ele>63.99999999999999</ele><time>2026-04-29T14:45:49.477Z</time></trkpt><trkpt lat="33.4660264" lon="9.0238218"><ele>64.0</ele><time>2026-04-29T14:45:51.477Z</time></trkpt><trkpt lat="33.4660951" lon="9.0238828"><ele>64.0</ele><time>2026-04-29T14:45:54.488Z</time></trkpt><trkpt lat="33.4661678" lon="9.0238867"><ele>63.99999999999999</ele><time>2026-04-29T14:45:58.478Z</time></trkpt><trkpt lat="33.4662403" lon="9.0239099"><ele>64.0</ele><time>2026-04-29T14:49:32.433Z</time></trkpt><trkpt lat="33.4662609" lon="9.0238277"><ele>64.0</ele><time>2026-04-29T14:49:38.477Z</time></trkpt><trkpt lat="33.4663138" lon="9.0237803"><ele>64.2</ele><time>2026-04-29T14:50:31.47Z</time></trkpt><trkpt lat="33.4664037" lon="9.0237186"><ele>64.4</ele><time>2026-04-29T14:50:35.469Z</time></trkpt><trkpt lat="33.4665244" lon="9.0237081"><ele>64.6</ele><time>2026-04-29T14:50:37.478Z</time></trkpt><trkpt lat="33.4666036" lon="9.0237002"><ele>64.8</ele><time>2026-04-29T14:50:38.474Z</time></trkpt><trkpt lat="33.4666881" lon="9.0236876"><ele>65.0</ele><time>2026-04-29T14:50:39.47Z</time></trkpt><trkpt lat="33.4667791" lon="9.0236843"><ele>65.0</ele><time>2026-04-29T14:50:40.461Z</time></trkpt><trkpt lat="33.4668804" lon="9.0236778"><ele>65.0</ele><time>2026-04-29T14:50:41.47Z</time></trkpt><trkpt lat="33.4669749" lon="9.0236706"><ele>65.0</ele><time>2026-04-29T14:50:42.48Z</time></trkpt><trkpt lat="33.4670782" lon="9.0236633"><ele>65.0</ele><time>2026-04-29T14:50:43.463Z</time></trkpt><trkpt lat="33.4671903" lon="9.0236499"><ele>65.0</ele><time>2026-04-29T14:50:44.485Z</time></trkpt><trkpt lat="33.4672985" lon="9.0236457"><ele>65.0</ele><time>2026-04-29T14:50:45.469Z</time></trkpt><trkpt lat="33.46741" lon="9.023634"><ele>65.0</ele><time>2026-04-29T14:50:46.474Z</time></trkpt><trkpt lat="33.467523" lon="9.0236261"><ele>65.0</ele><time>2026-04-29T14:50:47.473Z</time></trkpt><trkpt lat="33.4676338" lon="9.0236173"><ele>65.0</ele><time>2026-04-29T14:50:48.462Z</time></trkpt><trkpt lat="33.4677415" lon="9.0236066"><ele>65.0</ele><time>2026-04-29T14:50:49.477Z</time></trkpt><trkpt lat="33.4678556" lon="9.0235951"><ele>64.8</ele><time>2026-04-29T14:50:50.475Z</time></trkpt><trkpt lat="33.4679627" lon="9.0235806"><ele>64.6</ele><time>2026-04-29T14:50:51.475Z</time></trkpt><trkpt lat="33.4680719" lon="9.0235669"><ele>64.4</ele><time>2026-04-29T14:50:52.497Z</time></trkpt><trkpt lat="33.4681772" lon="9.0235512"><ele>64.2</ele><time>2026-04-29T14:50:53.473Z</time></trkpt><trkpt lat="33.4682894" lon="9.0235374"><ele>64.0</ele><time>2026-04-29T14:50:54.476Z</time></trkpt><trkpt lat="33.4683985" lon="9.0235215"><ele>64.0</ele><time>2026-04-29T14:50:55.473Z</time></trkpt><trkpt lat="33.4685118" lon="9.0235073"><ele>64.0</ele><time>2026-04-29T14:50:56.461Z</time></trkpt><trkpt lat="33.4686268" lon="9.0234874"><ele>64.0</ele><time>2026-04-29T14:50:57.481Z</time></trkpt><trkpt lat="33.4687431" lon="9.0234731"><ele>64.0</ele><time>2026-04-29T14:50:58.486Z</time></trkpt><trkpt lat="33.4688599" lon="9.0234579"><ele>64.25</ele><time>2026-04-29T14:50:59.477Z</time></trkpt><trkpt lat="33.4689793" lon="9.0234399"><ele>64.5</ele><time>2026-04-29T14:51:00.467Z</time></trkpt><trkpt lat="33.4691" lon="9.0234218"><ele>64.75</ele><time>2026-04-29T14:51:01.485Z</time></trkpt><trkpt lat="33.469223" lon="9.0234085"><ele>65.0</ele><time>2026-04-29T14:51:02.487Z</time></trkpt><trkpt lat="33.4693467" lon="9.0233923"><ele>65.0</ele><time>2026-04-29T14:51:03.497Z</time></trkpt><trkpt lat="33.4694739" lon="9.0233762"><ele>65.0</ele><time>2026-04-29T14:51:04.473Z</time></trkpt><trkpt lat="33.4695953" lon="9.0233583"><ele>65.0</ele><time>2026-04-29T14:51:05.484Z</time></trkpt><trkpt lat="33.4697159" lon="9.0233417"><ele>65.0</ele><time>2026-04-29T14:51:06.511Z</time></trkpt><trkpt lat="33.4698307" lon="9.0233202"><ele>65.25</ele><time>2026-04-29T14:51:07.481Z</time></trkpt><trkpt lat="33.4699462" lon="9.0233064"><ele>65.5</ele><time>2026-04-29T14:51:08.465Z</time></trkpt><trkpt lat="33.4700521" lon="9.0232935"><ele>65.75</ele><time>2026-04-29T14:51:09.467Z</time></trkpt><trkpt lat="33.4701668" lon="9.0232695"><ele>66.0</ele><time>2026-04-29T14:51:10.48Z</time></trkpt><trkpt lat="33.4702817" lon="9.0232478"><ele>66.0</ele><time>2026-04-29T14:51:11.475Z</time></trkpt><trkpt lat="33.4703959" lon="9.0232274"><ele>66.0</ele><time>2026-04-29T14:51:12.508Z</time></trkpt><trkpt lat="33.4705073" lon="9.0232088"><ele>66.0</ele><time>2026-04-29T14:51:13.476Z</time></trkpt><trkpt lat="33.4706199" lon="9.0231953"><ele>66.0</ele><time>2026-04-29T14:51:14.512Z</time></trkpt><trkpt lat="33.4707309" lon="9.0231821"><ele>65.8</ele><time>2026-04-29T14:51:15.467Z</time></trkpt><trkpt lat="33.4708444" lon="9.0231679"><ele>65.6</ele><time>2026-04-29T14:51:16.464Z</time></trkpt><trkpt lat="33.4709529" lon="9.0231493"><ele>65.4</ele><time>2026-04-29T14:51:17.483Z</time></trkpt><trkpt lat="33.4710602" lon="9.0231364"><ele>65.2</ele><time>2026-04-29T14:51:18.446Z</time></trkpt><trkpt lat="33.4711664" lon="9.0231169"><ele>65.0</ele><time>2026-04-29T14:51:19.459Z</time></trkpt><trkpt lat="33.4712715" lon="9.0230961"><ele>65.0</ele><time>2026-04-29T14:51:20.473Z</time></trkpt><trkpt lat="33.4713798" lon="9.0230762"><ele>65.0</ele><time>2026-04-29T14:51:21.459Z</time></trkpt><trkpt lat="33.4714914" lon="9.0230603"><ele>65.0</ele><time>2026-04-29T14:51:22.484Z</time></trkpt><trkpt lat="33.4715975" lon="9.0230488"><ele>65.0</ele><time>2026-04-29T14:51:23.49Z</time></trkpt><trkpt lat="33.4717033" lon="9.0230312"><ele>65.0</ele><time>2026-04-29T14:51:24.462Z</time></trkpt><trkpt lat="33.4718021" lon="9.0230179"><ele>65.0</ele><time>2026-04-29T14:51:25.472Z</time></trkpt><trkpt lat="33.4718951" lon="9.0230097"><ele>65.0</ele><time>2026-04-29T14:51:26.484Z</time></trkpt><trkpt lat="33.4719744" lon="9.0229995"><ele>65.0</ele><time>2026-04-29T14:51:27.457Z</time></trkpt><trkpt lat="33.4720426" lon="9.0229934"><ele>65.0</ele><time>2026-04-29T14:51:28.478Z</time></trkpt><trkpt lat="33.4721071" lon="9.0229859"><ele>65.0</ele><time>2026-04-29T14:51:29.473Z</time></trkpt><trkpt lat="33.4721889" lon="9.0229705"><ele>65.0</ele><time>2026-04-29T14:51:30.483Z</time></trkpt><trkpt lat="33.4722855" lon="9.0229469"><ele>65.0</ele><time>2026-04-29T14:51:31.49Z</time></trkpt><trkpt lat="33.4724021" lon="9.0229227"><ele>65.0</ele><time>2026-04-29T14:51:32.479Z</time></trkpt><trkpt lat="33.4725307" lon="9.0229049"><ele>65.0</ele><time>2026-04-29T14:51:33.478Z</time></trkpt><trkpt lat="33.4726587" lon="9.0228911"><ele>65.0</ele><time>2026-04-29T14:51:34.471Z</time></trkpt><trkpt lat="33.472795" lon="9.0228765"><ele>65.0</ele><time>2026-04-29T14:51:35.485Z</time></trkpt><trkpt lat="33.4729301" lon="9.0228597"><ele>65.0</ele><time>2026-04-29T14:51:36.463Z</time></trkpt><trkpt lat="33.4730628" lon="9.0228374"><ele>65.0</ele><time>2026-04-29T14:51:37.475Z</time></trkpt><trkpt lat="33.4731964" lon="9.0228179"><ele>65.0</ele><time>2026-04-29T14:51:38.456Z</time></trkpt><trkpt lat="33.4733291" lon="9.0227949"><ele>65.0</ele><time>2026-04-29T14:51:39.471Z</time></trkpt><trkpt lat="33.4734623" lon="9.0227725"><ele>65.0</ele><time>2026-04-29T14:51:40.478Z</time></trkpt><trkpt lat="33.4735855" lon="9.0227524"><ele>65.0</ele><time>2026-04-29T14:51:41.46Z</time></trkpt><trkpt lat="33.4737089" lon="9.0227334"><ele>65.0</ele><time>2026-04-29T14:51:42.47Z</time></trkpt><trkpt lat="33.4738317" lon="9.0227138"><ele>64.75</ele><time>2026-04-29T14:51:43.48Z</time></trkpt><trkpt lat="33.4739538" lon="9.0226902"><ele>64.5</ele><time>2026-04-29T14:51:44.478Z</time></trkpt><trkpt lat="33.4740749" lon="9.0226739"><ele>64.25</ele><time>2026-04-29T14:51:45.469Z</time></trkpt><trkpt lat="33.4741912" lon="9.022662"><ele>64.0</ele><time>2026-04-29T14:51:46.457Z</time></trkpt><trkpt lat="33.47431" lon="9.0226506"><ele>64.0</ele><time>2026-04-29T14:51:47.457Z</time></trkpt><trkpt lat="33.4744285" lon="9.0226386"><ele>64.0</ele><time>2026-04-29T14:51:48.524Z</time></trkpt><trkpt lat="33.4745521" lon="9.0226262"><ele>64.0</ele><time>2026-04-29T14:51:49.461Z</time></trkpt><trkpt lat="33.4746719" lon="9.0226126"><ele>64.0</ele><time>2026-04-29T14:51:50.484Z</time></trkpt><trkpt lat="33.4747987" lon="9.0225894"><ele>63.75</ele><time>2026-04-29T14:51:51.462Z</time></trkpt><trkpt lat="33.4749205" lon="9.0225713"><ele>63.5</ele><time>2026-04-29T14:51:52.479Z</time></trkpt><trkpt lat="33.4750492" lon="9.0225485"><ele>63.25</ele><time>2026-04-29T14:51:53.475Z</time></trkpt><trkpt lat="33.4751768" lon="9.022529"><ele>63.0</ele><time>2026-04-29T14:51:54.51Z</time></trkpt><trkpt lat="33.4753055" lon="9.0225068"><ele>63.0</ele><time>2026-04-29T14:51:55.48Z</time></trkpt><trkpt lat="33.4754321" lon="9.0224869"><ele>63.0</ele><time>2026-04-29T14:51:56.477Z</time></trkpt><trkpt lat="33.4756948" lon="9.0224415"><ele>63.0</ele><time>2026-04-29T14:51:58.478Z</time></trkpt><trkpt lat="33.4758164" lon="9.0224224"><ele>63.0</ele><time>2026-04-29T14:51:59.471Z</time></trkpt><trkpt lat="33.4759323" lon="9.0224081"><ele>63.0</ele><time>2026-04-29T14:52:00.473Z</time></trkpt><trkpt lat="33.4760461" lon="9.0223908"><ele>63.0</ele><time>2026-04-29T14:52:01.511Z</time></trkpt><trkpt lat="33.4761458" lon="9.0223826"><ele>63.0</ele><time>2026-04-29T14:52:02.46Z</time></trkpt><trkpt lat="33.4762401" lon="9.0223741"><ele>63.0</ele><time>2026-04-29T14:52:03.501Z</time></trkpt><trkpt lat="33.4763233" lon="9.0223648"><ele>64.0</ele><time>2026-04-29T14:52:04.494Z</time></trkpt><trkpt lat="33.4764097" lon="9.0223573"><ele>65.0</ele><time>2026-04-29T14:52:05.504Z</time></trkpt><trkpt lat="33.4765018" lon="9.0223454"><ele>66.0</ele><time>2026-04-29T14:52:06.493Z</time></trkpt><trkpt lat="33.4766091" lon="9.0223299"><ele>67.0</ele><time>2026-04-29T14:52:07.479Z</time></trkpt><trkpt lat="33.476737" lon="9.0223071"><ele>68.0</ele><time>2026-04-29T14:52:08.498Z</time></trkpt><trkpt lat="33.4768774" lon="9.0222867"><ele>68.0</ele><time>2026-04-29T14:52:09.499Z</time></trkpt><trkpt lat="33.477031" lon="9.0222742"><ele>68.0</ele><time>2026-04-29T14:52:10.512Z</time></trkpt><trkpt lat="33.4771976" lon="9.022263"><ele>68.0</ele><time>2026-04-29T14:52:11.502Z</time></trkpt><trkpt lat="33.4773668" lon="9.0222482"><ele>68.33333333333334</ele><time>2026-04-29T14:52:12.51Z</time></trkpt><trkpt lat="33.47755" lon="9.0222417"><ele>68.66666666666667</ele><time>2026-04-29T14:52:13.457Z</time></trkpt><trkpt lat="33.4777384" lon="9.0222441"><ele>69.0</ele><time>2026-04-29T14:52:14.456Z</time></trkpt><trkpt lat="33.4779286" lon="9.0222472"><ele>69.0</ele><time>2026-04-29T14:52:15.472Z</time></trkpt><trkpt lat="33.4781199" lon="9.0222532"><ele>69.0</ele><time>2026-04-29T14:52:16.505Z</time></trkpt><trkpt lat="33.4783088" lon="9.0222636"><ele>69.0</ele><time>2026-04-29T14:52:17.48Z</time></trkpt><trkpt lat="33.4784959" lon="9.0222729"><ele>69.0</ele><time>2026-04-29T14:52:18.46Z</time></trkpt><trkpt lat="33.478688" lon="9.0222867"><ele>69.0</ele><time>2026-04-29T14:52:19.491Z</time></trkpt><trkpt lat="33.4788796" lon="9.0222969"><ele>69.0</ele><time>2026-04-29T14:52:20.477Z</time></trkpt><trkpt lat="33.4790702" lon="9.022306"><ele>68.66666666666667</ele><time>2026-04-29T14:52:21.502Z</time></trkpt><trkpt lat="33.4792633" lon="9.0223128"><ele>68.33333333333334</ele><time>2026-04-29T14:52:22.475Z</time></trkpt><trkpt lat="33.4794526" lon="9.0223242"><ele>68.0</ele><time>2026-04-29T14:52:23.488Z</time></trkpt><trkpt lat="33.4796448" lon="9.0223368"><ele>67.33333333333334</ele><time>2026-04-29T14:52:24.497Z</time></trkpt><trkpt lat="33.4798389" lon="9.0223515"><ele>66.66666666666667</ele><time>2026-04-29T14:52:25.493Z</time></trkpt><trkpt lat="33.4800404" lon="9.0223619"><ele>66.0</ele><time>2026-04-29T14:52:26.498Z</time></trkpt><trkpt lat="33.4802462" lon="9.0223739"><ele>65.66666666666667</ele><time>2026-04-29T14:52:27.504Z</time></trkpt><trkpt lat="33.4804461" lon="9.0223903"><ele>65.33333333333334</ele><time>2026-04-29T14:52:28.466Z</time></trkpt><trkpt lat="33.4806421" lon="9.0224016"><ele>65.0</ele><time>2026-04-29T14:52:29.475Z</time></trkpt><trkpt lat="33.4808425" lon="9.0224154"><ele>65.0</ele><time>2026-04-29T14:52:30.498Z</time></trkpt><trkpt lat="33.4810365" lon="9.0224249"><ele>65.0</ele><time>2026-04-29T14:52:31.508Z</time></trkpt><trkpt lat="33.4812275" lon="9.0224371"><ele>65.0</ele><time>2026-04-29T14:52:32.494Z</time></trkpt><trkpt lat="33.4814235" lon="9.0224534"><ele>64.33333333333334</ele><time>2026-04-29T14:52:33.49Z</time></trkpt><trkpt lat="33.4816184" lon="9.0224671"><ele>63.66666666666667</ele><time>2026-04-29T14:52:34.484Z</time></trkpt><trkpt lat="33.4818168" lon="9.0224831"><ele>63.0</ele><time>2026-04-29T14:52:35.464Z</time></trkpt><trkpt lat="33.4820199" lon="9.0224973"><ele>62.66666666666667</ele><time>2026-04-29T14:52:36.493Z</time></trkpt><trkpt lat="33.4822154" lon="9.0225086"><ele>62.333333333333336</ele><time>2026-04-29T14:52:37.477Z</time></trkpt><trkpt lat="33.4824081" lon="9.0225188"><ele>62.0</ele><time>2026-04-29T14:52:38.471Z</time></trkpt><trkpt lat="33.4826026" lon="9.0225283"><ele>62.0</ele><time>2026-04-29T14:52:39.484Z</time></trkpt><trkpt lat="33.4828006" lon="9.0225423"><ele>62.0</ele><time>2026-04-29T14:52:40.451Z</time></trkpt><trkpt lat="33.4829981" lon="9.0225589"><ele>62.0</ele><time>2026-04-29T14:52:41.479Z</time></trkpt><trkpt lat="33.4831929" lon="9.0225697"><ele>61.66666666666667</ele><time>2026-04-29T14:52:42.467Z</time></trkpt><trkpt lat="33.4833873" lon="9.0225829"><ele>61.33333333333333</ele><time>2026-04-29T14:52:43.501Z</time></trkpt><trkpt lat="33.4835814" lon="9.0225985"><ele>61.0</ele><time>2026-04-29T14:52:44.472Z</time></trkpt><trkpt lat="33.483778" lon="9.0226102"><ele>61.666666666666664</ele><time>2026-04-29T14:52:45.497Z</time></trkpt><trkpt lat="33.4839725" lon="9.0226191"><ele>62.33333333333333</ele><time>2026-04-29T14:52:46.493Z</time></trkpt><trkpt lat="33.4841676" lon="9.0226324"><ele>63.0</ele><time>2026-04-29T14:52:47.48Z</time></trkpt><trkpt lat="33.4843615" lon="9.0226431"><ele>63.0</ele><time>2026-04-29T14:52:48.496Z</time></trkpt><trkpt lat="33.4845568" lon="9.0226604"><ele>63.0</ele><time>2026-04-29T14:52:49.476Z</time></trkpt><trkpt lat="33.4847528" lon="9.0226796"><ele>63.0</ele><time>2026-04-29T14:52:50.471Z</time></trkpt><trkpt lat="33.4849482" lon="9.022693"><ele>62.66666666666667</ele><time>2026-04-29T14:52:51.485Z</time></trkpt><trkpt lat="33.4851405" lon="9.0227096"><ele>62.333333333333336</ele><time>2026-04-29T14:52:52.49Z</time></trkpt><trkpt lat="33.4853376" lon="9.0227177"><ele>62.0</ele><time>2026-04-29T14:52:53.488Z</time></trkpt><trkpt lat="33.4855322" lon="9.0227339"><ele>61.333333333333336</ele><time>2026-04-29T14:52:54.462Z</time></trkpt><trkpt lat="33.4857234" lon="9.0227462"><ele>60.66666666666667</ele><time>2026-04-29T14:52:55.512Z</time></trkpt><trkpt lat="33.4859159" lon="9.022762"><ele>60.0</ele><time>2026-04-29T14:52:56.48Z</time></trkpt><trkpt lat="33.4861113" lon="9.022779"><ele>60.0</ele><time>2026-04-29T14:52:57.461Z</time></trkpt><trkpt lat="33.4863049" lon="9.0227996"><ele>60.0</ele><time>2026-04-29T14:52:58.501Z</time></trkpt><trkpt lat="33.4865" lon="9.022821"><ele>60.0</ele><time>2026-04-29T14:52:59.466Z</time></trkpt><trkpt lat="33.4866929" lon="9.0228475"><ele>60.0</ele><time>2026-04-29T14:53:00.459Z</time></trkpt><trkpt lat="33.4868858" lon="9.0228789"><ele>60.0</ele><time>2026-04-29T14:53:01.499Z</time></trkpt><trkpt lat="33.4870616" lon="9.0229191"><ele>60.0</ele><time>2026-04-29T14:53:02.574Z</time></trkpt><trkpt lat="33.4872282" lon="9.0229608"><ele>59.66666666666667</ele><time>2026-04-29T14:53:03.55Z</time></trkpt><trkpt lat="33.4873859" lon="9.0230091"><ele>59.333333333333336</ele><time>2026-04-29T14:53:04.561Z</time></trkpt><trkpt lat="33.487534" lon="9.0230662"><ele>59.0</ele><time>2026-04-29T14:53:05.585Z</time></trkpt><trkpt lat="33.487672" lon="9.0231271"><ele>59.0</ele><time>2026-04-29T14:53:06.534Z</time></trkpt><trkpt lat="33.4877993" lon="9.0231879"><ele>59.0</ele><time>2026-04-29T14:53:07.572Z</time></trkpt><trkpt lat="33.4879266" lon="9.0232378"><ele>59.0</ele><time>2026-04-29T14:53:08.554Z</time></trkpt><trkpt lat="33.488038" lon="9.023283"><ele>59.0</ele><time>2026-04-29T14:53:09.57Z</time></trkpt><trkpt lat="33.4881313" lon="9.0233263"><ele>59.333333333333336</ele><time>2026-04-29T14:53:10.573Z</time></trkpt><trkpt lat="33.4882084" lon="9.0233597"><ele>59.66666666666667</ele><time>2026-04-29T14:53:11.512Z</time></trkpt><trkpt lat="33.4882772" lon="9.0233934"><ele>60.0</ele><time>2026-04-29T14:53:12.54Z</time></trkpt><trkpt lat="33.4883441" lon="9.0234227"><ele>60.33333333333333</ele><time>2026-04-29T14:53:13.573Z</time></trkpt><trkpt lat="33.4884272" lon="9.0234491"><ele>60.666666666666664</ele><time>2026-04-29T14:53:14.565Z</time></trkpt><trkpt lat="33.4885181" lon="9.023487"><ele>61.0</ele><time>2026-04-29T14:53:15.562Z</time></trkpt><trkpt lat="33.4886237" lon="9.023527"><ele>61.0</ele><time>2026-04-29T14:53:16.535Z</time></trkpt><trkpt lat="33.488743" lon="9.0235814"><ele>61.0</ele><time>2026-04-29T14:53:17.517Z</time></trkpt><trkpt lat="33.4888673" lon="9.0236385"><ele>61.0</ele><time>2026-04-29T14:53:18.574Z</time></trkpt><trkpt lat="33.4889972" lon="9.023697"><ele>61.0</ele><time>2026-04-29T14:53:19.572Z</time></trkpt><trkpt lat="33.489138" lon="9.0237559"><ele>60.33333333333333</ele><time>2026-04-29T14:53:20.582Z</time></trkpt><trkpt lat="33.4892944" lon="9.0238164"><ele>59.66666666666667</ele><time>2026-04-29T14:53:21.522Z</time></trkpt><trkpt lat="33.4894544" lon="9.0238727"><ele>59.0</ele><time>2026-04-29T14:53:22.543Z</time></trkpt><trkpt lat="33.4896231" lon="9.0239361"><ele>58.0</ele><time>2026-04-29T14:53:23.564Z</time></trkpt><trkpt lat="33.4897914" lon="9.0239986"><ele>57.0</ele><time>2026-04-29T14:53:24.524Z</time></trkpt><trkpt lat="33.4899621" lon="9.0240681"><ele>56.0</ele><time>2026-04-29T14:53:25.549Z</time></trkpt><trkpt lat="33.4901346" lon="9.0241419"><ele>56.66666666666667</ele><time>2026-04-29T14:53:26.542Z</time></trkpt><trkpt lat="33.4903064" lon="9.0242218"><ele>57.33333333333333</ele><time>2026-04-29T14:53:27.549Z</time></trkpt><trkpt lat="33.4904783" lon="9.0243094"><ele>58.0</ele><time>2026-04-29T14:53:28.553Z</time></trkpt><trkpt lat="33.4906545" lon="9.0243945"><ele>58.0</ele><time>2026-04-29T14:53:29.528Z</time></trkpt><trkpt lat="33.4908292" lon="9.0244807"><ele>58.0</ele><time>2026-04-29T14:53:30.541Z</time></trkpt><trkpt lat="33.4910079" lon="9.0245686"><ele>58.0</ele><time>2026-04-29T14:53:31.545Z</time></trkpt><trkpt lat="33.4911865" lon="9.0246548"><ele>58.33333333333333</ele><time>2026-04-29T14:53:32.562Z</time></trkpt><trkpt lat="33.4913669" lon="9.0247404"><ele>58.66666666666667</ele><time>2026-04-29T14:53:33.561Z</time></trkpt><trkpt lat="33.4915393" lon="9.0248258"><ele>59.0</ele><time>2026-04-29T14:53:34.528Z</time></trkpt><trkpt lat="33.4917181" lon="9.0249081"><ele>59.66666666666667</ele><time>2026-04-29T14:53:35.55Z</time></trkpt><trkpt lat="33.4918971" lon="9.0249955"><ele>60.33333333333333</ele><time>2026-04-29T14:53:36.57Z</time></trkpt><trkpt lat="33.4920741" lon="9.0250782"><ele>61.0</ele><time>2026-04-29T14:53:37.556Z</time></trkpt><trkpt lat="33.4922495" lon="9.0251687"><ele>61.0</ele><time>2026-04-29T14:53:38.513Z</time></trkpt><trkpt lat="33.4924276" lon="9.0252529"><ele>61.0</ele><time>2026-04-29T14:53:39.516Z</time></trkpt><trkpt lat="33.4926082" lon="9.0253301"><ele>61.0</ele><time>2026-04-29T14:53:40.525Z</time></trkpt><trkpt lat="33.4927891" lon="9.025417"><ele>61.0</ele><time>2026-04-29T14:53:41.51Z</time></trkpt><trkpt lat="33.4929654" lon="9.0254988"><ele>61.0</ele><time>2026-04-29T14:53:42.511Z</time></trkpt><trkpt lat="33.4931409" lon="9.0255861"><ele>61.0</ele><time>2026-04-29T14:53:43.507Z</time></trkpt><trkpt lat="33.4933118" lon="9.0256698"><ele>61.0</ele><time>2026-04-29T14:53:44.507Z</time></trkpt><trkpt lat="33.4934839" lon="9.0257532"><ele>61.0</ele><time>2026-04-29T14:53:45.499Z</time></trkpt><trkpt lat="33.4936444" lon="9.0258279"><ele>61.0</ele><time>2026-04-29T14:53:46.508Z</time></trkpt><trkpt lat="33.4938095" lon="9.0259026"><ele>61.666666666666664</ele><time>2026-04-29T14:53:47.507Z</time></trkpt><trkpt lat="33.4939668" lon="9.0259808"><ele>62.33333333333333</ele><time>2026-04-29T14:53:48.502Z</time></trkpt><trkpt lat="33.4941279" lon="9.0260598"><ele>63.0</ele><time>2026-04-29T14:53:49.52Z</time></trkpt><trkpt lat="33.4942849" lon="9.0261428"><ele>63.0</ele><time>2026-04-29T14:53:50.526Z</time></trkpt><trkpt lat="33.4944402" lon="9.0262163"><ele>63.0</ele><time>2026-04-29T14:53:51.502Z</time></trkpt><trkpt lat="33.4945957" lon="9.0262931"><ele>63.0</ele><time>2026-04-29T14:53:52.495Z</time></trkpt><trkpt lat="33.4947465" lon="9.0263683"><ele>62.66666666666667</ele><time>2026-04-29T14:53:53.504Z</time></trkpt><trkpt lat="33.4949042" lon="9.0264401"><ele>62.333333333333336</ele><time>2026-04-29T14:53:54.511Z</time></trkpt><trkpt lat="33.49506" lon="9.0265158"><ele>62.0</ele><time>2026-04-29T14:53:55.5Z</time></trkpt><trkpt lat="33.4952123" lon="9.0265891"><ele>61.66666666666667</ele><time>2026-04-29T14:53:56.498Z</time></trkpt><trkpt lat="33.4953705" lon="9.026665"><ele>61.33333333333333</ele><time>2026-04-29T14:53:57.51Z</time></trkpt><trkpt lat="33.4955211" lon="9.0267366"><ele>61.0</ele><time>2026-04-29T14:53:58.502Z</time></trkpt><trkpt lat="33.4956722" lon="9.0268097"><ele>60.666666666666664</ele><time>2026-04-29T14:53:59.502Z</time></trkpt><trkpt lat="33.4958205" lon="9.0268843"><ele>60.33333333333333</ele><time>2026-04-29T14:54:00.508Z</time></trkpt><trkpt lat="33.4959712" lon="9.0269578"><ele>60.0</ele><time>2026-04-29T14:54:01.509Z</time></trkpt><trkpt lat="33.4961225" lon="9.0270324"><ele>59.33333333333333</ele><time>2026-04-29T14:54:02.501Z</time></trkpt><trkpt lat="33.4962713" lon="9.027107"><ele>58.666666666666664</ele><time>2026-04-29T14:54:03.514Z</time></trkpt><trkpt lat="33.4964261" lon="9.0271763"><ele>58.0</ele><time>2026-04-29T14:54:04.507Z</time></trkpt><trkpt lat="33.49658" lon="9.027249"><ele>58.0</ele><time>2026-04-29T14:54:05.498Z</time></trkpt><trkpt lat="33.4967366" lon="9.0273207"><ele>58.0</ele><time>2026-04-29T14:54:06.504Z</time></trkpt><trkpt lat="33.4968991" lon="9.0273971"><ele>58.0</ele><time>2026-04-29T14:54:07.518Z</time></trkpt><trkpt lat="33.4970588" lon="9.0274718"><ele>58.666666666666664</ele><time>2026-04-29T14:54:08.505Z</time></trkpt><trkpt lat="33.4972252" lon="9.0275482"><ele>59.33333333333333</ele><time>2026-04-29T14:54:09.503Z</time></trkpt><trkpt lat="33.4973854" lon="9.0276232"><ele>60.0</ele><time>2026-04-29T14:54:10.507Z</time></trkpt><trkpt lat="33.4975473" lon="9.0277025"><ele>60.0</ele><time>2026-04-29T14:54:11.499Z</time></trkpt><trkpt lat="33.4977135" lon="9.0277847"><ele>60.0</ele><time>2026-04-29T14:54:12.509Z</time></trkpt><trkpt lat="33.4978782" lon="9.0278633"><ele>60.0</ele><time>2026-04-29T14:54:13.504Z</time></trkpt><trkpt lat="33.4980467" lon="9.027936"><ele>61.0</ele><time>2026-04-29T14:54:14.509Z</time></trkpt><trkpt lat="33.4982163" lon="9.0280072"><ele>62.0</ele><time>2026-04-29T14:54:15.506Z</time></trkpt><trkpt lat="33.4983889" lon="9.0280715"><ele>63.0</ele><time>2026-04-29T14:54:16.51Z</time></trkpt><trkpt lat="33.4985662" lon="9.0281349"><ele>63.0</ele><time>2026-04-29T14:54:17.508Z</time></trkpt><trkpt lat="33.4987434" lon="9.0281966"><ele>63.0</ele><time>2026-04-29T14:54:18.491Z</time></trkpt><trkpt lat="33.4989203" lon="9.0282518"><ele>63.0</ele><time>2026-04-29T14:54:19.505Z</time></trkpt><trkpt lat="33.4990953" lon="9.0283055"><ele>63.66666666666667</ele><time>2026-04-29T14:54:20.509Z</time></trkpt><trkpt lat="33.4992811" lon="9.0283561"><ele>64.33333333333334</ele><time>2026-04-29T14:54:21.506Z</time></trkpt><trkpt lat="33.4994643" lon="9.0283978"><ele>65.0</ele><time>2026-04-29T14:54:22.508Z</time></trkpt><trkpt lat="33.4996569" lon="9.0284384"><ele>63.0</ele><time>2026-04-29T14:54:23.51Z</time></trkpt><trkpt lat="33.4998475" lon="9.0284709"><ele>61.0</ele><time>2026-04-29T14:54:24.518Z</time></trkpt><trkpt lat="33.50004" lon="9.0285024"><ele>59.0</ele><time>2026-04-29T14:54:25.516Z</time></trkpt><trkpt lat="33.5002335" lon="9.0285267"><ele>58.0</ele><time>2026-04-29T14:54:26.513Z</time></trkpt><trkpt lat="33.5004244" lon="9.02855"><ele>57.0</ele><time>2026-04-29T14:54:27.546Z</time></trkpt><trkpt lat="33.5006183" lon="9.0285647"><ele>56.0</ele><time>2026-04-29T14:54:28.527Z</time></trkpt><trkpt lat="33.5008067" lon="9.0285702"><ele>56.0</ele><time>2026-04-29T14:54:29.508Z</time></trkpt><trkpt lat="33.5010001" lon="9.0285747"><ele>56.0</ele><time>2026-04-29T14:54:30.494Z</time></trkpt><trkpt lat="33.5011952" lon="9.0285705"><ele>56.0</ele><time>2026-04-29T14:54:31.505Z</time></trkpt><trkpt lat="33.5013909" lon="9.0285664"><ele>55.66666666666667</ele><time>2026-04-29T14:54:32.5Z</time></trkpt><trkpt lat="33.5015925" lon="9.0285587"><ele>55.33333333333333</ele><time>2026-04-29T14:54:33.497Z</time></trkpt><trkpt lat="33.5017919" lon="9.0285408"><ele>55.0</ele><time>2026-04-29T14:54:34.49Z</time></trkpt><trkpt lat="33.502" lon="9.0285206"><ele>55.33333333333333</ele><time>2026-04-29T14:54:35.519Z</time></trkpt><trkpt lat="33.5022047" lon="9.028495"><ele>55.66666666666667</ele><time>2026-04-29T14:54:36.51Z</time></trkpt><trkpt lat="33.5024094" lon="9.0284683"><ele>56.0</ele><time>2026-04-29T14:54:37.538Z</time></trkpt><trkpt lat="33.502622" lon="9.0284225"><ele>56.0</ele><time>2026-04-29T14:54:38.505Z</time></trkpt><trkpt lat="33.5028291" lon="9.0283775"><ele>56.0</ele><time>2026-04-29T14:54:39.502Z</time></trkpt><trkpt lat="33.5030404" lon="9.0283215"><ele>56.0</ele><time>2026-04-29T14:54:40.509Z</time></trkpt><trkpt lat="33.5032498" lon="9.0282585"><ele>56.0</ele><time>2026-04-29T14:54:41.502Z</time></trkpt><trkpt lat="33.5034596" lon="9.028199"><ele>56.0</ele><time>2026-04-29T14:54:42.506Z</time></trkpt><trkpt lat="33.5036634" lon="9.0281295"><ele>56.0</ele><time>2026-04-29T14:54:43.498Z</time></trkpt><trkpt lat="33.5038658" lon="9.028052"><ele>56.0</ele><time>2026-04-29T14:54:44.504Z</time></trkpt><trkpt lat="33.5040634" lon="9.027969"><ele>56.0</ele><time>2026-04-29T14:54:45.51Z</time></trkpt><trkpt lat="33.5042593" lon="9.0278799"><ele>56.0</ele><time>2026-04-29T14:54:46.515Z</time></trkpt><trkpt lat="33.5044554" lon="9.0277907"><ele>54.333333333333336</ele><time>2026-04-29T14:54:47.514Z</time></trkpt><trkpt lat="33.5046508" lon="9.0276917"><ele>52.66666666666667</ele><time>2026-04-29T14:54:48.502Z</time></trkpt><trkpt lat="33.5048456" lon="9.0275942"><ele>51.0</ele><time>2026-04-29T14:54:49.51Z</time></trkpt><trkpt lat="33.5050408" lon="9.027498"><ele>51.33333333333333</ele><time>2026-04-29T14:54:50.508Z</time></trkpt><trkpt lat="33.5052317" lon="9.0273988"><ele>51.666666666666664</ele><time>2026-04-29T14:54:51.52Z</time></trkpt><trkpt lat="33.5054258" lon="9.0272996"><ele>52.0</ele><time>2026-04-29T14:54:52.532Z</time></trkpt><trkpt lat="33.5056201" lon="9.0271992"><ele>53.0</ele><time>2026-04-29T14:54:53.492Z</time></trkpt><trkpt lat="33.5058163" lon="9.0270979"><ele>54.0</ele><time>2026-04-29T14:54:54.504Z</time></trkpt><trkpt lat="33.5060108" lon="9.0269998"><ele>55.0</ele><time>2026-04-29T14:54:55.514Z</time></trkpt><trkpt lat="33.5062175" lon="9.026892"><ele>53.0</ele><time>2026-04-29T14:54:56.508Z</time></trkpt><trkpt lat="33.5064358" lon="9.0267751"><ele>51.0</ele><time>2026-04-29T14:54:57.507Z</time></trkpt><trkpt lat="33.5066718" lon="9.0266536"><ele>50.5</ele><time>2026-04-29T14:54:58.509Z</time></trkpt><trkpt lat="33.5069069" lon="9.0265341"><ele>50.0</ele><time>2026-04-29T14:54:59.509Z</time></trkpt><trkpt lat="33.5071274" lon="9.0264222"><ele>50.0</ele><time>2026-04-29T14:55:00.5Z</time></trkpt><trkpt lat="33.5073406" lon="9.0263155"><ele>50.0</ele><time>2026-04-29T14:55:01.503Z</time></trkpt><trkpt lat="33.5075294" lon="9.0262087"><ele>50.0</ele><time>2026-04-29T14:55:02.504Z</time></trkpt><trkpt lat="33.5077109" lon="9.0261197"><ele>50.0</ele><time>2026-04-29T14:55:03.513Z</time></trkpt><trkpt lat="33.5078792" lon="9.0260373"><ele>50.0</ele><time>2026-04-29T14:55:04.518Z</time></trkpt><trkpt lat="33.5080355" lon="9.0259555"><ele>50.0</ele><time>2026-04-29T14:55:05.515Z</time></trkpt><trkpt lat="33.5081991" lon="9.0258707"><ele>50.66666666666667</ele><time>2026-04-29T14:55:06.513Z</time></trkpt><trkpt lat="33.5083867" lon="9.0257711"><ele>51.33333333333333</ele><time>2026-04-29T14:55:07.513Z</time></trkpt><trkpt lat="33.5086048" lon="9.0256559"><ele>52.0</ele><time>2026-04-29T14:55:08.52Z</time></trkpt><trkpt lat="33.5088239" lon="9.0255523"><ele>52.33333333333333</ele><time>2026-04-29T14:55:09.458Z</time></trkpt><trkpt lat="33.5090375" lon="9.0254649"><ele>52.66666666666667</ele><time>2026-04-29T14:55:10.479Z</time></trkpt><trkpt lat="33.5092429" lon="9.0253908"><ele>53.0</ele><time>2026-04-29T14:55:11.453Z</time></trkpt><trkpt lat="33.5094311" lon="9.0253298"><ele>53.0</ele><time>2026-04-29T14:55:12.455Z</time></trkpt><trkpt lat="33.5096211" lon="9.0252665"><ele>53.0</ele><time>2026-04-29T14:55:13.448Z</time></trkpt><trkpt lat="33.5098141" lon="9.0251982"><ele>53.0</ele><time>2026-04-29T14:55:14.449Z</time></trkpt><trkpt lat="33.5100458" lon="9.0251374"><ele>53.0</ele><time>2026-04-29T14:55:15.451Z</time></trkpt><trkpt lat="33.5102794" lon="9.0250706"><ele>53.0</ele><time>2026-04-29T14:55:16.459Z</time></trkpt><trkpt lat="33.5104791" lon="9.0249994"><ele>53.0</ele><time>2026-04-29T14:55:17.452Z</time></trkpt><trkpt lat="33.510648" lon="9.0249467"><ele>52.66666666666667</ele><time>2026-04-29T14:55:18.44Z</time></trkpt><trkpt lat="33.5108413" lon="9.0248905"><ele>52.33333333333333</ele><time>2026-04-29T14:55:19.461Z</time></trkpt><trkpt lat="33.5110598" lon="9.0248177"><ele>52.0</ele><time>2026-04-29T14:55:20.458Z</time></trkpt><trkpt lat="33.5113038" lon="9.0247436"><ele>51.666666666666664</ele><time>2026-04-29T14:55:21.449Z</time></trkpt><trkpt lat="33.5115343" lon="9.0246783"><ele>51.33333333333333</ele><time>2026-04-29T14:55:22.448Z</time></trkpt><trkpt lat="33.5117371" lon="9.0246248"><ele>51.0</ele><time>2026-04-29T14:55:23.453Z</time></trkpt><trkpt lat="33.5119226" lon="9.0245731"><ele>50.33333333333333</ele><time>2026-04-29T14:55:24.458Z</time></trkpt><trkpt lat="33.5121205" lon="9.0245174"><ele>49.666666666666664</ele><time>2026-04-29T14:55:25.454Z</time></trkpt><trkpt lat="33.5123227" lon="9.0244605"><ele>49.0</ele><time>2026-04-29T14:55:26.453Z</time></trkpt><trkpt lat="33.5125216" lon="9.0244013"><ele>49.0</ele><time>2026-04-29T14:55:27.454Z</time></trkpt><trkpt lat="33.5127191" lon="9.0243386"><ele>49.0</ele><time>2026-04-29T14:55:28.455Z</time></trkpt><trkpt lat="33.5129221" lon="9.024278"><ele>49.0</ele><time>2026-04-29T14:55:29.444Z</time></trkpt><trkpt lat="33.5131237" lon="9.0242146"><ele>49.666666666666664</ele><time>2026-04-29T14:55:30.454Z</time></trkpt><trkpt lat="33.5133191" lon="9.024157"><ele>50.33333333333333</ele><time>2026-04-29T14:55:31.446Z</time></trkpt><trkpt lat="33.5135196" lon="9.0241041"><ele>51.0</ele><time>2026-04-29T14:55:32.449Z</time></trkpt><trkpt lat="33.5137109" lon="9.0240507"><ele>50.0</ele><time>2026-04-29T14:55:33.454Z</time></trkpt><trkpt lat="33.5138962" lon="9.0239962"><ele>49.0</ele><time>2026-04-29T14:55:34.496Z</time></trkpt><trkpt lat="33.5140787" lon="9.0239438"><ele>48.0</ele><time>2026-04-29T14:55:35.451Z</time></trkpt><trkpt lat="33.5142645" lon="9.0238883"><ele>48.0</ele><time>2026-04-29T14:55:36.453Z</time></trkpt><trkpt lat="33.5144536" lon="9.0238316"><ele>48.0</ele><time>2026-04-29T14:55:37.45Z</time></trkpt><trkpt lat="33.514646" lon="9.0237772"><ele>48.0</ele><time>2026-04-29T14:55:38.45Z</time></trkpt><trkpt lat="33.5148412" lon="9.0237198"><ele>48.66666666666667</ele><time>2026-04-29T14:55:39.451Z</time></trkpt><trkpt lat="33.5150332" lon="9.023663"><ele>49.333333333333336</ele><time>2026-04-29T14:55:40.466Z</time></trkpt><trkpt lat="33.5152284" lon="9.0236041"><ele>50.0</ele><time>2026-04-29T14:55:41.451Z</time></trkpt><trkpt lat="33.5154202" lon="9.0235431"><ele>50.0</ele><time>2026-04-29T14:55:42.468Z</time></trkpt><trkpt lat="33.515611" lon="9.0234849"><ele>50.0</ele><time>2026-04-29T14:55:43.455Z</time></trkpt><trkpt lat="33.5158093" lon="9.0234279"><ele>50.0</ele><time>2026-04-29T14:55:44.447Z</time></trkpt><trkpt lat="33.5159937" lon="9.0233742"><ele>50.0</ele><time>2026-04-29T14:55:45.447Z</time></trkpt><trkpt lat="33.5161827" lon="9.0233191"><ele>50.0</ele><time>2026-04-29T14:55:46.44Z</time></trkpt><trkpt lat="33.5163708" lon="9.0232611"><ele>50.0</ele><time>2026-04-29T14:55:47.44Z</time></trkpt><trkpt lat="33.5165601" lon="9.0232067"><ele>50.0</ele><time>2026-04-29T14:55:48.441Z</time></trkpt><trkpt lat="33.5167518" lon="9.0231488"><ele>50.0</ele><time>2026-04-29T14:55:49.461Z</time></trkpt><trkpt lat="33.5169415" lon="9.0230919"><ele>50.0</ele><time>2026-04-29T14:55:50.446Z</time></trkpt><trkpt lat="33.5171324" lon="9.0230348"><ele>49.66666666666667</ele><time>2026-04-29T14:55:51.447Z</time></trkpt><trkpt lat="33.5173221" lon="9.0229789"><ele>49.33333333333333</ele><time>2026-04-29T14:55:52.445Z</time></trkpt><trkpt lat="33.5175081" lon="9.022926"><ele>49.0</ele><time>2026-04-29T14:55:53.451Z</time></trkpt><trkpt lat="33.5176955" lon="9.0228711"><ele>49.0</ele><time>2026-04-29T14:55:54.458Z</time></trkpt><trkpt lat="33.5178836" lon="9.0228169"><ele>49.0</ele><time>2026-04-29T14:55:55.455Z</time></trkpt><trkpt lat="33.5180738" lon="9.0227623"><ele>49.0</ele><time>2026-04-29T14:55:56.452Z</time></trkpt><trkpt lat="33.5182617" lon="9.0227047"><ele>49.33333333333333</ele><time>2026-04-29T14:55:57.457Z</time></trkpt><trkpt lat="33.5184512" lon="9.0226474"><ele>49.66666666666667</ele><time>2026-04-29T14:55:58.479Z</time></trkpt><trkpt lat="33.5186442" lon="9.0225924"><ele>50.0</ele><time>2026-04-29T14:55:59.451Z</time></trkpt><trkpt lat="33.5188333" lon="9.0225371"><ele>50.0</ele><time>2026-04-29T14:56:00.449Z</time></trkpt><trkpt lat="33.5190184" lon="9.0224851"><ele>50.0</ele><time>2026-04-29T14:56:01.451Z</time></trkpt><trkpt lat="33.519206" lon="9.0224304"><ele>50.0</ele><time>2026-04-29T14:56:02.457Z</time></trkpt><trkpt lat="33.5193951" lon="9.0223734"><ele>49.66666666666667</ele><time>2026-04-29T14:56:03.456Z</time></trkpt><trkpt lat="33.5195862" lon="9.022316"><ele>49.33333333333333</ele><time>2026-04-29T14:56:04.451Z</time></trkpt><trkpt lat="33.519774" lon="9.0222556"><ele>49.0</ele><time>2026-04-29T14:56:05.444Z</time></trkpt><trkpt lat="33.519964" lon="9.0222006"><ele>49.0</ele><time>2026-04-29T14:56:06.45Z</time></trkpt><trkpt lat="33.5201533" lon="9.0221433"><ele>49.0</ele><time>2026-04-29T14:56:07.45Z</time></trkpt><trkpt lat="33.5203423" lon="9.0220852"><ele>49.0</ele><time>2026-04-29T14:56:08.46Z</time></trkpt><trkpt lat="33.5205341" lon="9.02203"><ele>49.666666666666664</ele><time>2026-04-29T14:56:09.446Z</time></trkpt><trkpt lat="33.5207244" lon="9.0219769"><ele>50.33333333333333</ele><time>2026-04-29T14:56:10.446Z</time></trkpt><trkpt lat="33.520912" lon="9.0219201"><ele>51.0</ele><time>2026-04-29T14:56:11.456Z</time></trkpt><trkpt lat="33.5210982" lon="9.0218656"><ele>50.33333333333333</ele><time>2026-04-29T14:56:12.452Z</time></trkpt><trkpt lat="33.5212884" lon="9.0218098"><ele>49.666666666666664</ele><time>2026-04-29T14:56:13.444Z</time></trkpt><trkpt lat="33.5214797" lon="9.0217523"><ele>49.0</ele><time>2026-04-29T14:56:14.455Z</time></trkpt><trkpt lat="33.5216659" lon="9.0216933"><ele>48.666666666666664</ele><time>2026-04-29T14:56:15.448Z</time></trkpt><trkpt lat="33.521857" lon="9.0216402"><ele>48.33333333333333</ele><time>2026-04-29T14:56:16.444Z</time></trkpt><trkpt lat="33.5220474" lon="9.0215862"><ele>48.0</ele><time>2026-04-29T14:56:17.459Z</time></trkpt><trkpt lat="33.5222327" lon="9.0215325"><ele>48.0</ele><time>2026-04-29T14:56:18.439Z</time></trkpt><trkpt lat="33.522423" lon="9.0214825"><ele>48.0</ele><time>2026-04-29T14:56:19.452Z</time></trkpt><trkpt lat="33.5226171" lon="9.0214301"><ele>48.0</ele><time>2026-04-29T14:56:20.448Z</time></trkpt><trkpt lat="33.5228055" lon="9.0213721"><ele>48.33333333333333</ele><time>2026-04-29T14:56:21.443Z</time></trkpt><trkpt lat="33.5229962" lon="9.0213136"><ele>48.666666666666664</ele><time>2026-04-29T14:56:22.452Z</time></trkpt><trkpt lat="33.5231852" lon="9.0212572"><ele>49.0</ele><time>2026-04-29T14:56:23.475Z</time></trkpt><trkpt lat="33.523376" lon="9.0212006"><ele>49.0</ele><time>2026-04-29T14:56:24.448Z</time></trkpt><trkpt lat="33.5235692" lon="9.0211455"><ele>49.0</ele><time>2026-04-29T14:56:25.444Z</time></trkpt><trkpt lat="33.5237583" lon="9.0210915"><ele>49.0</ele><time>2026-04-29T14:56:26.46Z</time></trkpt><trkpt lat="33.5239458" lon="9.0210417"><ele>49.666666666666664</ele><time>2026-04-29T14:56:27.455Z</time></trkpt><trkpt lat="33.5241362" lon="9.0209863"><ele>50.33333333333333</ele><time>2026-04-29T14:56:28.459Z</time></trkpt><trkpt lat="33.5243279" lon="9.0209304"><ele>51.0</ele><time>2026-04-29T14:56:29.449Z</time></trkpt><trkpt lat="33.5245171" lon="9.0208702"><ele>49.666666666666664</ele><time>2026-04-29T14:56:30.451Z</time></trkpt><trkpt lat="33.5247057" lon="9.0208132"><ele>48.33333333333333</ele><time>2026-04-29T14:56:31.456Z</time></trkpt><trkpt lat="33.5248936" lon="9.0207555"><ele>47.0</ele><time>2026-04-29T14:56:32.447Z</time></trkpt><trkpt lat="33.5250842" lon="9.0206965"><ele>47.0</ele><time>2026-04-29T14:56:33.451Z</time></trkpt><trkpt lat="33.525272" lon="9.0206382"><ele>47.0</ele><time>2026-04-29T14:56:34.453Z</time></trkpt><trkpt lat="33.5254614" lon="9.0205825"><ele>47.0</ele><time>2026-04-29T14:56:35.451Z</time></trkpt><trkpt lat="33.5256521" lon="9.0205251"><ele>47.33333333333333</ele><time>2026-04-29T14:56:36.46Z</time></trkpt><trkpt lat="33.5258396" lon="9.0204665"><ele>47.666666666666664</ele><time>2026-04-29T14:56:37.45Z</time></trkpt><trkpt lat="33.5260311" lon="9.0204143"><ele>48.0</ele><time>2026-04-29T14:56:38.451Z</time></trkpt><trkpt lat="33.5262214" lon="9.0203614"><ele>47.666666666666664</ele><time>2026-04-29T14:56:39.453Z</time></trkpt><trkpt lat="33.5264111" lon="9.0203076"><ele>47.33333333333333</ele><time>2026-04-29T14:56:40.448Z</time></trkpt><trkpt lat="33.5265998" lon="9.0202543"><ele>47.0</ele><time>2026-04-29T14:56:41.442Z</time></trkpt><trkpt lat="33.5267912" lon="9.0201982"><ele>47.0</ele><time>2026-04-29T14:56:42.445Z</time></trkpt><trkpt lat="33.5269782" lon="9.0201407"><ele>47.0</ele><time>2026-04-29T14:56:43.449Z</time></trkpt><trkpt lat="33.5271673" lon="9.0200817"><ele>47.0</ele><time>2026-04-29T14:56:44.443Z</time></trkpt><trkpt lat="33.5273554" lon="9.0200259"><ele>46.0</ele><time>2026-04-29T14:56:45.445Z</time></trkpt><trkpt lat="33.5275455" lon="9.0199702"><ele>45.0</ele><time>2026-04-29T14:56:46.437Z</time></trkpt><trkpt lat="33.5277367" lon="9.019916"><ele>44.0</ele><time>2026-04-29T14:56:47.455Z</time></trkpt><trkpt lat="33.5279312" lon="9.0198597"><ele>43.33333333333333</ele><time>2026-04-29T14:56:48.461Z</time></trkpt><trkpt lat="33.5281221" lon="9.0198082"><ele>42.666666666666664</ele><time>2026-04-29T14:56:49.455Z</time></trkpt><trkpt lat="33.5283141" lon="9.0197542"><ele>42.0</ele><time>2026-04-29T14:56:50.467Z</time></trkpt><trkpt lat="33.5285028" lon="9.0197004"><ele>42.0</ele><time>2026-04-29T14:56:51.448Z</time></trkpt><trkpt lat="33.5286921" lon="9.0196405"><ele>42.0</ele><time>2026-04-29T14:56:52.44Z</time></trkpt><trkpt lat="33.5288807" lon="9.0195816"><ele>42.0</ele><time>2026-04-29T14:56:53.453Z</time></trkpt><trkpt lat="33.5290699" lon="9.0195249"><ele>42.333333333333336</ele><time>2026-04-29T14:56:54.447Z</time></trkpt><trkpt lat="33.5292576" lon="9.0194693"><ele>42.66666666666667</ele><time>2026-04-29T14:56:55.454Z</time></trkpt><trkpt lat="33.5294434" lon="9.0194155"><ele>43.0</ele><time>2026-04-29T14:56:56.449Z</time></trkpt><trkpt lat="33.5296334" lon="9.0193632"><ele>43.0</ele><time>2026-04-29T14:56:57.452Z</time></trkpt><trkpt lat="33.5298255" lon="9.0193066"><ele>43.0</ele><time>2026-04-29T14:56:58.45Z</time></trkpt><trkpt lat="33.5300185" lon="9.019249"><ele>43.0</ele><time>2026-04-29T14:56:59.445Z</time></trkpt><trkpt lat="33.530211" lon="9.0191915"><ele>42.333333333333336</ele><time>2026-04-29T14:57:00.457Z</time></trkpt><trkpt lat="33.5304011" lon="9.019138"><ele>41.666666666666664</ele><time>2026-04-29T14:57:01.45Z</time></trkpt><trkpt lat="33.5305898" lon="9.0190815"><ele>41.0</ele><time>2026-04-29T14:57:02.441Z</time></trkpt><trkpt lat="33.5307762" lon="9.0190252"><ele>41.0</ele><time>2026-04-29T14:57:03.446Z</time></trkpt><trkpt lat="33.5309645" lon="9.0189718"><ele>41.0</ele><time>2026-04-29T14:57:04.454Z</time></trkpt><trkpt lat="33.5311498" lon="9.0189157"><ele>41.0</ele><time>2026-04-29T14:57:05.45Z</time></trkpt><trkpt lat="33.5313358" lon="9.0188573"><ele>42.666666666666664</ele><time>2026-04-29T14:57:06.45Z</time></trkpt><trkpt lat="33.5315256" lon="9.0188024"><ele>44.333333333333336</ele><time>2026-04-29T14:57:07.46Z</time></trkpt><trkpt lat="33.5317135" lon="9.0187448"><ele>46.0</ele><time>2026-04-29T14:57:08.448Z</time></trkpt><trkpt lat="33.5319024" lon="9.0186912"><ele>45.66666666666667</ele><time>2026-04-29T14:57:09.454Z</time></trkpt><trkpt lat="33.5320918" lon="9.0186392"><ele>45.333333333333336</ele><time>2026-04-29T14:57:10.453Z</time></trkpt><trkpt lat="33.5322806" lon="9.0185839"><ele>45.0</ele><time>2026-04-29T14:57:11.45Z</time></trkpt><trkpt lat="33.5324681" lon="9.0185283"><ele>45.0</ele><time>2026-04-29T14:57:12.442Z</time></trkpt><trkpt lat="33.5326562" lon="9.0184723"><ele>45.0</ele><time>2026-04-29T14:57:13.456Z</time></trkpt><trkpt lat="33.5328474" lon="9.0184175"><ele>45.0</ele><time>2026-04-29T14:57:14.441Z</time></trkpt><trkpt lat="33.5330337" lon="9.0183584"><ele>45.666666666666664</ele><time>2026-04-29T14:57:15.455Z</time></trkpt><trkpt lat="33.5332228" lon="9.0183046"><ele>46.33333333333333</ele><time>2026-04-29T14:57:16.449Z</time></trkpt><trkpt lat="33.533409" lon="9.0182487"><ele>47.0</ele><time>2026-04-29T14:57:17.444Z</time></trkpt><trkpt lat="33.533599" lon="9.0181902"><ele>46.33333333333333</ele><time>2026-04-29T14:57:18.446Z</time></trkpt><trkpt lat="33.5337911" lon="9.0181339"><ele>45.666666666666664</ele><time>2026-04-29T14:57:19.48Z</time></trkpt><trkpt lat="33.533982" lon="9.0180755"><ele>45.0</ele><time>2026-04-29T14:57:20.455Z</time></trkpt><trkpt lat="33.5341723" lon="9.0180219"><ele>45.0</ele><time>2026-04-29T14:57:21.471Z</time></trkpt><trkpt lat="33.53436" lon="9.0179713"><ele>45.0</ele><time>2026-04-29T14:57:22.441Z</time></trkpt><trkpt lat="33.5345504" lon="9.017911"><ele>45.0</ele><time>2026-04-29T14:57:23.447Z</time></trkpt><trkpt lat="33.5347387" lon="9.0178561"><ele>44.666666666666664</ele><time>2026-04-29T14:57:24.454Z</time></trkpt><trkpt lat="33.5349316" lon="9.0178032"><ele>44.33333333333333</ele><time>2026-04-29T14:57:25.451Z</time></trkpt><trkpt lat="33.5351181" lon="9.0177454"><ele>44.0</ele><time>2026-04-29T14:57:26.443Z</time></trkpt><trkpt lat="33.5353061" lon="9.0176876"><ele>44.33333333333333</ele><time>2026-04-29T14:57:27.448Z</time></trkpt><trkpt lat="33.5355049" lon="9.0176246"><ele>44.666666666666664</ele><time>2026-04-29T14:57:28.445Z</time></trkpt><trkpt lat="33.5357137" lon="9.0175635"><ele>45.0</ele><time>2026-04-29T14:57:29.446Z</time></trkpt><trkpt lat="33.5359282" lon="9.0175024"><ele>45.0</ele><time>2026-04-29T14:57:30.458Z</time></trkpt><trkpt lat="33.5361477" lon="9.0174371"><ele>45.0</ele><time>2026-04-29T14:57:31.45Z</time></trkpt><trkpt lat="33.5363613" lon="9.0173713"><ele>45.0</ele><time>2026-04-29T14:57:32.443Z</time></trkpt><trkpt lat="33.5365786" lon="9.0173104"><ele>45.333333333333336</ele><time>2026-04-29T14:57:33.445Z</time></trkpt><trkpt lat="33.5367989" lon="9.017252"><ele>45.66666666666667</ele><time>2026-04-29T14:57:34.461Z</time></trkpt><trkpt lat="33.5370192" lon="9.0172068"><ele>46.0</ele><time>2026-04-29T14:57:35.459Z</time></trkpt><trkpt lat="33.5372377" lon="9.0171669"><ele>46.333333333333336</ele><time>2026-04-29T14:57:36.458Z</time></trkpt><trkpt lat="33.5374532" lon="9.0171355"><ele>46.666666666666664</ele><time>2026-04-29T14:57:37.437Z</time></trkpt><trkpt lat="33.5376719" lon="9.0171077"><ele>47.0</ele><time>2026-04-29T14:57:38.44Z</time></trkpt><trkpt lat="33.5378901" lon="9.0170869"><ele>48.0</ele><time>2026-04-29T14:57:39.452Z</time></trkpt><trkpt lat="33.5381144" lon="9.0170747"><ele>49.0</ele><time>2026-04-29T14:57:40.451Z</time></trkpt><trkpt lat="33.5383375" lon="9.0170609"><ele>50.0</ele><time>2026-04-29T14:57:41.452Z</time></trkpt><trkpt lat="33.5385601" lon="9.0170413"><ele>50.5</ele><time>2026-04-29T14:57:42.443Z</time></trkpt><trkpt lat="33.5387875" lon="9.0170218"><ele>51.0</ele><time>2026-04-29T14:57:43.437Z</time></trkpt><trkpt lat="33.539013" lon="9.0170011"><ele>51.0</ele><time>2026-04-29T14:57:44.444Z</time></trkpt><trkpt lat="33.5392392" lon="9.016979"><ele>51.0</ele><time>2026-04-29T14:57:45.447Z</time></trkpt><trkpt lat="33.5394634" lon="9.016954"><ele>51.0</ele><time>2026-04-29T14:57:46.456Z</time></trkpt><trkpt lat="33.5396886" lon="9.0169233"><ele>51.0</ele><time>2026-04-29T14:57:47.438Z</time></trkpt><trkpt lat="33.5399099" lon="9.0168794"><ele>51.0</ele><time>2026-04-29T14:57:48.457Z</time></trkpt><trkpt lat="33.5401286" lon="9.0168311"><ele>51.0</ele><time>2026-04-29T14:57:49.448Z</time></trkpt><trkpt lat="33.5403435" lon="9.0167845"><ele>51.0</ele><time>2026-04-29T14:57:50.452Z</time></trkpt><trkpt lat="33.5405651" lon="9.0167326"><ele>50.33333333333333</ele><time>2026-04-29T14:57:51.447Z</time></trkpt><trkpt lat="33.5407818" lon="9.0166868"><ele>49.666666666666664</ele><time>2026-04-29T14:57:52.443Z</time></trkpt><trkpt lat="33.5410031" lon="9.0166347"><ele>49.0</ele><time>2026-04-29T14:57:53.436Z</time></trkpt><trkpt lat="33.5412238" lon="9.0165861"><ele>49.0</ele><time>2026-04-29T14:57:54.441Z</time></trkpt><trkpt lat="33.5414439" lon="9.0165367"><ele>49.0</ele><time>2026-04-29T14:57:55.452Z</time></trkpt><trkpt lat="33.5416625" lon="9.0164868"><ele>49.0</ele><time>2026-04-29T14:57:56.451Z</time></trkpt><trkpt lat="33.5418873" lon="9.0164408"><ele>49.5</ele><time>2026-04-29T14:57:57.452Z</time></trkpt><trkpt lat="33.5421109" lon="9.0163954"><ele>50.0</ele><time>2026-04-29T14:57:58.45Z</time></trkpt><trkpt lat="33.5423311" lon="9.0163448"><ele>50.0</ele><time>2026-04-29T14:57:59.447Z</time></trkpt><trkpt lat="33.5425509" lon="9.0162939"><ele>50.0</ele><time>2026-04-29T14:58:00.469Z</time></trkpt><trkpt lat="33.5427614" lon="9.0162418"><ele>50.0</ele><time>2026-04-29T14:58:01.457Z</time></trkpt><trkpt lat="33.5429719" lon="9.0161969"><ele>49.333333333333336</ele><time>2026-04-29T14:58:02.458Z</time></trkpt><trkpt lat="33.5431718" lon="9.016151"><ele>48.66666666666667</ele><time>2026-04-29T14:58:03.445Z</time></trkpt><trkpt lat="33.5433666" lon="9.0161026"><ele>48.0</ele><time>2026-04-29T14:58:04.451Z</time></trkpt><trkpt lat="33.5435614" lon="9.0160599"><ele>48.33333333333333</ele><time>2026-04-29T14:58:05.445Z</time></trkpt><trkpt lat="33.5437563" lon="9.0160133"><ele>48.666666666666664</ele><time>2026-04-29T14:58:06.449Z</time></trkpt><trkpt lat="33.5439476" lon="9.0159697"><ele>49.0</ele><time>2026-04-29T14:58:07.455Z</time></trkpt><trkpt lat="33.5441484" lon="9.0159244"><ele>49.0</ele><time>2026-04-29T14:58:08.46Z</time></trkpt><trkpt lat="33.5443469" lon="9.0158815"><ele>49.0</ele><time>2026-04-29T14:58:09.452Z</time></trkpt><trkpt lat="33.5445473" lon="9.0158381"><ele>49.0</ele><time>2026-04-29T14:58:10.449Z</time></trkpt><trkpt lat="33.5447495" lon="9.01579"><ele>48.666666666666664</ele><time>2026-04-29T14:58:11.441Z</time></trkpt><trkpt lat="33.5449506" lon="9.0157462"><ele>48.33333333333333</ele><time>2026-04-29T14:58:12.447Z</time></trkpt><trkpt lat="33.5451495" lon="9.0157043"><ele>48.0</ele><time>2026-04-29T14:58:13.451Z</time></trkpt><trkpt lat="33.5453509" lon="9.0156601"><ele>48.0</ele><time>2026-04-29T14:58:14.465Z</time></trkpt><trkpt lat="33.545552" lon="9.0156117"><ele>48.0</ele><time>2026-04-29T14:58:15.457Z</time></trkpt><trkpt lat="33.5457509" lon="9.0155655"><ele>48.0</ele><time>2026-04-29T14:58:16.451Z</time></trkpt><trkpt lat="33.5459481" lon="9.0155183"><ele>48.0</ele><time>2026-04-29T14:58:17.45Z</time></trkpt><trkpt lat="33.5461481" lon="9.0154737"><ele>48.0</ele><time>2026-04-29T14:58:18.445Z</time></trkpt><trkpt lat="33.5463459" lon="9.0154244"><ele>48.0</ele><time>2026-04-29T14:58:19.453Z</time></trkpt><trkpt lat="33.5465435" lon="9.0153795"><ele>48.0</ele><time>2026-04-29T14:58:20.455Z</time></trkpt><trkpt lat="33.5467397" lon="9.0153361"><ele>48.0</ele><time>2026-04-29T14:58:21.441Z</time></trkpt><trkpt lat="33.5469367" lon="9.0152953"><ele>48.0</ele><time>2026-04-29T14:58:22.466Z</time></trkpt><trkpt lat="33.5471344" lon="9.0152526"><ele>48.33333333333333</ele><time>2026-04-29T14:58:23.45Z</time></trkpt><trkpt lat="33.5473349" lon="9.0152107"><ele>48.666666666666664</ele><time>2026-04-29T14:58:24.453Z</time></trkpt><trkpt lat="33.5475324" lon="9.0151638"><ele>49.0</ele><time>2026-04-29T14:58:25.447Z</time></trkpt><trkpt lat="33.54773" lon="9.0151177"><ele>48.666666666666664</ele><time>2026-04-29T14:58:26.447Z</time></trkpt><trkpt lat="33.5479266" lon="9.0150718"><ele>48.33333333333333</ele><time>2026-04-29T14:58:27.454Z</time></trkpt><trkpt lat="33.5481257" lon="9.0150252"><ele>48.0</ele><time>2026-04-29T14:58:28.449Z</time></trkpt><trkpt lat="33.5483216" lon="9.014983"><ele>48.66666666666667</ele><time>2026-04-29T14:58:29.445Z</time></trkpt><trkpt lat="33.5485206" lon="9.0149386"><ele>49.333333333333336</ele><time>2026-04-29T14:58:30.456Z</time></trkpt><trkpt lat="33.5487201" lon="9.0148896"><ele>50.0</ele><time>2026-04-29T14:58:31.445Z</time></trkpt><trkpt lat="33.5489184" lon="9.0148343"><ele>50.333333333333336</ele><time>2026-04-29T14:58:32.455Z</time></trkpt><trkpt lat="33.5491138" lon="9.0147883"><ele>50.66666666666667</ele><time>2026-04-29T14:58:33.45Z</time></trkpt><trkpt lat="33.5493136" lon="9.0147489"><ele>51.0</ele><time>2026-04-29T14:58:34.461Z</time></trkpt><trkpt lat="33.5495159" lon="9.0147049"><ele>50.0</ele><time>2026-04-29T14:58:35.446Z</time></trkpt><trkpt lat="33.549713" lon="9.0146651"><ele>49.0</ele><time>2026-04-29T14:58:36.451Z</time></trkpt><trkpt lat="33.5499121" lon="9.014619"><ele>48.0</ele><time>2026-04-29T14:58:37.452Z</time></trkpt><trkpt lat="33.5501119" lon="9.0145702"><ele>48.0</ele><time>2026-04-29T14:58:38.445Z</time></trkpt><trkpt lat="33.5503082" lon="9.0145251"><ele>48.0</ele><time>2026-04-29T14:58:39.445Z</time></trkpt><trkpt lat="33.5505057" lon="9.014478"><ele>48.0</ele><time>2026-04-29T14:58:40.459Z</time></trkpt><trkpt lat="33.5507108" lon="9.0144284"><ele>47.666666666666664</ele><time>2026-04-29T14:58:41.451Z</time></trkpt><trkpt lat="33.5509093" lon="9.0143835"><ele>47.33333333333333</ele><time>2026-04-29T14:58:42.446Z</time></trkpt><trkpt lat="33.5511078" lon="9.0143418"><ele>47.0</ele><time>2026-04-29T14:58:43.44Z</time></trkpt><trkpt lat="33.5513025" lon="9.0142944"><ele>45.666666666666664</ele><time>2026-04-29T14:58:44.448Z</time></trkpt><trkpt lat="33.5515007" lon="9.014247"><ele>44.333333333333336</ele><time>2026-04-29T14:58:45.443Z</time></trkpt><trkpt lat="33.5516962" lon="9.0142063"><ele>43.0</ele><time>2026-04-29T14:58:46.459Z</time></trkpt><trkpt lat="33.5518961" lon="9.0141648"><ele>43.333333333333336</ele><time>2026-04-29T14:58:47.469Z</time></trkpt><trkpt lat="33.5520976" lon="9.0141267"><ele>43.666666666666664</ele><time>2026-04-29T14:58:48.44Z</time></trkpt><trkpt lat="33.5522971" lon="9.0140907"><ele>44.0</ele><time>2026-04-29T14:58:49.44Z</time></trkpt><trkpt lat="33.5525028" lon="9.0140606"><ele>44.0</ele><time>2026-04-29T14:58:50.443Z</time></trkpt><trkpt lat="33.5527073" lon="9.0140329"><ele>44.0</ele><time>2026-04-29T14:58:51.45Z</time></trkpt><trkpt lat="33.5529094" lon="9.0140165"><ele>44.0</ele><time>2026-04-29T14:58:52.45Z</time></trkpt><trkpt lat="33.5531117" lon="9.0139994"><ele>44.33333333333333</ele><time>2026-04-29T14:58:53.44Z</time></trkpt><trkpt lat="33.5533121" lon="9.0139928"><ele>44.666666666666664</ele><time>2026-04-29T14:58:54.443Z</time></trkpt><trkpt lat="33.5535136" lon="9.0139907"><ele>45.0</ele><time>2026-04-29T14:58:55.451Z</time></trkpt><trkpt lat="33.5537132" lon="9.0139972"><ele>45.333333333333336</ele><time>2026-04-29T14:58:56.46Z</time></trkpt><trkpt lat="33.5539135" lon="9.014006"><ele>45.66666666666667</ele><time>2026-04-29T14:58:57.441Z</time></trkpt><trkpt lat="33.554114" lon="9.0140208"><ele>46.0</ele><time>2026-04-29T14:58:58.44Z</time></trkpt><trkpt lat="33.5543137" lon="9.014035"><ele>46.0</ele><time>2026-04-29T14:58:59.445Z</time></trkpt><trkpt lat="33.5545155" lon="9.0140519"><ele>46.0</ele><time>2026-04-29T14:59:00.452Z</time></trkpt><trkpt lat="33.5547206" lon="9.0140652"><ele>46.0</ele><time>2026-04-29T14:59:01.44Z</time></trkpt><trkpt lat="33.5549196" lon="9.0140796"><ele>46.0</ele><time>2026-04-29T14:59:02.454Z</time></trkpt><trkpt lat="33.555123" lon="9.0140918"><ele>46.0</ele><time>2026-04-29T14:59:03.454Z</time></trkpt><trkpt lat="33.5553261" lon="9.0141112"><ele>46.0</ele><time>2026-04-29T14:59:04.454Z</time></trkpt><trkpt lat="33.5555279" lon="9.0141244"><ele>45.333333333333336</ele><time>2026-04-29T14:59:05.45Z</time></trkpt><trkpt lat="33.5557325" lon="9.0141442"><ele>44.666666666666664</ele><time>2026-04-29T14:59:06.451Z</time></trkpt><trkpt lat="33.5559357" lon="9.0141606"><ele>44.0</ele><time>2026-04-29T14:59:07.454Z</time></trkpt><trkpt lat="33.5561337" lon="9.0141755"><ele>43.33333333333333</ele><time>2026-04-29T14:59:08.443Z</time></trkpt><trkpt lat="33.5563344" lon="9.0141887"><ele>42.666666666666664</ele><time>2026-04-29T14:59:09.442Z</time></trkpt><trkpt lat="33.5565367" lon="9.0142028"><ele>42.0</ele><time>2026-04-29T14:59:10.451Z</time></trkpt><trkpt lat="33.5567353" lon="9.0142122"><ele>42.0</ele><time>2026-04-29T14:59:11.452Z</time></trkpt><trkpt lat="33.5569387" lon="9.0142245"><ele>42.0</ele><time>2026-04-29T14:59:12.448Z</time></trkpt><trkpt lat="33.55714" lon="9.0142374"><ele>42.0</ele><time>2026-04-29T14:59:13.445Z</time></trkpt><trkpt lat="33.5573402" lon="9.0142493"><ele>41.666666666666664</ele><time>2026-04-29T14:59:14.448Z</time></trkpt><trkpt lat="33.5575412" lon="9.0142663"><ele>41.33333333333333</ele><time>2026-04-29T14:59:15.452Z</time></trkpt><trkpt lat="33.5577418" lon="9.0142836"><ele>41.0</ele><time>2026-04-29T14:59:16.448Z</time></trkpt><trkpt lat="33.557943" lon="9.0142971"><ele>41.666666666666664</ele><time>2026-04-29T14:59:17.446Z</time></trkpt><trkpt lat="33.558147" lon="9.0143091"><ele>42.333333333333336</ele><time>2026-04-29T14:59:18.444Z</time></trkpt><trkpt lat="33.5583531" lon="9.0143209"><ele>43.0</ele><time>2026-04-29T14:59:19.451Z</time></trkpt><trkpt lat="33.5585503" lon="9.0143409"><ele>42.333333333333336</ele><time>2026-04-29T14:59:20.449Z</time></trkpt><trkpt lat="33.5587553" lon="9.0143567"><ele>41.666666666666664</ele><time>2026-04-29T14:59:21.449Z</time></trkpt><trkpt lat="33.5589593" lon="9.014371"><ele>41.0</ele><time>2026-04-29T14:59:22.449Z</time></trkpt><trkpt lat="33.5591618" lon="9.0143834"><ele>41.0</ele><time>2026-04-29T14:59:23.445Z</time></trkpt><trkpt lat="33.5593604" lon="9.0143987"><ele>41.0</ele><time>2026-04-29T14:59:24.451Z</time></trkpt><trkpt lat="33.5595622" lon="9.0144129"><ele>41.0</ele><time>2026-04-29T14:59:25.448Z</time></trkpt><trkpt lat="33.5597659" lon="9.0144271"><ele>41.33333333333333</ele><time>2026-04-29T14:59:26.447Z</time></trkpt><trkpt lat="33.559968" lon="9.0144431"><ele>41.666666666666664</ele><time>2026-04-29T14:59:27.45Z</time></trkpt><trkpt lat="33.5601711" lon="9.0144624"><ele>42.0</ele><time>2026-04-29T14:59:28.437Z</time></trkpt><trkpt lat="33.5603745" lon="9.0144785"><ele>42.0</ele><time>2026-04-29T14:59:29.447Z</time></trkpt><trkpt lat="33.5605759" lon="9.0144928"><ele>42.0</ele><time>2026-04-29T14:59:30.438Z</time></trkpt><trkpt lat="33.5607749" lon="9.0145118"><ele>42.0</ele><time>2026-04-29T14:59:31.448Z</time></trkpt><trkpt lat="33.5609781" lon="9.0145229"><ele>42.0</ele><time>2026-04-29T14:59:32.45Z</time></trkpt><trkpt lat="33.5611753" lon="9.0145245"><ele>42.0</ele><time>2026-04-29T14:59:33.48Z</time></trkpt><trkpt lat="33.561376" lon="9.0145147"><ele>42.0</ele><time>2026-04-29T14:59:34.442Z</time></trkpt><trkpt lat="33.5615603" lon="9.0144902"><ele>42.333333333333336</ele><time>2026-04-29T14:59:35.441Z</time></trkpt><trkpt lat="33.5617355" lon="9.014465"><ele>42.66666666666667</ele><time>2026-04-29T14:59:36.448Z</time></trkpt><trkpt lat="33.5619035" lon="9.0144225"><ele>43.0</ele><time>2026-04-29T14:59:37.453Z</time></trkpt><trkpt lat="33.5620576" lon="9.0143779"><ele>43.0</ele><time>2026-04-29T14:59:38.444Z</time></trkpt><trkpt lat="33.5622103" lon="9.0143303"><ele>43.0</ele><time>2026-04-29T14:59:39.442Z</time></trkpt><trkpt lat="33.5623372" lon="9.01428"><ele>43.0</ele><time>2026-04-29T14:59:40.451Z</time></trkpt><trkpt lat="33.5624668" lon="9.0142329"><ele>43.0</ele><time>2026-04-29T14:59:41.451Z</time></trkpt><trkpt lat="33.5625863" lon="9.0141879"><ele>43.0</ele><time>2026-04-29T14:59:42.446Z</time></trkpt><trkpt lat="33.5626901" lon="9.0141334"><ele>43.0</ele><time>2026-04-29T14:59:43.457Z</time></trkpt><trkpt lat="33.5627903" lon="9.0140961"><ele>43.0</ele><time>2026-04-29T14:59:44.461Z</time></trkpt><trkpt lat="33.5628808" lon="9.0140563"><ele>43.0</ele><time>2026-04-29T14:59:45.442Z</time></trkpt><trkpt lat="33.5629644" lon="9.014024"><ele>43.0</ele><time>2026-04-29T14:59:46.448Z</time></trkpt><trkpt lat="33.5630377" lon="9.0139868"><ele>43.0</ele><time>2026-04-29T14:59:47.445Z</time></trkpt><trkpt lat="33.5631066" lon="9.0139516"><ele>43.0</ele><time>2026-04-29T14:59:48.517Z</time></trkpt><trkpt lat="33.5631761" lon="9.0139226"><ele>43.0</ele><time>2026-04-29T14:59:49.458Z</time></trkpt><trkpt lat="33.5632621" lon="9.0138836"><ele>43.0</ele><time>2026-04-29T14:59:50.454Z</time></trkpt><trkpt lat="33.5633649" lon="9.0138397"><ele>43.0</ele><time>2026-04-29T14:59:51.442Z</time></trkpt><trkpt lat="33.5634738" lon="9.0137943"><ele>43.0</ele><time>2026-04-29T14:59:52.479Z</time></trkpt><trkpt lat="33.5635819" lon="9.0137466"><ele>43.0</ele><time>2026-04-29T14:59:53.458Z</time></trkpt><trkpt lat="33.5636858" lon="9.0136979"><ele>43.0</ele><time>2026-04-29T14:59:54.466Z</time></trkpt><trkpt lat="33.5637868" lon="9.0136484"><ele>43.0</ele><time>2026-04-29T14:59:55.45Z</time></trkpt><trkpt lat="33.5638852" lon="9.0135983"><ele>43.0</ele><time>2026-04-29T14:59:56.448Z</time></trkpt><trkpt lat="33.5639771" lon="9.0135514"><ele>43.4</ele><time>2026-04-29T14:59:57.456Z</time></trkpt><trkpt lat="33.5640749" lon="9.0135088"><ele>43.8</ele><time>2026-04-29T14:59:58.461Z</time></trkpt><trkpt lat="33.5641685" lon="9.0134612"><ele>44.2</ele><time>2026-04-29T14:59:59.455Z</time></trkpt><trkpt lat="33.5642685" lon="9.013419"><ele>44.6</ele><time>2026-04-29T15:00:00.443Z</time></trkpt><trkpt lat="33.5643666" lon="9.0133739"><ele>45.0</ele><time>2026-04-29T15:00:01.436Z</time></trkpt><trkpt lat="33.5644572" lon="9.0133283"><ele>45.166666666666664</ele><time>2026-04-29T15:00:02.449Z</time></trkpt><trkpt lat="33.5645505" lon="9.0132847"><ele>45.333333333333336</ele><time>2026-04-29T15:00:03.445Z</time></trkpt><trkpt lat="33.564641" lon="9.0132436"><ele>45.5</ele><time>2026-04-29T15:00:04.448Z</time></trkpt><trkpt lat="33.5647298" lon="9.0132049"><ele>45.66666666666667</ele><time>2026-04-29T15:00:05.451Z</time></trkpt><trkpt lat="33.5648055" lon="9.0131695"><ele>45.833333333333336</ele><time>2026-04-29T15:00:06.462Z</time></trkpt><trkpt lat="33.5648755" lon="9.0131366"><ele>46.0</ele><time>2026-04-29T15:00:07.447Z</time></trkpt><trkpt lat="33.5649426" lon="9.013103"><ele>46.0</ele><time>2026-04-29T15:00:08.452Z</time></trkpt><trkpt lat="33.5650028" lon="9.0130706"><ele>46.0</ele><time>2026-04-29T15:00:09.461Z</time></trkpt><trkpt lat="33.5650826" lon="9.0130311"><ele>46.0</ele><time>2026-04-29T15:00:10.466Z</time></trkpt><trkpt lat="33.5651791" lon="9.0129925"><ele>46.0</ele><time>2026-04-29T15:00:11.462Z</time></trkpt><trkpt lat="33.5652831" lon="9.0129493"><ele>46.0</ele><time>2026-04-29T15:00:12.447Z</time></trkpt><trkpt lat="33.5653907" lon="9.0128995"><ele>45.75</ele><time>2026-04-29T15:00:13.446Z</time></trkpt><trkpt lat="33.5655072" lon="9.0128457"><ele>45.5</ele><time>2026-04-29T15:00:14.459Z</time></trkpt><trkpt lat="33.5656263" lon="9.0127937"><ele>45.25</ele><time>2026-04-29T15:00:15.444Z</time></trkpt><trkpt lat="33.5657503" lon="9.0127352"><ele>45.0</ele><time>2026-04-29T15:00:16.446Z</time></trkpt><trkpt lat="33.5658727" lon="9.0126775"><ele>45.0</ele><time>2026-04-29T15:00:17.443Z</time></trkpt><trkpt lat="33.5659964" lon="9.0126218"><ele>45.0</ele><time>2026-04-29T15:00:18.441Z</time></trkpt><trkpt lat="33.5661228" lon="9.0125663"><ele>45.0</ele><time>2026-04-29T15:00:19.453Z</time></trkpt><trkpt lat="33.5662465" lon="9.0125091"><ele>45.0</ele><time>2026-04-29T15:00:20.453Z</time></trkpt><trkpt lat="33.5663693" lon="9.0124498"><ele>45.25</ele><time>2026-04-29T15:00:21.442Z</time></trkpt><trkpt lat="33.5664944" lon="9.0123861"><ele>45.5</ele><time>2026-04-29T15:00:22.451Z</time></trkpt><trkpt lat="33.5666207" lon="9.0123252"><ele>45.75</ele><time>2026-04-29T15:00:23.45Z</time></trkpt><trkpt lat="33.566746" lon="9.0122639"><ele>46.0</ele><time>2026-04-29T15:00:24.449Z</time></trkpt><trkpt lat="33.5668572" lon="9.0122044"><ele>46.0</ele><time>2026-04-29T15:00:25.442Z</time></trkpt><trkpt lat="33.5669661" lon="9.0121537"><ele>46.0</ele><time>2026-04-29T15:00:26.444Z</time></trkpt><trkpt lat="33.5670706" lon="9.012107"><ele>46.0</ele><time>2026-04-29T15:00:27.496Z</time></trkpt><trkpt lat="33.5671643" lon="9.0120696"><ele>46.0</ele><time>2026-04-29T15:00:28.452Z</time></trkpt><trkpt lat="33.5672493" lon="9.0120361"><ele>46.0</ele><time>2026-04-29T15:00:29.44Z</time></trkpt><trkpt lat="33.5673285" lon="9.0120039"><ele>45.8</ele><time>2026-04-29T15:00:30.455Z</time></trkpt><trkpt lat="33.5674096" lon="9.0119647"><ele>45.599999999999994</ele><time>2026-04-29T15:00:31.444Z</time></trkpt><trkpt lat="33.5674963" lon="9.01192"><ele>45.4</ele><time>2026-04-29T15:00:32.449Z</time></trkpt><trkpt lat="33.5675916" lon="9.0118693"><ele>45.2</ele><time>2026-04-29T15:00:33.45Z</time></trkpt><trkpt lat="33.5677002" lon="9.0118223"><ele>45.0</ele><time>2026-04-29T15:00:34.448Z</time></trkpt><trkpt lat="33.5678146" lon="9.0117801"><ele>45.5</ele><time>2026-04-29T15:00:35.449Z</time></trkpt><trkpt lat="33.5679348" lon="9.0117361"><ele>46.0</ele><time>2026-04-29T15:00:36.451Z</time></trkpt><trkpt lat="33.5680596" lon="9.0117034"><ele>46.5</ele><time>2026-04-29T15:00:37.442Z</time></trkpt><trkpt lat="33.5681808" lon="9.0116796"><ele>47.0</ele><time>2026-04-29T15:00:38.441Z</time></trkpt><trkpt lat="33.5683079" lon="9.0116772"><ele>47.0</ele><time>2026-04-29T15:00:39.444Z</time></trkpt><trkpt lat="33.5684262" lon="9.0116879"><ele>47.0</ele><time>2026-04-29T15:00:40.435Z</time></trkpt><trkpt lat="33.5685502" lon="9.0117205"><ele>47.0</ele><time>2026-04-29T15:00:41.446Z</time></trkpt><trkpt lat="33.5686717" lon="9.011772"><ele>47.0</ele><time>2026-04-29T15:00:42.447Z</time></trkpt><trkpt lat="33.5687929" lon="9.0118376"><ele>47.75</ele><time>2026-04-29T15:00:43.454Z</time></trkpt><trkpt lat="33.5689058" lon="9.0119153"><ele>48.5</ele><time>2026-04-29T15:00:44.505Z</time></trkpt><trkpt lat="33.5690063" lon="9.0120042"><ele>49.25</ele><time>2026-04-29T15:00:45.44Z</time></trkpt><trkpt lat="33.569098" lon="9.0121029"><ele>50.0</ele><time>2026-04-29T15:00:46.437Z</time></trkpt><trkpt lat="33.5691843" lon="9.0122112"><ele>50.0</ele><time>2026-04-29T15:00:47.447Z</time></trkpt><trkpt lat="33.569259" lon="9.0123339"><ele>50.0</ele><time>2026-04-29T15:00:48.451Z</time></trkpt><trkpt lat="33.5693285" lon="9.0124608"><ele>50.0</ele><time>2026-04-29T15:00:49.454Z</time></trkpt><trkpt lat="33.5693865" lon="9.0125887"><ele>50.0</ele><time>2026-04-29T15:00:50.45Z</time></trkpt><trkpt lat="33.5694446" lon="9.012723"><ele>50.0</ele><time>2026-04-29T15:00:51.441Z</time></trkpt><trkpt lat="33.5694976" lon="9.0128528"><ele>50.0</ele><time>2026-04-29T15:00:52.45Z</time></trkpt><trkpt lat="33.5695541" lon="9.0129845"><ele>50.0</ele><time>2026-04-29T15:00:53.452Z</time></trkpt><trkpt lat="33.5696068" lon="9.0131122"><ele>50.0</ele><time>2026-04-29T15:00:54.457Z</time></trkpt><trkpt lat="33.569651" lon="9.0132295"><ele>49.66666666666667</ele><time>2026-04-29T15:00:55.456Z</time></trkpt><trkpt lat="33.5696937" lon="9.0133459"><ele>49.333333333333336</ele><time>2026-04-29T15:00:56.446Z</time></trkpt><trkpt lat="33.5697345" lon="9.013446"><ele>49.0</ele><time>2026-04-29T15:00:57.45Z</time></trkpt><trkpt lat="33.5697818" lon="9.0135355"><ele>48.66666666666667</ele><time>2026-04-29T15:00:58.448Z</time></trkpt><trkpt lat="33.5698395" lon="9.0136045"><ele>48.333333333333336</ele><time>2026-04-29T15:00:59.456Z</time></trkpt><trkpt lat="33.5699068" lon="9.0136456"><ele>48.0</ele><time>2026-04-29T15:01:00.445Z</time></trkpt><trkpt lat="33.5699907" lon="9.0136592"><ele>48.0</ele><time>2026-04-29T15:01:01.443Z</time></trkpt><trkpt lat="33.5700839" lon="9.0136544"><ele>48.0</ele><time>2026-04-29T15:01:02.46Z</time></trkpt><trkpt lat="33.570209" lon="9.0136338"><ele>48.0</ele><time>2026-04-29T15:01:03.451Z</time></trkpt><trkpt lat="33.5703665" lon="9.013587"><ele>48.0</ele><time>2026-04-29T15:01:04.531Z</time></trkpt><trkpt lat="33.5705478" lon="9.0135403"><ele>48.66666666666667</ele><time>2026-04-29T15:01:05.451Z</time></trkpt><trkpt lat="33.5707312" lon="9.0135016"><ele>49.333333333333336</ele><time>2026-04-29T15:01:06.45Z</time></trkpt><trkpt lat="33.5709164" lon="9.0134756"><ele>50.0</ele><time>2026-04-29T15:01:07.459Z</time></trkpt><trkpt lat="33.5710869" lon="9.013454"><ele>49.66666666666667</ele><time>2026-04-29T15:01:08.448Z</time></trkpt><trkpt lat="33.5712479" lon="9.0134305"><ele>49.33333333333333</ele><time>2026-04-29T15:01:09.452Z</time></trkpt><trkpt lat="33.5713988" lon="9.0134103"><ele>49.0</ele><time>2026-04-29T15:01:10.453Z</time></trkpt><trkpt lat="33.5715393" lon="9.0133894"><ele>49.0</ele><time>2026-04-29T15:01:11.446Z</time></trkpt><trkpt lat="33.5716769" lon="9.0133777"><ele>49.0</ele><time>2026-04-29T15:01:12.44Z</time></trkpt><trkpt lat="33.5718139" lon="9.0133549"><ele>49.0</ele><time>2026-04-29T15:01:13.448Z</time></trkpt><trkpt lat="33.5719556" lon="9.0133341"><ele>49.0</ele><time>2026-04-29T15:01:14.443Z</time></trkpt><trkpt lat="33.5720939" lon="9.0133133"><ele>48.5</ele><time>2026-04-29T15:01:15.444Z</time></trkpt><trkpt lat="33.5722399" lon="9.0132941"><ele>48.0</ele><time>2026-04-29T15:01:16.454Z</time></trkpt><trkpt lat="33.5723805" lon="9.013275"><ele>47.5</ele><time>2026-04-29T15:01:17.446Z</time></trkpt><trkpt lat="33.5725245" lon="9.0132575"><ele>47.0</ele><time>2026-04-29T15:01:18.451Z</time></trkpt><trkpt lat="33.572667" lon="9.0132348"><ele>47.0</ele><time>2026-04-29T15:01:19.445Z</time></trkpt><trkpt lat="33.5728095" lon="9.0132093"><ele>47.0</ele><time>2026-04-29T15:01:20.458Z</time></trkpt><trkpt lat="33.5729528" lon="9.0131836"><ele>47.0</ele><time>2026-04-29T15:01:21.462Z</time></trkpt><trkpt lat="33.5730942" lon="9.0131635"><ele>47.0</ele><time>2026-04-29T15:01:22.451Z</time></trkpt><trkpt lat="33.5732358" lon="9.0131433"><ele>46.75</ele><time>2026-04-29T15:01:23.442Z</time></trkpt><trkpt lat="33.5733791" lon="9.0131189"><ele>46.5</ele><time>2026-04-29T15:01:24.439Z</time></trkpt><trkpt lat="33.57352" lon="9.0130951"><ele>46.25</ele><time>2026-04-29T15:01:25.456Z</time></trkpt><trkpt lat="33.5736573" lon="9.0130711"><ele>46.0</ele><time>2026-04-29T15:01:26.446Z</time></trkpt><trkpt lat="33.5737943" lon="9.0130484"><ele>46.0</ele><time>2026-04-29T15:01:27.45Z</time></trkpt><trkpt lat="33.5739349" lon="9.0130313"><ele>46.0</ele><time>2026-04-29T15:01:28.464Z</time></trkpt><trkpt lat="33.5740728" lon="9.0130094"><ele>46.0</ele><time>2026-04-29T15:01:29.449Z</time></trkpt><trkpt lat="33.5742138" lon="9.0129877"><ele>46.0</ele><time>2026-04-29T15:01:30.454Z</time></trkpt><trkpt lat="33.5743515" lon="9.0129656"><ele>46.0</ele><time>2026-04-29T15:01:31.449Z</time></trkpt><trkpt lat="33.5744904" lon="9.0129455"><ele>46.0</ele><time>2026-04-29T15:01:32.439Z</time></trkpt><trkpt lat="33.5746311" lon="9.0129237"><ele>46.0</ele><time>2026-04-29T15:01:33.446Z</time></trkpt><trkpt lat="33.5747698" lon="9.0129102"><ele>46.0</ele><time>2026-04-29T15:01:34.455Z</time></trkpt><trkpt lat="33.5749018" lon="9.012885"><ele>46.25</ele><time>2026-04-29T15:01:35.452Z</time></trkpt><trkpt lat="33.5750303" lon="9.0128608"><ele>46.5</ele><time>2026-04-29T15:01:36.449Z</time></trkpt><trkpt lat="33.5751548" lon="9.0128415"><ele>46.75</ele><time>2026-04-29T15:01:37.468Z</time></trkpt><trkpt lat="33.5752732" lon="9.0128155"><ele>47.0</ele><time>2026-04-29T15:01:38.457Z</time></trkpt><trkpt lat="33.5753838" lon="9.0127918"><ele>46.6</ele><time>2026-04-29T15:01:39.452Z</time></trkpt><trkpt lat="33.5754806" lon="9.0127755"><ele>46.2</ele><time>2026-04-29T15:01:40.44Z</time></trkpt><trkpt lat="33.5755697" lon="9.0127624"><ele>45.8</ele><time>2026-04-29T15:01:41.455Z</time></trkpt><trkpt lat="33.5756552" lon="9.0127463"><ele>45.4</ele><time>2026-04-29T15:01:42.456Z</time></trkpt><trkpt lat="33.575745" lon="9.0127318"><ele>45.0</ele><time>2026-04-29T15:01:43.447Z</time></trkpt><trkpt lat="33.5758419" lon="9.0127204"><ele>45.0</ele><time>2026-04-29T15:01:44.458Z</time></trkpt><trkpt lat="33.5759401" lon="9.0127027"><ele>45.0</ele><time>2026-04-29T15:01:45.492Z</time></trkpt><trkpt lat="33.5760515" lon="9.0126872"><ele>45.0</ele><time>2026-04-29T15:01:46.444Z</time></trkpt><trkpt lat="33.5761603" lon="9.0126674"><ele>45.0</ele><time>2026-04-29T15:01:47.447Z</time></trkpt><trkpt lat="33.5762664" lon="9.0126504"><ele>45.0</ele><time>2026-04-29T15:01:48.457Z</time></trkpt><trkpt lat="33.5763768" lon="9.0126347"><ele>45.0</ele><time>2026-04-29T15:01:49.452Z</time></trkpt><trkpt lat="33.5764902" lon="9.0126171"><ele>45.0</ele><time>2026-04-29T15:01:50.455Z</time></trkpt><trkpt lat="33.576611" lon="9.0125981"><ele>45.0</ele><time>2026-04-29T15:01:51.456Z</time></trkpt><trkpt lat="33.576729" lon="9.0125753"><ele>45.0</ele><time>2026-04-29T15:01:52.446Z</time></trkpt><trkpt lat="33.5768473" lon="9.0125588"><ele>45.0</ele><time>2026-04-29T15:01:53.445Z</time></trkpt><trkpt lat="33.5769634" lon="9.0125364"><ele>45.0</ele><time>2026-04-29T15:01:54.46Z</time></trkpt><trkpt lat="33.5770813" lon="9.0125198"><ele>45.0</ele><time>2026-04-29T15:01:55.447Z</time></trkpt><trkpt lat="33.5772006" lon="9.0125054"><ele>45.0</ele><time>2026-04-29T15:01:56.448Z</time></trkpt><trkpt lat="33.577314" lon="9.0124919"><ele>44.6</ele><time>2026-04-29T15:01:57.447Z</time></trkpt><trkpt lat="33.5774213" lon="9.0124782"><ele>44.2</ele><time>2026-04-29T15:01:58.441Z</time></trkpt><trkpt lat="33.5775231" lon="9.012465"><ele>43.8</ele><time>2026-04-29T15:01:59.44Z</time></trkpt><trkpt lat="33.5776225" lon="9.012445"><ele>43.4</ele><time>2026-04-29T15:02:00.455Z</time></trkpt><trkpt lat="33.5777239" lon="9.0124275"><ele>43.0</ele><time>2026-04-29T15:02:01.441Z</time></trkpt><trkpt lat="33.5778287" lon="9.0124061"><ele>42.8</ele><time>2026-04-29T15:02:02.445Z</time></trkpt><trkpt lat="33.5779299" lon="9.0123924"><ele>42.599999999999994</ele><time>2026-04-29T15:02:03.456Z</time></trkpt><trkpt lat="33.5780311" lon="9.0123754"><ele>42.400000000000006</ele><time>2026-04-29T15:02:04.452Z</time></trkpt><trkpt lat="33.5781258" lon="9.0123577"><ele>42.2</ele><time>2026-04-29T15:02:05.46Z</time></trkpt><trkpt lat="33.578215" lon="9.0123434"><ele>42.0</ele><time>2026-04-29T15:02:06.443Z</time></trkpt><trkpt lat="33.5783041" lon="9.0123346"><ele>42.0</ele><time>2026-04-29T15:02:07.452Z</time></trkpt><trkpt lat="33.5783959" lon="9.0123237"><ele>42.0</ele><time>2026-04-29T15:02:08.455Z</time></trkpt><trkpt lat="33.57849" lon="9.01231"><ele>42.0</ele><time>2026-04-29T15:02:09.451Z</time></trkpt><trkpt lat="33.5785797" lon="9.0122956"><ele>42.0</ele><time>2026-04-29T15:02:10.447Z</time></trkpt><trkpt lat="33.578664" lon="9.0122759"><ele>42.0</ele><time>2026-04-29T15:02:11.444Z</time></trkpt><trkpt lat="33.5787482" lon="9.0122613"><ele>42.0</ele><time>2026-04-29T15:02:12.44Z</time></trkpt><trkpt lat="33.5788282" lon="9.0122452"><ele>42.0</ele><time>2026-04-29T15:02:13.439Z</time></trkpt><trkpt lat="33.5788984" lon="9.0122282"><ele>42.0</ele><time>2026-04-29T15:02:14.454Z</time></trkpt><trkpt lat="33.5789625" lon="9.0122088"><ele>42.0</ele><time>2026-04-29T15:02:15.453Z</time></trkpt><trkpt lat="33.5790769" lon="9.0121895"><ele>42.0</ele><time>2026-04-29T15:02:17.441Z</time></trkpt><trkpt lat="33.5791976" lon="9.0121647"><ele>42.0</ele><time>2026-04-29T15:02:19.454Z</time></trkpt><trkpt lat="33.5792732" lon="9.0121423"><ele>42.0</ele><time>2026-04-29T15:02:20.44Z</time></trkpt><trkpt lat="33.579359" lon="9.0121317"><ele>42.0</ele><time>2026-04-29T15:02:21.459Z</time></trkpt><trkpt lat="33.579445" lon="9.0121217"><ele>42.0</ele><time>2026-04-29T15:02:22.453Z</time></trkpt><trkpt lat="33.5795342" lon="9.0121127"><ele>42.0</ele><time>2026-04-29T15:02:23.461Z</time></trkpt><trkpt lat="33.57963" lon="9.012101"><ele>42.0</ele><time>2026-04-29T15:02:24.464Z</time></trkpt><trkpt lat="33.5797212" lon="9.0120837"><ele>42.0</ele><time>2026-04-29T15:02:25.459Z</time></trkpt><trkpt lat="33.5798215" lon="9.0120772"><ele>42.0</ele><time>2026-04-29T15:02:26.45Z</time></trkpt><trkpt lat="33.5799174" lon="9.0120619"><ele>42.0</ele><time>2026-04-29T15:02:27.448Z</time></trkpt><trkpt lat="33.5800095" lon="9.0120391"><ele>42.0</ele><time>2026-04-29T15:02:28.446Z</time></trkpt><trkpt lat="33.5800984" lon="9.0120134"><ele>42.0</ele><time>2026-04-29T15:02:29.447Z</time></trkpt><trkpt lat="33.5801889" lon="9.0119968"><ele>42.0</ele><time>2026-04-29T15:02:30.45Z</time></trkpt><trkpt lat="33.5802784" lon="9.0119773"><ele>42.0</ele><time>2026-04-29T15:02:31.451Z</time></trkpt><trkpt lat="33.5803691" lon="9.0119645"><ele>42.0</ele><time>2026-04-29T15:02:32.444Z</time></trkpt><trkpt lat="33.5804612" lon="9.0119554"><ele>42.0</ele><time>2026-04-29T15:02:33.482Z</time></trkpt><trkpt lat="33.5805536" lon="9.0119407"><ele>42.0</ele><time>2026-04-29T15:02:34.441Z</time></trkpt><trkpt lat="33.5806426" lon="9.0119284"><ele>42.0</ele><time>2026-04-29T15:02:35.451Z</time></trkpt><trkpt lat="33.5807324" lon="9.0119167"><ele>42.0</ele><time>2026-04-29T15:02:36.443Z</time></trkpt><trkpt lat="33.5808183" lon="9.0119031"><ele>42.0</ele><time>2026-04-29T15:02:37.437Z</time></trkpt><trkpt lat="33.580901" lon="9.0118894"><ele>42.0</ele><time>2026-04-29T15:02:38.44Z</time></trkpt><trkpt lat="33.5809903" lon="9.011877"><ele>42.0</ele><time>2026-04-29T15:02:39.446Z</time></trkpt><trkpt lat="33.581082" lon="9.0118615"><ele>42.0</ele><time>2026-04-29T15:02:40.453Z</time></trkpt><trkpt lat="33.5811668" lon="9.0118494"><ele>42.333333333333336</ele><time>2026-04-29T15:02:41.451Z</time></trkpt><trkpt lat="33.5812525" lon="9.0118385"><ele>42.666666666666664</ele><time>2026-04-29T15:02:42.452Z</time></trkpt><trkpt lat="33.5813283" lon="9.0118268"><ele>43.0</ele><time>2026-04-29T15:02:43.442Z</time></trkpt><trkpt lat="33.5814052" lon="9.0118166"><ele>43.33333333333333</ele><time>2026-04-29T15:02:44.442Z</time></trkpt><trkpt lat="33.5814768" lon="9.0117999"><ele>43.666666666666664</ele><time>2026-04-29T15:02:45.486Z</time></trkpt><trkpt lat="33.5815436" lon="9.0117888"><ele>44.0</ele><time>2026-04-29T15:02:46.45Z</time></trkpt><trkpt lat="33.5816714" lon="9.0117793"><ele>44.0</ele><time>2026-04-29T15:02:48.45Z</time></trkpt><trkpt lat="33.5817433" lon="9.0117715"><ele>44.0</ele><time>2026-04-29T15:02:49.493Z</time></trkpt><trkpt lat="33.5818192" lon="9.0117625"><ele>44.0</ele><time>2026-04-29T15:02:50.446Z</time></trkpt><trkpt lat="33.5818927" lon="9.0117506"><ele>44.0</ele><time>2026-04-29T15:02:51.452Z</time></trkpt><trkpt lat="33.5819653" lon="9.0117312"><ele>44.0</ele><time>2026-04-29T15:02:52.461Z</time></trkpt><trkpt lat="33.5820373" lon="9.01172"><ele>44.0</ele><time>2026-04-29T15:02:53.446Z</time></trkpt><trkpt lat="33.5821072" lon="9.0117069"><ele>44.0</ele><time>2026-04-29T15:02:54.439Z</time></trkpt><trkpt lat="33.5821743" lon="9.0116929"><ele>43.75</ele><time>2026-04-29T15:02:55.449Z</time></trkpt><trkpt lat="33.5822824" lon="9.0116647"><ele>43.5</ele><time>2026-04-29T15:02:57.442Z</time></trkpt><trkpt lat="33.5823924" lon="9.0116307"><ele>43.25</ele><time>2026-04-29T15:02:59.446Z</time></trkpt><trkpt lat="33.5824828" lon="9.0116063"><ele>43.0</ele><time>2026-04-29T15:03:00.452Z</time></trkpt><trkpt lat="33.5826204" lon="9.011576"><ele>42.66666666666667</ele><time>2026-04-29T15:03:01.454Z</time></trkpt><trkpt lat="33.5827891" lon="9.011549"><ele>42.333333333333336</ele><time>2026-04-29T15:03:02.449Z</time></trkpt><trkpt lat="33.5829975" lon="9.0115243"><ele>42.0</ele><time>2026-04-29T15:03:03.452Z</time></trkpt><trkpt lat="33.5832076" lon="9.0114977"><ele>41.666666666666664</ele><time>2026-04-29T15:03:04.456Z</time></trkpt><trkpt lat="33.5834215" lon="9.0114714"><ele>41.33333333333333</ele><time>2026-04-29T15:03:05.464Z</time></trkpt><trkpt lat="33.5836388" lon="9.0114427"><ele>41.0</ele><time>2026-04-29T15:03:06.451Z</time></trkpt><trkpt lat="33.5838594" lon="9.0114217"><ele>40.666666666666664</ele><time>2026-04-29T15:03:07.465Z</time></trkpt><trkpt lat="33.5840736" lon="9.0114094"><ele>40.333333333333336</ele><time>2026-04-29T15:03:08.444Z</time></trkpt><trkpt lat="33.5842848" lon="9.0113989"><ele>40.0</ele><time>2026-04-29T15:03:09.446Z</time></trkpt><trkpt lat="33.5844968" lon="9.0113917"><ele>40.66666666666667</ele><time>2026-04-29T15:03:10.44Z</time></trkpt><trkpt lat="33.5847072" lon="9.0113931"><ele>41.333333333333336</ele><time>2026-04-29T15:03:11.45Z</time></trkpt><trkpt lat="33.5849173" lon="9.0113942"><ele>42.0</ele><time>2026-04-29T15:03:12.434Z</time></trkpt><trkpt lat="33.5851182" lon="9.0113966"><ele>42.0</ele><time>2026-04-29T15:03:13.44Z</time></trkpt><trkpt lat="33.585317" lon="9.011399"><ele>42.0</ele><time>2026-04-29T15:03:14.437Z</time></trkpt><trkpt lat="33.5855164" lon="9.0114095"><ele>42.0</ele><time>2026-04-29T15:03:15.443Z</time></trkpt><trkpt lat="33.5857128" lon="9.0114118"><ele>42.333333333333336</ele><time>2026-04-29T15:03:16.438Z</time></trkpt><trkpt lat="33.5859074" lon="9.0114146"><ele>42.66666666666667</ele><time>2026-04-29T15:03:17.44Z</time></trkpt><trkpt lat="33.5861034" lon="9.0114199"><ele>43.0</ele><time>2026-04-29T15:03:18.447Z</time></trkpt><trkpt lat="33.5862956" lon="9.0114223"><ele>41.66666666666667</ele><time>2026-04-29T15:03:19.444Z</time></trkpt><trkpt lat="33.5864895" lon="9.0114236"><ele>40.333333333333336</ele><time>2026-04-29T15:03:20.436Z</time></trkpt><trkpt lat="33.5866778" lon="9.0114237"><ele>39.0</ele><time>2026-04-29T15:03:21.446Z</time></trkpt><trkpt lat="33.5868627" lon="9.0114232"><ele>38.666666666666664</ele><time>2026-04-29T15:03:22.457Z</time></trkpt><trkpt lat="33.5870513" lon="9.0114258"><ele>38.33333333333333</ele><time>2026-04-29T15:03:23.458Z</time></trkpt><trkpt lat="33.5872433" lon="9.0114244"><ele>38.0</ele><time>2026-04-29T15:03:24.449Z</time></trkpt><trkpt lat="33.5874358" lon="9.0114211"><ele>38.0</ele><time>2026-04-29T15:03:25.457Z</time></trkpt><trkpt lat="33.587628" lon="9.011416"><ele>38.0</ele><time>2026-04-29T15:03:26.452Z</time></trkpt><trkpt lat="33.5878157" lon="9.0114108"><ele>38.0</ele><time>2026-04-29T15:03:27.446Z</time></trkpt><trkpt lat="33.5880071" lon="9.011404"><ele>38.666666666666664</ele><time>2026-04-29T15:03:28.438Z</time></trkpt><trkpt lat="33.5881992" lon="9.0113911"><ele>39.333333333333336</ele><time>2026-04-29T15:03:29.452Z</time></trkpt><trkpt lat="33.5883941" lon="9.0113751"><ele>40.0</ele><time>2026-04-29T15:03:30.465Z</time></trkpt><trkpt lat="33.5885799" lon="9.0113515"><ele>40.66666666666667</ele><time>2026-04-29T15:03:31.456Z</time></trkpt><trkpt lat="33.5887677" lon="9.0113211"><ele>41.333333333333336</ele><time>2026-04-29T15:03:32.451Z</time></trkpt><trkpt lat="33.5889551" lon="9.0112865"><ele>42.0</ele><time>2026-04-29T15:03:33.45Z</time></trkpt><trkpt lat="33.5891461" lon="9.0112492"><ele>42.0</ele><time>2026-04-29T15:03:34.449Z</time></trkpt><trkpt lat="33.5893456" lon="9.0112073"><ele>42.0</ele><time>2026-04-29T15:03:35.45Z</time></trkpt><trkpt lat="33.5895391" lon="9.0111566"><ele>42.0</ele><time>2026-04-29T15:03:36.439Z</time></trkpt><trkpt lat="33.5897352" lon="9.0111059"><ele>42.333333333333336</ele><time>2026-04-29T15:03:37.459Z</time></trkpt><trkpt lat="33.589935" lon="9.0110497"><ele>42.66666666666667</ele><time>2026-04-29T15:03:38.452Z</time></trkpt><trkpt lat="33.590139" lon="9.0109883"><ele>43.0</ele><time>2026-04-29T15:03:39.451Z</time></trkpt><trkpt lat="33.5903443" lon="9.0109308"><ele>42.333333333333336</ele><time>2026-04-29T15:03:40.448Z</time></trkpt><trkpt lat="33.5905519" lon="9.0108747"><ele>41.666666666666664</ele><time>2026-04-29T15:03:41.438Z</time></trkpt><trkpt lat="33.5907597" lon="9.0108171"><ele>41.0</ele><time>2026-04-29T15:03:42.454Z</time></trkpt><trkpt lat="33.5909652" lon="9.0107563"><ele>40.666666666666664</ele><time>2026-04-29T15:03:43.456Z</time></trkpt><trkpt lat="33.5911765" lon="9.0106983"><ele>40.333333333333336</ele><time>2026-04-29T15:03:44.445Z</time></trkpt><trkpt lat="33.5913843" lon="9.0106428"><ele>40.0</ele><time>2026-04-29T15:03:45.446Z</time></trkpt><trkpt lat="33.5915891" lon="9.0105878"><ele>40.0</ele><time>2026-04-29T15:03:46.445Z</time></trkpt><trkpt lat="33.5917892" lon="9.0105302"><ele>40.0</ele><time>2026-04-29T15:03:47.439Z</time></trkpt><trkpt lat="33.591989" lon="9.0104701"><ele>40.0</ele><time>2026-04-29T15:03:48.445Z</time></trkpt><trkpt lat="33.5921891" lon="9.0104141"><ele>40.333333333333336</ele><time>2026-04-29T15:03:49.439Z</time></trkpt><trkpt lat="33.5923904" lon="9.0103566"><ele>40.666666666666664</ele><time>2026-04-29T15:03:50.452Z</time></trkpt><trkpt lat="33.5925925" lon="9.0102955"><ele>41.0</ele><time>2026-04-29T15:03:51.45Z</time></trkpt><trkpt lat="33.5927896" lon="9.0102354"><ele>40.666666666666664</ele><time>2026-04-29T15:03:52.454Z</time></trkpt><trkpt lat="33.5929859" lon="9.0101738"><ele>40.333333333333336</ele><time>2026-04-29T15:03:53.452Z</time></trkpt><trkpt lat="33.5931815" lon="9.0101311"><ele>40.0</ele><time>2026-04-29T15:03:54.458Z</time></trkpt><trkpt lat="33.5933774" lon="9.0100823"><ele>40.0</ele><time>2026-04-29T15:03:55.448Z</time></trkpt><trkpt lat="33.5935741" lon="9.0100221"><ele>40.0</ele><time>2026-04-29T15:03:56.448Z</time></trkpt><trkpt lat="33.5937619" lon="9.0099596"><ele>40.0</ele><time>2026-04-29T15:03:57.551Z</time></trkpt><trkpt lat="33.5939517" lon="9.0099058"><ele>39.66666666666667</ele><time>2026-04-29T15:03:58.514Z</time></trkpt><trkpt lat="33.594147" lon="9.0098496"><ele>39.333333333333336</ele><time>2026-04-29T15:03:59.511Z</time></trkpt><trkpt lat="33.5943377" lon="9.0097958"><ele>39.0</ele><time>2026-04-29T15:04:00.508Z</time></trkpt><trkpt lat="33.5945286" lon="9.0097403"><ele>39.666666666666664</ele><time>2026-04-29T15:04:01.495Z</time></trkpt><trkpt lat="33.5947192" lon="9.0096879"><ele>40.33333333333333</ele><time>2026-04-29T15:04:02.511Z</time></trkpt><trkpt lat="33.5949112" lon="9.0096361"><ele>41.0</ele><time>2026-04-29T15:04:03.506Z</time></trkpt><trkpt lat="33.5951009" lon="9.0095807"><ele>41.0</ele><time>2026-04-29T15:04:04.511Z</time></trkpt><trkpt lat="33.5952966" lon="9.0095294"><ele>41.0</ele><time>2026-04-29T15:04:05.508Z</time></trkpt><trkpt lat="33.5954906" lon="9.0094716"><ele>41.0</ele><time>2026-04-29T15:04:06.504Z</time></trkpt><trkpt lat="33.5956861" lon="9.0094172"><ele>41.666666666666664</ele><time>2026-04-29T15:04:07.509Z</time></trkpt><trkpt lat="33.5958796" lon="9.0093615"><ele>42.333333333333336</ele><time>2026-04-29T15:04:08.506Z</time></trkpt><trkpt lat="33.5960746" lon="9.0093038"><ele>43.0</ele><time>2026-04-29T15:04:09.511Z</time></trkpt><trkpt lat="33.5962749" lon="9.0092491"><ele>43.0</ele><time>2026-04-29T15:04:10.516Z</time></trkpt><trkpt lat="33.5964699" lon="9.0091947"><ele>43.0</ele><time>2026-04-29T15:04:11.507Z</time></trkpt><trkpt lat="33.596669" lon="9.0091434"><ele>43.0</ele><time>2026-04-29T15:04:12.499Z</time></trkpt><trkpt lat="33.5968709" lon="9.009086"><ele>42.0</ele><time>2026-04-29T15:04:13.513Z</time></trkpt><trkpt lat="33.5970749" lon="9.0090295"><ele>41.0</ele><time>2026-04-29T15:04:14.507Z</time></trkpt><trkpt lat="33.5972737" lon="9.0089709"><ele>40.0</ele><time>2026-04-29T15:04:15.502Z</time></trkpt><trkpt lat="33.597472" lon="9.0089152"><ele>40.0</ele><time>2026-04-29T15:04:16.505Z</time></trkpt><trkpt lat="33.5976714" lon="9.0088593"><ele>40.0</ele><time>2026-04-29T15:04:17.507Z</time></trkpt><trkpt lat="33.5978714" lon="9.0088037"><ele>40.0</ele><time>2026-04-29T15:04:18.511Z</time></trkpt><trkpt lat="33.5980747" lon="9.0087516"><ele>40.66666666666667</ele><time>2026-04-29T15:04:19.516Z</time></trkpt><trkpt lat="33.5982741" lon="9.0086938"><ele>41.333333333333336</ele><time>2026-04-29T15:04:20.506Z</time></trkpt><trkpt lat="33.5984791" lon="9.0086377"><ele>42.0</ele><time>2026-04-29T15:04:21.516Z</time></trkpt><trkpt lat="33.5986835" lon="9.0085761"><ele>42.333333333333336</ele><time>2026-04-29T15:04:22.509Z</time></trkpt><trkpt lat="33.5988866" lon="9.0085176"><ele>42.66666666666667</ele><time>2026-04-29T15:04:23.518Z</time></trkpt><trkpt lat="33.5990889" lon="9.0084635"><ele>43.0</ele><time>2026-04-29T15:04:24.509Z</time></trkpt><trkpt lat="33.5992916" lon="9.0084018"><ele>43.0</ele><time>2026-04-29T15:04:25.511Z</time></trkpt><trkpt lat="33.5994964" lon="9.0083471"><ele>43.0</ele><time>2026-04-29T15:04:26.512Z</time></trkpt><trkpt lat="33.5996978" lon="9.0082947"><ele>43.0</ele><time>2026-04-29T15:04:27.511Z</time></trkpt><trkpt lat="33.5999016" lon="9.0082469"><ele>42.66666666666667</ele><time>2026-04-29T15:04:28.495Z</time></trkpt><trkpt lat="33.6001099" lon="9.0082108"><ele>42.333333333333336</ele><time>2026-04-29T15:04:29.49Z</time></trkpt><trkpt lat="33.6003173" lon="9.0081793"><ele>42.0</ele><time>2026-04-29T15:04:30.517Z</time></trkpt><trkpt lat="33.6005301" lon="9.0081572"><ele>42.666666666666664</ele><time>2026-04-29T15:04:31.502Z</time></trkpt><trkpt lat="33.6007431" lon="9.0081384"><ele>43.33333333333333</ele><time>2026-04-29T15:04:32.508Z</time></trkpt><trkpt lat="33.600952" lon="9.0081222"><ele>44.0</ele><time>2026-04-29T15:04:33.498Z</time></trkpt><trkpt lat="33.601163" lon="9.0081131"><ele>44.33333333333333</ele><time>2026-04-29T15:04:34.518Z</time></trkpt><trkpt lat="33.6013752" lon="9.0081052"><ele>44.666666666666664</ele><time>2026-04-29T15:04:35.5Z</time></trkpt><trkpt lat="33.6015914" lon="9.0081078"><ele>45.0</ele><time>2026-04-29T15:04:36.516Z</time></trkpt><trkpt lat="33.6018117" lon="9.0081061"><ele>45.0</ele><time>2026-04-29T15:04:37.507Z</time></trkpt><trkpt lat="33.6020289" lon="9.0081014"><ele>45.0</ele><time>2026-04-29T15:04:38.506Z</time></trkpt><trkpt lat="33.6022438" lon="9.0080968"><ele>45.0</ele><time>2026-04-29T15:04:39.503Z</time></trkpt><trkpt lat="33.602458" lon="9.0080918"><ele>45.0</ele><time>2026-04-29T15:04:40.504Z</time></trkpt><trkpt lat="33.6026689" lon="9.0080877"><ele>45.0</ele><time>2026-04-29T15:04:41.51Z</time></trkpt><trkpt lat="33.6028835" lon="9.0080883"><ele>45.0</ele><time>2026-04-29T15:04:42.487Z</time></trkpt><trkpt lat="33.603098" lon="9.0080876"><ele>44.333333333333336</ele><time>2026-04-29T15:04:43.501Z</time></trkpt><trkpt lat="33.6033176" lon="9.0080769"><ele>43.66666666666667</ele><time>2026-04-29T15:04:44.512Z</time></trkpt><trkpt lat="33.6035317" lon="9.0080709"><ele>43.0</ele><time>2026-04-29T15:04:45.498Z</time></trkpt><trkpt lat="33.6037427" lon="9.0080638"><ele>42.66666666666667</ele><time>2026-04-29T15:04:46.505Z</time></trkpt><trkpt lat="33.60396" lon="9.0080605"><ele>42.333333333333336</ele><time>2026-04-29T15:04:47.499Z</time></trkpt><trkpt lat="33.6041753" lon="9.0080561"><ele>42.0</ele><time>2026-04-29T15:04:48.504Z</time></trkpt><trkpt lat="33.6043918" lon="9.0080494"><ele>42.0</ele><time>2026-04-29T15:04:49.504Z</time></trkpt><trkpt lat="33.6046116" lon="9.0080461"><ele>42.0</ele><time>2026-04-29T15:04:50.511Z</time></trkpt><trkpt lat="33.6048304" lon="9.008045"><ele>42.0</ele><time>2026-04-29T15:04:51.516Z</time></trkpt><trkpt lat="33.6050466" lon="9.0080456"><ele>42.0</ele><time>2026-04-29T15:04:52.503Z</time></trkpt><trkpt lat="33.6052645" lon="9.0080432"><ele>42.0</ele><time>2026-04-29T15:04:53.515Z</time></trkpt><trkpt lat="33.6054737" lon="9.0080413"><ele>42.0</ele><time>2026-04-29T15:04:54.507Z</time></trkpt><trkpt lat="33.6056933" lon="9.0080366"><ele>41.666666666666664</ele><time>2026-04-29T15:04:55.511Z</time></trkpt><trkpt lat="33.605909" lon="9.0080363"><ele>41.33333333333333</ele><time>2026-04-29T15:04:56.513Z</time></trkpt><trkpt lat="33.6061319" lon="9.0080367"><ele>41.0</ele><time>2026-04-29T15:04:57.508Z</time></trkpt><trkpt lat="33.6063492" lon="9.0080343"><ele>40.666666666666664</ele><time>2026-04-29T15:04:58.521Z</time></trkpt><trkpt lat="33.606564" lon="9.0080319"><ele>40.333333333333336</ele><time>2026-04-29T15:04:59.511Z</time></trkpt><trkpt lat="33.6067752" lon="9.0080277"><ele>40.0</ele><time>2026-04-29T15:05:00.501Z</time></trkpt><trkpt lat="33.6069926" lon="9.0080246"><ele>40.333333333333336</ele><time>2026-04-29T15:05:01.513Z</time></trkpt><trkpt lat="33.6072077" lon="9.0080227"><ele>40.666666666666664</ele><time>2026-04-29T15:05:02.511Z</time></trkpt><trkpt lat="33.6074266" lon="9.0080193"><ele>41.0</ele><time>2026-04-29T15:05:03.511Z</time></trkpt><trkpt lat="33.6076418" lon="9.0080148"><ele>40.0</ele><time>2026-04-29T15:05:04.493Z</time></trkpt><trkpt lat="33.6078568" lon="9.0080098"><ele>39.0</ele><time>2026-04-29T15:05:05.506Z</time></trkpt><trkpt lat="33.6080733" lon="9.0080098"><ele>38.0</ele><time>2026-04-29T15:05:06.506Z</time></trkpt><trkpt lat="33.6082919" lon="9.0080026"><ele>38.0</ele><time>2026-04-29T15:05:07.511Z</time></trkpt><trkpt lat="33.6085076" lon="9.0079957"><ele>38.0</ele><time>2026-04-29T15:05:08.513Z</time></trkpt><trkpt lat="33.6087242" lon="9.0079931"><ele>38.0</ele><time>2026-04-29T15:05:09.508Z</time></trkpt><trkpt lat="33.6089404" lon="9.007992"><ele>38.0</ele><time>2026-04-29T15:05:10.509Z</time></trkpt><trkpt lat="33.6091569" lon="9.0079883"><ele>38.0</ele><time>2026-04-29T15:05:11.497Z</time></trkpt><trkpt lat="33.6093754" lon="9.007992"><ele>38.0</ele><time>2026-04-29T15:05:12.505Z</time></trkpt><trkpt lat="33.6095929" lon="9.0079849"><ele>38.0</ele><time>2026-04-29T15:05:13.505Z</time></trkpt><trkpt lat="33.6098119" lon="9.007986"><ele>38.0</ele><time>2026-04-29T15:05:14.505Z</time></trkpt><trkpt lat="33.6100277" lon="9.0079827"><ele>38.0</ele><time>2026-04-29T15:05:15.498Z</time></trkpt><trkpt lat="33.6102451" lon="9.0079779"><ele>38.0</ele><time>2026-04-29T15:05:16.509Z</time></trkpt><trkpt lat="33.6104652" lon="9.0079778"><ele>38.0</ele><time>2026-04-29T15:05:17.507Z</time></trkpt><trkpt lat="33.6106826" lon="9.0079759"><ele>38.0</ele><time>2026-04-29T15:05:18.514Z</time></trkpt><trkpt lat="33.6108968" lon="9.0079732"><ele>38.0</ele><time>2026-04-29T15:05:19.505Z</time></trkpt><trkpt lat="33.6111138" lon="9.0079712"><ele>38.0</ele><time>2026-04-29T15:05:20.5Z</time></trkpt><trkpt lat="33.6113316" lon="9.0079719"><ele>38.0</ele><time>2026-04-29T15:05:21.505Z</time></trkpt><trkpt lat="33.6115481" lon="9.0079722"><ele>38.0</ele><time>2026-04-29T15:05:22.513Z</time></trkpt><trkpt lat="33.6117615" lon="9.0079727"><ele>38.0</ele><time>2026-04-29T15:05:23.505Z</time></trkpt><trkpt lat="33.6119817" lon="9.0079724"><ele>38.0</ele><time>2026-04-29T15:05:24.498Z</time></trkpt><trkpt lat="33.6121967" lon="9.0079733"><ele>38.0</ele><time>2026-04-29T15:05:25.514Z</time></trkpt><trkpt lat="33.6124112" lon="9.0079735"><ele>38.0</ele><time>2026-04-29T15:05:26.498Z</time></trkpt><trkpt lat="33.6126285" lon="9.0079728"><ele>38.0</ele><time>2026-04-29T15:05:27.546Z</time></trkpt><trkpt lat="33.6128426" lon="9.0079706"><ele>38.33333333333333</ele><time>2026-04-29T15:05:28.502Z</time></trkpt><trkpt lat="33.6130587" lon="9.0079665"><ele>38.666666666666664</ele><time>2026-04-29T15:05:29.492Z</time></trkpt><trkpt lat="33.6132745" lon="9.007962"><ele>39.0</ele><time>2026-04-29T15:05:30.495Z</time></trkpt><trkpt lat="33.6134897" lon="9.0079584"><ele>38.0</ele><time>2026-04-29T15:05:31.509Z</time></trkpt><trkpt lat="33.6137054" lon="9.0079546"><ele>37.0</ele><time>2026-04-29T15:05:32.508Z</time></trkpt><trkpt lat="33.6139206" lon="9.0079487"><ele>36.0</ele><time>2026-04-29T15:05:33.521Z</time></trkpt><trkpt lat="33.6141325" lon="9.0079396"><ele>36.0</ele><time>2026-04-29T15:05:34.499Z</time></trkpt><trkpt lat="33.6143505" lon="9.0079229"><ele>36.0</ele><time>2026-04-29T15:05:35.521Z</time></trkpt><trkpt lat="33.6145676" lon="9.007899"><ele>36.0</ele><time>2026-04-29T15:05:36.492Z</time></trkpt><trkpt lat="33.6147845" lon="9.0078691"><ele>37.0</ele><time>2026-04-29T15:05:37.492Z</time></trkpt><trkpt lat="33.6149977" lon="9.0078329"><ele>38.0</ele><time>2026-04-29T15:05:38.495Z</time></trkpt><trkpt lat="33.6152051" lon="9.007786"><ele>39.0</ele><time>2026-04-29T15:05:39.504Z</time></trkpt><trkpt lat="33.6154048" lon="9.0077284"><ele>39.0</ele><time>2026-04-29T15:05:40.506Z</time></trkpt><trkpt lat="33.6156067" lon="9.0076669"><ele>39.0</ele><time>2026-04-29T15:05:41.501Z</time></trkpt><trkpt lat="33.6158032" lon="9.007592"><ele>39.0</ele><time>2026-04-29T15:05:42.489Z</time></trkpt><trkpt lat="33.6159994" lon="9.0075097"><ele>39.333333333333336</ele><time>2026-04-29T15:05:43.494Z</time></trkpt><trkpt lat="33.6161941" lon="9.007413"><ele>39.66666666666667</ele><time>2026-04-29T15:05:44.521Z</time></trkpt><trkpt lat="33.6163899" lon="9.0073154"><ele>40.0</ele><time>2026-04-29T15:05:45.51Z</time></trkpt><trkpt lat="33.6165763" lon="9.0072119"><ele>40.0</ele><time>2026-04-29T15:05:46.51Z</time></trkpt><trkpt lat="33.6167619" lon="9.0071092"><ele>40.0</ele><time>2026-04-29T15:05:47.501Z</time></trkpt><trkpt lat="33.6169495" lon="9.0070001"><ele>40.0</ele><time>2026-04-29T15:05:48.519Z</time></trkpt><trkpt lat="33.617134" lon="9.0068906"><ele>40.0</ele><time>2026-04-29T15:05:49.501Z</time></trkpt><trkpt lat="33.6173197" lon="9.0067808"><ele>40.0</ele><time>2026-04-29T15:05:50.501Z</time></trkpt><trkpt lat="33.6174995" lon="9.0066741"><ele>40.0</ele><time>2026-04-29T15:05:51.504Z</time></trkpt><trkpt lat="33.617686" lon="9.0065632"><ele>41.333333333333336</ele><time>2026-04-29T15:05:52.491Z</time></trkpt><trkpt lat="33.6178712" lon="9.0064564"><ele>42.666666666666664</ele><time>2026-04-29T15:05:53.496Z</time></trkpt><trkpt lat="33.6180561" lon="9.0063484"><ele>44.0</ele><time>2026-04-29T15:05:54.507Z</time></trkpt><trkpt lat="33.6182428" lon="9.0062364"><ele>44.0</ele><time>2026-04-29T15:05:55.506Z</time></trkpt><trkpt lat="33.6184274" lon="9.0061255"><ele>44.0</ele><time>2026-04-29T15:05:56.509Z</time></trkpt><trkpt lat="33.6186272" lon="9.0060072"><ele>44.0</ele><time>2026-04-29T15:05:57.509Z</time></trkpt><trkpt lat="33.6188099" lon="9.0058941"><ele>42.33333333333333</ele><time>2026-04-29T15:05:58.5Z</time></trkpt><trkpt lat="33.6189949" lon="9.0057824"><ele>40.666666666666664</ele><time>2026-04-29T15:05:59.498Z</time></trkpt><trkpt lat="33.6191803" lon="9.0056694"><ele>39.0</ele><time>2026-04-29T15:06:00.497Z</time></trkpt><trkpt lat="33.6193653" lon="9.005558"><ele>39.333333333333336</ele><time>2026-04-29T15:06:01.505Z</time></trkpt><trkpt lat="33.6195467" lon="9.0054427"><ele>39.66666666666667</ele><time>2026-04-29T15:06:02.502Z</time></trkpt><trkpt lat="33.6197285" lon="9.0053283"><ele>40.0</ele><time>2026-04-29T15:06:03.509Z</time></trkpt><trkpt lat="33.619916" lon="9.0052224"><ele>40.0</ele><time>2026-04-29T15:06:04.493Z</time></trkpt><trkpt lat="33.6201041" lon="9.0051164"><ele>40.0</ele><time>2026-04-29T15:06:05.503Z</time></trkpt><trkpt lat="33.6202931" lon="9.0050106"><ele>40.0</ele><time>2026-04-29T15:06:06.495Z</time></trkpt><trkpt lat="33.6204786" lon="9.0048978"><ele>40.0</ele><time>2026-04-29T15:06:07.499Z</time></trkpt><trkpt lat="33.620662" lon="9.0047844"><ele>40.0</ele><time>2026-04-29T15:06:08.505Z</time></trkpt><trkpt lat="33.6208458" lon="9.0046696"><ele>40.0</ele><time>2026-04-29T15:06:09.486Z</time></trkpt><trkpt lat="33.6210285" lon="9.0045573"><ele>39.0</ele><time>2026-04-29T15:06:10.519Z</time></trkpt><trkpt lat="33.6212106" lon="9.0044443"><ele>38.0</ele><time>2026-04-29T15:06:11.527Z</time></trkpt><trkpt lat="33.6213947" lon="9.004335"><ele>37.0</ele><time>2026-04-29T15:06:12.533Z</time></trkpt><trkpt lat="33.6215801" lon="9.004224"><ele>37.0</ele><time>2026-04-29T15:06:13.5Z</time></trkpt><trkpt lat="33.6217684" lon="9.0041168"><ele>37.0</ele><time>2026-04-29T15:06:14.501Z</time></trkpt><trkpt lat="33.6219548" lon="9.0040097"><ele>37.0</ele><time>2026-04-29T15:06:15.496Z</time></trkpt><trkpt lat="33.6221394" lon="9.0039016"><ele>37.0</ele><time>2026-04-29T15:06:16.505Z</time></trkpt><trkpt lat="33.6223242" lon="9.0037926"><ele>37.0</ele><time>2026-04-29T15:06:17.498Z</time></trkpt><trkpt lat="33.6225099" lon="9.003683"><ele>37.0</ele><time>2026-04-29T15:06:18.504Z</time></trkpt><trkpt lat="33.6226936" lon="9.0035749"><ele>37.0</ele><time>2026-04-29T15:06:19.508Z</time></trkpt><trkpt lat="33.6228788" lon="9.0034663"><ele>37.0</ele><time>2026-04-29T15:06:20.504Z</time></trkpt><trkpt lat="33.6230627" lon="9.0033561"><ele>37.0</ele><time>2026-04-29T15:06:21.493Z</time></trkpt><trkpt lat="33.6232466" lon="9.0032476"><ele>37.0</ele><time>2026-04-29T15:06:22.504Z</time></trkpt><trkpt lat="33.6234317" lon="9.0031377"><ele>37.0</ele><time>2026-04-29T15:06:23.501Z</time></trkpt><trkpt lat="33.6236169" lon="9.0030253"><ele>37.0</ele><time>2026-04-29T15:06:24.496Z</time></trkpt><trkpt lat="33.6238018" lon="9.0029153"><ele>37.0</ele><time>2026-04-29T15:06:25.509Z</time></trkpt><trkpt lat="33.6239878" lon="9.0028047"><ele>37.0</ele><time>2026-04-29T15:06:26.512Z</time></trkpt><trkpt lat="33.6241745" lon="9.0026936"><ele>37.0</ele><time>2026-04-29T15:06:27.496Z</time></trkpt><trkpt lat="33.6243577" lon="9.0025823"><ele>37.0</ele><time>2026-04-29T15:06:28.494Z</time></trkpt><trkpt lat="33.6245434" lon="9.0024715"><ele>37.0</ele><time>2026-04-29T15:06:29.501Z</time></trkpt><trkpt lat="33.6247281" lon="9.0023607"><ele>37.0</ele><time>2026-04-29T15:06:30.49Z</time></trkpt><trkpt lat="33.6249132" lon="9.0022501"><ele>37.0</ele><time>2026-04-29T15:06:31.507Z</time></trkpt><trkpt lat="33.6250997" lon="9.0021407"><ele>37.0</ele><time>2026-04-29T15:06:32.516Z</time></trkpt><trkpt lat="33.6252852" lon="9.0020303"><ele>37.0</ele><time>2026-04-29T15:06:33.509Z</time></trkpt><trkpt lat="33.6254731" lon="9.0019219"><ele>36.333333333333336</ele><time>2026-04-29T15:06:34.508Z</time></trkpt><trkpt lat="33.6256603" lon="9.0018124"><ele>35.666666666666664</ele><time>2026-04-29T15:06:35.521Z</time></trkpt><trkpt lat="33.6258464" lon="9.0017037"><ele>35.0</ele><time>2026-04-29T15:06:36.505Z</time></trkpt><trkpt lat="33.6260324" lon="9.0015961"><ele>35.666666666666664</ele><time>2026-04-29T15:06:37.497Z</time></trkpt><trkpt lat="33.6262194" lon="9.0014855"><ele>36.333333333333336</ele><time>2026-04-29T15:06:38.495Z</time></trkpt><trkpt lat="33.6264061" lon="9.0013747"><ele>37.0</ele><time>2026-04-29T15:06:39.498Z</time></trkpt><trkpt lat="33.6265906" lon="9.001264"><ele>37.0</ele><time>2026-04-29T15:06:40.498Z</time></trkpt><trkpt lat="33.626777" lon="9.0011527"><ele>37.0</ele><time>2026-04-29T15:06:41.496Z</time></trkpt><trkpt lat="33.6269635" lon="9.0010417"><ele>37.0</ele><time>2026-04-29T15:06:42.502Z</time></trkpt><trkpt lat="33.6271523" lon="9.0009372"><ele>36.66666666666667</ele><time>2026-04-29T15:06:43.508Z</time></trkpt><trkpt lat="33.6273417" lon="9.0008375"><ele>36.333333333333336</ele><time>2026-04-29T15:06:44.505Z</time></trkpt><trkpt lat="33.627534" lon="9.0007455"><ele>36.0</ele><time>2026-04-29T15:06:45.534Z</time></trkpt><trkpt lat="33.6277287" lon="9.0006583"><ele>35.666666666666664</ele><time>2026-04-29T15:06:46.504Z</time></trkpt><trkpt lat="33.6279228" lon="9.0005725"><ele>35.33333333333333</ele><time>2026-04-29T15:06:47.512Z</time></trkpt><trkpt lat="33.6281185" lon="9.0004918"><ele>35.0</ele><time>2026-04-29T15:06:48.507Z</time></trkpt><trkpt lat="33.6283145" lon="9.0004126"><ele>35.0</ele><time>2026-04-29T15:06:49.5Z</time></trkpt><trkpt lat="33.6285107" lon="9.0003362"><ele>35.0</ele><time>2026-04-29T15:06:50.512Z</time></trkpt><trkpt lat="33.6287093" lon="9.0002618"><ele>35.0</ele><time>2026-04-29T15:06:51.519Z</time></trkpt><trkpt lat="33.6289063" lon="9.0001873"><ele>34.666666666666664</ele><time>2026-04-29T15:06:52.513Z</time></trkpt><trkpt lat="33.6291051" lon="9.0001166"><ele>34.333333333333336</ele><time>2026-04-29T15:06:53.525Z</time></trkpt><trkpt lat="33.6293042" lon="9.0000459"><ele>34.0</ele><time>2026-04-29T15:06:54.515Z</time></trkpt><trkpt lat="33.6295011" lon="8.9999755"><ele>34.0</ele><time>2026-04-29T15:06:55.51Z</time></trkpt><trkpt lat="33.6297" lon="8.9999049"><ele>34.0</ele><time>2026-04-29T15:06:56.501Z</time></trkpt><trkpt lat="33.6298997" lon="8.999832"><ele>34.0</ele><time>2026-04-29T15:06:57.524Z</time></trkpt><trkpt lat="33.6300959" lon="8.9997581"><ele>34.0</ele><time>2026-04-29T15:06:58.512Z</time></trkpt><trkpt lat="33.6302958" lon="8.9996853"><ele>34.0</ele><time>2026-04-29T15:06:59.518Z</time></trkpt><trkpt lat="33.6304904" lon="8.9996125"><ele>34.0</ele><time>2026-04-29T15:07:00.507Z</time></trkpt><trkpt lat="33.6306885" lon="8.9995412"><ele>34.0</ele><time>2026-04-29T15:07:01.517Z</time></trkpt><trkpt lat="33.6308854" lon="8.9994681"><ele>34.0</ele><time>2026-04-29T15:07:02.506Z</time></trkpt><trkpt lat="33.6310846" lon="8.9993983"><ele>34.0</ele><time>2026-04-29T15:07:03.507Z</time></trkpt><trkpt lat="33.6312838" lon="8.9993295"><ele>34.333333333333336</ele><time>2026-04-29T15:07:04.519Z</time></trkpt><trkpt lat="33.6314827" lon="8.9992608"><ele>34.666666666666664</ele><time>2026-04-29T15:07:05.511Z</time></trkpt><trkpt lat="33.6316775" lon="8.9991929"><ele>35.0</ele><time>2026-04-29T15:07:06.515Z</time></trkpt><trkpt lat="33.6318759" lon="8.9991244"><ele>34.666666666666664</ele><time>2026-04-29T15:07:07.514Z</time></trkpt><trkpt lat="33.6320746" lon="8.999055"><ele>34.333333333333336</ele><time>2026-04-29T15:07:08.523Z</time></trkpt><trkpt lat="33.6322687" lon="8.9989828"><ele>34.0</ele><time>2026-04-29T15:07:09.513Z</time></trkpt><trkpt lat="33.6324664" lon="8.9989093"><ele>34.0</ele><time>2026-04-29T15:07:10.511Z</time></trkpt><trkpt lat="33.6326646" lon="8.9988361"><ele>34.0</ele><time>2026-04-29T15:07:11.531Z</time></trkpt><trkpt lat="33.6328637" lon="8.9987628"><ele>34.0</ele><time>2026-04-29T15:07:12.504Z</time></trkpt><trkpt lat="33.6330634" lon="8.9986915"><ele>33.66666666666667</ele><time>2026-04-29T15:07:13.503Z</time></trkpt><trkpt lat="33.6332612" lon="8.9986201"><ele>33.333333333333336</ele><time>2026-04-29T15:07:14.51Z</time></trkpt><trkpt lat="33.6334606" lon="8.9985482"><ele>33.0</ele><time>2026-04-29T15:07:15.495Z</time></trkpt><trkpt lat="33.6336556" lon="8.9984782"><ele>33.0</ele><time>2026-04-29T15:07:16.504Z</time></trkpt><trkpt lat="33.6338513" lon="8.9984087"><ele>33.0</ele><time>2026-04-29T15:07:17.497Z</time></trkpt><trkpt lat="33.6340475" lon="8.9983379"><ele>33.0</ele><time>2026-04-29T15:07:18.514Z</time></trkpt><trkpt lat="33.6342459" lon="8.9982669"><ele>33.0</ele><time>2026-04-29T15:07:19.506Z</time></trkpt><trkpt lat="33.6344472" lon="8.9981945"><ele>33.0</ele><time>2026-04-29T15:07:20.497Z</time></trkpt><trkpt lat="33.634646" lon="8.9981242"><ele>33.0</ele><time>2026-04-29T15:07:21.503Z</time></trkpt><trkpt lat="33.6348436" lon="8.9980524"><ele>34.333333333333336</ele><time>2026-04-29T15:07:22.505Z</time></trkpt><trkpt lat="33.63504" lon="8.9979793"><ele>35.66666666666667</ele><time>2026-04-29T15:07:23.511Z</time></trkpt><trkpt lat="33.635236" lon="8.9979069"><ele>37.0</ele><time>2026-04-29T15:07:24.499Z</time></trkpt><trkpt lat="33.6354331" lon="8.9978348"><ele>37.333333333333336</ele><time>2026-04-29T15:07:25.509Z</time></trkpt><trkpt lat="33.6356312" lon="8.9977636"><ele>37.666666666666664</ele><time>2026-04-29T15:07:26.501Z</time></trkpt><trkpt lat="33.6358297" lon="8.9976926"><ele>38.0</ele><time>2026-04-29T15:07:27.511Z</time></trkpt><trkpt lat="33.636018" lon="8.997626"><ele>38.0</ele><time>2026-04-29T15:07:28.495Z</time></trkpt><trkpt lat="33.6361972" lon="8.9975619"><ele>38.0</ele><time>2026-04-29T15:07:29.507Z</time></trkpt><trkpt lat="33.6363693" lon="8.9975037"><ele>38.0</ele><time>2026-04-29T15:07:30.507Z</time></trkpt><trkpt lat="33.6365341" lon="8.9974462"><ele>38.0</ele><time>2026-04-29T15:07:31.502Z</time></trkpt><trkpt lat="33.6366896" lon="8.9973894"><ele>38.0</ele><time>2026-04-29T15:07:32.506Z</time></trkpt><trkpt lat="33.6368354" lon="8.9973356"><ele>38.0</ele><time>2026-04-29T15:07:33.506Z</time></trkpt><trkpt lat="33.6369741" lon="8.9972828"><ele>38.5</ele><time>2026-04-29T15:07:34.511Z</time></trkpt><trkpt lat="33.6371129" lon="8.9972329"><ele>39.0</ele><time>2026-04-29T15:07:35.509Z</time></trkpt><trkpt lat="33.6372508" lon="8.9971845"><ele>39.5</ele><time>2026-04-29T15:07:36.507Z</time></trkpt><trkpt lat="33.6373828" lon="8.9971386"><ele>40.0</ele><time>2026-04-29T15:07:37.502Z</time></trkpt><trkpt lat="33.6375174" lon="8.9970914"><ele>40.0</ele><time>2026-04-29T15:07:38.504Z</time></trkpt><trkpt lat="33.6376566" lon="8.9970454"><ele>40.0</ele><time>2026-04-29T15:07:39.501Z</time></trkpt><trkpt lat="33.6377969" lon="8.9969958"><ele>40.0</ele><time>2026-04-29T15:07:40.503Z</time></trkpt><trkpt lat="33.6379404" lon="8.9969432"><ele>40.0</ele><time>2026-04-29T15:07:41.541Z</time></trkpt><trkpt lat="33.6380845" lon="8.99689"><ele>41.0</ele><time>2026-04-29T15:07:42.52Z</time></trkpt><trkpt lat="33.6382318" lon="8.996835"><ele>42.0</ele><time>2026-04-29T15:07:43.498Z</time></trkpt><trkpt lat="33.6383821" lon="8.9967811"><ele>43.0</ele><time>2026-04-29T15:07:44.5Z</time></trkpt><trkpt lat="33.6385332" lon="8.9967282"><ele>43.0</ele><time>2026-04-29T15:07:45.511Z</time></trkpt><trkpt lat="33.6386877" lon="8.9966778"><ele>43.0</ele><time>2026-04-29T15:07:46.506Z</time></trkpt><trkpt lat="33.6388421" lon="8.9966273"><ele>43.0</ele><time>2026-04-29T15:07:47.513Z</time></trkpt><trkpt lat="33.6389938" lon="8.9965731"><ele>42.333333333333336</ele><time>2026-04-29T15:07:48.501Z</time></trkpt><trkpt lat="33.6391451" lon="8.9965192"><ele>41.666666666666664</ele><time>2026-04-29T15:07:49.504Z</time></trkpt><trkpt lat="33.639296" lon="8.9964632"><ele>41.0</ele><time>2026-04-29T15:07:50.512Z</time></trkpt><trkpt lat="33.6394467" lon="8.9964073"><ele>40.666666666666664</ele><time>2026-04-29T15:07:51.51Z</time></trkpt><trkpt lat="33.6395958" lon="8.9963517"><ele>40.333333333333336</ele><time>2026-04-29T15:07:52.514Z</time></trkpt><trkpt lat="33.6397467" lon="8.9962968"><ele>40.0</ele><time>2026-04-29T15:07:53.498Z</time></trkpt><trkpt lat="33.639899" lon="8.996242"><ele>40.0</ele><time>2026-04-29T15:07:54.511Z</time></trkpt><trkpt lat="33.6400486" lon="8.9961885"><ele>40.0</ele><time>2026-04-29T15:07:55.523Z</time></trkpt><trkpt lat="33.640194" lon="8.996136"><ele>40.0</ele><time>2026-04-29T15:07:56.504Z</time></trkpt><trkpt lat="33.6403334" lon="8.9960876"><ele>40.5</ele><time>2026-04-29T15:07:57.505Z</time></trkpt><trkpt lat="33.6404645" lon="8.996043"><ele>41.0</ele><time>2026-04-29T15:07:58.51Z</time></trkpt><trkpt lat="33.6405906" lon="8.9960012"><ele>41.5</ele><time>2026-04-29T15:07:59.512Z</time></trkpt><trkpt lat="33.6407097" lon="8.9959619"><ele>42.0</ele><time>2026-04-29T15:08:00.501Z</time></trkpt><trkpt lat="33.6408215" lon="8.9959218"><ele>42.0</ele><time>2026-04-29T15:08:01.504Z</time></trkpt><trkpt lat="33.6409208" lon="8.9958841"><ele>42.0</ele><time>2026-04-29T15:08:02.51Z</time></trkpt><trkpt lat="33.6410008" lon="8.9958496"><ele>42.0</ele><time>2026-04-29T15:08:03.506Z</time></trkpt><trkpt lat="33.6410799" lon="8.9958174"><ele>42.0</ele><time>2026-04-29T15:08:04.513Z</time></trkpt><trkpt lat="33.6411544" lon="8.9957891"><ele>42.0</ele><time>2026-04-29T15:08:05.509Z</time></trkpt><trkpt lat="33.6412313" lon="8.9957596"><ele>42.0</ele><time>2026-04-29T15:08:06.511Z</time></trkpt><trkpt lat="33.6413163" lon="8.9957269"><ele>42.2</ele><time>2026-04-29T15:08:07.508Z</time></trkpt><trkpt lat="33.641403" lon="8.9956959"><ele>42.400000000000006</ele><time>2026-04-29T15:08:08.5Z</time></trkpt><trkpt lat="33.6414939" lon="8.9956622"><ele>42.599999999999994</ele><time>2026-04-29T15:08:09.518Z</time></trkpt><trkpt lat="33.6415955" lon="8.995627"><ele>42.8</ele><time>2026-04-29T15:08:10.515Z</time></trkpt><trkpt lat="33.6416996" lon="8.995588"><ele>43.0</ele><time>2026-04-29T15:08:11.52Z</time></trkpt><trkpt lat="33.6418104" lon="8.9955499"><ele>43.0</ele><time>2026-04-29T15:08:12.51Z</time></trkpt><trkpt lat="33.6419207" lon="8.9955094"><ele>43.0</ele><time>2026-04-29T15:08:13.513Z</time></trkpt><trkpt lat="33.6420348" lon="8.9954686"><ele>43.0</ele><time>2026-04-29T15:08:14.506Z</time></trkpt><trkpt lat="33.6421513" lon="8.9954296"><ele>43.0</ele><time>2026-04-29T15:08:15.514Z</time></trkpt><trkpt lat="33.6422646" lon="8.9953875"><ele>43.25</ele><time>2026-04-29T15:08:16.515Z</time></trkpt><trkpt lat="33.6423762" lon="8.9953418"><ele>43.5</ele><time>2026-04-29T15:08:17.501Z</time></trkpt><trkpt lat="33.6424954" lon="8.9953008"><ele>43.75</ele><time>2026-04-29T15:08:18.509Z</time></trkpt><trkpt lat="33.6426137" lon="8.9952618"><ele>44.0</ele><time>2026-04-29T15:08:19.512Z</time></trkpt><trkpt lat="33.6427347" lon="8.9952163"><ele>44.2</ele><time>2026-04-29T15:08:20.504Z</time></trkpt><trkpt lat="33.6428474" lon="8.9951725"><ele>44.400000000000006</ele><time>2026-04-29T15:08:21.506Z</time></trkpt><trkpt lat="33.642953" lon="8.9951358"><ele>44.6</ele><time>2026-04-29T15:08:22.507Z</time></trkpt><trkpt lat="33.6430523" lon="8.995096"><ele>44.8</ele><time>2026-04-29T15:08:23.499Z</time></trkpt><trkpt lat="33.6431474" lon="8.995065"><ele>45.0</ele><time>2026-04-29T15:08:24.521Z</time></trkpt><trkpt lat="33.6432315" lon="8.9950334"><ele>45.0</ele><time>2026-04-29T15:08:25.576Z</time></trkpt><trkpt lat="33.6433087" lon="8.9950057"><ele>45.0</ele><time>2026-04-29T15:08:26.534Z</time></trkpt><trkpt lat="33.6433801" lon="8.9949839"><ele>45.0</ele><time>2026-04-29T15:08:27.497Z</time></trkpt><trkpt lat="33.6434548" lon="8.9949595"><ele>45.0</ele><time>2026-04-29T15:08:28.506Z</time></trkpt><trkpt lat="33.6435412" lon="8.9949308"><ele>45.0</ele><time>2026-04-29T15:08:29.501Z</time></trkpt><trkpt lat="33.6436414" lon="8.9948961"><ele>45.0</ele><time>2026-04-29T15:08:30.505Z</time></trkpt><trkpt lat="33.6437427" lon="8.9948552"><ele>45.0</ele><time>2026-04-29T15:08:31.504Z</time></trkpt><trkpt lat="33.643839" lon="8.9948108"><ele>45.0</ele><time>2026-04-29T15:08:32.5Z</time></trkpt><trkpt lat="33.6439319" lon="8.9947769"><ele>45.0</ele><time>2026-04-29T15:08:33.503Z</time></trkpt><trkpt lat="33.6440137" lon="8.9947499"><ele>45.0</ele><time>2026-04-29T15:08:34.488Z</time></trkpt><trkpt lat="33.6440885" lon="8.9947252"><ele>45.0</ele><time>2026-04-29T15:08:35.514Z</time></trkpt><trkpt lat="33.6441661" lon="8.9947029"><ele>45.0</ele><time>2026-04-29T15:08:36.513Z</time></trkpt><trkpt lat="33.6442467" lon="8.9946752"><ele>45.0</ele><time>2026-04-29T15:08:37.508Z</time></trkpt><trkpt lat="33.6443343" lon="8.994648"><ele>45.0</ele><time>2026-04-29T15:08:38.516Z</time></trkpt><trkpt lat="33.6444218" lon="8.9946129"><ele>45.0</ele><time>2026-04-29T15:08:39.513Z</time></trkpt><trkpt lat="33.644514" lon="8.9945783"><ele>45.0</ele><time>2026-04-29T15:08:40.512Z</time></trkpt><trkpt lat="33.6446043" lon="8.9945466"><ele>45.0</ele><time>2026-04-29T15:08:41.563Z</time></trkpt><trkpt lat="33.6447114" lon="8.9945127"><ele>46.0</ele><time>2026-04-29T15:08:42.509Z</time></trkpt><trkpt lat="33.6448309" lon="8.994485"><ele>47.0</ele><time>2026-04-29T15:08:43.517Z</time></trkpt><trkpt lat="33.6449627" lon="8.9944608"><ele>48.0</ele><time>2026-04-29T15:08:44.5Z</time></trkpt><trkpt lat="33.645095" lon="8.9944364"><ele>49.0</ele><time>2026-04-29T15:08:45.505Z</time></trkpt><trkpt lat="33.6452398" lon="8.9944243"><ele>48.33333333333333</ele><time>2026-04-29T15:08:46.507Z</time></trkpt><trkpt lat="33.6453863" lon="8.9944193"><ele>47.666666666666664</ele><time>2026-04-29T15:08:47.521Z</time></trkpt><trkpt lat="33.6455397" lon="8.9944273"><ele>47.0</ele><time>2026-04-29T15:08:48.515Z</time></trkpt><trkpt lat="33.6456984" lon="8.9944423"><ele>47.0</ele><time>2026-04-29T15:08:49.505Z</time></trkpt><trkpt lat="33.6458591" lon="8.9944718"><ele>47.0</ele><time>2026-04-29T15:08:50.511Z</time></trkpt><trkpt lat="33.6460187" lon="8.9945042"><ele>47.0</ele><time>2026-04-29T15:08:51.507Z</time></trkpt><trkpt lat="33.6461817" lon="8.9945389"><ele>46.33333333333333</ele><time>2026-04-29T15:08:52.508Z</time></trkpt><trkpt lat="33.6463368" lon="8.9945795"><ele>45.666666666666664</ele><time>2026-04-29T15:08:53.505Z</time></trkpt><trkpt lat="33.6465012" lon="8.9946193"><ele>45.0</ele><time>2026-04-29T15:08:54.509Z</time></trkpt><trkpt lat="33.6466656" lon="8.9946605"><ele>45.0</ele><time>2026-04-29T15:08:55.502Z</time></trkpt><trkpt lat="33.6468322" lon="8.9947033"><ele>45.0</ele><time>2026-04-29T15:08:56.511Z</time></trkpt><trkpt lat="33.6470034" lon="8.9947464"><ele>45.0</ele><time>2026-04-29T15:08:57.505Z</time></trkpt><trkpt lat="33.6471756" lon="8.9947905"><ele>45.333333333333336</ele><time>2026-04-29T15:08:58.51Z</time></trkpt><trkpt lat="33.6473512" lon="8.99484"><ele>45.66666666666667</ele><time>2026-04-29T15:08:59.51Z</time></trkpt><trkpt lat="33.6475337" lon="8.9948874"><ele>46.0</ele><time>2026-04-29T15:09:00.506Z</time></trkpt><trkpt lat="33.6477167" lon="8.9949246"><ele>45.66666666666667</ele><time>2026-04-29T15:09:01.497Z</time></trkpt><trkpt lat="33.6479105" lon="8.9949622"><ele>45.333333333333336</ele><time>2026-04-29T15:09:02.539Z</time></trkpt><trkpt lat="33.6481033" lon="8.9949903"><ele>45.0</ele><time>2026-04-29T15:09:03.496Z</time></trkpt><trkpt lat="33.6483066" lon="8.9950044"><ele>45.0</ele><time>2026-04-29T15:09:04.507Z</time></trkpt><trkpt lat="33.6485067" lon="8.9950199"><ele>45.0</ele><time>2026-04-29T15:09:05.502Z</time></trkpt><trkpt lat="33.64871" lon="8.9950251"><ele>45.0</ele><time>2026-04-29T15:09:06.515Z</time></trkpt><trkpt lat="33.6489175" lon="8.9950227"><ele>45.0</ele><time>2026-04-29T15:09:07.511Z</time></trkpt><trkpt lat="33.649123" lon="8.9950116"><ele>45.0</ele><time>2026-04-29T15:09:08.51Z</time></trkpt><trkpt lat="33.6493306" lon="8.9949919"><ele>45.0</ele><time>2026-04-29T15:09:09.519Z</time></trkpt><trkpt lat="33.649539" lon="8.9949675"><ele>44.333333333333336</ele><time>2026-04-29T15:09:10.512Z</time></trkpt><trkpt lat="33.6497511" lon="8.9949437"><ele>43.66666666666667</ele><time>2026-04-29T15:09:11.501Z</time></trkpt><trkpt lat="33.6499649" lon="8.9949151"><ele>43.0</ele><time>2026-04-29T15:09:12.508Z</time></trkpt><trkpt lat="33.6501873" lon="8.9948881"><ele>42.66666666666667</ele><time>2026-04-29T15:09:13.502Z</time></trkpt><trkpt lat="33.6504113" lon="8.9948586"><ele>42.333333333333336</ele><time>2026-04-29T15:09:14.503Z</time></trkpt><trkpt lat="33.6506319" lon="8.9948279"><ele>42.0</ele><time>2026-04-29T15:09:15.513Z</time></trkpt><trkpt lat="33.6508499" lon="8.9947997"><ele>42.0</ele><time>2026-04-29T15:09:16.509Z</time></trkpt><trkpt lat="33.651069" lon="8.994771"><ele>42.0</ele><time>2026-04-29T15:09:17.532Z</time></trkpt><trkpt lat="33.6512849" lon="8.9947437"><ele>42.0</ele><time>2026-04-29T15:09:18.512Z</time></trkpt><trkpt lat="33.6514999" lon="8.9947151"><ele>41.666666666666664</ele><time>2026-04-29T15:09:19.512Z</time></trkpt><trkpt lat="33.6517177" lon="8.9946872"><ele>41.33333333333333</ele><time>2026-04-29T15:09:20.515Z</time></trkpt><trkpt lat="33.651936" lon="8.9946585"><ele>41.0</ele><time>2026-04-29T15:09:21.516Z</time></trkpt><trkpt lat="33.6521552" lon="8.9946284"><ele>42.0</ele><time>2026-04-29T15:09:22.507Z</time></trkpt><trkpt lat="33.6523694" lon="8.9945937"><ele>43.0</ele><time>2026-04-29T15:09:23.509Z</time></trkpt><trkpt lat="33.6525883" lon="8.9945609"><ele>44.0</ele><time>2026-04-29T15:09:24.507Z</time></trkpt><trkpt lat="33.6528044" lon="8.9945232"><ele>44.0</ele><time>2026-04-29T15:09:25.532Z</time></trkpt><trkpt lat="33.6530202" lon="8.9944833"><ele>44.0</ele><time>2026-04-29T15:09:26.51Z</time></trkpt><trkpt lat="33.6532417" lon="8.9944522"><ele>44.0</ele><time>2026-04-29T15:09:27.504Z</time></trkpt><trkpt lat="33.6534571" lon="8.9944266"><ele>42.0</ele><time>2026-04-29T15:09:28.51Z</time></trkpt><trkpt lat="33.653675" lon="8.9944077"><ele>40.0</ele><time>2026-04-29T15:09:29.502Z</time></trkpt><trkpt lat="33.6538924" lon="8.9943824"><ele>38.0</ele><time>2026-04-29T15:09:30.503Z</time></trkpt><trkpt lat="33.6541119" lon="8.9943537"><ele>38.0</ele><time>2026-04-29T15:09:31.516Z</time></trkpt><trkpt lat="33.6543272" lon="8.9943237"><ele>38.0</ele><time>2026-04-29T15:09:32.518Z</time></trkpt><trkpt lat="33.6545439" lon="8.9942952"><ele>38.0</ele><time>2026-04-29T15:09:33.514Z</time></trkpt><trkpt lat="33.6547615" lon="8.9942656"><ele>37.666666666666664</ele><time>2026-04-29T15:09:34.505Z</time></trkpt><trkpt lat="33.6549796" lon="8.9942346"><ele>37.333333333333336</ele><time>2026-04-29T15:09:35.513Z</time></trkpt><trkpt lat="33.6551982" lon="8.9942072"><ele>37.0</ele><time>2026-04-29T15:09:36.502Z</time></trkpt><trkpt lat="33.6554135" lon="8.9941792"><ele>37.0</ele><time>2026-04-29T15:09:37.529Z</time></trkpt><trkpt lat="33.6556303" lon="8.9941507"><ele>37.0</ele><time>2026-04-29T15:09:38.513Z</time></trkpt><trkpt lat="33.6558484" lon="8.9941221"><ele>37.0</ele><time>2026-04-29T15:09:39.503Z</time></trkpt><trkpt lat="33.6560656" lon="8.9940932"><ele>36.0</ele><time>2026-04-29T15:09:40.527Z</time></trkpt><trkpt lat="33.6562832" lon="8.9940632"><ele>35.0</ele><time>2026-04-29T15:09:41.513Z</time></trkpt><trkpt lat="33.6565014" lon="8.9940321"><ele>34.0</ele><time>2026-04-29T15:09:42.5Z</time></trkpt><trkpt lat="33.6567198" lon="8.9940003"><ele>34.0</ele><time>2026-04-29T15:09:43.5Z</time></trkpt><trkpt lat="33.6569387" lon="8.9939715"><ele>34.0</ele><time>2026-04-29T15:09:44.496Z</time></trkpt><trkpt lat="33.657156" lon="8.9939421"><ele>34.0</ele><time>2026-04-29T15:09:45.512Z</time></trkpt><trkpt lat="33.6573718" lon="8.9939125"><ele>34.0</ele><time>2026-04-29T15:09:46.506Z</time></trkpt><trkpt lat="33.6575883" lon="8.993882"><ele>34.0</ele><time>2026-04-29T15:09:47.507Z</time></trkpt><trkpt lat="33.6578061" lon="8.9938525"><ele>34.0</ele><time>2026-04-29T15:09:48.511Z</time></trkpt><trkpt lat="33.6580209" lon="8.9938221"><ele>34.0</ele><time>2026-04-29T15:09:49.518Z</time></trkpt><trkpt lat="33.6582358" lon="8.9937923"><ele>34.0</ele><time>2026-04-29T15:09:50.494Z</time></trkpt><trkpt lat="33.6584538" lon="8.993764"><ele>34.0</ele><time>2026-04-29T15:09:51.52Z</time></trkpt><trkpt lat="33.6586734" lon="8.9937389"><ele>33.333333333333336</ele><time>2026-04-29T15:09:52.512Z</time></trkpt><trkpt lat="33.6588906" lon="8.9937122"><ele>32.666666666666664</ele><time>2026-04-29T15:09:53.51Z</time></trkpt><trkpt lat="33.6591108" lon="8.9936856"><ele>32.0</ele><time>2026-04-29T15:09:54.527Z</time></trkpt><trkpt lat="33.6593277" lon="8.9936549"><ele>33.0</ele><time>2026-04-29T15:09:55.511Z</time></trkpt><trkpt lat="33.6595435" lon="8.9936237"><ele>34.0</ele><time>2026-04-29T15:09:56.511Z</time></trkpt><trkpt lat="33.6597579" lon="8.9935914"><ele>35.0</ele><time>2026-04-29T15:09:57.517Z</time></trkpt><trkpt lat="33.6599779" lon="8.9935617"><ele>35.0</ele><time>2026-04-29T15:09:58.515Z</time></trkpt><trkpt lat="33.6601981" lon="8.993536"><ele>35.0</ele><time>2026-04-29T15:09:59.521Z</time></trkpt><trkpt lat="33.6604154" lon="8.9935112"><ele>35.0</ele><time>2026-04-29T15:10:00.513Z</time></trkpt><trkpt lat="33.6606333" lon="8.993484"><ele>35.33333333333333</ele><time>2026-04-29T15:10:01.514Z</time></trkpt><trkpt lat="33.6608513" lon="8.9934563"><ele>35.666666666666664</ele><time>2026-04-29T15:10:02.517Z</time></trkpt><trkpt lat="33.6610708" lon="8.9934281"><ele>36.0</ele><time>2026-04-29T15:10:03.515Z</time></trkpt><trkpt lat="33.66129" lon="8.9933985"><ele>35.0</ele><time>2026-04-29T15:10:04.501Z</time></trkpt><trkpt lat="33.6615096" lon="8.9933698"><ele>34.0</ele><time>2026-04-29T15:10:05.509Z</time></trkpt><trkpt lat="33.6617236" lon="8.9933404"><ele>33.0</ele><time>2026-04-29T15:10:06.512Z</time></trkpt><trkpt lat="33.6619378" lon="8.9933115"><ele>32.666666666666664</ele><time>2026-04-29T15:10:07.513Z</time></trkpt><trkpt lat="33.6621553" lon="8.9932857"><ele>32.33333333333333</ele><time>2026-04-29T15:10:08.507Z</time></trkpt><trkpt lat="33.6623739" lon="8.9932585"><ele>32.0</ele><time>2026-04-29T15:10:09.514Z</time></trkpt><trkpt lat="33.6625885" lon="8.9932307"><ele>33.0</ele><time>2026-04-29T15:10:10.513Z</time></trkpt><trkpt lat="33.662807" lon="8.9932001"><ele>34.0</ele><time>2026-04-29T15:10:11.521Z</time></trkpt><trkpt lat="33.6630236" lon="8.9931678"><ele>35.0</ele><time>2026-04-29T15:10:12.554Z</time></trkpt><trkpt lat="33.6632385" lon="8.9931342"><ele>35.0</ele><time>2026-04-29T15:10:13.521Z</time></trkpt><trkpt lat="33.6634553" lon="8.9931007"><ele>35.0</ele><time>2026-04-29T15:10:14.521Z</time></trkpt><trkpt lat="33.6636749" lon="8.9930712"><ele>35.0</ele><time>2026-04-29T15:10:15.512Z</time></trkpt><trkpt lat="33.6638917" lon="8.9930408"><ele>34.33333333333333</ele><time>2026-04-29T15:10:16.512Z</time></trkpt><trkpt lat="33.6641088" lon="8.9930125"><ele>33.666666666666664</ele><time>2026-04-29T15:10:17.536Z</time></trkpt><trkpt lat="33.6643254" lon="8.9929852"><ele>33.0</ele><time>2026-04-29T15:10:18.516Z</time></trkpt><trkpt lat="33.6645428" lon="8.9929578"><ele>32.333333333333336</ele><time>2026-04-29T15:10:19.517Z</time></trkpt><trkpt lat="33.6647609" lon="8.9929306"><ele>31.666666666666668</ele><time>2026-04-29T15:10:20.516Z</time></trkpt><trkpt lat="33.6649754" lon="8.9929008"><ele>31.0</ele><time>2026-04-29T15:10:21.511Z</time></trkpt><trkpt lat="33.6651929" lon="8.9928712"><ele>31.0</ele><time>2026-04-29T15:10:22.525Z</time></trkpt><trkpt lat="33.6654103" lon="8.9928416"><ele>31.0</ele><time>2026-04-29T15:10:23.523Z</time></trkpt><trkpt lat="33.6656286" lon="8.9928135"><ele>31.0</ele><time>2026-04-29T15:10:24.504Z</time></trkpt><trkpt lat="33.6658452" lon="8.9927841"><ele>31.0</ele><time>2026-04-29T15:10:25.513Z</time></trkpt><trkpt lat="33.6660619" lon="8.9927555"><ele>31.0</ele><time>2026-04-29T15:10:26.516Z</time></trkpt><trkpt lat="33.6662772" lon="8.9927269"><ele>31.0</ele><time>2026-04-29T15:10:27.517Z</time></trkpt><trkpt lat="33.6664942" lon="8.9926985"><ele>31.333333333333336</ele><time>2026-04-29T15:10:28.514Z</time></trkpt><trkpt lat="33.6667115" lon="8.9926699"><ele>31.666666666666664</ele><time>2026-04-29T15:10:29.516Z</time></trkpt><trkpt lat="33.6669211" lon="8.9926418"><ele>32.0</ele><time>2026-04-29T15:10:30.525Z</time></trkpt><trkpt lat="33.667121" lon="8.9926146"><ele>32.33333333333333</ele><time>2026-04-29T15:10:31.511Z</time></trkpt><trkpt lat="33.6673106" lon="8.9925899"><ele>32.666666666666664</ele><time>2026-04-29T15:10:32.525Z</time></trkpt><trkpt lat="33.6674929" lon="8.9925666"><ele>33.0</ele><time>2026-04-29T15:10:33.518Z</time></trkpt><trkpt lat="33.6676787" lon="8.9925396"><ele>32.0</ele><time>2026-04-29T15:10:34.518Z</time></trkpt><trkpt lat="33.6678659" lon="8.9925078"><ele>31.0</ele><time>2026-04-29T15:10:35.511Z</time></trkpt><trkpt lat="33.6680507" lon="8.9924819"><ele>30.0</ele><time>2026-04-29T15:10:36.505Z</time></trkpt><trkpt lat="33.6682375" lon="8.9924583"><ele>30.0</ele><time>2026-04-29T15:10:37.514Z</time></trkpt><trkpt lat="33.6684251" lon="8.9924352"><ele>30.0</ele><time>2026-04-29T15:10:38.514Z</time></trkpt><trkpt lat="33.6686126" lon="8.9924164"><ele>30.0</ele><time>2026-04-29T15:10:39.508Z</time></trkpt><trkpt lat="33.6688009" lon="8.9923967"><ele>29.666666666666664</ele><time>2026-04-29T15:10:40.513Z</time></trkpt><trkpt lat="33.6689867" lon="8.9923739"><ele>29.333333333333332</ele><time>2026-04-29T15:10:41.516Z</time></trkpt><trkpt lat="33.6691688" lon="8.9923514"><ele>29.0</ele><time>2026-04-29T15:10:42.517Z</time></trkpt><trkpt lat="33.6693533" lon="8.9923366"><ele>30.0</ele><time>2026-04-29T15:10:43.512Z</time></trkpt><trkpt lat="33.6695323" lon="8.9923233"><ele>31.0</ele><time>2026-04-29T15:10:44.514Z</time></trkpt><trkpt lat="33.6697108" lon="8.9923146"><ele>32.0</ele><time>2026-04-29T15:10:45.523Z</time></trkpt><trkpt lat="33.6698884" lon="8.9923102"><ele>32.0</ele><time>2026-04-29T15:10:46.517Z</time></trkpt><trkpt lat="33.6700669" lon="8.9923108"><ele>32.0</ele><time>2026-04-29T15:10:47.534Z</time></trkpt><trkpt lat="33.6702459" lon="8.9923169"><ele>32.0</ele><time>2026-04-29T15:10:48.522Z</time></trkpt><trkpt lat="33.6704245" lon="8.9923261"><ele>31.666666666666664</ele><time>2026-04-29T15:10:49.518Z</time></trkpt><trkpt lat="33.6706015" lon="8.9923383"><ele>31.333333333333336</ele><time>2026-04-29T15:10:50.521Z</time></trkpt><trkpt lat="33.6707774" lon="8.9923501"><ele>31.0</ele><time>2026-04-29T15:10:51.511Z</time></trkpt><trkpt lat="33.670953" lon="8.9923662"><ele>31.333333333333336</ele><time>2026-04-29T15:10:52.517Z</time></trkpt><trkpt lat="33.6711289" lon="8.9923838"><ele>31.666666666666664</ele><time>2026-04-29T15:10:53.509Z</time></trkpt><trkpt lat="33.6713026" lon="8.992401"><ele>32.0</ele><time>2026-04-29T15:10:54.504Z</time></trkpt><trkpt lat="33.6714793" lon="8.9924169"><ele>32.0</ele><time>2026-04-29T15:10:55.507Z</time></trkpt><trkpt lat="33.6716603" lon="8.9924327"><ele>32.0</ele><time>2026-04-29T15:10:56.514Z</time></trkpt><trkpt lat="33.671847" lon="8.9924506"><ele>32.0</ele><time>2026-04-29T15:10:57.507Z</time></trkpt><trkpt lat="33.6720382" lon="8.9924688"><ele>32.33333333333333</ele><time>2026-04-29T15:10:58.517Z</time></trkpt><trkpt lat="33.6722284" lon="8.9924798"><ele>32.666666666666664</ele><time>2026-04-29T15:10:59.513Z</time></trkpt><trkpt lat="33.6724243" lon="8.9924871"><ele>33.0</ele><time>2026-04-29T15:11:00.506Z</time></trkpt><trkpt lat="33.6726174" lon="8.9924861"><ele>33.666666666666664</ele><time>2026-04-29T15:11:01.513Z</time></trkpt><trkpt lat="33.6728123" lon="8.992479"><ele>34.33333333333333</ele><time>2026-04-29T15:11:02.511Z</time></trkpt><trkpt lat="33.673008" lon="8.9924641"><ele>35.0</ele><time>2026-04-29T15:11:03.508Z</time></trkpt><trkpt lat="33.6732034" lon="8.9924434"><ele>35.0</ele><time>2026-04-29T15:11:04.512Z</time></trkpt><trkpt lat="33.6733954" lon="8.9924129"><ele>35.0</ele><time>2026-04-29T15:11:05.559Z</time></trkpt><trkpt lat="33.6735868" lon="8.9923794"><ele>35.0</ele><time>2026-04-29T15:11:06.505Z</time></trkpt><trkpt lat="33.6737758" lon="8.9923406"><ele>34.33333333333333</ele><time>2026-04-29T15:11:07.514Z</time></trkpt><trkpt lat="33.6739626" lon="8.9922978"><ele>33.666666666666664</ele><time>2026-04-29T15:11:08.509Z</time></trkpt><trkpt lat="33.6741417" lon="8.9922495"><ele>33.0</ele><time>2026-04-29T15:11:09.554Z</time></trkpt><trkpt lat="33.6743262" lon="8.9922034"><ele>32.666666666666664</ele><time>2026-04-29T15:11:10.499Z</time></trkpt><trkpt lat="33.6745046" lon="8.9921527"><ele>32.33333333333333</ele><time>2026-04-29T15:11:11.509Z</time></trkpt><trkpt lat="33.6746848" lon="8.9921039"><ele>32.0</ele><time>2026-04-29T15:11:12.519Z</time></trkpt><trkpt lat="33.6748596" lon="8.9920535"><ele>32.0</ele><time>2026-04-29T15:11:13.518Z</time></trkpt><trkpt lat="33.6750291" lon="8.9920031"><ele>32.0</ele><time>2026-04-29T15:11:14.517Z</time></trkpt><trkpt lat="33.6751976" lon="8.9919553"><ele>32.0</ele><time>2026-04-29T15:11:15.53Z</time></trkpt><trkpt lat="33.6753625" lon="8.9919064"><ele>31.333333333333332</ele><time>2026-04-29T15:11:16.513Z</time></trkpt><trkpt lat="33.6755217" lon="8.9918566"><ele>30.666666666666664</ele><time>2026-04-29T15:11:17.511Z</time></trkpt><trkpt lat="33.6756837" lon="8.9918072"><ele>30.0</ele><time>2026-04-29T15:11:18.513Z</time></trkpt><trkpt lat="33.6758417" lon="8.9917571"><ele>30.0</ele><time>2026-04-29T15:11:19.511Z</time></trkpt><trkpt lat="33.6760017" lon="8.9917078"><ele>30.0</ele><time>2026-04-29T15:11:20.523Z</time></trkpt><trkpt lat="33.6761644" lon="8.9916601"><ele>30.0</ele><time>2026-04-29T15:11:21.516Z</time></trkpt><trkpt lat="33.6763253" lon="8.991611"><ele>29.333333333333336</ele><time>2026-04-29T15:11:22.509Z</time></trkpt><trkpt lat="33.6764901" lon="8.9915649"><ele>28.666666666666668</ele><time>2026-04-29T15:11:23.512Z</time></trkpt><trkpt lat="33.6766569" lon="8.9915184"><ele>28.0</ele><time>2026-04-29T15:11:24.513Z</time></trkpt><trkpt lat="33.6768207" lon="8.9914694"><ele>28.333333333333336</ele><time>2026-04-29T15:11:25.517Z</time></trkpt><trkpt lat="33.6769887" lon="8.9914225"><ele>28.666666666666664</ele><time>2026-04-29T15:11:26.516Z</time></trkpt><trkpt lat="33.6771546" lon="8.9913768"><ele>29.0</ele><time>2026-04-29T15:11:27.516Z</time></trkpt><trkpt lat="33.6773239" lon="8.9913298"><ele>29.0</ele><time>2026-04-29T15:11:28.517Z</time></trkpt><trkpt lat="33.677494" lon="8.99128"><ele>29.0</ele><time>2026-04-29T15:11:29.502Z</time></trkpt><trkpt lat="33.6776615" lon="8.9912294"><ele>29.0</ele><time>2026-04-29T15:11:30.544Z</time></trkpt><trkpt lat="33.6778283" lon="8.9911804"><ele>29.333333333333332</ele><time>2026-04-29T15:11:31.507Z</time></trkpt><trkpt lat="33.677999" lon="8.9911313"><ele>29.666666666666664</ele><time>2026-04-29T15:11:32.507Z</time></trkpt><trkpt lat="33.6781685" lon="8.9910814"><ele>30.0</ele><time>2026-04-29T15:11:33.501Z</time></trkpt><trkpt lat="33.6783375" lon="8.9910299"><ele>30.0</ele><time>2026-04-29T15:11:34.532Z</time></trkpt><trkpt lat="33.6784999" lon="8.9909806"><ele>30.0</ele><time>2026-04-29T15:11:35.504Z</time></trkpt><trkpt lat="33.6786539" lon="8.9909318"><ele>30.0</ele><time>2026-04-29T15:11:36.511Z</time></trkpt><trkpt lat="33.6788039" lon="8.9908892"><ele>30.0</ele><time>2026-04-29T15:11:37.52Z</time></trkpt><trkpt lat="33.6789396" lon="8.9908462"><ele>30.0</ele><time>2026-04-29T15:11:38.569Z</time></trkpt><trkpt lat="33.6790704" lon="8.9908072"><ele>30.0</ele><time>2026-04-29T15:11:39.519Z</time></trkpt><trkpt lat="33.6791962" lon="8.9907725"><ele>30.0</ele><time>2026-04-29T15:11:40.514Z</time></trkpt><trkpt lat="33.6793142" lon="8.9907415"><ele>30.0</ele><time>2026-04-29T15:11:41.526Z</time></trkpt><trkpt lat="33.6794296" lon="8.9907152"><ele>30.0</ele><time>2026-04-29T15:11:42.509Z</time></trkpt><trkpt lat="33.6795378" lon="8.9906904"><ele>30.0</ele><time>2026-04-29T15:11:43.509Z</time></trkpt><trkpt lat="33.6796214" lon="8.9906752"><ele>30.0</ele><time>2026-04-29T15:11:44.519Z</time></trkpt><trkpt lat="33.6797027" lon="8.9906581"><ele>30.0</ele><time>2026-04-29T15:11:45.507Z</time></trkpt><trkpt lat="33.6797794" lon="8.9906495"><ele>30.166666666666668</ele><time>2026-04-29T15:11:46.518Z</time></trkpt><trkpt lat="33.6798509" lon="8.9906584"><ele>30.333333333333336</ele><time>2026-04-29T15:11:47.514Z</time></trkpt><trkpt lat="33.6799259" lon="8.9906696"><ele>30.5</ele><time>2026-04-29T15:11:48.516Z</time></trkpt><trkpt lat="33.6800118" lon="8.9906591"><ele>30.666666666666668</ele><time>2026-04-29T15:11:49.518Z</time></trkpt><trkpt lat="33.6801" lon="8.9906195"><ele>30.833333333333336</ele><time>2026-04-29T15:11:50.53Z</time></trkpt><trkpt lat="33.680199" lon="8.9905501"><ele>31.0</ele><time>2026-04-29T15:11:51.517Z</time></trkpt><trkpt lat="33.680322" lon="8.9904767"><ele>31.0</ele><time>2026-04-29T15:11:52.523Z</time></trkpt><trkpt lat="33.6804653" lon="8.9904277"><ele>31.0</ele><time>2026-04-29T15:11:53.508Z</time></trkpt><trkpt lat="33.6806356" lon="8.9903743"><ele>31.0</ele><time>2026-04-29T15:11:54.514Z</time></trkpt><trkpt lat="33.6808219" lon="8.9903172"><ele>31.0</ele><time>2026-04-29T15:11:55.52Z</time></trkpt><trkpt lat="33.6810229" lon="8.990258"><ele>31.0</ele><time>2026-04-29T15:11:56.517Z</time></trkpt><trkpt lat="33.6812259" lon="8.9901967"><ele>31.0</ele><time>2026-04-29T15:11:57.516Z</time></trkpt><trkpt lat="33.6814326" lon="8.9901328"><ele>31.333333333333336</ele><time>2026-04-29T15:11:58.504Z</time></trkpt><trkpt lat="33.681639" lon="8.9900689"><ele>31.666666666666664</ele><time>2026-04-29T15:11:59.551Z</time></trkpt><trkpt lat="33.6818359" lon="8.9900014"><ele>32.0</ele><time>2026-04-29T15:12:00.513Z</time></trkpt><trkpt lat="33.6820284" lon="8.9899389"><ele>32.666666666666664</ele><time>2026-04-29T15:12:01.51Z</time></trkpt><trkpt lat="33.6822265" lon="8.989885"><ele>33.333333333333336</ele><time>2026-04-29T15:12:02.506Z</time></trkpt><trkpt lat="33.6824148" lon="8.9898275"><ele>34.0</ele><time>2026-04-29T15:12:03.519Z</time></trkpt><trkpt lat="33.6826031" lon="8.989776"><ele>33.66666666666667</ele><time>2026-04-29T15:12:04.501Z</time></trkpt><trkpt lat="33.6827903" lon="8.9897214"><ele>33.333333333333336</ele><time>2026-04-29T15:12:05.5Z</time></trkpt><trkpt lat="33.6829748" lon="8.9896683"><ele>33.0</ele><time>2026-04-29T15:12:06.514Z</time></trkpt><trkpt lat="33.6831611" lon="8.9896153"><ele>33.0</ele><time>2026-04-29T15:12:07.518Z</time></trkpt><trkpt lat="33.6833425" lon="8.9895593"><ele>33.0</ele><time>2026-04-29T15:12:08.506Z</time></trkpt><trkpt lat="33.6835232" lon="8.9895062"><ele>33.0</ele><time>2026-04-29T15:12:09.608Z</time></trkpt><trkpt lat="33.6837043" lon="8.9894539"><ele>33.0</ele><time>2026-04-29T15:12:10.514Z</time></trkpt><trkpt lat="33.6838823" lon="8.9894017"><ele>33.0</ele><time>2026-04-29T15:12:11.521Z</time></trkpt><trkpt lat="33.6840598" lon="8.9893478"><ele>33.0</ele><time>2026-04-29T15:12:12.51Z</time></trkpt><trkpt lat="33.6842381" lon="8.9892898"><ele>33.0</ele><time>2026-04-29T15:12:13.505Z</time></trkpt><trkpt lat="33.6844157" lon="8.9892229"><ele>33.0</ele><time>2026-04-29T15:12:14.501Z</time></trkpt><trkpt lat="33.6845933" lon="8.9891482"><ele>33.0</ele><time>2026-04-29T15:12:15.523Z</time></trkpt><trkpt lat="33.6847678" lon="8.9890623"><ele>33.333333333333336</ele><time>2026-04-29T15:12:16.505Z</time></trkpt><trkpt lat="33.6849391" lon="8.9889597"><ele>33.66666666666667</ele><time>2026-04-29T15:12:17.517Z</time></trkpt><trkpt lat="33.6851135" lon="8.9888538"><ele>34.0</ele><time>2026-04-29T15:12:18.519Z</time></trkpt><trkpt lat="33.6852947" lon="8.9887514"><ele>34.333333333333336</ele><time>2026-04-29T15:12:19.51Z</time></trkpt><trkpt lat="33.6854793" lon="8.9886537"><ele>34.666666666666664</ele><time>2026-04-29T15:12:20.54Z</time></trkpt><trkpt lat="33.6856579" lon="8.9885449"><ele>35.0</ele><time>2026-04-29T15:12:21.507Z</time></trkpt><trkpt lat="33.6858291" lon="8.9884285"><ele>35.0</ele><time>2026-04-29T15:12:22.501Z</time></trkpt><trkpt lat="33.6859956" lon="8.9883074"><ele>35.0</ele><time>2026-04-29T15:12:23.521Z</time></trkpt><trkpt lat="33.6861585" lon="8.9881876"><ele>35.0</ele><time>2026-04-29T15:12:24.536Z</time></trkpt><trkpt lat="33.6863204" lon="8.9880659"><ele>35.0</ele><time>2026-04-29T15:12:25.502Z</time></trkpt><trkpt lat="33.6864769" lon="8.9879463"><ele>35.0</ele><time>2026-04-29T15:12:26.514Z</time></trkpt><trkpt lat="33.6866221" lon="8.987833"><ele>35.0</ele><time>2026-04-29T15:12:27.512Z</time></trkpt><trkpt lat="33.6867631" lon="8.987722"><ele>35.0</ele><time>2026-04-29T15:12:28.507Z</time></trkpt><trkpt lat="33.6868915" lon="8.9876216"><ele>35.0</ele><time>2026-04-29T15:12:29.507Z</time></trkpt><trkpt lat="33.6870189" lon="8.9875262"><ele>35.0</ele><time>2026-04-29T15:12:30.513Z</time></trkpt><trkpt lat="33.68712" lon="8.9874497"><ele>35.0</ele><time>2026-04-29T15:12:31.518Z</time></trkpt><trkpt lat="33.6872094" lon="8.9873741"><ele>36.0</ele><time>2026-04-29T15:12:32.528Z</time></trkpt><trkpt lat="33.6872897" lon="8.9873142"><ele>37.0</ele><time>2026-04-29T15:12:33.52Z</time></trkpt><trkpt lat="33.687424" lon="8.9872207"><ele>38.0</ele><time>2026-04-29T15:12:34.501Z</time></trkpt><trkpt lat="33.6875014" lon="8.9871665"><ele>39.0</ele><time>2026-04-29T15:12:35.509Z</time></trkpt><trkpt lat="33.687569" lon="8.9871208"><ele>40.0</ele><time>2026-04-29T15:12:36.519Z</time></trkpt><trkpt lat="33.6876251" lon="8.9870714"><ele>40.0</ele><time>2026-04-29T15:12:37.506Z</time></trkpt><trkpt lat="33.6876842" lon="8.9870254"><ele>40.0</ele><time>2026-04-29T15:12:38.518Z</time></trkpt><trkpt lat="33.687745" lon="8.9869783"><ele>40.0</ele><time>2026-04-29T15:12:39.516Z</time></trkpt><trkpt lat="33.6878099" lon="8.9869318"><ele>40.0</ele><time>2026-04-29T15:12:40.513Z</time></trkpt><trkpt lat="33.6878697" lon="8.9868897"><ele>40.0</ele><time>2026-04-29T15:12:41.515Z</time></trkpt><trkpt lat="33.6879307" lon="8.9868465"><ele>40.0</ele><time>2026-04-29T15:12:42.535Z</time></trkpt><trkpt lat="33.6879941" lon="8.9868037"><ele>40.0</ele><time>2026-04-29T15:12:43.515Z</time></trkpt><trkpt lat="33.6880537" lon="8.9867582"><ele>40.25</ele><time>2026-04-29T15:12:44.517Z</time></trkpt><trkpt lat="33.6881809" lon="8.9866752"><ele>40.5</ele><time>2026-04-29T15:12:46.513Z</time></trkpt><trkpt lat="33.6882747" lon="8.9866157"><ele>40.75</ele><time>2026-04-29T15:12:47.501Z</time></trkpt><trkpt lat="33.6883791" lon="8.9865563"><ele>41.0</ele><time>2026-04-29T15:12:48.516Z</time></trkpt><trkpt lat="33.6884894" lon="8.9864959"><ele>41.0</ele><time>2026-04-29T15:12:49.511Z</time></trkpt><trkpt lat="33.6886" lon="8.986436"><ele>41.0</ele><time>2026-04-29T15:12:50.514Z</time></trkpt><trkpt lat="33.688715" lon="8.9863771"><ele>41.0</ele><time>2026-04-29T15:12:51.51Z</time></trkpt><trkpt lat="33.6888295" lon="8.9863172"><ele>41.0</ele><time>2026-04-29T15:12:52.517Z</time></trkpt><trkpt lat="33.6889416" lon="8.9862621"><ele>41.0</ele><time>2026-04-29T15:12:53.512Z</time></trkpt><trkpt lat="33.6890515" lon="8.9862129"><ele>41.0</ele><time>2026-04-29T15:12:54.512Z</time></trkpt><trkpt lat="33.6891617" lon="8.986163"><ele>41.0</ele><time>2026-04-29T15:12:55.517Z</time></trkpt><trkpt lat="33.68927" lon="8.9861178"><ele>41.0</ele><time>2026-04-29T15:12:56.513Z</time></trkpt><trkpt lat="33.6893781" lon="8.9860728"><ele>41.0</ele><time>2026-04-29T15:12:57.517Z</time></trkpt><trkpt lat="33.689483" lon="8.9860297"><ele>41.0</ele><time>2026-04-29T15:12:58.53Z</time></trkpt><trkpt lat="33.6895884" lon="8.9859874"><ele>41.0</ele><time>2026-04-29T15:12:59.512Z</time></trkpt><trkpt lat="33.6896929" lon="8.9859478"><ele>41.0</ele><time>2026-04-29T15:13:00.516Z</time></trkpt><trkpt lat="33.6897995" lon="8.9859102"><ele>41.0</ele><time>2026-04-29T15:13:01.515Z</time></trkpt><trkpt lat="33.6899055" lon="8.9858717"><ele>41.0</ele><time>2026-04-29T15:13:02.515Z</time></trkpt><trkpt lat="33.6900028" lon="8.9858308"><ele>41.0</ele><time>2026-04-29T15:13:03.523Z</time></trkpt><trkpt lat="33.6900943" lon="8.9857905"><ele>41.0</ele><time>2026-04-29T15:13:04.516Z</time></trkpt><trkpt lat="33.6901725" lon="8.9857538"><ele>41.0</ele><time>2026-04-29T15:13:05.508Z</time></trkpt><trkpt lat="33.6902458" lon="8.9857189"><ele>41.0</ele><time>2026-04-29T15:13:06.514Z</time></trkpt><trkpt lat="33.6903145" lon="8.9856889"><ele>41.0</ele><time>2026-04-29T15:13:07.514Z</time></trkpt><trkpt lat="33.6903808" lon="8.9856642"><ele>41.4</ele><time>2026-04-29T15:13:08.503Z</time></trkpt><trkpt lat="33.6904506" lon="8.9856449"><ele>41.8</ele><time>2026-04-29T15:13:09.504Z</time></trkpt><trkpt lat="33.6905411" lon="8.9856029"><ele>42.199999999999996</ele><time>2026-04-29T15:13:10.506Z</time></trkpt><trkpt lat="33.6906369" lon="8.9855704"><ele>42.599999999999994</ele><time>2026-04-29T15:13:11.509Z</time></trkpt><trkpt lat="33.6907524" lon="8.9855336"><ele>43.0</ele><time>2026-04-29T15:13:12.51Z</time></trkpt><trkpt lat="33.6908746" lon="8.9854923"><ele>43.0</ele><time>2026-04-29T15:13:13.509Z</time></trkpt><trkpt lat="33.6910026" lon="8.9854501"><ele>43.0</ele><time>2026-04-29T15:13:14.508Z</time></trkpt><trkpt lat="33.6911284" lon="8.9854061"><ele>43.0</ele><time>2026-04-29T15:13:15.532Z</time></trkpt><trkpt lat="33.6912522" lon="8.9853628"><ele>43.0</ele><time>2026-04-29T15:13:16.514Z</time></trkpt><trkpt lat="33.6913767" lon="8.9853207"><ele>43.5</ele><time>2026-04-29T15:13:17.5Z</time></trkpt><trkpt lat="33.6914998" lon="8.985278"><ele>44.0</ele><time>2026-04-29T15:13:18.511Z</time></trkpt><trkpt lat="33.6916156" lon="8.9852334"><ele>44.5</ele><time>2026-04-29T15:13:19.507Z</time></trkpt><trkpt lat="33.691723" lon="8.9851928"><ele>45.0</ele><time>2026-04-29T15:13:20.514Z</time></trkpt><trkpt lat="33.6918271" lon="8.985157"><ele>45.0</ele><time>2026-04-29T15:13:21.508Z</time></trkpt><trkpt lat="33.6919226" lon="8.9851243"><ele>45.0</ele><time>2026-04-29T15:13:22.505Z</time></trkpt><trkpt lat="33.6919876" lon="8.985098"><ele>45.0</ele><time>2026-04-29T15:13:23.507Z</time></trkpt><trkpt lat="33.6920575" lon="8.9850624"><ele>45.0</ele><time>2026-04-29T15:13:24.511Z</time></trkpt><trkpt lat="33.6921733" lon="8.985019"><ele>45.0</ele><time>2026-04-29T15:13:26.497Z</time></trkpt><trkpt lat="33.69224" lon="8.9849963"><ele>45.0</ele><time>2026-04-29T15:13:27.517Z</time></trkpt><trkpt lat="33.692323" lon="8.9849634"><ele>44.75</ele><time>2026-04-29T15:13:28.507Z</time></trkpt><trkpt lat="33.6924244" lon="8.9849213"><ele>44.5</ele><time>2026-04-29T15:13:29.503Z</time></trkpt><trkpt lat="33.6925363" lon="8.9848793"><ele>44.25</ele><time>2026-04-29T15:13:30.507Z</time></trkpt><trkpt lat="33.6926533" lon="8.9848305"><ele>44.0</ele><time>2026-04-29T15:13:31.507Z</time></trkpt><trkpt lat="33.6927682" lon="8.9847904"><ele>44.6</ele><time>2026-04-29T15:13:32.519Z</time></trkpt><trkpt lat="33.6928801" lon="8.9847553"><ele>45.2</ele><time>2026-04-29T15:13:33.505Z</time></trkpt><trkpt lat="33.6929841" lon="8.9847205"><ele>45.800000000000004</ele><time>2026-04-29T15:13:34.507Z</time></trkpt><trkpt lat="33.6930785" lon="8.9846877"><ele>46.400000000000006</ele><time>2026-04-29T15:13:35.519Z</time></trkpt><trkpt lat="33.6931711" lon="8.9846509"><ele>47.0</ele><time>2026-04-29T15:13:36.513Z</time></trkpt><trkpt lat="33.6932714" lon="8.984612"><ele>47.0</ele><time>2026-04-29T15:13:37.51Z</time></trkpt><trkpt lat="33.6933761" lon="8.9845698"><ele>47.0</ele><time>2026-04-29T15:13:38.512Z</time></trkpt><trkpt lat="33.6934787" lon="8.9845307"><ele>47.0</ele><time>2026-04-29T15:13:39.515Z</time></trkpt><trkpt lat="33.693578" lon="8.984494"><ele>47.0</ele><time>2026-04-29T15:13:40.512Z</time></trkpt><trkpt lat="33.6936838" lon="8.984459"><ele>47.0</ele><time>2026-04-29T15:13:41.51Z</time></trkpt><trkpt lat="33.6937925" lon="8.9844311"><ele>47.2</ele><time>2026-04-29T15:13:42.516Z</time></trkpt><trkpt lat="33.6938991" lon="8.9844034"><ele>47.400000000000006</ele><time>2026-04-29T15:13:43.517Z</time></trkpt><trkpt lat="33.6940047" lon="8.984367"><ele>47.599999999999994</ele><time>2026-04-29T15:13:44.513Z</time></trkpt><trkpt lat="33.6941092" lon="8.9843271"><ele>47.8</ele><time>2026-04-29T15:13:45.509Z</time></trkpt><trkpt lat="33.6942125" lon="8.9842912"><ele>48.0</ele><time>2026-04-29T15:13:46.504Z</time></trkpt><trkpt lat="33.6943182" lon="8.984256"><ele>48.0</ele><time>2026-04-29T15:13:47.515Z</time></trkpt><trkpt lat="33.6944192" lon="8.9842131"><ele>48.0</ele><time>2026-04-29T15:13:48.512Z</time></trkpt><trkpt lat="33.6945199" lon="8.9841733"><ele>48.0</ele><time>2026-04-29T15:13:49.514Z</time></trkpt><trkpt lat="33.6946151" lon="8.9841385"><ele>48.0</ele><time>2026-04-29T15:13:50.511Z</time></trkpt><trkpt lat="33.6946963" lon="8.9841061"><ele>48.0</ele><time>2026-04-29T15:13:51.516Z</time></trkpt><trkpt lat="33.6947711" lon="8.9840733"><ele>47.8</ele><time>2026-04-29T15:13:52.513Z</time></trkpt><trkpt lat="33.6948499" lon="8.9840474"><ele>47.599999999999994</ele><time>2026-04-29T15:13:53.508Z</time></trkpt><trkpt lat="33.6949353" lon="8.9840156"><ele>47.400000000000006</ele><time>2026-04-29T15:13:54.53Z</time></trkpt><trkpt lat="33.6950303" lon="8.9839768"><ele>47.2</ele><time>2026-04-29T15:13:55.505Z</time></trkpt><trkpt lat="33.695137" lon="8.9839307"><ele>47.0</ele><time>2026-04-29T15:13:56.512Z</time></trkpt><trkpt lat="33.6952489" lon="8.9838715"><ele>47.33333333333333</ele><time>2026-04-29T15:13:57.508Z</time></trkpt><trkpt lat="33.6953766" lon="8.983786"><ele>47.666666666666664</ele><time>2026-04-29T15:13:58.505Z</time></trkpt><trkpt lat="33.6954994" lon="8.9836861"><ele>48.0</ele><time>2026-04-29T15:13:59.509Z</time></trkpt><trkpt lat="33.6956234" lon="8.9835695"><ele>48.0</ele><time>2026-04-29T15:14:00.499Z</time></trkpt><trkpt lat="33.6957481" lon="8.9834538"><ele>48.0</ele><time>2026-04-29T15:14:01.513Z</time></trkpt><trkpt lat="33.6958631" lon="8.9833382"><ele>48.0</ele><time>2026-04-29T15:14:02.502Z</time></trkpt><trkpt lat="33.6959759" lon="8.9832219"><ele>47.5</ele><time>2026-04-29T15:14:03.509Z</time></trkpt><trkpt lat="33.6960837" lon="8.9831092"><ele>47.0</ele><time>2026-04-29T15:14:04.503Z</time></trkpt><trkpt lat="33.6961842" lon="8.9830029"><ele>46.5</ele><time>2026-04-29T15:14:05.513Z</time></trkpt><trkpt lat="33.6962742" lon="8.9829144"><ele>46.0</ele><time>2026-04-29T15:14:06.513Z</time></trkpt><trkpt lat="33.6963679" lon="8.9828116"><ele>46.0</ele><time>2026-04-29T15:14:07.518Z</time></trkpt><trkpt lat="33.6964655" lon="8.9827044"><ele>46.0</ele><time>2026-04-29T15:14:08.509Z</time></trkpt><trkpt lat="33.696561" lon="8.9825988"><ele>46.0</ele><time>2026-04-29T15:14:09.564Z</time></trkpt><trkpt lat="33.6966505" lon="8.9825029"><ele>46.0</ele><time>2026-04-29T15:14:10.503Z</time></trkpt><trkpt lat="33.6967331" lon="8.9824074"><ele>46.0</ele><time>2026-04-29T15:14:11.499Z</time></trkpt><trkpt lat="33.6968084" lon="8.9823281"><ele>46.0</ele><time>2026-04-29T15:14:12.5Z</time></trkpt><trkpt lat="33.6968781" lon="8.9822541"><ele>46.0</ele><time>2026-04-29T15:14:13.502Z</time></trkpt><trkpt lat="33.6969505" lon="8.982182"><ele>46.0</ele><time>2026-04-29T15:14:14.498Z</time></trkpt><trkpt lat="33.697019" lon="8.9821091"><ele>46.0</ele><time>2026-04-29T15:14:15.493Z</time></trkpt><trkpt lat="33.6971027" lon="8.9820173"><ele>46.0</ele><time>2026-04-29T15:14:16.49Z</time></trkpt><trkpt lat="33.6971888" lon="8.9819284"><ele>46.0</ele><time>2026-04-29T15:14:17.495Z</time></trkpt><trkpt lat="33.6972757" lon="8.9818474"><ele>46.0</ele><time>2026-04-29T15:14:18.5Z</time></trkpt><trkpt lat="33.6973675" lon="8.9817531"><ele>46.0</ele><time>2026-04-29T15:14:19.513Z</time></trkpt><trkpt lat="33.6974572" lon="8.9816568"><ele>46.0</ele><time>2026-04-29T15:14:20.51Z</time></trkpt><trkpt lat="33.6975479" lon="8.9815614"><ele>46.0</ele><time>2026-04-29T15:14:21.498Z</time></trkpt><trkpt lat="33.6976373" lon="8.9814574"><ele>46.0</ele><time>2026-04-29T15:14:22.506Z</time></trkpt><trkpt lat="33.6977285" lon="8.9813532"><ele>46.0</ele><time>2026-04-29T15:14:23.508Z</time></trkpt><trkpt lat="33.697822" lon="8.9812585"><ele>46.0</ele><time>2026-04-29T15:14:24.495Z</time></trkpt><trkpt lat="33.6979123" lon="8.9811657"><ele>46.0</ele><time>2026-04-29T15:14:25.55Z</time></trkpt><trkpt lat="33.6979983" lon="8.9810707"><ele>46.0</ele><time>2026-04-29T15:14:26.513Z</time></trkpt><trkpt lat="33.6980857" lon="8.9809726"><ele>46.0</ele><time>2026-04-29T15:14:27.511Z</time></trkpt><trkpt lat="33.6981711" lon="8.9808766"><ele>46.0</ele><time>2026-04-29T15:14:28.507Z</time></trkpt><trkpt lat="33.6982466" lon="8.9807917"><ele>46.0</ele><time>2026-04-29T15:14:29.496Z</time></trkpt><trkpt lat="33.698349" lon="8.9806974"><ele>46.0</ele><time>2026-04-29T15:14:30.508Z</time></trkpt><trkpt lat="33.6984115" lon="8.9806213"><ele>46.0</ele><time>2026-04-29T15:14:31.509Z</time></trkpt><trkpt lat="33.6984716" lon="8.9805565"><ele>46.0</ele><time>2026-04-29T15:14:32.506Z</time></trkpt><trkpt lat="33.6985224" lon="8.9804929"><ele>46.0</ele><time>2026-04-29T15:14:33.507Z</time></trkpt><trkpt lat="33.6985779" lon="8.9804241"><ele>46.0</ele><time>2026-04-29T15:14:34.503Z</time></trkpt><trkpt lat="33.6986391" lon="8.9803515"><ele>46.0</ele><time>2026-04-29T15:14:35.514Z</time></trkpt><trkpt lat="33.6987081" lon="8.9802617"><ele>46.0</ele><time>2026-04-29T15:14:36.512Z</time></trkpt><trkpt lat="33.6987718" lon="8.9801636"><ele>46.0</ele><time>2026-04-29T15:14:37.509Z</time></trkpt><trkpt lat="33.6988488" lon="8.980052"><ele>45.25</ele><time>2026-04-29T15:14:38.523Z</time></trkpt><trkpt lat="33.6989159" lon="8.9799267"><ele>44.5</ele><time>2026-04-29T15:14:39.53Z</time></trkpt><trkpt lat="33.6989751" lon="8.9797939"><ele>43.75</ele><time>2026-04-29T15:14:40.512Z</time></trkpt><trkpt lat="33.6990293" lon="8.9796633"><ele>43.0</ele><time>2026-04-29T15:14:41.508Z</time></trkpt><trkpt lat="33.6990483" lon="8.9795161"><ele>43.0</ele><time>2026-04-29T15:14:42.545Z</time></trkpt><trkpt lat="33.6990936" lon="8.979376"><ele>43.0</ele><time>2026-04-29T15:14:43.507Z</time></trkpt><trkpt lat="33.6991395" lon="8.9792337"><ele>43.0</ele><time>2026-04-29T15:14:44.511Z</time></trkpt><trkpt lat="33.6991887" lon="8.9790994"><ele>43.0</ele><time>2026-04-29T15:14:45.516Z</time></trkpt><trkpt lat="33.6992353" lon="8.9789828"><ele>43.16666666666667</ele><time>2026-04-29T15:14:46.507Z</time></trkpt><trkpt lat="33.6992804" lon="8.9788793"><ele>43.333333333333336</ele><time>2026-04-29T15:14:47.524Z</time></trkpt><trkpt lat="33.6993249" lon="8.9787925"><ele>43.5</ele><time>2026-04-29T15:14:48.511Z</time></trkpt><trkpt lat="33.6993746" lon="8.9787174"><ele>43.666666666666664</ele><time>2026-04-29T15:14:49.518Z</time></trkpt><trkpt lat="33.6994207" lon="8.9786535"><ele>43.83333333333333</ele><time>2026-04-29T15:14:50.512Z</time></trkpt><trkpt lat="33.6994876" lon="8.9786004"><ele>44.0</ele><time>2026-04-29T15:14:51.446Z</time></trkpt><trkpt lat="33.6995453" lon="8.9785323"><ele>44.75</ele><time>2026-04-29T15:14:52.449Z</time></trkpt><trkpt lat="33.6996124" lon="8.9784505"><ele>45.5</ele><time>2026-04-29T15:14:53.452Z</time></trkpt><trkpt lat="33.6996899" lon="8.978361"><ele>46.25</ele><time>2026-04-29T15:14:54.454Z</time></trkpt><trkpt lat="33.6997825" lon="8.9782656"><ele>47.0</ele><time>2026-04-29T15:14:55.453Z</time></trkpt><trkpt lat="33.6998829" lon="8.9781673"><ele>47.75</ele><time>2026-04-29T15:14:56.459Z</time></trkpt><trkpt lat="33.6999826" lon="8.9780662"><ele>48.5</ele><time>2026-04-29T15:14:57.454Z</time></trkpt><trkpt lat="33.7000762" lon="8.9779751"><ele>49.25</ele><time>2026-04-29T15:14:58.462Z</time></trkpt><trkpt lat="33.7001653" lon="8.9778895"><ele>50.0</ele><time>2026-04-29T15:14:59.481Z</time></trkpt><trkpt lat="33.7002501" lon="8.9778108"><ele>50.0</ele><time>2026-04-29T15:15:00.452Z</time></trkpt><trkpt lat="33.7003222" lon="8.9777372"><ele>50.0</ele><time>2026-04-29T15:15:01.452Z</time></trkpt><trkpt lat="33.7003878" lon="8.9776681"><ele>50.0</ele><time>2026-04-29T15:15:02.452Z</time></trkpt><trkpt lat="33.7004615" lon="8.9775985"><ele>50.0</ele><time>2026-04-29T15:15:03.447Z</time></trkpt><trkpt lat="33.7005446" lon="8.9775139"><ele>50.0</ele><time>2026-04-29T15:15:04.449Z</time></trkpt><trkpt lat="33.7006498" lon="8.9774162"><ele>50.0</ele><time>2026-04-29T15:15:05.447Z</time></trkpt><trkpt lat="33.7007585" lon="8.9773132"><ele>50.0</ele><time>2026-04-29T15:15:06.469Z</time></trkpt><trkpt lat="33.7008672" lon="8.9772085"><ele>50.0</ele><time>2026-04-29T15:15:07.442Z</time></trkpt><trkpt lat="33.7009729" lon="8.9770991"><ele>50.0</ele><time>2026-04-29T15:15:08.517Z</time></trkpt><trkpt lat="33.7010764" lon="8.97698"><ele>50.75</ele><time>2026-04-29T15:15:09.438Z</time></trkpt><trkpt lat="33.7011688" lon="8.9768452"><ele>51.5</ele><time>2026-04-29T15:15:10.467Z</time></trkpt><trkpt lat="33.7012448" lon="8.9767125"><ele>52.25</ele><time>2026-04-29T15:15:11.44Z</time></trkpt><trkpt lat="33.7013079" lon="8.9765819"><ele>53.0</ele><time>2026-04-29T15:15:12.453Z</time></trkpt><trkpt lat="33.7013602" lon="8.9764492"><ele>53.0</ele><time>2026-04-29T15:15:13.44Z</time></trkpt><trkpt lat="33.701407" lon="8.9763052"><ele>53.0</ele><time>2026-04-29T15:15:14.484Z</time></trkpt><trkpt lat="33.7014673" lon="8.9761601"><ele>53.0</ele><time>2026-04-29T15:15:15.452Z</time></trkpt><trkpt lat="33.7015396" lon="8.9760114"><ele>53.0</ele><time>2026-04-29T15:15:16.453Z</time></trkpt><trkpt lat="33.7016098" lon="8.9758622"><ele>52.75</ele><time>2026-04-29T15:15:17.456Z</time></trkpt><trkpt lat="33.701682" lon="8.9757171"><ele>52.5</ele><time>2026-04-29T15:15:18.446Z</time></trkpt><trkpt lat="33.7017549" lon="8.9755759"><ele>52.25</ele><time>2026-04-29T15:15:19.449Z</time></trkpt><trkpt lat="33.7018204" lon="8.9754399"><ele>52.0</ele><time>2026-04-29T15:15:20.451Z</time></trkpt><trkpt lat="33.7018856" lon="8.9753067"><ele>52.400000000000006</ele><time>2026-04-29T15:15:21.446Z</time></trkpt><trkpt lat="33.7019551" lon="8.9751853"><ele>52.800000000000004</ele><time>2026-04-29T15:15:22.448Z</time></trkpt><trkpt lat="33.7020354" lon="8.9750826"><ele>53.2</ele><time>2026-04-29T15:15:23.453Z</time></trkpt><trkpt lat="33.7021187" lon="8.9749957"><ele>53.6</ele><time>2026-04-29T15:15:24.447Z</time></trkpt><trkpt lat="33.702201" lon="8.9749302"><ele>54.0</ele><time>2026-04-29T15:15:25.457Z</time></trkpt><trkpt lat="33.7022731" lon="8.9748866"><ele>54.0</ele><time>2026-04-29T15:15:26.447Z</time></trkpt><trkpt lat="33.7023487" lon="8.9748451"><ele>54.0</ele><time>2026-04-29T15:15:27.461Z</time></trkpt><trkpt lat="33.7024212" lon="8.9748112"><ele>54.0</ele><time>2026-04-29T15:15:28.449Z</time></trkpt><trkpt lat="33.7024985" lon="8.9747642"><ele>54.0</ele><time>2026-04-29T15:15:29.449Z</time></trkpt><trkpt lat="33.7025775" lon="8.974709"><ele>54.0</ele><time>2026-04-29T15:15:30.454Z</time></trkpt><trkpt lat="33.7026533" lon="8.9746591"><ele>54.0</ele><time>2026-04-29T15:15:31.453Z</time></trkpt><trkpt lat="33.7027385" lon="8.9746088"><ele>54.166666666666664</ele><time>2026-04-29T15:15:32.455Z</time></trkpt><trkpt lat="33.7028231" lon="8.9745624"><ele>54.33333333333333</ele><time>2026-04-29T15:15:33.446Z</time></trkpt><trkpt lat="33.702902" lon="8.9745153"><ele>54.5</ele><time>2026-04-29T15:15:34.445Z</time></trkpt><trkpt lat="33.702976" lon="8.9744659"><ele>54.666666666666664</ele><time>2026-04-29T15:15:35.48Z</time></trkpt><trkpt lat="33.7030612" lon="8.9744281"><ele>54.83333333333333</ele><time>2026-04-29T15:15:36.445Z</time></trkpt><trkpt lat="33.7031294" lon="8.9743964"><ele>55.0</ele><time>2026-04-29T15:15:37.453Z</time></trkpt><trkpt lat="33.7031973" lon="8.9743703"><ele>55.0</ele><time>2026-04-29T15:15:38.447Z</time></trkpt><trkpt lat="33.7033034" lon="8.9743259"><ele>55.0</ele><time>2026-04-29T15:15:40.455Z</time></trkpt><trkpt lat="33.7034015" lon="8.9742627"><ele>55.0</ele><time>2026-04-29T15:15:42.481Z</time></trkpt><trkpt lat="33.7035217" lon="8.9741944"><ele>55.0</ele><time>2026-04-29T15:15:44.444Z</time></trkpt><trkpt lat="33.7035899" lon="8.974157"><ele>55.0</ele><time>2026-04-29T15:15:45.447Z</time></trkpt><trkpt lat="33.7036549" lon="8.9741166"><ele>54.83333333333333</ele><time>2026-04-29T15:15:46.476Z</time></trkpt><trkpt lat="33.7037184" lon="8.974079"><ele>54.666666666666664</ele><time>2026-04-29T15:15:47.455Z</time></trkpt><trkpt lat="33.7037894" lon="8.9740468"><ele>54.5</ele><time>2026-04-29T15:15:48.454Z</time></trkpt><trkpt lat="33.7038639" lon="8.9740079"><ele>54.33333333333333</ele><time>2026-04-29T15:15:49.452Z</time></trkpt><trkpt lat="33.703945" lon="8.9739656"><ele>54.166666666666664</ele><time>2026-04-29T15:15:50.45Z</time></trkpt><trkpt lat="33.7040301" lon="8.9739221"><ele>54.0</ele><time>2026-04-29T15:15:51.446Z</time></trkpt><trkpt lat="33.7041117" lon="8.973875"><ele>54.0</ele><time>2026-04-29T15:15:52.451Z</time></trkpt><trkpt lat="33.7041881" lon="8.9738312"><ele>54.0</ele><time>2026-04-29T15:15:53.46Z</time></trkpt><trkpt lat="33.7042668" lon="8.973786"><ele>54.0</ele><time>2026-04-29T15:15:54.454Z</time></trkpt><trkpt lat="33.7043495" lon="8.973747"><ele>54.0</ele><time>2026-04-29T15:15:55.458Z</time></trkpt><trkpt lat="33.7044217" lon="8.9737015"><ele>54.0</ele><time>2026-04-29T15:15:56.451Z</time></trkpt><trkpt lat="33.7045063" lon="8.9736669"><ele>54.0</ele><time>2026-04-29T15:15:57.452Z</time></trkpt><trkpt lat="33.7045864" lon="8.9736286"><ele>54.166666666666664</ele><time>2026-04-29T15:15:58.451Z</time></trkpt><trkpt lat="33.704663" lon="8.9735876"><ele>54.33333333333333</ele><time>2026-04-29T15:15:59.461Z</time></trkpt><trkpt lat="33.7047374" lon="8.9735461"><ele>54.5</ele><time>2026-04-29T15:16:00.451Z</time></trkpt><trkpt lat="33.7048084" lon="8.973496"><ele>54.666666666666664</ele><time>2026-04-29T15:16:01.456Z</time></trkpt><trkpt lat="33.7048836" lon="8.9734523"><ele>54.83333333333333</ele><time>2026-04-29T15:16:02.448Z</time></trkpt><trkpt lat="33.7049536" lon="8.9734101"><ele>55.0</ele><time>2026-04-29T15:16:03.448Z</time></trkpt><trkpt lat="33.7050193" lon="8.9733635"><ele>55.166666666666664</ele><time>2026-04-29T15:16:04.447Z</time></trkpt><trkpt lat="33.7050905" lon="8.9733267"><ele>55.33333333333333</ele><time>2026-04-29T15:16:05.449Z</time></trkpt><trkpt lat="33.7051667" lon="8.9732845"><ele>55.5</ele><time>2026-04-29T15:16:06.455Z</time></trkpt><trkpt lat="33.7052329" lon="8.9732448"><ele>55.66666666666667</ele><time>2026-04-29T15:16:07.463Z</time></trkpt><trkpt lat="33.7053028" lon="8.9732034"><ele>55.833333333333336</ele><time>2026-04-29T15:16:08.455Z</time></trkpt><trkpt lat="33.7053734" lon="8.9731616"><ele>56.0</ele><time>2026-04-29T15:16:09.449Z</time></trkpt><trkpt lat="33.7054495" lon="8.9731222"><ele>56.16666666666667</ele><time>2026-04-29T15:16:10.442Z</time></trkpt><trkpt lat="33.7055223" lon="8.973083"><ele>56.333333333333336</ele><time>2026-04-29T15:16:11.441Z</time></trkpt><trkpt lat="33.7055985" lon="8.9730396"><ele>56.5</ele><time>2026-04-29T15:16:12.438Z</time></trkpt><trkpt lat="33.7056846" lon="8.9730076"><ele>56.66666666666667</ele><time>2026-04-29T15:16:13.441Z</time></trkpt><trkpt lat="33.70576" lon="8.9729691"><ele>56.833333333333336</ele><time>2026-04-29T15:16:14.442Z</time></trkpt><trkpt lat="33.7058355" lon="8.9729242"><ele>57.0</ele><time>2026-04-29T15:16:15.444Z</time></trkpt><trkpt lat="33.7059135" lon="8.972877"><ele>57.0</ele><time>2026-04-29T15:16:16.44Z</time></trkpt><trkpt lat="33.705996" lon="8.9728327"><ele>57.0</ele><time>2026-04-29T15:16:17.465Z</time></trkpt><trkpt lat="33.7060832" lon="8.9727928"><ele>57.0</ele><time>2026-04-29T15:16:18.443Z</time></trkpt><trkpt lat="33.7061654" lon="8.9727435"><ele>57.0</ele><time>2026-04-29T15:16:19.444Z</time></trkpt><trkpt lat="33.7062455" lon="8.9726926"><ele>57.0</ele><time>2026-04-29T15:16:20.441Z</time></trkpt><trkpt lat="33.7063244" lon="8.9726466"><ele>56.833333333333336</ele><time>2026-04-29T15:16:21.446Z</time></trkpt><trkpt lat="33.7064082" lon="8.9725999"><ele>56.66666666666667</ele><time>2026-04-29T15:16:22.447Z</time></trkpt><trkpt lat="33.7064909" lon="8.9725497"><ele>56.5</ele><time>2026-04-29T15:16:23.449Z</time></trkpt><trkpt lat="33.7065744" lon="8.9725033"><ele>56.333333333333336</ele><time>2026-04-29T15:16:24.444Z</time></trkpt><trkpt lat="33.706654" lon="8.9724676"><ele>56.16666666666667</ele><time>2026-04-29T15:16:25.449Z</time></trkpt><trkpt lat="33.7067314" lon="8.9724279"><ele>56.0</ele><time>2026-04-29T15:16:26.469Z</time></trkpt><trkpt lat="33.7067961" lon="8.9723976"><ele>56.0</ele><time>2026-04-29T15:16:27.453Z</time></trkpt><trkpt lat="33.706886" lon="8.9723364"><ele>55.99999999999999</ele><time>2026-04-29T15:16:29.438Z</time></trkpt><trkpt lat="33.7069526" lon="8.9722681"><ele>55.99999999999999</ele><time>2026-04-29T15:16:31.457Z</time></trkpt><trkpt lat="33.7069657" lon="8.9721645"><ele>56.0</ele><time>2026-04-29T15:16:33.449Z</time></trkpt><trkpt lat="33.7069433" lon="8.9720367"><ele>56.0</ele><time>2026-04-29T15:16:35.488Z</time></trkpt><trkpt lat="33.7069192" lon="8.9719624"><ele>56.00000000000001</ele><time>2026-04-29T15:16:36.449Z</time></trkpt><trkpt lat="33.7068849" lon="8.9718875"><ele>56.0</ele><time>2026-04-29T15:16:37.451Z</time></trkpt><trkpt lat="33.7068565" lon="8.9718025"><ele>56.0</ele><time>2026-04-29T15:16:38.454Z</time></trkpt><trkpt lat="33.7068309" lon="8.9717123"><ele>56.0</ele><time>2026-04-29T15:16:39.471Z</time></trkpt><trkpt lat="33.7068109" lon="8.9716206"><ele>56.00000000000001</ele><time>2026-04-29T15:16:40.448Z</time></trkpt><trkpt lat="33.706781" lon="8.971533"><ele>56.0</ele><time>2026-04-29T15:16:41.45Z</time></trkpt><trkpt lat="33.7067556" lon="8.9714507"><ele>56.333333333333336</ele><time>2026-04-29T15:16:42.451Z</time></trkpt><trkpt lat="33.7067255" lon="8.9713703"><ele>56.66666666666667</ele><time>2026-04-29T15:16:43.448Z</time></trkpt><trkpt lat="33.7066988" lon="8.9712861"><ele>57.0</ele><time>2026-04-29T15:16:44.445Z</time></trkpt><trkpt lat="33.7066679" lon="8.9712019"><ele>57.33333333333333</ele><time>2026-04-29T15:16:45.443Z</time></trkpt><trkpt lat="33.7066384" lon="8.9711163"><ele>57.666666666666664</ele><time>2026-04-29T15:16:46.442Z</time></trkpt><trkpt lat="33.7066101" lon="8.971033"><ele>58.0</ele><time>2026-04-29T15:16:47.438Z</time></trkpt><trkpt lat="33.7065886" lon="8.9709477"><ele>58.00000000000001</ele><time>2026-04-29T15:16:48.442Z</time></trkpt><trkpt lat="33.7065625" lon="8.9708707"><ele>58.0</ele><time>2026-04-29T15:16:49.433Z</time></trkpt><trkpt lat="33.7065343" lon="8.9707856"><ele>58.00000000000001</ele><time>2026-04-29T15:16:50.433Z</time></trkpt><trkpt lat="33.7065091" lon="8.9706994"><ele>58.00000000000001</ele><time>2026-04-29T15:16:51.443Z</time></trkpt><trkpt lat="33.7064835" lon="8.9706179"><ele>58.0</ele><time>2026-04-29T15:16:52.452Z</time></trkpt><trkpt lat="33.7064639" lon="8.9705372"><ele>58.00000000000001</ele><time>2026-04-29T15:16:53.445Z</time></trkpt><trkpt lat="33.7064438" lon="8.9704626"><ele>58.00000000000001</ele><time>2026-04-29T15:16:54.451Z</time></trkpt><trkpt lat="33.7064032" lon="8.9703349"><ele>57.8</ele><time>2026-04-29T15:16:56.451Z</time></trkpt><trkpt lat="33.7063598" lon="8.9702096"><ele>57.599999999999994</ele><time>2026-04-29T15:16:58.458Z</time></trkpt><trkpt lat="33.7063153" lon="8.9700922"><ele>57.400000000000006</ele><time>2026-04-29T15:17:00.453Z</time></trkpt><trkpt lat="33.706282" lon="8.9699943"><ele>57.2</ele><time>2026-04-29T15:17:02.452Z</time></trkpt><trkpt lat="33.7062517" lon="8.9699082"><ele>57.0</ele><time>2026-04-29T15:17:04.452Z</time></trkpt><trkpt lat="33.7062251" lon="8.9698295"><ele>56.833333333333336</ele><time>2026-04-29T15:17:05.452Z</time></trkpt><trkpt lat="33.7061908" lon="8.9697478"><ele>56.66666666666667</ele><time>2026-04-29T15:17:06.452Z</time></trkpt><trkpt lat="33.7061495" lon="8.96967"><ele>56.5</ele><time>2026-04-29T15:17:07.447Z</time></trkpt><trkpt lat="33.7061079" lon="8.9695949"><ele>56.333333333333336</ele><time>2026-04-29T15:17:08.449Z</time></trkpt><trkpt lat="33.7060694" lon="8.9695148"><ele>56.16666666666667</ele><time>2026-04-29T15:17:09.457Z</time></trkpt><trkpt lat="33.7060434" lon="8.9694154"><ele>56.0</ele><time>2026-04-29T15:17:10.45Z</time></trkpt><trkpt lat="33.7060116" lon="8.9693166"><ele>55.599999999999994</ele><time>2026-04-29T15:17:11.451Z</time></trkpt><trkpt lat="33.7059728" lon="8.9692142"><ele>55.199999999999996</ele><time>2026-04-29T15:17:12.448Z</time></trkpt><trkpt lat="33.7059344" lon="8.9690952"><ele>54.800000000000004</ele><time>2026-04-29T15:17:13.449Z</time></trkpt><trkpt lat="33.7058909" lon="8.9689725"><ele>54.400000000000006</ele><time>2026-04-29T15:17:14.456Z</time></trkpt><trkpt lat="33.7058489" lon="8.9688484"><ele>54.0</ele><time>2026-04-29T15:17:15.453Z</time></trkpt><trkpt lat="33.7058069" lon="8.9687329"><ele>53.400000000000006</ele><time>2026-04-29T15:17:16.453Z</time></trkpt><trkpt lat="33.705763" lon="8.9686137"><ele>52.800000000000004</ele><time>2026-04-29T15:17:17.457Z</time></trkpt><trkpt lat="33.7057228" lon="8.9684946"><ele>52.2</ele><time>2026-04-29T15:17:18.449Z</time></trkpt><trkpt lat="33.7056797" lon="8.9683704"><ele>51.599999999999994</ele><time>2026-04-29T15:17:19.535Z</time></trkpt><trkpt lat="33.7056376" lon="8.9682348"><ele>51.0</ele><time>2026-04-29T15:17:20.505Z</time></trkpt><trkpt lat="33.7055966" lon="8.9681098"><ele>50.199999999999996</ele><time>2026-04-29T15:17:21.517Z</time></trkpt><trkpt lat="33.7055594" lon="8.9679942"><ele>49.4</ele><time>2026-04-29T15:17:22.52Z</time></trkpt><trkpt lat="33.7055259" lon="8.9678801"><ele>48.6</ele><time>2026-04-29T15:17:23.502Z</time></trkpt><trkpt lat="33.7054895" lon="8.9677754"><ele>47.8</ele><time>2026-04-29T15:17:24.512Z</time></trkpt><trkpt lat="33.7054524" lon="8.9676663"><ele>47.0</ele><time>2026-04-29T15:17:25.504Z</time></trkpt><trkpt lat="33.7054127" lon="8.9675522"><ele>46.2</ele><time>2026-04-29T15:17:26.509Z</time></trkpt><trkpt lat="33.7053718" lon="8.96744"><ele>45.400000000000006</ele><time>2026-04-29T15:17:27.514Z</time></trkpt><trkpt lat="33.7053423" lon="8.967334"><ele>44.599999999999994</ele><time>2026-04-29T15:17:28.511Z</time></trkpt><trkpt lat="33.7053134" lon="8.9672278"><ele>43.8</ele><time>2026-04-29T15:17:29.507Z</time></trkpt><trkpt lat="33.7052962" lon="8.9671255"><ele>43.0</ele><time>2026-04-29T15:17:30.5Z</time></trkpt><trkpt lat="33.7052942" lon="8.9670304"><ele>43.0</ele><time>2026-04-29T15:17:31.51Z</time></trkpt><trkpt lat="33.705297" lon="8.9669273"><ele>43.0</ele><time>2026-04-29T15:17:32.512Z</time></trkpt><trkpt lat="33.7053027" lon="8.9668152"><ele>43.0</ele><time>2026-04-29T15:17:33.499Z</time></trkpt><trkpt lat="33.7053103" lon="8.9667019"><ele>43.0</ele><time>2026-04-29T15:17:34.512Z</time></trkpt><trkpt lat="33.7053208" lon="8.9665838"><ele>43.0</ele><time>2026-04-29T15:17:35.504Z</time></trkpt><trkpt lat="33.7053376" lon="8.9664611"><ele>42.4</ele><time>2026-04-29T15:17:36.514Z</time></trkpt><trkpt lat="33.7053546" lon="8.9663336"><ele>41.8</ele><time>2026-04-29T15:17:37.514Z</time></trkpt><trkpt lat="33.7053751" lon="8.9662071"><ele>41.2</ele><time>2026-04-29T15:17:38.51Z</time></trkpt><trkpt lat="33.7053916" lon="8.9660835"><ele>40.6</ele><time>2026-04-29T15:17:39.535Z</time></trkpt><trkpt lat="33.7054125" lon="8.9659565"><ele>40.0</ele><time>2026-04-29T15:17:40.514Z</time></trkpt><trkpt lat="33.705426" lon="8.9658311"><ele>39.8</ele><time>2026-04-29T15:17:41.514Z</time></trkpt><trkpt lat="33.7054467" lon="8.9657003"><ele>39.6</ele><time>2026-04-29T15:17:42.498Z</time></trkpt><trkpt lat="33.7054671" lon="8.9655788"><ele>39.4</ele><time>2026-04-29T15:17:43.513Z</time></trkpt><trkpt lat="33.7054923" lon="8.9654624"><ele>39.2</ele><time>2026-04-29T15:17:44.516Z</time></trkpt><trkpt lat="33.7055206" lon="8.9653372"><ele>39.0</ele><time>2026-04-29T15:17:45.51Z</time></trkpt><trkpt lat="33.7055466" lon="8.965217"><ele>39.0</ele><time>2026-04-29T15:17:46.503Z</time></trkpt><trkpt lat="33.7055653" lon="8.9650967"><ele>39.0</ele><time>2026-04-29T15:17:47.51Z</time></trkpt><trkpt lat="33.7055861" lon="8.9649832"><ele>39.0</ele><time>2026-04-29T15:17:48.509Z</time></trkpt><trkpt lat="33.705601" lon="8.9648742"><ele>39.0</ele><time>2026-04-29T15:17:49.503Z</time></trkpt><trkpt lat="33.7056175" lon="8.9647587"><ele>39.0</ele><time>2026-04-29T15:17:50.511Z</time></trkpt><trkpt lat="33.7056328" lon="8.9646578"><ele>38.833333333333336</ele><time>2026-04-29T15:17:51.512Z</time></trkpt><trkpt lat="33.7056478" lon="8.9645537"><ele>38.666666666666664</ele><time>2026-04-29T15:17:52.509Z</time></trkpt><trkpt lat="33.7056632" lon="8.9644626"><ele>38.5</ele><time>2026-04-29T15:17:53.516Z</time></trkpt><trkpt lat="33.7056781" lon="8.9643782"><ele>38.33333333333333</ele><time>2026-04-29T15:17:54.512Z</time></trkpt><trkpt lat="33.7056971" lon="8.9643045"><ele>38.166666666666664</ele><time>2026-04-29T15:17:55.513Z</time></trkpt><trkpt lat="33.7057148" lon="8.964215"><ele>38.0</ele><time>2026-04-29T15:17:56.52Z</time></trkpt><trkpt lat="33.7057342" lon="8.9641096"><ele>37.6</ele><time>2026-04-29T15:17:57.558Z</time></trkpt><trkpt lat="33.7057493" lon="8.9639981"><ele>37.199999999999996</ele><time>2026-04-29T15:17:58.513Z</time></trkpt><trkpt lat="33.7057629" lon="8.9638816"><ele>36.8</ele><time>2026-04-29T15:17:59.514Z</time></trkpt><trkpt lat="33.705779" lon="8.9637683"><ele>36.4</ele><time>2026-04-29T15:18:00.534Z</time></trkpt><trkpt lat="33.7057946" lon="8.9636593"><ele>36.0</ele><time>2026-04-29T15:18:01.516Z</time></trkpt><trkpt lat="33.7058161" lon="8.9635442"><ele>36.0</ele><time>2026-04-29T15:18:02.518Z</time></trkpt><trkpt lat="33.705836" lon="8.9634336"><ele>36.0</ele><time>2026-04-29T15:18:03.506Z</time></trkpt><trkpt lat="33.7058534" lon="8.963321"><ele>36.0</ele><time>2026-04-29T15:18:04.5Z</time></trkpt><trkpt lat="33.7058702" lon="8.9632093"><ele>36.0</ele><time>2026-04-29T15:18:05.51Z</time></trkpt><trkpt lat="33.7058882" lon="8.9630986"><ele>36.0</ele><time>2026-04-29T15:18:06.534Z</time></trkpt><trkpt lat="33.7059035" lon="8.9629871"><ele>35.8</ele><time>2026-04-29T15:18:07.511Z</time></trkpt><trkpt lat="33.705925" lon="8.9628757"><ele>35.6</ele><time>2026-04-29T15:18:08.524Z</time></trkpt><trkpt lat="33.7059466" lon="8.9627613"><ele>35.4</ele><time>2026-04-29T15:18:09.522Z</time></trkpt><trkpt lat="33.7059649" lon="8.9626499"><ele>35.2</ele><time>2026-04-29T15:18:10.508Z</time></trkpt><trkpt lat="33.7059849" lon="8.9625327"><ele>35.0</ele><time>2026-04-29T15:18:11.505Z</time></trkpt><trkpt lat="33.7060092" lon="8.9623991"><ele>34.25</ele><time>2026-04-29T15:18:12.522Z</time></trkpt><trkpt lat="33.7060279" lon="8.9622617"><ele>33.5</ele><time>2026-04-29T15:18:13.565Z</time></trkpt><trkpt lat="33.7060542" lon="8.9621064"><ele>32.75</ele><time>2026-04-29T15:18:14.513Z</time></trkpt><trkpt lat="33.7060777" lon="8.9619459"><ele>32.0</ele><time>2026-04-29T15:18:15.511Z</time></trkpt><trkpt lat="33.7061044" lon="8.9617813"><ele>32.25</ele><time>2026-04-29T15:18:16.505Z</time></trkpt><trkpt lat="33.7061305" lon="8.9616179"><ele>32.5</ele><time>2026-04-29T15:18:17.51Z</time></trkpt><trkpt lat="33.7061524" lon="8.961456"><ele>32.75</ele><time>2026-04-29T15:18:18.513Z</time></trkpt><trkpt lat="33.7061757" lon="8.9613122"><ele>33.0</ele><time>2026-04-29T15:18:19.505Z</time></trkpt><trkpt lat="33.7061955" lon="8.9611735"><ele>33.0</ele><time>2026-04-29T15:18:20.505Z</time></trkpt><trkpt lat="33.7062169" lon="8.961054"><ele>33.0</ele><time>2026-04-29T15:18:21.521Z</time></trkpt><trkpt lat="33.7062366" lon="8.9609359"><ele>33.0</ele><time>2026-04-29T15:18:22.502Z</time></trkpt><trkpt lat="33.7062552" lon="8.9608356"><ele>33.0</ele><time>2026-04-29T15:18:23.497Z</time></trkpt><trkpt lat="33.7062733" lon="8.9607339"><ele>33.0</ele><time>2026-04-29T15:18:24.514Z</time></trkpt><trkpt lat="33.7062895" lon="8.9606208"><ele>32.4</ele><time>2026-04-29T15:18:25.543Z</time></trkpt><trkpt lat="33.7063102" lon="8.9604986"><ele>31.799999999999997</ele><time>2026-04-29T15:18:26.508Z</time></trkpt><trkpt lat="33.7063325" lon="8.9603719"><ele>31.2</ele><time>2026-04-29T15:18:27.516Z</time></trkpt><trkpt lat="33.7063496" lon="8.9602499"><ele>30.6</ele><time>2026-04-29T15:18:28.516Z</time></trkpt><trkpt lat="33.7063712" lon="8.9601211"><ele>30.0</ele><time>2026-04-29T15:18:29.522Z</time></trkpt><trkpt lat="33.7063909" lon="8.9599983"><ele>30.0</ele><time>2026-04-29T15:18:30.52Z</time></trkpt><trkpt lat="33.7064149" lon="8.959876"><ele>30.0</ele><time>2026-04-29T15:18:31.528Z</time></trkpt><trkpt lat="33.7064375" lon="8.959742"><ele>30.0</ele><time>2026-04-29T15:18:32.534Z</time></trkpt><trkpt lat="33.7064511" lon="8.9596184"><ele>30.0</ele><time>2026-04-29T15:18:33.507Z</time></trkpt><trkpt lat="33.7064689" lon="8.9594906"><ele>30.0</ele><time>2026-04-29T15:18:34.512Z</time></trkpt><trkpt lat="33.7064895" lon="8.9593652"><ele>30.0</ele><time>2026-04-29T15:18:35.535Z</time></trkpt><trkpt lat="33.7065122" lon="8.9592366"><ele>30.0</ele><time>2026-04-29T15:18:36.509Z</time></trkpt><trkpt lat="33.7065336" lon="8.9591006"><ele>30.0</ele><time>2026-04-29T15:18:37.525Z</time></trkpt><trkpt lat="33.706554" lon="8.9589552"><ele>30.0</ele><time>2026-04-29T15:18:38.503Z</time></trkpt><trkpt lat="33.7065708" lon="8.9587751"><ele>30.333333333333336</ele><time>2026-04-29T15:18:39.511Z</time></trkpt><trkpt lat="33.7065978" lon="8.9585793"><ele>30.666666666666668</ele><time>2026-04-29T15:18:40.504Z</time></trkpt><trkpt lat="33.7066379" lon="8.9583987"><ele>31.0</ele><time>2026-04-29T15:18:41.52Z</time></trkpt><trkpt lat="33.7066778" lon="8.9582346"><ele>30.6</ele><time>2026-04-29T15:18:42.5Z</time></trkpt><trkpt lat="33.706707" lon="8.9580879"><ele>30.200000000000003</ele><time>2026-04-29T15:18:43.511Z</time></trkpt><trkpt lat="33.7067281" lon="8.9579649"><ele>29.799999999999997</ele><time>2026-04-29T15:18:44.514Z</time></trkpt><trkpt lat="33.7067467" lon="8.9578624"><ele>29.4</ele><time>2026-04-29T15:18:45.509Z</time></trkpt><trkpt lat="33.7067561" lon="8.9577776"><ele>29.0</ele><time>2026-04-29T15:18:46.514Z</time></trkpt><trkpt lat="33.7067703" lon="8.9576828"><ele>29.0</ele><time>2026-04-29T15:18:47.492Z</time></trkpt><trkpt lat="33.7067868" lon="8.957573"><ele>29.0</ele><time>2026-04-29T15:18:48.521Z</time></trkpt><trkpt lat="33.7067991" lon="8.9574443"><ele>29.0</ele><time>2026-04-29T15:18:49.502Z</time></trkpt><trkpt lat="33.7068166" lon="8.9573124"><ele>29.0</ele><time>2026-04-29T15:18:50.518Z</time></trkpt><trkpt lat="33.7068404" lon="8.9571731"><ele>29.0</ele><time>2026-04-29T15:18:51.512Z</time></trkpt><trkpt lat="33.7068643" lon="8.9570263"><ele>29.0</ele><time>2026-04-29T15:18:52.523Z</time></trkpt><trkpt lat="33.7068899" lon="8.956875"><ele>29.0</ele><time>2026-04-29T15:18:53.506Z</time></trkpt><trkpt lat="33.7069135" lon="8.956719"><ele>29.0</ele><time>2026-04-29T15:18:54.515Z</time></trkpt><trkpt lat="33.7069369" lon="8.9565504"><ele>29.0</ele><time>2026-04-29T15:18:55.515Z</time></trkpt><trkpt lat="33.7069627" lon="8.9563777"><ele>29.0</ele><time>2026-04-29T15:18:56.521Z</time></trkpt><trkpt lat="33.7069914" lon="8.9562088"><ele>29.0</ele><time>2026-04-29T15:18:57.51Z</time></trkpt><trkpt lat="33.7070225" lon="8.9560332"><ele>29.0</ele><time>2026-04-29T15:18:58.516Z</time></trkpt><trkpt lat="33.7070501" lon="8.9558584"><ele>29.0</ele><time>2026-04-29T15:18:59.518Z</time></trkpt><trkpt lat="33.7070814" lon="8.9556862"><ele>29.0</ele><time>2026-04-29T15:19:00.566Z</time></trkpt><trkpt lat="33.7071051" lon="8.9555218"><ele>29.0</ele><time>2026-04-29T15:19:01.51Z</time></trkpt><trkpt lat="33.70713" lon="8.9553719"><ele>29.0</ele><time>2026-04-29T15:19:02.511Z</time></trkpt><trkpt lat="33.7071563" lon="8.9552332"><ele>29.0</ele><time>2026-04-29T15:19:03.516Z</time></trkpt><trkpt lat="33.7071767" lon="8.9551059"><ele>28.4</ele><time>2026-04-29T15:19:04.516Z</time></trkpt><trkpt lat="33.7071945" lon="8.9549883"><ele>27.799999999999997</ele><time>2026-04-29T15:19:05.509Z</time></trkpt><trkpt lat="33.7072155" lon="8.9548837"><ele>27.200000000000003</ele><time>2026-04-29T15:19:06.519Z</time></trkpt><trkpt lat="33.7072288" lon="8.9547897"><ele>26.6</ele><time>2026-04-29T15:19:07.512Z</time></trkpt><trkpt lat="33.7072444" lon="8.9546933"><ele>26.0</ele><time>2026-04-29T15:19:08.51Z</time></trkpt><trkpt lat="33.7072629" lon="8.9545739"><ele>26.0</ele><time>2026-04-29T15:19:09.513Z</time></trkpt><trkpt lat="33.7072788" lon="8.9544426"><ele>26.0</ele><time>2026-04-29T15:19:10.506Z</time></trkpt><trkpt lat="33.7072994" lon="8.9543055"><ele>26.0</ele><time>2026-04-29T15:19:11.51Z</time></trkpt><trkpt lat="33.7073203" lon="8.9541561"><ele>26.0</ele><time>2026-04-29T15:19:12.515Z</time></trkpt><trkpt lat="33.7073496" lon="8.9539798"><ele>26.333333333333332</ele><time>2026-04-29T15:19:13.51Z</time></trkpt><trkpt lat="33.7073842" lon="8.9537943"><ele>26.666666666666664</ele><time>2026-04-29T15:19:14.524Z</time></trkpt><trkpt lat="33.7074153" lon="8.9536118"><ele>27.0</ele><time>2026-04-29T15:19:15.53Z</time></trkpt><trkpt lat="33.7074441" lon="8.9534346"><ele>27.25</ele><time>2026-04-29T15:19:16.521Z</time></trkpt><trkpt lat="33.7074718" lon="8.9532651"><ele>27.5</ele><time>2026-04-29T15:19:17.51Z</time></trkpt><trkpt lat="33.7074988" lon="8.9530935"><ele>27.75</ele><time>2026-04-29T15:19:18.516Z</time></trkpt><trkpt lat="33.7075228" lon="8.9529367"><ele>28.0</ele><time>2026-04-29T15:19:19.518Z</time></trkpt><trkpt lat="33.7075497" lon="8.9527741"><ele>28.0</ele><time>2026-04-29T15:19:20.516Z</time></trkpt><trkpt lat="33.7075752" lon="8.9526119"><ele>28.0</ele><time>2026-04-29T15:19:21.538Z</time></trkpt><trkpt lat="33.7076018" lon="8.9524465"><ele>28.0</ele><time>2026-04-29T15:19:22.517Z</time></trkpt><trkpt lat="33.70763" lon="8.9522804"><ele>28.0</ele><time>2026-04-29T15:19:23.521Z</time></trkpt><trkpt lat="33.7076573" lon="8.9521231"><ele>27.75</ele><time>2026-04-29T15:19:24.528Z</time></trkpt><trkpt lat="33.7076839" lon="8.951968"><ele>27.5</ele><time>2026-04-29T15:19:25.518Z</time></trkpt><trkpt lat="33.7077059" lon="8.9518215"><ele>27.25</ele><time>2026-04-29T15:19:26.503Z</time></trkpt><trkpt lat="33.7077189" lon="8.9516859"><ele>27.0</ele><time>2026-04-29T15:19:27.51Z</time></trkpt><trkpt lat="33.7077365" lon="8.9515522"><ele>26.25</ele><time>2026-04-29T15:19:28.528Z</time></trkpt><trkpt lat="33.7077569" lon="8.9514154"><ele>25.5</ele><time>2026-04-29T15:19:29.526Z</time></trkpt><trkpt lat="33.7077765" lon="8.9512742"><ele>24.75</ele><time>2026-04-29T15:19:30.511Z</time></trkpt><trkpt lat="33.7077954" lon="8.9511279"><ele>24.0</ele><time>2026-04-29T15:19:31.503Z</time></trkpt><trkpt lat="33.7078212" lon="8.9509766"><ele>23.25</ele><time>2026-04-29T15:19:32.507Z</time></trkpt><trkpt lat="33.7078444" lon="8.9508196"><ele>22.5</ele><time>2026-04-29T15:19:33.509Z</time></trkpt><trkpt lat="33.7078677" lon="8.950656"><ele>21.75</ele><time>2026-04-29T15:19:34.515Z</time></trkpt><trkpt lat="33.7078939" lon="8.950484"><ele>21.0</ele><time>2026-04-29T15:19:35.518Z</time></trkpt><trkpt lat="33.7079219" lon="8.9503034"><ele>21.0</ele><time>2026-04-29T15:19:36.522Z</time></trkpt><trkpt lat="33.7079527" lon="8.9501126"><ele>21.0</ele><time>2026-04-29T15:19:37.52Z</time></trkpt><trkpt lat="33.7079849" lon="8.9499147"><ele>21.0</ele><time>2026-04-29T15:19:38.516Z</time></trkpt><trkpt lat="33.7080173" lon="8.9497126"><ele>21.333333333333332</ele><time>2026-04-29T15:19:39.508Z</time></trkpt><trkpt lat="33.7080495" lon="8.9495084"><ele>21.666666666666664</ele><time>2026-04-29T15:19:40.522Z</time></trkpt><trkpt lat="33.7080816" lon="8.949304"><ele>22.0</ele><time>2026-04-29T15:19:41.522Z</time></trkpt><trkpt lat="33.7081155" lon="8.9490969"><ele>23.0</ele><time>2026-04-29T15:19:42.506Z</time></trkpt><trkpt lat="33.7081505" lon="8.9488879"><ele>24.0</ele><time>2026-04-29T15:19:43.519Z</time></trkpt><trkpt lat="33.7081841" lon="8.9486787"><ele>25.0</ele><time>2026-04-29T15:19:44.517Z</time></trkpt><trkpt lat="33.7082195" lon="8.9484618"><ele>25.0</ele><time>2026-04-29T15:19:45.515Z</time></trkpt><trkpt lat="33.7082547" lon="8.9482454"><ele>25.0</ele><time>2026-04-29T15:19:46.51Z</time></trkpt><trkpt lat="33.7082896" lon="8.9480276"><ele>25.0</ele><time>2026-04-29T15:19:47.508Z</time></trkpt><trkpt lat="33.708326" lon="8.9478093"><ele>25.0</ele><time>2026-04-29T15:19:48.51Z</time></trkpt><trkpt lat="33.7083604" lon="8.9475889"><ele>25.0</ele><time>2026-04-29T15:19:49.519Z</time></trkpt><trkpt lat="33.7083934" lon="8.9473637"><ele>25.0</ele><time>2026-04-29T15:19:50.519Z</time></trkpt><trkpt lat="33.70843" lon="8.9471247"><ele>25.0</ele><time>2026-04-29T15:19:51.504Z</time></trkpt><trkpt lat="33.7084661" lon="8.9468838"><ele>25.0</ele><time>2026-04-29T15:19:52.504Z</time></trkpt><trkpt lat="33.7085017" lon="8.9466407"><ele>25.0</ele><time>2026-04-29T15:19:53.519Z</time></trkpt><trkpt lat="33.7085413" lon="8.9463924"><ele>25.0</ele><time>2026-04-29T15:19:54.509Z</time></trkpt><trkpt lat="33.7085814" lon="8.9461418"><ele>25.0</ele><time>2026-04-29T15:19:55.531Z</time></trkpt><trkpt lat="33.7086214" lon="8.9458946"><ele>25.0</ele><time>2026-04-29T15:19:56.513Z</time></trkpt><trkpt lat="33.708662" lon="8.9456446"><ele>25.333333333333336</ele><time>2026-04-29T15:19:57.521Z</time></trkpt><trkpt lat="33.7087012" lon="8.945394"><ele>25.666666666666664</ele><time>2026-04-29T15:19:58.517Z</time></trkpt><trkpt lat="33.7087412" lon="8.9451457"><ele>26.0</ele><time>2026-04-29T15:19:59.552Z</time></trkpt><trkpt lat="33.708781" lon="8.9448896"><ele>26.0</ele><time>2026-04-29T15:20:00.504Z</time></trkpt><trkpt lat="33.7088226" lon="8.9446412"><ele>26.0</ele><time>2026-04-29T15:20:01.507Z</time></trkpt><trkpt lat="33.7088629" lon="8.94439"><ele>26.0</ele><time>2026-04-29T15:20:02.508Z</time></trkpt><trkpt lat="33.7089036" lon="8.944138"><ele>25.333333333333332</ele><time>2026-04-29T15:20:03.506Z</time></trkpt><trkpt lat="33.7089439" lon="8.9438866"><ele>24.666666666666664</ele><time>2026-04-29T15:20:04.507Z</time></trkpt><trkpt lat="33.7089823" lon="8.9436389"><ele>24.0</ele><time>2026-04-29T15:20:05.505Z</time></trkpt><trkpt lat="33.7090216" lon="8.9433878"><ele>24.0</ele><time>2026-04-29T15:20:06.516Z</time></trkpt><trkpt lat="33.7090623" lon="8.9431355"><ele>24.0</ele><time>2026-04-29T15:20:07.518Z</time></trkpt><trkpt lat="33.7091025" lon="8.9428824"><ele>24.0</ele><time>2026-04-29T15:20:08.509Z</time></trkpt><trkpt lat="33.7091414" lon="8.94263"><ele>23.666666666666668</ele><time>2026-04-29T15:20:09.512Z</time></trkpt><trkpt lat="33.7091814" lon="8.9423797"><ele>23.333333333333336</ele><time>2026-04-29T15:20:10.51Z</time></trkpt><trkpt lat="33.7092207" lon="8.9421274"><ele>23.0</ele><time>2026-04-29T15:20:11.518Z</time></trkpt><trkpt lat="33.7092601" lon="8.9418762"><ele>22.666666666666668</ele><time>2026-04-29T15:20:12.516Z</time></trkpt><trkpt lat="33.7093015" lon="8.9416226"><ele>22.333333333333332</ele><time>2026-04-29T15:20:13.528Z</time></trkpt><trkpt lat="33.709343" lon="8.9413726"><ele>22.0</ele><time>2026-04-29T15:20:14.514Z</time></trkpt><trkpt lat="33.7093824" lon="8.9411231"><ele>22.333333333333332</ele><time>2026-04-29T15:20:15.527Z</time></trkpt><trkpt lat="33.7094201" lon="8.9408744"><ele>22.666666666666668</ele><time>2026-04-29T15:20:16.513Z</time></trkpt><trkpt lat="33.7094588" lon="8.9406242"><ele>23.0</ele><time>2026-04-29T15:20:17.53Z</time></trkpt><trkpt lat="33.7094973" lon="8.9403757"><ele>23.0</ele><time>2026-04-29T15:20:18.509Z</time></trkpt><trkpt lat="33.7095376" lon="8.9401236"><ele>23.0</ele><time>2026-04-29T15:20:19.509Z</time></trkpt><trkpt lat="33.7095782" lon="8.9398711"><ele>23.0</ele><time>2026-04-29T15:20:20.518Z</time></trkpt><trkpt lat="33.7096209" lon="8.9396202"><ele>22.666666666666668</ele><time>2026-04-29T15:20:21.516Z</time></trkpt><trkpt lat="33.7096621" lon="8.9393681"><ele>22.333333333333332</ele><time>2026-04-29T15:20:22.514Z</time></trkpt><trkpt lat="33.7097022" lon="8.9391168"><ele>22.0</ele><time>2026-04-29T15:20:23.518Z</time></trkpt><trkpt lat="33.7097416" lon="8.938868"><ele>22.0</ele><time>2026-04-29T15:20:24.509Z</time></trkpt><trkpt lat="33.7097803" lon="8.9386208"><ele>22.0</ele><time>2026-04-29T15:20:25.518Z</time></trkpt><trkpt lat="33.7098195" lon="8.9383693"><ele>22.0</ele><time>2026-04-29T15:20:26.51Z</time></trkpt><trkpt lat="33.709858" lon="8.9381198"><ele>22.666666666666664</ele><time>2026-04-29T15:20:27.509Z</time></trkpt><trkpt lat="33.7098954" lon="8.9378683"><ele>23.333333333333332</ele><time>2026-04-29T15:20:28.515Z</time></trkpt><trkpt lat="33.7099345" lon="8.9376174"><ele>24.0</ele><time>2026-04-29T15:20:29.511Z</time></trkpt><trkpt lat="33.7099762" lon="8.9373657"><ele>24.666666666666664</ele><time>2026-04-29T15:20:30.521Z</time></trkpt><trkpt lat="33.7100172" lon="8.9371123"><ele>25.333333333333332</ele><time>2026-04-29T15:20:31.543Z</time></trkpt><trkpt lat="33.7100581" lon="8.9368627"><ele>26.0</ele><time>2026-04-29T15:20:32.517Z</time></trkpt><trkpt lat="33.7101009" lon="8.93661"><ele>24.666666666666664</ele><time>2026-04-29T15:20:33.52Z</time></trkpt><trkpt lat="33.7101434" lon="8.936355"><ele>23.333333333333332</ele><time>2026-04-29T15:20:34.509Z</time></trkpt><trkpt lat="33.7101832" lon="8.9361012"><ele>22.0</ele><time>2026-04-29T15:20:35.517Z</time></trkpt><trkpt lat="33.7102211" lon="8.9358477"><ele>22.333333333333332</ele><time>2026-04-29T15:20:36.513Z</time></trkpt><trkpt lat="33.7102605" lon="8.9355974"><ele>22.666666666666668</ele><time>2026-04-29T15:20:37.502Z</time></trkpt><trkpt lat="33.7103005" lon="8.9353453"><ele>23.0</ele><time>2026-04-29T15:20:38.505Z</time></trkpt><trkpt lat="33.7103402" lon="8.9350924"><ele>23.666666666666668</ele><time>2026-04-29T15:20:39.515Z</time></trkpt><trkpt lat="33.7103815" lon="8.9348382"><ele>24.333333333333336</ele><time>2026-04-29T15:20:40.516Z</time></trkpt><trkpt lat="33.7104222" lon="8.9345849"><ele>25.0</ele><time>2026-04-29T15:20:41.52Z</time></trkpt><trkpt lat="33.7104631" lon="8.9343324"><ele>24.666666666666668</ele><time>2026-04-29T15:20:42.521Z</time></trkpt><trkpt lat="33.7105049" lon="8.9340798"><ele>24.333333333333336</ele><time>2026-04-29T15:20:43.512Z</time></trkpt><trkpt lat="33.7105436" lon="8.9338265"><ele>24.0</ele><time>2026-04-29T15:20:44.517Z</time></trkpt><trkpt lat="33.710584" lon="8.9335738"><ele>23.333333333333332</ele><time>2026-04-29T15:20:45.519Z</time></trkpt><trkpt lat="33.7106246" lon="8.9333228"><ele>22.666666666666664</ele><time>2026-04-29T15:20:46.547Z</time></trkpt><trkpt lat="33.710665" lon="8.9330723"><ele>22.0</ele><time>2026-04-29T15:20:47.508Z</time></trkpt><trkpt lat="33.7107039" lon="8.9328223"><ele>22.0</ele><time>2026-04-29T15:20:48.529Z</time></trkpt><trkpt lat="33.7107437" lon="8.9325725"><ele>22.0</ele><time>2026-04-29T15:20:49.515Z</time></trkpt><trkpt lat="33.7107826" lon="8.9323231"><ele>22.0</ele><time>2026-04-29T15:20:50.517Z</time></trkpt><trkpt lat="33.7108224" lon="8.9320723"><ele>22.333333333333332</ele><time>2026-04-29T15:20:51.528Z</time></trkpt><trkpt lat="33.7108623" lon="8.9318218"><ele>22.666666666666668</ele><time>2026-04-29T15:20:52.52Z</time></trkpt><trkpt lat="33.7109031" lon="8.9315702"><ele>23.0</ele><time>2026-04-29T15:20:53.513Z</time></trkpt><trkpt lat="33.7109441" lon="8.9313173"><ele>23.0</ele><time>2026-04-29T15:20:54.52Z</time></trkpt><trkpt lat="33.7109847" lon="8.9310678"><ele>23.0</ele><time>2026-04-29T15:20:55.507Z</time></trkpt><trkpt lat="33.7110267" lon="8.9308163"><ele>23.0</ele><time>2026-04-29T15:20:56.518Z</time></trkpt><trkpt lat="33.7110714" lon="8.9305667"><ele>23.0</ele><time>2026-04-29T15:20:57.527Z</time></trkpt><trkpt lat="33.7111249" lon="8.9303186"><ele>23.0</ele><time>2026-04-29T15:20:58.505Z</time></trkpt><trkpt lat="33.7111901" lon="8.930075"><ele>23.0</ele><time>2026-04-29T15:20:59.517Z</time></trkpt><trkpt lat="33.7112659" lon="8.9298374"><ele>23.333333333333336</ele><time>2026-04-29T15:21:00.502Z</time></trkpt><trkpt lat="33.7113486" lon="8.9296038"><ele>23.666666666666668</ele><time>2026-04-29T15:21:01.502Z</time></trkpt><trkpt lat="33.7114418" lon="8.9293711"><ele>24.0</ele><time>2026-04-29T15:21:02.529Z</time></trkpt><trkpt lat="33.7115461" lon="8.9291456"><ele>24.0</ele><time>2026-04-29T15:21:03.516Z</time></trkpt><trkpt lat="33.7116601" lon="8.9289298"><ele>24.0</ele><time>2026-04-29T15:21:04.513Z</time></trkpt><trkpt lat="33.7117856" lon="8.9287167"><ele>24.0</ele><time>2026-04-29T15:21:05.504Z</time></trkpt><trkpt lat="33.7119166" lon="8.9285194"><ele>24.666666666666664</ele><time>2026-04-29T15:21:06.513Z</time></trkpt><trkpt lat="33.7120573" lon="8.9283301"><ele>25.333333333333332</ele><time>2026-04-29T15:21:07.513Z</time></trkpt><trkpt lat="33.7122022" lon="8.9281428"><ele>26.0</ele><time>2026-04-29T15:21:08.502Z</time></trkpt><trkpt lat="33.7123466" lon="8.9279544"><ele>26.0</ele><time>2026-04-29T15:21:09.509Z</time></trkpt><trkpt lat="33.7124901" lon="8.9277676"><ele>26.0</ele><time>2026-04-29T15:21:10.51Z</time></trkpt><trkpt lat="33.712633" lon="8.927577"><ele>26.0</ele><time>2026-04-29T15:21:11.505Z</time></trkpt><trkpt lat="33.7127761" lon="8.9273877"><ele>25.666666666666664</ele><time>2026-04-29T15:21:12.504Z</time></trkpt><trkpt lat="33.7129223" lon="8.9271974"><ele>25.333333333333336</ele><time>2026-04-29T15:21:13.51Z</time></trkpt><trkpt lat="33.7130682" lon="8.9270131"><ele>25.0</ele><time>2026-04-29T15:21:14.509Z</time></trkpt><trkpt lat="33.7132117" lon="8.9268296"><ele>25.666666666666668</ele><time>2026-04-29T15:21:15.509Z</time></trkpt><trkpt lat="33.7133552" lon="8.9266385"><ele>26.333333333333336</ele><time>2026-04-29T15:21:16.504Z</time></trkpt><trkpt lat="33.7134871" lon="8.9264442"><ele>27.0</ele><time>2026-04-29T15:21:17.538Z</time></trkpt><trkpt lat="33.7136195" lon="8.926234"><ele>27.0</ele><time>2026-04-29T15:21:18.508Z</time></trkpt><trkpt lat="33.7137306" lon="8.9260351"><ele>27.0</ele><time>2026-04-29T15:21:19.51Z</time></trkpt><trkpt lat="33.7138393" lon="8.9258446"><ele>27.0</ele><time>2026-04-29T15:21:20.509Z</time></trkpt><trkpt lat="33.713954" lon="8.9256684"><ele>27.0</ele><time>2026-04-29T15:21:21.516Z</time></trkpt><trkpt lat="33.7140772" lon="8.9255045"><ele>27.0</ele><time>2026-04-29T15:21:22.515Z</time></trkpt><trkpt lat="33.7142011" lon="8.925347"><ele>27.0</ele><time>2026-04-29T15:21:23.508Z</time></trkpt><trkpt lat="33.7143197" lon="8.9251928"><ele>27.0</ele><time>2026-04-29T15:21:24.51Z</time></trkpt><trkpt lat="33.7144105" lon="8.925029"><ele>27.0</ele><time>2026-04-29T15:21:25.502Z</time></trkpt><trkpt lat="33.7144852" lon="8.9248538"><ele>27.0</ele><time>2026-04-29T15:21:26.508Z</time></trkpt><trkpt lat="33.7145279" lon="8.9246574"><ele>27.0</ele><time>2026-04-29T15:21:27.499Z</time></trkpt><trkpt lat="33.7145633" lon="8.9244568"><ele>27.0</ele><time>2026-04-29T15:21:28.508Z</time></trkpt><trkpt lat="33.714596" lon="8.9242542"><ele>27.0</ele><time>2026-04-29T15:21:29.515Z</time></trkpt><trkpt lat="33.7146275" lon="8.9240587"><ele>26.666666666666664</ele><time>2026-04-29T15:21:30.512Z</time></trkpt><trkpt lat="33.714659" lon="8.9238635"><ele>26.333333333333332</ele><time>2026-04-29T15:21:31.515Z</time></trkpt><trkpt lat="33.7146905" lon="8.9236686"><ele>26.0</ele><time>2026-04-29T15:21:32.504Z</time></trkpt><trkpt lat="33.7147222" lon="8.9234844"><ele>25.5</ele><time>2026-04-29T15:21:33.506Z</time></trkpt><trkpt lat="33.7147534" lon="8.9233084"><ele>25.0</ele><time>2026-04-29T15:21:34.509Z</time></trkpt><trkpt lat="33.714781" lon="8.9231399"><ele>24.5</ele><time>2026-04-29T15:21:35.519Z</time></trkpt><trkpt lat="33.7148009" lon="8.9229796"><ele>24.0</ele><time>2026-04-29T15:21:36.501Z</time></trkpt><trkpt lat="33.7148055" lon="8.9228311"><ele>24.0</ele><time>2026-04-29T15:21:37.508Z</time></trkpt><trkpt lat="33.7147872" lon="8.9226916"><ele>24.0</ele><time>2026-04-29T15:21:38.502Z</time></trkpt><trkpt lat="33.7147412" lon="8.9225706"><ele>24.0</ele><time>2026-04-29T15:21:39.498Z</time></trkpt><trkpt lat="33.7146702" lon="8.9224742"><ele>24.0</ele><time>2026-04-29T15:21:40.505Z</time></trkpt><trkpt lat="33.7145786" lon="8.9223937"><ele>24.0</ele><time>2026-04-29T15:21:41.505Z</time></trkpt><trkpt lat="33.7144802" lon="8.9223309"><ele>25.25</ele><time>2026-04-29T15:21:42.507Z</time></trkpt><trkpt lat="33.7143767" lon="8.9222618"><ele>26.5</ele><time>2026-04-29T15:21:43.509Z</time></trkpt><trkpt lat="33.7142756" lon="8.9221879"><ele>27.75</ele><time>2026-04-29T15:21:44.503Z</time></trkpt><trkpt lat="33.7141707" lon="8.9221085"><ele>29.0</ele><time>2026-04-29T15:21:45.507Z</time></trkpt><trkpt lat="33.7140712" lon="8.9220151"><ele>29.0</ele><time>2026-04-29T15:21:46.485Z</time></trkpt><trkpt lat="33.7139886" lon="8.9219047"><ele>29.0</ele><time>2026-04-29T15:21:47.503Z</time></trkpt><trkpt lat="33.7139255" lon="8.9217635"><ele>29.0</ele><time>2026-04-29T15:21:48.511Z</time></trkpt><trkpt lat="33.7138817" lon="8.921599"><ele>29.0</ele><time>2026-04-29T15:21:49.497Z</time></trkpt><trkpt lat="33.713855" lon="8.9214183"><ele>28.666666666666664</ele><time>2026-04-29T15:21:50.535Z</time></trkpt><trkpt lat="33.7138261" lon="8.9212288"><ele>28.333333333333336</ele><time>2026-04-29T15:21:51.532Z</time></trkpt><trkpt lat="33.7137975" lon="8.921034"><ele>28.0</ele><time>2026-04-29T15:21:52.507Z</time></trkpt><trkpt lat="33.713769" lon="8.920844"><ele>28.75</ele><time>2026-04-29T15:21:53.507Z</time></trkpt><trkpt lat="33.7137444" lon="8.9206606"><ele>29.5</ele><time>2026-04-29T15:21:54.509Z</time></trkpt><trkpt lat="33.7137261" lon="8.9204897"><ele>30.25</ele><time>2026-04-29T15:21:55.511Z</time></trkpt><trkpt lat="33.7137214" lon="8.9203273"><ele>31.0</ele><time>2026-04-29T15:21:56.506Z</time></trkpt><trkpt lat="33.7137334" lon="8.9201806"><ele>31.25</ele><time>2026-04-29T15:21:57.509Z</time></trkpt><trkpt lat="33.7137645" lon="8.9200384"><ele>31.5</ele><time>2026-04-29T15:21:58.517Z</time></trkpt><trkpt lat="33.7138128" lon="8.919903"><ele>31.75</ele><time>2026-04-29T15:21:59.499Z</time></trkpt><trkpt lat="33.7138767" lon="8.9197747"><ele>32.0</ele><time>2026-04-29T15:22:00.512Z</time></trkpt><trkpt lat="33.7139448" lon="8.9196518"><ele>32.0</ele><time>2026-04-29T15:22:01.535Z</time></trkpt><trkpt lat="33.7140227" lon="8.9195319"><ele>32.0</ele><time>2026-04-29T15:22:02.528Z</time></trkpt><trkpt lat="33.7141176" lon="8.919415"><ele>32.0</ele><time>2026-04-29T15:22:03.508Z</time></trkpt><trkpt lat="33.7142241" lon="8.9192988"><ele>32.0</ele><time>2026-04-29T15:22:04.516Z</time></trkpt><trkpt lat="33.7143442" lon="8.9191848"><ele>31.666666666666664</ele><time>2026-04-29T15:22:05.498Z</time></trkpt><trkpt lat="33.7144748" lon="8.9190733"><ele>31.333333333333336</ele><time>2026-04-29T15:22:06.515Z</time></trkpt><trkpt lat="33.7146089" lon="8.9189615"><ele>31.0</ele><time>2026-04-29T15:22:07.51Z</time></trkpt><trkpt lat="33.7147394" lon="8.918846"><ele>31.0</ele><time>2026-04-29T15:22:08.509Z</time></trkpt><trkpt lat="33.7148579" lon="8.9187387"><ele>31.0</ele><time>2026-04-29T15:22:09.502Z</time></trkpt><trkpt lat="33.7149725" lon="8.9186408"><ele>31.0</ele><time>2026-04-29T15:22:10.495Z</time></trkpt><trkpt lat="33.7150804" lon="8.918547"><ele>31.0</ele><time>2026-04-29T15:22:11.504Z</time></trkpt><trkpt lat="33.7151703" lon="8.9184612"><ele>30.333333333333336</ele><time>2026-04-29T15:22:12.51Z</time></trkpt><trkpt lat="33.7152516" lon="8.9183767"><ele>29.666666666666668</ele><time>2026-04-29T15:22:13.502Z</time></trkpt><trkpt lat="33.7153157" lon="8.9183048"><ele>29.0</ele><time>2026-04-29T15:22:14.502Z</time></trkpt><trkpt lat="33.7153726" lon="8.9182477"><ele>28.333333333333336</ele><time>2026-04-29T15:22:15.502Z</time></trkpt><trkpt lat="33.7154284" lon="8.9181907"><ele>27.666666666666668</ele><time>2026-04-29T15:22:16.521Z</time></trkpt><trkpt lat="33.7154992" lon="8.9181126"><ele>27.0</ele><time>2026-04-29T15:22:17.503Z</time></trkpt><trkpt lat="33.7155653" lon="8.9180112"><ele>27.0</ele><time>2026-04-29T15:22:18.503Z</time></trkpt><trkpt lat="33.7156489" lon="8.9179039"><ele>27.000000000000004</ele><time>2026-04-29T15:22:19.511Z</time></trkpt><trkpt lat="33.7157293" lon="8.917793"><ele>27.000000000000004</ele><time>2026-04-29T15:22:20.494Z</time></trkpt><trkpt lat="33.715806" lon="8.9177029"><ele>27.0</ele><time>2026-04-29T15:22:21.501Z</time></trkpt><trkpt lat="33.7158645" lon="8.9176325"><ele>27.0</ele><time>2026-04-29T15:22:22.5Z</time></trkpt><trkpt lat="33.7159055" lon="8.9175686"><ele>27.0</ele><time>2026-04-29T15:22:23.501Z</time></trkpt><trkpt lat="33.7159836" lon="8.9174613"><ele>27.000000000000004</ele><time>2026-04-29T15:22:25.513Z</time></trkpt><trkpt lat="33.7160345" lon="8.9174039"><ele>27.000000000000004</ele><time>2026-04-29T15:22:26.51Z</time></trkpt><trkpt lat="33.7160858" lon="8.917323"><ele>27.0</ele><time>2026-04-29T15:22:27.514Z</time></trkpt><trkpt lat="33.7161569" lon="8.9172248"><ele>27.0</ele><time>2026-04-29T15:22:28.506Z</time></trkpt><trkpt lat="33.7162366" lon="8.9171037"><ele>26.0</ele><time>2026-04-29T15:22:29.501Z</time></trkpt><trkpt lat="33.7163271" lon="8.9169749"><ele>25.0</ele><time>2026-04-29T15:22:30.511Z</time></trkpt><trkpt lat="33.716432" lon="8.9168359"><ele>24.0</ele><time>2026-04-29T15:22:31.517Z</time></trkpt><trkpt lat="33.7165404" lon="8.9166901"><ele>24.0</ele><time>2026-04-29T15:22:32.497Z</time></trkpt><trkpt lat="33.7166554" lon="8.9165387"><ele>24.0</ele><time>2026-04-29T15:22:33.503Z</time></trkpt><trkpt lat="33.716768" lon="8.9163828"><ele>24.0</ele><time>2026-04-29T15:22:34.509Z</time></trkpt><trkpt lat="33.7168813" lon="8.9162316"><ele>24.333333333333336</ele><time>2026-04-29T15:22:35.515Z</time></trkpt><trkpt lat="33.717003" lon="8.9160896"><ele>24.666666666666668</ele><time>2026-04-29T15:22:36.505Z</time></trkpt><trkpt lat="33.7171131" lon="8.9159405"><ele>25.0</ele><time>2026-04-29T15:22:37.501Z</time></trkpt><trkpt lat="33.7172217" lon="8.915797"><ele>24.5</ele><time>2026-04-29T15:22:38.497Z</time></trkpt><trkpt lat="33.7173157" lon="8.9156614"><ele>24.0</ele><time>2026-04-29T15:22:39.501Z</time></trkpt><trkpt lat="33.7174099" lon="8.915552"><ele>23.5</ele><time>2026-04-29T15:22:40.519Z</time></trkpt><trkpt lat="33.7174923" lon="8.9154477"><ele>23.0</ele><time>2026-04-29T15:22:41.498Z</time></trkpt><trkpt lat="33.7175618" lon="8.9153489"><ele>23.0</ele><time>2026-04-29T15:22:42.505Z</time></trkpt><trkpt lat="33.7176222" lon="8.9152646"><ele>23.0</ele><time>2026-04-29T15:22:43.504Z</time></trkpt><trkpt lat="33.7176639" lon="8.9151834"><ele>23.0</ele><time>2026-04-29T15:22:44.51Z</time></trkpt><trkpt lat="33.7177153" lon="8.9151107"><ele>23.0</ele><time>2026-04-29T15:22:45.508Z</time></trkpt><trkpt lat="33.7177674" lon="8.9150247"><ele>23.0</ele><time>2026-04-29T15:22:46.506Z</time></trkpt><trkpt lat="33.7178235" lon="8.9149357"><ele>23.0</ele><time>2026-04-29T15:22:47.501Z</time></trkpt><trkpt lat="33.7178838" lon="8.9148342"><ele>24.0</ele><time>2026-04-29T15:22:48.513Z</time></trkpt><trkpt lat="33.7179437" lon="8.9147266"><ele>25.0</ele><time>2026-04-29T15:22:49.525Z</time></trkpt><trkpt lat="33.7180094" lon="8.9146082"><ele>26.0</ele><time>2026-04-29T15:22:50.507Z</time></trkpt><trkpt lat="33.7180802" lon="8.9144644"><ele>27.0</ele><time>2026-04-29T15:22:51.504Z</time></trkpt><trkpt lat="33.7181569" lon="8.9143207"><ele>26.666666666666664</ele><time>2026-04-29T15:22:52.51Z</time></trkpt><trkpt lat="33.7182379" lon="8.9141663"><ele>26.333333333333332</ele><time>2026-04-29T15:22:53.501Z</time></trkpt><trkpt lat="33.7183239" lon="8.9140078"><ele>26.0</ele><time>2026-04-29T15:22:54.537Z</time></trkpt><trkpt lat="33.7184146" lon="8.9138418"><ele>26.0</ele><time>2026-04-29T15:22:55.485Z</time></trkpt><trkpt lat="33.7185085" lon="8.9136756"><ele>26.0</ele><time>2026-04-29T15:22:56.511Z</time></trkpt><trkpt lat="33.718604" lon="8.9135034"><ele>26.0</ele><time>2026-04-29T15:22:57.509Z</time></trkpt><trkpt lat="33.7186989" lon="8.9133273"><ele>26.333333333333332</ele><time>2026-04-29T15:22:58.514Z</time></trkpt><trkpt lat="33.7187913" lon="8.9131479"><ele>26.666666666666664</ele><time>2026-04-29T15:22:59.508Z</time></trkpt><trkpt lat="33.7188794" lon="8.9129706"><ele>27.0</ele><time>2026-04-29T15:23:00.515Z</time></trkpt><trkpt lat="33.7189696" lon="8.9128022"><ele>27.0</ele><time>2026-04-29T15:23:01.519Z</time></trkpt><trkpt lat="33.7190666" lon="8.9126449"><ele>27.0</ele><time>2026-04-29T15:23:02.519Z</time></trkpt><trkpt lat="33.7191837" lon="8.9124947"><ele>27.0</ele><time>2026-04-29T15:23:03.508Z</time></trkpt><trkpt lat="33.7193185" lon="8.9123486"><ele>27.0</ele><time>2026-04-29T15:23:04.506Z</time></trkpt><trkpt lat="33.7194624" lon="8.9122007"><ele>27.0</ele><time>2026-04-29T15:23:05.507Z</time></trkpt><trkpt lat="33.7196181" lon="8.912044"><ele>27.0</ele><time>2026-04-29T15:23:06.505Z</time></trkpt><trkpt lat="33.7197718" lon="8.9118881"><ele>26.333333333333336</ele><time>2026-04-29T15:23:07.507Z</time></trkpt><trkpt lat="33.7199201" lon="8.9117383"><ele>25.666666666666668</ele><time>2026-04-29T15:23:08.513Z</time></trkpt><trkpt lat="33.7200634" lon="8.9115926"><ele>25.0</ele><time>2026-04-29T15:23:09.52Z</time></trkpt><trkpt lat="33.7202041" lon="8.911445"><ele>25.666666666666668</ele><time>2026-04-29T15:23:10.492Z</time></trkpt><trkpt lat="33.7203428" lon="8.9113007"><ele>26.333333333333336</ele><time>2026-04-29T15:23:11.545Z</time></trkpt><trkpt lat="33.7204815" lon="8.9111585"><ele>27.0</ele><time>2026-04-29T15:23:12.522Z</time></trkpt><trkpt lat="33.7206163" lon="8.9110215"><ele>27.0</ele><time>2026-04-29T15:23:13.496Z</time></trkpt><trkpt lat="33.7207501" lon="8.9108843"><ele>27.0</ele><time>2026-04-29T15:23:14.51Z</time></trkpt><trkpt lat="33.720882" lon="8.9107478"><ele>27.0</ele><time>2026-04-29T15:23:15.506Z</time></trkpt><trkpt lat="33.721015" lon="8.9106118"><ele>26.0</ele><time>2026-04-29T15:23:16.517Z</time></trkpt><trkpt lat="33.7211467" lon="8.9104786"><ele>25.0</ele><time>2026-04-29T15:23:17.509Z</time></trkpt><trkpt lat="33.7212774" lon="8.9103441"><ele>24.0</ele><time>2026-04-29T15:23:18.507Z</time></trkpt><trkpt lat="33.721405" lon="8.9102118"><ele>24.0</ele><time>2026-04-29T15:23:19.499Z</time></trkpt><trkpt lat="33.7215356" lon="8.9100824"><ele>24.0</ele><time>2026-04-29T15:23:20.511Z</time></trkpt><trkpt lat="33.7216645" lon="8.9099501"><ele>24.0</ele><time>2026-04-29T15:23:21.503Z</time></trkpt><trkpt lat="33.7217923" lon="8.9098166"><ele>24.666666666666664</ele><time>2026-04-29T15:23:22.513Z</time></trkpt><trkpt lat="33.7219235" lon="8.9096833"><ele>25.333333333333332</ele><time>2026-04-29T15:23:23.577Z</time></trkpt><trkpt lat="33.7220555" lon="8.9095492"><ele>26.0</ele><time>2026-04-29T15:23:24.506Z</time></trkpt><trkpt lat="33.7221937" lon="8.9094021"><ele>26.0</ele><time>2026-04-29T15:23:25.484Z</time></trkpt><trkpt lat="33.7223373" lon="8.9092526"><ele>26.0</ele><time>2026-04-29T15:23:26.55Z</time></trkpt><trkpt lat="33.7224879" lon="8.9090954"><ele>26.0</ele><time>2026-04-29T15:23:27.523Z</time></trkpt><trkpt lat="33.7226434" lon="8.9089339"><ele>26.0</ele><time>2026-04-29T15:23:28.503Z</time></trkpt><trkpt lat="33.722799" lon="8.9087733"><ele>26.0</ele><time>2026-04-29T15:23:29.542Z</time></trkpt><trkpt lat="33.7229546" lon="8.9086128"><ele>26.0</ele><time>2026-04-29T15:23:30.504Z</time></trkpt><trkpt lat="33.7231104" lon="8.9084482"><ele>25.333333333333332</ele><time>2026-04-29T15:23:31.482Z</time></trkpt><trkpt lat="33.7232645" lon="8.908283"><ele>24.666666666666664</ele><time>2026-04-29T15:23:32.498Z</time></trkpt><trkpt lat="33.7234162" lon="8.9081125"><ele>24.0</ele><time>2026-04-29T15:23:33.536Z</time></trkpt><trkpt lat="33.7235699" lon="8.9079428"><ele>24.0</ele><time>2026-04-29T15:23:34.51Z</time></trkpt><trkpt lat="33.7237228" lon="8.9077719"><ele>24.0</ele><time>2026-04-29T15:23:35.51Z</time></trkpt><trkpt lat="33.7238731" lon="8.9075995"><ele>24.0</ele><time>2026-04-29T15:23:36.498Z</time></trkpt><trkpt lat="33.7240243" lon="8.9074266"><ele>24.0</ele><time>2026-04-29T15:23:37.529Z</time></trkpt><trkpt lat="33.7241739" lon="8.9072542"><ele>24.0</ele><time>2026-04-29T15:23:38.508Z</time></trkpt><trkpt lat="33.7243256" lon="8.9070818"><ele>24.0</ele><time>2026-04-29T15:23:39.51Z</time></trkpt><trkpt lat="33.7244735" lon="8.9069142"><ele>24.0</ele><time>2026-04-29T15:23:40.51Z</time></trkpt><trkpt lat="33.7246196" lon="8.9067417"><ele>24.0</ele><time>2026-04-29T15:23:41.513Z</time></trkpt><trkpt lat="33.7247651" lon="8.9065743"><ele>24.0</ele><time>2026-04-29T15:23:42.505Z</time></trkpt><trkpt lat="33.7249135" lon="8.9064134"><ele>24.0</ele><time>2026-04-29T15:23:43.521Z</time></trkpt><trkpt lat="33.7250592" lon="8.906255"><ele>24.0</ele><time>2026-04-29T15:23:44.506Z</time></trkpt><trkpt lat="33.7252044" lon="8.9060922"><ele>24.0</ele><time>2026-04-29T15:23:45.501Z</time></trkpt><trkpt lat="33.7253526" lon="8.9059357"><ele>23.0</ele><time>2026-04-29T15:23:46.504Z</time></trkpt><trkpt lat="33.7255012" lon="8.905784"><ele>22.0</ele><time>2026-04-29T15:23:47.505Z</time></trkpt><trkpt lat="33.7256493" lon="8.9056307"><ele>21.0</ele><time>2026-04-29T15:23:48.5Z</time></trkpt><trkpt lat="33.7257973" lon="8.9054715"><ele>21.0</ele><time>2026-04-29T15:23:49.559Z</time></trkpt><trkpt lat="33.7259428" lon="8.905314"><ele>21.0</ele><time>2026-04-29T15:23:50.494Z</time></trkpt><trkpt lat="33.7260884" lon="8.9051564"><ele>21.0</ele><time>2026-04-29T15:23:51.523Z</time></trkpt><trkpt lat="33.7262361" lon="8.9049991"><ele>21.0</ele><time>2026-04-29T15:23:52.522Z</time></trkpt><trkpt lat="33.7263849" lon="8.904844"><ele>21.0</ele><time>2026-04-29T15:23:53.506Z</time></trkpt><trkpt lat="33.726536" lon="8.9046889"><ele>21.0</ele><time>2026-04-29T15:23:54.502Z</time></trkpt><trkpt lat="33.7266891" lon="8.9045371"><ele>21.0</ele><time>2026-04-29T15:23:55.51Z</time></trkpt><trkpt lat="33.7268444" lon="8.9043842"><ele>21.0</ele><time>2026-04-29T15:23:56.517Z</time></trkpt><trkpt lat="33.7270012" lon="8.9042385"><ele>21.0</ele><time>2026-04-29T15:23:57.512Z</time></trkpt><trkpt lat="33.7271599" lon="8.9040971"><ele>21.333333333333332</ele><time>2026-04-29T15:23:58.519Z</time></trkpt><trkpt lat="33.7273179" lon="8.9039527"><ele>21.666666666666664</ele><time>2026-04-29T15:23:59.503Z</time></trkpt><trkpt lat="33.7274737" lon="8.9038061"><ele>22.0</ele><time>2026-04-29T15:24:00.506Z</time></trkpt><trkpt lat="33.7276276" lon="8.9036652"><ele>22.0</ele><time>2026-04-29T15:24:01.511Z</time></trkpt><trkpt lat="33.7277823" lon="8.9035251"><ele>22.0</ele><time>2026-04-29T15:24:02.52Z</time></trkpt><trkpt lat="33.7279357" lon="8.9033886"><ele>22.0</ele><time>2026-04-29T15:24:03.504Z</time></trkpt><trkpt lat="33.7280892" lon="8.9032501"><ele>22.0</ele><time>2026-04-29T15:24:04.507Z</time></trkpt><trkpt lat="33.728239" lon="8.9031166"><ele>22.0</ele><time>2026-04-29T15:24:05.511Z</time></trkpt><trkpt lat="33.7283878" lon="8.902986"><ele>22.0</ele><time>2026-04-29T15:24:06.513Z</time></trkpt><trkpt lat="33.7285346" lon="8.9028539"><ele>22.0</ele><time>2026-04-29T15:24:07.522Z</time></trkpt><trkpt lat="33.7286819" lon="8.9027218"><ele>22.0</ele><time>2026-04-29T15:24:08.504Z</time></trkpt><trkpt lat="33.7288278" lon="8.9025913"><ele>22.0</ele><time>2026-04-29T15:24:09.504Z</time></trkpt><trkpt lat="33.7289727" lon="8.9024613"><ele>22.0</ele><time>2026-04-29T15:24:10.511Z</time></trkpt><trkpt lat="33.7291175" lon="8.9023351"><ele>22.0</ele><time>2026-04-29T15:24:11.503Z</time></trkpt><trkpt lat="33.7292578" lon="8.9022124"><ele>22.0</ele><time>2026-04-29T15:24:12.505Z</time></trkpt><trkpt lat="33.7293976" lon="8.9020918"><ele>22.0</ele><time>2026-04-29T15:24:13.506Z</time></trkpt><trkpt lat="33.7295366" lon="8.9019716"><ele>22.0</ele><time>2026-04-29T15:24:14.511Z</time></trkpt><trkpt lat="33.729668" lon="8.9018538"><ele>22.0</ele><time>2026-04-29T15:24:15.514Z</time></trkpt><trkpt lat="33.7297851" lon="8.901746"><ele>22.400000000000002</ele><time>2026-04-29T15:24:16.512Z</time></trkpt><trkpt lat="33.7298867" lon="8.9016519"><ele>22.8</ele><time>2026-04-29T15:24:17.492Z</time></trkpt><trkpt lat="33.7299739" lon="8.9015706"><ele>23.2</ele><time>2026-04-29T15:24:18.503Z</time></trkpt><trkpt lat="33.7300533" lon="8.9014944"><ele>23.6</ele><time>2026-04-29T15:24:19.488Z</time></trkpt><trkpt lat="33.7301188" lon="8.9014352"><ele>24.0</ele><time>2026-04-29T15:24:20.506Z</time></trkpt><trkpt lat="33.7301871" lon="8.9013766"><ele>24.2</ele><time>2026-04-29T15:24:21.505Z</time></trkpt><trkpt lat="33.7302602" lon="8.9013135"><ele>24.4</ele><time>2026-04-29T15:24:22.511Z</time></trkpt><trkpt lat="33.7303384" lon="8.9012468"><ele>24.6</ele><time>2026-04-29T15:24:23.506Z</time></trkpt><trkpt lat="33.7304273" lon="8.9011723"><ele>24.8</ele><time>2026-04-29T15:24:24.504Z</time></trkpt><trkpt lat="33.7305189" lon="8.9010893"><ele>25.0</ele><time>2026-04-29T15:24:25.504Z</time></trkpt><trkpt lat="33.7306145" lon="8.9010055"><ele>25.0</ele><time>2026-04-29T15:24:26.513Z</time></trkpt><trkpt lat="33.7307027" lon="8.9009272"><ele>25.0</ele><time>2026-04-29T15:24:27.502Z</time></trkpt><trkpt lat="33.730788" lon="8.9008535"><ele>25.0</ele><time>2026-04-29T15:24:28.506Z</time></trkpt><trkpt lat="33.7308673" lon="8.9007884"><ele>25.0</ele><time>2026-04-29T15:24:29.491Z</time></trkpt><trkpt lat="33.730937" lon="8.9007293"><ele>25.0</ele><time>2026-04-29T15:24:30.503Z</time></trkpt><trkpt lat="33.7310027" lon="8.9006731"><ele>25.6</ele><time>2026-04-29T15:24:31.511Z</time></trkpt><trkpt lat="33.7310672" lon="8.9006147"><ele>26.2</ele><time>2026-04-29T15:24:32.541Z</time></trkpt><trkpt lat="33.7311429" lon="8.9005427"><ele>26.799999999999997</ele><time>2026-04-29T15:24:33.508Z</time></trkpt><trkpt lat="33.731233" lon="8.9004654"><ele>27.4</ele><time>2026-04-29T15:24:34.502Z</time></trkpt><trkpt lat="33.7313371" lon="8.9003797"><ele>28.0</ele><time>2026-04-29T15:24:35.496Z</time></trkpt><trkpt lat="33.7314515" lon="8.900285"><ele>28.0</ele><time>2026-04-29T15:24:36.508Z</time></trkpt><trkpt lat="33.7315762" lon="8.9001809"><ele>28.0</ele><time>2026-04-29T15:24:37.503Z</time></trkpt><trkpt lat="33.7317049" lon="8.9000635"><ele>28.0</ele><time>2026-04-29T15:24:38.503Z</time></trkpt><trkpt lat="33.7318312" lon="8.8999416"><ele>29.333333333333336</ele><time>2026-04-29T15:24:39.498Z</time></trkpt><trkpt lat="33.7319696" lon="8.8998241"><ele>30.666666666666664</ele><time>2026-04-29T15:24:40.496Z</time></trkpt><trkpt lat="33.7321058" lon="8.8997172"><ele>32.0</ele><time>2026-04-29T15:24:41.507Z</time></trkpt><trkpt lat="33.7322439" lon="8.899603"><ele>32.0</ele><time>2026-04-29T15:24:42.5Z</time></trkpt><trkpt lat="33.7323799" lon="8.8994849"><ele>32.0</ele><time>2026-04-29T15:24:43.509Z</time></trkpt><trkpt lat="33.732516" lon="8.8993645"><ele>32.0</ele><time>2026-04-29T15:24:44.499Z</time></trkpt><trkpt lat="33.7326623" lon="8.8992426"><ele>32.0</ele><time>2026-04-29T15:24:45.509Z</time></trkpt><trkpt lat="33.7328138" lon="8.8991185"><ele>32.0</ele><time>2026-04-29T15:24:46.502Z</time></trkpt><trkpt lat="33.7329584" lon="8.899004"><ele>32.0</ele><time>2026-04-29T15:24:47.497Z</time></trkpt><trkpt lat="33.7330961" lon="8.898892"><ele>32.0</ele><time>2026-04-29T15:24:48.523Z</time></trkpt><trkpt lat="33.7332242" lon="8.898794"><ele>32.0</ele><time>2026-04-29T15:24:49.551Z</time></trkpt><trkpt lat="33.7333538" lon="8.8986994"><ele>32.0</ele><time>2026-04-29T15:24:50.496Z</time></trkpt><trkpt lat="33.7334752" lon="8.8986066"><ele>32.0</ele><time>2026-04-29T15:24:51.482Z</time></trkpt><trkpt lat="33.7335959" lon="8.8985153"><ele>32.0</ele><time>2026-04-29T15:24:52.481Z</time></trkpt><trkpt lat="33.7337141" lon="8.8984392"><ele>32.0</ele><time>2026-04-29T15:24:53.48Z</time></trkpt><trkpt lat="33.7338274" lon="8.8983659"><ele>32.0</ele><time>2026-04-29T15:24:54.506Z</time></trkpt><trkpt lat="33.7339305" lon="8.8982814"><ele>32.0</ele><time>2026-04-29T15:24:55.513Z</time></trkpt><trkpt lat="33.7340435" lon="8.8982079"><ele>32.0</ele><time>2026-04-29T15:24:56.506Z</time></trkpt><trkpt lat="33.7341534" lon="8.8981482"><ele>32.0</ele><time>2026-04-29T15:24:57.504Z</time></trkpt><trkpt lat="33.7342597" lon="8.8980804"><ele>32.0</ele><time>2026-04-29T15:24:58.507Z</time></trkpt><trkpt lat="33.7343637" lon="8.8980122"><ele>32.0</ele><time>2026-04-29T15:24:59.508Z</time></trkpt><trkpt lat="33.7344624" lon="8.8979521"><ele>31.75</ele><time>2026-04-29T15:25:00.534Z</time></trkpt><trkpt lat="33.7345773" lon="8.8978837"><ele>31.5</ele><time>2026-04-29T15:25:01.512Z</time></trkpt><trkpt lat="33.7346791" lon="8.8978098"><ele>31.25</ele><time>2026-04-29T15:25:02.501Z</time></trkpt><trkpt lat="33.7347788" lon="8.8977405"><ele>31.0</ele><time>2026-04-29T15:25:03.513Z</time></trkpt><trkpt lat="33.7348795" lon="8.8976683"><ele>31.0</ele><time>2026-04-29T15:25:04.502Z</time></trkpt><trkpt lat="33.7349792" lon="8.8975895"><ele>31.0</ele><time>2026-04-29T15:25:05.509Z</time></trkpt><trkpt lat="33.7350748" lon="8.8975066"><ele>31.0</ele><time>2026-04-29T15:25:06.514Z</time></trkpt><trkpt lat="33.7351619" lon="8.8974225"><ele>31.0</ele><time>2026-04-29T15:25:07.506Z</time></trkpt><trkpt lat="33.7352503" lon="8.8973375"><ele>30.0</ele><time>2026-04-29T15:25:08.504Z</time></trkpt><trkpt lat="33.7353287" lon="8.897255"><ele>29.0</ele><time>2026-04-29T15:25:09.511Z</time></trkpt><trkpt lat="33.7354023" lon="8.8971695"><ele>28.0</ele><time>2026-04-29T15:25:10.509Z</time></trkpt><trkpt lat="33.7354698" lon="8.8970839"><ele>27.0</ele><time>2026-04-29T15:25:11.507Z</time></trkpt><trkpt lat="33.7355393" lon="8.8970044"><ele>26.0</ele><time>2026-04-29T15:25:12.512Z</time></trkpt><trkpt lat="33.7356029" lon="8.8969254"><ele>25.999999999999996</ele><time>2026-04-29T15:25:13.509Z</time></trkpt><trkpt lat="33.735671" lon="8.8968433"><ele>26.0</ele><time>2026-04-29T15:25:14.505Z</time></trkpt><trkpt lat="33.7357362" lon="8.8967634"><ele>26.0</ele><time>2026-04-29T15:25:15.524Z</time></trkpt><trkpt lat="33.7357974" lon="8.8966871"><ele>26.0</ele><time>2026-04-29T15:25:16.517Z</time></trkpt><trkpt lat="33.7358587" lon="8.8966122"><ele>25.999999999999996</ele><time>2026-04-29T15:25:17.516Z</time></trkpt><trkpt lat="33.7359144" lon="8.8965364"><ele>26.0</ele><time>2026-04-29T15:25:18.506Z</time></trkpt><trkpt lat="33.7359661" lon="8.8964678"><ele>26.166666666666664</ele><time>2026-04-29T15:25:19.508Z</time></trkpt><trkpt lat="33.7360124" lon="8.8964146"><ele>26.333333333333332</ele><time>2026-04-29T15:25:20.508Z</time></trkpt><trkpt lat="33.7360928" lon="8.8963166"><ele>26.5</ele><time>2026-04-29T15:25:22.51Z</time></trkpt><trkpt lat="33.7361719" lon="8.896207"><ele>26.666666666666664</ele><time>2026-04-29T15:25:24.509Z</time></trkpt><trkpt lat="33.7362181" lon="8.8961421"><ele>26.833333333333332</ele><time>2026-04-29T15:25:25.508Z</time></trkpt><trkpt lat="33.7362671" lon="8.896071"><ele>27.0</ele><time>2026-04-29T15:25:26.498Z</time></trkpt><trkpt lat="33.7363262" lon="8.8960009"><ele>27.0</ele><time>2026-04-29T15:25:27.501Z</time></trkpt><trkpt lat="33.736388" lon="8.8959237"><ele>27.000000000000004</ele><time>2026-04-29T15:25:28.503Z</time></trkpt><trkpt lat="33.7364506" lon="8.8958425"><ele>27.000000000000004</ele><time>2026-04-29T15:25:29.496Z</time></trkpt><trkpt lat="33.7365147" lon="8.8957588"><ele>27.0</ele><time>2026-04-29T15:25:30.5Z</time></trkpt><trkpt lat="33.7365776" lon="8.8956828"><ele>27.0</ele><time>2026-04-29T15:25:31.505Z</time></trkpt><trkpt lat="33.7366387" lon="8.8956057"><ele>27.200000000000003</ele><time>2026-04-29T15:25:32.514Z</time></trkpt><trkpt lat="33.7366999" lon="8.8955245"><ele>27.400000000000002</ele><time>2026-04-29T15:25:33.531Z</time></trkpt><trkpt lat="33.7367612" lon="8.8954413"><ele>27.599999999999998</ele><time>2026-04-29T15:25:34.51Z</time></trkpt><trkpt lat="33.7368237" lon="8.8953605"><ele>27.799999999999997</ele><time>2026-04-29T15:25:35.5Z</time></trkpt><trkpt lat="33.7368899" lon="8.8952796"><ele>28.0</ele><time>2026-04-29T15:25:36.527Z</time></trkpt><trkpt lat="33.7369596" lon="8.8951985"><ele>28.0</ele><time>2026-04-29T15:25:37.508Z</time></trkpt><trkpt lat="33.7370272" lon="8.8951191"><ele>27.999999999999996</ele><time>2026-04-29T15:25:38.512Z</time></trkpt><trkpt lat="33.7370971" lon="8.8950372"><ele>27.999999999999996</ele><time>2026-04-29T15:25:39.502Z</time></trkpt><trkpt lat="33.7371627" lon="8.8949589"><ele>28.0</ele><time>2026-04-29T15:25:40.508Z</time></trkpt><trkpt lat="33.737233" lon="8.8948855"><ele>28.0</ele><time>2026-04-29T15:25:41.512Z</time></trkpt><trkpt lat="33.7372976" lon="8.8947993"><ele>28.0</ele><time>2026-04-29T15:25:42.498Z</time></trkpt><trkpt lat="33.7373683" lon="8.8947264"><ele>27.999999999999996</ele><time>2026-04-29T15:25:43.505Z</time></trkpt><trkpt lat="33.7374381" lon="8.8946469"><ele>27.999999999999996</ele><time>2026-04-29T15:25:44.506Z</time></trkpt><trkpt lat="33.73751" lon="8.8945672"><ele>28.0</ele><time>2026-04-29T15:25:45.505Z</time></trkpt><trkpt lat="33.7375838" lon="8.8944864"><ele>28.0</ele><time>2026-04-29T15:25:46.512Z</time></trkpt><trkpt lat="33.7376637" lon="8.8943972"><ele>28.0</ele><time>2026-04-29T15:25:47.508Z</time></trkpt><trkpt lat="33.7377473" lon="8.8943006"><ele>28.0</ele><time>2026-04-29T15:25:48.504Z</time></trkpt><trkpt lat="33.7378308" lon="8.894203"><ele>28.0</ele><time>2026-04-29T15:25:49.514Z</time></trkpt><trkpt lat="33.7379133" lon="8.8941095"><ele>28.0</ele><time>2026-04-29T15:25:50.509Z</time></trkpt><trkpt lat="33.7379964" lon="8.8940162"><ele>28.0</ele><time>2026-04-29T15:25:51.501Z</time></trkpt><trkpt lat="33.7380802" lon="8.8939216"><ele>28.0</ele><time>2026-04-29T15:25:52.506Z</time></trkpt><trkpt lat="33.7381601" lon="8.8938304"><ele>28.0</ele><time>2026-04-29T15:25:53.521Z</time></trkpt><trkpt lat="33.738267" lon="8.8937291"><ele>28.0</ele><time>2026-04-29T15:25:54.512Z</time></trkpt><trkpt lat="33.7383843" lon="8.8936055"><ele>28.0</ele><time>2026-04-29T15:25:55.452Z</time></trkpt><trkpt lat="33.7384924" lon="8.8934796"><ele>28.0</ele><time>2026-04-29T15:25:56.438Z</time></trkpt><trkpt lat="33.7385937" lon="8.8933685"><ele>28.0</ele><time>2026-04-29T15:25:57.444Z</time></trkpt><trkpt lat="33.7386949" lon="8.8932616"><ele>28.0</ele><time>2026-04-29T15:25:58.484Z</time></trkpt><trkpt lat="33.7387849" lon="8.8931574"><ele>27.799999999999997</ele><time>2026-04-29T15:25:59.45Z</time></trkpt><trkpt lat="33.7388761" lon="8.8930605"><ele>27.599999999999998</ele><time>2026-04-29T15:26:00.458Z</time></trkpt><trkpt lat="33.7389635" lon="8.8929708"><ele>27.400000000000002</ele><time>2026-04-29T15:26:01.507Z</time></trkpt><trkpt lat="33.7390369" lon="8.8928882"><ele>27.200000000000003</ele><time>2026-04-29T15:26:02.497Z</time></trkpt><trkpt lat="33.7391077" lon="8.8928182"><ele>27.0</ele><time>2026-04-29T15:26:03.503Z</time></trkpt><trkpt lat="33.7391696" lon="8.8927439"><ele>27.0</ele><time>2026-04-29T15:26:04.512Z</time></trkpt><trkpt lat="33.7392296" lon="8.892678"><ele>27.000000000000004</ele><time>2026-04-29T15:26:05.528Z</time></trkpt><trkpt lat="33.7392931" lon="8.8926097"><ele>27.000000000000004</ele><time>2026-04-29T15:26:06.505Z</time></trkpt><trkpt lat="33.7393575" lon="8.892537"><ele>27.0</ele><time>2026-04-29T15:26:07.508Z</time></trkpt><trkpt lat="33.7394339" lon="8.8924451"><ele>27.0</ele><time>2026-04-29T15:26:08.5Z</time></trkpt><trkpt lat="33.7395294" lon="8.8923489"><ele>27.25</ele><time>2026-04-29T15:26:09.5Z</time></trkpt><trkpt lat="33.7396297" lon="8.8922487"><ele>27.5</ele><time>2026-04-29T15:26:10.497Z</time></trkpt><trkpt lat="33.7397319" lon="8.8921447"><ele>27.75</ele><time>2026-04-29T15:26:11.5Z</time></trkpt><trkpt lat="33.7398408" lon="8.8920294"><ele>28.0</ele><time>2026-04-29T15:26:12.497Z</time></trkpt><trkpt lat="33.7399453" lon="8.8919233"><ele>28.0</ele><time>2026-04-29T15:26:13.518Z</time></trkpt><trkpt lat="33.7400445" lon="8.8918151"><ele>28.0</ele><time>2026-04-29T15:26:14.51Z</time></trkpt><trkpt lat="33.7401436" lon="8.8917132"><ele>28.0</ele><time>2026-04-29T15:26:15.494Z</time></trkpt><trkpt lat="33.7402354" lon="8.8916138"><ele>28.0</ele><time>2026-04-29T15:26:16.51Z</time></trkpt><trkpt lat="33.7403288" lon="8.8915158"><ele>28.0</ele><time>2026-04-29T15:26:17.511Z</time></trkpt><trkpt lat="33.7404241" lon="8.891416"><ele>28.0</ele><time>2026-04-29T15:26:18.515Z</time></trkpt><trkpt lat="33.7405167" lon="8.8913089"><ele>28.0</ele><time>2026-04-29T15:26:19.502Z</time></trkpt><trkpt lat="33.7406119" lon="8.891206"><ele>28.0</ele><time>2026-04-29T15:26:20.538Z</time></trkpt><trkpt lat="33.7407069" lon="8.891105"><ele>28.0</ele><time>2026-04-29T15:26:21.498Z</time></trkpt><trkpt lat="33.7407983" lon="8.8910082"><ele>27.999999999999996</ele><time>2026-04-29T15:26:22.525Z</time></trkpt><trkpt lat="33.7408808" lon="8.8909184"><ele>27.999999999999996</ele><time>2026-04-29T15:26:23.508Z</time></trkpt><trkpt lat="33.7409465" lon="8.8908434"><ele>28.0</ele><time>2026-04-29T15:26:24.51Z</time></trkpt><trkpt lat="33.7410045" lon="8.8907859"><ele>28.0</ele><time>2026-04-29T15:26:25.516Z</time></trkpt><trkpt lat="33.7410598" lon="8.8907209"><ele>27.799999999999997</ele><time>2026-04-29T15:26:26.508Z</time></trkpt><trkpt lat="33.741126" lon="8.8906559"><ele>27.599999999999998</ele><time>2026-04-29T15:26:27.504Z</time></trkpt><trkpt lat="33.7412069" lon="8.8905741"><ele>27.400000000000002</ele><time>2026-04-29T15:26:28.498Z</time></trkpt><trkpt lat="33.7413012" lon="8.8904721"><ele>27.200000000000003</ele><time>2026-04-29T15:26:29.508Z</time></trkpt><trkpt lat="33.741396" lon="8.8903642"><ele>27.0</ele><time>2026-04-29T15:26:30.52Z</time></trkpt><trkpt lat="33.7414891" lon="8.8902622"><ele>27.0</ele><time>2026-04-29T15:26:31.497Z</time></trkpt><trkpt lat="33.7415868" lon="8.8901591"><ele>27.000000000000004</ele><time>2026-04-29T15:26:32.521Z</time></trkpt><trkpt lat="33.7416685" lon="8.8900725"><ele>27.000000000000004</ele><time>2026-04-29T15:26:33.511Z</time></trkpt><trkpt lat="33.7417392" lon="8.8900019"><ele>27.0</ele><time>2026-04-29T15:26:34.511Z</time></trkpt><trkpt lat="33.741798" lon="8.8899498"><ele>27.0</ele><time>2026-04-29T15:26:35.5Z</time></trkpt><trkpt lat="33.741857" lon="8.8898902"><ele>27.400000000000002</ele><time>2026-04-29T15:26:36.51Z</time></trkpt><trkpt lat="33.7419205" lon="8.8898271"><ele>27.800000000000004</ele><time>2026-04-29T15:26:37.511Z</time></trkpt><trkpt lat="33.7419945" lon="8.8897552"><ele>28.2</ele><time>2026-04-29T15:26:38.506Z</time></trkpt><trkpt lat="33.7420831" lon="8.8896685"><ele>28.6</ele><time>2026-04-29T15:26:39.502Z</time></trkpt><trkpt lat="33.7421744" lon="8.8895702"><ele>29.0</ele><time>2026-04-29T15:26:40.511Z</time></trkpt><trkpt lat="33.7422772" lon="8.8894526"><ele>29.0</ele><time>2026-04-29T15:26:41.531Z</time></trkpt><trkpt lat="33.7423849" lon="8.8893337"><ele>29.0</ele><time>2026-04-29T15:26:42.505Z</time></trkpt><trkpt lat="33.7425079" lon="8.8892119"><ele>29.0</ele><time>2026-04-29T15:26:43.525Z</time></trkpt><trkpt lat="33.7426353" lon="8.8890813"><ele>28.666666666666664</ele><time>2026-04-29T15:26:44.509Z</time></trkpt><trkpt lat="33.7427661" lon="8.8889393"><ele>28.333333333333336</ele><time>2026-04-29T15:26:45.52Z</time></trkpt><trkpt lat="33.7429043" lon="8.8887966"><ele>28.0</ele><time>2026-04-29T15:26:46.525Z</time></trkpt><trkpt lat="33.7430499" lon="8.8886429"><ele>28.0</ele><time>2026-04-29T15:26:47.496Z</time></trkpt><trkpt lat="33.743197" lon="8.8884924"><ele>28.0</ele><time>2026-04-29T15:26:48.507Z</time></trkpt><trkpt lat="33.7433466" lon="8.8883425"><ele>28.0</ele><time>2026-04-29T15:26:49.509Z</time></trkpt><trkpt lat="33.7435052" lon="8.8881925"><ele>28.0</ele><time>2026-04-29T15:26:50.514Z</time></trkpt><trkpt lat="33.7436649" lon="8.888029"><ele>28.0</ele><time>2026-04-29T15:26:51.486Z</time></trkpt><trkpt lat="33.7438232" lon="8.8878578"><ele>28.0</ele><time>2026-04-29T15:26:52.5Z</time></trkpt><trkpt lat="33.7439867" lon="8.8876847"><ele>28.666666666666668</ele><time>2026-04-29T15:26:53.511Z</time></trkpt><trkpt lat="33.744153" lon="8.8875204"><ele>29.333333333333336</ele><time>2026-04-29T15:26:54.515Z</time></trkpt><trkpt lat="33.7443189" lon="8.8873515"><ele>30.0</ele><time>2026-04-29T15:26:55.502Z</time></trkpt><trkpt lat="33.7444845" lon="8.8871844"><ele>29.0</ele><time>2026-04-29T15:26:56.62Z</time></trkpt><trkpt lat="33.7446492" lon="8.8870191"><ele>28.0</ele><time>2026-04-29T15:26:57.547Z</time></trkpt><trkpt lat="33.7448188" lon="8.8868692"><ele>27.0</ele><time>2026-04-29T15:26:58.498Z</time></trkpt><trkpt lat="33.7449963" lon="8.8867257"><ele>27.0</ele><time>2026-04-29T15:26:59.508Z</time></trkpt><trkpt lat="33.7451772" lon="8.8865898"><ele>27.0</ele><time>2026-04-29T15:27:00.511Z</time></trkpt><trkpt lat="33.7453596" lon="8.8864673"><ele>27.0</ele><time>2026-04-29T15:27:01.535Z</time></trkpt><trkpt lat="33.745539" lon="8.8863496"><ele>27.333333333333336</ele><time>2026-04-29T15:27:02.508Z</time></trkpt><trkpt lat="33.7457207" lon="8.8862324"><ele>27.666666666666668</ele><time>2026-04-29T15:27:03.509Z</time></trkpt><trkpt lat="33.7459075" lon="8.8861218"><ele>28.0</ele><time>2026-04-29T15:27:04.517Z</time></trkpt><trkpt lat="33.7460942" lon="8.886016"><ele>27.0</ele><time>2026-04-29T15:27:05.52Z</time></trkpt><trkpt lat="33.7462758" lon="8.8859093"><ele>26.0</ele><time>2026-04-29T15:27:06.516Z</time></trkpt><trkpt lat="33.7464623" lon="8.8857992"><ele>25.0</ele><time>2026-04-29T15:27:07.552Z</time></trkpt><trkpt lat="33.746649" lon="8.8856889"><ele>25.0</ele><time>2026-04-29T15:27:08.503Z</time></trkpt><trkpt lat="33.7468337" lon="8.8855799"><ele>25.0</ele><time>2026-04-29T15:27:09.515Z</time></trkpt><trkpt lat="33.7470172" lon="8.8854731"><ele>25.0</ele><time>2026-04-29T15:27:10.512Z</time></trkpt><trkpt lat="33.7471982" lon="8.8853629"><ele>24.666666666666668</ele><time>2026-04-29T15:27:11.504Z</time></trkpt><trkpt lat="33.7473815" lon="8.8852567"><ele>24.333333333333336</ele><time>2026-04-29T15:27:12.507Z</time></trkpt><trkpt lat="33.7475653" lon="8.8851499"><ele>24.0</ele><time>2026-04-29T15:27:13.515Z</time></trkpt><trkpt lat="33.7477535" lon="8.8850313"><ele>26.0</ele><time>2026-04-29T15:27:14.507Z</time></trkpt><trkpt lat="33.7479364" lon="8.8849085"><ele>28.0</ele><time>2026-04-29T15:27:15.512Z</time></trkpt><trkpt lat="33.7481186" lon="8.8847827"><ele>30.0</ele><time>2026-04-29T15:27:16.512Z</time></trkpt><trkpt lat="33.7482945" lon="8.8846514"><ele>30.0</ele><time>2026-04-29T15:27:17.5Z</time></trkpt><trkpt lat="33.7484714" lon="8.8845193"><ele>30.0</ele><time>2026-04-29T15:27:18.507Z</time></trkpt><trkpt lat="33.748647" lon="8.8843876"><ele>30.0</ele><time>2026-04-29T15:27:19.519Z</time></trkpt><trkpt lat="33.7488256" lon="8.8842524"><ele>29.666666666666664</ele><time>2026-04-29T15:27:20.516Z</time></trkpt><trkpt lat="33.7489991" lon="8.8841147"><ele>29.333333333333332</ele><time>2026-04-29T15:27:21.513Z</time></trkpt><trkpt lat="33.7491744" lon="8.8839777"><ele>29.0</ele><time>2026-04-29T15:27:22.525Z</time></trkpt><trkpt lat="33.7493505" lon="8.8838399"><ele>27.666666666666664</ele><time>2026-04-29T15:27:23.513Z</time></trkpt><trkpt lat="33.7495263" lon="8.8836972"><ele>26.333333333333336</ele><time>2026-04-29T15:27:24.506Z</time></trkpt><trkpt lat="33.7497003" lon="8.8835534"><ele>25.0</ele><time>2026-04-29T15:27:25.504Z</time></trkpt><trkpt lat="33.7498749" lon="8.8834141"><ele>25.0</ele><time>2026-04-29T15:27:26.516Z</time></trkpt><trkpt lat="33.7500517" lon="8.8832758"><ele>25.0</ele><time>2026-04-29T15:27:27.505Z</time></trkpt><trkpt lat="33.7502231" lon="8.8831424"><ele>25.0</ele><time>2026-04-29T15:27:28.521Z</time></trkpt><trkpt lat="33.7503931" lon="8.8830101"><ele>25.0</ele><time>2026-04-29T15:27:29.503Z</time></trkpt><trkpt lat="33.7505649" lon="8.8828802"><ele>25.0</ele><time>2026-04-29T15:27:30.515Z</time></trkpt><trkpt lat="33.7507305" lon="8.8827481"><ele>25.0</ele><time>2026-04-29T15:27:31.499Z</time></trkpt><trkpt lat="33.7508938" lon="8.88262"><ele>25.333333333333336</ele><time>2026-04-29T15:27:32.52Z</time></trkpt><trkpt lat="33.7510555" lon="8.8824864"><ele>25.666666666666664</ele><time>2026-04-29T15:27:33.506Z</time></trkpt><trkpt lat="33.7512144" lon="8.8823537"><ele>26.0</ele><time>2026-04-29T15:27:34.508Z</time></trkpt><trkpt lat="33.7513737" lon="8.8822208"><ele>26.0</ele><time>2026-04-29T15:27:35.514Z</time></trkpt><trkpt lat="33.7515303" lon="8.8820839"><ele>26.0</ele><time>2026-04-29T15:27:36.497Z</time></trkpt><trkpt lat="33.7516848" lon="8.8819421"><ele>26.0</ele><time>2026-04-29T15:27:37.531Z</time></trkpt><trkpt lat="33.7518363" lon="8.8818021"><ele>26.0</ele><time>2026-04-29T15:27:38.504Z</time></trkpt><trkpt lat="33.7519899" lon="8.8816545"><ele>26.0</ele><time>2026-04-29T15:27:39.504Z</time></trkpt><trkpt lat="33.752143" lon="8.8815084"><ele>26.0</ele><time>2026-04-29T15:27:40.508Z</time></trkpt><trkpt lat="33.7522971" lon="8.8813635"><ele>26.0</ele><time>2026-04-29T15:27:41.507Z</time></trkpt><trkpt lat="33.7524463" lon="8.8812173"><ele>26.0</ele><time>2026-04-29T15:27:42.516Z</time></trkpt><trkpt lat="33.7525971" lon="8.8810695"><ele>26.0</ele><time>2026-04-29T15:27:43.498Z</time></trkpt><trkpt lat="33.7527478" lon="8.8809197"><ele>25.666666666666664</ele><time>2026-04-29T15:27:44.498Z</time></trkpt><trkpt lat="33.7529006" lon="8.8807718"><ele>25.333333333333336</ele><time>2026-04-29T15:27:45.509Z</time></trkpt><trkpt lat="33.7530483" lon="8.8806241"><ele>25.0</ele><time>2026-04-29T15:27:46.509Z</time></trkpt><trkpt lat="33.7531938" lon="8.8804758"><ele>25.0</ele><time>2026-04-29T15:27:47.504Z</time></trkpt><trkpt lat="33.7533425" lon="8.8803323"><ele>25.0</ele><time>2026-04-29T15:27:48.513Z</time></trkpt><trkpt lat="33.7534901" lon="8.8801876"><ele>25.0</ele><time>2026-04-29T15:27:49.506Z</time></trkpt><trkpt lat="33.7536419" lon="8.8800417"><ele>25.333333333333336</ele><time>2026-04-29T15:27:50.505Z</time></trkpt><trkpt lat="33.7537924" lon="8.8798958"><ele>25.666666666666664</ele><time>2026-04-29T15:27:51.525Z</time></trkpt><trkpt lat="33.7539408" lon="8.8797499"><ele>26.0</ele><time>2026-04-29T15:27:52.501Z</time></trkpt><trkpt lat="33.7540907" lon="8.8796055"><ele>26.0</ele><time>2026-04-29T15:27:53.513Z</time></trkpt><trkpt lat="33.7542386" lon="8.879455"><ele>26.0</ele><time>2026-04-29T15:27:54.519Z</time></trkpt><trkpt lat="33.7543886" lon="8.8793016"><ele>26.0</ele><time>2026-04-29T15:27:55.515Z</time></trkpt><trkpt lat="33.754537" lon="8.8791556"><ele>25.666666666666664</ele><time>2026-04-29T15:27:56.512Z</time></trkpt><trkpt lat="33.7546872" lon="8.8790016"><ele>25.333333333333336</ele><time>2026-04-29T15:27:57.527Z</time></trkpt><trkpt lat="33.7548317" lon="8.8788485"><ele>25.0</ele><time>2026-04-29T15:27:58.512Z</time></trkpt><trkpt lat="33.7549755" lon="8.878687"><ele>25.0</ele><time>2026-04-29T15:27:59.499Z</time></trkpt><trkpt lat="33.7551163" lon="8.8785169"><ele>25.0</ele><time>2026-04-29T15:28:00.52Z</time></trkpt><trkpt lat="33.7552508" lon="8.8783421"><ele>25.0</ele><time>2026-04-29T15:28:01.505Z</time></trkpt><trkpt lat="33.7553869" lon="8.8781641"><ele>25.666666666666668</ele><time>2026-04-29T15:28:02.505Z</time></trkpt><trkpt lat="33.7555272" lon="8.8779795"><ele>26.333333333333336</ele><time>2026-04-29T15:28:03.514Z</time></trkpt><trkpt lat="33.7556647" lon="8.8777979"><ele>27.0</ele><time>2026-04-29T15:28:04.518Z</time></trkpt><trkpt lat="33.7558007" lon="8.8776091"><ele>26.333333333333336</ele><time>2026-04-29T15:28:05.516Z</time></trkpt><trkpt lat="33.7559416" lon="8.8774202"><ele>25.666666666666668</ele><time>2026-04-29T15:28:06.512Z</time></trkpt><trkpt lat="33.7560811" lon="8.8772364"><ele>25.0</ele><time>2026-04-29T15:28:07.55Z</time></trkpt><trkpt lat="33.756219" lon="8.8770525"><ele>25.0</ele><time>2026-04-29T15:28:08.534Z</time></trkpt><trkpt lat="33.7563547" lon="8.8768673"><ele>25.0</ele><time>2026-04-29T15:28:09.506Z</time></trkpt><trkpt lat="33.7564909" lon="8.876678"><ele>25.0</ele><time>2026-04-29T15:28:10.509Z</time></trkpt><trkpt lat="33.7566163" lon="8.8764735"><ele>25.333333333333336</ele><time>2026-04-29T15:28:11.511Z</time></trkpt><trkpt lat="33.7567361" lon="8.8762833"><ele>25.666666666666664</ele><time>2026-04-29T15:28:12.513Z</time></trkpt><trkpt lat="33.756857" lon="8.8760953"><ele>26.0</ele><time>2026-04-29T15:28:13.509Z</time></trkpt><trkpt lat="33.7569755" lon="8.8759071"><ele>26.0</ele><time>2026-04-29T15:28:14.517Z</time></trkpt><trkpt lat="33.7570987" lon="8.8757162"><ele>26.0</ele><time>2026-04-29T15:28:15.509Z</time></trkpt><trkpt lat="33.7572243" lon="8.8755237"><ele>26.0</ele><time>2026-04-29T15:28:16.507Z</time></trkpt><trkpt lat="33.7573542" lon="8.8753269"><ele>26.0</ele><time>2026-04-29T15:28:17.524Z</time></trkpt><trkpt lat="33.7574893" lon="8.8751302"><ele>26.0</ele><time>2026-04-29T15:28:18.511Z</time></trkpt><trkpt lat="33.7576267" lon="8.8749429"><ele>26.0</ele><time>2026-04-29T15:28:19.51Z</time></trkpt><trkpt lat="33.7577743" lon="8.8747603"><ele>26.0</ele><time>2026-04-29T15:28:20.516Z</time></trkpt><trkpt lat="33.757925" lon="8.8745843"><ele>26.0</ele><time>2026-04-29T15:28:21.516Z</time></trkpt><trkpt lat="33.7580774" lon="8.8744154"><ele>26.0</ele><time>2026-04-29T15:28:22.524Z</time></trkpt><trkpt lat="33.7582354" lon="8.874245"><ele>26.0</ele><time>2026-04-29T15:28:23.513Z</time></trkpt><trkpt lat="33.7583936" lon="8.8740749"><ele>26.0</ele><time>2026-04-29T15:28:24.522Z</time></trkpt><trkpt lat="33.7585545" lon="8.8739083"><ele>26.0</ele><time>2026-04-29T15:28:25.516Z</time></trkpt><trkpt lat="33.7587177" lon="8.8737468"><ele>26.333333333333332</ele><time>2026-04-29T15:28:26.508Z</time></trkpt><trkpt lat="33.7588846" lon="8.8735852"><ele>26.666666666666664</ele><time>2026-04-29T15:28:27.515Z</time></trkpt><trkpt lat="33.7590495" lon="8.8734295"><ele>27.0</ele><time>2026-04-29T15:28:28.505Z</time></trkpt><trkpt lat="33.7592127" lon="8.8732746"><ele>26.666666666666664</ele><time>2026-04-29T15:28:29.506Z</time></trkpt><trkpt lat="33.759377" lon="8.8731168"><ele>26.333333333333332</ele><time>2026-04-29T15:28:30.513Z</time></trkpt><trkpt lat="33.7595393" lon="8.8729607"><ele>26.0</ele><time>2026-04-29T15:28:31.516Z</time></trkpt><trkpt lat="33.7596999" lon="8.8728044"><ele>26.0</ele><time>2026-04-29T15:28:32.503Z</time></trkpt><trkpt lat="33.7598578" lon="8.8726546"><ele>26.0</ele><time>2026-04-29T15:28:33.524Z</time></trkpt><trkpt lat="33.7600139" lon="8.8725095"><ele>26.0</ele><time>2026-04-29T15:28:34.511Z</time></trkpt><trkpt lat="33.7601705" lon="8.8723661"><ele>26.333333333333332</ele><time>2026-04-29T15:28:35.509Z</time></trkpt><trkpt lat="33.7603284" lon="8.8722201"><ele>26.666666666666664</ele><time>2026-04-29T15:28:36.507Z</time></trkpt><trkpt lat="33.7604853" lon="8.8720732"><ele>27.0</ele><time>2026-04-29T15:28:37.508Z</time></trkpt><trkpt lat="33.7606411" lon="8.871922"><ele>26.666666666666664</ele><time>2026-04-29T15:28:38.511Z</time></trkpt><trkpt lat="33.7607977" lon="8.8717695"><ele>26.333333333333332</ele><time>2026-04-29T15:28:39.507Z</time></trkpt><trkpt lat="33.7609563" lon="8.8716159"><ele>26.0</ele><time>2026-04-29T15:28:40.506Z</time></trkpt><trkpt lat="33.7611141" lon="8.8714629"><ele>26.0</ele><time>2026-04-29T15:28:41.506Z</time></trkpt><trkpt lat="33.7612719" lon="8.871309"><ele>26.0</ele><time>2026-04-29T15:28:42.513Z</time></trkpt><trkpt lat="33.7614301" lon="8.8711565"><ele>26.0</ele><time>2026-04-29T15:28:43.513Z</time></trkpt><trkpt lat="33.7615894" lon="8.8710049"><ele>25.666666666666664</ele><time>2026-04-29T15:28:44.517Z</time></trkpt><trkpt lat="33.7617471" lon="8.8708489"><ele>25.333333333333336</ele><time>2026-04-29T15:28:45.514Z</time></trkpt><trkpt lat="33.7618975" lon="8.8706845"><ele>25.0</ele><time>2026-04-29T15:28:46.51Z</time></trkpt><trkpt lat="33.7620441" lon="8.8705124"><ele>26.0</ele><time>2026-04-29T15:28:47.511Z</time></trkpt><trkpt lat="33.7621865" lon="8.8703355"><ele>27.0</ele><time>2026-04-29T15:28:48.512Z</time></trkpt><trkpt lat="33.7623221" lon="8.8701578"><ele>28.0</ele><time>2026-04-29T15:28:49.526Z</time></trkpt><trkpt lat="33.7624577" lon="8.8699759"><ele>28.0</ele><time>2026-04-29T15:28:50.503Z</time></trkpt><trkpt lat="33.7625972" lon="8.8698002"><ele>28.0</ele><time>2026-04-29T15:28:51.499Z</time></trkpt><trkpt lat="33.7627356" lon="8.8696273"><ele>28.0</ele><time>2026-04-29T15:28:52.506Z</time></trkpt><trkpt lat="33.7628724" lon="8.8694481"><ele>28.333333333333336</ele><time>2026-04-29T15:28:53.497Z</time></trkpt><trkpt lat="33.7630079" lon="8.8692718"><ele>28.666666666666664</ele><time>2026-04-29T15:28:54.499Z</time></trkpt><trkpt lat="33.7631472" lon="8.8690967"><ele>29.0</ele><time>2026-04-29T15:28:55.509Z</time></trkpt><trkpt lat="33.7632859" lon="8.8689224"><ele>29.0</ele><time>2026-04-29T15:28:56.498Z</time></trkpt><trkpt lat="33.7634202" lon="8.86875"><ele>29.0</ele><time>2026-04-29T15:28:57.497Z</time></trkpt><trkpt lat="33.7635448" lon="8.8685918"><ele>29.0</ele><time>2026-04-29T15:28:58.516Z</time></trkpt><trkpt lat="33.763657" lon="8.8684485"><ele>29.333333333333332</ele><time>2026-04-29T15:28:59.507Z</time></trkpt><trkpt lat="33.7637622" lon="8.8683147"><ele>29.666666666666664</ele><time>2026-04-29T15:29:00.496Z</time></trkpt><trkpt lat="33.7638622" lon="8.86818"><ele>30.0</ele><time>2026-04-29T15:29:01.504Z</time></trkpt><trkpt lat="33.7639658" lon="8.8680299"><ele>30.0</ele><time>2026-04-29T15:29:02.513Z</time></trkpt><trkpt lat="33.7640754" lon="8.86787"><ele>30.0</ele><time>2026-04-29T15:29:03.528Z</time></trkpt><trkpt lat="33.764194" lon="8.867703"><ele>30.0</ele><time>2026-04-29T15:29:04.512Z</time></trkpt><trkpt lat="33.7643214" lon="8.8675361"><ele>30.333333333333336</ele><time>2026-04-29T15:29:05.513Z</time></trkpt><trkpt lat="33.76446" lon="8.8673663"><ele>30.666666666666668</ele><time>2026-04-29T15:29:06.513Z</time></trkpt><trkpt lat="33.7646085" lon="8.8671957"><ele>31.0</ele><time>2026-04-29T15:29:07.509Z</time></trkpt><trkpt lat="33.7647538" lon="8.8670241"><ele>31.0</ele><time>2026-04-29T15:29:08.523Z</time></trkpt><trkpt lat="33.7648954" lon="8.8668497"><ele>31.0</ele><time>2026-04-29T15:29:09.508Z</time></trkpt><trkpt lat="33.765034" lon="8.8666744"><ele>31.0</ele><time>2026-04-29T15:29:10.5Z</time></trkpt><trkpt lat="33.7651688" lon="8.8665008"><ele>31.333333333333336</ele><time>2026-04-29T15:29:11.512Z</time></trkpt><trkpt lat="33.7652965" lon="8.866338"><ele>31.666666666666664</ele><time>2026-04-29T15:29:12.511Z</time></trkpt><trkpt lat="33.7654253" lon="8.8661713"><ele>32.0</ele><time>2026-04-29T15:29:13.501Z</time></trkpt><trkpt lat="33.7655556" lon="8.8660065"><ele>31.333333333333332</ele><time>2026-04-29T15:29:14.511Z</time></trkpt><trkpt lat="33.7656802" lon="8.8658461"><ele>30.666666666666664</ele><time>2026-04-29T15:29:15.499Z</time></trkpt><trkpt lat="33.7658026" lon="8.865687"><ele>30.0</ele><time>2026-04-29T15:29:16.514Z</time></trkpt><trkpt lat="33.7659265" lon="8.8655279"><ele>30.0</ele><time>2026-04-29T15:29:17.488Z</time></trkpt><trkpt lat="33.7660491" lon="8.8653698"><ele>30.0</ele><time>2026-04-29T15:29:18.54Z</time></trkpt><trkpt lat="33.7661736" lon="8.8652124"><ele>30.0</ele><time>2026-04-29T15:29:19.517Z</time></trkpt><trkpt lat="33.766301" lon="8.8650515"><ele>30.0</ele><time>2026-04-29T15:29:20.501Z</time></trkpt><trkpt lat="33.7664271" lon="8.8648916"><ele>30.0</ele><time>2026-04-29T15:29:21.499Z</time></trkpt><trkpt lat="33.7665594" lon="8.8647266"><ele>30.0</ele><time>2026-04-29T15:29:22.514Z</time></trkpt><trkpt lat="33.7666901" lon="8.8645627"><ele>30.0</ele><time>2026-04-29T15:29:23.516Z</time></trkpt><trkpt lat="33.7668236" lon="8.8644003"><ele>30.0</ele><time>2026-04-29T15:29:24.509Z</time></trkpt><trkpt lat="33.7669577" lon="8.8642426"><ele>30.0</ele><time>2026-04-29T15:29:25.501Z</time></trkpt><trkpt lat="33.7670956" lon="8.8640877"><ele>30.0</ele><time>2026-04-29T15:29:26.514Z</time></trkpt><trkpt lat="33.7672379" lon="8.8639378"><ele>30.0</ele><time>2026-04-29T15:29:27.511Z</time></trkpt><trkpt lat="33.7673795" lon="8.8637927"><ele>30.0</ele><time>2026-04-29T15:29:28.512Z</time></trkpt><trkpt lat="33.767521" lon="8.8636471"><ele>30.0</ele><time>2026-04-29T15:29:29.499Z</time></trkpt><trkpt lat="33.7676623" lon="8.8635008"><ele>30.0</ele><time>2026-04-29T15:29:30.508Z</time></trkpt><trkpt lat="33.767804" lon="8.8633558"><ele>30.0</ele><time>2026-04-29T15:29:31.505Z</time></trkpt><trkpt lat="33.7679489" lon="8.8632113"><ele>30.333333333333336</ele><time>2026-04-29T15:29:32.504Z</time></trkpt><trkpt lat="33.7680916" lon="8.8630649"><ele>30.666666666666668</ele><time>2026-04-29T15:29:33.508Z</time></trkpt><trkpt lat="33.7682363" lon="8.8629185"><ele>31.0</ele><time>2026-04-29T15:29:34.513Z</time></trkpt><trkpt lat="33.7683774" lon="8.8627724"><ele>31.0</ele><time>2026-04-29T15:29:35.5Z</time></trkpt><trkpt lat="33.7685209" lon="8.8626298"><ele>31.0</ele><time>2026-04-29T15:29:36.517Z</time></trkpt><trkpt lat="33.7686638" lon="8.8624815"><ele>31.0</ele><time>2026-04-29T15:29:37.498Z</time></trkpt><trkpt lat="33.7688076" lon="8.8623314"><ele>32.333333333333336</ele><time>2026-04-29T15:29:38.507Z</time></trkpt><trkpt lat="33.7689488" lon="8.8621788"><ele>33.666666666666664</ele><time>2026-04-29T15:29:39.497Z</time></trkpt><trkpt lat="33.7690905" lon="8.8620276"><ele>35.0</ele><time>2026-04-29T15:29:40.51Z</time></trkpt><trkpt lat="33.7692363" lon="8.8618748"><ele>35.666666666666664</ele><time>2026-04-29T15:29:41.517Z</time></trkpt><trkpt lat="33.7693817" lon="8.8617286"><ele>36.333333333333336</ele><time>2026-04-29T15:29:42.489Z</time></trkpt><trkpt lat="33.76953" lon="8.8615877"><ele>37.0</ele><time>2026-04-29T15:29:43.508Z</time></trkpt><trkpt lat="33.7696767" lon="8.8614544"><ele>37.0</ele><time>2026-04-29T15:29:44.509Z</time></trkpt><trkpt lat="33.7698268" lon="8.8613216"><ele>37.0</ele><time>2026-04-29T15:29:45.51Z</time></trkpt><trkpt lat="33.7699816" lon="8.8611872"><ele>37.0</ele><time>2026-04-29T15:29:46.502Z</time></trkpt><trkpt lat="33.7701351" lon="8.8610503"><ele>37.333333333333336</ele><time>2026-04-29T15:29:47.514Z</time></trkpt><trkpt lat="33.7702901" lon="8.8609191"><ele>37.666666666666664</ele><time>2026-04-29T15:29:48.515Z</time></trkpt><trkpt lat="33.7704453" lon="8.8607937"><ele>38.0</ele><time>2026-04-29T15:29:49.512Z</time></trkpt><trkpt lat="33.7706015" lon="8.8606707"><ele>38.0</ele><time>2026-04-29T15:29:50.511Z</time></trkpt><trkpt lat="33.7707603" lon="8.8605513"><ele>38.0</ele><time>2026-04-29T15:29:51.503Z</time></trkpt><trkpt lat="33.7709218" lon="8.8604294"><ele>38.0</ele><time>2026-04-29T15:29:52.503Z</time></trkpt><trkpt lat="33.771084" lon="8.8603153"><ele>38.666666666666664</ele><time>2026-04-29T15:29:53.506Z</time></trkpt><trkpt lat="33.7712516" lon="8.8602174"><ele>39.333333333333336</ele><time>2026-04-29T15:29:54.508Z</time></trkpt><trkpt lat="33.7714252" lon="8.8601309"><ele>40.0</ele><time>2026-04-29T15:29:55.51Z</time></trkpt><trkpt lat="33.7716009" lon="8.8600524"><ele>40.0</ele><time>2026-04-29T15:29:56.507Z</time></trkpt><trkpt lat="33.7717737" lon="8.8599761"><ele>40.0</ele><time>2026-04-29T15:29:57.511Z</time></trkpt><trkpt lat="33.7719375" lon="8.8598986"><ele>40.0</ele><time>2026-04-29T15:29:58.496Z</time></trkpt><trkpt lat="33.7720848" lon="8.8598238"><ele>40.75</ele><time>2026-04-29T15:29:59.495Z</time></trkpt><trkpt lat="33.7722231" lon="8.8597497"><ele>41.5</ele><time>2026-04-29T15:30:00.512Z</time></trkpt><trkpt lat="33.7723508" lon="8.8596797"><ele>42.25</ele><time>2026-04-29T15:30:01.513Z</time></trkpt><trkpt lat="33.7724669" lon="8.8596103"><ele>43.0</ele><time>2026-04-29T15:30:02.515Z</time></trkpt><trkpt lat="33.7725744" lon="8.859552"><ele>43.0</ele><time>2026-04-29T15:30:03.511Z</time></trkpt><trkpt lat="33.7726681" lon="8.8595043"><ele>43.0</ele><time>2026-04-29T15:30:04.505Z</time></trkpt><trkpt lat="33.7727689" lon="8.8594571"><ele>43.0</ele><time>2026-04-29T15:30:05.509Z</time></trkpt><trkpt lat="33.7728705" lon="8.8594028"><ele>43.0</ele><time>2026-04-29T15:30:06.508Z</time></trkpt><trkpt lat="33.7729475" lon="8.8593659"><ele>43.0</ele><time>2026-04-29T15:30:07.511Z</time></trkpt><trkpt lat="33.7730235" lon="8.8593122"><ele>43.2</ele><time>2026-04-29T15:30:08.501Z</time></trkpt><trkpt lat="33.7730918" lon="8.8592355"><ele>43.4</ele><time>2026-04-29T15:30:09.512Z</time></trkpt><trkpt lat="33.7731574" lon="8.8591409"><ele>43.6</ele><time>2026-04-29T15:30:10.501Z</time></trkpt><trkpt lat="33.7732163" lon="8.8590516"><ele>43.800000000000004</ele><time>2026-04-29T15:30:11.511Z</time></trkpt><trkpt lat="33.7732951" lon="8.8589484"><ele>44.0</ele><time>2026-04-29T15:30:12.517Z</time></trkpt><trkpt lat="33.773375" lon="8.8588436"><ele>44.0</ele><time>2026-04-29T15:30:13.505Z</time></trkpt><trkpt lat="33.773458" lon="8.85874"><ele>44.0</ele><time>2026-04-29T15:30:14.52Z</time></trkpt><trkpt lat="33.7735454" lon="8.8586306"><ele>44.0</ele><time>2026-04-29T15:30:15.513Z</time></trkpt><trkpt lat="33.7736359" lon="8.8585163"><ele>44.0</ele><time>2026-04-29T15:30:16.502Z</time></trkpt><trkpt lat="33.7737276" lon="8.8584005"><ele>44.25</ele><time>2026-04-29T15:30:17.493Z</time></trkpt><trkpt lat="33.7738223" lon="8.8582812"><ele>44.5</ele><time>2026-04-29T15:30:18.488Z</time></trkpt><trkpt lat="33.7739195" lon="8.858161"><ele>44.75</ele><time>2026-04-29T15:30:19.505Z</time></trkpt><trkpt lat="33.7740178" lon="8.8580395"><ele>45.0</ele><time>2026-04-29T15:30:20.497Z</time></trkpt><trkpt lat="33.774114" lon="8.8579177"><ele>45.0</ele><time>2026-04-29T15:30:21.506Z</time></trkpt><trkpt lat="33.7742102" lon="8.8578027"><ele>45.0</ele><time>2026-04-29T15:30:22.505Z</time></trkpt><trkpt lat="33.7743028" lon="8.8576933"><ele>45.0</ele><time>2026-04-29T15:30:23.508Z</time></trkpt><trkpt lat="33.7743923" lon="8.8575849"><ele>45.0</ele><time>2026-04-29T15:30:24.51Z</time></trkpt><trkpt lat="33.7744782" lon="8.8574778"><ele>45.25</ele><time>2026-04-29T15:30:25.506Z</time></trkpt><trkpt lat="33.7745641" lon="8.8573701"><ele>45.5</ele><time>2026-04-29T15:30:26.508Z</time></trkpt><trkpt lat="33.774651" lon="8.8572626"><ele>45.75</ele><time>2026-04-29T15:30:27.509Z</time></trkpt><trkpt lat="33.774742" lon="8.8571568"><ele>46.0</ele><time>2026-04-29T15:30:28.511Z</time></trkpt><trkpt lat="33.7748352" lon="8.8570531"><ele>46.0</ele><time>2026-04-29T15:30:29.523Z</time></trkpt><trkpt lat="33.77493" lon="8.8569459"><ele>46.0</ele><time>2026-04-29T15:30:30.505Z</time></trkpt><trkpt lat="33.775024" lon="8.8568384"><ele>46.0</ele><time>2026-04-29T15:30:31.51Z</time></trkpt><trkpt lat="33.7751158" lon="8.8567278"><ele>46.0</ele><time>2026-04-29T15:30:32.515Z</time></trkpt><trkpt lat="33.775207" lon="8.8566156"><ele>46.25</ele><time>2026-04-29T15:30:33.506Z</time></trkpt><trkpt lat="33.7753002" lon="8.8565045"><ele>46.5</ele><time>2026-04-29T15:30:34.514Z</time></trkpt><trkpt lat="33.7753939" lon="8.8563939"><ele>46.75</ele><time>2026-04-29T15:30:35.509Z</time></trkpt><trkpt lat="33.7754835" lon="8.856287"><ele>47.0</ele><time>2026-04-29T15:30:36.508Z</time></trkpt><trkpt lat="33.7755765" lon="8.8561786"><ele>47.0</ele><time>2026-04-29T15:30:37.507Z</time></trkpt><trkpt lat="33.7756683" lon="8.8560738"><ele>47.0</ele><time>2026-04-29T15:30:38.506Z</time></trkpt><trkpt lat="33.7757584" lon="8.8559669"><ele>47.0</ele><time>2026-04-29T15:30:39.5Z</time></trkpt><trkpt lat="33.7758466" lon="8.8558581"><ele>47.0</ele><time>2026-04-29T15:30:40.503Z</time></trkpt><trkpt lat="33.7759349" lon="8.8557477"><ele>46.75</ele><time>2026-04-29T15:30:41.505Z</time></trkpt><trkpt lat="33.7760178" lon="8.8556374"><ele>46.5</ele><time>2026-04-29T15:30:42.512Z</time></trkpt><trkpt lat="33.7760975" lon="8.855524"><ele>46.25</ele><time>2026-04-29T15:30:43.514Z</time></trkpt><trkpt lat="33.7761741" lon="8.8554128"><ele>46.0</ele><time>2026-04-29T15:30:44.516Z</time></trkpt><trkpt lat="33.7762455" lon="8.8553043"><ele>46.0</ele><time>2026-04-29T15:30:45.504Z</time></trkpt><trkpt lat="33.7763064" lon="8.8552123"><ele>46.0</ele><time>2026-04-29T15:30:46.512Z</time></trkpt><trkpt lat="33.7763701" lon="8.8551192"><ele>46.0</ele><time>2026-04-29T15:30:47.506Z</time></trkpt><trkpt lat="33.7764326" lon="8.8550205"><ele>46.0</ele><time>2026-04-29T15:30:48.512Z</time></trkpt><trkpt lat="33.7764941" lon="8.8549148"><ele>46.0</ele><time>2026-04-29T15:30:49.507Z</time></trkpt><trkpt lat="33.7765504" lon="8.8548039"><ele>46.0</ele><time>2026-04-29T15:30:50.503Z</time></trkpt><trkpt lat="33.7766095" lon="8.8546969"><ele>46.0</ele><time>2026-04-29T15:30:51.518Z</time></trkpt><trkpt lat="33.7766734" lon="8.8545884"><ele>46.0</ele><time>2026-04-29T15:30:52.512Z</time></trkpt><trkpt lat="33.7767422" lon="8.8544817"><ele>46.0</ele><time>2026-04-29T15:30:53.509Z</time></trkpt><trkpt lat="33.7768125" lon="8.8543847"><ele>46.0</ele><time>2026-04-29T15:30:54.513Z</time></trkpt><trkpt lat="33.7768885" lon="8.8542932"><ele>46.199999999999996</ele><time>2026-04-29T15:30:55.506Z</time></trkpt><trkpt lat="33.7769708" lon="8.8542121"><ele>46.4</ele><time>2026-04-29T15:30:56.511Z</time></trkpt><trkpt lat="33.7770578" lon="8.8541366"><ele>46.6</ele><time>2026-04-29T15:30:57.514Z</time></trkpt><trkpt lat="33.7771463" lon="8.8540583"><ele>46.8</ele><time>2026-04-29T15:30:58.509Z</time></trkpt><trkpt lat="33.777238" lon="8.8539889"><ele>47.0</ele><time>2026-04-29T15:30:59.524Z</time></trkpt><trkpt lat="33.7773328" lon="8.8539196"><ele>47.0</ele><time>2026-04-29T15:31:00.546Z</time></trkpt><trkpt lat="33.7774332" lon="8.8538534"><ele>47.0</ele><time>2026-04-29T15:31:01.514Z</time></trkpt><trkpt lat="33.7775332" lon="8.853774"><ele>47.0</ele><time>2026-04-29T15:31:02.515Z</time></trkpt><trkpt lat="33.7776227" lon="8.853693"><ele>47.0</ele><time>2026-04-29T15:31:03.507Z</time></trkpt><trkpt lat="33.7777253" lon="8.8536073"><ele>46.8</ele><time>2026-04-29T15:31:04.507Z</time></trkpt><trkpt lat="33.7778196" lon="8.8535223"><ele>46.6</ele><time>2026-04-29T15:31:05.492Z</time></trkpt><trkpt lat="33.7778964" lon="8.8534344"><ele>46.4</ele><time>2026-04-29T15:31:06.497Z</time></trkpt><trkpt lat="33.7779722" lon="8.8533403"><ele>46.199999999999996</ele><time>2026-04-29T15:31:07.499Z</time></trkpt><trkpt lat="33.7780445" lon="8.8532502"><ele>46.0</ele><time>2026-04-29T15:31:08.506Z</time></trkpt><trkpt lat="33.7781165" lon="8.8531528"><ele>46.0</ele><time>2026-04-29T15:31:09.509Z</time></trkpt><trkpt lat="33.7781675" lon="8.8530536"><ele>46.0</ele><time>2026-04-29T15:31:10.498Z</time></trkpt><trkpt lat="33.7782084" lon="8.8529496"><ele>46.0</ele><time>2026-04-29T15:31:11.513Z</time></trkpt><trkpt lat="33.7782455" lon="8.8528408"><ele>46.0</ele><time>2026-04-29T15:31:12.501Z</time></trkpt><trkpt lat="33.7782732" lon="8.8527308"><ele>46.0</ele><time>2026-04-29T15:31:13.507Z</time></trkpt><trkpt lat="33.7782877" lon="8.8526156"><ele>45.4</ele><time>2026-04-29T15:31:14.497Z</time></trkpt><trkpt lat="33.7782958" lon="8.8525004"><ele>44.8</ele><time>2026-04-29T15:31:15.539Z</time></trkpt><trkpt lat="33.7783043" lon="8.8523827"><ele>44.199999999999996</ele><time>2026-04-29T15:31:16.504Z</time></trkpt><trkpt lat="33.7783139" lon="8.85227"><ele>43.599999999999994</ele><time>2026-04-29T15:31:17.52Z</time></trkpt><trkpt lat="33.7783248" lon="8.8521576"><ele>43.0</ele><time>2026-04-29T15:31:18.494Z</time></trkpt><trkpt lat="33.7783376" lon="8.8520616"><ele>43.0</ele><time>2026-04-29T15:31:19.496Z</time></trkpt><trkpt lat="33.7783517" lon="8.8519637"><ele>43.0</ele><time>2026-04-29T15:31:20.497Z</time></trkpt><trkpt lat="33.7783633" lon="8.851857"><ele>43.0</ele><time>2026-04-29T15:31:21.509Z</time></trkpt><trkpt lat="33.7783697" lon="8.8517505"><ele>43.0</ele><time>2026-04-29T15:31:22.577Z</time></trkpt><trkpt lat="33.7783819" lon="8.8516503"><ele>43.0</ele><time>2026-04-29T15:31:23.501Z</time></trkpt><trkpt lat="33.778389" lon="8.8515555"><ele>43.0</ele><time>2026-04-29T15:31:24.492Z</time></trkpt><trkpt lat="33.7784003" lon="8.8514572"><ele>43.16666666666667</ele><time>2026-04-29T15:31:25.494Z</time></trkpt><trkpt lat="33.7784124" lon="8.8513572"><ele>43.333333333333336</ele><time>2026-04-29T15:31:26.494Z</time></trkpt><trkpt lat="33.7784273" lon="8.8512619"><ele>43.5</ele><time>2026-04-29T15:31:27.508Z</time></trkpt><trkpt lat="33.7784406" lon="8.8511669"><ele>43.666666666666664</ele><time>2026-04-29T15:31:28.502Z</time></trkpt><trkpt lat="33.7784478" lon="8.8510734"><ele>43.83333333333333</ele><time>2026-04-29T15:31:29.495Z</time></trkpt><trkpt lat="33.7784597" lon="8.8509785"><ele>44.0</ele><time>2026-04-29T15:31:30.502Z</time></trkpt><trkpt lat="33.7784746" lon="8.850881"><ele>44.400000000000006</ele><time>2026-04-29T15:31:31.505Z</time></trkpt><trkpt lat="33.7784846" lon="8.8507697"><ele>44.8</ele><time>2026-04-29T15:31:32.506Z</time></trkpt><trkpt lat="33.7784986" lon="8.850647"><ele>45.2</ele><time>2026-04-29T15:31:33.507Z</time></trkpt><trkpt lat="33.7785102" lon="8.8505135"><ele>45.599999999999994</ele><time>2026-04-29T15:31:34.501Z</time></trkpt><trkpt lat="33.7785325" lon="8.8503866"><ele>46.0</ele><time>2026-04-29T15:31:35.502Z</time></trkpt><trkpt lat="33.7785426" lon="8.8502588"><ele>46.4</ele><time>2026-04-29T15:31:36.502Z</time></trkpt><trkpt lat="33.7785557" lon="8.8501413"><ele>46.8</ele><time>2026-04-29T15:31:37.498Z</time></trkpt><trkpt lat="33.7785685" lon="8.8500284"><ele>47.199999999999996</ele><time>2026-04-29T15:31:38.501Z</time></trkpt><trkpt lat="33.7785823" lon="8.8499242"><ele>47.599999999999994</ele><time>2026-04-29T15:31:39.505Z</time></trkpt><trkpt lat="33.7785963" lon="8.84982"><ele>48.0</ele><time>2026-04-29T15:31:40.539Z</time></trkpt><trkpt lat="33.7786121" lon="8.8497093"><ele>48.0</ele><time>2026-04-29T15:31:41.498Z</time></trkpt><trkpt lat="33.7786262" lon="8.8495955"><ele>48.0</ele><time>2026-04-29T15:31:42.503Z</time></trkpt><trkpt lat="33.7786421" lon="8.8494762"><ele>48.0</ele><time>2026-04-29T15:31:43.497Z</time></trkpt><trkpt lat="33.778658" lon="8.8493586"><ele>48.0</ele><time>2026-04-29T15:31:44.509Z</time></trkpt><trkpt lat="33.7786696" lon="8.849229"><ele>48.0</ele><time>2026-04-29T15:31:45.502Z</time></trkpt><trkpt lat="33.7786799" lon="8.849108"><ele>48.2</ele><time>2026-04-29T15:31:46.512Z</time></trkpt><trkpt lat="33.7786956" lon="8.8489773"><ele>48.4</ele><time>2026-04-29T15:31:47.506Z</time></trkpt><trkpt lat="33.7787044" lon="8.8488442"><ele>48.6</ele><time>2026-04-29T15:31:48.512Z</time></trkpt><trkpt lat="33.778717" lon="8.8487156"><ele>48.800000000000004</ele><time>2026-04-29T15:31:49.506Z</time></trkpt><trkpt lat="33.7787334" lon="8.8485817"><ele>49.0</ele><time>2026-04-29T15:31:50.494Z</time></trkpt><trkpt lat="33.7787541" lon="8.8484528"><ele>49.400000000000006</ele><time>2026-04-29T15:31:51.508Z</time></trkpt><trkpt lat="33.7787682" lon="8.8483257"><ele>49.8</ele><time>2026-04-29T15:31:52.503Z</time></trkpt><trkpt lat="33.7787784" lon="8.8482035"><ele>50.2</ele><time>2026-04-29T15:31:53.496Z</time></trkpt><trkpt lat="33.7787795" lon="8.8480823"><ele>50.599999999999994</ele><time>2026-04-29T15:31:54.491Z</time></trkpt><trkpt lat="33.7787739" lon="8.8479625"><ele>51.0</ele><time>2026-04-29T15:31:55.508Z</time></trkpt><trkpt lat="33.7787646" lon="8.8478437"><ele>51.0</ele><time>2026-04-29T15:31:56.503Z</time></trkpt><trkpt lat="33.7787549" lon="8.8477196"><ele>51.0</ele><time>2026-04-29T15:31:57.507Z</time></trkpt><trkpt lat="33.778744" lon="8.8475963"><ele>51.0</ele><time>2026-04-29T15:31:58.501Z</time></trkpt><trkpt lat="33.7787306" lon="8.8474689"><ele>51.0</ele><time>2026-04-29T15:31:59.495Z</time></trkpt><trkpt lat="33.7787174" lon="8.8473379"><ele>51.0</ele><time>2026-04-29T15:32:00.509Z</time></trkpt><trkpt lat="33.778705" lon="8.8472121"><ele>50.4</ele><time>2026-04-29T15:32:01.502Z</time></trkpt><trkpt lat="33.7786911" lon="8.847082"><ele>49.8</ele><time>2026-04-29T15:32:02.513Z</time></trkpt><trkpt lat="33.7786797" lon="8.8469587"><ele>49.199999999999996</ele><time>2026-04-29T15:32:03.502Z</time></trkpt><trkpt lat="33.7786725" lon="8.8468405"><ele>48.599999999999994</ele><time>2026-04-29T15:32:04.502Z</time></trkpt><trkpt lat="33.7786651" lon="8.8467276"><ele>48.0</ele><time>2026-04-29T15:32:05.5Z</time></trkpt><trkpt lat="33.778656" lon="8.8466242"><ele>47.5</ele><time>2026-04-29T15:32:06.495Z</time></trkpt><trkpt lat="33.7786529" lon="8.8465273"><ele>47.0</ele><time>2026-04-29T15:32:07.5Z</time></trkpt><trkpt lat="33.7786422" lon="8.8464386"><ele>46.5</ele><time>2026-04-29T15:32:08.504Z</time></trkpt><trkpt lat="33.7786314" lon="8.8463483"><ele>46.0</ele><time>2026-04-29T15:32:09.492Z</time></trkpt><trkpt lat="33.7786175" lon="8.8462522"><ele>45.5</ele><time>2026-04-29T15:32:10.507Z</time></trkpt><trkpt lat="33.7785992" lon="8.8461462"><ele>45.0</ele><time>2026-04-29T15:32:11.497Z</time></trkpt><trkpt lat="33.7785857" lon="8.8460383"><ele>45.4</ele><time>2026-04-29T15:32:12.513Z</time></trkpt><trkpt lat="33.7785767" lon="8.8459125"><ele>45.8</ele><time>2026-04-29T15:32:13.508Z</time></trkpt><trkpt lat="33.7785631" lon="8.8457824"><ele>46.2</ele><time>2026-04-29T15:32:14.509Z</time></trkpt><trkpt lat="33.7785501" lon="8.8456483"><ele>46.6</ele><time>2026-04-29T15:32:15.5Z</time></trkpt><trkpt lat="33.7785388" lon="8.8455057"><ele>47.0</ele><time>2026-04-29T15:32:16.5Z</time></trkpt><trkpt lat="33.7785338" lon="8.8453647"><ele>47.0</ele><time>2026-04-29T15:32:17.51Z</time></trkpt><trkpt lat="33.7785293" lon="8.8452186"><ele>47.0</ele><time>2026-04-29T15:32:18.523Z</time></trkpt><trkpt lat="33.7785345" lon="8.8450836"><ele>47.0</ele><time>2026-04-29T15:32:19.516Z</time></trkpt><trkpt lat="33.7785465" lon="8.8449485"><ele>47.0</ele><time>2026-04-29T15:32:20.506Z</time></trkpt><trkpt lat="33.7785655" lon="8.844812"><ele>47.25</ele><time>2026-04-29T15:32:21.505Z</time></trkpt><trkpt lat="33.7785872" lon="8.8446756"><ele>47.5</ele><time>2026-04-29T15:32:22.51Z</time></trkpt><trkpt lat="33.7786133" lon="8.844538"><ele>47.75</ele><time>2026-04-29T15:32:23.508Z</time></trkpt><trkpt lat="33.7786439" lon="8.8443994"><ele>48.0</ele><time>2026-04-29T15:32:24.523Z</time></trkpt><trkpt lat="33.778674" lon="8.8442595"><ele>47.5</ele><time>2026-04-29T15:32:25.525Z</time></trkpt><trkpt lat="33.7787035" lon="8.8441179"><ele>47.0</ele><time>2026-04-29T15:32:26.501Z</time></trkpt><trkpt lat="33.7787325" lon="8.843974"><ele>46.5</ele><time>2026-04-29T15:32:27.5Z</time></trkpt><trkpt lat="33.7787622" lon="8.8438268"><ele>46.0</ele><time>2026-04-29T15:32:28.515Z</time></trkpt><trkpt lat="33.7787936" lon="8.8436823"><ele>46.0</ele><time>2026-04-29T15:32:29.497Z</time></trkpt><trkpt lat="33.7788242" lon="8.8435485"><ele>46.0</ele><time>2026-04-29T15:32:30.506Z</time></trkpt><trkpt lat="33.7788508" lon="8.8434248"><ele>46.0</ele><time>2026-04-29T15:32:31.504Z</time></trkpt><trkpt lat="33.7788787" lon="8.843304"><ele>46.0</ele><time>2026-04-29T15:32:32.511Z</time></trkpt><trkpt lat="33.7789014" lon="8.8432009"><ele>46.0</ele><time>2026-04-29T15:32:33.509Z</time></trkpt><trkpt lat="33.7789218" lon="8.8431094"><ele>46.0</ele><time>2026-04-29T15:32:34.503Z</time></trkpt><trkpt lat="33.7789373" lon="8.8430202"><ele>46.0</ele><time>2026-04-29T15:32:35.509Z</time></trkpt><trkpt lat="33.7789554" lon="8.8429291"><ele>46.0</ele><time>2026-04-29T15:32:36.508Z</time></trkpt><trkpt lat="33.7789783" lon="8.8428261"><ele>46.0</ele><time>2026-04-29T15:32:37.508Z</time></trkpt><trkpt lat="33.7789998" lon="8.8427079"><ele>46.0</ele><time>2026-04-29T15:32:38.507Z</time></trkpt><trkpt lat="33.779026" lon="8.8425825"><ele>46.75</ele><time>2026-04-29T15:32:39.516Z</time></trkpt><trkpt lat="33.7790533" lon="8.8424465"><ele>47.5</ele><time>2026-04-29T15:32:40.509Z</time></trkpt><trkpt lat="33.7790808" lon="8.8423033"><ele>48.25</ele><time>2026-04-29T15:32:41.509Z</time></trkpt><trkpt lat="33.7791052" lon="8.8421561"><ele>49.0</ele><time>2026-04-29T15:32:42.512Z</time></trkpt><trkpt lat="33.7791324" lon="8.8420106"><ele>49.0</ele><time>2026-04-29T15:32:43.507Z</time></trkpt><trkpt lat="33.7791598" lon="8.8418667"><ele>49.0</ele><time>2026-04-29T15:32:44.511Z</time></trkpt><trkpt lat="33.779187" lon="8.8417244"><ele>49.0</ele><time>2026-04-29T15:32:45.508Z</time></trkpt><trkpt lat="33.7792145" lon="8.8415844"><ele>49.0</ele><time>2026-04-29T15:32:46.507Z</time></trkpt><trkpt lat="33.7792436" lon="8.8414486"><ele>49.0</ele><time>2026-04-29T15:32:47.506Z</time></trkpt><trkpt lat="33.7792724" lon="8.8413092"><ele>49.0</ele><time>2026-04-29T15:32:48.499Z</time></trkpt><trkpt lat="33.7793002" lon="8.8411695"><ele>49.0</ele><time>2026-04-29T15:32:49.49Z</time></trkpt><trkpt lat="33.7793266" lon="8.8410286"><ele>49.0</ele><time>2026-04-29T15:32:50.508Z</time></trkpt><trkpt lat="33.7793528" lon="8.8408873"><ele>49.0</ele><time>2026-04-29T15:32:51.503Z</time></trkpt><trkpt lat="33.7793831" lon="8.8407433"><ele>49.0</ele><time>2026-04-29T15:32:52.511Z</time></trkpt><trkpt lat="33.7794152" lon="8.8406033"><ele>49.0</ele><time>2026-04-29T15:32:53.502Z</time></trkpt><trkpt lat="33.7794455" lon="8.8404637"><ele>49.0</ele><time>2026-04-29T15:32:54.504Z</time></trkpt><trkpt lat="33.7794751" lon="8.8403244"><ele>49.0</ele><time>2026-04-29T15:32:55.505Z</time></trkpt><trkpt lat="33.7795034" lon="8.840185"><ele>49.0</ele><time>2026-04-29T15:32:56.533Z</time></trkpt><trkpt lat="33.7795314" lon="8.840046"><ele>49.0</ele><time>2026-04-29T15:32:57.506Z</time></trkpt><trkpt lat="33.7795589" lon="8.8399032"><ele>49.0</ele><time>2026-04-29T15:32:58.504Z</time></trkpt><trkpt lat="33.7795879" lon="8.8397674"><ele>48.75</ele><time>2026-04-29T15:32:59.498Z</time></trkpt><trkpt lat="33.7796205" lon="8.8396257"><ele>48.5</ele><time>2026-04-29T15:33:00.507Z</time></trkpt><trkpt lat="33.7796563" lon="8.8394848"><ele>48.25</ele><time>2026-04-29T15:33:01.509Z</time></trkpt><trkpt lat="33.779695" lon="8.8393437"><ele>48.0</ele><time>2026-04-29T15:33:02.516Z</time></trkpt><trkpt lat="33.7797348" lon="8.8391966"><ele>47.75</ele><time>2026-04-29T15:33:03.512Z</time></trkpt><trkpt lat="33.7797761" lon="8.8390509"><ele>47.5</ele><time>2026-04-29T15:33:04.512Z</time></trkpt><trkpt lat="33.7798203" lon="8.8389052"><ele>47.25</ele><time>2026-04-29T15:33:05.512Z</time></trkpt><trkpt lat="33.7798662" lon="8.8387597"><ele>47.0</ele><time>2026-04-29T15:33:06.504Z</time></trkpt><trkpt lat="33.7799123" lon="8.8386166"><ele>47.0</ele><time>2026-04-29T15:33:07.492Z</time></trkpt><trkpt lat="33.7799592" lon="8.8384747"><ele>47.0</ele><time>2026-04-29T15:33:08.507Z</time></trkpt><trkpt lat="33.7800061" lon="8.838338"><ele>47.0</ele><time>2026-04-29T15:33:09.499Z</time></trkpt><trkpt lat="33.7800536" lon="8.838206"><ele>47.0</ele><time>2026-04-29T15:33:10.52Z</time></trkpt><trkpt lat="33.7801022" lon="8.8380806"><ele>47.0</ele><time>2026-04-29T15:33:11.517Z</time></trkpt><trkpt lat="33.7801462" lon="8.8379536"><ele>47.0</ele><time>2026-04-29T15:33:12.522Z</time></trkpt><trkpt lat="33.7801904" lon="8.837825"><ele>47.0</ele><time>2026-04-29T15:33:13.507Z</time></trkpt><trkpt lat="33.7802344" lon="8.8376961"><ele>47.0</ele><time>2026-04-29T15:33:14.515Z</time></trkpt><trkpt lat="33.7802801" lon="8.8375692"><ele>47.0</ele><time>2026-04-29T15:33:15.517Z</time></trkpt><trkpt lat="33.7803247" lon="8.8374459"><ele>47.0</ele><time>2026-04-29T15:33:16.507Z</time></trkpt><trkpt lat="33.7803709" lon="8.8373224"><ele>47.0</ele><time>2026-04-29T15:33:17.505Z</time></trkpt><trkpt lat="33.7804191" lon="8.8372021"><ele>47.0</ele><time>2026-04-29T15:33:18.51Z</time></trkpt><trkpt lat="33.7804675" lon="8.8370831"><ele>47.0</ele><time>2026-04-29T15:33:19.503Z</time></trkpt><trkpt lat="33.7805162" lon="8.8369632"><ele>47.0</ele><time>2026-04-29T15:33:20.505Z</time></trkpt><trkpt lat="33.7805636" lon="8.8368564"><ele>47.0</ele><time>2026-04-29T15:33:21.494Z</time></trkpt><trkpt lat="33.7806106" lon="8.8367553"><ele>47.0</ele><time>2026-04-29T15:33:22.506Z</time></trkpt><trkpt lat="33.7806518" lon="8.8366657"><ele>47.0</ele><time>2026-04-29T15:33:23.505Z</time></trkpt><trkpt lat="33.7806889" lon="8.8365879"><ele>47.0</ele><time>2026-04-29T15:33:24.498Z</time></trkpt><trkpt lat="33.7807331" lon="8.8365201"><ele>47.0</ele><time>2026-04-29T15:33:25.452Z</time></trkpt><trkpt lat="33.78077" lon="8.8364325"><ele>47.0</ele><time>2026-04-29T15:33:26.454Z</time></trkpt><trkpt lat="33.7808171" lon="8.8363348"><ele>47.0</ele><time>2026-04-29T15:33:27.446Z</time></trkpt><trkpt lat="33.7808845" lon="8.8362105"><ele>47.0</ele><time>2026-04-29T15:33:28.455Z</time></trkpt><trkpt lat="33.7809725" lon="8.8360401"><ele>47.0</ele><time>2026-04-29T15:33:29.497Z</time></trkpt><trkpt lat="33.781062" lon="8.8358608"><ele>47.666666666666664</ele><time>2026-04-29T15:33:30.467Z</time></trkpt><trkpt lat="33.7811544" lon="8.8356919"><ele>48.33333333333333</ele><time>2026-04-29T15:33:31.459Z</time></trkpt><trkpt lat="33.7812401" lon="8.8355226"><ele>49.0</ele><time>2026-04-29T15:33:32.472Z</time></trkpt><trkpt lat="33.7813177" lon="8.8353579"><ele>49.0</ele><time>2026-04-29T15:33:33.438Z</time></trkpt><trkpt lat="33.7813834" lon="8.8351947"><ele>49.0</ele><time>2026-04-29T15:33:34.439Z</time></trkpt><trkpt lat="33.7814372" lon="8.8350327"><ele>49.0</ele><time>2026-04-29T15:33:35.449Z</time></trkpt><trkpt lat="33.7814801" lon="8.8348806"><ele>49.0</ele><time>2026-04-29T15:33:36.435Z</time></trkpt><trkpt lat="33.7815124" lon="8.8347407"><ele>48.800000000000004</ele><time>2026-04-29T15:33:37.442Z</time></trkpt><trkpt lat="33.781545" lon="8.834606"><ele>48.6</ele><time>2026-04-29T15:33:38.449Z</time></trkpt><trkpt lat="33.7815765" lon="8.8344912"><ele>48.4</ele><time>2026-04-29T15:33:39.447Z</time></trkpt><trkpt lat="33.7816069" lon="8.8343918"><ele>48.2</ele><time>2026-04-29T15:33:40.45Z</time></trkpt><trkpt lat="33.7816273" lon="8.8342994"><ele>48.0</ele><time>2026-04-29T15:33:41.492Z</time></trkpt><trkpt lat="33.7816478" lon="8.8342063"><ele>48.5</ele><time>2026-04-29T15:33:42.445Z</time></trkpt><trkpt lat="33.7816752" lon="8.8340989"><ele>49.0</ele><time>2026-04-29T15:33:43.445Z</time></trkpt><trkpt lat="33.7817064" lon="8.833971"><ele>49.5</ele><time>2026-04-29T15:33:44.441Z</time></trkpt><trkpt lat="33.7817401" lon="8.8338333"><ele>50.0</ele><time>2026-04-29T15:33:45.447Z</time></trkpt><trkpt lat="33.7817787" lon="8.8336816"><ele>50.0</ele><time>2026-04-29T15:33:46.457Z</time></trkpt><trkpt lat="33.7818164" lon="8.8335245"><ele>50.0</ele><time>2026-04-29T15:33:47.457Z</time></trkpt><trkpt lat="33.7818581" lon="8.8333568"><ele>50.0</ele><time>2026-04-29T15:33:48.459Z</time></trkpt><trkpt lat="33.781904" lon="8.8331818"><ele>50.0</ele><time>2026-04-29T15:33:49.455Z</time></trkpt><trkpt lat="33.7819528" lon="8.8330097"><ele>50.0</ele><time>2026-04-29T15:33:50.443Z</time></trkpt><trkpt lat="33.782006" lon="8.8328366"><ele>50.0</ele><time>2026-04-29T15:33:51.444Z</time></trkpt><trkpt lat="33.7820654" lon="8.8326567"><ele>50.0</ele><time>2026-04-29T15:33:52.453Z</time></trkpt><trkpt lat="33.7821339" lon="8.8324781"><ele>49.0</ele><time>2026-04-29T15:33:53.446Z</time></trkpt><trkpt lat="33.7822044" lon="8.8323"><ele>48.0</ele><time>2026-04-29T15:33:54.449Z</time></trkpt><trkpt lat="33.7822704" lon="8.8321249"><ele>47.0</ele><time>2026-04-29T15:33:55.487Z</time></trkpt><trkpt lat="33.7823377" lon="8.8319524"><ele>47.33333333333333</ele><time>2026-04-29T15:33:56.441Z</time></trkpt><trkpt lat="33.7824017" lon="8.8317858"><ele>47.666666666666664</ele><time>2026-04-29T15:33:57.44Z</time></trkpt><trkpt lat="33.7824587" lon="8.8316183"><ele>48.0</ele><time>2026-04-29T15:33:58.452Z</time></trkpt><trkpt lat="33.7825143" lon="8.8314418"><ele>48.0</ele><time>2026-04-29T15:33:59.438Z</time></trkpt><trkpt lat="33.7825624" lon="8.8312576"><ele>48.0</ele><time>2026-04-29T15:34:00.447Z</time></trkpt><trkpt lat="33.7826008" lon="8.8310716"><ele>48.0</ele><time>2026-04-29T15:34:01.444Z</time></trkpt><trkpt lat="33.7826348" lon="8.830867"><ele>48.0</ele><time>2026-04-29T15:34:02.45Z</time></trkpt><trkpt lat="33.7826761" lon="8.8306555"><ele>48.0</ele><time>2026-04-29T15:34:03.452Z</time></trkpt><trkpt lat="33.7827109" lon="8.8304411"><ele>48.0</ele><time>2026-04-29T15:34:04.441Z</time></trkpt><trkpt lat="33.7827415" lon="8.8302228"><ele>46.666666666666664</ele><time>2026-04-29T15:34:05.444Z</time></trkpt><trkpt lat="33.7827719" lon="8.8300013"><ele>45.33333333333333</ele><time>2026-04-29T15:34:06.447Z</time></trkpt><trkpt lat="33.7828034" lon="8.8297861"><ele>44.0</ele><time>2026-04-29T15:34:07.436Z</time></trkpt><trkpt lat="33.782833" lon="8.8295676"><ele>44.0</ele><time>2026-04-29T15:34:08.44Z</time></trkpt><trkpt lat="33.7828618" lon="8.8293464"><ele>44.0</ele><time>2026-04-29T15:34:09.452Z</time></trkpt><trkpt lat="33.7828891" lon="8.8291236"><ele>44.0</ele><time>2026-04-29T15:34:10.441Z</time></trkpt><trkpt lat="33.782923" lon="8.8289055"><ele>43.666666666666664</ele><time>2026-04-29T15:34:11.438Z</time></trkpt><trkpt lat="33.7829564" lon="8.8286866"><ele>43.333333333333336</ele><time>2026-04-29T15:34:12.448Z</time></trkpt><trkpt lat="33.7829852" lon="8.8284727"><ele>43.0</ele><time>2026-04-29T15:34:13.443Z</time></trkpt><trkpt lat="33.7830148" lon="8.8282602"><ele>43.66666666666667</ele><time>2026-04-29T15:34:14.446Z</time></trkpt><trkpt lat="33.7830404" lon="8.8280507"><ele>44.333333333333336</ele><time>2026-04-29T15:34:15.442Z</time></trkpt><trkpt lat="33.7830661" lon="8.8278439"><ele>45.0</ele><time>2026-04-29T15:34:16.488Z</time></trkpt><trkpt lat="33.7830923" lon="8.8276451"><ele>44.75</ele><time>2026-04-29T15:34:17.448Z</time></trkpt><trkpt lat="33.7831169" lon="8.8274514"><ele>44.5</ele><time>2026-04-29T15:34:18.428Z</time></trkpt><trkpt lat="33.7831409" lon="8.8272753"><ele>44.25</ele><time>2026-04-29T15:34:19.528Z</time></trkpt><trkpt lat="33.783165" lon="8.8271147"><ele>44.0</ele><time>2026-04-29T15:34:20.502Z</time></trkpt><trkpt lat="33.7831883" lon="8.8269605"><ele>44.0</ele><time>2026-04-29T15:34:21.501Z</time></trkpt><trkpt lat="33.7832115" lon="8.8268302"><ele>44.0</ele><time>2026-04-29T15:34:22.505Z</time></trkpt><trkpt lat="33.7832294" lon="8.8267183"><ele>44.0</ele><time>2026-04-29T15:34:23.505Z</time></trkpt><trkpt lat="33.7832481" lon="8.8266137"><ele>44.0</ele><time>2026-04-29T15:34:24.508Z</time></trkpt><trkpt lat="33.7832731" lon="8.826506"><ele>44.0</ele><time>2026-04-29T15:34:25.506Z</time></trkpt><trkpt lat="33.7833023" lon="8.8263957"><ele>44.25</ele><time>2026-04-29T15:34:26.513Z</time></trkpt><trkpt lat="33.7833416" lon="8.8262759"><ele>44.5</ele><time>2026-04-29T15:34:27.509Z</time></trkpt><trkpt lat="33.7833871" lon="8.8261454"><ele>44.75</ele><time>2026-04-29T15:34:28.508Z</time></trkpt><trkpt lat="33.7834423" lon="8.8260093"><ele>45.0</ele><time>2026-04-29T15:34:29.51Z</time></trkpt><trkpt lat="33.7834997" lon="8.8258693"><ele>44.5</ele><time>2026-04-29T15:34:30.528Z</time></trkpt><trkpt lat="33.7835519" lon="8.825728"><ele>44.0</ele><time>2026-04-29T15:34:31.511Z</time></trkpt><trkpt lat="33.7836099" lon="8.825584"><ele>43.5</ele><time>2026-04-29T15:34:32.515Z</time></trkpt><trkpt lat="33.7836688" lon="8.8254408"><ele>43.0</ele><time>2026-04-29T15:34:33.522Z</time></trkpt><trkpt lat="33.7837307" lon="8.8253011"><ele>43.0</ele><time>2026-04-29T15:34:34.492Z</time></trkpt><trkpt lat="33.7837857" lon="8.8251614"><ele>43.0</ele><time>2026-04-29T15:34:35.508Z</time></trkpt><trkpt lat="33.7838432" lon="8.8250223"><ele>43.0</ele><time>2026-04-29T15:34:36.516Z</time></trkpt><trkpt lat="33.7838953" lon="8.824891"><ele>43.0</ele><time>2026-04-29T15:34:37.52Z</time></trkpt><trkpt lat="33.783941" lon="8.8247694"><ele>43.333333333333336</ele><time>2026-04-29T15:34:38.512Z</time></trkpt><trkpt lat="33.7839859" lon="8.8246583"><ele>43.66666666666667</ele><time>2026-04-29T15:34:39.493Z</time></trkpt><trkpt lat="33.7840206" lon="8.8245609"><ele>44.0</ele><time>2026-04-29T15:34:40.494Z</time></trkpt><trkpt lat="33.784053" lon="8.8244542"><ele>44.333333333333336</ele><time>2026-04-29T15:34:41.509Z</time></trkpt><trkpt lat="33.7840788" lon="8.8243622"><ele>44.666666666666664</ele><time>2026-04-29T15:34:42.497Z</time></trkpt><trkpt lat="33.784113" lon="8.8242788"><ele>45.0</ele><time>2026-04-29T15:34:43.5Z</time></trkpt><trkpt lat="33.7841367" lon="8.8241978"><ele>45.0</ele><time>2026-04-29T15:34:44.504Z</time></trkpt><trkpt lat="33.7841622" lon="8.8241136"><ele>45.0</ele><time>2026-04-29T15:34:45.518Z</time></trkpt><trkpt lat="33.78419" lon="8.8240155"><ele>45.0</ele><time>2026-04-29T15:34:46.504Z</time></trkpt><trkpt lat="33.7842182" lon="8.8239052"><ele>45.0</ele><time>2026-04-29T15:34:47.531Z</time></trkpt><trkpt lat="33.7842428" lon="8.823789"><ele>45.0</ele><time>2026-04-29T15:34:48.508Z</time></trkpt><trkpt lat="33.7842666" lon="8.8236798"><ele>45.0</ele><time>2026-04-29T15:34:49.509Z</time></trkpt><trkpt lat="33.7842871" lon="8.8235665"><ele>45.0</ele><time>2026-04-29T15:34:50.516Z</time></trkpt><trkpt lat="33.7843009" lon="8.8234469"><ele>45.0</ele><time>2026-04-29T15:34:51.509Z</time></trkpt><trkpt lat="33.7843231" lon="8.8233201"><ele>45.0</ele><time>2026-04-29T15:34:52.507Z</time></trkpt><trkpt lat="33.7843516" lon="8.8231854"><ele>45.0</ele><time>2026-04-29T15:34:53.509Z</time></trkpt><trkpt lat="33.7843817" lon="8.8230502"><ele>44.75</ele><time>2026-04-29T15:34:54.511Z</time></trkpt><trkpt lat="33.7844092" lon="8.822917"><ele>44.5</ele><time>2026-04-29T15:34:55.514Z</time></trkpt><trkpt lat="33.7844419" lon="8.8227794"><ele>44.25</ele><time>2026-04-29T15:34:56.509Z</time></trkpt><trkpt lat="33.7844743" lon="8.8226398"><ele>44.0</ele><time>2026-04-29T15:34:57.504Z</time></trkpt><trkpt lat="33.7845083" lon="8.8224967"><ele>44.0</ele><time>2026-04-29T15:34:58.507Z</time></trkpt><trkpt lat="33.7845449" lon="8.8223476"><ele>44.0</ele><time>2026-04-29T15:34:59.493Z</time></trkpt><trkpt lat="33.7845738" lon="8.8222044"><ele>44.0</ele><time>2026-04-29T15:35:00.491Z</time></trkpt><trkpt lat="33.7846014" lon="8.8220674"><ele>44.0</ele><time>2026-04-29T15:35:01.503Z</time></trkpt><trkpt lat="33.7846232" lon="8.8219359"><ele>43.800000000000004</ele><time>2026-04-29T15:35:02.509Z</time></trkpt><trkpt lat="33.7846503" lon="8.8218024"><ele>43.6</ele><time>2026-04-29T15:35:03.519Z</time></trkpt><trkpt lat="33.7846791" lon="8.8216769"><ele>43.4</ele><time>2026-04-29T15:35:04.511Z</time></trkpt><trkpt lat="33.7847073" lon="8.8215593"><ele>43.2</ele><time>2026-04-29T15:35:05.504Z</time></trkpt><trkpt lat="33.7847355" lon="8.8214413"><ele>43.0</ele><time>2026-04-29T15:35:06.495Z</time></trkpt><trkpt lat="33.7847573" lon="8.8213239"><ele>43.0</ele><time>2026-04-29T15:35:07.501Z</time></trkpt><trkpt lat="33.78478" lon="8.8212102"><ele>43.0</ele><time>2026-04-29T15:35:08.498Z</time></trkpt><trkpt lat="33.7848013" lon="8.8210918"><ele>43.0</ele><time>2026-04-29T15:35:09.502Z</time></trkpt><trkpt lat="33.7848185" lon="8.8209654"><ele>43.0</ele><time>2026-04-29T15:35:10.51Z</time></trkpt><trkpt lat="33.7848337" lon="8.8208352"><ele>43.0</ele><time>2026-04-29T15:35:11.505Z</time></trkpt><trkpt lat="33.7848532" lon="8.820699"><ele>43.0</ele><time>2026-04-29T15:35:12.504Z</time></trkpt><trkpt lat="33.7848721" lon="8.820561"><ele>43.0</ele><time>2026-04-29T15:35:13.498Z</time></trkpt><trkpt lat="33.784886" lon="8.8204298"><ele>43.0</ele><time>2026-04-29T15:35:14.501Z</time></trkpt><trkpt lat="33.7849041" lon="8.8202988"><ele>43.0</ele><time>2026-04-29T15:35:15.561Z</time></trkpt><trkpt lat="33.7849146" lon="8.8201727"><ele>43.0</ele><time>2026-04-29T15:35:16.511Z</time></trkpt><trkpt lat="33.784927" lon="8.8200569"><ele>43.25</ele><time>2026-04-29T15:35:17.5Z</time></trkpt><trkpt lat="33.7849328" lon="8.8199437"><ele>43.5</ele><time>2026-04-29T15:35:18.513Z</time></trkpt><trkpt lat="33.7849418" lon="8.8198103"><ele>43.75</ele><time>2026-04-29T15:35:19.508Z</time></trkpt><trkpt lat="33.7849499" lon="8.8196472"><ele>44.0</ele><time>2026-04-29T15:35:20.495Z</time></trkpt><trkpt lat="33.784958" lon="8.8194705"><ele>43.0</ele><time>2026-04-29T15:35:21.512Z</time></trkpt><trkpt lat="33.7849573" lon="8.8192865"><ele>42.0</ele><time>2026-04-29T15:35:22.521Z</time></trkpt><trkpt lat="33.7849497" lon="8.8191019"><ele>41.0</ele><time>2026-04-29T15:35:23.504Z</time></trkpt><trkpt lat="33.7849392" lon="8.8189273"><ele>41.0</ele><time>2026-04-29T15:35:24.5Z</time></trkpt><trkpt lat="33.7849229" lon="8.81876"><ele>41.0</ele><time>2026-04-29T15:35:25.506Z</time></trkpt><trkpt lat="33.7848971" lon="8.8185852"><ele>41.0</ele><time>2026-04-29T15:35:26.504Z</time></trkpt><trkpt lat="33.7848678" lon="8.8184166"><ele>41.0</ele><time>2026-04-29T15:35:27.511Z</time></trkpt><trkpt lat="33.7848375" lon="8.8182495"><ele>41.5</ele><time>2026-04-29T15:35:28.508Z</time></trkpt><trkpt lat="33.7848094" lon="8.8180853"><ele>42.0</ele><time>2026-04-29T15:35:29.493Z</time></trkpt><trkpt lat="33.7847875" lon="8.8179313"><ele>42.5</ele><time>2026-04-29T15:35:30.513Z</time></trkpt><trkpt lat="33.7847634" lon="8.817784"><ele>43.0</ele><time>2026-04-29T15:35:31.518Z</time></trkpt><trkpt lat="33.7847458" lon="8.8176372"><ele>43.25</ele><time>2026-04-29T15:35:32.521Z</time></trkpt><trkpt lat="33.7847246" lon="8.8174916"><ele>43.5</ele><time>2026-04-29T15:35:33.503Z</time></trkpt><trkpt lat="33.7847041" lon="8.8173502"><ele>43.75</ele><time>2026-04-29T15:35:34.506Z</time></trkpt><trkpt lat="33.7846886" lon="8.817207"><ele>44.0</ele><time>2026-04-29T15:35:35.503Z</time></trkpt><trkpt lat="33.7846801" lon="8.81706"><ele>44.0</ele><time>2026-04-29T15:35:36.509Z</time></trkpt><trkpt lat="33.7846811" lon="8.8169213"><ele>44.0</ele><time>2026-04-29T15:35:37.504Z</time></trkpt><trkpt lat="33.7846779" lon="8.8167896"><ele>44.0</ele><time>2026-04-29T15:35:38.504Z</time></trkpt><trkpt lat="33.7846806" lon="8.8166772"><ele>44.0</ele><time>2026-04-29T15:35:39.513Z</time></trkpt><trkpt lat="33.7846821" lon="8.8165665"><ele>44.0</ele><time>2026-04-29T15:35:40.505Z</time></trkpt><trkpt lat="33.7846841" lon="8.8164681"><ele>44.2</ele><time>2026-04-29T15:35:41.503Z</time></trkpt><trkpt lat="33.7846865" lon="8.816382"><ele>44.400000000000006</ele><time>2026-04-29T15:35:42.505Z</time></trkpt><trkpt lat="33.7846799" lon="8.8162213"><ele>44.6</ele><time>2026-04-29T15:35:44.497Z</time></trkpt><trkpt lat="33.7846775" lon="8.8161287"><ele>44.8</ele><time>2026-04-29T15:35:45.514Z</time></trkpt><trkpt lat="33.7846744" lon="8.8160265"><ele>45.0</ele><time>2026-04-29T15:35:46.506Z</time></trkpt><trkpt lat="33.7846773" lon="8.8158989"><ele>44.5</ele><time>2026-04-29T15:35:47.504Z</time></trkpt><trkpt lat="33.7846873" lon="8.8157631"><ele>44.0</ele><time>2026-04-29T15:35:48.515Z</time></trkpt><trkpt lat="33.784699" lon="8.8156101"><ele>43.5</ele><time>2026-04-29T15:35:49.504Z</time></trkpt><trkpt lat="33.7847105" lon="8.8154516"><ele>43.0</ele><time>2026-04-29T15:35:50.512Z</time></trkpt><trkpt lat="33.7847225" lon="8.8152912"><ele>43.25</ele><time>2026-04-29T15:35:51.497Z</time></trkpt><trkpt lat="33.7847318" lon="8.8151368"><ele>43.5</ele><time>2026-04-29T15:35:52.495Z</time></trkpt><trkpt lat="33.7847398" lon="8.8149841"><ele>43.75</ele><time>2026-04-29T15:35:53.503Z</time></trkpt><trkpt lat="33.7847517" lon="8.8148379"><ele>44.0</ele><time>2026-04-29T15:35:54.507Z</time></trkpt><trkpt lat="33.7847693" lon="8.8146983"><ele>44.0</ele><time>2026-04-29T15:35:55.509Z</time></trkpt><trkpt lat="33.7847929" lon="8.8145612"><ele>44.0</ele><time>2026-04-29T15:35:56.525Z</time></trkpt><trkpt lat="33.7848155" lon="8.8144244"><ele>44.0</ele><time>2026-04-29T15:35:57.509Z</time></trkpt><trkpt lat="33.7848384" lon="8.8142971"><ele>44.0</ele><time>2026-04-29T15:35:58.519Z</time></trkpt><trkpt lat="33.7848601" lon="8.8141822"><ele>44.0</ele><time>2026-04-29T15:35:59.506Z</time></trkpt><trkpt lat="33.7848815" lon="8.8140747"><ele>43.83333333333333</ele><time>2026-04-29T15:36:00.498Z</time></trkpt><trkpt lat="33.784902" lon="8.8139763"><ele>43.666666666666664</ele><time>2026-04-29T15:36:01.503Z</time></trkpt><trkpt lat="33.7849335" lon="8.8138894"><ele>43.5</ele><time>2026-04-29T15:36:02.515Z</time></trkpt><trkpt lat="33.7849661" lon="8.8137979"><ele>43.333333333333336</ele><time>2026-04-29T15:36:03.505Z</time></trkpt><trkpt lat="33.7850059" lon="8.8136953"><ele>43.16666666666667</ele><time>2026-04-29T15:36:04.501Z</time></trkpt><trkpt lat="33.7850483" lon="8.8135854"><ele>43.0</ele><time>2026-04-29T15:36:05.517Z</time></trkpt><trkpt lat="33.7850845" lon="8.8134715"><ele>43.0</ele><time>2026-04-29T15:36:06.507Z</time></trkpt><trkpt lat="33.7851244" lon="8.8133555"><ele>43.0</ele><time>2026-04-29T15:36:07.505Z</time></trkpt><trkpt lat="33.7851713" lon="8.8132271"><ele>43.0</ele><time>2026-04-29T15:36:08.508Z</time></trkpt><trkpt lat="33.7852171" lon="8.8130922"><ele>43.0</ele><time>2026-04-29T15:36:09.511Z</time></trkpt><trkpt lat="33.7852635" lon="8.8129604"><ele>43.25</ele><time>2026-04-29T15:36:10.493Z</time></trkpt><trkpt lat="33.7853064" lon="8.812829"><ele>43.5</ele><time>2026-04-29T15:36:11.511Z</time></trkpt><trkpt lat="33.7853512" lon="8.8126924"><ele>43.75</ele><time>2026-04-29T15:36:12.506Z</time></trkpt><trkpt lat="33.7853975" lon="8.8125587"><ele>44.0</ele><time>2026-04-29T15:36:13.501Z</time></trkpt><trkpt lat="33.7854417" lon="8.8124302"><ele>44.0</ele><time>2026-04-29T15:36:14.5Z</time></trkpt><trkpt lat="33.7854858" lon="8.8123011"><ele>44.0</ele><time>2026-04-29T15:36:15.51Z</time></trkpt><trkpt lat="33.7855313" lon="8.8121773"><ele>44.0</ele><time>2026-04-29T15:36:16.496Z</time></trkpt><trkpt lat="33.785572" lon="8.8120613"><ele>44.0</ele><time>2026-04-29T15:36:17.507Z</time></trkpt><trkpt lat="33.7856101" lon="8.8119474"><ele>44.0</ele><time>2026-04-29T15:36:18.507Z</time></trkpt><trkpt lat="33.7856506" lon="8.8118299"><ele>43.666666666666664</ele><time>2026-04-29T15:36:19.505Z</time></trkpt><trkpt lat="33.7856888" lon="8.8117122"><ele>43.33333333333333</ele><time>2026-04-29T15:36:20.494Z</time></trkpt><trkpt lat="33.7857205" lon="8.8116045"><ele>43.0</ele><time>2026-04-29T15:36:21.501Z</time></trkpt><trkpt lat="33.7857518" lon="8.8115066"><ele>42.666666666666664</ele><time>2026-04-29T15:36:22.499Z</time></trkpt><trkpt lat="33.7857825" lon="8.8114149"><ele>42.333333333333336</ele><time>2026-04-29T15:36:23.502Z</time></trkpt><trkpt lat="33.7858134" lon="8.8113347"><ele>42.0</ele><time>2026-04-29T15:36:24.502Z</time></trkpt><trkpt lat="33.7858396" lon="8.8112556"><ele>42.0</ele><time>2026-04-29T15:36:25.506Z</time></trkpt><trkpt lat="33.7858706" lon="8.8111721"><ele>42.0</ele><time>2026-04-29T15:36:26.509Z</time></trkpt><trkpt lat="33.7859027" lon="8.8110866"><ele>42.0</ele><time>2026-04-29T15:36:27.502Z</time></trkpt><trkpt lat="33.7859426" lon="8.810991"><ele>42.0</ele><time>2026-04-29T15:36:28.505Z</time></trkpt><trkpt lat="33.7859766" lon="8.8108855"><ele>42.0</ele><time>2026-04-29T15:36:29.5Z</time></trkpt><trkpt lat="33.7860071" lon="8.8107914"><ele>42.0</ele><time>2026-04-29T15:36:30.49Z</time></trkpt><trkpt lat="33.7860338" lon="8.8107073"><ele>42.0</ele><time>2026-04-29T15:36:31.503Z</time></trkpt><trkpt lat="33.7860594" lon="8.8106271"><ele>42.0</ele><time>2026-04-29T15:36:32.513Z</time></trkpt><trkpt lat="33.7860873" lon="8.8105512"><ele>42.0</ele><time>2026-04-29T15:36:33.504Z</time></trkpt><trkpt lat="33.7861147" lon="8.8104675"><ele>42.0</ele><time>2026-04-29T15:36:34.502Z</time></trkpt><trkpt lat="33.78615" lon="8.8103765"><ele>42.0</ele><time>2026-04-29T15:36:35.499Z</time></trkpt><trkpt lat="33.786182" lon="8.8102837"><ele>42.0</ele><time>2026-04-29T15:36:36.531Z</time></trkpt><trkpt lat="33.7862152" lon="8.8101875"><ele>42.400000000000006</ele><time>2026-04-29T15:36:37.5Z</time></trkpt><trkpt lat="33.786248" lon="8.8100885"><ele>42.800000000000004</ele><time>2026-04-29T15:36:38.5Z</time></trkpt><trkpt lat="33.7862857" lon="8.8099844"><ele>43.2</ele><time>2026-04-29T15:36:39.508Z</time></trkpt><trkpt lat="33.7863073" lon="8.8098893"><ele>43.6</ele><time>2026-04-29T15:36:40.489Z</time></trkpt><trkpt lat="33.7863417" lon="8.8097827"><ele>44.0</ele><time>2026-04-29T15:36:41.527Z</time></trkpt><trkpt lat="33.7863823" lon="8.8096616"><ele>44.0</ele><time>2026-04-29T15:36:42.512Z</time></trkpt><trkpt lat="33.7864304" lon="8.8095199"><ele>44.0</ele><time>2026-04-29T15:36:43.504Z</time></trkpt><trkpt lat="33.7864825" lon="8.8093682"><ele>44.0</ele><time>2026-04-29T15:36:44.503Z</time></trkpt><trkpt lat="33.7865402" lon="8.8092071"><ele>44.0</ele><time>2026-04-29T15:36:45.5Z</time></trkpt><trkpt lat="33.7865943" lon="8.8090434"><ele>44.0</ele><time>2026-04-29T15:36:46.501Z</time></trkpt><trkpt lat="33.7866511" lon="8.8088759"><ele>44.0</ele><time>2026-04-29T15:36:47.487Z</time></trkpt><trkpt lat="33.7867024" lon="8.8087117"><ele>44.0</ele><time>2026-04-29T15:36:48.509Z</time></trkpt><trkpt lat="33.7867545" lon="8.8085516"><ele>44.0</ele><time>2026-04-29T15:36:49.499Z</time></trkpt><trkpt lat="33.7868033" lon="8.808396"><ele>43.75</ele><time>2026-04-29T15:36:50.51Z</time></trkpt><trkpt lat="33.7868477" lon="8.8082466"><ele>43.5</ele><time>2026-04-29T15:36:51.498Z</time></trkpt><trkpt lat="33.7868951" lon="8.8081025"><ele>43.25</ele><time>2026-04-29T15:36:52.507Z</time></trkpt><trkpt lat="33.7869504" lon="8.807964"><ele>43.0</ele><time>2026-04-29T15:36:53.502Z</time></trkpt><trkpt lat="33.7869923" lon="8.8078392"><ele>43.0</ele><time>2026-04-29T15:36:54.52Z</time></trkpt><trkpt lat="33.7870344" lon="8.8077034"><ele>43.0</ele><time>2026-04-29T15:36:55.505Z</time></trkpt><trkpt lat="33.7870884" lon="8.8075557"><ele>43.0</ele><time>2026-04-29T15:36:56.511Z</time></trkpt><trkpt lat="33.7871328" lon="8.8074145"><ele>43.0</ele><time>2026-04-29T15:36:57.511Z</time></trkpt><trkpt lat="33.787174" lon="8.8072763"><ele>43.0</ele><time>2026-04-29T15:36:58.512Z</time></trkpt><trkpt lat="33.7872154" lon="8.8071435"><ele>43.0</ele><time>2026-04-29T15:36:59.501Z</time></trkpt><trkpt lat="33.78726" lon="8.8070129"><ele>43.0</ele><time>2026-04-29T15:37:00.498Z</time></trkpt><trkpt lat="33.7873016" lon="8.8068932"><ele>43.0</ele><time>2026-04-29T15:37:01.504Z</time></trkpt><trkpt lat="33.7873388" lon="8.8067769"><ele>43.0</ele><time>2026-04-29T15:37:02.508Z</time></trkpt><trkpt lat="33.7873953" lon="8.806681"><ele>43.0</ele><time>2026-04-29T15:37:03.498Z</time></trkpt><trkpt lat="33.7874251" lon="8.806593"><ele>43.0</ele><time>2026-04-29T15:37:04.505Z</time></trkpt><trkpt lat="33.7874577" lon="8.8065156"><ele>43.0</ele><time>2026-04-29T15:37:05.502Z</time></trkpt><trkpt lat="33.7874865" lon="8.8064157"><ele>43.0</ele><time>2026-04-29T15:37:06.5Z</time></trkpt><trkpt lat="33.787528" lon="8.8062938"><ele>43.0</ele><time>2026-04-29T15:37:07.504Z</time></trkpt><trkpt lat="33.7875678" lon="8.8061564"><ele>43.0</ele><time>2026-04-29T15:37:08.501Z</time></trkpt><trkpt lat="33.7876088" lon="8.8060069"><ele>43.0</ele><time>2026-04-29T15:37:09.502Z</time></trkpt><trkpt lat="33.7876529" lon="8.8058542"><ele>43.0</ele><time>2026-04-29T15:37:10.505Z</time></trkpt><trkpt lat="33.7876991" lon="8.8056991"><ele>43.0</ele><time>2026-04-29T15:37:11.501Z</time></trkpt><trkpt lat="33.7877492" lon="8.8055446"><ele>43.0</ele><time>2026-04-29T15:37:12.504Z</time></trkpt><trkpt lat="33.7878019" lon="8.8053923"><ele>43.0</ele><time>2026-04-29T15:37:13.515Z</time></trkpt><trkpt lat="33.787851" lon="8.8052463"><ele>43.0</ele><time>2026-04-29T15:37:14.504Z</time></trkpt><trkpt lat="33.7879024" lon="8.8051002"><ele>43.0</ele><time>2026-04-29T15:37:15.503Z</time></trkpt><trkpt lat="33.7879504" lon="8.8049545"><ele>42.75</ele><time>2026-04-29T15:37:16.507Z</time></trkpt><trkpt lat="33.7879941" lon="8.8048127"><ele>42.5</ele><time>2026-04-29T15:37:17.506Z</time></trkpt><trkpt lat="33.7880418" lon="8.8046687"><ele>42.25</ele><time>2026-04-29T15:37:18.513Z</time></trkpt><trkpt lat="33.7880828" lon="8.8045278"><ele>42.0</ele><time>2026-04-29T15:37:19.507Z</time></trkpt><trkpt lat="33.7881294" lon="8.8043891"><ele>42.25</ele><time>2026-04-29T15:37:20.508Z</time></trkpt><trkpt lat="33.7881729" lon="8.8042554"><ele>42.5</ele><time>2026-04-29T15:37:21.493Z</time></trkpt><trkpt lat="33.788215" lon="8.8041267"><ele>42.75</ele><time>2026-04-29T15:37:22.514Z</time></trkpt><trkpt lat="33.7882514" lon="8.8040031"><ele>43.0</ele><time>2026-04-29T15:37:23.499Z</time></trkpt><trkpt lat="33.7882934" lon="8.8038828"><ele>43.0</ele><time>2026-04-29T15:37:24.512Z</time></trkpt><trkpt lat="33.7883399" lon="8.8037524"><ele>43.0</ele><time>2026-04-29T15:37:25.506Z</time></trkpt><trkpt lat="33.7883807" lon="8.8036183"><ele>43.0</ele><time>2026-04-29T15:37:26.509Z</time></trkpt><trkpt lat="33.7884135" lon="8.8034785"><ele>43.0</ele><time>2026-04-29T15:37:27.5Z</time></trkpt><trkpt lat="33.7884575" lon="8.803336"><ele>43.0</ele><time>2026-04-29T15:37:28.503Z</time></trkpt><trkpt lat="33.788507" lon="8.8032031"><ele>43.0</ele><time>2026-04-29T15:37:29.501Z</time></trkpt><trkpt lat="33.7885397" lon="8.8030619"><ele>43.0</ele><time>2026-04-29T15:37:30.492Z</time></trkpt><trkpt lat="33.788566" lon="8.8029133"><ele>43.0</ele><time>2026-04-29T15:37:31.518Z</time></trkpt><trkpt lat="33.788594" lon="8.8027667"><ele>43.0</ele><time>2026-04-29T15:37:32.523Z</time></trkpt><trkpt lat="33.7886255" lon="8.8026232"><ele>43.0</ele><time>2026-04-29T15:37:33.501Z</time></trkpt><trkpt lat="33.7886592" lon="8.8024818"><ele>43.0</ele><time>2026-04-29T15:37:34.491Z</time></trkpt><trkpt lat="33.7886885" lon="8.8023396"><ele>43.0</ele><time>2026-04-29T15:37:35.504Z</time></trkpt><trkpt lat="33.7887125" lon="8.8022066"><ele>43.0</ele><time>2026-04-29T15:37:36.5Z</time></trkpt><trkpt lat="33.7887417" lon="8.8020745"><ele>43.0</ele><time>2026-04-29T15:37:37.511Z</time></trkpt><trkpt lat="33.7887701" lon="8.8019546"><ele>43.0</ele><time>2026-04-29T15:37:38.509Z</time></trkpt><trkpt lat="33.7887918" lon="8.8018559"><ele>43.0</ele><time>2026-04-29T15:37:39.505Z</time></trkpt><trkpt lat="33.7888171" lon="8.8017638"><ele>43.0</ele><time>2026-04-29T15:37:40.503Z</time></trkpt><trkpt lat="33.7888432" lon="8.8016775"><ele>42.8</ele><time>2026-04-29T15:37:41.493Z</time></trkpt><trkpt lat="33.7888759" lon="8.8015895"><ele>42.599999999999994</ele><time>2026-04-29T15:37:42.495Z</time></trkpt><trkpt lat="33.7889071" lon="8.8014832"><ele>42.400000000000006</ele><time>2026-04-29T15:37:43.495Z</time></trkpt><trkpt lat="33.7889455" lon="8.8013673"><ele>42.2</ele><time>2026-04-29T15:37:44.5Z</time></trkpt><trkpt lat="33.7889834" lon="8.8012422"><ele>42.0</ele><time>2026-04-29T15:37:45.5Z</time></trkpt><trkpt lat="33.7890293" lon="8.8011096"><ele>41.75</ele><time>2026-04-29T15:37:46.492Z</time></trkpt><trkpt lat="33.7890707" lon="8.8009746"><ele>41.5</ele><time>2026-04-29T15:37:47.5Z</time></trkpt><trkpt lat="33.7891159" lon="8.8008382"><ele>41.25</ele><time>2026-04-29T15:37:48.518Z</time></trkpt><trkpt lat="33.7891608" lon="8.8006971"><ele>41.0</ele><time>2026-04-29T15:37:49.491Z</time></trkpt><trkpt lat="33.7892047" lon="8.8005539"><ele>41.0</ele><time>2026-04-29T15:37:50.499Z</time></trkpt><trkpt lat="33.7892522" lon="8.800414"><ele>41.0</ele><time>2026-04-29T15:37:51.499Z</time></trkpt><trkpt lat="33.789298" lon="8.8002758"><ele>41.0</ele><time>2026-04-29T15:37:52.496Z</time></trkpt><trkpt lat="33.7893433" lon="8.8001383"><ele>41.0</ele><time>2026-04-29T15:37:53.509Z</time></trkpt><trkpt lat="33.7893902" lon="8.8000045"><ele>41.25</ele><time>2026-04-29T15:37:54.506Z</time></trkpt><trkpt lat="33.7894358" lon="8.7998676"><ele>41.5</ele><time>2026-04-29T15:37:55.509Z</time></trkpt><trkpt lat="33.7894823" lon="8.799725"><ele>41.75</ele><time>2026-04-29T15:37:56.508Z</time></trkpt><trkpt lat="33.7895278" lon="8.7995836"><ele>42.0</ele><time>2026-04-29T15:37:57.502Z</time></trkpt><trkpt lat="33.789571" lon="8.7994448"><ele>42.0</ele><time>2026-04-29T15:37:58.503Z</time></trkpt><trkpt lat="33.7896125" lon="8.7993137"><ele>42.0</ele><time>2026-04-29T15:37:59.504Z</time></trkpt><trkpt lat="33.7896519" lon="8.7991855"><ele>42.0</ele><time>2026-04-29T15:38:00.498Z</time></trkpt><trkpt lat="33.7896917" lon="8.7990646"><ele>42.0</ele><time>2026-04-29T15:38:01.495Z</time></trkpt><trkpt lat="33.7897311" lon="8.7989485"><ele>42.0</ele><time>2026-04-29T15:38:02.495Z</time></trkpt><trkpt lat="33.7897708" lon="8.7988332"><ele>42.0</ele><time>2026-04-29T15:38:03.505Z</time></trkpt><trkpt lat="33.7898128" lon="8.7987218"><ele>42.0</ele><time>2026-04-29T15:38:04.506Z</time></trkpt><trkpt lat="33.7898504" lon="8.7986064"><ele>42.0</ele><time>2026-04-29T15:38:05.506Z</time></trkpt><trkpt lat="33.7898878" lon="8.7984915"><ele>42.0</ele><time>2026-04-29T15:38:06.509Z</time></trkpt><trkpt lat="33.7899232" lon="8.7983764"><ele>42.0</ele><time>2026-04-29T15:38:07.498Z</time></trkpt><trkpt lat="33.7899586" lon="8.7982785"><ele>41.833333333333336</ele><time>2026-04-29T15:38:08.489Z</time></trkpt><trkpt lat="33.7899885" lon="8.7981734"><ele>41.666666666666664</ele><time>2026-04-29T15:38:10.502Z</time></trkpt><trkpt lat="33.7900246" lon="8.7980684"><ele>41.5</ele><time>2026-04-29T15:38:13.507Z</time></trkpt><trkpt lat="33.7900604" lon="8.7979579"><ele>41.33333333333333</ele><time>2026-04-29T15:38:15.497Z</time></trkpt><trkpt lat="33.7900862" lon="8.7978756"><ele>41.166666666666664</ele><time>2026-04-29T15:38:16.502Z</time></trkpt><trkpt lat="33.7901159" lon="8.7977818"><ele>41.0</ele><time>2026-04-29T15:38:17.503Z</time></trkpt><trkpt lat="33.790144" lon="8.7976836"><ele>41.0</ele><time>2026-04-29T15:38:18.516Z</time></trkpt><trkpt lat="33.7901763" lon="8.7975805"><ele>41.0</ele><time>2026-04-29T15:38:19.497Z</time></trkpt><trkpt lat="33.7902053" lon="8.7974732"><ele>41.0</ele><time>2026-04-29T15:38:20.504Z</time></trkpt><trkpt lat="33.7902311" lon="8.7973688"><ele>41.0</ele><time>2026-04-29T15:38:21.501Z</time></trkpt><trkpt lat="33.7902558" lon="8.7972687"><ele>41.0</ele><time>2026-04-29T15:38:22.497Z</time></trkpt><trkpt lat="33.790279" lon="8.7971812"><ele>41.0</ele><time>2026-04-29T15:38:23.496Z</time></trkpt><trkpt lat="33.790296" lon="8.7971009"><ele>41.0</ele><time>2026-04-29T15:38:24.498Z</time></trkpt><trkpt lat="33.7903127" lon="8.7970231"><ele>41.0</ele><time>2026-04-29T15:38:25.494Z</time></trkpt><trkpt lat="33.7903304" lon="8.7969302"><ele>41.0</ele><time>2026-04-29T15:38:26.547Z</time></trkpt><trkpt lat="33.7903488" lon="8.796821"><ele>41.0</ele><time>2026-04-29T15:38:27.503Z</time></trkpt><trkpt lat="33.7903635" lon="8.7967015"><ele>41.0</ele><time>2026-04-29T15:38:28.498Z</time></trkpt><trkpt lat="33.7903804" lon="8.7965677"><ele>41.0</ele><time>2026-04-29T15:38:29.487Z</time></trkpt><trkpt lat="33.7903969" lon="8.7964299"><ele>41.0</ele><time>2026-04-29T15:38:30.488Z</time></trkpt><trkpt lat="33.7904057" lon="8.7962813"><ele>41.0</ele><time>2026-04-29T15:38:31.475Z</time></trkpt><trkpt lat="33.7904099" lon="8.7961305"><ele>41.0</ele><time>2026-04-29T15:38:32.49Z</time></trkpt><trkpt lat="33.7904195" lon="8.7959794"><ele>41.0</ele><time>2026-04-29T15:38:33.486Z</time></trkpt><trkpt lat="33.7904321" lon="8.795806"><ele>41.0</ele><time>2026-04-29T15:38:34.496Z</time></trkpt><trkpt lat="33.7904398" lon="8.7956557"><ele>41.0</ele><time>2026-04-29T15:38:35.495Z</time></trkpt><trkpt lat="33.7904498" lon="8.7955019"><ele>41.0</ele><time>2026-04-29T15:38:36.508Z</time></trkpt><trkpt lat="33.7904598" lon="8.7953512"><ele>41.0</ele><time>2026-04-29T15:38:37.509Z</time></trkpt><trkpt lat="33.7904711" lon="8.7951976"><ele>41.0</ele><time>2026-04-29T15:38:38.491Z</time></trkpt><trkpt lat="33.7904803" lon="8.7950495"><ele>41.0</ele><time>2026-04-29T15:38:39.498Z</time></trkpt><trkpt lat="33.7904906" lon="8.7949044"><ele>41.0</ele><time>2026-04-29T15:38:40.499Z</time></trkpt><trkpt lat="33.7905006" lon="8.7947624"><ele>41.0</ele><time>2026-04-29T15:38:41.503Z</time></trkpt><trkpt lat="33.7905128" lon="8.7946262"><ele>41.0</ele><time>2026-04-29T15:38:42.501Z</time></trkpt><trkpt lat="33.7905234" lon="8.7945065"><ele>41.0</ele><time>2026-04-29T15:38:43.516Z</time></trkpt><trkpt lat="33.7905401" lon="8.7944028"><ele>41.0</ele><time>2026-04-29T15:38:44.502Z</time></trkpt><trkpt lat="33.7905501" lon="8.7943058"><ele>41.0</ele><time>2026-04-29T15:38:45.503Z</time></trkpt><trkpt lat="33.7905543" lon="8.7942136"><ele>40.8</ele><time>2026-04-29T15:38:46.507Z</time></trkpt><trkpt lat="33.790568" lon="8.7941231"><ele>40.599999999999994</ele><time>2026-04-29T15:38:47.502Z</time></trkpt><trkpt lat="33.7905803" lon="8.794022"><ele>40.4</ele><time>2026-04-29T15:38:48.495Z</time></trkpt><trkpt lat="33.790593" lon="8.7939019"><ele>40.2</ele><time>2026-04-29T15:38:49.496Z</time></trkpt><trkpt lat="33.7906145" lon="8.7937672"><ele>40.0</ele><time>2026-04-29T15:38:50.491Z</time></trkpt><trkpt lat="33.7906467" lon="8.7935977"><ele>40.25</ele><time>2026-04-29T15:38:51.494Z</time></trkpt><trkpt lat="33.7906978" lon="8.7934389"><ele>40.5</ele><time>2026-04-29T15:38:52.504Z</time></trkpt><trkpt lat="33.7907648" lon="8.7932774"><ele>40.75</ele><time>2026-04-29T15:38:53.505Z</time></trkpt><trkpt lat="33.7908374" lon="8.7931215"><ele>41.0</ele><time>2026-04-29T15:38:54.5Z</time></trkpt><trkpt lat="33.7909253" lon="8.7929628"><ele>41.0</ele><time>2026-04-29T15:38:55.495Z</time></trkpt><trkpt lat="33.7910186" lon="8.7928104"><ele>41.0</ele><time>2026-04-29T15:38:56.499Z</time></trkpt><trkpt lat="33.7911216" lon="8.7926637"><ele>41.0</ele><time>2026-04-29T15:38:57.484Z</time></trkpt><trkpt lat="33.7912342" lon="8.7925262"><ele>40.0</ele><time>2026-04-29T15:38:58.492Z</time></trkpt><trkpt lat="33.7913535" lon="8.7924087"><ele>39.0</ele><time>2026-04-29T15:38:59.5Z</time></trkpt><trkpt lat="33.7914755" lon="8.7923091"><ele>38.0</ele><time>2026-04-29T15:39:00.495Z</time></trkpt><trkpt lat="33.7915954" lon="8.7922242"><ele>37.0</ele><time>2026-04-29T15:39:01.492Z</time></trkpt><trkpt lat="33.7917055" lon="8.7921569"><ele>37.0</ele><time>2026-04-29T15:39:02.529Z</time></trkpt><trkpt lat="33.791814" lon="8.7921006"><ele>37.0</ele><time>2026-04-29T15:39:03.505Z</time></trkpt><trkpt lat="33.7919177" lon="8.7920556"><ele>37.0</ele><time>2026-04-29T15:39:04.494Z</time></trkpt><trkpt lat="33.7920303" lon="8.7920152"><ele>37.0</ele><time>2026-04-29T15:39:05.505Z</time></trkpt><trkpt lat="33.7921553" lon="8.7919719"><ele>37.0</ele><time>2026-04-29T15:39:06.506Z</time></trkpt><trkpt lat="33.7922922" lon="8.7919323"><ele>37.0</ele><time>2026-04-29T15:39:07.491Z</time></trkpt><trkpt lat="33.7924375" lon="8.791902"><ele>37.0</ele><time>2026-04-29T15:39:08.499Z</time></trkpt><trkpt lat="33.7925895" lon="8.7918721"><ele>37.0</ele><time>2026-04-29T15:39:09.508Z</time></trkpt><trkpt lat="33.792745" lon="8.7918372"><ele>36.66666666666667</ele><time>2026-04-29T15:39:10.51Z</time></trkpt><trkpt lat="33.7929046" lon="8.7917995"><ele>36.333333333333336</ele><time>2026-04-29T15:39:11.501Z</time></trkpt><trkpt lat="33.79307" lon="8.7917663"><ele>36.0</ele><time>2026-04-29T15:39:12.5Z</time></trkpt><trkpt lat="33.7932437" lon="8.7917323"><ele>36.0</ele><time>2026-04-29T15:39:13.504Z</time></trkpt><trkpt lat="33.7934172" lon="8.7916988"><ele>36.0</ele><time>2026-04-29T15:39:14.507Z</time></trkpt><trkpt lat="33.7935938" lon="8.7916669"><ele>36.0</ele><time>2026-04-29T15:39:15.505Z</time></trkpt><trkpt lat="33.7937719" lon="8.7916335"><ele>35.0</ele><time>2026-04-29T15:39:16.5Z</time></trkpt><trkpt lat="33.7939529" lon="8.7915987"><ele>34.0</ele><time>2026-04-29T15:39:17.501Z</time></trkpt><trkpt lat="33.7941376" lon="8.7915632"><ele>33.0</ele><time>2026-04-29T15:39:18.519Z</time></trkpt><trkpt lat="33.7943213" lon="8.7915238"><ele>32.666666666666664</ele><time>2026-04-29T15:39:19.501Z</time></trkpt><trkpt lat="33.7945031" lon="8.7914824"><ele>32.33333333333333</ele><time>2026-04-29T15:39:20.504Z</time></trkpt><trkpt lat="33.7946848" lon="8.791437"><ele>32.0</ele><time>2026-04-29T15:39:21.505Z</time></trkpt><trkpt lat="33.7948651" lon="8.7913871"><ele>32.0</ele><time>2026-04-29T15:39:22.508Z</time></trkpt><trkpt lat="33.7950345" lon="8.791334"><ele>32.0</ele><time>2026-04-29T15:39:23.512Z</time></trkpt><trkpt lat="33.7951966" lon="8.7912802"><ele>32.0</ele><time>2026-04-29T15:39:24.512Z</time></trkpt><trkpt lat="33.7953511" lon="8.7912184"><ele>32.33333333333333</ele><time>2026-04-29T15:39:25.518Z</time></trkpt><trkpt lat="33.7954994" lon="8.7911529"><ele>32.666666666666664</ele><time>2026-04-29T15:39:26.503Z</time></trkpt><trkpt lat="33.7956442" lon="8.7910861"><ele>33.0</ele><time>2026-04-29T15:39:27.509Z</time></trkpt><trkpt lat="33.7957874" lon="8.7910178"><ele>32.0</ele><time>2026-04-29T15:39:28.506Z</time></trkpt><trkpt lat="33.7959294" lon="8.7909471"><ele>31.0</ele><time>2026-04-29T15:39:29.512Z</time></trkpt><trkpt lat="33.7960724" lon="8.7908734"><ele>30.0</ele><time>2026-04-29T15:39:30.54Z</time></trkpt><trkpt lat="33.7962146" lon="8.7908012"><ele>29.0</ele><time>2026-04-29T15:39:31.511Z</time></trkpt><trkpt lat="33.7963537" lon="8.7907294"><ele>28.0</ele><time>2026-04-29T15:39:32.499Z</time></trkpt><trkpt lat="33.7964915" lon="8.7906583"><ele>27.0</ele><time>2026-04-29T15:39:33.5Z</time></trkpt><trkpt lat="33.7966287" lon="8.7905855"><ele>27.0</ele><time>2026-04-29T15:39:34.492Z</time></trkpt><trkpt lat="33.7967672" lon="8.7905124"><ele>27.0</ele><time>2026-04-29T15:39:35.497Z</time></trkpt><trkpt lat="33.7969071" lon="8.7904397"><ele>27.0</ele><time>2026-04-29T15:39:36.5Z</time></trkpt><trkpt lat="33.7970473" lon="8.7903681"><ele>27.0</ele><time>2026-04-29T15:39:37.489Z</time></trkpt><trkpt lat="33.7971871" lon="8.7902964"><ele>27.0</ele><time>2026-04-29T15:39:38.485Z</time></trkpt><trkpt lat="33.7973274" lon="8.7902245"><ele>27.0</ele><time>2026-04-29T15:39:39.499Z</time></trkpt><trkpt lat="33.7974663" lon="8.7901501"><ele>27.0</ele><time>2026-04-29T15:39:40.517Z</time></trkpt><trkpt lat="33.7976009" lon="8.7900788"><ele>27.0</ele><time>2026-04-29T15:39:41.513Z</time></trkpt><trkpt lat="33.7977362" lon="8.7900074"><ele>27.0</ele><time>2026-04-29T15:39:42.51Z</time></trkpt><trkpt lat="33.797874" lon="8.7899397"><ele>27.0</ele><time>2026-04-29T15:39:43.495Z</time></trkpt><trkpt lat="33.7980142" lon="8.7898688"><ele>26.666666666666664</ele><time>2026-04-29T15:39:44.488Z</time></trkpt><trkpt lat="33.7981529" lon="8.7897975"><ele>26.333333333333332</ele><time>2026-04-29T15:39:45.504Z</time></trkpt><trkpt lat="33.7982958" lon="8.7897274"><ele>26.0</ele><time>2026-04-29T15:39:46.502Z</time></trkpt><trkpt lat="33.798437" lon="8.7896581"><ele>25.666666666666664</ele><time>2026-04-29T15:39:47.494Z</time></trkpt><trkpt lat="33.7985788" lon="8.7895911"><ele>25.333333333333336</ele><time>2026-04-29T15:39:48.494Z</time></trkpt><trkpt lat="33.7987237" lon="8.7895249"><ele>25.0</ele><time>2026-04-29T15:39:49.498Z</time></trkpt><trkpt lat="33.7988773" lon="8.7894593"><ele>25.0</ele><time>2026-04-29T15:39:50.509Z</time></trkpt><trkpt lat="33.7990421" lon="8.7893969"><ele>25.0</ele><time>2026-04-29T15:39:51.506Z</time></trkpt><trkpt lat="33.7992221" lon="8.7893427"><ele>25.0</ele><time>2026-04-29T15:39:52.499Z</time></trkpt><trkpt lat="33.7994132" lon="8.7892963"><ele>25.0</ele><time>2026-04-29T15:39:53.506Z</time></trkpt><trkpt lat="33.7996056" lon="8.7892529"><ele>25.0</ele><time>2026-04-29T15:39:54.504Z</time></trkpt><trkpt lat="33.7998062" lon="8.7892078"><ele>25.0</ele><time>2026-04-29T15:39:55.509Z</time></trkpt><trkpt lat="33.800011" lon="8.7891582"><ele>25.666666666666668</ele><time>2026-04-29T15:39:56.507Z</time></trkpt><trkpt lat="33.8002167" lon="8.7891087"><ele>26.333333333333336</ele><time>2026-04-29T15:39:57.499Z</time></trkpt><trkpt lat="33.8004197" lon="8.789062"><ele>27.0</ele><time>2026-04-29T15:39:58.51Z</time></trkpt><trkpt lat="33.8006241" lon="8.7890163"><ele>27.0</ele><time>2026-04-29T15:39:59.501Z</time></trkpt><trkpt lat="33.8008254" lon="8.7889702"><ele>27.0</ele><time>2026-04-29T15:40:00.552Z</time></trkpt><trkpt lat="33.8010257" lon="8.7889229"><ele>27.0</ele><time>2026-04-29T15:40:01.497Z</time></trkpt><trkpt lat="33.8012234" lon="8.7888752"><ele>25.666666666666668</ele><time>2026-04-29T15:40:02.502Z</time></trkpt><trkpt lat="33.8014226" lon="8.7888265"><ele>24.333333333333336</ele><time>2026-04-29T15:40:03.503Z</time></trkpt><trkpt lat="33.8016206" lon="8.7887785"><ele>23.0</ele><time>2026-04-29T15:40:04.501Z</time></trkpt><trkpt lat="33.8018236" lon="8.7887345"><ele>23.333333333333336</ele><time>2026-04-29T15:40:05.5Z</time></trkpt><trkpt lat="33.8020269" lon="8.7886856"><ele>23.666666666666668</ele><time>2026-04-29T15:40:06.496Z</time></trkpt><trkpt lat="33.8022297" lon="8.7886338"><ele>24.0</ele><time>2026-04-29T15:40:07.501Z</time></trkpt><trkpt lat="33.8024263" lon="8.7885738"><ele>24.0</ele><time>2026-04-29T15:40:08.523Z</time></trkpt><trkpt lat="33.8026054" lon="8.788511"><ele>24.0</ele><time>2026-04-29T15:40:09.504Z</time></trkpt><trkpt lat="33.8027674" lon="8.7884458"><ele>24.0</ele><time>2026-04-29T15:40:10.5Z</time></trkpt><trkpt lat="33.8029188" lon="8.7883745"><ele>24.25</ele><time>2026-04-29T15:40:11.502Z</time></trkpt><trkpt lat="33.8030557" lon="8.7882986"><ele>24.5</ele><time>2026-04-29T15:40:12.506Z</time></trkpt><trkpt lat="33.8031746" lon="8.7882262"><ele>24.75</ele><time>2026-04-29T15:40:13.503Z</time></trkpt><trkpt lat="33.8032769" lon="8.7881681"><ele>25.0</ele><time>2026-04-29T15:40:14.53Z</time></trkpt><trkpt lat="33.8033748" lon="8.7881278"><ele>25.0</ele><time>2026-04-29T15:40:15.499Z</time></trkpt><trkpt lat="33.8034806" lon="8.78811"><ele>25.0</ele><time>2026-04-29T15:40:16.434Z</time></trkpt><trkpt lat="33.8035635" lon="8.788073"><ele>25.0</ele><time>2026-04-29T15:40:17.428Z</time></trkpt><trkpt lat="33.8036408" lon="8.7880009"><ele>25.0</ele><time>2026-04-29T15:40:18.439Z</time></trkpt><trkpt lat="33.803714" lon="8.7878995"><ele>25.0</ele><time>2026-04-29T15:40:19.444Z</time></trkpt><trkpt lat="33.8038138" lon="8.7877756"><ele>24.333333333333336</ele><time>2026-04-29T15:40:20.436Z</time></trkpt><trkpt lat="33.8039285" lon="8.7876476"><ele>23.666666666666668</ele><time>2026-04-29T15:40:21.442Z</time></trkpt><trkpt lat="33.8040466" lon="8.7875298"><ele>23.0</ele><time>2026-04-29T15:40:22.434Z</time></trkpt><trkpt lat="33.8041643" lon="8.7874007"><ele>23.0</ele><time>2026-04-29T15:40:23.437Z</time></trkpt><trkpt lat="33.8042709" lon="8.7872698"><ele>23.0</ele><time>2026-04-29T15:40:24.437Z</time></trkpt><trkpt lat="33.8043768" lon="8.7871272"><ele>23.0</ele><time>2026-04-29T15:40:25.437Z</time></trkpt><trkpt lat="33.8044807" lon="8.7869828"><ele>23.666666666666668</ele><time>2026-04-29T15:40:26.436Z</time></trkpt><trkpt lat="33.8045778" lon="8.7868307"><ele>24.333333333333336</ele><time>2026-04-29T15:40:27.445Z</time></trkpt><trkpt lat="33.8046701" lon="8.7866712"><ele>25.0</ele><time>2026-04-29T15:40:28.457Z</time></trkpt><trkpt lat="33.8047641" lon="8.7865069"><ele>25.0</ele><time>2026-04-29T15:40:29.477Z</time></trkpt><trkpt lat="33.8048567" lon="8.786342"><ele>25.0</ele><time>2026-04-29T15:40:30.439Z</time></trkpt><trkpt lat="33.8049389" lon="8.7861694"><ele>25.0</ele><time>2026-04-29T15:40:31.444Z</time></trkpt><trkpt lat="33.8050105" lon="8.785985"><ele>24.666666666666668</ele><time>2026-04-29T15:40:32.448Z</time></trkpt><trkpt lat="33.8050751" lon="8.7858002"><ele>24.333333333333336</ele><time>2026-04-29T15:40:33.438Z</time></trkpt><trkpt lat="33.8051344" lon="8.7856066"><ele>24.0</ele><time>2026-04-29T15:40:34.436Z</time></trkpt><trkpt lat="33.8051914" lon="8.7854057"><ele>23.666666666666668</ele><time>2026-04-29T15:40:35.437Z</time></trkpt><trkpt lat="33.8052454" lon="8.7852036"><ele>23.333333333333336</ele><time>2026-04-29T15:40:36.45Z</time></trkpt><trkpt lat="33.8052975" lon="8.7849981"><ele>23.0</ele><time>2026-04-29T15:40:37.444Z</time></trkpt><trkpt lat="33.805341" lon="8.7847779"><ele>22.666666666666668</ele><time>2026-04-29T15:40:38.446Z</time></trkpt><trkpt lat="33.8053979" lon="8.7845628"><ele>22.333333333333332</ele><time>2026-04-29T15:40:39.439Z</time></trkpt><trkpt lat="33.805447" lon="8.784342"><ele>22.0</ele><time>2026-04-29T15:40:40.447Z</time></trkpt><trkpt lat="33.8055028" lon="8.7841183"><ele>22.666666666666664</ele><time>2026-04-29T15:40:41.437Z</time></trkpt><trkpt lat="33.8055561" lon="8.7838837"><ele>23.333333333333332</ele><time>2026-04-29T15:40:42.445Z</time></trkpt><trkpt lat="33.8056154" lon="8.7836457"><ele>24.0</ele><time>2026-04-29T15:40:43.437Z</time></trkpt><trkpt lat="33.8056687" lon="8.7834045"><ele>24.333333333333336</ele><time>2026-04-29T15:40:44.437Z</time></trkpt><trkpt lat="33.8057218" lon="8.78316"><ele>24.666666666666668</ele><time>2026-04-29T15:40:45.475Z</time></trkpt><trkpt lat="33.8057766" lon="8.7829115"><ele>25.0</ele><time>2026-04-29T15:40:46.435Z</time></trkpt><trkpt lat="33.8058323" lon="8.7826722"><ele>24.0</ele><time>2026-04-29T15:40:47.438Z</time></trkpt><trkpt lat="33.8058894" lon="8.7824257"><ele>23.0</ele><time>2026-04-29T15:40:48.449Z</time></trkpt><trkpt lat="33.805947" lon="8.7821822"><ele>22.0</ele><time>2026-04-29T15:40:49.439Z</time></trkpt><trkpt lat="33.8060021" lon="8.7819375"><ele>23.333333333333332</ele><time>2026-04-29T15:40:50.441Z</time></trkpt><trkpt lat="33.8060583" lon="8.7816979"><ele>24.666666666666664</ele><time>2026-04-29T15:40:51.436Z</time></trkpt><trkpt lat="33.8061149" lon="8.7814547"><ele>26.0</ele><time>2026-04-29T15:40:52.444Z</time></trkpt><trkpt lat="33.8061695" lon="8.7812101"><ele>25.666666666666664</ele><time>2026-04-29T15:40:53.44Z</time></trkpt><trkpt lat="33.8062215" lon="8.7809693"><ele>25.333333333333336</ele><time>2026-04-29T15:40:54.442Z</time></trkpt><trkpt lat="33.8062726" lon="8.7807257"><ele>25.0</ele><time>2026-04-29T15:40:55.439Z</time></trkpt><trkpt lat="33.8063232" lon="8.7804814"><ele>25.0</ele><time>2026-04-29T15:40:56.442Z</time></trkpt><trkpt lat="33.8063756" lon="8.7802392"><ele>25.0</ele><time>2026-04-29T15:40:57.436Z</time></trkpt><trkpt lat="33.8064314" lon="8.7799943"><ele>25.0</ele><time>2026-04-29T15:40:58.431Z</time></trkpt><trkpt lat="33.8064878" lon="8.7797523"><ele>25.0</ele><time>2026-04-29T15:40:59.442Z</time></trkpt><trkpt lat="33.8065413" lon="8.7795111"><ele>25.0</ele><time>2026-04-29T15:41:00.449Z</time></trkpt><trkpt lat="33.8065918" lon="8.779267"><ele>25.0</ele><time>2026-04-29T15:41:01.443Z</time></trkpt><trkpt lat="33.8066501" lon="8.7790236"><ele>24.666666666666668</ele><time>2026-04-29T15:41:02.443Z</time></trkpt><trkpt lat="33.8067053" lon="8.7787767"><ele>24.333333333333336</ele><time>2026-04-29T15:41:03.468Z</time></trkpt><trkpt lat="33.8067618" lon="8.778535"><ele>24.0</ele><time>2026-04-29T15:41:04.436Z</time></trkpt><trkpt lat="33.8068169" lon="8.7782929"><ele>23.666666666666668</ele><time>2026-04-29T15:41:05.431Z</time></trkpt><trkpt lat="33.8068708" lon="8.7780521"><ele>23.333333333333336</ele><time>2026-04-29T15:41:06.441Z</time></trkpt><trkpt lat="33.8069269" lon="8.7778136"><ele>23.0</ele><time>2026-04-29T15:41:07.438Z</time></trkpt><trkpt lat="33.8069837" lon="8.7775683"><ele>22.666666666666668</ele><time>2026-04-29T15:41:08.43Z</time></trkpt><trkpt lat="33.8070382" lon="8.7773272"><ele>22.333333333333332</ele><time>2026-04-29T15:41:09.444Z</time></trkpt><trkpt lat="33.8070971" lon="8.7770832"><ele>22.0</ele><time>2026-04-29T15:41:10.438Z</time></trkpt><trkpt lat="33.8071544" lon="8.7768386"><ele>23.0</ele><time>2026-04-29T15:41:11.442Z</time></trkpt><trkpt lat="33.8072067" lon="8.7765959"><ele>24.0</ele><time>2026-04-29T15:41:12.453Z</time></trkpt><trkpt lat="33.8072581" lon="8.7763523"><ele>25.0</ele><time>2026-04-29T15:41:13.44Z</time></trkpt><trkpt lat="33.8073119" lon="8.7761089"><ele>25.0</ele><time>2026-04-29T15:41:14.43Z</time></trkpt><trkpt lat="33.8073629" lon="8.77587"><ele>25.0</ele><time>2026-04-29T15:41:15.441Z</time></trkpt><trkpt lat="33.8074168" lon="8.7756265"><ele>25.0</ele><time>2026-04-29T15:41:16.432Z</time></trkpt><trkpt lat="33.8074763" lon="8.7753868"><ele>24.666666666666668</ele><time>2026-04-29T15:41:17.437Z</time></trkpt><trkpt lat="33.8075329" lon="8.7751445"><ele>24.333333333333336</ele><time>2026-04-29T15:41:18.436Z</time></trkpt><trkpt lat="33.8075887" lon="8.7749031"><ele>24.0</ele><time>2026-04-29T15:41:19.473Z</time></trkpt><trkpt lat="33.8076469" lon="8.774664"><ele>24.333333333333336</ele><time>2026-04-29T15:41:20.438Z</time></trkpt><trkpt lat="33.8076998" lon="8.7744202"><ele>24.666666666666668</ele><time>2026-04-29T15:41:21.445Z</time></trkpt><trkpt lat="33.8077576" lon="8.7741783"><ele>25.0</ele><time>2026-04-29T15:41:22.424Z</time></trkpt><trkpt lat="33.8078143" lon="8.7739358"><ele>24.333333333333336</ele><time>2026-04-29T15:41:23.43Z</time></trkpt><trkpt lat="33.807871" lon="8.7736965"><ele>23.666666666666668</ele><time>2026-04-29T15:41:24.436Z</time></trkpt><trkpt lat="33.8079238" lon="8.7734551"><ele>23.0</ele><time>2026-04-29T15:41:25.439Z</time></trkpt><trkpt lat="33.8079753" lon="8.7732174"><ele>23.0</ele><time>2026-04-29T15:41:26.435Z</time></trkpt><trkpt lat="33.8080319" lon="8.772972"><ele>23.0</ele><time>2026-04-29T15:41:27.446Z</time></trkpt><trkpt lat="33.8080836" lon="8.7727277"><ele>23.0</ele><time>2026-04-29T15:41:28.433Z</time></trkpt><trkpt lat="33.8081377" lon="8.7724844"><ele>23.0</ele><time>2026-04-29T15:41:29.44Z</time></trkpt><trkpt lat="33.8081941" lon="8.7722429"><ele>23.0</ele><time>2026-04-29T15:41:30.456Z</time></trkpt><trkpt lat="33.8082491" lon="8.7719986"><ele>23.0</ele><time>2026-04-29T15:41:31.438Z</time></trkpt><trkpt lat="33.8083041" lon="8.7717593"><ele>23.0</ele><time>2026-04-29T15:41:32.443Z</time></trkpt><trkpt lat="33.8083549" lon="8.7715221"><ele>23.0</ele><time>2026-04-29T15:41:33.439Z</time></trkpt><trkpt lat="33.8084126" lon="8.7712819"><ele>23.0</ele><time>2026-04-29T15:41:34.445Z</time></trkpt><trkpt lat="33.8084662" lon="8.7710367"><ele>22.666666666666668</ele><time>2026-04-29T15:41:35.456Z</time></trkpt><trkpt lat="33.8085202" lon="8.7707905"><ele>22.333333333333332</ele><time>2026-04-29T15:41:36.44Z</time></trkpt><trkpt lat="33.8085753" lon="8.7705466"><ele>22.0</ele><time>2026-04-29T15:41:37.447Z</time></trkpt><trkpt lat="33.808628" lon="8.7703072"><ele>22.0</ele><time>2026-04-29T15:41:38.433Z</time></trkpt><trkpt lat="33.8086828" lon="8.7700686"><ele>22.0</ele><time>2026-04-29T15:41:39.432Z</time></trkpt><trkpt lat="33.8087379" lon="8.7698296"><ele>22.0</ele><time>2026-04-29T15:41:40.434Z</time></trkpt><trkpt lat="33.8087947" lon="8.769587"><ele>22.0</ele><time>2026-04-29T15:41:41.437Z</time></trkpt><trkpt lat="33.8088491" lon="8.7693402"><ele>22.0</ele><time>2026-04-29T15:41:42.44Z</time></trkpt><trkpt lat="33.8089011" lon="8.7690974"><ele>22.0</ele><time>2026-04-29T15:41:43.453Z</time></trkpt><trkpt lat="33.8089545" lon="8.7688562"><ele>22.0</ele><time>2026-04-29T15:41:44.441Z</time></trkpt><trkpt lat="33.8090068" lon="8.768616"><ele>22.0</ele><time>2026-04-29T15:41:45.433Z</time></trkpt><trkpt lat="33.8090604" lon="8.7683744"><ele>22.0</ele><time>2026-04-29T15:41:46.445Z</time></trkpt><trkpt lat="33.8091148" lon="8.7681346"><ele>22.0</ele><time>2026-04-29T15:41:47.446Z</time></trkpt><trkpt lat="33.8091637" lon="8.767892"><ele>22.0</ele><time>2026-04-29T15:41:48.442Z</time></trkpt><trkpt lat="33.8092068" lon="8.7676454"><ele>22.0</ele><time>2026-04-29T15:41:49.451Z</time></trkpt><trkpt lat="33.809248" lon="8.7673968"><ele>22.0</ele><time>2026-04-29T15:41:50.436Z</time></trkpt><trkpt lat="33.8092896" lon="8.7671515"><ele>22.0</ele><time>2026-04-29T15:41:51.444Z</time></trkpt><trkpt lat="33.809334" lon="8.7669047"><ele>22.0</ele><time>2026-04-29T15:41:52.438Z</time></trkpt><trkpt lat="33.8093737" lon="8.7666528"><ele>22.0</ele><time>2026-04-29T15:41:53.439Z</time></trkpt><trkpt lat="33.8094121" lon="8.766406"><ele>22.0</ele><time>2026-04-29T15:41:54.445Z</time></trkpt><trkpt lat="33.8094467" lon="8.7661592"><ele>22.0</ele><time>2026-04-29T15:41:55.447Z</time></trkpt><trkpt lat="33.8094824" lon="8.7659112"><ele>22.0</ele><time>2026-04-29T15:41:56.441Z</time></trkpt><trkpt lat="33.8095199" lon="8.765664"><ele>22.0</ele><time>2026-04-29T15:41:57.442Z</time></trkpt><trkpt lat="33.8095626" lon="8.7654173"><ele>22.0</ele><time>2026-04-29T15:41:58.44Z</time></trkpt><trkpt lat="33.8096019" lon="8.7651737"><ele>22.0</ele><time>2026-04-29T15:41:59.444Z</time></trkpt><trkpt lat="33.8096424" lon="8.7649229"><ele>22.0</ele><time>2026-04-29T15:42:00.44Z</time></trkpt><trkpt lat="33.8096845" lon="8.7646755"><ele>22.0</ele><time>2026-04-29T15:42:01.45Z</time></trkpt><trkpt lat="33.8097253" lon="8.7644319"><ele>22.333333333333332</ele><time>2026-04-29T15:42:02.446Z</time></trkpt><trkpt lat="33.8097677" lon="8.7641842"><ele>22.666666666666668</ele><time>2026-04-29T15:42:03.445Z</time></trkpt><trkpt lat="33.8098056" lon="8.7639358"><ele>23.0</ele><time>2026-04-29T15:42:04.439Z</time></trkpt><trkpt lat="33.8098436" lon="8.7636859"><ele>23.666666666666668</ele><time>2026-04-29T15:42:05.437Z</time></trkpt><trkpt lat="33.8098809" lon="8.7634378"><ele>24.333333333333336</ele><time>2026-04-29T15:42:06.436Z</time></trkpt><trkpt lat="33.8099186" lon="8.7631953"><ele>25.0</ele><time>2026-04-29T15:42:07.441Z</time></trkpt><trkpt lat="33.8099622" lon="8.762952"><ele>25.0</ele><time>2026-04-29T15:42:08.466Z</time></trkpt><trkpt lat="33.810006" lon="8.762703"><ele>25.0</ele><time>2026-04-29T15:42:09.456Z</time></trkpt><trkpt lat="33.8100465" lon="8.7624547"><ele>25.0</ele><time>2026-04-29T15:42:10.484Z</time></trkpt><trkpt lat="33.8100833" lon="8.7622074"><ele>25.0</ele><time>2026-04-29T15:42:11.484Z</time></trkpt><trkpt lat="33.8101222" lon="8.7619625"><ele>25.0</ele><time>2026-04-29T15:42:12.441Z</time></trkpt><trkpt lat="33.8101578" lon="8.761716"><ele>25.0</ele><time>2026-04-29T15:42:13.438Z</time></trkpt><trkpt lat="33.8101982" lon="8.761468"><ele>25.0</ele><time>2026-04-29T15:42:14.436Z</time></trkpt><trkpt lat="33.8102372" lon="8.7612218"><ele>25.0</ele><time>2026-04-29T15:42:15.436Z</time></trkpt><trkpt lat="33.8102797" lon="8.7609783"><ele>25.0</ele><time>2026-04-29T15:42:16.433Z</time></trkpt><trkpt lat="33.8103201" lon="8.7607362"><ele>25.0</ele><time>2026-04-29T15:42:17.441Z</time></trkpt><trkpt lat="33.8103593" lon="8.7604937"><ele>25.0</ele><time>2026-04-29T15:42:18.438Z</time></trkpt><trkpt lat="33.810396" lon="8.7602433"><ele>25.0</ele><time>2026-04-29T15:42:19.438Z</time></trkpt><trkpt lat="33.8104354" lon="8.7599976"><ele>25.0</ele><time>2026-04-29T15:42:20.439Z</time></trkpt><trkpt lat="33.8104731" lon="8.7597521"><ele>25.0</ele><time>2026-04-29T15:42:21.434Z</time></trkpt><trkpt lat="33.8105127" lon="8.7595023"><ele>25.0</ele><time>2026-04-29T15:42:22.447Z</time></trkpt><trkpt lat="33.8105516" lon="8.7592527"><ele>24.0</ele><time>2026-04-29T15:42:23.473Z</time></trkpt><trkpt lat="33.8105909" lon="8.7590052"><ele>23.0</ele><time>2026-04-29T15:42:24.441Z</time></trkpt><trkpt lat="33.8106299" lon="8.7587568"><ele>22.0</ele><time>2026-04-29T15:42:25.442Z</time></trkpt><trkpt lat="33.810667" lon="8.7585119"><ele>22.0</ele><time>2026-04-29T15:42:26.436Z</time></trkpt><trkpt lat="33.8107036" lon="8.7582639"><ele>22.0</ele><time>2026-04-29T15:42:27.429Z</time></trkpt><trkpt lat="33.8107434" lon="8.7580155"><ele>22.0</ele><time>2026-04-29T15:42:28.447Z</time></trkpt><trkpt lat="33.8107861" lon="8.7577728"><ele>22.666666666666664</ele><time>2026-04-29T15:42:29.442Z</time></trkpt><trkpt lat="33.810824" lon="8.7575301"><ele>23.333333333333332</ele><time>2026-04-29T15:42:30.44Z</time></trkpt><trkpt lat="33.8108604" lon="8.7572837"><ele>24.0</ele><time>2026-04-29T15:42:31.433Z</time></trkpt><trkpt lat="33.810897" lon="8.7570358"><ele>23.666666666666668</ele><time>2026-04-29T15:42:32.431Z</time></trkpt><trkpt lat="33.810937" lon="8.7567923"><ele>23.333333333333336</ele><time>2026-04-29T15:42:33.441Z</time></trkpt><trkpt lat="33.8109753" lon="8.756545"><ele>23.0</ele><time>2026-04-29T15:42:34.434Z</time></trkpt><trkpt lat="33.8110122" lon="8.7562989"><ele>23.0</ele><time>2026-04-29T15:42:35.437Z</time></trkpt><trkpt lat="33.8110506" lon="8.7560498"><ele>23.0</ele><time>2026-04-29T15:42:36.464Z</time></trkpt><trkpt lat="33.8110882" lon="8.7558082"><ele>23.0</ele><time>2026-04-29T15:42:37.43Z</time></trkpt><trkpt lat="33.8111262" lon="8.7555637"><ele>22.666666666666668</ele><time>2026-04-29T15:42:38.437Z</time></trkpt><trkpt lat="33.8111628" lon="8.7553185"><ele>22.333333333333332</ele><time>2026-04-29T15:42:39.472Z</time></trkpt><trkpt lat="33.8112029" lon="8.7550723"><ele>22.0</ele><time>2026-04-29T15:42:40.476Z</time></trkpt><trkpt lat="33.8112416" lon="8.7548275"><ele>22.666666666666664</ele><time>2026-04-29T15:42:41.443Z</time></trkpt><trkpt lat="33.8112798" lon="8.7545791"><ele>23.333333333333332</ele><time>2026-04-29T15:42:42.429Z</time></trkpt><trkpt lat="33.8113165" lon="8.7543354"><ele>24.0</ele><time>2026-04-29T15:42:43.447Z</time></trkpt><trkpt lat="33.8113547" lon="8.7540891"><ele>24.0</ele><time>2026-04-29T15:42:44.44Z</time></trkpt><trkpt lat="33.8113905" lon="8.753841"><ele>24.0</ele><time>2026-04-29T15:42:45.438Z</time></trkpt><trkpt lat="33.8114313" lon="8.7535942"><ele>24.0</ele><time>2026-04-29T15:42:46.439Z</time></trkpt><trkpt lat="33.8114733" lon="8.7533503"><ele>24.0</ele><time>2026-04-29T15:42:47.465Z</time></trkpt><trkpt lat="33.8115104" lon="8.7531003"><ele>24.0</ele><time>2026-04-29T15:42:48.458Z</time></trkpt><trkpt lat="33.8115457" lon="8.7528554"><ele>24.0</ele><time>2026-04-29T15:42:49.44Z</time></trkpt><trkpt lat="33.8115806" lon="8.7526068"><ele>24.0</ele><time>2026-04-29T15:42:50.445Z</time></trkpt><trkpt lat="33.8116173" lon="8.7523579"><ele>24.0</ele><time>2026-04-29T15:42:51.432Z</time></trkpt><trkpt lat="33.8116552" lon="8.7521147"><ele>24.0</ele><time>2026-04-29T15:42:52.442Z</time></trkpt><trkpt lat="33.8116954" lon="8.7518626"><ele>24.333333333333336</ele><time>2026-04-29T15:42:53.468Z</time></trkpt><trkpt lat="33.8117338" lon="8.7516149"><ele>24.666666666666668</ele><time>2026-04-29T15:42:54.456Z</time></trkpt><trkpt lat="33.811771" lon="8.7513669"><ele>25.0</ele><time>2026-04-29T15:42:55.443Z</time></trkpt><trkpt lat="33.8118077" lon="8.7511194"><ele>25.0</ele><time>2026-04-29T15:42:56.438Z</time></trkpt><trkpt lat="33.8118446" lon="8.7508696"><ele>25.0</ele><time>2026-04-29T15:42:57.438Z</time></trkpt><trkpt lat="33.8118778" lon="8.7506199"><ele>25.0</ele><time>2026-04-29T15:42:58.437Z</time></trkpt><trkpt lat="33.8119111" lon="8.7503729"><ele>24.333333333333336</ele><time>2026-04-29T15:42:59.436Z</time></trkpt><trkpt lat="33.811941" lon="8.7501226"><ele>23.666666666666668</ele><time>2026-04-29T15:43:00.438Z</time></trkpt><trkpt lat="33.8119748" lon="8.749881"><ele>23.0</ele><time>2026-04-29T15:43:01.436Z</time></trkpt><trkpt lat="33.812008" lon="8.7496333"><ele>23.0</ele><time>2026-04-29T15:43:02.437Z</time></trkpt><trkpt lat="33.8120423" lon="8.7493849"><ele>23.0</ele><time>2026-04-29T15:43:03.438Z</time></trkpt><trkpt lat="33.8120764" lon="8.7491346"><ele>23.0</ele><time>2026-04-29T15:43:04.459Z</time></trkpt><trkpt lat="33.8121081" lon="8.7488858"><ele>22.0</ele><time>2026-04-29T15:43:05.439Z</time></trkpt><trkpt lat="33.8121477" lon="8.7486363"><ele>21.0</ele><time>2026-04-29T15:43:06.426Z</time></trkpt><trkpt lat="33.8121844" lon="8.7483933"><ele>20.0</ele><time>2026-04-29T15:43:07.442Z</time></trkpt><trkpt lat="33.812216" lon="8.7481542"><ele>19.333333333333336</ele><time>2026-04-29T15:43:08.444Z</time></trkpt><trkpt lat="33.8122438" lon="8.7479139"><ele>18.666666666666668</ele><time>2026-04-29T15:43:09.438Z</time></trkpt><trkpt lat="33.8122776" lon="8.7476676"><ele>18.0</ele><time>2026-04-29T15:43:10.468Z</time></trkpt><trkpt lat="33.8123092" lon="8.7474211"><ele>19.333333333333332</ele><time>2026-04-29T15:43:11.45Z</time></trkpt><trkpt lat="33.8123436" lon="8.7471749"><ele>20.666666666666664</ele><time>2026-04-29T15:43:12.444Z</time></trkpt><trkpt lat="33.8123717" lon="8.7469235"><ele>22.0</ele><time>2026-04-29T15:43:13.439Z</time></trkpt><trkpt lat="33.8123984" lon="8.7466719"><ele>22.333333333333332</ele><time>2026-04-29T15:43:14.438Z</time></trkpt><trkpt lat="33.812433" lon="8.7464231"><ele>22.666666666666668</ele><time>2026-04-29T15:43:15.438Z</time></trkpt><trkpt lat="33.8124653" lon="8.7461798"><ele>23.0</ele><time>2026-04-29T15:43:16.437Z</time></trkpt><trkpt lat="33.8124953" lon="8.7459295"><ele>23.0</ele><time>2026-04-29T15:43:17.441Z</time></trkpt><trkpt lat="33.8125342" lon="8.7456815"><ele>23.0</ele><time>2026-04-29T15:43:18.447Z</time></trkpt><trkpt lat="33.8125682" lon="8.7454293"><ele>23.0</ele><time>2026-04-29T15:43:19.447Z</time></trkpt><trkpt lat="33.8126014" lon="8.7451829"><ele>23.0</ele><time>2026-04-29T15:43:20.439Z</time></trkpt><trkpt lat="33.8126333" lon="8.744933"><ele>23.0</ele><time>2026-04-29T15:43:21.435Z</time></trkpt><trkpt lat="33.8126701" lon="8.7446865"><ele>23.0</ele><time>2026-04-29T15:43:22.444Z</time></trkpt><trkpt lat="33.8127064" lon="8.7444444"><ele>23.0</ele><time>2026-04-29T15:43:23.441Z</time></trkpt><trkpt lat="33.8127401" lon="8.7441934"><ele>23.0</ele><time>2026-04-29T15:43:24.451Z</time></trkpt><trkpt lat="33.8127754" lon="8.7439503"><ele>23.0</ele><time>2026-04-29T15:43:25.441Z</time></trkpt><trkpt lat="33.8128086" lon="8.7436988"><ele>22.0</ele><time>2026-04-29T15:43:26.438Z</time></trkpt><trkpt lat="33.8128403" lon="8.7434488"><ele>21.0</ele><time>2026-04-29T15:43:27.441Z</time></trkpt><trkpt lat="33.8128696" lon="8.7432021"><ele>20.0</ele><time>2026-04-29T15:43:28.471Z</time></trkpt><trkpt lat="33.8129013" lon="8.7429515"><ele>20.0</ele><time>2026-04-29T15:43:29.436Z</time></trkpt><trkpt lat="33.8129346" lon="8.7427031"><ele>20.0</ele><time>2026-04-29T15:43:30.435Z</time></trkpt><trkpt lat="33.812971" lon="8.7424579"><ele>20.0</ele><time>2026-04-29T15:43:31.433Z</time></trkpt><trkpt lat="33.8130018" lon="8.7422072"><ele>20.0</ele><time>2026-04-29T15:43:32.437Z</time></trkpt><trkpt lat="33.8130324" lon="8.7419614"><ele>20.0</ele><time>2026-04-29T15:43:33.438Z</time></trkpt><trkpt lat="33.8130713" lon="8.7417149"><ele>20.0</ele><time>2026-04-29T15:43:34.434Z</time></trkpt><trkpt lat="33.8131053" lon="8.741462"><ele>20.333333333333336</ele><time>2026-04-29T15:43:35.438Z</time></trkpt><trkpt lat="33.8131406" lon="8.7412132"><ele>20.666666666666668</ele><time>2026-04-29T15:43:36.461Z</time></trkpt><trkpt lat="33.8131745" lon="8.7409643"><ele>21.0</ele><time>2026-04-29T15:43:37.457Z</time></trkpt><trkpt lat="33.8132097" lon="8.7407167"><ele>21.0</ele><time>2026-04-29T15:43:38.439Z</time></trkpt><trkpt lat="33.8132439" lon="8.7404676"><ele>21.0</ele><time>2026-04-29T15:43:39.441Z</time></trkpt><trkpt lat="33.8132791" lon="8.7402226"><ele>21.0</ele><time>2026-04-29T15:43:40.445Z</time></trkpt><trkpt lat="33.8133093" lon="8.7399773"><ele>21.0</ele><time>2026-04-29T15:43:41.441Z</time></trkpt><trkpt lat="33.8133404" lon="8.7397284"><ele>21.0</ele><time>2026-04-29T15:43:42.438Z</time></trkpt><trkpt lat="33.8133755" lon="8.7394841"><ele>21.0</ele><time>2026-04-29T15:43:43.442Z</time></trkpt><trkpt lat="33.8134086" lon="8.7392306"><ele>21.0</ele><time>2026-04-29T15:43:44.432Z</time></trkpt><trkpt lat="33.8134461" lon="8.7389854"><ele>21.0</ele><time>2026-04-29T15:43:45.461Z</time></trkpt><trkpt lat="33.8134816" lon="8.738731"><ele>21.0</ele><time>2026-04-29T15:43:46.427Z</time></trkpt><trkpt lat="33.8135189" lon="8.7384697"><ele>21.0</ele><time>2026-04-29T15:43:47.435Z</time></trkpt><trkpt lat="33.8135557" lon="8.7381965"><ele>21.0</ele><time>2026-04-29T15:43:48.438Z</time></trkpt><trkpt lat="33.813593" lon="8.7379218"><ele>22.0</ele><time>2026-04-29T15:43:49.438Z</time></trkpt><trkpt lat="33.813624" lon="8.7376523"><ele>23.0</ele><time>2026-04-29T15:43:50.44Z</time></trkpt><trkpt lat="33.8136547" lon="8.7373771"><ele>23.0</ele><time>2026-04-29T15:43:51.436Z</time></trkpt><trkpt lat="33.8136917" lon="8.7371023"><ele>23.0</ele><time>2026-04-29T15:43:52.436Z</time></trkpt><trkpt lat="33.8137364" lon="8.7368256"><ele>22.5</ele><time>2026-04-29T15:43:53.441Z</time></trkpt><trkpt lat="33.8137744" lon="8.7365468"><ele>22.0</ele><time>2026-04-29T15:43:54.441Z</time></trkpt><trkpt lat="33.8138043" lon="8.7362687"><ele>21.5</ele><time>2026-04-29T15:43:55.437Z</time></trkpt><trkpt lat="33.8138403" lon="8.7359973"><ele>21.0</ele><time>2026-04-29T15:43:56.444Z</time></trkpt><trkpt lat="33.8138739" lon="8.7357237"><ele>21.0</ele><time>2026-04-29T15:43:57.44Z</time></trkpt><trkpt lat="33.8138963" lon="8.7354406"><ele>21.0</ele><time>2026-04-29T15:43:58.442Z</time></trkpt><trkpt lat="33.813917" lon="8.7351613"><ele>21.5</ele><time>2026-04-29T15:43:59.435Z</time></trkpt><trkpt lat="33.8139416" lon="8.7348815"><ele>22.0</ele><time>2026-04-29T15:44:00.433Z</time></trkpt><trkpt lat="33.8139696" lon="8.7346014"><ele>21.5</ele><time>2026-04-29T15:44:01.44Z</time></trkpt><trkpt lat="33.8139959" lon="8.7343263"><ele>21.0</ele><time>2026-04-29T15:44:02.465Z</time></trkpt><trkpt lat="33.8140192" lon="8.7340478"><ele>21.0</ele><time>2026-04-29T15:44:03.446Z</time></trkpt><trkpt lat="33.8140397" lon="8.733775"><ele>21.0</ele><time>2026-04-29T15:44:04.44Z</time></trkpt><trkpt lat="33.8140614" lon="8.7335005"><ele>20.5</ele><time>2026-04-29T15:44:05.437Z</time></trkpt><trkpt lat="33.8140879" lon="8.7332303"><ele>20.0</ele><time>2026-04-29T15:44:06.446Z</time></trkpt><trkpt lat="33.81411" lon="8.7329619"><ele>20.666666666666668</ele><time>2026-04-29T15:44:07.438Z</time></trkpt><trkpt lat="33.8141292" lon="8.7326948"><ele>21.333333333333332</ele><time>2026-04-29T15:44:08.44Z</time></trkpt><trkpt lat="33.8141515" lon="8.732429"><ele>22.0</ele><time>2026-04-29T15:44:09.44Z</time></trkpt><trkpt lat="33.8141743" lon="8.7321567"><ele>22.0</ele><time>2026-04-29T15:44:10.442Z</time></trkpt><trkpt lat="33.8141955" lon="8.7318827"><ele>22.0</ele><time>2026-04-29T15:44:11.433Z</time></trkpt><trkpt lat="33.8142188" lon="8.7316156"><ele>22.0</ele><time>2026-04-29T15:44:12.437Z</time></trkpt><trkpt lat="33.8142403" lon="8.7313466"><ele>22.0</ele><time>2026-04-29T15:44:13.435Z</time></trkpt><trkpt lat="33.8142621" lon="8.7310778"><ele>22.0</ele><time>2026-04-29T15:44:14.44Z</time></trkpt><trkpt lat="33.8142856" lon="8.730809"><ele>22.0</ele><time>2026-04-29T15:44:15.441Z</time></trkpt><trkpt lat="33.8143104" lon="8.7305432"><ele>22.0</ele><time>2026-04-29T15:44:16.443Z</time></trkpt><trkpt lat="33.8143296" lon="8.7302753"><ele>22.0</ele><time>2026-04-29T15:44:17.433Z</time></trkpt><trkpt lat="33.8143454" lon="8.7300063"><ele>22.0</ele><time>2026-04-29T15:44:18.448Z</time></trkpt><trkpt lat="33.8143538" lon="8.7297362"><ele>22.0</ele><time>2026-04-29T15:44:19.434Z</time></trkpt><trkpt lat="33.8143609" lon="8.7294618"><ele>21.0</ele><time>2026-04-29T15:44:20.468Z</time></trkpt><trkpt lat="33.8143617" lon="8.7291878"><ele>20.0</ele><time>2026-04-29T15:44:21.433Z</time></trkpt><trkpt lat="33.8143656" lon="8.7289163"><ele>20.0</ele><time>2026-04-29T15:44:22.443Z</time></trkpt><trkpt lat="33.8143665" lon="8.7286496"><ele>20.0</ele><time>2026-04-29T15:44:23.436Z</time></trkpt><trkpt lat="33.8143703" lon="8.7283831"><ele>20.0</ele><time>2026-04-29T15:44:24.441Z</time></trkpt><trkpt lat="33.8143787" lon="8.7281133"><ele>20.0</ele><time>2026-04-29T15:44:25.436Z</time></trkpt><trkpt lat="33.8143898" lon="8.727845"><ele>20.0</ele><time>2026-04-29T15:44:26.441Z</time></trkpt><trkpt lat="33.8144095" lon="8.7275739"><ele>20.0</ele><time>2026-04-29T15:44:27.436Z</time></trkpt><trkpt lat="33.8144344" lon="8.727306"><ele>20.333333333333336</ele><time>2026-04-29T15:44:28.437Z</time></trkpt><trkpt lat="33.8144731" lon="8.7270419"><ele>20.666666666666668</ele><time>2026-04-29T15:44:29.446Z</time></trkpt><trkpt lat="33.8145126" lon="8.7267734"><ele>21.0</ele><time>2026-04-29T15:44:30.446Z</time></trkpt><trkpt lat="33.8145542" lon="8.7265039"><ele>21.0</ele><time>2026-04-29T15:44:31.439Z</time></trkpt><trkpt lat="33.8145988" lon="8.7262363"><ele>21.0</ele><time>2026-04-29T15:44:32.443Z</time></trkpt><trkpt lat="33.8146494" lon="8.7259722"><ele>21.5</ele><time>2026-04-29T15:44:33.432Z</time></trkpt><trkpt lat="33.8147137" lon="8.7257097"><ele>22.0</ele><time>2026-04-29T15:44:34.445Z</time></trkpt><trkpt lat="33.8147794" lon="8.725452"><ele>22.0</ele><time>2026-04-29T15:44:35.452Z</time></trkpt><trkpt lat="33.8148505" lon="8.7251957"><ele>22.0</ele><time>2026-04-29T15:44:36.442Z</time></trkpt><trkpt lat="33.8149246" lon="8.7249431"><ele>22.0</ele><time>2026-04-29T15:44:37.441Z</time></trkpt><trkpt lat="33.8150071" lon="8.7246906"><ele>22.0</ele><time>2026-04-29T15:44:38.442Z</time></trkpt><trkpt lat="33.8150935" lon="8.7244425"><ele>22.0</ele><time>2026-04-29T15:44:39.431Z</time></trkpt><trkpt lat="33.8151902" lon="8.7241936"><ele>21.0</ele><time>2026-04-29T15:44:40.433Z</time></trkpt><trkpt lat="33.8152904" lon="8.7239509"><ele>20.0</ele><time>2026-04-29T15:44:41.439Z</time></trkpt><trkpt lat="33.8153935" lon="8.7237006"><ele>21.0</ele><time>2026-04-29T15:44:42.438Z</time></trkpt><trkpt lat="33.8154963" lon="8.7234548"><ele>22.0</ele><time>2026-04-29T15:44:43.437Z</time></trkpt><trkpt lat="33.8155985" lon="8.7232106"><ele>22.0</ele><time>2026-04-29T15:44:44.436Z</time></trkpt><trkpt lat="33.8156977" lon="8.7229703"><ele>22.0</ele><time>2026-04-29T15:44:45.445Z</time></trkpt><trkpt lat="33.8157959" lon="8.7227328"><ele>22.0</ele><time>2026-04-29T15:44:46.436Z</time></trkpt><trkpt lat="33.8158909" lon="8.7224881"><ele>22.333333333333332</ele><time>2026-04-29T15:44:47.432Z</time></trkpt><trkpt lat="33.8159825" lon="8.7222401"><ele>22.666666666666668</ele><time>2026-04-29T15:44:48.442Z</time></trkpt><trkpt lat="33.8160766" lon="8.7219971"><ele>23.0</ele><time>2026-04-29T15:44:49.448Z</time></trkpt><trkpt lat="33.8161654" lon="8.7217493"><ele>22.0</ele><time>2026-04-29T15:44:50.443Z</time></trkpt><trkpt lat="33.8162588" lon="8.7215032"><ele>21.0</ele><time>2026-04-29T15:44:51.441Z</time></trkpt><trkpt lat="33.8163556" lon="8.7212546"><ele>21.0</ele><time>2026-04-29T15:44:52.47Z</time></trkpt><trkpt lat="33.8164513" lon="8.7210107"><ele>21.0</ele><time>2026-04-29T15:44:53.437Z</time></trkpt><trkpt lat="33.8165441" lon="8.7207657"><ele>21.0</ele><time>2026-04-29T15:44:54.443Z</time></trkpt><trkpt lat="33.8166372" lon="8.7205192"><ele>21.0</ele><time>2026-04-29T15:44:55.439Z</time></trkpt><trkpt lat="33.8167318" lon="8.7202717"><ele>21.0</ele><time>2026-04-29T15:44:56.439Z</time></trkpt><trkpt lat="33.8168238" lon="8.7200268"><ele>20.666666666666668</ele><time>2026-04-29T15:44:57.452Z</time></trkpt><trkpt lat="33.8169159" lon="8.7197815"><ele>20.333333333333336</ele><time>2026-04-29T15:44:58.445Z</time></trkpt><trkpt lat="33.8170094" lon="8.7195349"><ele>20.0</ele><time>2026-04-29T15:44:59.448Z</time></trkpt><trkpt lat="33.8171025" lon="8.7192868"><ele>20.0</ele><time>2026-04-29T15:45:00.467Z</time></trkpt><trkpt lat="33.8171945" lon="8.7190424"><ele>20.0</ele><time>2026-04-29T15:45:01.453Z</time></trkpt><trkpt lat="33.8172889" lon="8.7187966"><ele>20.0</ele><time>2026-04-29T15:45:02.462Z</time></trkpt><trkpt lat="33.8173812" lon="8.7185502"><ele>20.0</ele><time>2026-04-29T15:45:03.439Z</time></trkpt><trkpt lat="33.8174777" lon="8.7183063"><ele>20.0</ele><time>2026-04-29T15:45:04.445Z</time></trkpt><trkpt lat="33.8175748" lon="8.7180629"><ele>20.0</ele><time>2026-04-29T15:45:05.43Z</time></trkpt><trkpt lat="33.8176702" lon="8.7178162"><ele>20.0</ele><time>2026-04-29T15:45:06.443Z</time></trkpt><trkpt lat="33.8177626" lon="8.7175701"><ele>20.0</ele><time>2026-04-29T15:45:07.443Z</time></trkpt><trkpt lat="33.8178558" lon="8.7173258"><ele>20.0</ele><time>2026-04-29T15:45:08.441Z</time></trkpt><trkpt lat="33.8179484" lon="8.7170816"><ele>20.5</ele><time>2026-04-29T15:45:09.441Z</time></trkpt><trkpt lat="33.8180461" lon="8.7168382"><ele>21.0</ele><time>2026-04-29T15:45:10.484Z</time></trkpt><trkpt lat="33.8181464" lon="8.7165955"><ele>21.0</ele><time>2026-04-29T15:45:11.444Z</time></trkpt><trkpt lat="33.8182452" lon="8.7163532"><ele>21.0</ele><time>2026-04-29T15:45:12.443Z</time></trkpt><trkpt lat="33.8183422" lon="8.7161167"><ele>21.0</ele><time>2026-04-29T15:45:13.436Z</time></trkpt><trkpt lat="33.8184351" lon="8.7158832"><ele>20.666666666666668</ele><time>2026-04-29T15:45:14.434Z</time></trkpt><trkpt lat="33.8185274" lon="8.7156612"><ele>20.333333333333336</ele><time>2026-04-29T15:45:15.442Z</time></trkpt><trkpt lat="33.8186135" lon="8.7154354"><ele>20.0</ele><time>2026-04-29T15:45:16.437Z</time></trkpt><trkpt lat="33.8187057" lon="8.7152096"><ele>19.666666666666668</ele><time>2026-04-29T15:45:17.439Z</time></trkpt><trkpt lat="33.8188" lon="8.7149811"><ele>19.333333333333332</ele><time>2026-04-29T15:45:18.436Z</time></trkpt><trkpt lat="33.818891" lon="8.7147535"><ele>19.0</ele><time>2026-04-29T15:45:19.445Z</time></trkpt><trkpt lat="33.8189787" lon="8.7145194"><ele>19.333333333333332</ele><time>2026-04-29T15:45:20.432Z</time></trkpt><trkpt lat="33.8190694" lon="8.7142818"><ele>19.666666666666668</ele><time>2026-04-29T15:45:21.441Z</time></trkpt><trkpt lat="33.819166" lon="8.7140502"><ele>20.0</ele><time>2026-04-29T15:45:22.436Z</time></trkpt><trkpt lat="33.8192604" lon="8.7138232"><ele>20.0</ele><time>2026-04-29T15:45:23.433Z</time></trkpt><trkpt lat="33.8193485" lon="8.7135921"><ele>20.0</ele><time>2026-04-29T15:45:24.441Z</time></trkpt><trkpt lat="33.81944" lon="8.7133606"><ele>20.0</ele><time>2026-04-29T15:45:25.434Z</time></trkpt><trkpt lat="33.819533" lon="8.7131333"><ele>20.0</ele><time>2026-04-29T15:45:26.434Z</time></trkpt><trkpt lat="33.8196244" lon="8.7129044"><ele>20.0</ele><time>2026-04-29T15:45:27.442Z</time></trkpt><trkpt lat="33.8197152" lon="8.7126843"><ele>20.0</ele><time>2026-04-29T15:45:28.46Z</time></trkpt><trkpt lat="33.8198108" lon="8.7124555"><ele>19.666666666666668</ele><time>2026-04-29T15:45:29.435Z</time></trkpt><trkpt lat="33.8199064" lon="8.7122288"><ele>19.333333333333332</ele><time>2026-04-29T15:45:30.443Z</time></trkpt><trkpt lat="33.820007" lon="8.7120034"><ele>19.0</ele><time>2026-04-29T15:45:31.439Z</time></trkpt><trkpt lat="33.8201094" lon="8.7117752"><ele>19.333333333333332</ele><time>2026-04-29T15:45:32.437Z</time></trkpt><trkpt lat="33.8202074" lon="8.7115467"><ele>19.666666666666668</ele><time>2026-04-29T15:45:33.44Z</time></trkpt><trkpt lat="33.8203001" lon="8.7113186"><ele>20.0</ele><time>2026-04-29T15:45:34.429Z</time></trkpt><trkpt lat="33.8203944" lon="8.7110915"><ele>19.333333333333336</ele><time>2026-04-29T15:45:35.423Z</time></trkpt><trkpt lat="33.8204892" lon="8.710865"><ele>18.666666666666668</ele><time>2026-04-29T15:45:36.442Z</time></trkpt><trkpt lat="33.8205855" lon="8.7106397"><ele>18.0</ele><time>2026-04-29T15:45:37.437Z</time></trkpt><trkpt lat="33.8206795" lon="8.7104117"><ele>17.666666666666668</ele><time>2026-04-29T15:45:38.44Z</time></trkpt><trkpt lat="33.8207757" lon="8.710187"><ele>17.333333333333336</ele><time>2026-04-29T15:45:39.431Z</time></trkpt><trkpt lat="33.8208698" lon="8.7099565"><ele>17.0</ele><time>2026-04-29T15:45:40.441Z</time></trkpt><trkpt lat="33.820964" lon="8.709732"><ele>17.333333333333336</ele><time>2026-04-29T15:45:41.438Z</time></trkpt><trkpt lat="33.8210585" lon="8.7095058"><ele>17.666666666666668</ele><time>2026-04-29T15:45:42.438Z</time></trkpt><trkpt lat="33.8211515" lon="8.7092767"><ele>18.0</ele><time>2026-04-29T15:45:43.449Z</time></trkpt><trkpt lat="33.8212474" lon="8.709051"><ele>18.0</ele><time>2026-04-29T15:45:44.455Z</time></trkpt><trkpt lat="33.8213396" lon="8.7088284"><ele>18.0</ele><time>2026-04-29T15:45:45.434Z</time></trkpt><trkpt lat="33.8214381" lon="8.7086044"><ele>18.0</ele><time>2026-04-29T15:45:46.44Z</time></trkpt><trkpt lat="33.8215315" lon="8.7083795"><ele>18.333333333333332</ele><time>2026-04-29T15:45:47.439Z</time></trkpt><trkpt lat="33.8216266" lon="8.7081509"><ele>18.666666666666664</ele><time>2026-04-29T15:45:48.444Z</time></trkpt><trkpt lat="33.8217218" lon="8.7079274"><ele>19.0</ele><time>2026-04-29T15:45:49.436Z</time></trkpt><trkpt lat="33.8218148" lon="8.7076997"><ele>19.0</ele><time>2026-04-29T15:45:50.438Z</time></trkpt><trkpt lat="33.8219058" lon="8.7074762"><ele>19.0</ele><time>2026-04-29T15:45:51.435Z</time></trkpt><trkpt lat="33.8220005" lon="8.7072506"><ele>19.0</ele><time>2026-04-29T15:45:52.436Z</time></trkpt><trkpt lat="33.822089" lon="8.707026"><ele>19.333333333333332</ele><time>2026-04-29T15:45:53.439Z</time></trkpt><trkpt lat="33.8221778" lon="8.7068037"><ele>19.666666666666668</ele><time>2026-04-29T15:45:54.441Z</time></trkpt><trkpt lat="33.8222693" lon="8.706579"><ele>20.0</ele><time>2026-04-29T15:45:55.435Z</time></trkpt><trkpt lat="33.8223624" lon="8.7063541"><ele>20.0</ele><time>2026-04-29T15:45:56.452Z</time></trkpt><trkpt lat="33.8224589" lon="8.7061306"><ele>20.0</ele><time>2026-04-29T15:45:57.439Z</time></trkpt><trkpt lat="33.822553" lon="8.7059018"><ele>20.0</ele><time>2026-04-29T15:45:58.44Z</time></trkpt><trkpt lat="33.8226513" lon="8.7056765"><ele>19.333333333333336</ele><time>2026-04-29T15:45:59.44Z</time></trkpt><trkpt lat="33.8227477" lon="8.7054463"><ele>18.666666666666668</ele><time>2026-04-29T15:46:00.447Z</time></trkpt><trkpt lat="33.8228448" lon="8.7052177"><ele>18.0</ele><time>2026-04-29T15:46:01.443Z</time></trkpt><trkpt lat="33.8229431" lon="8.7049864"><ele>18.0</ele><time>2026-04-29T15:46:02.444Z</time></trkpt><trkpt lat="33.8230411" lon="8.7047603"><ele>18.0</ele><time>2026-04-29T15:46:03.445Z</time></trkpt><trkpt lat="33.8231334" lon="8.704532"><ele>18.0</ele><time>2026-04-29T15:46:04.446Z</time></trkpt><trkpt lat="33.823228" lon="8.7043052"><ele>18.0</ele><time>2026-04-29T15:46:05.434Z</time></trkpt><trkpt lat="33.8233229" lon="8.7040769"><ele>18.0</ele><time>2026-04-29T15:46:06.43Z</time></trkpt><trkpt lat="33.8234206" lon="8.7038493"><ele>18.0</ele><time>2026-04-29T15:46:07.438Z</time></trkpt><trkpt lat="33.8235214" lon="8.7036221"><ele>18.666666666666668</ele><time>2026-04-29T15:46:08.428Z</time></trkpt><trkpt lat="33.8236154" lon="8.7033927"><ele>19.333333333333336</ele><time>2026-04-29T15:46:09.445Z</time></trkpt><trkpt lat="33.8237112" lon="8.7031647"><ele>20.0</ele><time>2026-04-29T15:46:10.436Z</time></trkpt><trkpt lat="33.8238084" lon="8.7029366"><ele>19.666666666666668</ele><time>2026-04-29T15:46:11.444Z</time></trkpt><trkpt lat="33.8239035" lon="8.7027115"><ele>19.333333333333332</ele><time>2026-04-29T15:46:12.446Z</time></trkpt><trkpt lat="33.8239972" lon="8.7024863"><ele>19.0</ele><time>2026-04-29T15:46:13.447Z</time></trkpt><trkpt lat="33.8240923" lon="8.7022607"><ele>19.0</ele><time>2026-04-29T15:46:14.436Z</time></trkpt><trkpt lat="33.8241891" lon="8.7020323"><ele>19.0</ele><time>2026-04-29T15:46:15.437Z</time></trkpt><trkpt lat="33.8242827" lon="8.7018089"><ele>19.0</ele><time>2026-04-29T15:46:16.438Z</time></trkpt><trkpt lat="33.8243779" lon="8.7015855"><ele>19.0</ele><time>2026-04-29T15:46:17.448Z</time></trkpt><trkpt lat="33.8244727" lon="8.7013587"><ele>19.0</ele><time>2026-04-29T15:46:18.429Z</time></trkpt><trkpt lat="33.8245675" lon="8.7011357"><ele>19.0</ele><time>2026-04-29T15:46:19.437Z</time></trkpt><trkpt lat="33.8246643" lon="8.7009052"><ele>19.0</ele><time>2026-04-29T15:46:20.449Z</time></trkpt><trkpt lat="33.82476" lon="8.7006826"><ele>19.0</ele><time>2026-04-29T15:46:21.444Z</time></trkpt><trkpt lat="33.824852" lon="8.7004562"><ele>19.0</ele><time>2026-04-29T15:46:22.433Z</time></trkpt><trkpt lat="33.8249501" lon="8.7002275"><ele>19.0</ele><time>2026-04-29T15:46:23.442Z</time></trkpt><trkpt lat="33.8250466" lon="8.6999976"><ele>19.0</ele><time>2026-04-29T15:46:24.44Z</time></trkpt><trkpt lat="33.825143" lon="8.6997719"><ele>19.0</ele><time>2026-04-29T15:46:25.469Z</time></trkpt><trkpt lat="33.8252367" lon="8.6995451"><ele>18.666666666666664</ele><time>2026-04-29T15:46:26.444Z</time></trkpt><trkpt lat="33.8253398" lon="8.6993187"><ele>18.333333333333332</ele><time>2026-04-29T15:46:27.446Z</time></trkpt><trkpt lat="33.8254352" lon="8.6990875"><ele>18.0</ele><time>2026-04-29T15:46:28.433Z</time></trkpt><trkpt lat="33.8255266" lon="8.6988563"><ele>18.0</ele><time>2026-04-29T15:46:29.436Z</time></trkpt><trkpt lat="33.8256197" lon="8.6986307"><ele>18.0</ele><time>2026-04-29T15:46:30.447Z</time></trkpt><trkpt lat="33.8257149" lon="8.6983992"><ele>18.0</ele><time>2026-04-29T15:46:31.441Z</time></trkpt><trkpt lat="33.8258094" lon="8.6981721"><ele>18.333333333333332</ele><time>2026-04-29T15:46:32.44Z</time></trkpt><trkpt lat="33.8259028" lon="8.6979469"><ele>18.666666666666664</ele><time>2026-04-29T15:46:33.436Z</time></trkpt><trkpt lat="33.8259941" lon="8.6977206"><ele>19.0</ele><time>2026-04-29T15:46:34.45Z</time></trkpt><trkpt lat="33.8260896" lon="8.6974951"><ele>18.333333333333332</ele><time>2026-04-29T15:46:35.44Z</time></trkpt><trkpt lat="33.8261835" lon="8.697271"><ele>17.666666666666668</ele><time>2026-04-29T15:46:36.434Z</time></trkpt><trkpt lat="33.8262798" lon="8.6970431"><ele>17.0</ele><time>2026-04-29T15:46:37.442Z</time></trkpt><trkpt lat="33.8263755" lon="8.6968146"><ele>17.0</ele><time>2026-04-29T15:46:38.461Z</time></trkpt><trkpt lat="33.8264707" lon="8.6965859"><ele>17.0</ele><time>2026-04-29T15:46:39.451Z</time></trkpt><trkpt lat="33.8265676" lon="8.6963593"><ele>17.0</ele><time>2026-04-29T15:46:40.432Z</time></trkpt><trkpt lat="33.8266624" lon="8.6961338"><ele>17.0</ele><time>2026-04-29T15:46:41.43Z</time></trkpt><trkpt lat="33.8267554" lon="8.6959066"><ele>17.0</ele><time>2026-04-29T15:46:42.432Z</time></trkpt><trkpt lat="33.8268449" lon="8.6956821"><ele>17.0</ele><time>2026-04-29T15:46:43.437Z</time></trkpt><trkpt lat="33.8269392" lon="8.6954571"><ele>17.0</ele><time>2026-04-29T15:46:44.437Z</time></trkpt><trkpt lat="33.8270335" lon="8.6952377"><ele>17.0</ele><time>2026-04-29T15:46:45.445Z</time></trkpt><trkpt lat="33.8271322" lon="8.6950095"><ele>17.0</ele><time>2026-04-29T15:46:46.436Z</time></trkpt><trkpt lat="33.8272277" lon="8.6947808"><ele>17.0</ele><time>2026-04-29T15:46:47.443Z</time></trkpt><trkpt lat="33.8273258" lon="8.6945556"><ele>17.0</ele><time>2026-04-29T15:46:48.454Z</time></trkpt><trkpt lat="33.8274255" lon="8.6943315"><ele>17.0</ele><time>2026-04-29T15:46:49.432Z</time></trkpt><trkpt lat="33.8275188" lon="8.6941126"><ele>17.0</ele><time>2026-04-29T15:46:50.44Z</time></trkpt><trkpt lat="33.8276149" lon="8.6938827"><ele>17.0</ele><time>2026-04-29T15:46:51.442Z</time></trkpt><trkpt lat="33.8277127" lon="8.6936599"><ele>17.0</ele><time>2026-04-29T15:46:52.445Z</time></trkpt><trkpt lat="33.8278115" lon="8.6934324"><ele>17.0</ele><time>2026-04-29T15:46:53.436Z</time></trkpt><trkpt lat="33.8279102" lon="8.6932103"><ele>17.0</ele><time>2026-04-29T15:46:54.441Z</time></trkpt><trkpt lat="33.8280107" lon="8.6929869"><ele>17.0</ele><time>2026-04-29T15:46:55.445Z</time></trkpt><trkpt lat="33.8281062" lon="8.692765"><ele>17.333333333333336</ele><time>2026-04-29T15:46:56.439Z</time></trkpt><trkpt lat="33.828204" lon="8.6925436"><ele>17.666666666666668</ele><time>2026-04-29T15:46:57.459Z</time></trkpt><trkpt lat="33.8283009" lon="8.6923217"><ele>18.0</ele><time>2026-04-29T15:46:58.437Z</time></trkpt><trkpt lat="33.8284048" lon="8.6920981"><ele>19.333333333333332</ele><time>2026-04-29T15:46:59.434Z</time></trkpt><trkpt lat="33.828502" lon="8.6918749"><ele>20.666666666666664</ele><time>2026-04-29T15:47:00.438Z</time></trkpt><trkpt lat="33.8286001" lon="8.6916494"><ele>22.0</ele><time>2026-04-29T15:47:01.439Z</time></trkpt><trkpt lat="33.8287023" lon="8.6914286"><ele>22.0</ele><time>2026-04-29T15:47:02.429Z</time></trkpt><trkpt lat="33.8288022" lon="8.6912017"><ele>22.0</ele><time>2026-04-29T15:47:03.434Z</time></trkpt><trkpt lat="33.8289028" lon="8.6909776"><ele>22.0</ele><time>2026-04-29T15:47:04.44Z</time></trkpt><trkpt lat="33.8290052" lon="8.69075"><ele>20.333333333333332</ele><time>2026-04-29T15:47:05.424Z</time></trkpt><trkpt lat="33.8291078" lon="8.6905255"><ele>18.666666666666668</ele><time>2026-04-29T15:47:06.448Z</time></trkpt><trkpt lat="33.829215" lon="8.6903045"><ele>17.0</ele><time>2026-04-29T15:47:07.433Z</time></trkpt><trkpt lat="33.8293175" lon="8.6900802"><ele>16.666666666666668</ele><time>2026-04-29T15:47:08.439Z</time></trkpt><trkpt lat="33.8294171" lon="8.6898575"><ele>16.333333333333332</ele><time>2026-04-29T15:47:09.44Z</time></trkpt><trkpt lat="33.829514" lon="8.6896334"><ele>16.0</ele><time>2026-04-29T15:47:10.442Z</time></trkpt><trkpt lat="33.8296149" lon="8.6894119"><ele>16.666666666666664</ele><time>2026-04-29T15:47:11.447Z</time></trkpt><trkpt lat="33.8297172" lon="8.6891841"><ele>17.333333333333332</ele><time>2026-04-29T15:47:12.481Z</time></trkpt><trkpt lat="33.8298205" lon="8.688961"><ele>18.0</ele><time>2026-04-29T15:47:13.435Z</time></trkpt><trkpt lat="33.8299245" lon="8.6887372"><ele>18.0</ele><time>2026-04-29T15:47:14.449Z</time></trkpt><trkpt lat="33.8300218" lon="8.6885108"><ele>18.0</ele><time>2026-04-29T15:47:15.437Z</time></trkpt><trkpt lat="33.8301195" lon="8.6882844"><ele>18.0</ele><time>2026-04-29T15:47:16.444Z</time></trkpt><trkpt lat="33.8302213" lon="8.688066"><ele>17.666666666666668</ele><time>2026-04-29T15:47:17.435Z</time></trkpt><trkpt lat="33.8303236" lon="8.6878441"><ele>17.333333333333336</ele><time>2026-04-29T15:47:18.438Z</time></trkpt><trkpt lat="33.8304229" lon="8.6876201"><ele>17.0</ele><time>2026-04-29T15:47:19.437Z</time></trkpt><trkpt lat="33.8305271" lon="8.6873979"><ele>17.0</ele><time>2026-04-29T15:47:20.426Z</time></trkpt><trkpt lat="33.8306263" lon="8.6871759"><ele>17.0</ele><time>2026-04-29T15:47:21.442Z</time></trkpt><trkpt lat="33.8307244" lon="8.6869514"><ele>17.0</ele><time>2026-04-29T15:47:22.429Z</time></trkpt><trkpt lat="33.8308225" lon="8.6867299"><ele>17.0</ele><time>2026-04-29T15:47:23.436Z</time></trkpt><trkpt lat="33.8309208" lon="8.6865022"><ele>17.0</ele><time>2026-04-29T15:47:24.444Z</time></trkpt><trkpt lat="33.8310253" lon="8.6862746"><ele>17.0</ele><time>2026-04-29T15:47:25.431Z</time></trkpt><trkpt lat="33.8311254" lon="8.6860494"><ele>17.666666666666668</ele><time>2026-04-29T15:47:26.429Z</time></trkpt><trkpt lat="33.8312236" lon="8.6858232"><ele>18.333333333333332</ele><time>2026-04-29T15:47:27.436Z</time></trkpt><trkpt lat="33.8313256" lon="8.6855984"><ele>19.0</ele><time>2026-04-29T15:47:28.439Z</time></trkpt><trkpt lat="33.8314277" lon="8.6853754"><ele>19.0</ele><time>2026-04-29T15:47:29.438Z</time></trkpt><trkpt lat="33.8315327" lon="8.685152"><ele>19.0</ele><time>2026-04-29T15:47:30.462Z</time></trkpt><trkpt lat="33.831634" lon="8.6849279"><ele>19.0</ele><time>2026-04-29T15:47:31.429Z</time></trkpt><trkpt lat="33.8317343" lon="8.6847055"><ele>19.666666666666664</ele><time>2026-04-29T15:47:32.436Z</time></trkpt><trkpt lat="33.8318341" lon="8.6844792"><ele>20.333333333333332</ele><time>2026-04-29T15:47:33.444Z</time></trkpt><trkpt lat="33.8319341" lon="8.6842568"><ele>21.0</ele><time>2026-04-29T15:47:34.424Z</time></trkpt><trkpt lat="33.8320326" lon="8.6840336"><ele>19.666666666666668</ele><time>2026-04-29T15:47:35.434Z</time></trkpt><trkpt lat="33.8321291" lon="8.6838083"><ele>18.333333333333336</ele><time>2026-04-29T15:47:36.436Z</time></trkpt><trkpt lat="33.832227" lon="8.6835885"><ele>17.0</ele><time>2026-04-29T15:47:37.464Z</time></trkpt><trkpt lat="33.8323287" lon="8.6833652"><ele>17.0</ele><time>2026-04-29T15:47:38.437Z</time></trkpt><trkpt lat="33.8324258" lon="8.6831477"><ele>17.0</ele><time>2026-04-29T15:47:39.428Z</time></trkpt><trkpt lat="33.8325265" lon="8.6829245"><ele>17.0</ele><time>2026-04-29T15:47:40.435Z</time></trkpt><trkpt lat="33.8326285" lon="8.6827"><ele>17.0</ele><time>2026-04-29T15:47:41.439Z</time></trkpt><trkpt lat="33.832731" lon="8.6824807"><ele>17.0</ele><time>2026-04-29T15:47:42.435Z</time></trkpt><trkpt lat="33.8328287" lon="8.6822599"><ele>17.0</ele><time>2026-04-29T15:47:43.446Z</time></trkpt><trkpt lat="33.8329298" lon="8.6820355"><ele>17.666666666666668</ele><time>2026-04-29T15:47:44.432Z</time></trkpt><trkpt lat="33.833028" lon="8.6818147"><ele>18.333333333333332</ele><time>2026-04-29T15:47:45.437Z</time></trkpt><trkpt lat="33.8331269" lon="8.6815933"><ele>19.0</ele><time>2026-04-29T15:47:46.436Z</time></trkpt><trkpt lat="33.8332261" lon="8.6813716"><ele>19.0</ele><time>2026-04-29T15:47:47.435Z</time></trkpt><trkpt lat="33.8333301" lon="8.6811454"><ele>19.0</ele><time>2026-04-29T15:47:48.443Z</time></trkpt><trkpt lat="33.833432" lon="8.6809198"><ele>19.0</ele><time>2026-04-29T15:47:49.435Z</time></trkpt><trkpt lat="33.8335322" lon="8.6806965"><ele>18.333333333333332</ele><time>2026-04-29T15:47:50.443Z</time></trkpt><trkpt lat="33.8336334" lon="8.6804695"><ele>17.666666666666668</ele><time>2026-04-29T15:47:51.448Z</time></trkpt><trkpt lat="33.8337321" lon="8.6802444"><ele>17.0</ele><time>2026-04-29T15:47:52.461Z</time></trkpt><trkpt lat="33.8338328" lon="8.6800204"><ele>16.666666666666668</ele><time>2026-04-29T15:47:53.429Z</time></trkpt><trkpt lat="33.833935" lon="8.6797958"><ele>16.333333333333332</ele><time>2026-04-29T15:47:54.441Z</time></trkpt><trkpt lat="33.8340382" lon="8.6795728"><ele>16.0</ele><time>2026-04-29T15:47:55.438Z</time></trkpt><trkpt lat="33.8341365" lon="8.6793502"><ele>16.666666666666664</ele><time>2026-04-29T15:47:56.428Z</time></trkpt><trkpt lat="33.8342352" lon="8.6791221"><ele>17.333333333333332</ele><time>2026-04-29T15:47:57.438Z</time></trkpt><trkpt lat="33.8343341" lon="8.6788977"><ele>18.0</ele><time>2026-04-29T15:47:58.44Z</time></trkpt><trkpt lat="33.8344325" lon="8.678673"><ele>18.666666666666668</ele><time>2026-04-29T15:47:59.437Z</time></trkpt><trkpt lat="33.8345331" lon="8.6784499"><ele>19.333333333333336</ele><time>2026-04-29T15:48:00.432Z</time></trkpt><trkpt lat="33.8346333" lon="8.6782245"><ele>20.0</ele><time>2026-04-29T15:48:01.432Z</time></trkpt><trkpt lat="33.8347336" lon="8.6780048"><ele>20.0</ele><time>2026-04-29T15:48:02.441Z</time></trkpt><trkpt lat="33.8348342" lon="8.6777801"><ele>20.0</ele><time>2026-04-29T15:48:03.431Z</time></trkpt><trkpt lat="33.8349361" lon="8.677559"><ele>20.0</ele><time>2026-04-29T15:48:04.433Z</time></trkpt><trkpt lat="33.835036" lon="8.6773378"><ele>20.0</ele><time>2026-04-29T15:48:05.447Z</time></trkpt><trkpt lat="33.8351384" lon="8.6771123"><ele>20.0</ele><time>2026-04-29T15:48:06.441Z</time></trkpt><trkpt lat="33.8352377" lon="8.6768908"><ele>20.0</ele><time>2026-04-29T15:48:07.438Z</time></trkpt><trkpt lat="33.8353375" lon="8.6766716"><ele>19.333333333333336</ele><time>2026-04-29T15:48:08.455Z</time></trkpt><trkpt lat="33.835439" lon="8.6764432"><ele>18.666666666666668</ele><time>2026-04-29T15:48:09.432Z</time></trkpt><trkpt lat="33.8355407" lon="8.6762197"><ele>18.0</ele><time>2026-04-29T15:48:10.433Z</time></trkpt><trkpt lat="33.8356387" lon="8.6759995"><ele>18.0</ele><time>2026-04-29T15:48:11.435Z</time></trkpt><trkpt lat="33.8357329" lon="8.6757763"><ele>18.0</ele><time>2026-04-29T15:48:12.438Z</time></trkpt><trkpt lat="33.8358308" lon="8.6755512"><ele>18.0</ele><time>2026-04-29T15:48:13.44Z</time></trkpt><trkpt lat="33.8359303" lon="8.6753244"><ele>19.0</ele><time>2026-04-29T15:48:14.433Z</time></trkpt><trkpt lat="33.8360317" lon="8.6751003"><ele>20.0</ele><time>2026-04-29T15:48:15.434Z</time></trkpt><trkpt lat="33.8361313" lon="8.6748737"><ele>21.0</ele><time>2026-04-29T15:48:16.443Z</time></trkpt><trkpt lat="33.8362311" lon="8.67465"><ele>20.666666666666668</ele><time>2026-04-29T15:48:17.436Z</time></trkpt><trkpt lat="33.8363315" lon="8.6744236"><ele>20.333333333333336</ele><time>2026-04-29T15:48:18.439Z</time></trkpt><trkpt lat="33.8364354" lon="8.6741952"><ele>20.0</ele><time>2026-04-29T15:48:19.44Z</time></trkpt><trkpt lat="33.83654" lon="8.6739761"><ele>20.0</ele><time>2026-04-29T15:48:20.432Z</time></trkpt><trkpt lat="33.8366404" lon="8.6737548"><ele>20.0</ele><time>2026-04-29T15:48:21.422Z</time></trkpt><trkpt lat="33.8367393" lon="8.6735302"><ele>20.0</ele><time>2026-04-29T15:48:22.433Z</time></trkpt><trkpt lat="33.83684" lon="8.6733043"><ele>20.0</ele><time>2026-04-29T15:48:23.433Z</time></trkpt><trkpt lat="33.8369373" lon="8.6730807"><ele>20.0</ele><time>2026-04-29T15:48:24.462Z</time></trkpt><trkpt lat="33.8370358" lon="8.6728574"><ele>20.0</ele><time>2026-04-29T15:48:25.437Z</time></trkpt><trkpt lat="33.8371325" lon="8.6726403"><ele>19.333333333333336</ele><time>2026-04-29T15:48:26.434Z</time></trkpt><trkpt lat="33.8372301" lon="8.6724171"><ele>18.666666666666668</ele><time>2026-04-29T15:48:27.43Z</time></trkpt><trkpt lat="33.8373294" lon="8.6721917"><ele>18.0</ele><time>2026-04-29T15:48:28.433Z</time></trkpt><trkpt lat="33.8374304" lon="8.6719712"><ele>17.333333333333332</ele><time>2026-04-29T15:48:29.429Z</time></trkpt><trkpt lat="33.8375348" lon="8.671746"><ele>16.666666666666664</ele><time>2026-04-29T15:48:30.436Z</time></trkpt><trkpt lat="33.8376378" lon="8.6715253"><ele>16.0</ele><time>2026-04-29T15:48:31.434Z</time></trkpt><trkpt lat="33.8377409" lon="8.6713033"><ele>16.0</ele><time>2026-04-29T15:48:32.426Z</time></trkpt><trkpt lat="33.8378386" lon="8.6710824"><ele>16.0</ele><time>2026-04-29T15:48:33.442Z</time></trkpt><trkpt lat="33.8379386" lon="8.6708594"><ele>16.0</ele><time>2026-04-29T15:48:34.432Z</time></trkpt><trkpt lat="33.8380383" lon="8.670642"><ele>16.0</ele><time>2026-04-29T15:48:35.442Z</time></trkpt><trkpt lat="33.8381382" lon="8.6704213"><ele>16.0</ele><time>2026-04-29T15:48:36.444Z</time></trkpt><trkpt lat="33.8382374" lon="8.6701958"><ele>16.0</ele><time>2026-04-29T15:48:37.435Z</time></trkpt><trkpt lat="33.8383378" lon="8.6699671"><ele>16.0</ele><time>2026-04-29T15:48:38.438Z</time></trkpt><trkpt lat="33.8384409" lon="8.6697428"><ele>16.0</ele><time>2026-04-29T15:48:39.451Z</time></trkpt><trkpt lat="33.8385427" lon="8.669517"><ele>16.0</ele><time>2026-04-29T15:48:40.426Z</time></trkpt><trkpt lat="33.8386447" lon="8.6692878"><ele>16.333333333333332</ele><time>2026-04-29T15:48:41.428Z</time></trkpt><trkpt lat="33.8387454" lon="8.6690606"><ele>16.666666666666668</ele><time>2026-04-29T15:48:42.44Z</time></trkpt><trkpt lat="33.8388457" lon="8.6688401"><ele>17.0</ele><time>2026-04-29T15:48:43.424Z</time></trkpt><trkpt lat="33.8389453" lon="8.668613"><ele>18.0</ele><time>2026-04-29T15:48:44.427Z</time></trkpt><trkpt lat="33.8390446" lon="8.6683915"><ele>19.0</ele><time>2026-04-29T15:48:45.427Z</time></trkpt><trkpt lat="33.8391426" lon="8.6681649"><ele>20.0</ele><time>2026-04-29T15:48:46.438Z</time></trkpt><trkpt lat="33.8392466" lon="8.6679403"><ele>19.666666666666668</ele><time>2026-04-29T15:48:47.437Z</time></trkpt><trkpt lat="33.8393412" lon="8.6677178"><ele>19.333333333333332</ele><time>2026-04-29T15:48:48.434Z</time></trkpt><trkpt lat="33.8394454" lon="8.6674881"><ele>19.0</ele><time>2026-04-29T15:48:49.429Z</time></trkpt><trkpt lat="33.8395457" lon="8.6672738"><ele>19.0</ele><time>2026-04-29T15:48:50.432Z</time></trkpt><trkpt lat="33.8396479" lon="8.6670488"><ele>19.0</ele><time>2026-04-29T15:48:51.434Z</time></trkpt><trkpt lat="33.8397443" lon="8.6668238"><ele>19.0</ele><time>2026-04-29T15:48:52.434Z</time></trkpt><trkpt lat="33.8398475" lon="8.6665931"><ele>19.0</ele><time>2026-04-29T15:48:53.428Z</time></trkpt><trkpt lat="33.839948" lon="8.6663696"><ele>19.0</ele><time>2026-04-29T15:48:54.433Z</time></trkpt><trkpt lat="33.840047" lon="8.6661461"><ele>19.0</ele><time>2026-04-29T15:48:55.437Z</time></trkpt><trkpt lat="33.8401456" lon="8.6659225"><ele>19.0</ele><time>2026-04-29T15:48:56.434Z</time></trkpt><trkpt lat="33.840245" lon="8.6656964"><ele>19.0</ele><time>2026-04-29T15:48:57.434Z</time></trkpt><trkpt lat="33.8403435" lon="8.6654706"><ele>19.0</ele><time>2026-04-29T15:48:58.446Z</time></trkpt><trkpt lat="33.8404488" lon="8.6652466"><ele>18.333333333333332</ele><time>2026-04-29T15:48:59.433Z</time></trkpt><trkpt lat="33.8405516" lon="8.6650226"><ele>17.666666666666668</ele><time>2026-04-29T15:49:00.43Z</time></trkpt><trkpt lat="33.8406548" lon="8.6647992"><ele>17.0</ele><time>2026-04-29T15:49:01.438Z</time></trkpt><trkpt lat="33.8407601" lon="8.6645793"><ele>17.0</ele><time>2026-04-29T15:49:02.434Z</time></trkpt><trkpt lat="33.8408597" lon="8.6643593"><ele>17.0</ele><time>2026-04-29T15:49:03.438Z</time></trkpt><trkpt lat="33.8409683" lon="8.6641412"><ele>17.0</ele><time>2026-04-29T15:49:04.426Z</time></trkpt><trkpt lat="33.8410791" lon="8.6639282"><ele>16.666666666666668</ele><time>2026-04-29T15:49:05.426Z</time></trkpt><trkpt lat="33.8411813" lon="8.6637094"><ele>16.333333333333332</ele><time>2026-04-29T15:49:06.432Z</time></trkpt><trkpt lat="33.8412802" lon="8.6634917"><ele>16.0</ele><time>2026-04-29T15:49:07.424Z</time></trkpt><trkpt lat="33.8413834" lon="8.6632726"><ele>17.333333333333332</ele><time>2026-04-29T15:49:08.436Z</time></trkpt><trkpt lat="33.8414889" lon="8.6630558"><ele>18.666666666666668</ele><time>2026-04-29T15:49:09.456Z</time></trkpt><trkpt lat="33.8415955" lon="8.6628375"><ele>20.0</ele><time>2026-04-29T15:49:10.434Z</time></trkpt><trkpt lat="33.8417024" lon="8.6626169"><ele>19.333333333333336</ele><time>2026-04-29T15:49:11.441Z</time></trkpt><trkpt lat="33.8418117" lon="8.662396"><ele>18.666666666666668</ele><time>2026-04-29T15:49:12.428Z</time></trkpt><trkpt lat="33.8419186" lon="8.6621773"><ele>18.0</ele><time>2026-04-29T15:49:13.45Z</time></trkpt><trkpt lat="33.8420242" lon="8.6619602"><ele>18.666666666666668</ele><time>2026-04-29T15:49:14.433Z</time></trkpt><trkpt lat="33.8421341" lon="8.6617462"><ele>19.333333333333336</ele><time>2026-04-29T15:49:15.433Z</time></trkpt><trkpt lat="33.8422376" lon="8.6615276"><ele>20.0</ele><time>2026-04-29T15:49:16.43Z</time></trkpt><trkpt lat="33.8423438" lon="8.6613048"><ele>19.666666666666668</ele><time>2026-04-29T15:49:17.438Z</time></trkpt><trkpt lat="33.8424481" lon="8.6610832"><ele>19.333333333333332</ele><time>2026-04-29T15:49:18.433Z</time></trkpt><trkpt lat="33.8425462" lon="8.6608688"><ele>19.0</ele><time>2026-04-29T15:49:19.433Z</time></trkpt><trkpt lat="33.84265" lon="8.6606455"><ele>18.666666666666664</ele><time>2026-04-29T15:49:20.437Z</time></trkpt><trkpt lat="33.8427558" lon="8.6604252"><ele>18.333333333333332</ele><time>2026-04-29T15:49:21.441Z</time></trkpt><trkpt lat="33.8428644" lon="8.6602001"><ele>18.0</ele><time>2026-04-29T15:49:22.439Z</time></trkpt><trkpt lat="33.8429727" lon="8.6599791"><ele>18.0</ele><time>2026-04-29T15:49:23.428Z</time></trkpt><trkpt lat="33.843076" lon="8.6597553"><ele>18.0</ele><time>2026-04-29T15:49:24.437Z</time></trkpt><trkpt lat="33.84318" lon="8.6595333"><ele>18.0</ele><time>2026-04-29T15:49:25.449Z</time></trkpt><trkpt lat="33.8432815" lon="8.6593106"><ele>17.666666666666668</ele><time>2026-04-29T15:49:26.431Z</time></trkpt><trkpt lat="33.8433875" lon="8.6590855"><ele>17.333333333333336</ele><time>2026-04-29T15:49:27.454Z</time></trkpt><trkpt lat="33.8434941" lon="8.6588686"><ele>17.0</ele><time>2026-04-29T15:49:28.441Z</time></trkpt><trkpt lat="33.8436011" lon="8.6586449"><ele>17.0</ele><time>2026-04-29T15:49:29.429Z</time></trkpt><trkpt lat="33.8437081" lon="8.6584236"><ele>17.0</ele><time>2026-04-29T15:49:30.428Z</time></trkpt><trkpt lat="33.8438154" lon="8.6582039"><ele>17.0</ele><time>2026-04-29T15:49:31.432Z</time></trkpt><trkpt lat="33.8439237" lon="8.6579823"><ele>18.0</ele><time>2026-04-29T15:49:32.436Z</time></trkpt><trkpt lat="33.8440337" lon="8.6577691"><ele>19.0</ele><time>2026-04-29T15:49:33.438Z</time></trkpt><trkpt lat="33.8441414" lon="8.6575544"><ele>20.0</ele><time>2026-04-29T15:49:34.439Z</time></trkpt><trkpt lat="33.844249" lon="8.6573365"><ele>20.0</ele><time>2026-04-29T15:49:35.435Z</time></trkpt><trkpt lat="33.8443526" lon="8.6571198"><ele>20.0</ele><time>2026-04-29T15:49:36.434Z</time></trkpt><trkpt lat="33.844459" lon="8.6568998"><ele>20.0</ele><time>2026-04-29T15:49:37.436Z</time></trkpt><trkpt lat="33.8445651" lon="8.6566777"><ele>20.0</ele><time>2026-04-29T15:49:38.437Z</time></trkpt><trkpt lat="33.8446725" lon="8.6564556"><ele>20.0</ele><time>2026-04-29T15:49:39.435Z</time></trkpt><trkpt lat="33.8447756" lon="8.6562362"><ele>20.0</ele><time>2026-04-29T15:49:40.426Z</time></trkpt><trkpt lat="33.844882" lon="8.6560164"><ele>20.0</ele><time>2026-04-29T15:49:41.459Z</time></trkpt><trkpt lat="33.8449848" lon="8.6557936"><ele>20.0</ele><time>2026-04-29T15:49:42.433Z</time></trkpt><trkpt lat="33.8450882" lon="8.6555781"><ele>20.0</ele><time>2026-04-29T15:49:43.435Z</time></trkpt><trkpt lat="33.8451926" lon="8.6553567"><ele>18.333333333333336</ele><time>2026-04-29T15:49:44.438Z</time></trkpt><trkpt lat="33.8453015" lon="8.6551344"><ele>16.666666666666668</ele><time>2026-04-29T15:49:45.437Z</time></trkpt><trkpt lat="33.8454083" lon="8.6549182"><ele>15.0</ele><time>2026-04-29T15:49:46.429Z</time></trkpt><trkpt lat="33.8455119" lon="8.6547004"><ele>15.0</ele><time>2026-04-29T15:49:47.432Z</time></trkpt><trkpt lat="33.8456145" lon="8.6544781"><ele>15.0</ele><time>2026-04-29T15:49:48.43Z</time></trkpt><trkpt lat="33.8457225" lon="8.6542577"><ele>15.0</ele><time>2026-04-29T15:49:49.436Z</time></trkpt><trkpt lat="33.8458299" lon="8.6540346"><ele>16.0</ele><time>2026-04-29T15:49:50.431Z</time></trkpt><trkpt lat="33.8459326" lon="8.6538134"><ele>17.0</ele><time>2026-04-29T15:49:51.428Z</time></trkpt><trkpt lat="33.8460368" lon="8.6535917"><ele>18.0</ele><time>2026-04-29T15:49:52.436Z</time></trkpt><trkpt lat="33.8461392" lon="8.6533721"><ele>18.0</ele><time>2026-04-29T15:49:53.434Z</time></trkpt><trkpt lat="33.8462428" lon="8.6531578"><ele>18.0</ele><time>2026-04-29T15:49:54.441Z</time></trkpt><trkpt lat="33.8463473" lon="8.652941"><ele>18.0</ele><time>2026-04-29T15:49:55.438Z</time></trkpt><trkpt lat="33.8464548" lon="8.6527204"><ele>17.333333333333332</ele><time>2026-04-29T15:49:56.441Z</time></trkpt><trkpt lat="33.8465629" lon="8.6524948"><ele>16.666666666666664</ele><time>2026-04-29T15:49:57.426Z</time></trkpt><trkpt lat="33.846667" lon="8.6522774"><ele>16.0</ele><time>2026-04-29T15:49:58.454Z</time></trkpt><trkpt lat="33.8467725" lon="8.6520583"><ele>16.333333333333332</ele><time>2026-04-29T15:49:59.427Z</time></trkpt><trkpt lat="33.8468771" lon="8.6518377"><ele>16.666666666666668</ele><time>2026-04-29T15:50:00.427Z</time></trkpt><trkpt lat="33.8469791" lon="8.6516182"><ele>17.0</ele><time>2026-04-29T15:50:01.439Z</time></trkpt><trkpt lat="33.8470846" lon="8.651399"><ele>17.0</ele><time>2026-04-29T15:50:02.427Z</time></trkpt><trkpt lat="33.8471875" lon="8.6511801"><ele>17.0</ele><time>2026-04-29T15:50:03.435Z</time></trkpt><trkpt lat="33.8472962" lon="8.6509604"><ele>17.0</ele><time>2026-04-29T15:50:04.436Z</time></trkpt><trkpt lat="33.8474047" lon="8.650737"><ele>16.666666666666668</ele><time>2026-04-29T15:50:05.446Z</time></trkpt><trkpt lat="33.8475169" lon="8.6505178"><ele>16.333333333333332</ele><time>2026-04-29T15:50:06.433Z</time></trkpt><trkpt lat="33.8476224" lon="8.6503015"><ele>16.0</ele><time>2026-04-29T15:50:07.438Z</time></trkpt><trkpt lat="33.8477254" lon="8.6500812"><ele>17.0</ele><time>2026-04-29T15:50:08.431Z</time></trkpt><trkpt lat="33.8478347" lon="8.6498605"><ele>18.0</ele><time>2026-04-29T15:50:09.423Z</time></trkpt><trkpt lat="33.8479429" lon="8.6496347"><ele>19.0</ele><time>2026-04-29T15:50:10.485Z</time></trkpt><trkpt lat="33.8480483" lon="8.6494077"><ele>19.0</ele><time>2026-04-29T15:50:11.432Z</time></trkpt><trkpt lat="33.8481529" lon="8.649187"><ele>19.0</ele><time>2026-04-29T15:50:12.431Z</time></trkpt><trkpt lat="33.8482622" lon="8.6489684"><ele>19.0</ele><time>2026-04-29T15:50:13.444Z</time></trkpt><trkpt lat="33.8483654" lon="8.648748"><ele>18.666666666666664</ele><time>2026-04-29T15:50:14.433Z</time></trkpt><trkpt lat="33.8484619" lon="8.6485307"><ele>18.333333333333332</ele><time>2026-04-29T15:50:15.445Z</time></trkpt><trkpt lat="33.8485662" lon="8.6483143"><ele>18.0</ele><time>2026-04-29T15:50:16.436Z</time></trkpt><trkpt lat="33.8486703" lon="8.6480994"><ele>18.0</ele><time>2026-04-29T15:50:17.437Z</time></trkpt><trkpt lat="33.8487761" lon="8.6478728"><ele>18.0</ele><time>2026-04-29T15:50:18.443Z</time></trkpt><trkpt lat="33.8488785" lon="8.6476533"><ele>18.0</ele><time>2026-04-29T15:50:19.426Z</time></trkpt><trkpt lat="33.8489813" lon="8.6474351"><ele>18.333333333333332</ele><time>2026-04-29T15:50:20.433Z</time></trkpt><trkpt lat="33.8490894" lon="8.6472145"><ele>18.666666666666664</ele><time>2026-04-29T15:50:21.437Z</time></trkpt><trkpt lat="33.8491987" lon="8.6469955"><ele>19.0</ele><time>2026-04-29T15:50:22.447Z</time></trkpt><trkpt lat="33.8493032" lon="8.6467769"><ele>19.333333333333332</ele><time>2026-04-29T15:50:23.435Z</time></trkpt><trkpt lat="33.8494057" lon="8.6465599"><ele>19.666666666666668</ele><time>2026-04-29T15:50:24.445Z</time></trkpt><trkpt lat="33.8495114" lon="8.6463431"><ele>20.0</ele><time>2026-04-29T15:50:25.431Z</time></trkpt><trkpt lat="33.8496184" lon="8.6461225"><ele>20.333333333333336</ele><time>2026-04-29T15:50:26.467Z</time></trkpt><trkpt lat="33.8497228" lon="8.6458994"><ele>20.666666666666668</ele><time>2026-04-29T15:50:27.433Z</time></trkpt><trkpt lat="33.8498285" lon="8.6456784"><ele>21.0</ele><time>2026-04-29T15:50:28.431Z</time></trkpt><trkpt lat="33.8499364" lon="8.645456"><ele>20.333333333333332</ele><time>2026-04-29T15:50:29.433Z</time></trkpt><trkpt lat="33.8500459" lon="8.6452363"><ele>19.666666666666664</ele><time>2026-04-29T15:50:30.436Z</time></trkpt><trkpt lat="33.8501531" lon="8.6450206"><ele>19.0</ele><time>2026-04-29T15:50:31.437Z</time></trkpt><trkpt lat="33.8502624" lon="8.6448006"><ele>19.0</ele><time>2026-04-29T15:50:32.432Z</time></trkpt><trkpt lat="33.8503689" lon="8.6445791"><ele>19.0</ele><time>2026-04-29T15:50:33.437Z</time></trkpt><trkpt lat="33.8504758" lon="8.6443557"><ele>19.0</ele><time>2026-04-29T15:50:34.435Z</time></trkpt><trkpt lat="33.8505786" lon="8.6441375"><ele>19.333333333333332</ele><time>2026-04-29T15:50:35.434Z</time></trkpt><trkpt lat="33.8506793" lon="8.6439168"><ele>19.666666666666668</ele><time>2026-04-29T15:50:36.441Z</time></trkpt><trkpt lat="33.850781" lon="8.6436972"><ele>20.0</ele><time>2026-04-29T15:50:37.436Z</time></trkpt><trkpt lat="33.8508848" lon="8.6434761"><ele>19.333333333333336</ele><time>2026-04-29T15:50:38.426Z</time></trkpt><trkpt lat="33.8509844" lon="8.6432572"><ele>18.666666666666668</ele><time>2026-04-29T15:50:39.439Z</time></trkpt><trkpt lat="33.8510918" lon="8.6430374"><ele>18.0</ele><time>2026-04-29T15:50:40.432Z</time></trkpt><trkpt lat="33.8511974" lon="8.6428161"><ele>17.666666666666668</ele><time>2026-04-29T15:50:41.437Z</time></trkpt><trkpt lat="33.8513042" lon="8.6425944"><ele>17.333333333333336</ele><time>2026-04-29T15:50:42.43Z</time></trkpt><trkpt lat="33.8514112" lon="8.6423719"><ele>17.0</ele><time>2026-04-29T15:50:43.459Z</time></trkpt><trkpt lat="33.8515175" lon="8.6421498"><ele>17.666666666666668</ele><time>2026-04-29T15:50:44.435Z</time></trkpt><trkpt lat="33.851631" lon="8.6419243"><ele>18.333333333333332</ele><time>2026-04-29T15:50:45.424Z</time></trkpt><trkpt lat="33.8517329" lon="8.6417055"><ele>19.0</ele><time>2026-04-29T15:50:46.427Z</time></trkpt><trkpt lat="33.8518412" lon="8.6414883"><ele>19.0</ele><time>2026-04-29T15:50:47.436Z</time></trkpt><trkpt lat="33.8519455" lon="8.6412725"><ele>19.0</ele><time>2026-04-29T15:50:48.441Z</time></trkpt><trkpt lat="33.8520482" lon="8.6410492"><ele>19.0</ele><time>2026-04-29T15:50:49.446Z</time></trkpt><trkpt lat="33.8521518" lon="8.6408269"><ele>18.666666666666664</ele><time>2026-04-29T15:50:50.44Z</time></trkpt><trkpt lat="33.8522521" lon="8.640607"><ele>18.333333333333332</ele><time>2026-04-29T15:50:51.433Z</time></trkpt><trkpt lat="33.8523629" lon="8.6403969"><ele>18.0</ele><time>2026-04-29T15:50:52.431Z</time></trkpt><trkpt lat="33.8524701" lon="8.640177"><ele>17.666666666666668</ele><time>2026-04-29T15:50:53.437Z</time></trkpt><trkpt lat="33.8525671" lon="8.6399562"><ele>17.333333333333336</ele><time>2026-04-29T15:50:54.431Z</time></trkpt><trkpt lat="33.8526586" lon="8.6397301"><ele>17.0</ele><time>2026-04-29T15:50:55.432Z</time></trkpt><trkpt lat="33.8527559" lon="8.6395067"><ele>17.666666666666668</ele><time>2026-04-29T15:50:56.429Z</time></trkpt><trkpt lat="33.8528623" lon="8.6392948"><ele>18.333333333333332</ele><time>2026-04-29T15:50:57.436Z</time></trkpt><trkpt lat="33.8529768" lon="8.6390799"><ele>19.0</ele><time>2026-04-29T15:50:58.429Z</time></trkpt><trkpt lat="33.8530821" lon="8.6388648"><ele>19.0</ele><time>2026-04-29T15:50:59.44Z</time></trkpt><trkpt lat="33.8531807" lon="8.6386397"><ele>19.0</ele><time>2026-04-29T15:51:00.435Z</time></trkpt><trkpt lat="33.8532732" lon="8.6384136"><ele>19.0</ele><time>2026-04-29T15:51:01.426Z</time></trkpt><trkpt lat="33.8533696" lon="8.6381885"><ele>18.666666666666664</ele><time>2026-04-29T15:51:02.436Z</time></trkpt><trkpt lat="33.853476" lon="8.6379706"><ele>18.333333333333332</ele><time>2026-04-29T15:51:03.435Z</time></trkpt><trkpt lat="33.8535843" lon="8.6377587"><ele>18.0</ele><time>2026-04-29T15:51:04.434Z</time></trkpt><trkpt lat="33.8536874" lon="8.6375334"><ele>18.0</ele><time>2026-04-29T15:51:05.433Z</time></trkpt><trkpt lat="33.8537877" lon="8.6373018"><ele>18.0</ele><time>2026-04-29T15:51:06.455Z</time></trkpt><trkpt lat="33.8538777" lon="8.6370692"><ele>18.0</ele><time>2026-04-29T15:51:07.432Z</time></trkpt><trkpt lat="33.853978" lon="8.6368456"><ele>18.0</ele><time>2026-04-29T15:51:08.433Z</time></trkpt><trkpt lat="33.8540909" lon="8.6366298"><ele>18.0</ele><time>2026-04-29T15:51:09.426Z</time></trkpt><trkpt lat="33.8542021" lon="8.63641"><ele>18.0</ele><time>2026-04-29T15:51:10.434Z</time></trkpt><trkpt lat="33.8542975" lon="8.6361937"><ele>18.333333333333332</ele><time>2026-04-29T15:51:11.433Z</time></trkpt><trkpt lat="33.8543862" lon="8.6359653"><ele>18.666666666666664</ele><time>2026-04-29T15:51:12.434Z</time></trkpt><trkpt lat="33.8544751" lon="8.6357413"><ele>19.0</ele><time>2026-04-29T15:51:13.464Z</time></trkpt><trkpt lat="33.8545841" lon="8.6355246"><ele>19.0</ele><time>2026-04-29T15:51:14.427Z</time></trkpt><trkpt lat="33.8547007" lon="8.6353123"><ele>19.0</ele><time>2026-04-29T15:51:15.429Z</time></trkpt><trkpt lat="33.8548131" lon="8.6350978"><ele>19.0</ele><time>2026-04-29T15:51:16.437Z</time></trkpt><trkpt lat="33.854912" lon="8.6348789"><ele>19.0</ele><time>2026-04-29T15:51:17.436Z</time></trkpt><trkpt lat="33.8549996" lon="8.6346461"><ele>19.0</ele><time>2026-04-29T15:51:18.431Z</time></trkpt><trkpt lat="33.8550923" lon="8.6344195"><ele>19.0</ele><time>2026-04-29T15:51:19.437Z</time></trkpt><trkpt lat="33.8551952" lon="8.6342023"><ele>19.0</ele><time>2026-04-29T15:51:20.433Z</time></trkpt><trkpt lat="33.8553069" lon="8.6339856"><ele>19.0</ele><time>2026-04-29T15:51:21.444Z</time></trkpt><trkpt lat="33.8554169" lon="8.6337644"><ele>19.0</ele><time>2026-04-29T15:51:22.442Z</time></trkpt><trkpt lat="33.8555103" lon="8.6335424"><ele>19.0</ele><time>2026-04-29T15:51:23.436Z</time></trkpt><trkpt lat="33.8555972" lon="8.6333148"><ele>19.0</ele><time>2026-04-29T15:51:24.427Z</time></trkpt><trkpt lat="33.8556944" lon="8.6330889"><ele>19.0</ele><time>2026-04-29T15:51:25.437Z</time></trkpt><trkpt lat="33.8557963" lon="8.6328681"><ele>19.0</ele><time>2026-04-29T15:51:26.435Z</time></trkpt><trkpt lat="33.8559097" lon="8.6326543"><ele>19.0</ele><time>2026-04-29T15:51:27.441Z</time></trkpt><trkpt lat="33.8560224" lon="8.6324416"><ele>19.0</ele><time>2026-04-29T15:51:28.432Z</time></trkpt><trkpt lat="33.856128" lon="8.6322257"><ele>19.0</ele><time>2026-04-29T15:51:29.435Z</time></trkpt><trkpt lat="33.8562192" lon="8.631999"><ele>19.0</ele><time>2026-04-29T15:51:30.437Z</time></trkpt><trkpt lat="33.8563081" lon="8.6317705"><ele>19.0</ele><time>2026-04-29T15:51:31.435Z</time></trkpt><trkpt lat="33.8564008" lon="8.6315416"><ele>18.666666666666664</ele><time>2026-04-29T15:51:32.433Z</time></trkpt><trkpt lat="33.856504" lon="8.6313131"><ele>18.333333333333332</ele><time>2026-04-29T15:51:33.429Z</time></trkpt><trkpt lat="33.8566198" lon="8.6310946"><ele>18.0</ele><time>2026-04-29T15:51:34.43Z</time></trkpt><trkpt lat="33.8567333" lon="8.630875"><ele>17.666666666666668</ele><time>2026-04-29T15:51:35.437Z</time></trkpt><trkpt lat="33.8568376" lon="8.6306607"><ele>17.333333333333336</ele><time>2026-04-29T15:51:36.426Z</time></trkpt><trkpt lat="33.8569348" lon="8.6304308"><ele>17.0</ele><time>2026-04-29T15:51:37.433Z</time></trkpt><trkpt lat="33.8570226" lon="8.6301997"><ele>16.333333333333336</ele><time>2026-04-29T15:51:38.428Z</time></trkpt><trkpt lat="33.8571189" lon="8.6299759"><ele>15.666666666666668</ele><time>2026-04-29T15:51:39.438Z</time></trkpt><trkpt lat="33.8572238" lon="8.6297518"><ele>15.0</ele><time>2026-04-29T15:51:40.434Z</time></trkpt><trkpt lat="33.8573337" lon="8.6295331"><ele>15.0</ele><time>2026-04-29T15:51:41.427Z</time></trkpt><trkpt lat="33.8574446" lon="8.6293191"><ele>15.0</ele><time>2026-04-29T15:51:42.438Z</time></trkpt><trkpt lat="33.8575526" lon="8.6291008"><ele>15.0</ele><time>2026-04-29T15:51:43.437Z</time></trkpt><trkpt lat="33.8576528" lon="8.6288767"><ele>15.333333333333332</ele><time>2026-04-29T15:51:44.432Z</time></trkpt><trkpt lat="33.8577541" lon="8.6286568"><ele>15.666666666666666</ele><time>2026-04-29T15:51:45.438Z</time></trkpt><trkpt lat="33.8578564" lon="8.6284289"><ele>16.0</ele><time>2026-04-29T15:51:46.437Z</time></trkpt><trkpt lat="33.8579605" lon="8.6282066"><ele>16.0</ele><time>2026-04-29T15:51:47.445Z</time></trkpt><trkpt lat="33.8580598" lon="8.6279817"><ele>16.0</ele><time>2026-04-29T15:51:48.44Z</time></trkpt><trkpt lat="33.8581574" lon="8.6277577"><ele>16.0</ele><time>2026-04-29T15:51:49.439Z</time></trkpt><trkpt lat="33.8582579" lon="8.6275358"><ele>16.666666666666664</ele><time>2026-04-29T15:51:50.433Z</time></trkpt><trkpt lat="33.8583661" lon="8.6273114"><ele>17.333333333333332</ele><time>2026-04-29T15:51:51.43Z</time></trkpt><trkpt lat="33.8584702" lon="8.6270885"><ele>18.0</ele><time>2026-04-29T15:51:52.438Z</time></trkpt><trkpt lat="33.8585723" lon="8.6268689"><ele>19.0</ele><time>2026-04-29T15:51:53.422Z</time></trkpt><trkpt lat="33.8586714" lon="8.6266418"><ele>20.0</ele><time>2026-04-29T15:51:54.436Z</time></trkpt><trkpt lat="33.8587714" lon="8.626419"><ele>21.0</ele><time>2026-04-29T15:51:55.433Z</time></trkpt><trkpt lat="33.8588691" lon="8.6261977"><ele>19.666666666666668</ele><time>2026-04-29T15:51:56.434Z</time></trkpt><trkpt lat="33.8589672" lon="8.6259764"><ele>18.333333333333336</ele><time>2026-04-29T15:51:57.436Z</time></trkpt><trkpt lat="33.8590692" lon="8.6257531"><ele>17.0</ele><time>2026-04-29T15:51:58.431Z</time></trkpt><trkpt lat="33.8591691" lon="8.6255312"><ele>16.333333333333336</ele><time>2026-04-29T15:51:59.428Z</time></trkpt><trkpt lat="33.8592696" lon="8.6253101"><ele>15.666666666666668</ele><time>2026-04-29T15:52:00.433Z</time></trkpt><trkpt lat="33.8593759" lon="8.6250917"><ele>15.0</ele><time>2026-04-29T15:52:01.423Z</time></trkpt><trkpt lat="33.8594785" lon="8.6248726"><ele>15.0</ele><time>2026-04-29T15:52:02.437Z</time></trkpt><trkpt lat="33.8595857" lon="8.6246454"><ele>15.0</ele><time>2026-04-29T15:52:03.44Z</time></trkpt><trkpt lat="33.8596908" lon="8.6244183"><ele>15.0</ele><time>2026-04-29T15:52:04.463Z</time></trkpt><trkpt lat="33.8597901" lon="8.6241934"><ele>14.666666666666668</ele><time>2026-04-29T15:52:05.437Z</time></trkpt><trkpt lat="33.8598896" lon="8.6239687"><ele>14.333333333333334</ele><time>2026-04-29T15:52:06.436Z</time></trkpt><trkpt lat="33.8599896" lon="8.6237429"><ele>14.0</ele><time>2026-04-29T15:52:07.433Z</time></trkpt><trkpt lat="33.8600929" lon="8.6235205"><ele>15.333333333333334</ele><time>2026-04-29T15:52:08.437Z</time></trkpt><trkpt lat="33.8601939" lon="8.6232993"><ele>16.666666666666668</ele><time>2026-04-29T15:52:09.438Z</time></trkpt><trkpt lat="33.8602985" lon="8.6230767"><ele>18.0</ele><time>2026-04-29T15:52:10.442Z</time></trkpt><trkpt lat="33.8604" lon="8.6228533"><ele>18.0</ele><time>2026-04-29T15:52:11.43Z</time></trkpt><trkpt lat="33.8605032" lon="8.6226313"><ele>18.0</ele><time>2026-04-29T15:52:12.423Z</time></trkpt><trkpt lat="33.8606076" lon="8.6224118"><ele>18.0</ele><time>2026-04-29T15:52:13.433Z</time></trkpt><trkpt lat="33.8607107" lon="8.6221968"><ele>18.0</ele><time>2026-04-29T15:52:14.431Z</time></trkpt><trkpt lat="33.8608202" lon="8.6219826"><ele>18.0</ele><time>2026-04-29T15:52:15.441Z</time></trkpt><trkpt lat="33.8609346" lon="8.6217679"><ele>18.0</ele><time>2026-04-29T15:52:16.438Z</time></trkpt><trkpt lat="33.8610473" lon="8.6215528"><ele>18.0</ele><time>2026-04-29T15:52:17.431Z</time></trkpt><trkpt lat="33.8611573" lon="8.6213314"><ele>18.0</ele><time>2026-04-29T15:52:18.447Z</time></trkpt><trkpt lat="33.8612716" lon="8.621113"><ele>18.0</ele><time>2026-04-29T15:52:19.461Z</time></trkpt><trkpt lat="33.8613821" lon="8.6208949"><ele>18.333333333333332</ele><time>2026-04-29T15:52:20.434Z</time></trkpt><trkpt lat="33.8614983" lon="8.6206839"><ele>18.666666666666664</ele><time>2026-04-29T15:52:21.432Z</time></trkpt><trkpt lat="33.8616073" lon="8.620465"><ele>19.0</ele><time>2026-04-29T15:52:22.427Z</time></trkpt><trkpt lat="33.8617165" lon="8.6202511"><ele>18.333333333333332</ele><time>2026-04-29T15:52:23.44Z</time></trkpt><trkpt lat="33.8618243" lon="8.6200396"><ele>17.666666666666668</ele><time>2026-04-29T15:52:24.423Z</time></trkpt><trkpt lat="33.8619327" lon="8.6198267"><ele>17.0</ele><time>2026-04-29T15:52:25.432Z</time></trkpt><trkpt lat="33.862049" lon="8.6196121"><ele>17.0</ele><time>2026-04-29T15:52:26.439Z</time></trkpt><trkpt lat="33.8621631" lon="8.6193937"><ele>17.0</ele><time>2026-04-29T15:52:27.432Z</time></trkpt><trkpt lat="33.8622779" lon="8.6191738"><ele>17.0</ele><time>2026-04-29T15:52:28.45Z</time></trkpt><trkpt lat="33.8623881" lon="8.61896"><ele>17.0</ele><time>2026-04-29T15:52:29.431Z</time></trkpt><trkpt lat="33.8625001" lon="8.6187456"><ele>17.0</ele><time>2026-04-29T15:52:30.433Z</time></trkpt><trkpt lat="33.8626108" lon="8.618534"><ele>17.0</ele><time>2026-04-29T15:52:31.433Z</time></trkpt><trkpt lat="33.8627252" lon="8.6183145"><ele>17.0</ele><time>2026-04-29T15:52:32.429Z</time></trkpt><trkpt lat="33.8628357" lon="8.6180982"><ele>17.0</ele><time>2026-04-29T15:52:33.431Z</time></trkpt><trkpt lat="33.8629435" lon="8.6178817"><ele>17.0</ele><time>2026-04-29T15:52:34.437Z</time></trkpt><trkpt lat="33.8630558" lon="8.6176686"><ele>17.0</ele><time>2026-04-29T15:52:35.442Z</time></trkpt><trkpt lat="33.8631683" lon="8.617449"><ele>17.0</ele><time>2026-04-29T15:52:36.433Z</time></trkpt><trkpt lat="33.86328" lon="8.6172342"><ele>17.0</ele><time>2026-04-29T15:52:37.453Z</time></trkpt><trkpt lat="33.8633884" lon="8.6170209"><ele>16.0</ele><time>2026-04-29T15:52:38.434Z</time></trkpt><trkpt lat="33.8635035" lon="8.6168094"><ele>15.0</ele><time>2026-04-29T15:52:39.435Z</time></trkpt><trkpt lat="33.8636159" lon="8.6165934"><ele>14.0</ele><time>2026-04-29T15:52:40.439Z</time></trkpt><trkpt lat="33.8637276" lon="8.6163791"><ele>14.0</ele><time>2026-04-29T15:52:41.436Z</time></trkpt><trkpt lat="33.8638345" lon="8.6161664"><ele>14.0</ele><time>2026-04-29T15:52:42.434Z</time></trkpt><trkpt lat="33.8639445" lon="8.6159567"><ele>14.0</ele><time>2026-04-29T15:52:43.438Z</time></trkpt><trkpt lat="33.8640581" lon="8.6157417"><ele>15.333333333333334</ele><time>2026-04-29T15:52:44.435Z</time></trkpt><trkpt lat="33.8641689" lon="8.6155285"><ele>16.666666666666668</ele><time>2026-04-29T15:52:45.437Z</time></trkpt><trkpt lat="33.8642803" lon="8.6153128"><ele>18.0</ele><time>2026-04-29T15:52:46.427Z</time></trkpt><trkpt lat="33.8643903" lon="8.6150964"><ele>18.0</ele><time>2026-04-29T15:52:47.437Z</time></trkpt><trkpt lat="33.8645062" lon="8.6148818"><ele>18.0</ele><time>2026-04-29T15:52:48.448Z</time></trkpt><trkpt lat="33.8646208" lon="8.6146691"><ele>18.0</ele><time>2026-04-29T15:52:49.44Z</time></trkpt><trkpt lat="33.8647315" lon="8.6144566"><ele>17.666666666666668</ele><time>2026-04-29T15:52:50.429Z</time></trkpt><trkpt lat="33.8648426" lon="8.6142375"><ele>17.333333333333336</ele><time>2026-04-29T15:52:51.426Z</time></trkpt><trkpt lat="33.8649509" lon="8.6140182"><ele>17.0</ele><time>2026-04-29T15:52:52.434Z</time></trkpt><trkpt lat="33.865063" lon="8.6138002"><ele>17.333333333333336</ele><time>2026-04-29T15:52:53.431Z</time></trkpt><trkpt lat="33.8651741" lon="8.6135782"><ele>17.666666666666668</ele><time>2026-04-29T15:52:54.459Z</time></trkpt><trkpt lat="33.8652824" lon="8.613363"><ele>18.0</ele><time>2026-04-29T15:52:55.435Z</time></trkpt><trkpt lat="33.865396" lon="8.6131496"><ele>18.0</ele><time>2026-04-29T15:52:56.431Z</time></trkpt><trkpt lat="33.8655085" lon="8.6129324"><ele>18.0</ele><time>2026-04-29T15:52:57.432Z</time></trkpt><trkpt lat="33.8656165" lon="8.6127203"><ele>18.0</ele><time>2026-04-29T15:52:58.435Z</time></trkpt><trkpt lat="33.8657261" lon="8.6125073"><ele>17.666666666666668</ele><time>2026-04-29T15:52:59.437Z</time></trkpt><trkpt lat="33.8658361" lon="8.6122901"><ele>17.333333333333336</ele><time>2026-04-29T15:53:00.429Z</time></trkpt><trkpt lat="33.8659426" lon="8.6120767"><ele>17.0</ele><time>2026-04-29T15:53:01.432Z</time></trkpt><trkpt lat="33.8660546" lon="8.6118578"><ele>16.666666666666668</ele><time>2026-04-29T15:53:02.429Z</time></trkpt><trkpt lat="33.8661681" lon="8.6116405"><ele>16.333333333333332</ele><time>2026-04-29T15:53:03.434Z</time></trkpt><trkpt lat="33.8662826" lon="8.6114225"><ele>16.0</ele><time>2026-04-29T15:53:04.435Z</time></trkpt><trkpt lat="33.8663942" lon="8.6112107"><ele>16.666666666666664</ele><time>2026-04-29T15:53:05.432Z</time></trkpt><trkpt lat="33.8665057" lon="8.6109949"><ele>17.333333333333332</ele><time>2026-04-29T15:53:06.423Z</time></trkpt><trkpt lat="33.8666159" lon="8.6107771"><ele>18.0</ele><time>2026-04-29T15:53:07.432Z</time></trkpt><trkpt lat="33.8667337" lon="8.6105618"><ele>18.333333333333332</ele><time>2026-04-29T15:53:08.46Z</time></trkpt><trkpt lat="33.866848" lon="8.6103493"><ele>18.666666666666664</ele><time>2026-04-29T15:53:09.441Z</time></trkpt><trkpt lat="33.8669555" lon="8.6101303"><ele>19.0</ele><time>2026-04-29T15:53:10.435Z</time></trkpt><trkpt lat="33.8670653" lon="8.6099144"><ele>19.0</ele><time>2026-04-29T15:53:11.431Z</time></trkpt><trkpt lat="33.8671788" lon="8.6097009"><ele>19.0</ele><time>2026-04-29T15:53:12.422Z</time></trkpt><trkpt lat="33.8672922" lon="8.6094848"><ele>19.0</ele><time>2026-04-29T15:53:13.424Z</time></trkpt><trkpt lat="33.8674044" lon="8.6092705"><ele>18.333333333333332</ele><time>2026-04-29T15:53:14.418Z</time></trkpt><trkpt lat="33.8675135" lon="8.6090553"><ele>17.666666666666668</ele><time>2026-04-29T15:53:15.419Z</time></trkpt><trkpt lat="33.8676243" lon="8.6088386"><ele>17.0</ele><time>2026-04-29T15:53:16.44Z</time></trkpt><trkpt lat="33.8677391" lon="8.6086215"><ele>16.666666666666668</ele><time>2026-04-29T15:53:17.428Z</time></trkpt><trkpt lat="33.8678484" lon="8.6084046"><ele>16.333333333333332</ele><time>2026-04-29T15:53:18.463Z</time></trkpt><trkpt lat="33.8679607" lon="8.6081884"><ele>16.0</ele><time>2026-04-29T15:53:19.432Z</time></trkpt><trkpt lat="33.8680751" lon="8.6079743"><ele>16.0</ele><time>2026-04-29T15:53:20.43Z</time></trkpt><trkpt lat="33.8681931" lon="8.6077645"><ele>16.0</ele><time>2026-04-29T15:53:21.448Z</time></trkpt><trkpt lat="33.8683047" lon="8.60755"><ele>16.0</ele><time>2026-04-29T15:53:22.443Z</time></trkpt><trkpt lat="33.868414" lon="8.6073328"><ele>16.333333333333332</ele><time>2026-04-29T15:53:23.432Z</time></trkpt><trkpt lat="33.8685243" lon="8.6071159"><ele>16.666666666666668</ele><time>2026-04-29T15:53:24.439Z</time></trkpt><trkpt lat="33.8686346" lon="8.6068982"><ele>17.0</ele><time>2026-04-29T15:53:25.438Z</time></trkpt><trkpt lat="33.8687426" lon="8.6066724"><ele>17.0</ele><time>2026-04-29T15:53:26.436Z</time></trkpt><trkpt lat="33.8688609" lon="8.6064498"><ele>17.0</ele><time>2026-04-29T15:53:27.433Z</time></trkpt><trkpt lat="33.8689768" lon="8.6062335"><ele>17.0</ele><time>2026-04-29T15:53:28.423Z</time></trkpt><trkpt lat="33.8690936" lon="8.6060152"><ele>17.0</ele><time>2026-04-29T15:53:29.427Z</time></trkpt><trkpt lat="33.8692068" lon="8.6057915"><ele>17.0</ele><time>2026-04-29T15:53:30.452Z</time></trkpt><trkpt lat="33.8693224" lon="8.605569"><ele>17.0</ele><time>2026-04-29T15:53:31.439Z</time></trkpt><trkpt lat="33.8694354" lon="8.605344"><ele>17.0</ele><time>2026-04-29T15:53:32.436Z</time></trkpt><trkpt lat="33.8695494" lon="8.6051262"><ele>17.0</ele><time>2026-04-29T15:53:33.427Z</time></trkpt><trkpt lat="33.8696647" lon="8.6049066"><ele>17.0</ele><time>2026-04-29T15:53:34.444Z</time></trkpt><trkpt lat="33.8697747" lon="8.6046871"><ele>17.0</ele><time>2026-04-29T15:53:35.429Z</time></trkpt><trkpt lat="33.869883" lon="8.6044658"><ele>17.0</ele><time>2026-04-29T15:53:36.436Z</time></trkpt><trkpt lat="33.8699978" lon="8.6042379"><ele>17.0</ele><time>2026-04-29T15:53:37.439Z</time></trkpt><trkpt lat="33.8701096" lon="8.6040142"><ele>17.333333333333336</ele><time>2026-04-29T15:53:38.435Z</time></trkpt><trkpt lat="33.8702194" lon="8.6037938"><ele>17.666666666666668</ele><time>2026-04-29T15:53:39.441Z</time></trkpt><trkpt lat="33.8703352" lon="8.6035753"><ele>18.0</ele><time>2026-04-29T15:53:40.436Z</time></trkpt><trkpt lat="33.8704493" lon="8.6033553"><ele>18.0</ele><time>2026-04-29T15:53:41.435Z</time></trkpt><trkpt lat="33.8705629" lon="8.6031404"><ele>18.0</ele><time>2026-04-29T15:53:42.435Z</time></trkpt><trkpt lat="33.8706785" lon="8.602919"><ele>18.0</ele><time>2026-04-29T15:53:43.432Z</time></trkpt><trkpt lat="33.8707929" lon="8.6027009"><ele>17.0</ele><time>2026-04-29T15:53:44.441Z</time></trkpt><trkpt lat="33.8709069" lon="8.6024818"><ele>16.0</ele><time>2026-04-29T15:53:45.431Z</time></trkpt><trkpt lat="33.8710208" lon="8.6022596"><ele>15.0</ele><time>2026-04-29T15:53:46.448Z</time></trkpt><trkpt lat="33.871133" lon="8.6020346"><ele>15.333333333333332</ele><time>2026-04-29T15:53:47.432Z</time></trkpt><trkpt lat="33.8712542" lon="8.6018197"><ele>15.666666666666666</ele><time>2026-04-29T15:53:48.432Z</time></trkpt><trkpt lat="33.8713751" lon="8.6015992"><ele>16.0</ele><time>2026-04-29T15:53:49.433Z</time></trkpt><trkpt lat="33.8714894" lon="8.601381"><ele>16.0</ele><time>2026-04-29T15:53:50.431Z</time></trkpt><trkpt lat="33.8716029" lon="8.6011562"><ele>16.0</ele><time>2026-04-29T15:53:51.432Z</time></trkpt><trkpt lat="33.8717183" lon="8.6009433"><ele>16.0</ele><time>2026-04-29T15:53:52.424Z</time></trkpt><trkpt lat="33.8718369" lon="8.6007221"><ele>16.0</ele><time>2026-04-29T15:53:53.437Z</time></trkpt><trkpt lat="33.8719411" lon="8.6004967"><ele>16.0</ele><time>2026-04-29T15:53:54.43Z</time></trkpt><trkpt lat="33.8720453" lon="8.6002717"><ele>16.0</ele><time>2026-04-29T15:53:55.438Z</time></trkpt><trkpt lat="33.8721607" lon="8.6000509"><ele>16.333333333333332</ele><time>2026-04-29T15:53:56.435Z</time></trkpt><trkpt lat="33.8722857" lon="8.5998368"><ele>16.666666666666668</ele><time>2026-04-29T15:53:57.426Z</time></trkpt><trkpt lat="33.8724126" lon="8.5996196"><ele>17.0</ele><time>2026-04-29T15:53:58.427Z</time></trkpt><trkpt lat="33.8725292" lon="8.5994008"><ele>16.0</ele><time>2026-04-29T15:53:59.436Z</time></trkpt><trkpt lat="33.87264" lon="8.5991789"><ele>15.0</ele><time>2026-04-29T15:54:00.433Z</time></trkpt><trkpt lat="33.8727476" lon="8.5989569"><ele>14.0</ele><time>2026-04-29T15:54:01.432Z</time></trkpt><trkpt lat="33.8728621" lon="8.5987327"><ele>14.0</ele><time>2026-04-29T15:54:02.476Z</time></trkpt><trkpt lat="33.872975" lon="8.5985107"><ele>14.0</ele><time>2026-04-29T15:54:03.438Z</time></trkpt><trkpt lat="33.8730861" lon="8.5982864"><ele>14.0</ele><time>2026-04-29T15:54:04.438Z</time></trkpt><trkpt lat="33.8731999" lon="8.5980664"><ele>14.0</ele><time>2026-04-29T15:54:05.437Z</time></trkpt><trkpt lat="33.8733125" lon="8.5978449"><ele>14.0</ele><time>2026-04-29T15:54:06.427Z</time></trkpt><trkpt lat="33.8734257" lon="8.5976213"><ele>14.0</ele><time>2026-04-29T15:54:07.434Z</time></trkpt><trkpt lat="33.8735319" lon="8.5974051"><ele>14.666666666666668</ele><time>2026-04-29T15:54:08.43Z</time></trkpt><trkpt lat="33.8736399" lon="8.5971958"><ele>15.333333333333332</ele><time>2026-04-29T15:54:09.427Z</time></trkpt><trkpt lat="33.8737403" lon="8.5969932"><ele>16.0</ele><time>2026-04-29T15:54:10.432Z</time></trkpt><trkpt lat="33.8738431" lon="8.5967992"><ele>16.0</ele><time>2026-04-29T15:54:11.433Z</time></trkpt><trkpt lat="33.8739502" lon="8.5965914"><ele>16.0</ele><time>2026-04-29T15:54:12.428Z</time></trkpt><trkpt lat="33.8740566" lon="8.5963919"><ele>16.0</ele><time>2026-04-29T15:54:13.423Z</time></trkpt><trkpt lat="33.8741582" lon="8.5961869"><ele>16.0</ele><time>2026-04-29T15:54:14.434Z</time></trkpt><trkpt lat="33.8742623" lon="8.5959814"><ele>16.0</ele><time>2026-04-29T15:54:15.43Z</time></trkpt><trkpt lat="33.8743643" lon="8.5957742"><ele>16.0</ele><time>2026-04-29T15:54:16.435Z</time></trkpt><trkpt lat="33.8744685" lon="8.595564"><ele>16.0</ele><time>2026-04-29T15:54:17.427Z</time></trkpt><trkpt lat="33.8745763" lon="8.5953534"><ele>16.0</ele><time>2026-04-29T15:54:18.509Z</time></trkpt><trkpt lat="33.8746845" lon="8.5951427"><ele>16.0</ele><time>2026-04-29T15:54:19.428Z</time></trkpt><trkpt lat="33.8747956" lon="8.5949322"><ele>16.0</ele><time>2026-04-29T15:54:20.426Z</time></trkpt><trkpt lat="33.8749062" lon="8.5947228"><ele>16.0</ele><time>2026-04-29T15:54:21.426Z</time></trkpt><trkpt lat="33.8750163" lon="8.5945096"><ele>16.0</ele><time>2026-04-29T15:54:22.464Z</time></trkpt><trkpt lat="33.8751231" lon="8.5942986"><ele>16.333333333333332</ele><time>2026-04-29T15:54:23.434Z</time></trkpt><trkpt lat="33.8752291" lon="8.594088"><ele>16.666666666666668</ele><time>2026-04-29T15:54:24.427Z</time></trkpt><trkpt lat="33.8753369" lon="8.5938768"><ele>17.0</ele><time>2026-04-29T15:54:25.438Z</time></trkpt><trkpt lat="33.8754458" lon="8.5936662"><ele>17.333333333333336</ele><time>2026-04-29T15:54:26.437Z</time></trkpt><trkpt lat="33.875554" lon="8.5934513"><ele>17.666666666666668</ele><time>2026-04-29T15:54:27.442Z</time></trkpt><trkpt lat="33.8756621" lon="8.5932372"><ele>18.0</ele><time>2026-04-29T15:54:28.443Z</time></trkpt><trkpt lat="33.8757737" lon="8.5930232"><ele>18.0</ele><time>2026-04-29T15:54:29.433Z</time></trkpt><trkpt lat="33.8758841" lon="8.5928136"><ele>18.0</ele><time>2026-04-29T15:54:30.44Z</time></trkpt><trkpt lat="33.8759923" lon="8.5926066"><ele>18.0</ele><time>2026-04-29T15:54:31.45Z</time></trkpt><trkpt lat="33.8761017" lon="8.5923928"><ele>18.0</ele><time>2026-04-29T15:54:32.43Z</time></trkpt><trkpt lat="33.8762093" lon="8.5921818"><ele>18.0</ele><time>2026-04-29T15:54:33.43Z</time></trkpt><trkpt lat="33.8763172" lon="8.5919718"><ele>18.0</ele><time>2026-04-29T15:54:34.44Z</time></trkpt><trkpt lat="33.8764229" lon="8.5917629"><ele>18.0</ele><time>2026-04-29T15:54:35.433Z</time></trkpt><trkpt lat="33.8765322" lon="8.5915468"><ele>18.0</ele><time>2026-04-29T15:54:36.421Z</time></trkpt><trkpt lat="33.87664" lon="8.5913366"><ele>18.0</ele><time>2026-04-29T15:54:37.436Z</time></trkpt><trkpt lat="33.8767479" lon="8.5911256"><ele>17.333333333333332</ele><time>2026-04-29T15:54:38.476Z</time></trkpt><trkpt lat="33.8768506" lon="8.5909091"><ele>16.666666666666664</ele><time>2026-04-29T15:54:39.433Z</time></trkpt><trkpt lat="33.8769609" lon="8.5906968"><ele>16.0</ele><time>2026-04-29T15:54:40.441Z</time></trkpt><trkpt lat="33.8770712" lon="8.5904873"><ele>16.333333333333332</ele><time>2026-04-29T15:54:41.442Z</time></trkpt><trkpt lat="33.8771768" lon="8.5902778"><ele>16.666666666666668</ele><time>2026-04-29T15:54:42.433Z</time></trkpt><trkpt lat="33.8772886" lon="8.5900633"><ele>17.0</ele><time>2026-04-29T15:54:43.431Z</time></trkpt><trkpt lat="33.8773932" lon="8.5898533"><ele>17.0</ele><time>2026-04-29T15:54:44.427Z</time></trkpt><trkpt lat="33.8774963" lon="8.5896398"><ele>17.0</ele><time>2026-04-29T15:54:45.437Z</time></trkpt><trkpt lat="33.8776059" lon="8.5894268"><ele>17.0</ele><time>2026-04-29T15:54:46.435Z</time></trkpt><trkpt lat="33.8777129" lon="8.5892161"><ele>17.0</ele><time>2026-04-29T15:54:47.427Z</time></trkpt><trkpt lat="33.8778203" lon="8.5890044"><ele>17.0</ele><time>2026-04-29T15:54:48.432Z</time></trkpt><trkpt lat="33.8779294" lon="8.5887945"><ele>17.0</ele><time>2026-04-29T15:54:49.434Z</time></trkpt><trkpt lat="33.8780356" lon="8.5885804"><ele>16.333333333333336</ele><time>2026-04-29T15:54:50.436Z</time></trkpt><trkpt lat="33.8781357" lon="8.5883662"><ele>15.666666666666668</ele><time>2026-04-29T15:54:51.437Z</time></trkpt><trkpt lat="33.8782393" lon="8.588155"><ele>15.0</ele><time>2026-04-29T15:54:52.436Z</time></trkpt><trkpt lat="33.8783453" lon="8.5879421"><ele>15.666666666666668</ele><time>2026-04-29T15:54:53.439Z</time></trkpt><trkpt lat="33.8784522" lon="8.587728"><ele>16.333333333333336</ele><time>2026-04-29T15:54:54.451Z</time></trkpt><trkpt lat="33.8785644" lon="8.5875148"><ele>17.0</ele><time>2026-04-29T15:54:55.437Z</time></trkpt><trkpt lat="33.8786747" lon="8.587303"><ele>17.0</ele><time>2026-04-29T15:54:56.433Z</time></trkpt><trkpt lat="33.878781" lon="8.5870913"><ele>17.0</ele><time>2026-04-29T15:54:57.438Z</time></trkpt><trkpt lat="33.8788896" lon="8.5868767"><ele>17.0</ele><time>2026-04-29T15:54:58.426Z</time></trkpt><trkpt lat="33.8790008" lon="8.5866615"><ele>17.666666666666668</ele><time>2026-04-29T15:54:59.437Z</time></trkpt><trkpt lat="33.8791079" lon="8.5864478"><ele>18.333333333333332</ele><time>2026-04-29T15:55:00.431Z</time></trkpt><trkpt lat="33.8792168" lon="8.586239"><ele>19.0</ele><time>2026-04-29T15:55:01.441Z</time></trkpt><trkpt lat="33.8793249" lon="8.5860234"><ele>19.0</ele><time>2026-04-29T15:55:02.433Z</time></trkpt><trkpt lat="33.8794326" lon="8.5858123"><ele>19.0</ele><time>2026-04-29T15:55:03.43Z</time></trkpt><trkpt lat="33.8795413" lon="8.5855995"><ele>19.0</ele><time>2026-04-29T15:55:04.42Z</time></trkpt><trkpt lat="33.8796515" lon="8.5853871"><ele>18.333333333333332</ele><time>2026-04-29T15:55:05.428Z</time></trkpt><trkpt lat="33.8797619" lon="8.5851745"><ele>17.666666666666668</ele><time>2026-04-29T15:55:06.431Z</time></trkpt><trkpt lat="33.879869" lon="8.5849669"><ele>17.0</ele><time>2026-04-29T15:55:07.422Z</time></trkpt><trkpt lat="33.8799752" lon="8.5847588"><ele>17.0</ele><time>2026-04-29T15:55:08.429Z</time></trkpt><trkpt lat="33.8800821" lon="8.5845485"><ele>17.0</ele><time>2026-04-29T15:55:09.439Z</time></trkpt><trkpt lat="33.8801855" lon="8.5843376"><ele>17.0</ele><time>2026-04-29T15:55:10.424Z</time></trkpt><trkpt lat="33.8802932" lon="8.5841257"><ele>17.0</ele><time>2026-04-29T15:55:11.436Z</time></trkpt><trkpt lat="33.8804007" lon="8.5839132"><ele>17.0</ele><time>2026-04-29T15:55:12.423Z</time></trkpt><trkpt lat="33.8805108" lon="8.5837051"><ele>17.0</ele><time>2026-04-29T15:55:13.448Z</time></trkpt><trkpt lat="33.8806216" lon="8.5834923"><ele>16.666666666666668</ele><time>2026-04-29T15:55:14.434Z</time></trkpt><trkpt lat="33.8807258" lon="8.5832828"><ele>16.333333333333332</ele><time>2026-04-29T15:55:15.433Z</time></trkpt><trkpt lat="33.8808295" lon="8.583072"><ele>16.0</ele><time>2026-04-29T15:55:16.424Z</time></trkpt><trkpt lat="33.8809369" lon="8.5828609"><ele>15.666666666666666</ele><time>2026-04-29T15:55:17.47Z</time></trkpt><trkpt lat="33.881042" lon="8.5826501"><ele>15.333333333333332</ele><time>2026-04-29T15:55:18.457Z</time></trkpt><trkpt lat="33.8811518" lon="8.5824372"><ele>15.0</ele><time>2026-04-29T15:55:19.436Z</time></trkpt><trkpt lat="33.8812587" lon="8.5822199"><ele>15.666666666666668</ele><time>2026-04-29T15:55:20.429Z</time></trkpt><trkpt lat="33.8813704" lon="8.5820029"><ele>16.333333333333336</ele><time>2026-04-29T15:55:21.445Z</time></trkpt><trkpt lat="33.8814782" lon="8.5817952"><ele>17.0</ele><time>2026-04-29T15:55:22.428Z</time></trkpt><trkpt lat="33.8815875" lon="8.5815815"><ele>17.0</ele><time>2026-04-29T15:55:23.428Z</time></trkpt><trkpt lat="33.8816999" lon="8.5813686"><ele>17.0</ele><time>2026-04-29T15:55:24.428Z</time></trkpt><trkpt lat="33.8818105" lon="8.5811593"><ele>17.0</ele><time>2026-04-29T15:55:25.438Z</time></trkpt><trkpt lat="33.8819208" lon="8.5809483"><ele>17.0</ele><time>2026-04-29T15:55:26.442Z</time></trkpt><trkpt lat="33.8820293" lon="8.5807368"><ele>17.0</ele><time>2026-04-29T15:55:27.432Z</time></trkpt><trkpt lat="33.8821333" lon="8.5805218"><ele>17.0</ele><time>2026-04-29T15:55:28.436Z</time></trkpt><trkpt lat="33.8822368" lon="8.5803096"><ele>16.666666666666668</ele><time>2026-04-29T15:55:29.44Z</time></trkpt><trkpt lat="33.8823476" lon="8.5800946"><ele>16.333333333333332</ele><time>2026-04-29T15:55:30.425Z</time></trkpt><trkpt lat="33.8824538" lon="8.5798841"><ele>16.0</ele><time>2026-04-29T15:55:31.431Z</time></trkpt><trkpt lat="33.8825575" lon="8.5796687"><ele>16.333333333333332</ele><time>2026-04-29T15:55:32.424Z</time></trkpt><trkpt lat="33.8826567" lon="8.5794581"><ele>16.666666666666668</ele><time>2026-04-29T15:55:33.439Z</time></trkpt><trkpt lat="33.8827659" lon="8.5792456"><ele>17.0</ele><time>2026-04-29T15:55:34.464Z</time></trkpt><trkpt lat="33.8828744" lon="8.5790317"><ele>17.0</ele><time>2026-04-29T15:55:35.429Z</time></trkpt><trkpt lat="33.8829848" lon="8.5788186"><ele>17.0</ele><time>2026-04-29T15:55:36.422Z</time></trkpt><trkpt lat="33.8830949" lon="8.5786071"><ele>17.0</ele><time>2026-04-29T15:55:37.438Z</time></trkpt><trkpt lat="33.8832036" lon="8.5784016"><ele>17.0</ele><time>2026-04-29T15:55:38.43Z</time></trkpt><trkpt lat="33.8833137" lon="8.5781929"><ele>17.0</ele><time>2026-04-29T15:55:39.43Z</time></trkpt><trkpt lat="33.8834221" lon="8.5779799"><ele>17.0</ele><time>2026-04-29T15:55:40.437Z</time></trkpt><trkpt lat="33.8835325" lon="8.5777632"><ele>17.333333333333336</ele><time>2026-04-29T15:55:41.426Z</time></trkpt><trkpt lat="33.8836391" lon="8.5775486"><ele>17.666666666666668</ele><time>2026-04-29T15:55:42.432Z</time></trkpt><trkpt lat="33.8837423" lon="8.5773329"><ele>18.0</ele><time>2026-04-29T15:55:43.433Z</time></trkpt><trkpt lat="33.883849" lon="8.57712"><ele>17.666666666666668</ele><time>2026-04-29T15:55:44.431Z</time></trkpt><trkpt lat="33.8839556" lon="8.5769078"><ele>17.333333333333336</ele><time>2026-04-29T15:55:45.447Z</time></trkpt><trkpt lat="33.884061" lon="8.576696"><ele>17.0</ele><time>2026-04-29T15:55:46.433Z</time></trkpt><trkpt lat="33.8841682" lon="8.5764851"><ele>16.666666666666668</ele><time>2026-04-29T15:55:47.46Z</time></trkpt><trkpt lat="33.8842784" lon="8.5762782"><ele>16.333333333333332</ele><time>2026-04-29T15:55:48.438Z</time></trkpt><trkpt lat="33.8843879" lon="8.5760662"><ele>16.0</ele><time>2026-04-29T15:55:49.427Z</time></trkpt><trkpt lat="33.884494" lon="8.5758561"><ele>16.0</ele><time>2026-04-29T15:55:50.462Z</time></trkpt><trkpt lat="33.8846045" lon="8.5756416"><ele>16.0</ele><time>2026-04-29T15:55:51.441Z</time></trkpt><trkpt lat="33.8847147" lon="8.5754329"><ele>16.0</ele><time>2026-04-29T15:55:52.441Z</time></trkpt><trkpt lat="33.8848261" lon="8.5752261"><ele>16.0</ele><time>2026-04-29T15:55:53.422Z</time></trkpt><trkpt lat="33.8849352" lon="8.5750183"><ele>16.0</ele><time>2026-04-29T15:55:54.43Z</time></trkpt><trkpt lat="33.8850446" lon="8.574804"><ele>16.0</ele><time>2026-04-29T15:55:55.427Z</time></trkpt><trkpt lat="33.8851513" lon="8.5745937"><ele>16.333333333333332</ele><time>2026-04-29T15:55:56.439Z</time></trkpt><trkpt lat="33.8852522" lon="8.5743856"><ele>16.666666666666668</ele><time>2026-04-29T15:55:57.425Z</time></trkpt><trkpt lat="33.8853621" lon="8.5741741"><ele>17.0</ele><time>2026-04-29T15:55:58.427Z</time></trkpt><trkpt lat="33.8854702" lon="8.5739624"><ele>17.0</ele><time>2026-04-29T15:55:59.445Z</time></trkpt><trkpt lat="33.885578" lon="8.5737509"><ele>17.0</ele><time>2026-04-29T15:56:00.432Z</time></trkpt><trkpt lat="33.8856854" lon="8.5735358"><ele>17.0</ele><time>2026-04-29T15:56:01.44Z</time></trkpt><trkpt lat="33.8857973" lon="8.5733267"><ele>17.0</ele><time>2026-04-29T15:56:02.435Z</time></trkpt><trkpt lat="33.8859072" lon="8.5731127"><ele>17.0</ele><time>2026-04-29T15:56:03.432Z</time></trkpt><trkpt lat="33.8860165" lon="8.5728982"><ele>17.0</ele><time>2026-04-29T15:56:04.431Z</time></trkpt><trkpt lat="33.886126" lon="8.5726843"><ele>17.0</ele><time>2026-04-29T15:56:05.428Z</time></trkpt><trkpt lat="33.8862365" lon="8.5724727"><ele>17.0</ele><time>2026-04-29T15:56:06.432Z</time></trkpt><trkpt lat="33.886344" lon="8.5722616"><ele>17.0</ele><time>2026-04-29T15:56:07.437Z</time></trkpt><trkpt lat="33.8864529" lon="8.5720517"><ele>17.666666666666668</ele><time>2026-04-29T15:56:08.438Z</time></trkpt><trkpt lat="33.8865634" lon="8.5718401"><ele>18.333333333333332</ele><time>2026-04-29T15:56:09.454Z</time></trkpt><trkpt lat="33.8866697" lon="8.5716264"><ele>19.0</ele><time>2026-04-29T15:56:10.435Z</time></trkpt><trkpt lat="33.8867772" lon="8.5714186"><ele>19.333333333333332</ele><time>2026-04-29T15:56:11.433Z</time></trkpt><trkpt lat="33.8868856" lon="8.5712062"><ele>19.666666666666668</ele><time>2026-04-29T15:56:12.434Z</time></trkpt><trkpt lat="33.8869921" lon="8.5709987"><ele>20.0</ele><time>2026-04-29T15:56:13.432Z</time></trkpt><trkpt lat="33.8870958" lon="8.5707837"><ele>19.333333333333336</ele><time>2026-04-29T15:56:14.433Z</time></trkpt><trkpt lat="33.8872014" lon="8.5705698"><ele>18.666666666666668</ele><time>2026-04-29T15:56:15.427Z</time></trkpt><trkpt lat="33.8873097" lon="8.5703605"><ele>18.0</ele><time>2026-04-29T15:56:16.426Z</time></trkpt><trkpt lat="33.8874205" lon="8.5701493"><ele>18.0</ele><time>2026-04-29T15:56:17.45Z</time></trkpt><trkpt lat="33.8875251" lon="8.5699342"><ele>18.0</ele><time>2026-04-29T15:56:18.453Z</time></trkpt><trkpt lat="33.8876389" lon="8.5697178"><ele>18.0</ele><time>2026-04-29T15:56:19.429Z</time></trkpt><trkpt lat="33.8877509" lon="8.5695084"><ele>18.666666666666668</ele><time>2026-04-29T15:56:20.429Z</time></trkpt><trkpt lat="33.8878567" lon="8.5692955"><ele>19.333333333333336</ele><time>2026-04-29T15:56:21.429Z</time></trkpt><trkpt lat="33.8879628" lon="8.5690863"><ele>20.0</ele><time>2026-04-29T15:56:22.441Z</time></trkpt><trkpt lat="33.8880707" lon="8.5688742"><ele>18.333333333333336</ele><time>2026-04-29T15:56:23.435Z</time></trkpt><trkpt lat="33.8881754" lon="8.568664"><ele>16.666666666666668</ele><time>2026-04-29T15:56:24.427Z</time></trkpt><trkpt lat="33.8882839" lon="8.5684518"><ele>15.0</ele><time>2026-04-29T15:56:25.424Z</time></trkpt><trkpt lat="33.8883911" lon="8.5682385"><ele>15.0</ele><time>2026-04-29T15:56:26.432Z</time></trkpt><trkpt lat="33.8884979" lon="8.5680255"><ele>15.0</ele><time>2026-04-29T15:56:27.434Z</time></trkpt><trkpt lat="33.8886037" lon="8.5678161"><ele>15.0</ele><time>2026-04-29T15:56:28.441Z</time></trkpt><trkpt lat="33.8887114" lon="8.5676062"><ele>14.666666666666668</ele><time>2026-04-29T15:56:29.435Z</time></trkpt><trkpt lat="33.8888189" lon="8.5673915"><ele>14.333333333333334</ele><time>2026-04-29T15:56:30.434Z</time></trkpt><trkpt lat="33.8889295" lon="8.5671797"><ele>14.0</ele><time>2026-04-29T15:56:31.432Z</time></trkpt><trkpt lat="33.8890402" lon="8.5669649"><ele>14.666666666666668</ele><time>2026-04-29T15:56:32.432Z</time></trkpt><trkpt lat="33.8891476" lon="8.5667543"><ele>15.333333333333332</ele><time>2026-04-29T15:56:33.461Z</time></trkpt><trkpt lat="33.8892528" lon="8.5665458"><ele>16.0</ele><time>2026-04-29T15:56:34.439Z</time></trkpt><trkpt lat="33.8893606" lon="8.5663329"><ele>14.0</ele><time>2026-04-29T15:56:35.429Z</time></trkpt><trkpt lat="33.8894675" lon="8.566116"><ele>12.0</ele><time>2026-04-29T15:56:36.43Z</time></trkpt><trkpt lat="33.8895687" lon="8.5659005"><ele>10.0</ele><time>2026-04-29T15:56:37.438Z</time></trkpt><trkpt lat="33.8896728" lon="8.5656931"><ele>10.0</ele><time>2026-04-29T15:56:38.434Z</time></trkpt><trkpt lat="33.8897799" lon="8.5654777"><ele>10.0</ele><time>2026-04-29T15:56:39.433Z</time></trkpt><trkpt lat="33.8898871" lon="8.5652681"><ele>10.0</ele><time>2026-04-29T15:56:40.431Z</time></trkpt><trkpt lat="33.8899956" lon="8.5650546"><ele>12.666666666666668</ele><time>2026-04-29T15:56:41.435Z</time></trkpt><trkpt lat="33.8901003" lon="8.5648438"><ele>15.333333333333334</ele><time>2026-04-29T15:56:42.432Z</time></trkpt><trkpt lat="33.8902095" lon="8.5646339"><ele>18.0</ele><time>2026-04-29T15:56:43.433Z</time></trkpt><trkpt lat="33.8903187" lon="8.5644208"><ele>18.0</ele><time>2026-04-29T15:56:44.43Z</time></trkpt><trkpt lat="33.8904263" lon="8.5642102"><ele>18.0</ele><time>2026-04-29T15:56:45.431Z</time></trkpt><trkpt lat="33.8905319" lon="8.5639982"><ele>18.0</ele><time>2026-04-29T15:56:46.456Z</time></trkpt><trkpt lat="33.8906414" lon="8.5637829"><ele>17.333333333333332</ele><time>2026-04-29T15:56:47.478Z</time></trkpt><trkpt lat="33.8907492" lon="8.5635694"><ele>16.666666666666664</ele><time>2026-04-29T15:56:48.45Z</time></trkpt><trkpt lat="33.8908572" lon="8.5633577"><ele>16.0</ele><time>2026-04-29T15:56:49.472Z</time></trkpt><trkpt lat="33.8909653" lon="8.563144"><ele>15.666666666666666</ele><time>2026-04-29T15:56:50.429Z</time></trkpt><trkpt lat="33.8910778" lon="8.5629291"><ele>15.333333333333332</ele><time>2026-04-29T15:56:51.467Z</time></trkpt><trkpt lat="33.8911907" lon="8.5627174"><ele>15.0</ele><time>2026-04-29T15:56:52.466Z</time></trkpt><trkpt lat="33.8912962" lon="8.5625041"><ele>15.0</ele><time>2026-04-29T15:56:53.441Z</time></trkpt><trkpt lat="33.891406" lon="8.5622967"><ele>15.0</ele><time>2026-04-29T15:56:54.46Z</time></trkpt><trkpt lat="33.891514" lon="8.5620849"><ele>15.0</ele><time>2026-04-29T15:56:55.459Z</time></trkpt><trkpt lat="33.891616" lon="8.561875"><ele>16.0</ele><time>2026-04-29T15:56:56.434Z</time></trkpt><trkpt lat="33.8917223" lon="8.5616656"><ele>17.0</ele><time>2026-04-29T15:56:57.435Z</time></trkpt><trkpt lat="33.8918262" lon="8.5614585"><ele>18.0</ele><time>2026-04-29T15:56:58.428Z</time></trkpt><trkpt lat="33.8919322" lon="8.5612514"><ele>15.666666666666666</ele><time>2026-04-29T15:56:59.443Z</time></trkpt><trkpt lat="33.8920349" lon="8.5610399"><ele>13.333333333333332</ele><time>2026-04-29T15:57:00.429Z</time></trkpt><trkpt lat="33.8921444" lon="8.5608291"><ele>11.0</ele><time>2026-04-29T15:57:01.426Z</time></trkpt><trkpt lat="33.8922515" lon="8.5606149"><ele>11.0</ele><time>2026-04-29T15:57:02.427Z</time></trkpt><trkpt lat="33.892359" lon="8.5604008"><ele>11.0</ele><time>2026-04-29T15:57:03.429Z</time></trkpt><trkpt lat="33.892466" lon="8.5601847"><ele>11.0</ele><time>2026-04-29T15:57:04.463Z</time></trkpt><trkpt lat="33.8925701" lon="8.559969"><ele>11.666666666666666</ele><time>2026-04-29T15:57:05.43Z</time></trkpt><trkpt lat="33.8926783" lon="8.559754"><ele>12.333333333333332</ele><time>2026-04-29T15:57:06.426Z</time></trkpt><trkpt lat="33.8927866" lon="8.5595412"><ele>13.0</ele><time>2026-04-29T15:57:07.418Z</time></trkpt><trkpt lat="33.8928966" lon="8.5593276"><ele>13.333333333333332</ele><time>2026-04-29T15:57:08.43Z</time></trkpt><trkpt lat="33.8930049" lon="8.5591199"><ele>13.666666666666668</ele><time>2026-04-29T15:57:09.419Z</time></trkpt><trkpt lat="33.8931156" lon="8.5589073"><ele>14.0</ele><time>2026-04-29T15:57:10.425Z</time></trkpt><trkpt lat="33.8932225" lon="8.5586948"><ele>13.666666666666668</ele><time>2026-04-29T15:57:11.427Z</time></trkpt><trkpt lat="33.8933328" lon="8.5584794"><ele>13.333333333333332</ele><time>2026-04-29T15:57:12.426Z</time></trkpt><trkpt lat="33.8934444" lon="8.5582653"><ele>13.0</ele><time>2026-04-29T15:57:13.426Z</time></trkpt><trkpt lat="33.8935549" lon="8.5580495"><ele>13.0</ele><time>2026-04-29T15:57:14.418Z</time></trkpt><trkpt lat="33.8936561" lon="8.5578411"><ele>13.0</ele><time>2026-04-29T15:57:15.43Z</time></trkpt><trkpt lat="33.8937628" lon="8.5576308"><ele>13.0</ele><time>2026-04-29T15:57:16.423Z</time></trkpt><trkpt lat="33.8938716" lon="8.5574219"><ele>13.0</ele><time>2026-04-29T15:57:17.429Z</time></trkpt><trkpt lat="33.8939809" lon="8.5572152"><ele>13.0</ele><time>2026-04-29T15:57:18.44Z</time></trkpt><trkpt lat="33.8940897" lon="8.5570017"><ele>13.0</ele><time>2026-04-29T15:57:19.424Z</time></trkpt><trkpt lat="33.8942009" lon="8.5567861"><ele>13.0</ele><time>2026-04-29T15:57:20.469Z</time></trkpt><trkpt lat="33.8943074" lon="8.5565716"><ele>13.0</ele><time>2026-04-29T15:57:21.431Z</time></trkpt><trkpt lat="33.894419" lon="8.5563587"><ele>13.0</ele><time>2026-04-29T15:57:22.428Z</time></trkpt><trkpt lat="33.894525" lon="8.5561469"><ele>13.0</ele><time>2026-04-29T15:57:23.429Z</time></trkpt><trkpt lat="33.8946352" lon="8.5559348"><ele>13.0</ele><time>2026-04-29T15:57:24.425Z</time></trkpt><trkpt lat="33.8947485" lon="8.5557222"><ele>13.0</ele><time>2026-04-29T15:57:25.433Z</time></trkpt><trkpt lat="33.8948546" lon="8.5555104"><ele>14.0</ele><time>2026-04-29T15:57:26.428Z</time></trkpt><trkpt lat="33.8949661" lon="8.5553021"><ele>15.0</ele><time>2026-04-29T15:57:27.424Z</time></trkpt><trkpt lat="33.8950742" lon="8.5550937"><ele>16.0</ele><time>2026-04-29T15:57:28.433Z</time></trkpt><trkpt lat="33.895184" lon="8.5548855"><ele>15.666666666666666</ele><time>2026-04-29T15:57:29.432Z</time></trkpt><trkpt lat="33.895292" lon="8.5546695"><ele>15.333333333333332</ele><time>2026-04-29T15:57:30.423Z</time></trkpt><trkpt lat="33.895398" lon="8.5544556"><ele>15.0</ele><time>2026-04-29T15:57:31.427Z</time></trkpt><trkpt lat="33.8955037" lon="8.5542438"><ele>15.0</ele><time>2026-04-29T15:57:32.459Z</time></trkpt><trkpt lat="33.8956099" lon="8.5540302"><ele>15.0</ele><time>2026-04-29T15:57:33.451Z</time></trkpt><trkpt lat="33.8957167" lon="8.5538195"><ele>15.0</ele><time>2026-04-29T15:57:34.44Z</time></trkpt><trkpt lat="33.8958244" lon="8.5536087"><ele>16.0</ele><time>2026-04-29T15:57:35.424Z</time></trkpt><trkpt lat="33.8959281" lon="8.5533987"><ele>17.0</ele><time>2026-04-29T15:57:36.431Z</time></trkpt><trkpt lat="33.896036" lon="8.5531871"><ele>18.0</ele><time>2026-04-29T15:57:37.431Z</time></trkpt><trkpt lat="33.8961415" lon="8.5529731"><ele>17.333333333333332</ele><time>2026-04-29T15:57:38.426Z</time></trkpt><trkpt lat="33.8962489" lon="8.5527633"><ele>16.666666666666664</ele><time>2026-04-29T15:57:39.442Z</time></trkpt><trkpt lat="33.8963525" lon="8.5525503"><ele>16.0</ele><time>2026-04-29T15:57:40.477Z</time></trkpt><trkpt lat="33.896461" lon="8.5523324"><ele>16.0</ele><time>2026-04-29T15:57:41.439Z</time></trkpt><trkpt lat="33.8965657" lon="8.5521138"><ele>16.0</ele><time>2026-04-29T15:57:42.429Z</time></trkpt><trkpt lat="33.8966759" lon="8.5518932"><ele>16.0</ele><time>2026-04-29T15:57:43.431Z</time></trkpt><trkpt lat="33.8967856" lon="8.5516758"><ele>15.333333333333332</ele><time>2026-04-29T15:57:44.427Z</time></trkpt><trkpt lat="33.8969001" lon="8.5514559"><ele>14.666666666666668</ele><time>2026-04-29T15:57:45.436Z</time></trkpt><trkpt lat="33.8970148" lon="8.5512388"><ele>14.0</ele><time>2026-04-29T15:57:46.433Z</time></trkpt><trkpt lat="33.897128" lon="8.551021"><ele>14.0</ele><time>2026-04-29T15:57:47.442Z</time></trkpt><trkpt lat="33.8972371" lon="8.550802"><ele>14.0</ele><time>2026-04-29T15:57:48.427Z</time></trkpt><trkpt lat="33.897348" lon="8.5505848"><ele>14.0</ele><time>2026-04-29T15:57:49.445Z</time></trkpt><trkpt lat="33.8974586" lon="8.5503752"><ele>14.0</ele><time>2026-04-29T15:57:50.431Z</time></trkpt><trkpt lat="33.8975644" lon="8.5501605"><ele>14.0</ele><time>2026-04-29T15:57:51.438Z</time></trkpt><trkpt lat="33.8976762" lon="8.5499429"><ele>14.0</ele><time>2026-04-29T15:57:52.444Z</time></trkpt><trkpt lat="33.8977939" lon="8.5497238"><ele>14.666666666666668</ele><time>2026-04-29T15:57:53.486Z</time></trkpt><trkpt lat="33.8979084" lon="8.5495034"><ele>15.333333333333332</ele><time>2026-04-29T15:57:54.433Z</time></trkpt><trkpt lat="33.8980235" lon="8.5492797"><ele>16.0</ele><time>2026-04-29T15:57:55.424Z</time></trkpt><trkpt lat="33.8981308" lon="8.5490607"><ele>16.0</ele><time>2026-04-29T15:57:56.43Z</time></trkpt><trkpt lat="33.8982392" lon="8.5488421"><ele>16.0</ele><time>2026-04-29T15:57:57.432Z</time></trkpt><trkpt lat="33.898346" lon="8.5486295"><ele>16.0</ele><time>2026-04-29T15:57:58.432Z</time></trkpt><trkpt lat="33.8984532" lon="8.5484243"><ele>15.666666666666666</ele><time>2026-04-29T15:57:59.424Z</time></trkpt><trkpt lat="33.8985644" lon="8.5482171"><ele>15.333333333333332</ele><time>2026-04-29T15:58:00.44Z</time></trkpt><trkpt lat="33.8986751" lon="8.548004"><ele>15.0</ele><time>2026-04-29T15:58:01.429Z</time></trkpt><trkpt lat="33.8987838" lon="8.5477882"><ele>15.0</ele><time>2026-04-29T15:58:02.426Z</time></trkpt><trkpt lat="33.8988872" lon="8.5475732"><ele>15.0</ele><time>2026-04-29T15:58:03.436Z</time></trkpt><trkpt lat="33.898993" lon="8.5473577"><ele>15.0</ele><time>2026-04-29T15:58:04.435Z</time></trkpt><trkpt lat="33.8991015" lon="8.5471459"><ele>15.0</ele><time>2026-04-29T15:58:05.441Z</time></trkpt><trkpt lat="33.8992141" lon="8.5469363"><ele>15.0</ele><time>2026-04-29T15:58:06.431Z</time></trkpt><trkpt lat="33.8993217" lon="8.5467271"><ele>15.0</ele><time>2026-04-29T15:58:07.44Z</time></trkpt><trkpt lat="33.8994246" lon="8.546518"><ele>15.0</ele><time>2026-04-29T15:58:08.432Z</time></trkpt><trkpt lat="33.8995306" lon="8.5463065"><ele>15.0</ele><time>2026-04-29T15:58:09.422Z</time></trkpt><trkpt lat="33.8996388" lon="8.5460834"><ele>15.0</ele><time>2026-04-29T15:58:10.439Z</time></trkpt><trkpt lat="33.8997578" lon="8.5458514"><ele>15.0</ele><time>2026-04-29T15:58:11.438Z</time></trkpt><trkpt lat="33.8998787" lon="8.5456097"><ele>15.0</ele><time>2026-04-29T15:58:12.433Z</time></trkpt><trkpt lat="33.9000078" lon="8.5453607"><ele>14.0</ele><time>2026-04-29T15:58:13.427Z</time></trkpt><trkpt lat="33.9001415" lon="8.5450961"><ele>13.0</ele><time>2026-04-29T15:58:14.424Z</time></trkpt><trkpt lat="33.9002783" lon="8.5448244"><ele>14.0</ele><time>2026-04-29T15:58:15.429Z</time></trkpt><trkpt lat="33.9004184" lon="8.5445393"><ele>15.0</ele><time>2026-04-29T15:58:16.441Z</time></trkpt><trkpt lat="33.9005611" lon="8.5442581"><ele>15.0</ele><time>2026-04-29T15:58:17.435Z</time></trkpt><trkpt lat="33.9006936" lon="8.5439876"><ele>15.0</ele><time>2026-04-29T15:58:18.43Z</time></trkpt><trkpt lat="33.9008141" lon="8.5437292"><ele>15.5</ele><time>2026-04-29T15:58:19.436Z</time></trkpt><trkpt lat="33.900937" lon="8.5434773"><ele>16.0</ele><time>2026-04-29T15:58:20.436Z</time></trkpt><trkpt lat="33.9010565" lon="8.5432317"><ele>16.0</ele><time>2026-04-29T15:58:21.435Z</time></trkpt><trkpt lat="33.90117" lon="8.5430008"><ele>16.0</ele><time>2026-04-29T15:58:22.427Z</time></trkpt><trkpt lat="33.9012825" lon="8.5427842"><ele>16.0</ele><time>2026-04-29T15:58:23.425Z</time></trkpt><trkpt lat="33.901385" lon="8.5425827"><ele>16.666666666666664</ele><time>2026-04-29T15:58:24.427Z</time></trkpt><trkpt lat="33.9014949" lon="8.5423761"><ele>17.333333333333332</ele><time>2026-04-29T15:58:25.43Z</time></trkpt><trkpt lat="33.9015994" lon="8.5421772"><ele>18.0</ele><time>2026-04-29T15:58:26.445Z</time></trkpt><trkpt lat="33.9016967" lon="8.5419781"><ele>17.333333333333332</ele><time>2026-04-29T15:58:27.432Z</time></trkpt><trkpt lat="33.9018023" lon="8.5417722"><ele>16.666666666666664</ele><time>2026-04-29T15:58:28.432Z</time></trkpt><trkpt lat="33.9019055" lon="8.5415672"><ele>16.0</ele><time>2026-04-29T15:58:29.435Z</time></trkpt><trkpt lat="33.9020134" lon="8.5413662"><ele>15.333333333333332</ele><time>2026-04-29T15:58:30.436Z</time></trkpt><trkpt lat="33.9021155" lon="8.5411578"><ele>14.666666666666668</ele><time>2026-04-29T15:58:31.43Z</time></trkpt><trkpt lat="33.9022143" lon="8.5409542"><ele>14.0</ele><time>2026-04-29T15:58:32.42Z</time></trkpt><trkpt lat="33.9023183" lon="8.5407477"><ele>14.0</ele><time>2026-04-29T15:58:33.422Z</time></trkpt><trkpt lat="33.9024333" lon="8.5405279"><ele>14.0</ele><time>2026-04-29T15:58:34.425Z</time></trkpt><trkpt lat="33.9025539" lon="8.5402904"><ele>14.0</ele><time>2026-04-29T15:58:35.432Z</time></trkpt><trkpt lat="33.9026826" lon="8.5400537"><ele>14.5</ele><time>2026-04-29T15:58:36.425Z</time></trkpt><trkpt lat="33.9028221" lon="8.5398137"><ele>15.0</ele><time>2026-04-29T15:58:37.45Z</time></trkpt><trkpt lat="33.9029463" lon="8.5395663"><ele>16.5</ele><time>2026-04-29T15:58:38.432Z</time></trkpt><trkpt lat="33.9030701" lon="8.5393223"><ele>18.0</ele><time>2026-04-29T15:58:39.43Z</time></trkpt><trkpt lat="33.9031886" lon="8.5390826"><ele>18.0</ele><time>2026-04-29T15:58:40.436Z</time></trkpt><trkpt lat="33.9033158" lon="8.5388446"><ele>18.0</ele><time>2026-04-29T15:58:41.435Z</time></trkpt><trkpt lat="33.9034379" lon="8.5386096"><ele>17.0</ele><time>2026-04-29T15:58:42.423Z</time></trkpt><trkpt lat="33.9035551" lon="8.538378"><ele>16.0</ele><time>2026-04-29T15:58:43.431Z</time></trkpt><trkpt lat="33.9036746" lon="8.5381535"><ele>15.0</ele><time>2026-04-29T15:58:44.431Z</time></trkpt><trkpt lat="33.9037977" lon="8.5379283"><ele>15.0</ele><time>2026-04-29T15:58:45.435Z</time></trkpt><trkpt lat="33.9039135" lon="8.5377014"><ele>15.0</ele><time>2026-04-29T15:58:46.422Z</time></trkpt><trkpt lat="33.9040301" lon="8.5374686"><ele>15.0</ele><time>2026-04-29T15:58:47.43Z</time></trkpt><trkpt lat="33.9041453" lon="8.5372415"><ele>15.0</ele><time>2026-04-29T15:58:48.432Z</time></trkpt><trkpt lat="33.9042675" lon="8.537013"><ele>15.0</ele><time>2026-04-29T15:58:49.433Z</time></trkpt><trkpt lat="33.9043848" lon="8.5367813"><ele>15.0</ele><time>2026-04-29T15:58:50.431Z</time></trkpt><trkpt lat="33.9045017" lon="8.5365536"><ele>15.0</ele><time>2026-04-29T15:58:51.433Z</time></trkpt><trkpt lat="33.9046221" lon="8.536323"><ele>15.0</ele><time>2026-04-29T15:58:52.433Z</time></trkpt><trkpt lat="33.9047414" lon="8.5360917"><ele>15.5</ele><time>2026-04-29T15:58:53.435Z</time></trkpt><trkpt lat="33.904866" lon="8.5358633"><ele>16.0</ele><time>2026-04-29T15:58:54.437Z</time></trkpt><trkpt lat="33.9049831" lon="8.5356326"><ele>16.0</ele><time>2026-04-29T15:58:55.464Z</time></trkpt><trkpt lat="33.9050963" lon="8.5354026"><ele>16.0</ele><time>2026-04-29T15:58:56.431Z</time></trkpt><trkpt lat="33.9052092" lon="8.5351779"><ele>16.0</ele><time>2026-04-29T15:58:57.434Z</time></trkpt><trkpt lat="33.9053214" lon="8.5349511"><ele>15.666666666666666</ele><time>2026-04-29T15:58:58.431Z</time></trkpt><trkpt lat="33.905433" lon="8.5347242"><ele>15.333333333333332</ele><time>2026-04-29T15:58:59.434Z</time></trkpt><trkpt lat="33.9055462" lon="8.5344983"><ele>15.0</ele><time>2026-04-29T15:59:00.442Z</time></trkpt><trkpt lat="33.9056609" lon="8.534271"><ele>15.333333333333332</ele><time>2026-04-29T15:59:01.436Z</time></trkpt><trkpt lat="33.9057741" lon="8.5340453"><ele>15.666666666666666</ele><time>2026-04-29T15:59:02.431Z</time></trkpt><trkpt lat="33.90589" lon="8.5338238"><ele>16.0</ele><time>2026-04-29T15:59:03.434Z</time></trkpt><trkpt lat="33.9060077" lon="8.5336027"><ele>16.0</ele><time>2026-04-29T15:59:04.423Z</time></trkpt><trkpt lat="33.9061198" lon="8.5333789"><ele>16.0</ele><time>2026-04-29T15:59:05.441Z</time></trkpt><trkpt lat="33.9062293" lon="8.5331584"><ele>16.0</ele><time>2026-04-29T15:59:06.437Z</time></trkpt><trkpt lat="33.9063334" lon="8.5329331"><ele>15.666666666666666</ele><time>2026-04-29T15:59:07.43Z</time></trkpt><trkpt lat="33.9064404" lon="8.5327107"><ele>15.333333333333332</ele><time>2026-04-29T15:59:08.437Z</time></trkpt><trkpt lat="33.906542" lon="8.5324843"><ele>15.0</ele><time>2026-04-29T15:59:09.437Z</time></trkpt><trkpt lat="33.9066426" lon="8.5322582"><ele>15.333333333333332</ele><time>2026-04-29T15:59:10.427Z</time></trkpt><trkpt lat="33.9067404" lon="8.5320306"><ele>15.666666666666666</ele><time>2026-04-29T15:59:11.434Z</time></trkpt><trkpt lat="33.9068405" lon="8.5318038"><ele>16.0</ele><time>2026-04-29T15:59:12.457Z</time></trkpt><trkpt lat="33.9069389" lon="8.5315724"><ele>16.333333333333332</ele><time>2026-04-29T15:59:13.429Z</time></trkpt><trkpt lat="33.9070344" lon="8.5313444"><ele>16.666666666666668</ele><time>2026-04-29T15:59:14.433Z</time></trkpt><trkpt lat="33.9071312" lon="8.5311266"><ele>17.0</ele><time>2026-04-29T15:59:15.431Z</time></trkpt><trkpt lat="33.9072256" lon="8.5309011"><ele>17.0</ele><time>2026-04-29T15:59:16.433Z</time></trkpt><trkpt lat="33.9073213" lon="8.5306768"><ele>17.0</ele><time>2026-04-29T15:59:17.422Z</time></trkpt><trkpt lat="33.9074181" lon="8.5304449"><ele>17.0</ele><time>2026-04-29T15:59:18.433Z</time></trkpt><trkpt lat="33.9075147" lon="8.5302189"><ele>16.666666666666668</ele><time>2026-04-29T15:59:19.432Z</time></trkpt><trkpt lat="33.9076105" lon="8.52999"><ele>16.333333333333332</ele><time>2026-04-29T15:59:20.424Z</time></trkpt><trkpt lat="33.9077051" lon="8.529762"><ele>16.0</ele><time>2026-04-29T15:59:21.434Z</time></trkpt><trkpt lat="33.9077991" lon="8.5295362"><ele>15.666666666666666</ele><time>2026-04-29T15:59:22.428Z</time></trkpt><trkpt lat="33.9078895" lon="8.5293096"><ele>15.333333333333332</ele><time>2026-04-29T15:59:23.43Z</time></trkpt><trkpt lat="33.9079841" lon="8.5290803"><ele>15.0</ele><time>2026-04-29T15:59:24.423Z</time></trkpt><trkpt lat="33.9080789" lon="8.5288565"><ele>15.333333333333332</ele><time>2026-04-29T15:59:25.43Z</time></trkpt><trkpt lat="33.9081731" lon="8.5286379"><ele>15.666666666666666</ele><time>2026-04-29T15:59:26.464Z</time></trkpt><trkpt lat="33.908269" lon="8.5284146"><ele>16.0</ele><time>2026-04-29T15:59:27.436Z</time></trkpt><trkpt lat="33.9083632" lon="8.528195"><ele>15.666666666666666</ele><time>2026-04-29T15:59:28.432Z</time></trkpt><trkpt lat="33.9084535" lon="8.5279717"><ele>15.333333333333332</ele><time>2026-04-29T15:59:29.428Z</time></trkpt><trkpt lat="33.9085435" lon="8.5277456"><ele>15.0</ele><time>2026-04-29T15:59:30.424Z</time></trkpt><trkpt lat="33.9086334" lon="8.5275277"><ele>15.0</ele><time>2026-04-29T15:59:31.432Z</time></trkpt><trkpt lat="33.9087222" lon="8.5273113"><ele>15.0</ele><time>2026-04-29T15:59:32.428Z</time></trkpt><trkpt lat="33.9088147" lon="8.5270936"><ele>15.0</ele><time>2026-04-29T15:59:33.431Z</time></trkpt><trkpt lat="33.9089072" lon="8.5268741"><ele>15.0</ele><time>2026-04-29T15:59:34.431Z</time></trkpt><trkpt lat="33.9089928" lon="8.5266669"><ele>15.0</ele><time>2026-04-29T15:59:35.432Z</time></trkpt><trkpt lat="33.909079" lon="8.5264605"><ele>15.0</ele><time>2026-04-29T15:59:36.436Z</time></trkpt><trkpt lat="33.9091598" lon="8.5262536"><ele>15.0</ele><time>2026-04-29T15:59:37.435Z</time></trkpt><trkpt lat="33.9092393" lon="8.5260518"><ele>15.0</ele><time>2026-04-29T15:59:38.426Z</time></trkpt><trkpt lat="33.909322" lon="8.5258569"><ele>15.0</ele><time>2026-04-29T15:59:39.438Z</time></trkpt><trkpt lat="33.9094076" lon="8.5256675"><ele>15.0</ele><time>2026-04-29T15:59:40.449Z</time></trkpt><trkpt lat="33.9094921" lon="8.5254739"><ele>15.0</ele><time>2026-04-29T15:59:41.429Z</time></trkpt><trkpt lat="33.909577" lon="8.5252856"><ele>15.0</ele><time>2026-04-29T15:59:42.432Z</time></trkpt><trkpt lat="33.90966" lon="8.5250941"><ele>14.75</ele><time>2026-04-29T15:59:43.432Z</time></trkpt><trkpt lat="33.9097307" lon="8.5249253"><ele>14.5</ele><time>2026-04-29T15:59:44.436Z</time></trkpt><trkpt lat="33.9097867" lon="8.52478"><ele>14.25</ele><time>2026-04-29T15:59:45.437Z</time></trkpt><trkpt lat="33.9098429" lon="8.5246405"><ele>14.0</ele><time>2026-04-29T15:59:46.439Z</time></trkpt><trkpt lat="33.9098965" lon="8.5245107"><ele>14.0</ele><time>2026-04-29T15:59:47.443Z</time></trkpt><trkpt lat="33.909946" lon="8.5243845"><ele>13.999999999999998</ele><time>2026-04-29T15:59:48.435Z</time></trkpt><trkpt lat="33.9099945" lon="8.5242585"><ele>13.999999999999998</ele><time>2026-04-29T15:59:49.439Z</time></trkpt><trkpt lat="33.9100436" lon="8.5241433"><ele>14.0</ele><time>2026-04-29T15:59:50.426Z</time></trkpt><trkpt lat="33.9100925" lon="8.5240241"><ele>14.0</ele><time>2026-04-29T15:59:51.439Z</time></trkpt><trkpt lat="33.9101498" lon="8.5238939"><ele>14.0</ele><time>2026-04-29T15:59:52.424Z</time></trkpt><trkpt lat="33.910207" lon="8.5237624"><ele>14.0</ele><time>2026-04-29T15:59:53.44Z</time></trkpt><trkpt lat="33.9102603" lon="8.5236324"><ele>14.0</ele><time>2026-04-29T15:59:54.431Z</time></trkpt><trkpt lat="33.9103228" lon="8.5234968"><ele>14.0</ele><time>2026-04-29T15:59:55.429Z</time></trkpt><trkpt lat="33.9103821" lon="8.5233603"><ele>14.0</ele><time>2026-04-29T15:59:56.431Z</time></trkpt><trkpt lat="33.9104405" lon="8.5232246"><ele>14.0</ele><time>2026-04-29T15:59:57.439Z</time></trkpt><trkpt lat="33.910505" lon="8.5230828"><ele>14.0</ele><time>2026-04-29T15:59:58.435Z</time></trkpt><trkpt lat="33.9105673" lon="8.5229394"><ele>14.0</ele><time>2026-04-29T15:59:59.444Z</time></trkpt><trkpt lat="33.9106267" lon="8.5227885"><ele>14.0</ele><time>2026-04-29T16:00:00.441Z</time></trkpt><trkpt lat="33.9106849" lon="8.5226463"><ele>14.0</ele><time>2026-04-29T16:00:01.43Z</time></trkpt><trkpt lat="33.9107476" lon="8.5225013"><ele>14.0</ele><time>2026-04-29T16:00:02.441Z</time></trkpt><trkpt lat="33.9108052" lon="8.5223518"><ele>14.0</ele><time>2026-04-29T16:00:03.428Z</time></trkpt><trkpt lat="33.9108703" lon="8.5222051"><ele>14.5</ele><time>2026-04-29T16:00:04.438Z</time></trkpt><trkpt lat="33.9109302" lon="8.5220701"><ele>15.0</ele><time>2026-04-29T16:00:05.431Z</time></trkpt><trkpt lat="33.9109889" lon="8.521937"><ele>15.5</ele><time>2026-04-29T16:00:06.428Z</time></trkpt><trkpt lat="33.9110445" lon="8.521805"><ele>16.0</ele><time>2026-04-29T16:00:07.431Z</time></trkpt><trkpt lat="33.9110983" lon="8.5216714"><ele>16.0</ele><time>2026-04-29T16:00:08.438Z</time></trkpt><trkpt lat="33.9111519" lon="8.5215414"><ele>16.0</ele><time>2026-04-29T16:00:09.426Z</time></trkpt><trkpt lat="33.9112075" lon="8.5214177"><ele>16.0</ele><time>2026-04-29T16:00:10.432Z</time></trkpt><trkpt lat="33.9112609" lon="8.5212925"><ele>16.0</ele><time>2026-04-29T16:00:11.423Z</time></trkpt><trkpt lat="33.911314" lon="8.5211675"><ele>15.5</ele><time>2026-04-29T16:00:12.437Z</time></trkpt><trkpt lat="33.9113635" lon="8.5210434"><ele>15.0</ele><time>2026-04-29T16:00:13.427Z</time></trkpt><trkpt lat="33.9114124" lon="8.5209216"><ele>14.5</ele><time>2026-04-29T16:00:14.426Z</time></trkpt><trkpt lat="33.9114673" lon="8.5207982"><ele>14.0</ele><time>2026-04-29T16:00:15.431Z</time></trkpt><trkpt lat="33.9115248" lon="8.5206697"><ele>14.0</ele><time>2026-04-29T16:00:16.438Z</time></trkpt><trkpt lat="33.9115811" lon="8.5205378"><ele>14.0</ele><time>2026-04-29T16:00:17.437Z</time></trkpt><trkpt lat="33.9116359" lon="8.5204035"><ele>14.0</ele><time>2026-04-29T16:00:18.431Z</time></trkpt><trkpt lat="33.9116892" lon="8.520271"><ele>14.0</ele><time>2026-04-29T16:00:19.439Z</time></trkpt><trkpt lat="33.9117466" lon="8.5201394"><ele>14.799999999999999</ele><time>2026-04-29T16:00:20.43Z</time></trkpt><trkpt lat="33.911794" lon="8.5200141"><ele>15.599999999999998</ele><time>2026-04-29T16:00:21.426Z</time></trkpt><trkpt lat="33.9118463" lon="8.5198972"><ele>16.4</ele><time>2026-04-29T16:00:22.433Z</time></trkpt><trkpt lat="33.9118943" lon="8.5197804"><ele>17.2</ele><time>2026-04-29T16:00:23.435Z</time></trkpt><trkpt lat="33.9119442" lon="8.5196701"><ele>18.0</ele><time>2026-04-29T16:00:24.42Z</time></trkpt><trkpt lat="33.9119876" lon="8.5195688"><ele>18.2</ele><time>2026-04-29T16:00:25.44Z</time></trkpt><trkpt lat="33.9120294" lon="8.5194691"><ele>18.4</ele><time>2026-04-29T16:00:26.432Z</time></trkpt><trkpt lat="33.9120722" lon="8.5193686"><ele>18.599999999999998</ele><time>2026-04-29T16:00:27.429Z</time></trkpt><trkpt lat="33.9121076" lon="8.519268"><ele>18.8</ele><time>2026-04-29T16:00:28.429Z</time></trkpt><trkpt lat="33.9121529" lon="8.5191644"><ele>19.0</ele><time>2026-04-29T16:00:29.431Z</time></trkpt><trkpt lat="33.9121972" lon="8.5190578"><ele>19.0</ele><time>2026-04-29T16:00:30.427Z</time></trkpt><trkpt lat="33.9122406" lon="8.5189595"><ele>19.0</ele><time>2026-04-29T16:00:31.451Z</time></trkpt><trkpt lat="33.9122838" lon="8.5188549"><ele>19.0</ele><time>2026-04-29T16:00:32.438Z</time></trkpt><trkpt lat="33.9123327" lon="8.5187461"><ele>19.0</ele><time>2026-04-29T16:00:33.435Z</time></trkpt><trkpt lat="33.9123841" lon="8.518629"><ele>19.0</ele><time>2026-04-29T16:00:34.421Z</time></trkpt><trkpt lat="33.9124369" lon="8.5185078"><ele>18.5</ele><time>2026-04-29T16:00:35.436Z</time></trkpt><trkpt lat="33.9124903" lon="8.5183812"><ele>18.0</ele><time>2026-04-29T16:00:36.439Z</time></trkpt><trkpt lat="33.9125461" lon="8.5182549"><ele>17.5</ele><time>2026-04-29T16:00:37.432Z</time></trkpt><trkpt lat="33.9126036" lon="8.5181168"><ele>17.0</ele><time>2026-04-29T16:00:38.428Z</time></trkpt><trkpt lat="33.912664" lon="8.5179798"><ele>16.5</ele><time>2026-04-29T16:00:39.434Z</time></trkpt><trkpt lat="33.9127251" lon="8.5178384"><ele>16.0</ele><time>2026-04-29T16:00:40.452Z</time></trkpt><trkpt lat="33.9127854" lon="8.517696"><ele>15.5</ele><time>2026-04-29T16:00:41.434Z</time></trkpt><trkpt lat="33.9128439" lon="8.5175571"><ele>15.0</ele><time>2026-04-29T16:00:42.429Z</time></trkpt><trkpt lat="33.912902" lon="8.5174223"><ele>15.0</ele><time>2026-04-29T16:00:43.42Z</time></trkpt><trkpt lat="33.9129576" lon="8.5172956"><ele>15.0</ele><time>2026-04-29T16:00:44.427Z</time></trkpt><trkpt lat="33.9130091" lon="8.5171725"><ele>15.0</ele><time>2026-04-29T16:00:45.452Z</time></trkpt><trkpt lat="33.913059" lon="8.5170552"><ele>15.0</ele><time>2026-04-29T16:00:46.429Z</time></trkpt><trkpt lat="33.9131105" lon="8.5169383"><ele>14.75</ele><time>2026-04-29T16:00:47.434Z</time></trkpt><trkpt lat="33.9131617" lon="8.5168148"><ele>14.5</ele><time>2026-04-29T16:00:48.43Z</time></trkpt><trkpt lat="33.9132132" lon="8.5166896"><ele>14.25</ele><time>2026-04-29T16:00:49.437Z</time></trkpt><trkpt lat="33.9132648" lon="8.5165633"><ele>14.0</ele><time>2026-04-29T16:00:50.429Z</time></trkpt><trkpt lat="33.9133165" lon="8.5164392"><ele>14.0</ele><time>2026-04-29T16:00:51.429Z</time></trkpt><trkpt lat="33.9133683" lon="8.516313"><ele>14.0</ele><time>2026-04-29T16:00:52.436Z</time></trkpt><trkpt lat="33.9134205" lon="8.5161864"><ele>14.0</ele><time>2026-04-29T16:00:53.428Z</time></trkpt><trkpt lat="33.9134733" lon="8.5160539"><ele>14.0</ele><time>2026-04-29T16:00:54.429Z</time></trkpt><trkpt lat="33.9135281" lon="8.5159201"><ele>14.5</ele><time>2026-04-29T16:00:55.432Z</time></trkpt><trkpt lat="33.9135825" lon="8.5157859"><ele>15.0</ele><time>2026-04-29T16:00:56.433Z</time></trkpt><trkpt lat="33.9136355" lon="8.5156566"><ele>15.5</ele><time>2026-04-29T16:00:57.436Z</time></trkpt><trkpt lat="33.9136875" lon="8.5155196"><ele>16.0</ele><time>2026-04-29T16:00:58.438Z</time></trkpt><trkpt lat="33.9137441" lon="8.5153773"><ele>16.25</ele><time>2026-04-29T16:00:59.454Z</time></trkpt><trkpt lat="33.9138002" lon="8.5152427"><ele>16.5</ele><time>2026-04-29T16:01:00.439Z</time></trkpt><trkpt lat="33.9138575" lon="8.5151072"><ele>16.75</ele><time>2026-04-29T16:01:01.443Z</time></trkpt><trkpt lat="33.9139157" lon="8.5149759"><ele>17.0</ele><time>2026-04-29T16:01:02.5Z</time></trkpt><trkpt lat="33.9139696" lon="8.5148465"><ele>17.0</ele><time>2026-04-29T16:01:03.45Z</time></trkpt><trkpt lat="33.9140158" lon="8.5147243"><ele>17.0</ele><time>2026-04-29T16:01:04.467Z</time></trkpt><trkpt lat="33.9140689" lon="8.5145997"><ele>17.0</ele><time>2026-04-29T16:01:05.423Z</time></trkpt><trkpt lat="33.914128" lon="8.5144779"><ele>17.0</ele><time>2026-04-29T16:01:06.423Z</time></trkpt><trkpt lat="33.9141878" lon="8.514353"><ele>16.5</ele><time>2026-04-29T16:01:07.471Z</time></trkpt><trkpt lat="33.9142446" lon="8.5142293"><ele>16.0</ele><time>2026-04-29T16:01:08.478Z</time></trkpt><trkpt lat="33.9143077" lon="8.514111"><ele>15.5</ele><time>2026-04-29T16:01:09.472Z</time></trkpt><trkpt lat="33.9143653" lon="8.5139851"><ele>15.0</ele><time>2026-04-29T16:01:10.456Z</time></trkpt><trkpt lat="33.9144245" lon="8.5138697"><ele>15.25</ele><time>2026-04-29T16:01:11.477Z</time></trkpt><trkpt lat="33.9144854" lon="8.513736"><ele>15.5</ele><time>2026-04-29T16:01:12.478Z</time></trkpt><trkpt lat="33.9145507" lon="8.5136042"><ele>15.75</ele><time>2026-04-29T16:01:13.45Z</time></trkpt><trkpt lat="33.9146202" lon="8.5134788"><ele>16.0</ele><time>2026-04-29T16:01:14.473Z</time></trkpt><trkpt lat="33.9146865" lon="8.5133507"><ele>16.0</ele><time>2026-04-29T16:01:15.477Z</time></trkpt><trkpt lat="33.9147568" lon="8.5132199"><ele>16.0</ele><time>2026-04-29T16:01:16.478Z</time></trkpt><trkpt lat="33.9148214" lon="8.513088"><ele>16.0</ele><time>2026-04-29T16:01:17.476Z</time></trkpt><trkpt lat="33.9148922" lon="8.5129628"><ele>16.0</ele><time>2026-04-29T16:01:18.47Z</time></trkpt><trkpt lat="33.9149689" lon="8.5128295"><ele>15.666666666666666</ele><time>2026-04-29T16:01:19.452Z</time></trkpt><trkpt lat="33.9150486" lon="8.5126894"><ele>15.333333333333332</ele><time>2026-04-29T16:01:20.47Z</time></trkpt><trkpt lat="33.9151338" lon="8.5125296"><ele>15.0</ele><time>2026-04-29T16:01:21.48Z</time></trkpt><trkpt lat="33.9152446" lon="8.5123179"><ele>15.0</ele><time>2026-04-29T16:01:22.479Z</time></trkpt><trkpt lat="33.9153934" lon="8.5120654"><ele>15.0</ele><time>2026-04-29T16:01:23.47Z</time></trkpt><trkpt lat="33.9155438" lon="8.5117802"><ele>15.0</ele><time>2026-04-29T16:01:24.481Z</time></trkpt><trkpt lat="33.915701" lon="8.5114703"><ele>15.0</ele><time>2026-04-29T16:01:25.469Z</time></trkpt><trkpt lat="33.9158668" lon="8.5111599"><ele>14.5</ele><time>2026-04-29T16:01:26.485Z</time></trkpt><trkpt lat="33.9160207" lon="8.5108613"><ele>14.0</ele><time>2026-04-29T16:01:27.451Z</time></trkpt><trkpt lat="33.9161525" lon="8.5105785"><ele>14.0</ele><time>2026-04-29T16:01:28.476Z</time></trkpt><trkpt lat="33.9162721" lon="8.5103055"><ele>14.0</ele><time>2026-04-29T16:01:29.48Z</time></trkpt><trkpt lat="33.9163831" lon="8.5100567"><ele>14.0</ele><time>2026-04-29T16:01:30.469Z</time></trkpt><trkpt lat="33.9164767" lon="8.5098232"><ele>14.0</ele><time>2026-04-29T16:01:31.483Z</time></trkpt><trkpt lat="33.9165648" lon="8.5096057"><ele>14.0</ele><time>2026-04-29T16:01:32.473Z</time></trkpt><trkpt lat="33.9166465" lon="8.5094067"><ele>14.666666666666668</ele><time>2026-04-29T16:01:33.451Z</time></trkpt><trkpt lat="33.9167293" lon="8.5092198"><ele>15.333333333333332</ele><time>2026-04-29T16:01:34.48Z</time></trkpt><trkpt lat="33.9168074" lon="8.509037"><ele>16.0</ele><time>2026-04-29T16:01:35.483Z</time></trkpt><trkpt lat="33.9168821" lon="8.5088669"><ele>16.0</ele><time>2026-04-29T16:01:36.447Z</time></trkpt><trkpt lat="33.9169549" lon="8.5086904"><ele>16.0</ele><time>2026-04-29T16:01:37.447Z</time></trkpt><trkpt lat="33.9170313" lon="8.5085133"><ele>16.0</ele><time>2026-04-29T16:01:38.466Z</time></trkpt><trkpt lat="33.9171026" lon="8.508348"><ele>16.0</ele><time>2026-04-29T16:01:39.472Z</time></trkpt><trkpt lat="33.9171784" lon="8.5081756"><ele>16.0</ele><time>2026-04-29T16:01:40.442Z</time></trkpt><trkpt lat="33.9172558" lon="8.5079947"><ele>16.0</ele><time>2026-04-29T16:01:41.477Z</time></trkpt><trkpt lat="33.9173303" lon="8.5078085"><ele>15.333333333333332</ele><time>2026-04-29T16:01:42.473Z</time></trkpt><trkpt lat="33.9173986" lon="8.507616"><ele>14.666666666666668</ele><time>2026-04-29T16:01:43.473Z</time></trkpt><trkpt lat="33.9174736" lon="8.5074202"><ele>14.0</ele><time>2026-04-29T16:01:44.468Z</time></trkpt><trkpt lat="33.9175422" lon="8.5072331"><ele>14.333333333333334</ele><time>2026-04-29T16:01:45.487Z</time></trkpt><trkpt lat="33.9176039" lon="8.5070445"><ele>14.666666666666668</ele><time>2026-04-29T16:01:46.465Z</time></trkpt><trkpt lat="33.9176662" lon="8.5068555"><ele>15.0</ele><time>2026-04-29T16:01:47.478Z</time></trkpt><trkpt lat="33.9177228" lon="8.5066691"><ele>15.0</ele><time>2026-04-29T16:01:48.458Z</time></trkpt><trkpt lat="33.9177807" lon="8.5064799"><ele>15.0</ele><time>2026-04-29T16:01:49.471Z</time></trkpt><trkpt lat="33.9178381" lon="8.506292"><ele>15.0</ele><time>2026-04-29T16:01:50.48Z</time></trkpt><trkpt lat="33.9178955" lon="8.5060958"><ele>14.333333333333332</ele><time>2026-04-29T16:01:51.462Z</time></trkpt><trkpt lat="33.9179533" lon="8.5059078"><ele>13.666666666666666</ele><time>2026-04-29T16:01:52.42Z</time></trkpt><trkpt lat="33.9180124" lon="8.5057211"><ele>13.0</ele><time>2026-04-29T16:01:53.426Z</time></trkpt><trkpt lat="33.9180682" lon="8.5055358"><ele>13.666666666666666</ele><time>2026-04-29T16:01:54.476Z</time></trkpt><trkpt lat="33.9181301" lon="8.5053516"><ele>14.333333333333332</ele><time>2026-04-29T16:01:55.464Z</time></trkpt><trkpt lat="33.9181921" lon="8.5051699"><ele>15.0</ele><time>2026-04-29T16:01:56.466Z</time></trkpt><trkpt lat="33.9182515" lon="8.5049821"><ele>15.0</ele><time>2026-04-29T16:01:57.447Z</time></trkpt><trkpt lat="33.9183121" lon="8.5047934"><ele>15.0</ele><time>2026-04-29T16:01:58.427Z</time></trkpt><trkpt lat="33.9183682" lon="8.5046068"><ele>15.0</ele><time>2026-04-29T16:01:59.457Z</time></trkpt><trkpt lat="33.9184271" lon="8.5044156"><ele>15.0</ele><time>2026-04-29T16:02:00.48Z</time></trkpt><trkpt lat="33.9184864" lon="8.5042308"><ele>15.0</ele><time>2026-04-29T16:02:01.474Z</time></trkpt><trkpt lat="33.9185498" lon="8.504045"><ele>15.0</ele><time>2026-04-29T16:02:02.471Z</time></trkpt><trkpt lat="33.9186149" lon="8.5038589"><ele>14.666666666666668</ele><time>2026-04-29T16:02:03.465Z</time></trkpt><trkpt lat="33.9186855" lon="8.5036693"><ele>14.333333333333334</ele><time>2026-04-29T16:02:04.46Z</time></trkpt><trkpt lat="33.9187638" lon="8.5034728"><ele>14.0</ele><time>2026-04-29T16:02:05.455Z</time></trkpt><trkpt lat="33.918839" lon="8.5032775"><ele>14.0</ele><time>2026-04-29T16:02:06.483Z</time></trkpt><trkpt lat="33.9189182" lon="8.5030798"><ele>14.0</ele><time>2026-04-29T16:02:07.488Z</time></trkpt><trkpt lat="33.9190013" lon="8.5028809"><ele>14.0</ele><time>2026-04-29T16:02:08.496Z</time></trkpt><trkpt lat="33.9190883" lon="8.502684"><ele>14.333333333333334</ele><time>2026-04-29T16:02:09.443Z</time></trkpt><trkpt lat="33.9191756" lon="8.5024876"><ele>14.666666666666668</ele><time>2026-04-29T16:02:10.454Z</time></trkpt><trkpt lat="33.9192577" lon="8.5022873"><ele>15.0</ele><time>2026-04-29T16:02:11.466Z</time></trkpt><trkpt lat="33.9193344" lon="8.5020905"><ele>14.666666666666668</ele><time>2026-04-29T16:02:12.457Z</time></trkpt><trkpt lat="33.919413" lon="8.5018919"><ele>14.333333333333334</ele><time>2026-04-29T16:02:13.488Z</time></trkpt><trkpt lat="33.9194957" lon="8.5016842"><ele>14.0</ele><time>2026-04-29T16:02:14.471Z</time></trkpt><trkpt lat="33.9195855" lon="8.5014791"><ele>14.0</ele><time>2026-04-29T16:02:15.476Z</time></trkpt><trkpt lat="33.919675" lon="8.5012708"><ele>14.0</ele><time>2026-04-29T16:02:16.435Z</time></trkpt><trkpt lat="33.9197616" lon="8.5010651"><ele>14.0</ele><time>2026-04-29T16:02:17.468Z</time></trkpt><trkpt lat="33.9198537" lon="8.5008544"><ele>14.0</ele><time>2026-04-29T16:02:18.453Z</time></trkpt><trkpt lat="33.9199431" lon="8.5006407"><ele>14.0</ele><time>2026-04-29T16:02:19.429Z</time></trkpt><trkpt lat="33.9200326" lon="8.5004331"><ele>14.0</ele><time>2026-04-29T16:02:20.459Z</time></trkpt><trkpt lat="33.9201186" lon="8.5002202"><ele>13.666666666666668</ele><time>2026-04-29T16:02:21.469Z</time></trkpt><trkpt lat="33.9202061" lon="8.5000108"><ele>13.333333333333332</ele><time>2026-04-29T16:02:22.46Z</time></trkpt><trkpt lat="33.9202949" lon="8.4997985"><ele>13.0</ele><time>2026-04-29T16:02:23.467Z</time></trkpt><trkpt lat="33.9203832" lon="8.499585"><ele>13.666666666666666</ele><time>2026-04-29T16:02:24.473Z</time></trkpt><trkpt lat="33.920474" lon="8.4993711"><ele>14.333333333333332</ele><time>2026-04-29T16:02:25.43Z</time></trkpt><trkpt lat="33.9205634" lon="8.4991513"><ele>15.0</ele><time>2026-04-29T16:02:26.452Z</time></trkpt><trkpt lat="33.9206523" lon="8.4989411"><ele>14.333333333333332</ele><time>2026-04-29T16:02:27.471Z</time></trkpt><trkpt lat="33.9207411" lon="8.4987264"><ele>13.666666666666666</ele><time>2026-04-29T16:02:28.472Z</time></trkpt><trkpt lat="33.9208307" lon="8.4985156"><ele>13.0</ele><time>2026-04-29T16:02:29.431Z</time></trkpt><trkpt lat="33.9209196" lon="8.4983031"><ele>13.0</ele><time>2026-04-29T16:02:30.473Z</time></trkpt><trkpt lat="33.9210087" lon="8.4980891"><ele>13.0</ele><time>2026-04-29T16:02:31.458Z</time></trkpt><trkpt lat="33.921102" lon="8.4978805"><ele>13.0</ele><time>2026-04-29T16:02:32.471Z</time></trkpt><trkpt lat="33.9211935" lon="8.4976665"><ele>13.666666666666666</ele><time>2026-04-29T16:02:33.47Z</time></trkpt><trkpt lat="33.921281" lon="8.4974466"><ele>14.333333333333332</ele><time>2026-04-29T16:02:34.468Z</time></trkpt><trkpt lat="33.9213688" lon="8.4972278"><ele>15.0</ele><time>2026-04-29T16:02:35.46Z</time></trkpt><trkpt lat="33.9214553" lon="8.4970129"><ele>15.333333333333332</ele><time>2026-04-29T16:02:36.468Z</time></trkpt><trkpt lat="33.9215453" lon="8.4967995"><ele>15.666666666666666</ele><time>2026-04-29T16:02:37.47Z</time></trkpt><trkpt lat="33.9216384" lon="8.496585"><ele>16.0</ele><time>2026-04-29T16:02:38.456Z</time></trkpt><trkpt lat="33.9217268" lon="8.4963677"><ele>16.0</ele><time>2026-04-29T16:02:39.468Z</time></trkpt><trkpt lat="33.9218175" lon="8.4961539"><ele>16.0</ele><time>2026-04-29T16:02:40.488Z</time></trkpt><trkpt lat="33.9219111" lon="8.495939"><ele>16.0</ele><time>2026-04-29T16:02:41.469Z</time></trkpt><trkpt lat="33.9220001" lon="8.4957255"><ele>16.0</ele><time>2026-04-29T16:02:42.438Z</time></trkpt><trkpt lat="33.9220867" lon="8.4955094"><ele>16.0</ele><time>2026-04-29T16:02:43.447Z</time></trkpt><trkpt lat="33.9221751" lon="8.495297"><ele>16.0</ele><time>2026-04-29T16:02:44.465Z</time></trkpt><trkpt lat="33.922264" lon="8.4950798"><ele>15.666666666666666</ele><time>2026-04-29T16:02:45.437Z</time></trkpt><trkpt lat="33.9223537" lon="8.4948652"><ele>15.333333333333332</ele><time>2026-04-29T16:02:46.447Z</time></trkpt><trkpt lat="33.9224469" lon="8.4946502"><ele>15.0</ele><time>2026-04-29T16:02:47.46Z</time></trkpt><trkpt lat="33.9225363" lon="8.4944333"><ele>14.666666666666668</ele><time>2026-04-29T16:02:48.483Z</time></trkpt><trkpt lat="33.9226254" lon="8.4942204"><ele>14.333333333333334</ele><time>2026-04-29T16:02:49.466Z</time></trkpt><trkpt lat="33.9227142" lon="8.4940049"><ele>14.0</ele><time>2026-04-29T16:02:50.454Z</time></trkpt><trkpt lat="33.9228009" lon="8.4937929"><ele>13.666666666666668</ele><time>2026-04-29T16:02:51.451Z</time></trkpt><trkpt lat="33.9228903" lon="8.4935805"><ele>13.333333333333332</ele><time>2026-04-29T16:02:52.464Z</time></trkpt><trkpt lat="33.9229821" lon="8.4933688"><ele>13.0</ele><time>2026-04-29T16:02:53.459Z</time></trkpt><trkpt lat="33.9230728" lon="8.4931568"><ele>13.0</ele><time>2026-04-29T16:02:54.469Z</time></trkpt><trkpt lat="33.9231615" lon="8.4929425"><ele>13.0</ele><time>2026-04-29T16:02:55.487Z</time></trkpt><trkpt lat="33.9232537" lon="8.4927286"><ele>13.0</ele><time>2026-04-29T16:02:56.495Z</time></trkpt><trkpt lat="33.9233424" lon="8.4925187"><ele>13.666666666666666</ele><time>2026-04-29T16:02:57.475Z</time></trkpt><trkpt lat="33.9234299" lon="8.4923043"><ele>14.333333333333332</ele><time>2026-04-29T16:02:58.474Z</time></trkpt><trkpt lat="33.9235184" lon="8.4920863"><ele>15.0</ele><time>2026-04-29T16:02:59.453Z</time></trkpt><trkpt lat="33.9236105" lon="8.4918712"><ele>15.0</ele><time>2026-04-29T16:03:00.425Z</time></trkpt><trkpt lat="33.9237027" lon="8.4916557"><ele>15.0</ele><time>2026-04-29T16:03:01.44Z</time></trkpt><trkpt lat="33.9237931" lon="8.4914428"><ele>15.0</ele><time>2026-04-29T16:03:02.468Z</time></trkpt><trkpt lat="33.9238838" lon="8.4912304"><ele>14.333333333333332</ele><time>2026-04-29T16:03:03.472Z</time></trkpt><trkpt lat="33.9239761" lon="8.4910196"><ele>13.666666666666666</ele><time>2026-04-29T16:03:04.439Z</time></trkpt><trkpt lat="33.9240657" lon="8.4908052"><ele>13.0</ele><time>2026-04-29T16:03:05.425Z</time></trkpt><trkpt lat="33.9241567" lon="8.4905896"><ele>14.333333333333332</ele><time>2026-04-29T16:03:06.456Z</time></trkpt><trkpt lat="33.9242492" lon="8.4903692"><ele>15.666666666666668</ele><time>2026-04-29T16:03:07.475Z</time></trkpt><trkpt lat="33.924337" lon="8.4901536"><ele>17.0</ele><time>2026-04-29T16:03:08.477Z</time></trkpt><trkpt lat="33.924427" lon="8.489939"><ele>17.0</ele><time>2026-04-29T16:03:09.452Z</time></trkpt><trkpt lat="33.9245165" lon="8.4897217"><ele>17.0</ele><time>2026-04-29T16:03:10.467Z</time></trkpt><trkpt lat="33.9246029" lon="8.4895054"><ele>17.0</ele><time>2026-04-29T16:03:11.423Z</time></trkpt><trkpt lat="33.9246878" lon="8.4892898"><ele>16.666666666666668</ele><time>2026-04-29T16:03:12.464Z</time></trkpt><trkpt lat="33.9247793" lon="8.4890789"><ele>16.333333333333332</ele><time>2026-04-29T16:03:13.489Z</time></trkpt><trkpt lat="33.9248699" lon="8.4888659"><ele>16.0</ele><time>2026-04-29T16:03:14.466Z</time></trkpt><trkpt lat="33.9249651" lon="8.4886522"><ele>16.0</ele><time>2026-04-29T16:03:15.434Z</time></trkpt><trkpt lat="33.9250499" lon="8.4884368"><ele>16.0</ele><time>2026-04-29T16:03:16.47Z</time></trkpt><trkpt lat="33.9251371" lon="8.4882214"><ele>16.0</ele><time>2026-04-29T16:03:17.428Z</time></trkpt><trkpt lat="33.925227" lon="8.4880069"><ele>16.0</ele><time>2026-04-29T16:03:18.474Z</time></trkpt><trkpt lat="33.925321" lon="8.4877922"><ele>16.0</ele><time>2026-04-29T16:03:19.465Z</time></trkpt><trkpt lat="33.9254138" lon="8.4875773"><ele>16.0</ele><time>2026-04-29T16:03:20.469Z</time></trkpt><trkpt lat="33.9255049" lon="8.4873595"><ele>16.0</ele><time>2026-04-29T16:03:21.466Z</time></trkpt><trkpt lat="33.9255952" lon="8.4871435"><ele>16.0</ele><time>2026-04-29T16:03:22.469Z</time></trkpt><trkpt lat="33.9256875" lon="8.4869341"><ele>16.0</ele><time>2026-04-29T16:03:23.479Z</time></trkpt><trkpt lat="33.9257835" lon="8.4867198"><ele>15.666666666666666</ele><time>2026-04-29T16:03:24.481Z</time></trkpt><trkpt lat="33.9258753" lon="8.4865048"><ele>15.333333333333332</ele><time>2026-04-29T16:03:25.477Z</time></trkpt><trkpt lat="33.9259707" lon="8.4862911"><ele>15.0</ele><time>2026-04-29T16:03:26.467Z</time></trkpt><trkpt lat="33.9260586" lon="8.4860749"><ele>15.0</ele><time>2026-04-29T16:03:27.475Z</time></trkpt><trkpt lat="33.9261475" lon="8.4858639"><ele>15.0</ele><time>2026-04-29T16:03:28.473Z</time></trkpt><trkpt lat="33.9262367" lon="8.4856543"><ele>15.0</ele><time>2026-04-29T16:03:29.474Z</time></trkpt><trkpt lat="33.9263277" lon="8.4854436"><ele>15.333333333333332</ele><time>2026-04-29T16:03:30.463Z</time></trkpt><trkpt lat="33.9264171" lon="8.4852333"><ele>15.666666666666666</ele><time>2026-04-29T16:03:31.456Z</time></trkpt><trkpt lat="33.926506" lon="8.485023"><ele>16.0</ele><time>2026-04-29T16:03:32.474Z</time></trkpt><trkpt lat="33.9265904" lon="8.4848111"><ele>16.0</ele><time>2026-04-29T16:03:33.48Z</time></trkpt><trkpt lat="33.926683" lon="8.484598"><ele>16.0</ele><time>2026-04-29T16:03:34.478Z</time></trkpt><trkpt lat="33.9267729" lon="8.4843801"><ele>16.0</ele><time>2026-04-29T16:03:35.482Z</time></trkpt><trkpt lat="33.9268608" lon="8.4841644"><ele>15.333333333333332</ele><time>2026-04-29T16:03:36.479Z</time></trkpt><trkpt lat="33.9269497" lon="8.483947"><ele>14.666666666666668</ele><time>2026-04-29T16:03:37.468Z</time></trkpt><trkpt lat="33.927036" lon="8.4837316"><ele>14.0</ele><time>2026-04-29T16:03:38.476Z</time></trkpt><trkpt lat="33.9271278" lon="8.4835218"><ele>14.0</ele><time>2026-04-29T16:03:39.456Z</time></trkpt><trkpt lat="33.9272196" lon="8.4833084"><ele>14.0</ele><time>2026-04-29T16:03:40.427Z</time></trkpt><trkpt lat="33.9273106" lon="8.4830917"><ele>14.0</ele><time>2026-04-29T16:03:41.458Z</time></trkpt><trkpt lat="33.9274023" lon="8.4828749"><ele>14.0</ele><time>2026-04-29T16:03:42.425Z</time></trkpt><trkpt lat="33.9274946" lon="8.4826604"><ele>14.0</ele><time>2026-04-29T16:03:43.428Z</time></trkpt><trkpt lat="33.9275809" lon="8.4824431"><ele>14.0</ele><time>2026-04-29T16:03:44.424Z</time></trkpt><trkpt lat="33.9276706" lon="8.4822262"><ele>14.333333333333334</ele><time>2026-04-29T16:03:45.421Z</time></trkpt><trkpt lat="33.9277614" lon="8.4820123"><ele>14.666666666666668</ele><time>2026-04-29T16:03:46.428Z</time></trkpt><trkpt lat="33.9278531" lon="8.4817996"><ele>15.0</ele><time>2026-04-29T16:03:47.432Z</time></trkpt><trkpt lat="33.9279445" lon="8.4815859"><ele>15.0</ele><time>2026-04-29T16:03:48.432Z</time></trkpt><trkpt lat="33.9280367" lon="8.4813765"><ele>15.0</ele><time>2026-04-29T16:03:49.427Z</time></trkpt><trkpt lat="33.9281212" lon="8.4811657"><ele>15.0</ele><time>2026-04-29T16:03:50.429Z</time></trkpt><trkpt lat="33.9282108" lon="8.4809507"><ele>15.0</ele><time>2026-04-29T16:03:51.433Z</time></trkpt><trkpt lat="33.9283005" lon="8.4807348"><ele>15.0</ele><time>2026-04-29T16:03:52.426Z</time></trkpt><trkpt lat="33.928387" lon="8.4805216"><ele>15.0</ele><time>2026-04-29T16:03:53.418Z</time></trkpt><trkpt lat="33.9284796" lon="8.4803034"><ele>14.333333333333332</ele><time>2026-04-29T16:03:54.424Z</time></trkpt><trkpt lat="33.9285684" lon="8.4800858"><ele>13.666666666666666</ele><time>2026-04-29T16:03:55.431Z</time></trkpt><trkpt lat="33.9286581" lon="8.479871"><ele>13.0</ele><time>2026-04-29T16:03:56.429Z</time></trkpt><trkpt lat="33.9287506" lon="8.4796511"><ele>13.0</ele><time>2026-04-29T16:03:57.42Z</time></trkpt><trkpt lat="33.9288422" lon="8.4794383"><ele>13.0</ele><time>2026-04-29T16:03:58.425Z</time></trkpt><trkpt lat="33.928928" lon="8.4792232"><ele>13.0</ele><time>2026-04-29T16:03:59.425Z</time></trkpt><trkpt lat="33.9290203" lon="8.4790094"><ele>13.0</ele><time>2026-04-29T16:04:00.437Z</time></trkpt><trkpt lat="33.9291115" lon="8.4787971"><ele>13.0</ele><time>2026-04-29T16:04:01.429Z</time></trkpt><trkpt lat="33.9291969" lon="8.4785801"><ele>13.0</ele><time>2026-04-29T16:04:02.423Z</time></trkpt><trkpt lat="33.9292859" lon="8.4783602"><ele>13.333333333333332</ele><time>2026-04-29T16:04:03.43Z</time></trkpt><trkpt lat="33.9293768" lon="8.4781458"><ele>13.666666666666668</ele><time>2026-04-29T16:04:04.428Z</time></trkpt><trkpt lat="33.929465" lon="8.4779294"><ele>14.0</ele><time>2026-04-29T16:04:05.429Z</time></trkpt><trkpt lat="33.9295571" lon="8.4777174"><ele>14.333333333333334</ele><time>2026-04-29T16:04:06.432Z</time></trkpt><trkpt lat="33.9296479" lon="8.4775091"><ele>14.666666666666668</ele><time>2026-04-29T16:04:07.438Z</time></trkpt><trkpt lat="33.9297389" lon="8.4772959"><ele>15.0</ele><time>2026-04-29T16:04:08.43Z</time></trkpt><trkpt lat="33.929829" lon="8.4770839"><ele>15.0</ele><time>2026-04-29T16:04:09.432Z</time></trkpt><trkpt lat="33.9299178" lon="8.4768706"><ele>15.0</ele><time>2026-04-29T16:04:10.431Z</time></trkpt><trkpt lat="33.9300062" lon="8.4766556"><ele>15.0</ele><time>2026-04-29T16:04:11.431Z</time></trkpt><trkpt lat="33.9301024" lon="8.4764391"><ele>14.666666666666668</ele><time>2026-04-29T16:04:12.432Z</time></trkpt><trkpt lat="33.9301982" lon="8.4762232"><ele>14.333333333333334</ele><time>2026-04-29T16:04:13.425Z</time></trkpt><trkpt lat="33.9302909" lon="8.4760086"><ele>14.0</ele><time>2026-04-29T16:04:14.428Z</time></trkpt><trkpt lat="33.9303769" lon="8.475799"><ele>14.0</ele><time>2026-04-29T16:04:15.429Z</time></trkpt><trkpt lat="33.9304667" lon="8.4755906"><ele>14.0</ele><time>2026-04-29T16:04:16.43Z</time></trkpt><trkpt lat="33.9305595" lon="8.4753787"><ele>14.0</ele><time>2026-04-29T16:04:17.431Z</time></trkpt><trkpt lat="33.9306461" lon="8.4751629"><ele>14.333333333333334</ele><time>2026-04-29T16:04:18.439Z</time></trkpt><trkpt lat="33.9307348" lon="8.4749554"><ele>14.666666666666668</ele><time>2026-04-29T16:04:19.424Z</time></trkpt><trkpt lat="33.9308211" lon="8.474735"><ele>15.0</ele><time>2026-04-29T16:04:20.434Z</time></trkpt><trkpt lat="33.9309162" lon="8.4745167"><ele>15.333333333333332</ele><time>2026-04-29T16:04:21.428Z</time></trkpt><trkpt lat="33.9310075" lon="8.4743111"><ele>15.666666666666666</ele><time>2026-04-29T16:04:22.431Z</time></trkpt><trkpt lat="33.9310949" lon="8.474099"><ele>16.0</ele><time>2026-04-29T16:04:23.43Z</time></trkpt><trkpt lat="33.9311843" lon="8.4738894"><ele>15.666666666666666</ele><time>2026-04-29T16:04:24.43Z</time></trkpt><trkpt lat="33.9312787" lon="8.4736796"><ele>15.333333333333332</ele><time>2026-04-29T16:04:25.427Z</time></trkpt><trkpt lat="33.9313754" lon="8.4734507"><ele>15.0</ele><time>2026-04-29T16:04:26.42Z</time></trkpt><trkpt lat="33.9314717" lon="8.4732186"><ele>15.0</ele><time>2026-04-29T16:04:27.42Z</time></trkpt><trkpt lat="33.9315703" lon="8.4729849"><ele>15.0</ele><time>2026-04-29T16:04:28.43Z</time></trkpt><trkpt lat="33.9316673" lon="8.4727514"><ele>15.0</ele><time>2026-04-29T16:04:29.426Z</time></trkpt><trkpt lat="33.9317671" lon="8.4725162"><ele>14.666666666666668</ele><time>2026-04-29T16:04:30.427Z</time></trkpt><trkpt lat="33.9318704" lon="8.4722852"><ele>14.333333333333334</ele><time>2026-04-29T16:04:31.431Z</time></trkpt><trkpt lat="33.9319648" lon="8.4720515"><ele>14.0</ele><time>2026-04-29T16:04:32.42Z</time></trkpt><trkpt lat="33.9320663" lon="8.4718195"><ele>14.0</ele><time>2026-04-29T16:04:33.43Z</time></trkpt><trkpt lat="33.9321645" lon="8.4715822"><ele>14.0</ele><time>2026-04-29T16:04:34.423Z</time></trkpt><trkpt lat="33.9322646" lon="8.4713466"><ele>14.0</ele><time>2026-04-29T16:04:35.421Z</time></trkpt><trkpt lat="33.9323631" lon="8.4711143"><ele>14.0</ele><time>2026-04-29T16:04:36.429Z</time></trkpt><trkpt lat="33.9324649" lon="8.4708816"><ele>14.0</ele><time>2026-04-29T16:04:37.416Z</time></trkpt><trkpt lat="33.9325583" lon="8.470652"><ele>14.0</ele><time>2026-04-29T16:04:38.436Z</time></trkpt><trkpt lat="33.9326553" lon="8.4704176"><ele>14.333333333333334</ele><time>2026-04-29T16:04:39.431Z</time></trkpt><trkpt lat="33.9327516" lon="8.4701842"><ele>14.666666666666668</ele><time>2026-04-29T16:04:40.431Z</time></trkpt><trkpt lat="33.9328439" lon="8.4699531"><ele>15.0</ele><time>2026-04-29T16:04:41.429Z</time></trkpt><trkpt lat="33.9329386" lon="8.4697171"><ele>15.333333333333332</ele><time>2026-04-29T16:04:42.433Z</time></trkpt><trkpt lat="33.9330371" lon="8.4694821"><ele>15.666666666666666</ele><time>2026-04-29T16:04:43.436Z</time></trkpt><trkpt lat="33.93314" lon="8.4692441"><ele>16.0</ele><time>2026-04-29T16:04:44.43Z</time></trkpt><trkpt lat="33.9332395" lon="8.4690088"><ele>15.333333333333332</ele><time>2026-04-29T16:04:45.437Z</time></trkpt><trkpt lat="33.9333395" lon="8.4687739"><ele>14.666666666666668</ele><time>2026-04-29T16:04:46.418Z</time></trkpt><trkpt lat="33.9334399" lon="8.4685411"><ele>14.0</ele><time>2026-04-29T16:04:47.433Z</time></trkpt><trkpt lat="33.9335426" lon="8.4683095"><ele>14.0</ele><time>2026-04-29T16:04:48.43Z</time></trkpt><trkpt lat="33.9336424" lon="8.4680756"><ele>14.0</ele><time>2026-04-29T16:04:49.423Z</time></trkpt><trkpt lat="33.9337421" lon="8.4678437"><ele>14.0</ele><time>2026-04-29T16:04:50.422Z</time></trkpt><trkpt lat="33.9338419" lon="8.4676092"><ele>13.666666666666668</ele><time>2026-04-29T16:04:51.432Z</time></trkpt><trkpt lat="33.9339406" lon="8.4673743"><ele>13.333333333333332</ele><time>2026-04-29T16:04:52.423Z</time></trkpt><trkpt lat="33.9340383" lon="8.4671403"><ele>13.0</ele><time>2026-04-29T16:04:53.422Z</time></trkpt><trkpt lat="33.9341356" lon="8.4669025"><ele>13.333333333333332</ele><time>2026-04-29T16:04:54.43Z</time></trkpt><trkpt lat="33.9342368" lon="8.4666712"><ele>13.666666666666668</ele><time>2026-04-29T16:04:55.429Z</time></trkpt><trkpt lat="33.9343369" lon="8.4664347"><ele>14.0</ele><time>2026-04-29T16:04:56.428Z</time></trkpt><trkpt lat="33.9344332" lon="8.4661945"><ele>14.0</ele><time>2026-04-29T16:04:57.429Z</time></trkpt><trkpt lat="33.9345296" lon="8.4659549"><ele>14.0</ele><time>2026-04-29T16:04:58.432Z</time></trkpt><trkpt lat="33.9346249" lon="8.4657178"><ele>14.0</ele><time>2026-04-29T16:04:59.429Z</time></trkpt><trkpt lat="33.9347212" lon="8.4654825"><ele>13.666666666666668</ele><time>2026-04-29T16:05:00.428Z</time></trkpt><trkpt lat="33.9348162" lon="8.4652444"><ele>13.333333333333332</ele><time>2026-04-29T16:05:01.428Z</time></trkpt><trkpt lat="33.9349083" lon="8.4650095"><ele>13.0</ele><time>2026-04-29T16:05:02.423Z</time></trkpt><trkpt lat="33.9349983" lon="8.4647766"><ele>13.0</ele><time>2026-04-29T16:05:03.437Z</time></trkpt><trkpt lat="33.9350846" lon="8.4645379"><ele>13.0</ele><time>2026-04-29T16:05:04.416Z</time></trkpt><trkpt lat="33.9351743" lon="8.4642931"><ele>13.0</ele><time>2026-04-29T16:05:05.426Z</time></trkpt><trkpt lat="33.9352574" lon="8.4640556"><ele>13.0</ele><time>2026-04-29T16:05:06.423Z</time></trkpt><trkpt lat="33.9353396" lon="8.4638167"><ele>13.0</ele><time>2026-04-29T16:05:07.42Z</time></trkpt><trkpt lat="33.9354284" lon="8.4635732"><ele>13.0</ele><time>2026-04-29T16:05:08.429Z</time></trkpt><trkpt lat="33.9355126" lon="8.4633261"><ele>13.333333333333332</ele><time>2026-04-29T16:05:09.437Z</time></trkpt><trkpt lat="33.9355938" lon="8.4630813"><ele>13.666666666666668</ele><time>2026-04-29T16:05:10.441Z</time></trkpt><trkpt lat="33.9356773" lon="8.4628327"><ele>14.0</ele><time>2026-04-29T16:05:11.425Z</time></trkpt><trkpt lat="33.9357617" lon="8.4625881"><ele>14.0</ele><time>2026-04-29T16:05:12.428Z</time></trkpt><trkpt lat="33.9358432" lon="8.4623456"><ele>14.0</ele><time>2026-04-29T16:05:13.426Z</time></trkpt><trkpt lat="33.9359234" lon="8.4621063"><ele>14.0</ele><time>2026-04-29T16:05:14.43Z</time></trkpt><trkpt lat="33.9360017" lon="8.461868"><ele>14.0</ele><time>2026-04-29T16:05:15.439Z</time></trkpt><trkpt lat="33.9360824" lon="8.4616241"><ele>14.0</ele><time>2026-04-29T16:05:16.431Z</time></trkpt><trkpt lat="33.9361595" lon="8.4613955"><ele>14.0</ele><time>2026-04-29T16:05:17.429Z</time></trkpt><trkpt lat="33.9362336" lon="8.4611765"><ele>14.0</ele><time>2026-04-29T16:05:18.421Z</time></trkpt><trkpt lat="33.9363054" lon="8.4609535"><ele>14.0</ele><time>2026-04-29T16:05:19.431Z</time></trkpt><trkpt lat="33.9363846" lon="8.4607331"><ele>14.0</ele><time>2026-04-29T16:05:20.423Z</time></trkpt><trkpt lat="33.9364575" lon="8.460515"><ele>14.333333333333334</ele><time>2026-04-29T16:05:21.435Z</time></trkpt><trkpt lat="33.9365328" lon="8.4603062"><ele>14.666666666666668</ele><time>2026-04-29T16:05:22.428Z</time></trkpt><trkpt lat="33.9365996" lon="8.4601045"><ele>15.0</ele><time>2026-04-29T16:05:23.431Z</time></trkpt><trkpt lat="33.9366626" lon="8.459912"><ele>14.666666666666668</ele><time>2026-04-29T16:05:24.433Z</time></trkpt><trkpt lat="33.9367279" lon="8.4597213"><ele>14.333333333333334</ele><time>2026-04-29T16:05:25.435Z</time></trkpt><trkpt lat="33.9367934" lon="8.4595291"><ele>14.0</ele><time>2026-04-29T16:05:26.424Z</time></trkpt><trkpt lat="33.9368569" lon="8.4593376"><ele>14.0</ele><time>2026-04-29T16:05:27.428Z</time></trkpt><trkpt lat="33.9369213" lon="8.459143"><ele>14.0</ele><time>2026-04-29T16:05:28.412Z</time></trkpt><trkpt lat="33.9369911" lon="8.4589412"><ele>14.0</ele><time>2026-04-29T16:05:29.417Z</time></trkpt><trkpt lat="33.9370551" lon="8.4587418"><ele>14.0</ele><time>2026-04-29T16:05:30.413Z</time></trkpt><trkpt lat="33.9371259" lon="8.4585386"><ele>14.0</ele><time>2026-04-29T16:05:31.416Z</time></trkpt><trkpt lat="33.9371983" lon="8.4583338"><ele>14.0</ele><time>2026-04-29T16:05:32.428Z</time></trkpt><trkpt lat="33.9372678" lon="8.4581307"><ele>14.0</ele><time>2026-04-29T16:05:33.417Z</time></trkpt><trkpt lat="33.9373398" lon="8.4579246"><ele>14.0</ele><time>2026-04-29T16:05:34.421Z</time></trkpt><trkpt lat="33.9374089" lon="8.4577166"><ele>14.0</ele><time>2026-04-29T16:05:35.423Z</time></trkpt><trkpt lat="33.9374798" lon="8.4575049"><ele>14.0</ele><time>2026-04-29T16:05:36.42Z</time></trkpt><trkpt lat="33.9375515" lon="8.457299"><ele>14.0</ele><time>2026-04-29T16:05:37.424Z</time></trkpt><trkpt lat="33.9376226" lon="8.4570878"><ele>14.0</ele><time>2026-04-29T16:05:38.438Z</time></trkpt><trkpt lat="33.9376917" lon="8.456881"><ele>14.0</ele><time>2026-04-29T16:05:39.426Z</time></trkpt><trkpt lat="33.93776" lon="8.456676"><ele>14.0</ele><time>2026-04-29T16:05:40.423Z</time></trkpt><trkpt lat="33.9378283" lon="8.456473"><ele>14.0</ele><time>2026-04-29T16:05:41.423Z</time></trkpt><trkpt lat="33.9378952" lon="8.4562749"><ele>14.333333333333334</ele><time>2026-04-29T16:05:42.418Z</time></trkpt><trkpt lat="33.9379663" lon="8.456079"><ele>14.666666666666668</ele><time>2026-04-29T16:05:43.425Z</time></trkpt><trkpt lat="33.9380359" lon="8.455876"><ele>15.0</ele><time>2026-04-29T16:05:44.419Z</time></trkpt><trkpt lat="33.9381083" lon="8.45568"><ele>15.0</ele><time>2026-04-29T16:05:45.42Z</time></trkpt><trkpt lat="33.9381767" lon="8.4554713"><ele>15.0</ele><time>2026-04-29T16:05:46.431Z</time></trkpt><trkpt lat="33.9382416" lon="8.4552632"><ele>15.0</ele><time>2026-04-29T16:05:47.424Z</time></trkpt><trkpt lat="33.9383129" lon="8.4550551"><ele>15.0</ele><time>2026-04-29T16:05:48.418Z</time></trkpt><trkpt lat="33.9383831" lon="8.45485"><ele>15.0</ele><time>2026-04-29T16:05:49.42Z</time></trkpt><trkpt lat="33.9384575" lon="8.4546406"><ele>15.0</ele><time>2026-04-29T16:05:50.437Z</time></trkpt><trkpt lat="33.9385357" lon="8.4544293"><ele>14.666666666666668</ele><time>2026-04-29T16:05:51.41Z</time></trkpt><trkpt lat="33.9386077" lon="8.4542187"><ele>14.333333333333334</ele><time>2026-04-29T16:05:52.424Z</time></trkpt><trkpt lat="33.938684" lon="8.4540092"><ele>14.0</ele><time>2026-04-29T16:05:53.415Z</time></trkpt><trkpt lat="33.9387504" lon="8.4538041"><ele>14.666666666666668</ele><time>2026-04-29T16:05:54.425Z</time></trkpt><trkpt lat="33.9388169" lon="8.4535944"><ele>15.333333333333332</ele><time>2026-04-29T16:05:55.507Z</time></trkpt><trkpt lat="33.938886" lon="8.4533799"><ele>16.0</ele><time>2026-04-29T16:05:56.465Z</time></trkpt><trkpt lat="33.9389584" lon="8.4531731"><ele>16.0</ele><time>2026-04-29T16:05:57.418Z</time></trkpt><trkpt lat="33.939033" lon="8.4529619"><ele>16.0</ele><time>2026-04-29T16:05:58.416Z</time></trkpt><trkpt lat="33.9391047" lon="8.4527478"><ele>16.0</ele><time>2026-04-29T16:05:59.421Z</time></trkpt><trkpt lat="33.9391773" lon="8.4525324"><ele>16.333333333333332</ele><time>2026-04-29T16:06:00.415Z</time></trkpt><trkpt lat="33.9392547" lon="8.4523181"><ele>16.666666666666668</ele><time>2026-04-29T16:06:01.43Z</time></trkpt><trkpt lat="33.939328" lon="8.4521097"><ele>17.0</ele><time>2026-04-29T16:06:02.427Z</time></trkpt><trkpt lat="33.939401" lon="8.4518994"><ele>17.333333333333336</ele><time>2026-04-29T16:06:03.425Z</time></trkpt><trkpt lat="33.9394715" lon="8.4516877"><ele>17.666666666666668</ele><time>2026-04-29T16:06:04.433Z</time></trkpt><trkpt lat="33.9395415" lon="8.4514843"><ele>18.0</ele><time>2026-04-29T16:06:05.426Z</time></trkpt><trkpt lat="33.9396114" lon="8.451286"><ele>18.0</ele><time>2026-04-29T16:06:06.43Z</time></trkpt><trkpt lat="33.9396813" lon="8.4510783"><ele>18.0</ele><time>2026-04-29T16:06:07.424Z</time></trkpt><trkpt lat="33.9397536" lon="8.4508717"><ele>18.0</ele><time>2026-04-29T16:06:08.425Z</time></trkpt><trkpt lat="33.9398211" lon="8.4506651"><ele>18.0</ele><time>2026-04-29T16:06:09.444Z</time></trkpt><trkpt lat="33.9398929" lon="8.4504604"><ele>18.0</ele><time>2026-04-29T16:06:10.426Z</time></trkpt><trkpt lat="33.9399627" lon="8.4502489"><ele>18.0</ele><time>2026-04-29T16:06:11.425Z</time></trkpt><trkpt lat="33.9400324" lon="8.4500335"><ele>17.333333333333332</ele><time>2026-04-29T16:06:12.436Z</time></trkpt><trkpt lat="33.9401028" lon="8.4498219"><ele>16.666666666666664</ele><time>2026-04-29T16:06:13.428Z</time></trkpt><trkpt lat="33.9401737" lon="8.4496036"><ele>16.0</ele><time>2026-04-29T16:06:14.426Z</time></trkpt><trkpt lat="33.9402499" lon="8.4493854"><ele>15.666666666666666</ele><time>2026-04-29T16:06:15.431Z</time></trkpt><trkpt lat="33.9403279" lon="8.4491698"><ele>15.333333333333332</ele><time>2026-04-29T16:06:16.414Z</time></trkpt><trkpt lat="33.9404026" lon="8.4489493"><ele>15.0</ele><time>2026-04-29T16:06:17.428Z</time></trkpt><trkpt lat="33.9404741" lon="8.4487376"><ele>15.0</ele><time>2026-04-29T16:06:18.423Z</time></trkpt><trkpt lat="33.9405456" lon="8.4485301"><ele>15.0</ele><time>2026-04-29T16:06:19.428Z</time></trkpt><trkpt lat="33.9406154" lon="8.4483168"><ele>15.0</ele><time>2026-04-29T16:06:20.433Z</time></trkpt><trkpt lat="33.9406896" lon="8.448105"><ele>14.333333333333332</ele><time>2026-04-29T16:06:21.428Z</time></trkpt><trkpt lat="33.9407606" lon="8.4478868"><ele>13.666666666666666</ele><time>2026-04-29T16:06:22.43Z</time></trkpt><trkpt lat="33.9408284" lon="8.4476774"><ele>13.0</ele><time>2026-04-29T16:06:23.432Z</time></trkpt><trkpt lat="33.9408986" lon="8.4474776"><ele>13.0</ele><time>2026-04-29T16:06:24.43Z</time></trkpt><trkpt lat="33.9409736" lon="8.4472719"><ele>13.0</ele><time>2026-04-29T16:06:25.451Z</time></trkpt><trkpt lat="33.9410421" lon="8.4470695"><ele>13.0</ele><time>2026-04-29T16:06:26.417Z</time></trkpt><trkpt lat="33.941109" lon="8.4468648"><ele>13.0</ele><time>2026-04-29T16:06:27.426Z</time></trkpt><trkpt lat="33.9411758" lon="8.4466582"><ele>13.0</ele><time>2026-04-29T16:06:28.425Z</time></trkpt><trkpt lat="33.9412392" lon="8.4464556"><ele>13.0</ele><time>2026-04-29T16:06:29.424Z</time></trkpt><trkpt lat="33.9413113" lon="8.4462508"><ele>14.0</ele><time>2026-04-29T16:06:30.416Z</time></trkpt><trkpt lat="33.9413812" lon="8.4460448"><ele>15.0</ele><time>2026-04-29T16:06:31.431Z</time></trkpt><trkpt lat="33.9414485" lon="8.4458406"><ele>16.0</ele><time>2026-04-29T16:06:32.431Z</time></trkpt><trkpt lat="33.9415127" lon="8.4456426"><ele>16.0</ele><time>2026-04-29T16:06:33.433Z</time></trkpt><trkpt lat="33.9415762" lon="8.4454533"><ele>16.0</ele><time>2026-04-29T16:06:34.42Z</time></trkpt><trkpt lat="33.9416301" lon="8.4452831"><ele>16.0</ele><time>2026-04-29T16:06:35.426Z</time></trkpt><trkpt lat="33.9416814" lon="8.4451305"><ele>15.8</ele><time>2026-04-29T16:06:36.423Z</time></trkpt><trkpt lat="33.9417279" lon="8.4449959"><ele>15.600000000000001</ele><time>2026-04-29T16:06:37.427Z</time></trkpt><trkpt lat="33.94177" lon="8.444878"><ele>15.4</ele><time>2026-04-29T16:06:38.459Z</time></trkpt><trkpt lat="33.9418047" lon="8.4447674"><ele>15.2</ele><time>2026-04-29T16:06:39.42Z</time></trkpt><trkpt lat="33.9418414" lon="8.4446612"><ele>15.0</ele><time>2026-04-29T16:06:40.42Z</time></trkpt><trkpt lat="33.9418774" lon="8.4445515"><ele>15.0</ele><time>2026-04-29T16:06:41.429Z</time></trkpt><trkpt lat="33.941919" lon="8.4444413"><ele>15.0</ele><time>2026-04-29T16:06:42.427Z</time></trkpt><trkpt lat="33.941956" lon="8.4443256"><ele>15.0</ele><time>2026-04-29T16:06:43.418Z</time></trkpt><trkpt lat="33.9419992" lon="8.44421"><ele>15.0</ele><time>2026-04-29T16:06:44.418Z</time></trkpt><trkpt lat="33.9420412" lon="8.4440903"><ele>15.0</ele><time>2026-04-29T16:06:45.422Z</time></trkpt><trkpt lat="33.9420837" lon="8.4439674"><ele>15.0</ele><time>2026-04-29T16:06:46.424Z</time></trkpt><trkpt lat="33.9421209" lon="8.4438395"><ele>15.0</ele><time>2026-04-29T16:06:47.419Z</time></trkpt><trkpt lat="33.9421654" lon="8.443706"><ele>15.0</ele><time>2026-04-29T16:06:48.436Z</time></trkpt><trkpt lat="33.9422156" lon="8.443561"><ele>15.0</ele><time>2026-04-29T16:06:49.425Z</time></trkpt><trkpt lat="33.9422729" lon="8.4434096"><ele>14.666666666666668</ele><time>2026-04-29T16:06:50.421Z</time></trkpt><trkpt lat="33.9423271" lon="8.4432468"><ele>14.333333333333334</ele><time>2026-04-29T16:06:51.429Z</time></trkpt><trkpt lat="33.9423915" lon="8.4430753"><ele>14.0</ele><time>2026-04-29T16:06:52.418Z</time></trkpt><trkpt lat="33.9424495" lon="8.4428997"><ele>14.666666666666668</ele><time>2026-04-29T16:06:53.42Z</time></trkpt><trkpt lat="33.9425101" lon="8.4427129"><ele>15.333333333333332</ele><time>2026-04-29T16:06:54.426Z</time></trkpt><trkpt lat="33.9425772" lon="8.4425197"><ele>16.0</ele><time>2026-04-29T16:06:55.426Z</time></trkpt><trkpt lat="33.9426443" lon="8.4423198"><ele>15.333333333333332</ele><time>2026-04-29T16:06:56.435Z</time></trkpt><trkpt lat="33.9427134" lon="8.4421126"><ele>14.666666666666668</ele><time>2026-04-29T16:06:57.421Z</time></trkpt><trkpt lat="33.9427883" lon="8.4419058"><ele>14.0</ele><time>2026-04-29T16:06:58.425Z</time></trkpt><trkpt lat="33.9428595" lon="8.4416982"><ele>14.0</ele><time>2026-04-29T16:06:59.427Z</time></trkpt><trkpt lat="33.9429285" lon="8.4414895"><ele>14.0</ele><time>2026-04-29T16:07:00.444Z</time></trkpt><trkpt lat="33.9430024" lon="8.4412744"><ele>14.0</ele><time>2026-04-29T16:07:01.45Z</time></trkpt><trkpt lat="33.9430791" lon="8.4410638"><ele>14.333333333333334</ele><time>2026-04-29T16:07:02.447Z</time></trkpt><trkpt lat="33.9431553" lon="8.4408487"><ele>14.666666666666668</ele><time>2026-04-29T16:07:03.452Z</time></trkpt><trkpt lat="33.9432304" lon="8.4406317"><ele>15.0</ele><time>2026-04-29T16:07:04.448Z</time></trkpt><trkpt lat="33.9432998" lon="8.4404182"><ele>15.0</ele><time>2026-04-29T16:07:05.476Z</time></trkpt><trkpt lat="33.9433703" lon="8.4402052"><ele>15.0</ele><time>2026-04-29T16:07:06.463Z</time></trkpt><trkpt lat="33.9434394" lon="8.4399931"><ele>15.0</ele><time>2026-04-29T16:07:07.458Z</time></trkpt><trkpt lat="33.943511" lon="8.439779"><ele>14.666666666666668</ele><time>2026-04-29T16:07:08.476Z</time></trkpt><trkpt lat="33.9435829" lon="8.4395746"><ele>14.333333333333334</ele><time>2026-04-29T16:07:09.48Z</time></trkpt><trkpt lat="33.9436528" lon="8.4393692"><ele>14.0</ele><time>2026-04-29T16:07:10.474Z</time></trkpt><trkpt lat="33.9437293" lon="8.439162"><ele>14.0</ele><time>2026-04-29T16:07:11.444Z</time></trkpt><trkpt lat="33.9438022" lon="8.4389546"><ele>14.0</ele><time>2026-04-29T16:07:12.475Z</time></trkpt><trkpt lat="33.9438723" lon="8.4387452"><ele>14.0</ele><time>2026-04-29T16:07:13.459Z</time></trkpt><trkpt lat="33.9439417" lon="8.4385354"><ele>14.0</ele><time>2026-04-29T16:07:14.481Z</time></trkpt><trkpt lat="33.9440128" lon="8.4383213"><ele>14.0</ele><time>2026-04-29T16:07:15.441Z</time></trkpt><trkpt lat="33.9440825" lon="8.4381162"><ele>14.0</ele><time>2026-04-29T16:07:16.461Z</time></trkpt><trkpt lat="33.9441539" lon="8.43791"><ele>13.666666666666668</ele><time>2026-04-29T16:07:17.48Z</time></trkpt><trkpt lat="33.9442262" lon="8.4377057"><ele>13.333333333333332</ele><time>2026-04-29T16:07:18.475Z</time></trkpt><trkpt lat="33.9442944" lon="8.4375027"><ele>13.0</ele><time>2026-04-29T16:07:19.47Z</time></trkpt><trkpt lat="33.944362" lon="8.437292"><ele>13.333333333333332</ele><time>2026-04-29T16:07:20.46Z</time></trkpt><trkpt lat="33.9444397" lon="8.4370771"><ele>13.666666666666668</ele><time>2026-04-29T16:07:21.471Z</time></trkpt><trkpt lat="33.9445197" lon="8.4368519"><ele>14.0</ele><time>2026-04-29T16:07:22.449Z</time></trkpt><trkpt lat="33.9445953" lon="8.4366262"><ele>14.0</ele><time>2026-04-29T16:07:23.471Z</time></trkpt><trkpt lat="33.9446686" lon="8.4363988"><ele>14.0</ele><time>2026-04-29T16:07:24.471Z</time></trkpt><trkpt lat="33.944744" lon="8.4361688"><ele>14.0</ele><time>2026-04-29T16:07:25.477Z</time></trkpt><trkpt lat="33.9448237" lon="8.4359446"><ele>14.0</ele><time>2026-04-29T16:07:26.474Z</time></trkpt><trkpt lat="33.9449067" lon="8.4357107"><ele>14.0</ele><time>2026-04-29T16:07:27.47Z</time></trkpt><trkpt lat="33.9449851" lon="8.4354756"><ele>14.0</ele><time>2026-04-29T16:07:28.474Z</time></trkpt><trkpt lat="33.9450632" lon="8.4352384"><ele>14.0</ele><time>2026-04-29T16:07:29.465Z</time></trkpt><trkpt lat="33.9451503" lon="8.4349968"><ele>14.0</ele><time>2026-04-29T16:07:30.465Z</time></trkpt><trkpt lat="33.945231" lon="8.4347517"><ele>14.0</ele><time>2026-04-29T16:07:31.463Z</time></trkpt><trkpt lat="33.9453141" lon="8.434505"><ele>13.666666666666668</ele><time>2026-04-29T16:07:32.476Z</time></trkpt><trkpt lat="33.9453991" lon="8.4342565"><ele>13.333333333333332</ele><time>2026-04-29T16:07:33.477Z</time></trkpt><trkpt lat="33.9454777" lon="8.434012"><ele>13.0</ele><time>2026-04-29T16:07:34.46Z</time></trkpt><trkpt lat="33.9455561" lon="8.4337666"><ele>13.666666666666666</ele><time>2026-04-29T16:07:35.445Z</time></trkpt><trkpt lat="33.945639" lon="8.4335268"><ele>14.333333333333332</ele><time>2026-04-29T16:07:36.438Z</time></trkpt><trkpt lat="33.9457199" lon="8.4332872"><ele>15.0</ele><time>2026-04-29T16:07:37.459Z</time></trkpt><trkpt lat="33.9458001" lon="8.4330459"><ele>14.333333333333332</ele><time>2026-04-29T16:07:38.454Z</time></trkpt><trkpt lat="33.9458821" lon="8.4328033"><ele>13.666666666666666</ele><time>2026-04-29T16:07:39.436Z</time></trkpt><trkpt lat="33.9459637" lon="8.432556"><ele>13.0</ele><time>2026-04-29T16:07:40.467Z</time></trkpt><trkpt lat="33.9460501" lon="8.4323137"><ele>13.666666666666666</ele><time>2026-04-29T16:07:41.443Z</time></trkpt><trkpt lat="33.9461336" lon="8.4320716"><ele>14.333333333333332</ele><time>2026-04-29T16:07:42.474Z</time></trkpt><trkpt lat="33.9462199" lon="8.4318287"><ele>15.0</ele><time>2026-04-29T16:07:43.46Z</time></trkpt><trkpt lat="33.9463015" lon="8.4315792"><ele>15.0</ele><time>2026-04-29T16:07:44.483Z</time></trkpt><trkpt lat="33.9463841" lon="8.4313291"><ele>15.0</ele><time>2026-04-29T16:07:45.452Z</time></trkpt><trkpt lat="33.9464684" lon="8.4310838"><ele>15.0</ele><time>2026-04-29T16:07:46.441Z</time></trkpt><trkpt lat="33.9465543" lon="8.4308435"><ele>15.0</ele><time>2026-04-29T16:07:47.477Z</time></trkpt><trkpt lat="33.9466349" lon="8.4305989"><ele>15.0</ele><time>2026-04-29T16:07:48.409Z</time></trkpt><trkpt lat="33.9467112" lon="8.4303569"><ele>15.0</ele><time>2026-04-29T16:07:49.431Z</time></trkpt><trkpt lat="33.9467907" lon="8.4301181"><ele>15.0</ele><time>2026-04-29T16:07:50.455Z</time></trkpt><trkpt lat="33.9468738" lon="8.4298788"><ele>15.0</ele><time>2026-04-29T16:07:51.468Z</time></trkpt><trkpt lat="33.9469535" lon="8.4296459"><ele>15.0</ele><time>2026-04-29T16:07:52.445Z</time></trkpt><trkpt lat="33.9470334" lon="8.4294119"><ele>14.666666666666668</ele><time>2026-04-29T16:07:53.472Z</time></trkpt><trkpt lat="33.9471152" lon="8.429178"><ele>14.333333333333334</ele><time>2026-04-29T16:07:54.457Z</time></trkpt><trkpt lat="33.9471947" lon="8.4289422"><ele>14.0</ele><time>2026-04-29T16:07:55.466Z</time></trkpt><trkpt lat="33.9472695" lon="8.4287045"><ele>14.0</ele><time>2026-04-29T16:07:56.449Z</time></trkpt><trkpt lat="33.9473512" lon="8.4284666"><ele>14.0</ele><time>2026-04-29T16:07:57.462Z</time></trkpt><trkpt lat="33.9474351" lon="8.4282333"><ele>14.0</ele><time>2026-04-29T16:07:58.443Z</time></trkpt><trkpt lat="33.9475159" lon="8.4279974"><ele>14.333333333333334</ele><time>2026-04-29T16:07:59.464Z</time></trkpt><trkpt lat="33.9475953" lon="8.4277629"><ele>14.666666666666668</ele><time>2026-04-29T16:08:00.46Z</time></trkpt><trkpt lat="33.9476797" lon="8.427524"><ele>15.0</ele><time>2026-04-29T16:08:01.423Z</time></trkpt><trkpt lat="33.9477586" lon="8.4272856"><ele>14.333333333333332</ele><time>2026-04-29T16:08:02.455Z</time></trkpt><trkpt lat="33.9478371" lon="8.4270511"><ele>13.666666666666666</ele><time>2026-04-29T16:08:03.449Z</time></trkpt><trkpt lat="33.9479152" lon="8.426815"><ele>13.0</ele><time>2026-04-29T16:08:04.454Z</time></trkpt><trkpt lat="33.9479924" lon="8.4265746"><ele>13.0</ele><time>2026-04-29T16:08:05.469Z</time></trkpt><trkpt lat="33.9480734" lon="8.4263393"><ele>13.0</ele><time>2026-04-29T16:08:06.46Z</time></trkpt><trkpt lat="33.9481561" lon="8.4261143"><ele>13.0</ele><time>2026-04-29T16:08:07.436Z</time></trkpt><trkpt lat="33.9482377" lon="8.4258891"><ele>12.666666666666666</ele><time>2026-04-29T16:08:08.464Z</time></trkpt><trkpt lat="33.9483129" lon="8.4256606"><ele>12.333333333333332</ele><time>2026-04-29T16:08:09.48Z</time></trkpt><trkpt lat="33.9483913" lon="8.4254343"><ele>12.0</ele><time>2026-04-29T16:08:10.469Z</time></trkpt><trkpt lat="33.9484657" lon="8.4252019"><ele>12.333333333333332</ele><time>2026-04-29T16:08:11.459Z</time></trkpt><trkpt lat="33.9485481" lon="8.4249732"><ele>12.666666666666666</ele><time>2026-04-29T16:08:12.473Z</time></trkpt><trkpt lat="33.9486249" lon="8.4247456"><ele>13.0</ele><time>2026-04-29T16:08:13.471Z</time></trkpt><trkpt lat="33.9486997" lon="8.4245169"><ele>13.0</ele><time>2026-04-29T16:08:14.445Z</time></trkpt><trkpt lat="33.9487776" lon="8.4242927"><ele>13.0</ele><time>2026-04-29T16:08:15.464Z</time></trkpt><trkpt lat="33.9488546" lon="8.4240686"><ele>13.0</ele><time>2026-04-29T16:08:16.465Z</time></trkpt><trkpt lat="33.9489276" lon="8.4238482"><ele>13.0</ele><time>2026-04-29T16:08:17.469Z</time></trkpt><trkpt lat="33.9490078" lon="8.4236218"><ele>13.0</ele><time>2026-04-29T16:08:18.453Z</time></trkpt><trkpt lat="33.949084" lon="8.423397"><ele>13.0</ele><time>2026-04-29T16:08:19.437Z</time></trkpt><trkpt lat="33.9491537" lon="8.4231668"><ele>13.0</ele><time>2026-04-29T16:08:20.473Z</time></trkpt><trkpt lat="33.9492363" lon="8.4229446"><ele>13.0</ele><time>2026-04-29T16:08:21.414Z</time></trkpt><trkpt lat="33.9493097" lon="8.4227235"><ele>13.0</ele><time>2026-04-29T16:08:22.466Z</time></trkpt><trkpt lat="33.9493852" lon="8.4224931"><ele>13.0</ele><time>2026-04-29T16:08:23.469Z</time></trkpt><trkpt lat="33.9494638" lon="8.4222699"><ele>13.0</ele><time>2026-04-29T16:08:24.469Z</time></trkpt><trkpt lat="33.9495397" lon="8.4220447"><ele>13.0</ele><time>2026-04-29T16:08:25.463Z</time></trkpt><trkpt lat="33.9496164" lon="8.4218203"><ele>13.666666666666666</ele><time>2026-04-29T16:08:26.476Z</time></trkpt><trkpt lat="33.9496936" lon="8.4215962"><ele>14.333333333333332</ele><time>2026-04-29T16:08:27.471Z</time></trkpt><trkpt lat="33.949766" lon="8.4213799"><ele>15.0</ele><time>2026-04-29T16:08:28.477Z</time></trkpt><trkpt lat="33.9498366" lon="8.4211733"><ele>15.333333333333332</ele><time>2026-04-29T16:08:29.472Z</time></trkpt><trkpt lat="33.9499072" lon="8.4209645"><ele>15.666666666666666</ele><time>2026-04-29T16:08:30.473Z</time></trkpt><trkpt lat="33.94998" lon="8.4207551"><ele>16.0</ele><time>2026-04-29T16:08:31.433Z</time></trkpt><trkpt lat="33.9500458" lon="8.420553"><ele>15.666666666666666</ele><time>2026-04-29T16:08:32.442Z</time></trkpt><trkpt lat="33.9501146" lon="8.4203503"><ele>15.333333333333332</ele><time>2026-04-29T16:08:33.432Z</time></trkpt><trkpt lat="33.9501826" lon="8.4201433"><ele>15.0</ele><time>2026-04-29T16:08:34.464Z</time></trkpt><trkpt lat="33.9502494" lon="8.4199456"><ele>15.0</ele><time>2026-04-29T16:08:35.465Z</time></trkpt><trkpt lat="33.9503165" lon="8.4197423"><ele>15.0</ele><time>2026-04-29T16:08:36.458Z</time></trkpt><trkpt lat="33.9503875" lon="8.4195352"><ele>15.0</ele><time>2026-04-29T16:08:37.422Z</time></trkpt><trkpt lat="33.9504568" lon="8.4193409"><ele>15.0</ele><time>2026-04-29T16:08:38.464Z</time></trkpt><trkpt lat="33.9505235" lon="8.4191498"><ele>15.0</ele><time>2026-04-29T16:08:39.463Z</time></trkpt><trkpt lat="33.950588" lon="8.4189645"><ele>15.0</ele><time>2026-04-29T16:08:40.457Z</time></trkpt><trkpt lat="33.9506514" lon="8.4187794"><ele>15.0</ele><time>2026-04-29T16:08:41.443Z</time></trkpt><trkpt lat="33.9507129" lon="8.4186086"><ele>15.0</ele><time>2026-04-29T16:08:42.447Z</time></trkpt><trkpt lat="33.9507731" lon="8.4184372"><ele>15.0</ele><time>2026-04-29T16:08:43.443Z</time></trkpt><trkpt lat="33.950831" lon="8.418274"><ele>15.0</ele><time>2026-04-29T16:08:44.474Z</time></trkpt><trkpt lat="33.9508844" lon="8.4181082"><ele>15.0</ele><time>2026-04-29T16:08:45.469Z</time></trkpt><trkpt lat="33.9509341" lon="8.4179529"><ele>15.0</ele><time>2026-04-29T16:08:46.439Z</time></trkpt><trkpt lat="33.9509883" lon="8.4178014"><ele>15.0</ele><time>2026-04-29T16:08:47.461Z</time></trkpt><trkpt lat="33.951032" lon="8.4176559"><ele>15.0</ele><time>2026-04-29T16:08:48.439Z</time></trkpt><trkpt lat="33.9510757" lon="8.417523"><ele>15.0</ele><time>2026-04-29T16:08:49.476Z</time></trkpt><trkpt lat="33.9511285" lon="8.4174015"><ele>15.0</ele><time>2026-04-29T16:08:50.448Z</time></trkpt><trkpt lat="33.9511707" lon="8.4172806"><ele>15.0</ele><time>2026-04-29T16:08:51.484Z</time></trkpt><trkpt lat="33.9512079" lon="8.4171666"><ele>15.0</ele><time>2026-04-29T16:08:52.468Z</time></trkpt><trkpt lat="33.9512416" lon="8.4170625"><ele>14.833333333333334</ele><time>2026-04-29T16:08:53.455Z</time></trkpt><trkpt lat="33.9512677" lon="8.4169771"><ele>14.666666666666668</ele><time>2026-04-29T16:08:54.467Z</time></trkpt><trkpt lat="33.9512904" lon="8.4169049"><ele>14.5</ele><time>2026-04-29T16:08:55.469Z</time></trkpt><trkpt lat="33.9513109" lon="8.4167774"><ele>14.333333333333334</ele><time>2026-04-29T16:08:57.473Z</time></trkpt><trkpt lat="33.9512575" lon="8.4167011"><ele>14.166666666666668</ele><time>2026-04-29T16:09:00.443Z</time></trkpt><trkpt lat="33.9511934" lon="8.4167099"><ele>14.0</ele><time>2026-04-29T16:09:17.455Z</time></trkpt><trkpt lat="33.9511136" lon="8.416718"><ele>14.0</ele><time>2026-04-29T16:09:19.453Z</time></trkpt><trkpt lat="33.9510376" lon="8.4167522"><ele>13.999999999999998</ele><time>2026-04-29T16:09:21.465Z</time></trkpt><trkpt lat="33.9509461" lon="8.4167938"><ele>13.999999999999998</ele><time>2026-04-29T16:09:23.45Z</time></trkpt><trkpt lat="33.9508174" lon="8.4168131"><ele>14.0</ele><time>2026-04-29T16:09:25.472Z</time></trkpt><trkpt lat="33.950713" lon="8.4168034"><ele>14.0</ele><time>2026-04-29T16:09:26.427Z</time></trkpt><trkpt lat="33.9505867" lon="8.4167711"><ele>14.25</ele><time>2026-04-29T16:09:27.446Z</time></trkpt><trkpt lat="33.9504601" lon="8.4167442"><ele>14.5</ele><time>2026-04-29T16:09:28.454Z</time></trkpt><trkpt lat="33.9503523" lon="8.4167362"><ele>14.75</ele><time>2026-04-29T16:09:29.456Z</time></trkpt><trkpt lat="33.9502454" lon="8.41674"><ele>15.0</ele><time>2026-04-29T16:09:30.473Z</time></trkpt><trkpt lat="33.9501355" lon="8.4167483"><ele>14.75</ele><time>2026-04-29T16:09:31.465Z</time></trkpt><trkpt lat="33.9500256" lon="8.4167777"><ele>14.5</ele><time>2026-04-29T16:09:32.46Z</time></trkpt><trkpt lat="33.9499083" lon="8.4168073"><ele>14.25</ele><time>2026-04-29T16:09:33.463Z</time></trkpt><trkpt lat="33.9497875" lon="8.4168511"><ele>14.0</ele><time>2026-04-29T16:09:34.463Z</time></trkpt><trkpt lat="33.9496566" lon="8.4168917"><ele>14.0</ele><time>2026-04-29T16:09:35.469Z</time></trkpt><trkpt lat="33.9495362" lon="8.4169332"><ele>14.0</ele><time>2026-04-29T16:09:36.467Z</time></trkpt><trkpt lat="33.9494091" lon="8.4169662"><ele>14.0</ele><time>2026-04-29T16:09:37.446Z</time></trkpt><trkpt lat="33.9492896" lon="8.417002"><ele>14.0</ele><time>2026-04-29T16:09:38.464Z</time></trkpt><trkpt lat="33.9491679" lon="8.4170368"><ele>14.0</ele><time>2026-04-29T16:09:39.438Z</time></trkpt><trkpt lat="33.9490386" lon="8.4170746"><ele>14.0</ele><time>2026-04-29T16:09:40.455Z</time></trkpt><trkpt lat="33.9488937" lon="8.4171212"><ele>14.0</ele><time>2026-04-29T16:09:41.461Z</time></trkpt><trkpt lat="33.948716" lon="8.41718"><ele>14.0</ele><time>2026-04-29T16:09:42.45Z</time></trkpt><trkpt lat="33.9485189" lon="8.4172559"><ele>14.0</ele><time>2026-04-29T16:09:43.486Z</time></trkpt><trkpt lat="33.9483086" lon="8.4173258"><ele>14.0</ele><time>2026-04-29T16:09:44.477Z</time></trkpt><trkpt lat="33.9480922" lon="8.4173844"><ele>14.0</ele><time>2026-04-29T16:09:45.477Z</time></trkpt><trkpt lat="33.9479041" lon="8.4174448"><ele>14.0</ele><time>2026-04-29T16:09:46.455Z</time></trkpt><trkpt lat="33.947734" lon="8.4175"><ele>14.0</ele><time>2026-04-29T16:09:47.458Z</time></trkpt><trkpt lat="33.9475791" lon="8.4175523"><ele>14.333333333333334</ele><time>2026-04-29T16:09:48.483Z</time></trkpt><trkpt lat="33.9474199" lon="8.4176002"><ele>14.666666666666668</ele><time>2026-04-29T16:09:49.459Z</time></trkpt><trkpt lat="33.9472465" lon="8.4176495"><ele>15.0</ele><time>2026-04-29T16:09:50.465Z</time></trkpt><trkpt lat="33.947057" lon="8.4177111"><ele>15.0</ele><time>2026-04-29T16:09:51.47Z</time></trkpt><trkpt lat="33.9468641" lon="8.4177704"><ele>15.0</ele><time>2026-04-29T16:09:52.472Z</time></trkpt><trkpt lat="33.9466718" lon="8.4178208"><ele>15.0</ele><time>2026-04-29T16:09:53.455Z</time></trkpt><trkpt lat="33.9465018" lon="8.4178666"><ele>15.0</ele><time>2026-04-29T16:09:54.436Z</time></trkpt><trkpt lat="33.9463455" lon="8.4179072"><ele>15.0</ele><time>2026-04-29T16:09:55.456Z</time></trkpt><trkpt lat="33.9461947" lon="8.4179484"><ele>15.0</ele><time>2026-04-29T16:09:56.468Z</time></trkpt><trkpt lat="33.9460239" lon="8.4179941"><ele>14.0</ele><time>2026-04-29T16:09:57.458Z</time></trkpt><trkpt lat="33.9458497" lon="8.418049"><ele>13.0</ele><time>2026-04-29T16:09:58.473Z</time></trkpt><trkpt lat="33.9456739" lon="8.4181068"><ele>12.0</ele><time>2026-04-29T16:09:59.463Z</time></trkpt><trkpt lat="33.9455015" lon="8.4181678"><ele>12.0</ele><time>2026-04-29T16:10:00.468Z</time></trkpt><trkpt lat="33.9453272" lon="8.4182185"><ele>12.0</ele><time>2026-04-29T16:10:01.468Z</time></trkpt><trkpt lat="33.94517" lon="8.4182678"><ele>12.0</ele><time>2026-04-29T16:10:02.464Z</time></trkpt><trkpt lat="33.945022" lon="8.418318"><ele>12.5</ele><time>2026-04-29T16:10:03.461Z</time></trkpt><trkpt lat="33.9448795" lon="8.4183675"><ele>13.0</ele><time>2026-04-29T16:10:04.458Z</time></trkpt><trkpt lat="33.9447433" lon="8.4184141"><ele>13.5</ele><time>2026-04-29T16:10:05.49Z</time></trkpt><trkpt lat="33.9446101" lon="8.4184594"><ele>14.0</ele><time>2026-04-29T16:10:06.471Z</time></trkpt><trkpt lat="33.9444726" lon="8.4185025"><ele>14.0</ele><time>2026-04-29T16:10:07.457Z</time></trkpt><trkpt lat="33.9443474" lon="8.4185455"><ele>14.0</ele><time>2026-04-29T16:10:08.461Z</time></trkpt><trkpt lat="33.9442246" lon="8.4185815"><ele>14.0</ele><time>2026-04-29T16:10:09.449Z</time></trkpt><trkpt lat="33.9441165" lon="8.4186165"><ele>14.0</ele><time>2026-04-29T16:10:10.463Z</time></trkpt><trkpt lat="33.9440236" lon="8.4186485"><ele>14.166666666666668</ele><time>2026-04-29T16:10:11.465Z</time></trkpt><trkpt lat="33.9439305" lon="8.4186758"><ele>14.333333333333334</ele><time>2026-04-29T16:10:12.468Z</time></trkpt><trkpt lat="33.9438496" lon="8.4187084"><ele>14.5</ele><time>2026-04-29T16:10:13.457Z</time></trkpt><trkpt lat="33.9437717" lon="8.418737"><ele>14.666666666666668</ele><time>2026-04-29T16:10:14.466Z</time></trkpt><trkpt lat="33.9436979" lon="8.4187589"><ele>14.833333333333334</ele><time>2026-04-29T16:10:15.461Z</time></trkpt><trkpt lat="33.9436251" lon="8.4187866"><ele>15.0</ele><time>2026-04-29T16:10:16.47Z</time></trkpt><trkpt lat="33.9435562" lon="8.4188115"><ele>15.0</ele><time>2026-04-29T16:10:17.473Z</time></trkpt><trkpt lat="33.9434956" lon="8.4188325"><ele>15.0</ele><time>2026-04-29T16:10:18.472Z</time></trkpt><trkpt lat="33.9434334" lon="8.4188564"><ele>15.0</ele><time>2026-04-29T16:10:19.464Z</time></trkpt><trkpt lat="33.9433721" lon="8.4188788"><ele>15.0</ele><time>2026-04-29T16:10:20.466Z</time></trkpt><trkpt lat="33.9432633" lon="8.4189145"><ele>15.0</ele><time>2026-04-29T16:10:22.474Z</time></trkpt><trkpt lat="33.943162" lon="8.4189567"><ele>15.0</ele><time>2026-04-29T16:10:24.469Z</time></trkpt><trkpt lat="33.9431214" lon="8.4190474"><ele>14.833333333333334</ele><time>2026-04-29T16:10:26.449Z</time></trkpt><trkpt lat="33.9430851" lon="8.4191289"><ele>14.666666666666668</ele><time>2026-04-29T16:10:28.472Z</time></trkpt><trkpt lat="33.9430746" lon="8.4192415"><ele>14.5</ele><time>2026-04-29T16:10:31.444Z</time></trkpt><trkpt lat="33.9431375" lon="8.419293"><ele>14.333333333333334</ele><time>2026-04-29T16:10:33.473Z</time></trkpt><trkpt lat="33.9432036" lon="8.4192696"><ele>14.166666666666668</ele><time>2026-04-29T16:10:35.463Z</time></trkpt><trkpt lat="33.9432249" lon="8.4191733"><ele>14.0</ele><time>2026-04-29T16:10:37.458Z</time></trkpt><trkpt lat="33.9431758" lon="8.4191074"><ele>14.0</ele><time>2026-04-29T16:10:39.466Z</time></trkpt><trkpt lat="33.9430891" lon="8.4190193"><ele>13.999999999999998</ele><time>2026-04-29T16:10:41.463Z</time></trkpt><trkpt lat="33.9430369" lon="8.4189762"><ele>13.999999999999998</ele><time>2026-04-29T16:10:42.459Z</time></trkpt><trkpt lat="33.9429279" lon="8.4189593"><ele>14.0</ele><time>2026-04-29T16:10:44.468Z</time></trkpt><trkpt lat="33.9428315" lon="8.4190022"><ele>14.0</ele><time>2026-04-29T16:10:46.472Z</time></trkpt><trkpt lat="33.9427665" lon="8.4190809"><ele>14.000000000000002</ele><time>2026-04-29T16:10:48.458Z</time></trkpt><trkpt lat="33.9426892" lon="8.4191368"><ele>14.0</ele><time>2026-04-29T16:10:50.432Z</time></trkpt><trkpt lat="33.9426684" lon="8.4192285"><ele>14.0</ele><time>2026-04-29T16:10:52.462Z</time></trkpt><trkpt lat="33.9426984" lon="8.4193148"><ele>14.0</ele><time>2026-04-29T16:10:54.432Z</time></trkpt><trkpt lat="33.9427678" lon="8.4193813"><ele>14.000000000000002</ele><time>2026-04-29T16:10:56.457Z</time></trkpt><trkpt lat="33.9428267" lon="8.4194224"><ele>14.0</ele><time>2026-04-29T16:10:57.466Z</time></trkpt><trkpt lat="33.9429125" lon="8.4194663"><ele>14.0</ele><time>2026-04-29T16:10:58.461Z</time></trkpt><trkpt lat="33.9430028" lon="8.4195272"><ele>13.999999999999998</ele><time>2026-04-29T16:10:59.467Z</time></trkpt><trkpt lat="33.9430789" lon="8.419561"><ele>13.999999999999998</ele><time>2026-04-29T16:11:00.47Z</time></trkpt><trkpt lat="33.9431881" lon="8.4195311"><ele>14.0</ele><time>2026-04-29T16:11:02.427Z</time></trkpt><trkpt lat="33.9432455" lon="8.4194483"><ele>14.0</ele><time>2026-04-29T16:11:04.478Z</time></trkpt><trkpt lat="33.9432546" lon="8.4193289"><ele>14.0</ele><time>2026-04-29T16:11:06.424Z</time></trkpt><trkpt lat="33.9432405" lon="8.419209"><ele>13.999999999999998</ele><time>2026-04-29T16:11:07.46Z</time></trkpt><trkpt lat="33.9432348" lon="8.4190774"><ele>13.999999999999998</ele><time>2026-04-29T16:11:08.462Z</time></trkpt><trkpt lat="33.9432249" lon="8.4189808"><ele>14.0</ele><time>2026-04-29T16:11:09.463Z</time></trkpt><trkpt lat="33.9432299" lon="8.4189019"><ele>14.0</ele><time>2026-04-29T16:11:10.463Z</time></trkpt><trkpt lat="33.9432155" lon="8.4187826"><ele>14.000000000000002</ele><time>2026-04-29T16:11:12.413Z</time></trkpt><trkpt lat="33.943157" lon="8.4187037"><ele>14.0</ele><time>2026-04-29T16:11:14.465Z</time></trkpt><trkpt lat="33.9431101" lon="8.4186324"><ele>14.0</ele><time>2026-04-29T16:11:16.449Z</time></trkpt><trkpt lat="33.9430535" lon="8.4185845"><ele>14.0</ele><time>2026-04-29T16:11:18.454Z</time></trkpt><trkpt lat="33.9429777" lon="8.4186113"><ele>14.000000000000002</ele><time>2026-04-29T16:11:20.461Z</time></trkpt><trkpt lat="33.9429175" lon="8.4186519"><ele>14.0</ele><time>2026-04-29T16:11:21.436Z</time></trkpt><trkpt lat="33.9428442" lon="8.4186784"><ele>14.000000000000002</ele><time>2026-04-29T16:11:22.465Z</time></trkpt><trkpt lat="33.9427806" lon="8.4187115"><ele>14.0</ele><time>2026-04-29T16:11:23.467Z</time></trkpt><trkpt lat="33.9427134" lon="8.4187826"><ele>14.0</ele><time>2026-04-29T16:11:25.408Z</time></trkpt><trkpt lat="33.9426986" lon="8.418889"><ele>14.0</ele><time>2026-04-29T16:11:27.468Z</time></trkpt><trkpt lat="33.9427253" lon="8.4189988"><ele>14.000000000000002</ele><time>2026-04-29T16:11:29.428Z</time></trkpt><trkpt lat="33.9427816" lon="8.4190793"><ele>14.0</ele><time>2026-04-29T16:11:31.433Z</time></trkpt><trkpt lat="33.9428481" lon="8.4191236"><ele>14.000000000000002</ele><time>2026-04-29T16:11:33.452Z</time></trkpt><trkpt lat="33.9429373" lon="8.4191442"><ele>14.0</ele><time>2026-04-29T16:11:36.447Z</time></trkpt><trkpt lat="33.9429968" lon="8.4191774"><ele>14.0</ele><time>2026-04-29T16:11:42.454Z</time></trkpt><trkpt lat="33.9430518" lon="8.4192311"><ele>14.0</ele><time>2026-04-29T16:14:30.472Z</time></trkpt><trkpt lat="33.9431128" lon="8.4191879"><ele>14.000000000000002</ele><time>2026-04-29T16:14:33.48Z</time></trkpt><trkpt lat="33.9431567" lon="8.4191189"><ele>14.0</ele><time>2026-04-29T16:14:37.425Z</time></trkpt><trkpt lat="33.9430816" lon="8.41897"><ele>14.0</ele><time>2026-04-29T16:14:44.41Z</time></trkpt><trkpt lat="33.9430088" lon="8.4189607"><ele>14.0</ele><time>2026-04-29T16:14:47.482Z</time></trkpt><trkpt lat="33.9429398" lon="8.4189884"><ele>14.0</ele><time>2026-04-29T16:14:50.421Z</time></trkpt><trkpt lat="33.9429129" lon="8.419071"><ele>14.0</ele><time>2026-04-29T16:14:54.44Z</time></trkpt></trkseg><trkseg><trkpt lat="33.9430188" lon="8.4190081"><ele>14.0</ele><time>2026-04-29T16:36:48.434Z</time></trkpt><trkpt lat="33.943013" lon="8.4189197"><ele>13.999999999999998</ele><time>2026-04-29T16:36:51.443Z</time></trkpt><trkpt lat="33.9429266" lon="8.4189003"><ele>13.999999999999998</ele><time>2026-04-29T16:36:53.442Z</time></trkpt><trkpt lat="33.9428083" lon="8.4189343"><ele>14.0</ele><time>2026-04-29T16:36:55.451Z</time></trkpt><trkpt lat="33.9427263" lon="8.4189945"><ele>14.0</ele><time>2026-04-29T16:36:56.446Z</time></trkpt><trkpt lat="33.9426079" lon="8.4190643"><ele>14.2</ele><time>2026-04-29T16:36:57.449Z</time></trkpt><trkpt lat="33.9425058" lon="8.4191328"><ele>14.399999999999999</ele><time>2026-04-29T16:36:58.456Z</time></trkpt><trkpt lat="33.9424251" lon="8.4191776"><ele>14.6</ele><time>2026-04-29T16:36:59.44Z</time></trkpt><trkpt lat="33.9423624" lon="8.4192217"><ele>14.8</ele><time>2026-04-29T16:37:00.472Z</time></trkpt><trkpt lat="33.9422729" lon="8.4192844"><ele>15.0</ele><time>2026-04-29T16:37:02.483Z</time></trkpt><trkpt lat="33.9422296" lon="8.4193542"><ele>15.0</ele><time>2026-04-29T16:37:04.433Z</time></trkpt><trkpt lat="33.9422977" lon="8.4193966"><ele>15.0</ele><time>2026-04-29T16:37:08.438Z</time></trkpt><trkpt lat="33.9423534" lon="8.419357"><ele>15.0</ele><time>2026-04-29T16:37:09.445Z</time></trkpt><trkpt lat="33.9424166" lon="8.419315"><ele>15.0</ele><time>2026-04-29T16:37:10.468Z</time></trkpt><trkpt lat="33.9424751" lon="8.419277"><ele>15.0</ele><time>2026-04-29T16:37:11.451Z</time></trkpt><trkpt lat="33.942556" lon="8.4192322"><ele>15.0</ele><time>2026-04-29T16:37:12.439Z</time></trkpt><trkpt lat="33.9426522" lon="8.419182"><ele>14.8</ele><time>2026-04-29T16:37:13.451Z</time></trkpt><trkpt lat="33.9427466" lon="8.4191274"><ele>14.6</ele><time>2026-04-29T16:37:14.423Z</time></trkpt><trkpt lat="33.9428282" lon="8.4190697"><ele>14.399999999999999</ele><time>2026-04-29T16:37:15.463Z</time></trkpt><trkpt lat="33.9429206" lon="8.419006"><ele>14.2</ele><time>2026-04-29T16:37:16.473Z</time></trkpt><trkpt lat="33.9430196" lon="8.4189496"><ele>14.0</ele><time>2026-04-29T16:37:17.455Z</time></trkpt><trkpt lat="33.9431115" lon="8.4189041"><ele>14.0</ele><time>2026-04-29T16:37:18.465Z</time></trkpt><trkpt lat="33.9432053" lon="8.4188575"><ele>14.0</ele><time>2026-04-29T16:37:19.468Z</time></trkpt><trkpt lat="33.9432949" lon="8.4188193"><ele>14.0</ele><time>2026-04-29T16:37:20.448Z</time></trkpt><trkpt lat="33.9434001" lon="8.4187826"><ele>14.0</ele><time>2026-04-29T16:37:21.431Z</time></trkpt><trkpt lat="33.9435468" lon="8.4187372"><ele>14.333333333333334</ele><time>2026-04-29T16:37:22.434Z</time></trkpt><trkpt lat="33.9437218" lon="8.4186883"><ele>14.666666666666668</ele><time>2026-04-29T16:37:23.444Z</time></trkpt><trkpt lat="33.9439143" lon="8.4186231"><ele>15.0</ele><time>2026-04-29T16:37:24.461Z</time></trkpt><trkpt lat="33.9441284" lon="8.4185487"><ele>14.5</ele><time>2026-04-29T16:37:25.452Z</time></trkpt><trkpt lat="33.9443576" lon="8.4184746"><ele>14.0</ele><time>2026-04-29T16:37:26.457Z</time></trkpt><trkpt lat="33.9445816" lon="8.4184091"><ele>14.0</ele><time>2026-04-29T16:37:27.464Z</time></trkpt><trkpt lat="33.9447865" lon="8.4183584"><ele>14.0</ele><time>2026-04-29T16:37:28.455Z</time></trkpt><trkpt lat="33.944968" lon="8.4183086"><ele>14.0</ele><time>2026-04-29T16:37:29.411Z</time></trkpt><trkpt lat="33.9451382" lon="8.4182574"><ele>13.5</ele><time>2026-04-29T16:37:30.446Z</time></trkpt><trkpt lat="33.9452862" lon="8.4182098"><ele>13.0</ele><time>2026-04-29T16:37:31.452Z</time></trkpt><trkpt lat="33.9454264" lon="8.418164"><ele>12.5</ele><time>2026-04-29T16:37:32.428Z</time></trkpt><trkpt lat="33.9455593" lon="8.4181227"><ele>12.0</ele><time>2026-04-29T16:37:33.462Z</time></trkpt><trkpt lat="33.9456765" lon="8.4180881"><ele>12.0</ele><time>2026-04-29T16:37:34.459Z</time></trkpt><trkpt lat="33.9457806" lon="8.4180557"><ele>12.0</ele><time>2026-04-29T16:37:35.463Z</time></trkpt><trkpt lat="33.9459097" lon="8.4180267"><ele>12.0</ele><time>2026-04-29T16:37:36.481Z</time></trkpt><trkpt lat="33.9460955" lon="8.4179715"><ele>12.0</ele><time>2026-04-29T16:37:37.445Z</time></trkpt><trkpt lat="33.9463146" lon="8.4179112"><ele>13.5</ele><time>2026-04-29T16:37:38.459Z</time></trkpt><trkpt lat="33.9465729" lon="8.4178438"><ele>15.0</ele><time>2026-04-29T16:37:39.444Z</time></trkpt><trkpt lat="33.9468385" lon="8.417762"><ele>15.0</ele><time>2026-04-29T16:37:40.459Z</time></trkpt><trkpt lat="33.9470778" lon="8.4176859"><ele>15.0</ele><time>2026-04-29T16:37:41.473Z</time></trkpt><trkpt lat="33.9472825" lon="8.4176223"><ele>15.0</ele><time>2026-04-29T16:37:42.447Z</time></trkpt><trkpt lat="33.947463" lon="8.4175702"><ele>15.0</ele><time>2026-04-29T16:37:43.45Z</time></trkpt><trkpt lat="33.9476176" lon="8.4175286"><ele>15.0</ele><time>2026-04-29T16:37:44.468Z</time></trkpt><trkpt lat="33.9477603" lon="8.417487"><ele>14.75</ele><time>2026-04-29T16:37:45.474Z</time></trkpt><trkpt lat="33.9478874" lon="8.4174497"><ele>14.5</ele><time>2026-04-29T16:37:46.456Z</time></trkpt><trkpt lat="33.9480027" lon="8.417414"><ele>14.25</ele><time>2026-04-29T16:37:47.435Z</time></trkpt><trkpt lat="33.9481002" lon="8.417387"><ele>14.0</ele><time>2026-04-29T16:37:48.463Z</time></trkpt><trkpt lat="33.9481991" lon="8.4173605"><ele>14.0</ele><time>2026-04-29T16:37:49.466Z</time></trkpt><trkpt lat="33.948288" lon="8.4173412"><ele>13.999999999999998</ele><time>2026-04-29T16:37:50.448Z</time></trkpt><trkpt lat="33.9483682" lon="8.4173269"><ele>13.999999999999998</ele><time>2026-04-29T16:37:51.452Z</time></trkpt><trkpt lat="33.9484517" lon="8.4173112"><ele>14.0</ele><time>2026-04-29T16:37:52.474Z</time></trkpt><trkpt lat="33.9485367" lon="8.4172869"><ele>14.0</ele><time>2026-04-29T16:37:53.464Z</time></trkpt><trkpt lat="33.9486475" lon="8.4172442"><ele>14.0</ele><time>2026-04-29T16:37:54.437Z</time></trkpt><trkpt lat="33.948787" lon="8.4172068"><ele>14.0</ele><time>2026-04-29T16:37:55.422Z</time></trkpt><trkpt lat="33.9489415" lon="8.4171702"><ele>14.0</ele><time>2026-04-29T16:37:56.45Z</time></trkpt><trkpt lat="33.9491094" lon="8.4171213"><ele>14.0</ele><time>2026-04-29T16:37:57.456Z</time></trkpt><trkpt lat="33.9492815" lon="8.4170636"><ele>14.0</ele><time>2026-04-29T16:37:58.459Z</time></trkpt><trkpt lat="33.9494388" lon="8.4170026"><ele>14.0</ele><time>2026-04-29T16:37:59.468Z</time></trkpt><trkpt lat="33.9495726" lon="8.416956"><ele>14.0</ele><time>2026-04-29T16:38:00.463Z</time></trkpt><trkpt lat="33.9496909" lon="8.416913"><ele>13.999999999999998</ele><time>2026-04-29T16:38:01.442Z</time></trkpt><trkpt lat="33.9497974" lon="8.4168741"><ele>13.999999999999998</ele><time>2026-04-29T16:38:02.476Z</time></trkpt><trkpt lat="33.9498985" lon="8.4168398"><ele>14.0</ele><time>2026-04-29T16:38:03.457Z</time></trkpt><trkpt lat="33.9499882" lon="8.416803"><ele>14.0</ele><time>2026-04-29T16:38:04.46Z</time></trkpt><trkpt lat="33.9500676" lon="8.4167689"><ele>14.166666666666668</ele><time>2026-04-29T16:38:05.442Z</time></trkpt><trkpt lat="33.9501471" lon="8.4167427"><ele>14.333333333333334</ele><time>2026-04-29T16:38:06.456Z</time></trkpt><trkpt lat="33.9502204" lon="8.4167322"><ele>14.5</ele><time>2026-04-29T16:38:07.464Z</time></trkpt><trkpt lat="33.950294" lon="8.4167272"><ele>14.666666666666668</ele><time>2026-04-29T16:38:08.455Z</time></trkpt><trkpt lat="33.9503611" lon="8.4167262"><ele>14.833333333333334</ele><time>2026-04-29T16:38:09.432Z</time></trkpt><trkpt lat="33.9504853" lon="8.4167397"><ele>15.0</ele><time>2026-04-29T16:38:11.471Z</time></trkpt><trkpt lat="33.9505946" lon="8.4167635"><ele>15.0</ele><time>2026-04-29T16:38:13.439Z</time></trkpt><trkpt lat="33.9506978" lon="8.4167926"><ele>15.0</ele><time>2026-04-29T16:38:15.476Z</time></trkpt><trkpt lat="33.9507973" lon="8.4168119"><ele>15.0</ele><time>2026-04-29T16:38:17.456Z</time></trkpt><trkpt lat="33.9508964" lon="8.4168051"><ele>15.0</ele><time>2026-04-29T16:38:19.465Z</time></trkpt><trkpt lat="33.9509919" lon="8.4167881"><ele>15.0</ele><time>2026-04-29T16:38:21.441Z</time></trkpt><trkpt lat="33.9510788" lon="8.4167518"><ele>14.833333333333334</ele><time>2026-04-29T16:38:23.449Z</time></trkpt><trkpt lat="33.9511648" lon="8.416713"><ele>14.666666666666668</ele><time>2026-04-29T16:38:25.466Z</time></trkpt><trkpt lat="33.9512438" lon="8.4166998"><ele>14.5</ele><time>2026-04-29T16:38:27.43Z</time></trkpt><trkpt lat="33.9513225" lon="8.4167013"><ele>14.333333333333334</ele><time>2026-04-29T16:39:02.434Z</time></trkpt><trkpt lat="33.9513779" lon="8.416623"><ele>14.166666666666668</ele><time>2026-04-29T16:39:04.416Z</time></trkpt><trkpt lat="33.9514077" lon="8.4165375"><ele>14.0</ele><time>2026-04-29T16:39:05.45Z</time></trkpt><trkpt lat="33.9514416" lon="8.4164255"><ele>14.333333333333334</ele><time>2026-04-29T16:39:06.466Z</time></trkpt><trkpt lat="33.9514873" lon="8.416281"><ele>14.666666666666668</ele><time>2026-04-29T16:39:07.481Z</time></trkpt><trkpt lat="33.9515461" lon="8.416109"><ele>15.0</ele><time>2026-04-29T16:39:08.463Z</time></trkpt><trkpt lat="33.9516069" lon="8.4159183"><ele>15.0</ele><time>2026-04-29T16:39:09.433Z</time></trkpt><trkpt lat="33.9516733" lon="8.4157187"><ele>15.0</ele><time>2026-04-29T16:39:10.421Z</time></trkpt><trkpt lat="33.9517466" lon="8.4155162"><ele>15.0</ele><time>2026-04-29T16:39:11.454Z</time></trkpt><trkpt lat="33.9518201" lon="8.4153136"><ele>15.333333333333332</ele><time>2026-04-29T16:39:12.449Z</time></trkpt><trkpt lat="33.9518953" lon="8.415107"><ele>15.666666666666666</ele><time>2026-04-29T16:39:13.448Z</time></trkpt><trkpt lat="33.9519667" lon="8.4148965"><ele>16.0</ele><time>2026-04-29T16:39:14.441Z</time></trkpt><trkpt lat="33.9520406" lon="8.4146835"><ele>15.333333333333332</ele><time>2026-04-29T16:39:15.436Z</time></trkpt><trkpt lat="33.9521148" lon="8.414469"><ele>14.666666666666668</ele><time>2026-04-29T16:39:16.466Z</time></trkpt><trkpt lat="33.9521917" lon="8.4142463"><ele>14.0</ele><time>2026-04-29T16:39:17.457Z</time></trkpt><trkpt lat="33.9522699" lon="8.4140266"><ele>14.0</ele><time>2026-04-29T16:39:18.478Z</time></trkpt><trkpt lat="33.9523435" lon="8.413805"><ele>14.0</ele><time>2026-04-29T16:39:19.471Z</time></trkpt><trkpt lat="33.9524188" lon="8.4135846"><ele>14.0</ele><time>2026-04-29T16:39:20.47Z</time></trkpt><trkpt lat="33.9524942" lon="8.413361"><ele>14.333333333333334</ele><time>2026-04-29T16:39:21.468Z</time></trkpt><trkpt lat="33.9525714" lon="8.413134"><ele>14.666666666666668</ele><time>2026-04-29T16:39:22.473Z</time></trkpt><trkpt lat="33.9526505" lon="8.4129032"><ele>15.0</ele><time>2026-04-29T16:39:23.456Z</time></trkpt><trkpt lat="33.9527293" lon="8.4126715"><ele>15.0</ele><time>2026-04-29T16:39:24.416Z</time></trkpt><trkpt lat="33.9528075" lon="8.4124391"><ele>15.0</ele><time>2026-04-29T16:39:25.417Z</time></trkpt><trkpt lat="33.9528873" lon="8.4122048"><ele>15.0</ele><time>2026-04-29T16:39:26.422Z</time></trkpt><trkpt lat="33.9529664" lon="8.4119591"><ele>15.0</ele><time>2026-04-29T16:39:27.417Z</time></trkpt><trkpt lat="33.9530523" lon="8.4117123"><ele>15.0</ele><time>2026-04-29T16:39:28.408Z</time></trkpt><trkpt lat="33.9531348" lon="8.411463"><ele>15.0</ele><time>2026-04-29T16:39:29.43Z</time></trkpt><trkpt lat="33.9532186" lon="8.4112124"><ele>15.0</ele><time>2026-04-29T16:39:30.408Z</time></trkpt><trkpt lat="33.9533003" lon="8.410963"><ele>15.0</ele><time>2026-04-29T16:39:31.416Z</time></trkpt><trkpt lat="33.9533821" lon="8.4107096"><ele>15.0</ele><time>2026-04-29T16:39:32.419Z</time></trkpt><trkpt lat="33.9534702" lon="8.4104633"><ele>14.666666666666668</ele><time>2026-04-29T16:39:33.413Z</time></trkpt><trkpt lat="33.9535594" lon="8.4102175"><ele>14.333333333333334</ele><time>2026-04-29T16:39:34.416Z</time></trkpt><trkpt lat="33.9536416" lon="8.4099689"><ele>14.0</ele><time>2026-04-29T16:39:35.415Z</time></trkpt><trkpt lat="33.9537258" lon="8.4097205"><ele>14.333333333333334</ele><time>2026-04-29T16:39:36.419Z</time></trkpt><trkpt lat="33.953811" lon="8.4094713"><ele>14.666666666666668</ele><time>2026-04-29T16:39:37.424Z</time></trkpt><trkpt lat="33.9538928" lon="8.4092228"><ele>15.0</ele><time>2026-04-29T16:39:38.407Z</time></trkpt><trkpt lat="33.9539804" lon="8.4089766"><ele>14.666666666666668</ele><time>2026-04-29T16:39:39.419Z</time></trkpt><trkpt lat="33.9540668" lon="8.4087295"><ele>14.333333333333334</ele><time>2026-04-29T16:39:40.412Z</time></trkpt><trkpt lat="33.9541548" lon="8.4084837"><ele>14.0</ele><time>2026-04-29T16:39:41.41Z</time></trkpt><trkpt lat="33.9542371" lon="8.408234"><ele>13.666666666666668</ele><time>2026-04-29T16:39:42.445Z</time></trkpt><trkpt lat="33.9543208" lon="8.4079878"><ele>13.333333333333332</ele><time>2026-04-29T16:39:43.421Z</time></trkpt><trkpt lat="33.9544035" lon="8.4077364"><ele>13.0</ele><time>2026-04-29T16:39:44.446Z</time></trkpt><trkpt lat="33.9544852" lon="8.4074908"><ele>13.0</ele><time>2026-04-29T16:39:45.422Z</time></trkpt><trkpt lat="33.9545673" lon="8.4072459"><ele>13.0</ele><time>2026-04-29T16:39:46.441Z</time></trkpt><trkpt lat="33.9546502" lon="8.4069992"><ele>13.0</ele><time>2026-04-29T16:39:47.449Z</time></trkpt><trkpt lat="33.9547293" lon="8.4067508"><ele>13.666666666666666</ele><time>2026-04-29T16:39:48.418Z</time></trkpt><trkpt lat="33.9548114" lon="8.4065036"><ele>14.333333333333332</ele><time>2026-04-29T16:39:49.417Z</time></trkpt><trkpt lat="33.9548931" lon="8.4062616"><ele>15.0</ele><time>2026-04-29T16:39:50.416Z</time></trkpt><trkpt lat="33.9549768" lon="8.4060196"><ele>15.0</ele><time>2026-04-29T16:39:51.43Z</time></trkpt><trkpt lat="33.9550578" lon="8.4057778"><ele>15.0</ele><time>2026-04-29T16:39:52.465Z</time></trkpt><trkpt lat="33.955141" lon="8.4055396"><ele>15.0</ele><time>2026-04-29T16:39:53.44Z</time></trkpt><trkpt lat="33.9552239" lon="8.4053038"><ele>15.0</ele><time>2026-04-29T16:39:54.45Z</time></trkpt><trkpt lat="33.9553046" lon="8.4050673"><ele>15.0</ele><time>2026-04-29T16:39:55.444Z</time></trkpt><trkpt lat="33.9553853" lon="8.4048325"><ele>15.0</ele><time>2026-04-29T16:39:56.458Z</time></trkpt><trkpt lat="33.9554638" lon="8.4045974"><ele>14.666666666666668</ele><time>2026-04-29T16:39:57.459Z</time></trkpt><trkpt lat="33.9555459" lon="8.4043614"><ele>14.333333333333334</ele><time>2026-04-29T16:39:58.46Z</time></trkpt><trkpt lat="33.9556272" lon="8.4041278"><ele>14.0</ele><time>2026-04-29T16:39:59.453Z</time></trkpt><trkpt lat="33.9557093" lon="8.4038872"><ele>14.0</ele><time>2026-04-29T16:40:00.42Z</time></trkpt><trkpt lat="33.9557947" lon="8.4036477"><ele>14.0</ele><time>2026-04-29T16:40:01.464Z</time></trkpt><trkpt lat="33.9558776" lon="8.4034056"><ele>14.0</ele><time>2026-04-29T16:40:02.457Z</time></trkpt><trkpt lat="33.9559569" lon="8.4031671"><ele>14.333333333333334</ele><time>2026-04-29T16:40:03.461Z</time></trkpt><trkpt lat="33.9560391" lon="8.4029326"><ele>14.666666666666668</ele><time>2026-04-29T16:40:04.437Z</time></trkpt><trkpt lat="33.9561185" lon="8.4026937"><ele>15.0</ele><time>2026-04-29T16:40:05.463Z</time></trkpt><trkpt lat="33.956198" lon="8.4024547"><ele>15.0</ele><time>2026-04-29T16:40:06.456Z</time></trkpt><trkpt lat="33.9562759" lon="8.4022156"><ele>15.0</ele><time>2026-04-29T16:40:07.454Z</time></trkpt><trkpt lat="33.9563554" lon="8.4019756"><ele>15.0</ele><time>2026-04-29T16:40:08.444Z</time></trkpt><trkpt lat="33.9564339" lon="8.4017379"><ele>15.0</ele><time>2026-04-29T16:40:09.446Z</time></trkpt><trkpt lat="33.9565137" lon="8.4015006"><ele>15.0</ele><time>2026-04-29T16:40:10.41Z</time></trkpt><trkpt lat="33.956595" lon="8.4012674"><ele>15.0</ele><time>2026-04-29T16:40:11.427Z</time></trkpt><trkpt lat="33.9566757" lon="8.4010308"><ele>15.0</ele><time>2026-04-29T16:40:12.433Z</time></trkpt><trkpt lat="33.9567549" lon="8.4007938"><ele>15.0</ele><time>2026-04-29T16:40:13.447Z</time></trkpt><trkpt lat="33.9568376" lon="8.4005548"><ele>15.0</ele><time>2026-04-29T16:40:14.446Z</time></trkpt><trkpt lat="33.9569177" lon="8.4003172"><ele>15.333333333333332</ele><time>2026-04-29T16:40:15.417Z</time></trkpt><trkpt lat="33.9569997" lon="8.400077"><ele>15.666666666666666</ele><time>2026-04-29T16:40:16.449Z</time></trkpt><trkpt lat="33.9570811" lon="8.3998366"><ele>16.0</ele><time>2026-04-29T16:40:17.452Z</time></trkpt><trkpt lat="33.9571625" lon="8.3995976"><ele>15.333333333333332</ele><time>2026-04-29T16:40:18.453Z</time></trkpt><trkpt lat="33.9572463" lon="8.3993612"><ele>14.666666666666668</ele><time>2026-04-29T16:40:19.446Z</time></trkpt><trkpt lat="33.9573268" lon="8.3991307"><ele>14.0</ele><time>2026-04-29T16:40:20.426Z</time></trkpt><trkpt lat="33.9574042" lon="8.3989128"><ele>14.0</ele><time>2026-04-29T16:40:21.452Z</time></trkpt><trkpt lat="33.9574773" lon="8.3987015"><ele>14.0</ele><time>2026-04-29T16:40:22.442Z</time></trkpt><trkpt lat="33.9575474" lon="8.3984956"><ele>14.0</ele><time>2026-04-29T16:40:23.451Z</time></trkpt><trkpt lat="33.9576173" lon="8.3982934"><ele>14.0</ele><time>2026-04-29T16:40:24.432Z</time></trkpt><trkpt lat="33.9576843" lon="8.3980924"><ele>14.0</ele><time>2026-04-29T16:40:25.425Z</time></trkpt><trkpt lat="33.9577485" lon="8.3978929"><ele>14.0</ele><time>2026-04-29T16:40:26.442Z</time></trkpt><trkpt lat="33.9578187" lon="8.397691"><ele>14.0</ele><time>2026-04-29T16:40:27.442Z</time></trkpt><trkpt lat="33.9578863" lon="8.3974886"><ele>14.0</ele><time>2026-04-29T16:40:28.457Z</time></trkpt><trkpt lat="33.9579563" lon="8.3972868"><ele>14.0</ele><time>2026-04-29T16:40:29.416Z</time></trkpt><trkpt lat="33.9580277" lon="8.3970827"><ele>14.0</ele><time>2026-04-29T16:40:30.458Z</time></trkpt><trkpt lat="33.9581" lon="8.3968705"><ele>14.0</ele><time>2026-04-29T16:40:31.452Z</time></trkpt><trkpt lat="33.958173" lon="8.3966604"><ele>14.0</ele><time>2026-04-29T16:40:32.453Z</time></trkpt><trkpt lat="33.9582441" lon="8.39645"><ele>14.666666666666668</ele><time>2026-04-29T16:40:33.452Z</time></trkpt><trkpt lat="33.9583162" lon="8.3962367"><ele>15.333333333333332</ele><time>2026-04-29T16:40:34.416Z</time></trkpt><trkpt lat="33.9583873" lon="8.3960221"><ele>16.0</ele><time>2026-04-29T16:40:35.462Z</time></trkpt><trkpt lat="33.9584616" lon="8.3958068"><ele>16.0</ele><time>2026-04-29T16:40:36.446Z</time></trkpt><trkpt lat="33.9585327" lon="8.3955924"><ele>16.0</ele><time>2026-04-29T16:40:37.45Z</time></trkpt><trkpt lat="33.958606" lon="8.3953768"><ele>16.0</ele><time>2026-04-29T16:40:38.448Z</time></trkpt><trkpt lat="33.9586749" lon="8.3951588"><ele>16.0</ele><time>2026-04-29T16:40:39.449Z</time></trkpt><trkpt lat="33.9587444" lon="8.3949457"><ele>16.0</ele><time>2026-04-29T16:40:40.451Z</time></trkpt><trkpt lat="33.9588204" lon="8.3947297"><ele>16.0</ele><time>2026-04-29T16:40:41.452Z</time></trkpt><trkpt lat="33.9588952" lon="8.3945143"><ele>15.666666666666666</ele><time>2026-04-29T16:40:42.45Z</time></trkpt><trkpt lat="33.9589683" lon="8.3943066"><ele>15.333333333333332</ele><time>2026-04-29T16:40:43.447Z</time></trkpt><trkpt lat="33.9590401" lon="8.3940911"><ele>15.0</ele><time>2026-04-29T16:40:44.462Z</time></trkpt><trkpt lat="33.9591119" lon="8.3938781"><ele>15.0</ele><time>2026-04-29T16:40:45.443Z</time></trkpt><trkpt lat="33.9591846" lon="8.3936618"><ele>15.0</ele><time>2026-04-29T16:40:46.454Z</time></trkpt><trkpt lat="33.9592553" lon="8.3934457"><ele>15.0</ele><time>2026-04-29T16:40:47.452Z</time></trkpt><trkpt lat="33.9593289" lon="8.393228"><ele>14.666666666666668</ele><time>2026-04-29T16:40:48.452Z</time></trkpt><trkpt lat="33.9594027" lon="8.393012"><ele>14.333333333333334</ele><time>2026-04-29T16:40:49.438Z</time></trkpt><trkpt lat="33.9594757" lon="8.3928009"><ele>14.0</ele><time>2026-04-29T16:40:50.454Z</time></trkpt><trkpt lat="33.9595482" lon="8.3925905"><ele>14.0</ele><time>2026-04-29T16:40:51.449Z</time></trkpt><trkpt lat="33.9596187" lon="8.3923774"><ele>14.0</ele><time>2026-04-29T16:40:52.441Z</time></trkpt><trkpt lat="33.9596927" lon="8.3921625"><ele>14.0</ele><time>2026-04-29T16:40:53.447Z</time></trkpt><trkpt lat="33.9597634" lon="8.3919463"><ele>14.333333333333334</ele><time>2026-04-29T16:40:54.453Z</time></trkpt><trkpt lat="33.9598385" lon="8.3917279"><ele>14.666666666666668</ele><time>2026-04-29T16:40:55.452Z</time></trkpt><trkpt lat="33.9599123" lon="8.3915127"><ele>15.0</ele><time>2026-04-29T16:40:56.442Z</time></trkpt><trkpt lat="33.9599855" lon="8.3912968"><ele>14.666666666666668</ele><time>2026-04-29T16:40:57.462Z</time></trkpt><trkpt lat="33.9600596" lon="8.3910843"><ele>14.333333333333334</ele><time>2026-04-29T16:40:58.452Z</time></trkpt><trkpt lat="33.9601348" lon="8.3908706"><ele>14.0</ele><time>2026-04-29T16:40:59.429Z</time></trkpt><trkpt lat="33.96021" lon="8.39066"><ele>14.333333333333334</ele><time>2026-04-29T16:41:00.464Z</time></trkpt><trkpt lat="33.960286" lon="8.3904466"><ele>14.666666666666668</ele><time>2026-04-29T16:41:01.461Z</time></trkpt><trkpt lat="33.9603633" lon="8.3902346"><ele>15.0</ele><time>2026-04-29T16:41:02.445Z</time></trkpt><trkpt lat="33.9604454" lon="8.3900263"><ele>15.0</ele><time>2026-04-29T16:41:03.453Z</time></trkpt><trkpt lat="33.9605265" lon="8.3898194"><ele>15.0</ele><time>2026-04-29T16:41:04.454Z</time></trkpt><trkpt lat="33.9606132" lon="8.3896048"><ele>15.0</ele><time>2026-04-29T16:41:05.45Z</time></trkpt><trkpt lat="33.960698" lon="8.3893994"><ele>15.0</ele><time>2026-04-29T16:41:06.429Z</time></trkpt><trkpt lat="33.9607804" lon="8.3891908"><ele>15.0</ele><time>2026-04-29T16:41:07.43Z</time></trkpt><trkpt lat="33.9608609" lon="8.388983"><ele>15.0</ele><time>2026-04-29T16:41:08.443Z</time></trkpt><trkpt lat="33.9609457" lon="8.388774"><ele>15.0</ele><time>2026-04-29T16:41:09.435Z</time></trkpt><trkpt lat="33.9610264" lon="8.3885675"><ele>15.0</ele><time>2026-04-29T16:41:10.456Z</time></trkpt><trkpt lat="33.9611044" lon="8.388358"><ele>15.0</ele><time>2026-04-29T16:41:11.46Z</time></trkpt><trkpt lat="33.9611856" lon="8.3881486"><ele>14.666666666666668</ele><time>2026-04-29T16:41:12.45Z</time></trkpt><trkpt lat="33.9612701" lon="8.3879389"><ele>14.333333333333334</ele><time>2026-04-29T16:41:13.446Z</time></trkpt><trkpt lat="33.9613565" lon="8.3877319"><ele>14.0</ele><time>2026-04-29T16:41:14.425Z</time></trkpt><trkpt lat="33.9614429" lon="8.3875283"><ele>14.0</ele><time>2026-04-29T16:41:15.441Z</time></trkpt><trkpt lat="33.96153" lon="8.3873183"><ele>14.0</ele><time>2026-04-29T16:41:16.445Z</time></trkpt><trkpt lat="33.9616116" lon="8.3871079"><ele>14.0</ele><time>2026-04-29T16:41:17.427Z</time></trkpt><trkpt lat="33.9616959" lon="8.3869022"><ele>14.333333333333334</ele><time>2026-04-29T16:41:18.421Z</time></trkpt><trkpt lat="33.9617774" lon="8.3866949"><ele>14.666666666666668</ele><time>2026-04-29T16:41:19.436Z</time></trkpt><trkpt lat="33.9618604" lon="8.3864868"><ele>15.0</ele><time>2026-04-29T16:41:20.441Z</time></trkpt><trkpt lat="33.9619428" lon="8.3862799"><ele>15.0</ele><time>2026-04-29T16:41:21.425Z</time></trkpt><trkpt lat="33.9620238" lon="8.3860712"><ele>15.0</ele><time>2026-04-29T16:41:22.433Z</time></trkpt><trkpt lat="33.9621086" lon="8.385866"><ele>15.0</ele><time>2026-04-29T16:41:23.434Z</time></trkpt><trkpt lat="33.9621935" lon="8.3856541"><ele>15.0</ele><time>2026-04-29T16:41:24.442Z</time></trkpt><trkpt lat="33.9622756" lon="8.3854453"><ele>15.0</ele><time>2026-04-29T16:41:25.445Z</time></trkpt><trkpt lat="33.9623555" lon="8.3852331"><ele>15.0</ele><time>2026-04-29T16:41:26.445Z</time></trkpt><trkpt lat="33.962438" lon="8.3850261"><ele>15.0</ele><time>2026-04-29T16:41:27.443Z</time></trkpt><trkpt lat="33.9625217" lon="8.384815"><ele>15.0</ele><time>2026-04-29T16:41:28.45Z</time></trkpt><trkpt lat="33.9626051" lon="8.3846042"><ele>15.0</ele><time>2026-04-29T16:41:29.459Z</time></trkpt><trkpt lat="33.9626918" lon="8.3843957"><ele>15.0</ele><time>2026-04-29T16:41:30.47Z</time></trkpt><trkpt lat="33.9627757" lon="8.3841857"><ele>15.0</ele><time>2026-04-29T16:41:31.446Z</time></trkpt><trkpt lat="33.962861" lon="8.3839763"><ele>15.0</ele><time>2026-04-29T16:41:32.45Z</time></trkpt><trkpt lat="33.9629447" lon="8.3837666"><ele>15.0</ele><time>2026-04-29T16:41:33.443Z</time></trkpt><trkpt lat="33.9630278" lon="8.3835571"><ele>15.0</ele><time>2026-04-29T16:41:34.456Z</time></trkpt><trkpt lat="33.963111" lon="8.383348"><ele>15.0</ele><time>2026-04-29T16:41:35.451Z</time></trkpt><trkpt lat="33.9631945" lon="8.3831391"><ele>15.0</ele><time>2026-04-29T16:41:36.451Z</time></trkpt><trkpt lat="33.9632774" lon="8.3829316"><ele>15.0</ele><time>2026-04-29T16:41:37.445Z</time></trkpt><trkpt lat="33.9633595" lon="8.3827263"><ele>15.0</ele><time>2026-04-29T16:41:38.451Z</time></trkpt><trkpt lat="33.9634421" lon="8.3825171"><ele>15.0</ele><time>2026-04-29T16:41:39.44Z</time></trkpt><trkpt lat="33.9635257" lon="8.382309"><ele>15.0</ele><time>2026-04-29T16:41:40.454Z</time></trkpt><trkpt lat="33.9636077" lon="8.3821057"><ele>15.0</ele><time>2026-04-29T16:41:41.412Z</time></trkpt><trkpt lat="33.9636937" lon="8.3818965"><ele>15.0</ele><time>2026-04-29T16:41:42.44Z</time></trkpt><trkpt lat="33.9637797" lon="8.3816861"><ele>15.0</ele><time>2026-04-29T16:41:43.428Z</time></trkpt><trkpt lat="33.963863" lon="8.3814759"><ele>15.0</ele><time>2026-04-29T16:41:44.443Z</time></trkpt><trkpt lat="33.9639494" lon="8.3812699"><ele>15.0</ele><time>2026-04-29T16:41:45.443Z</time></trkpt><trkpt lat="33.9640348" lon="8.3810631"><ele>15.0</ele><time>2026-04-29T16:41:46.452Z</time></trkpt><trkpt lat="33.9641188" lon="8.3808544"><ele>15.0</ele><time>2026-04-29T16:41:47.448Z</time></trkpt><trkpt lat="33.9642046" lon="8.3806507"><ele>14.666666666666668</ele><time>2026-04-29T16:41:48.452Z</time></trkpt><trkpt lat="33.9642883" lon="8.3804408"><ele>14.333333333333334</ele><time>2026-04-29T16:41:49.444Z</time></trkpt><trkpt lat="33.9643702" lon="8.38023"><ele>14.0</ele><time>2026-04-29T16:41:50.451Z</time></trkpt><trkpt lat="33.9644551" lon="8.380025"><ele>14.0</ele><time>2026-04-29T16:41:51.441Z</time></trkpt><trkpt lat="33.9645359" lon="8.3798151"><ele>14.0</ele><time>2026-04-29T16:41:52.451Z</time></trkpt><trkpt lat="33.9646174" lon="8.3796024"><ele>14.0</ele><time>2026-04-29T16:41:53.467Z</time></trkpt><trkpt lat="33.9646958" lon="8.3793913"><ele>14.333333333333334</ele><time>2026-04-29T16:41:54.463Z</time></trkpt><trkpt lat="33.9647778" lon="8.3791844"><ele>14.666666666666668</ele><time>2026-04-29T16:41:55.46Z</time></trkpt><trkpt lat="33.9648639" lon="8.3789786"><ele>15.0</ele><time>2026-04-29T16:41:56.458Z</time></trkpt><trkpt lat="33.9649468" lon="8.3787701"><ele>15.666666666666668</ele><time>2026-04-29T16:41:57.476Z</time></trkpt><trkpt lat="33.9650332" lon="8.3785632"><ele>16.333333333333336</ele><time>2026-04-29T16:41:58.437Z</time></trkpt><trkpt lat="33.9651173" lon="8.3783559"><ele>17.0</ele><time>2026-04-29T16:41:59.444Z</time></trkpt><trkpt lat="33.9651997" lon="8.3781471"><ele>16.333333333333336</ele><time>2026-04-29T16:42:00.414Z</time></trkpt><trkpt lat="33.9652848" lon="8.377941"><ele>15.666666666666668</ele><time>2026-04-29T16:42:01.435Z</time></trkpt><trkpt lat="33.9653657" lon="8.3777329"><ele>15.0</ele><time>2026-04-29T16:42:02.433Z</time></trkpt><trkpt lat="33.9654487" lon="8.3775215"><ele>15.0</ele><time>2026-04-29T16:42:03.458Z</time></trkpt><trkpt lat="33.9655324" lon="8.3773116"><ele>15.0</ele><time>2026-04-29T16:42:04.446Z</time></trkpt><trkpt lat="33.9656146" lon="8.377101"><ele>15.0</ele><time>2026-04-29T16:42:05.455Z</time></trkpt><trkpt lat="33.9656991" lon="8.3768908"><ele>15.0</ele><time>2026-04-29T16:42:06.441Z</time></trkpt><trkpt lat="33.9657822" lon="8.3766826"><ele>15.0</ele><time>2026-04-29T16:42:07.454Z</time></trkpt><trkpt lat="33.9658666" lon="8.3764719"><ele>15.0</ele><time>2026-04-29T16:42:08.439Z</time></trkpt><trkpt lat="33.9659545" lon="8.3762637"><ele>15.666666666666668</ele><time>2026-04-29T16:42:09.461Z</time></trkpt><trkpt lat="33.9660393" lon="8.3760551"><ele>16.333333333333336</ele><time>2026-04-29T16:42:10.468Z</time></trkpt><trkpt lat="33.9661201" lon="8.3758463"><ele>17.0</ele><time>2026-04-29T16:42:11.44Z</time></trkpt><trkpt lat="33.9662054" lon="8.3756395"><ele>16.333333333333336</ele><time>2026-04-29T16:42:12.467Z</time></trkpt><trkpt lat="33.9662909" lon="8.3754332"><ele>15.666666666666668</ele><time>2026-04-29T16:42:13.443Z</time></trkpt><trkpt lat="33.966378" lon="8.3752231"><ele>15.0</ele><time>2026-04-29T16:42:14.451Z</time></trkpt><trkpt lat="33.9664673" lon="8.3750019"><ele>15.0</ele><time>2026-04-29T16:42:15.466Z</time></trkpt><trkpt lat="33.9665555" lon="8.374771"><ele>15.0</ele><time>2026-04-29T16:42:16.452Z</time></trkpt><trkpt lat="33.9666482" lon="8.3745413"><ele>15.0</ele><time>2026-04-29T16:42:17.449Z</time></trkpt><trkpt lat="33.966737" lon="8.3743139"><ele>15.0</ele><time>2026-04-29T16:42:18.464Z</time></trkpt><trkpt lat="33.96683" lon="8.3740821"><ele>15.0</ele><time>2026-04-29T16:42:19.447Z</time></trkpt><trkpt lat="33.9669206" lon="8.373849"><ele>15.0</ele><time>2026-04-29T16:42:20.477Z</time></trkpt><trkpt lat="33.9670104" lon="8.3736113"><ele>14.666666666666668</ele><time>2026-04-29T16:42:21.462Z</time></trkpt><trkpt lat="33.9671045" lon="8.3733778"><ele>14.333333333333334</ele><time>2026-04-29T16:42:22.464Z</time></trkpt><trkpt lat="33.9671963" lon="8.3731444"><ele>14.0</ele><time>2026-04-29T16:42:23.451Z</time></trkpt><trkpt lat="33.9672904" lon="8.3729117"><ele>14.0</ele><time>2026-04-29T16:42:24.461Z</time></trkpt><trkpt lat="33.9673829" lon="8.3726784"><ele>14.0</ele><time>2026-04-29T16:42:25.474Z</time></trkpt><trkpt lat="33.9674815" lon="8.3724411"><ele>14.0</ele><time>2026-04-29T16:42:26.432Z</time></trkpt><trkpt lat="33.9675808" lon="8.3721944"><ele>14.5</ele><time>2026-04-29T16:42:27.451Z</time></trkpt><trkpt lat="33.9676849" lon="8.3719414"><ele>15.0</ele><time>2026-04-29T16:42:28.441Z</time></trkpt><trkpt lat="33.9677858" lon="8.3716819"><ele>15.0</ele><time>2026-04-29T16:42:29.461Z</time></trkpt><trkpt lat="33.967887" lon="8.3714319"><ele>15.0</ele><time>2026-04-29T16:42:30.466Z</time></trkpt><trkpt lat="33.9679861" lon="8.3711827"><ele>15.5</ele><time>2026-04-29T16:42:31.46Z</time></trkpt><trkpt lat="33.968083" lon="8.3709317"><ele>16.0</ele><time>2026-04-29T16:42:32.465Z</time></trkpt><trkpt lat="33.9681833" lon="8.3706817"><ele>15.5</ele><time>2026-04-29T16:42:33.448Z</time></trkpt><trkpt lat="33.9682874" lon="8.3704385"><ele>15.0</ele><time>2026-04-29T16:42:34.463Z</time></trkpt><trkpt lat="33.9683879" lon="8.3701908"><ele>14.0</ele><time>2026-04-29T16:42:35.464Z</time></trkpt><trkpt lat="33.9684897" lon="8.369943"><ele>13.0</ele><time>2026-04-29T16:42:36.463Z</time></trkpt><trkpt lat="33.968591" lon="8.3696954"><ele>14.5</ele><time>2026-04-29T16:42:37.462Z</time></trkpt><trkpt lat="33.9686923" lon="8.3694479"><ele>16.0</ele><time>2026-04-29T16:42:38.43Z</time></trkpt><trkpt lat="33.9687918" lon="8.3691971"><ele>16.0</ele><time>2026-04-29T16:42:39.429Z</time></trkpt><trkpt lat="33.9688923" lon="8.3689463"><ele>16.0</ele><time>2026-04-29T16:42:40.447Z</time></trkpt><trkpt lat="33.9689921" lon="8.3686985"><ele>16.0</ele><time>2026-04-29T16:42:41.454Z</time></trkpt><trkpt lat="33.9690942" lon="8.3684467"><ele>16.0</ele><time>2026-04-29T16:42:42.435Z</time></trkpt><trkpt lat="33.9691954" lon="8.3681993"><ele>15.5</ele><time>2026-04-29T16:42:43.454Z</time></trkpt><trkpt lat="33.9692963" lon="8.3679489"><ele>15.0</ele><time>2026-04-29T16:42:44.46Z</time></trkpt><trkpt lat="33.9693977" lon="8.3676993"><ele>15.0</ele><time>2026-04-29T16:42:45.461Z</time></trkpt><trkpt lat="33.9694959" lon="8.3674468"><ele>15.0</ele><time>2026-04-29T16:42:46.464Z</time></trkpt><trkpt lat="33.9695968" lon="8.367193"><ele>16.0</ele><time>2026-04-29T16:42:47.456Z</time></trkpt><trkpt lat="33.9696968" lon="8.3669447"><ele>17.0</ele><time>2026-04-29T16:42:48.464Z</time></trkpt><trkpt lat="33.9697993" lon="8.3666971"><ele>17.0</ele><time>2026-04-29T16:42:49.444Z</time></trkpt><trkpt lat="33.9698968" lon="8.3664498"><ele>17.0</ele><time>2026-04-29T16:42:50.469Z</time></trkpt><trkpt lat="33.969996" lon="8.3662021"><ele>15.5</ele><time>2026-04-29T16:42:51.445Z</time></trkpt><trkpt lat="33.9700967" lon="8.3659554"><ele>14.0</ele><time>2026-04-29T16:42:52.465Z</time></trkpt><trkpt lat="33.9701967" lon="8.3657085"><ele>13.5</ele><time>2026-04-29T16:42:53.461Z</time></trkpt><trkpt lat="33.9702954" lon="8.3654561"><ele>13.0</ele><time>2026-04-29T16:42:54.455Z</time></trkpt><trkpt lat="33.9703975" lon="8.3652052"><ele>13.0</ele><time>2026-04-29T16:42:55.466Z</time></trkpt><trkpt lat="33.9704978" lon="8.3649553"><ele>13.0</ele><time>2026-04-29T16:42:56.452Z</time></trkpt><trkpt lat="33.9705956" lon="8.3647066"><ele>14.0</ele><time>2026-04-29T16:42:57.462Z</time></trkpt><trkpt lat="33.9706973" lon="8.3644562"><ele>15.0</ele><time>2026-04-29T16:42:58.443Z</time></trkpt><trkpt lat="33.9707971" lon="8.3642067"><ele>15.0</ele><time>2026-04-29T16:42:59.473Z</time></trkpt><trkpt lat="33.970895" lon="8.3639555"><ele>15.0</ele><time>2026-04-29T16:43:00.463Z</time></trkpt><trkpt lat="33.9709926" lon="8.3637082"><ele>15.0</ele><time>2026-04-29T16:43:01.467Z</time></trkpt><trkpt lat="33.9710898" lon="8.3634621"><ele>15.0</ele><time>2026-04-29T16:43:02.459Z</time></trkpt><trkpt lat="33.9711914" lon="8.3632181"><ele>15.333333333333332</ele><time>2026-04-29T16:43:03.47Z</time></trkpt><trkpt lat="33.971286" lon="8.362978"><ele>15.666666666666666</ele><time>2026-04-29T16:43:04.461Z</time></trkpt><trkpt lat="33.971384" lon="8.3627363"><ele>16.0</ele><time>2026-04-29T16:43:05.461Z</time></trkpt><trkpt lat="33.9714804" lon="8.362496"><ele>16.0</ele><time>2026-04-29T16:43:06.466Z</time></trkpt><trkpt lat="33.9715736" lon="8.3622595"><ele>16.0</ele><time>2026-04-29T16:43:07.457Z</time></trkpt><trkpt lat="33.9716606" lon="8.3620403"><ele>16.0</ele><time>2026-04-29T16:43:08.452Z</time></trkpt><trkpt lat="33.9717456" lon="8.3618216"><ele>16.333333333333332</ele><time>2026-04-29T16:43:09.461Z</time></trkpt><trkpt lat="33.9718303" lon="8.3616097"><ele>16.666666666666668</ele><time>2026-04-29T16:43:10.44Z</time></trkpt><trkpt lat="33.9719197" lon="8.3614018"><ele>17.0</ele><time>2026-04-29T16:43:11.44Z</time></trkpt><trkpt lat="33.9720068" lon="8.3611907"><ele>17.0</ele><time>2026-04-29T16:43:12.453Z</time></trkpt><trkpt lat="33.972094" lon="8.3609767"><ele>17.0</ele><time>2026-04-29T16:43:13.46Z</time></trkpt><trkpt lat="33.9721812" lon="8.3607598"><ele>17.0</ele><time>2026-04-29T16:43:14.44Z</time></trkpt><trkpt lat="33.9722676" lon="8.3605406"><ele>16.333333333333336</ele><time>2026-04-29T16:43:15.46Z</time></trkpt><trkpt lat="33.9723542" lon="8.3603224"><ele>15.666666666666668</ele><time>2026-04-29T16:43:16.461Z</time></trkpt><trkpt lat="33.9724422" lon="8.3601051"><ele>15.0</ele><time>2026-04-29T16:43:17.456Z</time></trkpt><trkpt lat="33.9725265" lon="8.3598868"><ele>15.0</ele><time>2026-04-29T16:43:18.437Z</time></trkpt><trkpt lat="33.9726127" lon="8.3596679"><ele>15.0</ele><time>2026-04-29T16:43:19.459Z</time></trkpt><trkpt lat="33.9726969" lon="8.3594496"><ele>15.0</ele><time>2026-04-29T16:43:20.441Z</time></trkpt><trkpt lat="33.972784" lon="8.3592372"><ele>15.0</ele><time>2026-04-29T16:43:21.438Z</time></trkpt><trkpt lat="33.9728743" lon="8.3590239"><ele>15.0</ele><time>2026-04-29T16:43:22.462Z</time></trkpt><trkpt lat="33.9729626" lon="8.3588063"><ele>15.0</ele><time>2026-04-29T16:43:23.441Z</time></trkpt><trkpt lat="33.97305" lon="8.3585869"><ele>15.333333333333332</ele><time>2026-04-29T16:43:24.476Z</time></trkpt><trkpt lat="33.9731352" lon="8.358369"><ele>15.666666666666666</ele><time>2026-04-29T16:43:25.461Z</time></trkpt><trkpt lat="33.9732228" lon="8.358152"><ele>16.0</ele><time>2026-04-29T16:43:26.463Z</time></trkpt><trkpt lat="33.9733087" lon="8.3579359"><ele>15.0</ele><time>2026-04-29T16:43:27.461Z</time></trkpt><trkpt lat="33.9733941" lon="8.3577191"><ele>14.0</ele><time>2026-04-29T16:43:28.455Z</time></trkpt><trkpt lat="33.9734785" lon="8.3575019"><ele>13.0</ele><time>2026-04-29T16:43:29.453Z</time></trkpt><trkpt lat="33.9735665" lon="8.3572872"><ele>14.333333333333332</ele><time>2026-04-29T16:43:30.443Z</time></trkpt><trkpt lat="33.973653" lon="8.3570714"><ele>15.666666666666668</ele><time>2026-04-29T16:43:31.458Z</time></trkpt><trkpt lat="33.9737427" lon="8.3568532"><ele>17.0</ele><time>2026-04-29T16:43:32.462Z</time></trkpt><trkpt lat="33.9738276" lon="8.3566389"><ele>17.0</ele><time>2026-04-29T16:43:33.457Z</time></trkpt><trkpt lat="33.9739174" lon="8.3564259"><ele>17.0</ele><time>2026-04-29T16:43:34.459Z</time></trkpt><trkpt lat="33.9740019" lon="8.3562072"><ele>17.0</ele><time>2026-04-29T16:43:35.465Z</time></trkpt><trkpt lat="33.9740861" lon="8.3559923"><ele>16.666666666666668</ele><time>2026-04-29T16:43:36.457Z</time></trkpt><trkpt lat="33.9741693" lon="8.3557757"><ele>16.333333333333332</ele><time>2026-04-29T16:43:37.466Z</time></trkpt><trkpt lat="33.9742584" lon="8.3555568"><ele>16.0</ele><time>2026-04-29T16:43:38.442Z</time></trkpt><trkpt lat="33.9743468" lon="8.3553444"><ele>15.333333333333332</ele><time>2026-04-29T16:43:39.458Z</time></trkpt><trkpt lat="33.9744335" lon="8.3551291"><ele>14.666666666666668</ele><time>2026-04-29T16:43:40.45Z</time></trkpt><trkpt lat="33.9745215" lon="8.3549152"><ele>14.0</ele><time>2026-04-29T16:43:41.452Z</time></trkpt><trkpt lat="33.9746088" lon="8.3547004"><ele>14.0</ele><time>2026-04-29T16:43:42.468Z</time></trkpt><trkpt lat="33.9746951" lon="8.3544841"><ele>14.0</ele><time>2026-04-29T16:43:43.452Z</time></trkpt><trkpt lat="33.9747772" lon="8.354267"><ele>14.0</ele><time>2026-04-29T16:43:44.452Z</time></trkpt><trkpt lat="33.9748622" lon="8.3540499"><ele>13.666666666666668</ele><time>2026-04-29T16:43:45.473Z</time></trkpt><trkpt lat="33.9749483" lon="8.3538333"><ele>13.333333333333332</ele><time>2026-04-29T16:43:46.459Z</time></trkpt><trkpt lat="33.9750373" lon="8.3536173"><ele>13.0</ele><time>2026-04-29T16:43:47.458Z</time></trkpt><trkpt lat="33.9751241" lon="8.3533988"><ele>13.0</ele><time>2026-04-29T16:43:48.471Z</time></trkpt><trkpt lat="33.9752116" lon="8.3531841"><ele>13.0</ele><time>2026-04-29T16:43:49.454Z</time></trkpt><trkpt lat="33.9752994" lon="8.352968"><ele>13.0</ele><time>2026-04-29T16:43:50.445Z</time></trkpt><trkpt lat="33.9753877" lon="8.3527496"><ele>13.666666666666666</ele><time>2026-04-29T16:43:51.453Z</time></trkpt><trkpt lat="33.9754757" lon="8.3525337"><ele>14.333333333333332</ele><time>2026-04-29T16:43:52.459Z</time></trkpt><trkpt lat="33.9755592" lon="8.3523157"><ele>15.0</ele><time>2026-04-29T16:43:53.458Z</time></trkpt><trkpt lat="33.9756442" lon="8.352098"><ele>15.0</ele><time>2026-04-29T16:43:54.474Z</time></trkpt><trkpt lat="33.9757333" lon="8.3518801"><ele>15.0</ele><time>2026-04-29T16:43:55.433Z</time></trkpt><trkpt lat="33.9758203" lon="8.3516624"><ele>15.0</ele><time>2026-04-29T16:43:56.446Z</time></trkpt><trkpt lat="33.9759061" lon="8.3514476"><ele>14.333333333333332</ele><time>2026-04-29T16:43:57.467Z</time></trkpt><trkpt lat="33.975992" lon="8.3512327"><ele>13.666666666666666</ele><time>2026-04-29T16:43:58.434Z</time></trkpt><trkpt lat="33.9760782" lon="8.3510183"><ele>13.0</ele><time>2026-04-29T16:43:59.459Z</time></trkpt><trkpt lat="33.9761658" lon="8.3508005"><ele>13.0</ele><time>2026-04-29T16:44:00.452Z</time></trkpt><trkpt lat="33.9762501" lon="8.3505845"><ele>13.0</ele><time>2026-04-29T16:44:01.461Z</time></trkpt><trkpt lat="33.9763348" lon="8.3503618"><ele>13.0</ele><time>2026-04-29T16:44:02.46Z</time></trkpt><trkpt lat="33.9764211" lon="8.3501424"><ele>14.0</ele><time>2026-04-29T16:44:03.464Z</time></trkpt><trkpt lat="33.9765076" lon="8.3499271"><ele>15.0</ele><time>2026-04-29T16:44:04.457Z</time></trkpt><trkpt lat="33.9765939" lon="8.3497115"><ele>16.0</ele><time>2026-04-29T16:44:05.449Z</time></trkpt><trkpt lat="33.976681" lon="8.3494963"><ele>15.666666666666666</ele><time>2026-04-29T16:44:06.434Z</time></trkpt><trkpt lat="33.9767661" lon="8.3492806"><ele>15.333333333333332</ele><time>2026-04-29T16:44:07.47Z</time></trkpt><trkpt lat="33.9768532" lon="8.3490693"><ele>15.0</ele><time>2026-04-29T16:44:08.45Z</time></trkpt><trkpt lat="33.9769377" lon="8.3488525"><ele>15.0</ele><time>2026-04-29T16:44:09.446Z</time></trkpt><trkpt lat="33.9770263" lon="8.3486388"><ele>15.0</ele><time>2026-04-29T16:44:10.456Z</time></trkpt><trkpt lat="33.9771122" lon="8.3484221"><ele>15.0</ele><time>2026-04-29T16:44:11.456Z</time></trkpt><trkpt lat="33.9771984" lon="8.3482063"><ele>15.666666666666668</ele><time>2026-04-29T16:44:12.437Z</time></trkpt><trkpt lat="33.9772829" lon="8.3479926"><ele>16.333333333333336</ele><time>2026-04-29T16:44:13.471Z</time></trkpt><trkpt lat="33.9773696" lon="8.3477793"><ele>17.0</ele><time>2026-04-29T16:44:14.451Z</time></trkpt><trkpt lat="33.9774556" lon="8.3475623"><ele>16.333333333333336</ele><time>2026-04-29T16:44:15.467Z</time></trkpt><trkpt lat="33.9775426" lon="8.3473456"><ele>15.666666666666668</ele><time>2026-04-29T16:44:16.484Z</time></trkpt><trkpt lat="33.9776309" lon="8.3471302"><ele>15.0</ele><time>2026-04-29T16:44:17.461Z</time></trkpt><trkpt lat="33.9777172" lon="8.346914"><ele>15.0</ele><time>2026-04-29T16:44:18.457Z</time></trkpt><trkpt lat="33.9778032" lon="8.3466988"><ele>15.0</ele><time>2026-04-29T16:44:19.465Z</time></trkpt><trkpt lat="33.9778913" lon="8.3464833"><ele>15.0</ele><time>2026-04-29T16:44:20.474Z</time></trkpt><trkpt lat="33.9779783" lon="8.3462665"><ele>15.0</ele><time>2026-04-29T16:44:21.456Z</time></trkpt><trkpt lat="33.9780637" lon="8.3460495"><ele>15.0</ele><time>2026-04-29T16:44:22.454Z</time></trkpt><trkpt lat="33.978148" lon="8.3458353"><ele>15.0</ele><time>2026-04-29T16:44:23.455Z</time></trkpt><trkpt lat="33.9782364" lon="8.3456215"><ele>15.0</ele><time>2026-04-29T16:44:24.444Z</time></trkpt><trkpt lat="33.978323" lon="8.3454008"><ele>15.0</ele><time>2026-04-29T16:44:25.46Z</time></trkpt><trkpt lat="33.9784091" lon="8.3451829"><ele>15.0</ele><time>2026-04-29T16:44:26.456Z</time></trkpt><trkpt lat="33.9784973" lon="8.3449662"><ele>15.0</ele><time>2026-04-29T16:44:27.472Z</time></trkpt><trkpt lat="33.9785838" lon="8.3447521"><ele>15.0</ele><time>2026-04-29T16:44:28.457Z</time></trkpt><trkpt lat="33.9786718" lon="8.3445359"><ele>15.0</ele><time>2026-04-29T16:44:29.465Z</time></trkpt><trkpt lat="33.9787647" lon="8.3443184"><ele>15.333333333333332</ele><time>2026-04-29T16:44:30.416Z</time></trkpt><trkpt lat="33.9788512" lon="8.3441013"><ele>15.666666666666666</ele><time>2026-04-29T16:44:31.403Z</time></trkpt><trkpt lat="33.9789365" lon="8.3438859"><ele>16.0</ele><time>2026-04-29T16:44:32.421Z</time></trkpt><trkpt lat="33.9790221" lon="8.3436674"><ele>16.0</ele><time>2026-04-29T16:44:33.457Z</time></trkpt><trkpt lat="33.9791117" lon="8.3434533"><ele>16.0</ele><time>2026-04-29T16:44:34.434Z</time></trkpt><trkpt lat="33.9791992" lon="8.3432385"><ele>16.0</ele><time>2026-04-29T16:44:35.426Z</time></trkpt><trkpt lat="33.9792877" lon="8.3430187"><ele>16.0</ele><time>2026-04-29T16:44:36.445Z</time></trkpt><trkpt lat="33.9793758" lon="8.3428034"><ele>16.0</ele><time>2026-04-29T16:44:37.418Z</time></trkpt><trkpt lat="33.979463" lon="8.3425864"><ele>16.0</ele><time>2026-04-29T16:44:38.437Z</time></trkpt><trkpt lat="33.979549" lon="8.3423726"><ele>15.333333333333332</ele><time>2026-04-29T16:44:39.47Z</time></trkpt><trkpt lat="33.9796354" lon="8.342152"><ele>14.666666666666668</ele><time>2026-04-29T16:44:40.457Z</time></trkpt><trkpt lat="33.9797266" lon="8.3419284"><ele>14.0</ele><time>2026-04-29T16:44:41.438Z</time></trkpt><trkpt lat="33.9798135" lon="8.341699"><ele>14.0</ele><time>2026-04-29T16:44:42.434Z</time></trkpt><trkpt lat="33.9799034" lon="8.3414643"><ele>14.0</ele><time>2026-04-29T16:44:43.439Z</time></trkpt><trkpt lat="33.9800007" lon="8.3412294"><ele>14.0</ele><time>2026-04-29T16:44:44.462Z</time></trkpt><trkpt lat="33.980094" lon="8.3409956"><ele>14.333333333333334</ele><time>2026-04-29T16:44:45.46Z</time></trkpt><trkpt lat="33.9801851" lon="8.3407634"><ele>14.666666666666668</ele><time>2026-04-29T16:44:46.445Z</time></trkpt><trkpt lat="33.9802762" lon="8.3405386"><ele>15.0</ele><time>2026-04-29T16:44:47.475Z</time></trkpt><trkpt lat="33.9803655" lon="8.3403106"><ele>15.333333333333332</ele><time>2026-04-29T16:44:48.454Z</time></trkpt><trkpt lat="33.9804524" lon="8.3400849"><ele>15.666666666666666</ele><time>2026-04-29T16:44:49.457Z</time></trkpt><trkpt lat="33.9805435" lon="8.3398538"><ele>16.0</ele><time>2026-04-29T16:44:50.464Z</time></trkpt><trkpt lat="33.9806326" lon="8.3396267"><ele>16.333333333333332</ele><time>2026-04-29T16:44:51.438Z</time></trkpt><trkpt lat="33.9807254" lon="8.3393987"><ele>16.666666666666668</ele><time>2026-04-29T16:44:52.449Z</time></trkpt><trkpt lat="33.9808208" lon="8.3391694"><ele>17.0</ele><time>2026-04-29T16:44:53.45Z</time></trkpt><trkpt lat="33.9809129" lon="8.3389392"><ele>16.333333333333336</ele><time>2026-04-29T16:44:54.461Z</time></trkpt><trkpt lat="33.9810081" lon="8.3387087"><ele>15.666666666666668</ele><time>2026-04-29T16:44:55.478Z</time></trkpt><trkpt lat="33.9810987" lon="8.3384822"><ele>15.0</ele><time>2026-04-29T16:44:56.463Z</time></trkpt><trkpt lat="33.9811912" lon="8.3382543"><ele>15.0</ele><time>2026-04-29T16:44:57.411Z</time></trkpt><trkpt lat="33.9812842" lon="8.3380282"><ele>15.0</ele><time>2026-04-29T16:44:58.453Z</time></trkpt><trkpt lat="33.9813774" lon="8.3378002"><ele>15.0</ele><time>2026-04-29T16:44:59.466Z</time></trkpt><trkpt lat="33.9814713" lon="8.3375722"><ele>15.0</ele><time>2026-04-29T16:45:00.475Z</time></trkpt><trkpt lat="33.9815612" lon="8.337341"><ele>15.0</ele><time>2026-04-29T16:45:01.471Z</time></trkpt><trkpt lat="33.9816544" lon="8.3371151"><ele>15.0</ele><time>2026-04-29T16:45:02.46Z</time></trkpt><trkpt lat="33.9817481" lon="8.3368857"><ele>15.0</ele><time>2026-04-29T16:45:03.444Z</time></trkpt><trkpt lat="33.9818376" lon="8.3366562"><ele>15.0</ele><time>2026-04-29T16:45:04.453Z</time></trkpt><trkpt lat="33.9819286" lon="8.3364244"><ele>15.0</ele><time>2026-04-29T16:45:05.461Z</time></trkpt><trkpt lat="33.9820182" lon="8.3361947"><ele>15.0</ele><time>2026-04-29T16:45:06.454Z</time></trkpt><trkpt lat="33.9821122" lon="8.3359657"><ele>15.0</ele><time>2026-04-29T16:45:07.441Z</time></trkpt><trkpt lat="33.982205" lon="8.3357368"><ele>15.0</ele><time>2026-04-29T16:45:08.452Z</time></trkpt><trkpt lat="33.9822992" lon="8.3355114"><ele>15.0</ele><time>2026-04-29T16:45:09.464Z</time></trkpt><trkpt lat="33.9823907" lon="8.3352842"><ele>15.0</ele><time>2026-04-29T16:45:10.47Z</time></trkpt><trkpt lat="33.9824805" lon="8.3350557"><ele>15.0</ele><time>2026-04-29T16:45:11.453Z</time></trkpt><trkpt lat="33.9825697" lon="8.3348221"><ele>14.666666666666668</ele><time>2026-04-29T16:45:12.462Z</time></trkpt><trkpt lat="33.9826596" lon="8.3345885"><ele>14.333333333333334</ele><time>2026-04-29T16:45:13.448Z</time></trkpt><trkpt lat="33.9827519" lon="8.3343617"><ele>14.0</ele><time>2026-04-29T16:45:14.455Z</time></trkpt><trkpt lat="33.9828477" lon="8.3341378"><ele>14.0</ele><time>2026-04-29T16:45:15.467Z</time></trkpt><trkpt lat="33.9829454" lon="8.3339088"><ele>14.0</ele><time>2026-04-29T16:45:16.429Z</time></trkpt><trkpt lat="33.9830385" lon="8.3336797"><ele>14.0</ele><time>2026-04-29T16:45:17.451Z</time></trkpt><trkpt lat="33.983128" lon="8.3334508"><ele>14.666666666666668</ele><time>2026-04-29T16:45:18.456Z</time></trkpt><trkpt lat="33.9832205" lon="8.3332209"><ele>15.333333333333332</ele><time>2026-04-29T16:45:19.444Z</time></trkpt><trkpt lat="33.983314" lon="8.3329933"><ele>16.0</ele><time>2026-04-29T16:45:20.464Z</time></trkpt><trkpt lat="33.9834054" lon="8.3327644"><ele>15.333333333333332</ele><time>2026-04-29T16:45:21.453Z</time></trkpt><trkpt lat="33.9834989" lon="8.3325343"><ele>14.666666666666668</ele><time>2026-04-29T16:45:22.444Z</time></trkpt><trkpt lat="33.9835911" lon="8.3323055"><ele>14.0</ele><time>2026-04-29T16:45:23.456Z</time></trkpt><trkpt lat="33.9836844" lon="8.3320789"><ele>14.0</ele><time>2026-04-29T16:45:24.443Z</time></trkpt><trkpt lat="33.9837751" lon="8.3318523"><ele>14.0</ele><time>2026-04-29T16:45:25.474Z</time></trkpt><trkpt lat="33.9838674" lon="8.3316233"><ele>14.0</ele><time>2026-04-29T16:45:26.452Z</time></trkpt><trkpt lat="33.9839604" lon="8.3313932"><ele>13.333333333333334</ele><time>2026-04-29T16:45:27.451Z</time></trkpt><trkpt lat="33.9840525" lon="8.3311646"><ele>12.666666666666668</ele><time>2026-04-29T16:45:28.443Z</time></trkpt><trkpt lat="33.9841447" lon="8.3309348"><ele>12.0</ele><time>2026-04-29T16:45:29.452Z</time></trkpt><trkpt lat="33.9842356" lon="8.3307043"><ele>13.333333333333332</ele><time>2026-04-29T16:45:30.456Z</time></trkpt><trkpt lat="33.984328" lon="8.3304751"><ele>14.666666666666666</ele><time>2026-04-29T16:45:31.47Z</time></trkpt><trkpt lat="33.9844167" lon="8.3302466"><ele>16.0</ele><time>2026-04-29T16:45:32.469Z</time></trkpt><trkpt lat="33.9845065" lon="8.3300169"><ele>16.0</ele><time>2026-04-29T16:45:33.474Z</time></trkpt><trkpt lat="33.9845981" lon="8.3297887"><ele>16.0</ele><time>2026-04-29T16:45:34.469Z</time></trkpt><trkpt lat="33.9846883" lon="8.329561"><ele>16.0</ele><time>2026-04-29T16:45:35.46Z</time></trkpt><trkpt lat="33.9847808" lon="8.3293325"><ele>16.0</ele><time>2026-04-29T16:45:36.458Z</time></trkpt><trkpt lat="33.9848736" lon="8.3291017"><ele>16.0</ele><time>2026-04-29T16:45:37.459Z</time></trkpt><trkpt lat="33.984964" lon="8.3288736"><ele>16.0</ele><time>2026-04-29T16:45:38.453Z</time></trkpt><trkpt lat="33.9850566" lon="8.328644"><ele>16.0</ele><time>2026-04-29T16:45:39.448Z</time></trkpt><trkpt lat="33.9851464" lon="8.3284159"><ele>16.0</ele><time>2026-04-29T16:45:40.465Z</time></trkpt><trkpt lat="33.9852359" lon="8.328188"><ele>16.0</ele><time>2026-04-29T16:45:41.429Z</time></trkpt><trkpt lat="33.9853261" lon="8.3279561"><ele>15.666666666666666</ele><time>2026-04-29T16:45:42.423Z</time></trkpt><trkpt lat="33.9854186" lon="8.3277282"><ele>15.333333333333332</ele><time>2026-04-29T16:45:43.452Z</time></trkpt><trkpt lat="33.9855135" lon="8.3274997"><ele>15.0</ele><time>2026-04-29T16:45:44.458Z</time></trkpt><trkpt lat="33.9856075" lon="8.3272734"><ele>15.333333333333332</ele><time>2026-04-29T16:45:45.431Z</time></trkpt><trkpt lat="33.985699" lon="8.3270419"><ele>15.666666666666666</ele><time>2026-04-29T16:45:46.447Z</time></trkpt><trkpt lat="33.9857927" lon="8.3268145"><ele>16.0</ele><time>2026-04-29T16:45:47.42Z</time></trkpt><trkpt lat="33.9858836" lon="8.3265888"><ele>16.333333333333332</ele><time>2026-04-29T16:45:48.416Z</time></trkpt><trkpt lat="33.9859755" lon="8.3263617"><ele>16.666666666666668</ele><time>2026-04-29T16:45:49.428Z</time></trkpt><trkpt lat="33.9860665" lon="8.3261344"><ele>17.0</ele><time>2026-04-29T16:45:50.419Z</time></trkpt><trkpt lat="33.9861566" lon="8.3259039"><ele>17.0</ele><time>2026-04-29T16:45:51.439Z</time></trkpt><trkpt lat="33.9862449" lon="8.3256717"><ele>17.0</ele><time>2026-04-29T16:45:52.431Z</time></trkpt><trkpt lat="33.9863355" lon="8.3254397"><ele>17.0</ele><time>2026-04-29T16:45:53.415Z</time></trkpt><trkpt lat="33.9864242" lon="8.3252076"><ele>17.0</ele><time>2026-04-29T16:45:54.406Z</time></trkpt><trkpt lat="33.9865149" lon="8.3249742"><ele>17.0</ele><time>2026-04-29T16:45:55.419Z</time></trkpt><trkpt lat="33.9866017" lon="8.3247394"><ele>17.0</ele><time>2026-04-29T16:45:56.416Z</time></trkpt><trkpt lat="33.9866883" lon="8.324503"><ele>17.0</ele><time>2026-04-29T16:45:57.408Z</time></trkpt><trkpt lat="33.9867731" lon="8.3242705"><ele>17.0</ele><time>2026-04-29T16:45:58.424Z</time></trkpt><trkpt lat="33.9868583" lon="8.3240359"><ele>17.0</ele><time>2026-04-29T16:45:59.413Z</time></trkpt><trkpt lat="33.9869432" lon="8.3238054"><ele>16.666666666666668</ele><time>2026-04-29T16:46:00.446Z</time></trkpt><trkpt lat="33.9870269" lon="8.3235748"><ele>16.333333333333332</ele><time>2026-04-29T16:46:01.417Z</time></trkpt><trkpt lat="33.9871124" lon="8.3233455"><ele>16.0</ele><time>2026-04-29T16:46:02.414Z</time></trkpt><trkpt lat="33.9871963" lon="8.3231115"><ele>16.0</ele><time>2026-04-29T16:46:03.415Z</time></trkpt><trkpt lat="33.9872815" lon="8.322877"><ele>16.0</ele><time>2026-04-29T16:46:04.424Z</time></trkpt><trkpt lat="33.9873623" lon="8.3226433"><ele>16.0</ele><time>2026-04-29T16:46:05.421Z</time></trkpt><trkpt lat="33.9874487" lon="8.3224067"><ele>15.666666666666666</ele><time>2026-04-29T16:46:06.418Z</time></trkpt><trkpt lat="33.9875339" lon="8.3221716"><ele>15.333333333333332</ele><time>2026-04-29T16:46:07.414Z</time></trkpt><trkpt lat="33.9876146" lon="8.321939"><ele>15.0</ele><time>2026-04-29T16:46:08.424Z</time></trkpt><trkpt lat="33.9876922" lon="8.3217041"><ele>15.0</ele><time>2026-04-29T16:46:09.42Z</time></trkpt><trkpt lat="33.9877718" lon="8.3214712"><ele>15.0</ele><time>2026-04-29T16:46:10.436Z</time></trkpt><trkpt lat="33.9878503" lon="8.3212391"><ele>15.0</ele><time>2026-04-29T16:46:11.408Z</time></trkpt><trkpt lat="33.9879308" lon="8.3210054"><ele>15.666666666666668</ele><time>2026-04-29T16:46:12.419Z</time></trkpt><trkpt lat="33.9880096" lon="8.3207693"><ele>16.333333333333336</ele><time>2026-04-29T16:46:13.405Z</time></trkpt><trkpt lat="33.9880908" lon="8.3205311"><ele>17.0</ele><time>2026-04-29T16:46:14.409Z</time></trkpt><trkpt lat="33.9881785" lon="8.3202999"><ele>17.0</ele><time>2026-04-29T16:46:15.411Z</time></trkpt><trkpt lat="33.9882681" lon="8.3200689"><ele>17.0</ele><time>2026-04-29T16:46:16.423Z</time></trkpt><trkpt lat="33.9883654" lon="8.3198399"><ele>17.0</ele><time>2026-04-29T16:46:17.416Z</time></trkpt><trkpt lat="33.988458" lon="8.3196136"><ele>15.333333333333334</ele><time>2026-04-29T16:46:18.406Z</time></trkpt><trkpt lat="33.9885446" lon="8.319381"><ele>13.666666666666668</ele><time>2026-04-29T16:46:19.415Z</time></trkpt><trkpt lat="33.9886282" lon="8.3191502"><ele>12.0</ele><time>2026-04-29T16:46:20.415Z</time></trkpt><trkpt lat="33.9887098" lon="8.3189184"><ele>13.333333333333332</ele><time>2026-04-29T16:46:21.417Z</time></trkpt><trkpt lat="33.9887958" lon="8.318685"><ele>14.666666666666666</ele><time>2026-04-29T16:46:22.413Z</time></trkpt><trkpt lat="33.9888821" lon="8.3184513"><ele>16.0</ele><time>2026-04-29T16:46:23.412Z</time></trkpt><trkpt lat="33.9889659" lon="8.3182172"><ele>15.666666666666666</ele><time>2026-04-29T16:46:24.422Z</time></trkpt><trkpt lat="33.9890512" lon="8.3179848"><ele>15.333333333333332</ele><time>2026-04-29T16:46:25.418Z</time></trkpt><trkpt lat="33.9891356" lon="8.3177482"><ele>15.0</ele><time>2026-04-29T16:46:26.416Z</time></trkpt><trkpt lat="33.9892191" lon="8.3175149"><ele>15.0</ele><time>2026-04-29T16:46:27.413Z</time></trkpt><trkpt lat="33.9893032" lon="8.317282"><ele>15.0</ele><time>2026-04-29T16:46:28.424Z</time></trkpt><trkpt lat="33.9893862" lon="8.3170454"><ele>15.0</ele><time>2026-04-29T16:46:29.419Z</time></trkpt><trkpt lat="33.9894716" lon="8.3168076"><ele>15.333333333333332</ele><time>2026-04-29T16:46:30.42Z</time></trkpt><trkpt lat="33.9895571" lon="8.3165767"><ele>15.666666666666666</ele><time>2026-04-29T16:46:31.411Z</time></trkpt><trkpt lat="33.9896415" lon="8.3163428"><ele>16.0</ele><time>2026-04-29T16:46:32.416Z</time></trkpt><trkpt lat="33.9897234" lon="8.3161093"><ele>16.0</ele><time>2026-04-29T16:46:33.423Z</time></trkpt><trkpt lat="33.9898051" lon="8.3158802"><ele>16.0</ele><time>2026-04-29T16:46:34.415Z</time></trkpt><trkpt lat="33.9898863" lon="8.3156504"><ele>16.0</ele><time>2026-04-29T16:46:35.416Z</time></trkpt><trkpt lat="33.9899731" lon="8.3154162"><ele>16.333333333333332</ele><time>2026-04-29T16:46:36.414Z</time></trkpt><trkpt lat="33.9900553" lon="8.3151845"><ele>16.666666666666668</ele><time>2026-04-29T16:46:37.415Z</time></trkpt><trkpt lat="33.9901424" lon="8.31495"><ele>17.0</ele><time>2026-04-29T16:46:38.419Z</time></trkpt><trkpt lat="33.9902287" lon="8.3147169"><ele>17.0</ele><time>2026-04-29T16:46:39.428Z</time></trkpt><trkpt lat="33.9903126" lon="8.3144811"><ele>17.0</ele><time>2026-04-29T16:46:40.413Z</time></trkpt><trkpt lat="33.9903978" lon="8.3142522"><ele>17.0</ele><time>2026-04-29T16:46:41.412Z</time></trkpt><trkpt lat="33.9904794" lon="8.3140168"><ele>17.0</ele><time>2026-04-29T16:46:42.412Z</time></trkpt><trkpt lat="33.9905617" lon="8.3137839"><ele>17.0</ele><time>2026-04-29T16:46:43.417Z</time></trkpt><trkpt lat="33.9906463" lon="8.3135535"><ele>17.0</ele><time>2026-04-29T16:46:44.403Z</time></trkpt><trkpt lat="33.9907316" lon="8.3133226"><ele>17.0</ele><time>2026-04-29T16:46:45.426Z</time></trkpt><trkpt lat="33.9908161" lon="8.3130894"><ele>17.0</ele><time>2026-04-29T16:46:46.418Z</time></trkpt><trkpt lat="33.990902" lon="8.3128555"><ele>17.0</ele><time>2026-04-29T16:46:47.417Z</time></trkpt><trkpt lat="33.9909852" lon="8.3126217"><ele>17.0</ele><time>2026-04-29T16:46:48.412Z</time></trkpt><trkpt lat="33.9910677" lon="8.3123896"><ele>17.0</ele><time>2026-04-29T16:46:49.416Z</time></trkpt><trkpt lat="33.9911525" lon="8.3121604"><ele>17.0</ele><time>2026-04-29T16:46:50.419Z</time></trkpt><trkpt lat="33.9912385" lon="8.3119292"><ele>17.0</ele><time>2026-04-29T16:46:51.409Z</time></trkpt><trkpt lat="33.9913253" lon="8.3116926"><ele>17.0</ele><time>2026-04-29T16:46:52.415Z</time></trkpt><trkpt lat="33.9914104" lon="8.3114592"><ele>17.0</ele><time>2026-04-29T16:46:53.417Z</time></trkpt><trkpt lat="33.991496" lon="8.3112288"><ele>17.0</ele><time>2026-04-29T16:46:54.417Z</time></trkpt><trkpt lat="33.9915811" lon="8.3109968"><ele>17.0</ele><time>2026-04-29T16:46:55.42Z</time></trkpt><trkpt lat="33.9916628" lon="8.3107636"><ele>17.0</ele><time>2026-04-29T16:46:56.411Z</time></trkpt><trkpt lat="33.991745" lon="8.3105288"><ele>17.0</ele><time>2026-04-29T16:46:57.41Z</time></trkpt><trkpt lat="33.9918286" lon="8.3102921"><ele>17.0</ele><time>2026-04-29T16:46:58.42Z</time></trkpt><trkpt lat="33.991906" lon="8.3100574"><ele>17.0</ele><time>2026-04-29T16:46:59.422Z</time></trkpt><trkpt lat="33.9919878" lon="8.3098201"><ele>17.0</ele><time>2026-04-29T16:47:00.413Z</time></trkpt><trkpt lat="33.9920725" lon="8.3095923"><ele>17.0</ele><time>2026-04-29T16:47:01.424Z</time></trkpt><trkpt lat="33.9921621" lon="8.3093578"><ele>17.0</ele><time>2026-04-29T16:47:02.407Z</time></trkpt><trkpt lat="33.9922471" lon="8.3091182"><ele>17.666666666666668</ele><time>2026-04-29T16:47:03.427Z</time></trkpt><trkpt lat="33.9923293" lon="8.3088867"><ele>18.333333333333332</ele><time>2026-04-29T16:47:04.412Z</time></trkpt><trkpt lat="33.9924137" lon="8.3086556"><ele>19.0</ele><time>2026-04-29T16:47:05.413Z</time></trkpt><trkpt lat="33.9924982" lon="8.3084226"><ele>18.666666666666664</ele><time>2026-04-29T16:47:06.414Z</time></trkpt><trkpt lat="33.992583" lon="8.3081878"><ele>18.333333333333332</ele><time>2026-04-29T16:47:07.415Z</time></trkpt><trkpt lat="33.9926691" lon="8.3079579"><ele>18.0</ele><time>2026-04-29T16:47:08.416Z</time></trkpt><trkpt lat="33.9927551" lon="8.3077235"><ele>18.0</ele><time>2026-04-29T16:47:09.414Z</time></trkpt><trkpt lat="33.9928415" lon="8.3074891"><ele>18.0</ele><time>2026-04-29T16:47:10.419Z</time></trkpt><trkpt lat="33.9929261" lon="8.3072571"><ele>18.0</ele><time>2026-04-29T16:47:11.424Z</time></trkpt><trkpt lat="33.9930072" lon="8.3070229"><ele>18.0</ele><time>2026-04-29T16:47:12.419Z</time></trkpt><trkpt lat="33.9930897" lon="8.3067884"><ele>18.0</ele><time>2026-04-29T16:47:13.417Z</time></trkpt><trkpt lat="33.993172" lon="8.3065522"><ele>18.0</ele><time>2026-04-29T16:47:14.418Z</time></trkpt><trkpt lat="33.9932539" lon="8.3063196"><ele>18.0</ele><time>2026-04-29T16:47:15.417Z</time></trkpt><trkpt lat="33.9933349" lon="8.3060869"><ele>18.0</ele><time>2026-04-29T16:47:16.413Z</time></trkpt><trkpt lat="33.9934188" lon="8.3058539"><ele>18.0</ele><time>2026-04-29T16:47:17.415Z</time></trkpt><trkpt lat="33.9935019" lon="8.3056186"><ele>18.0</ele><time>2026-04-29T16:47:18.419Z</time></trkpt><trkpt lat="33.9935883" lon="8.3053857"><ele>18.0</ele><time>2026-04-29T16:47:19.414Z</time></trkpt><trkpt lat="33.9936718" lon="8.3051568"><ele>18.0</ele><time>2026-04-29T16:47:20.426Z</time></trkpt><trkpt lat="33.993755" lon="8.3049242"><ele>18.0</ele><time>2026-04-29T16:47:21.417Z</time></trkpt><trkpt lat="33.9938403" lon="8.3046914"><ele>18.0</ele><time>2026-04-29T16:47:22.418Z</time></trkpt><trkpt lat="33.993925" lon="8.3044549"><ele>18.0</ele><time>2026-04-29T16:47:23.417Z</time></trkpt><trkpt lat="33.9940129" lon="8.3042222"><ele>18.0</ele><time>2026-04-29T16:47:24.419Z</time></trkpt><trkpt lat="33.9940963" lon="8.3039987"><ele>18.0</ele><time>2026-04-29T16:47:25.418Z</time></trkpt><trkpt lat="33.9941742" lon="8.3037839"><ele>18.0</ele><time>2026-04-29T16:47:26.417Z</time></trkpt><trkpt lat="33.9942495" lon="8.3035711"><ele>18.0</ele><time>2026-04-29T16:47:27.415Z</time></trkpt><trkpt lat="33.9943252" lon="8.3033543"><ele>18.0</ele><time>2026-04-29T16:47:28.421Z</time></trkpt><trkpt lat="33.9944018" lon="8.3031414"><ele>18.0</ele><time>2026-04-29T16:47:29.415Z</time></trkpt><trkpt lat="33.9944773" lon="8.302935"><ele>17.666666666666668</ele><time>2026-04-29T16:47:30.411Z</time></trkpt><trkpt lat="33.9945526" lon="8.302728"><ele>17.333333333333336</ele><time>2026-04-29T16:47:31.412Z</time></trkpt><trkpt lat="33.9946261" lon="8.3025224"><ele>17.0</ele><time>2026-04-29T16:47:32.415Z</time></trkpt><trkpt lat="33.9946991" lon="8.3023104"><ele>17.333333333333336</ele><time>2026-04-29T16:47:33.417Z</time></trkpt><trkpt lat="33.9947729" lon="8.3021036"><ele>17.666666666666668</ele><time>2026-04-29T16:47:34.408Z</time></trkpt><trkpt lat="33.9948462" lon="8.301894"><ele>18.0</ele><time>2026-04-29T16:47:35.415Z</time></trkpt><trkpt lat="33.9949245" lon="8.3016806"><ele>18.0</ele><time>2026-04-29T16:47:36.427Z</time></trkpt><trkpt lat="33.995003" lon="8.3014707"><ele>18.0</ele><time>2026-04-29T16:47:37.423Z</time></trkpt><trkpt lat="33.9950791" lon="8.3012619"><ele>18.0</ele><time>2026-04-29T16:47:38.428Z</time></trkpt><trkpt lat="33.9951538" lon="8.3010526"><ele>18.0</ele><time>2026-04-29T16:47:39.414Z</time></trkpt><trkpt lat="33.9952318" lon="8.3008429"><ele>18.0</ele><time>2026-04-29T16:47:40.422Z</time></trkpt><trkpt lat="33.995313" lon="8.3006325"><ele>18.0</ele><time>2026-04-29T16:47:41.417Z</time></trkpt><trkpt lat="33.9953875" lon="8.3004224"><ele>18.0</ele><time>2026-04-29T16:47:42.416Z</time></trkpt><trkpt lat="33.9954662" lon="8.3002127"><ele>18.0</ele><time>2026-04-29T16:47:43.422Z</time></trkpt><trkpt lat="33.9955455" lon="8.3000005"><ele>18.0</ele><time>2026-04-29T16:47:44.418Z</time></trkpt><trkpt lat="33.9956266" lon="8.2997931"><ele>18.333333333333332</ele><time>2026-04-29T16:47:45.418Z</time></trkpt><trkpt lat="33.9957115" lon="8.2995806"><ele>18.666666666666664</ele><time>2026-04-29T16:47:46.417Z</time></trkpt><trkpt lat="33.995799" lon="8.2993726"><ele>19.0</ele><time>2026-04-29T16:47:47.41Z</time></trkpt><trkpt lat="33.9958944" lon="8.2991674"><ele>19.0</ele><time>2026-04-29T16:47:48.414Z</time></trkpt><trkpt lat="33.9959885" lon="8.2989665"><ele>19.0</ele><time>2026-04-29T16:47:49.42Z</time></trkpt><trkpt lat="33.9960841" lon="8.298765"><ele>19.0</ele><time>2026-04-29T16:47:50.414Z</time></trkpt><trkpt lat="33.9961815" lon="8.2985573"><ele>19.0</ele><time>2026-04-29T16:47:51.41Z</time></trkpt><trkpt lat="33.9962793" lon="8.2983539"><ele>19.0</ele><time>2026-04-29T16:47:52.416Z</time></trkpt><trkpt lat="33.9963736" lon="8.2981478"><ele>19.0</ele><time>2026-04-29T16:47:53.418Z</time></trkpt><trkpt lat="33.9964666" lon="8.2979484"><ele>18.666666666666664</ele><time>2026-04-29T16:47:54.412Z</time></trkpt><trkpt lat="33.9965614" lon="8.2977441"><ele>18.333333333333332</ele><time>2026-04-29T16:47:55.422Z</time></trkpt><trkpt lat="33.9966598" lon="8.2975391"><ele>18.0</ele><time>2026-04-29T16:47:56.419Z</time></trkpt><trkpt lat="33.996757" lon="8.2973384"><ele>18.666666666666668</ele><time>2026-04-29T16:47:57.421Z</time></trkpt><trkpt lat="33.9968517" lon="8.2971381"><ele>19.333333333333336</ele><time>2026-04-29T16:47:58.421Z</time></trkpt><trkpt lat="33.996944" lon="8.2969329"><ele>20.0</ele><time>2026-04-29T16:47:59.418Z</time></trkpt><trkpt lat="33.9970364" lon="8.2967319"><ele>20.0</ele><time>2026-04-29T16:48:00.417Z</time></trkpt><trkpt lat="33.9971312" lon="8.2965308"><ele>20.0</ele><time>2026-04-29T16:48:01.417Z</time></trkpt><trkpt lat="33.9972279" lon="8.2963301"><ele>20.0</ele><time>2026-04-29T16:48:02.414Z</time></trkpt><trkpt lat="33.9973239" lon="8.2961307"><ele>20.0</ele><time>2026-04-29T16:48:03.411Z</time></trkpt><trkpt lat="33.9974222" lon="8.295929"><ele>20.0</ele><time>2026-04-29T16:48:04.413Z</time></trkpt><trkpt lat="33.9975166" lon="8.295726"><ele>20.0</ele><time>2026-04-29T16:48:05.408Z</time></trkpt><trkpt lat="33.9976105" lon="8.2955239"><ele>19.333333333333336</ele><time>2026-04-29T16:48:06.417Z</time></trkpt><trkpt lat="33.9977045" lon="8.2953199"><ele>18.666666666666668</ele><time>2026-04-29T16:48:07.417Z</time></trkpt><trkpt lat="33.9978" lon="8.295119"><ele>18.0</ele><time>2026-04-29T16:48:08.415Z</time></trkpt><trkpt lat="33.9978963" lon="8.2949175"><ele>18.333333333333332</ele><time>2026-04-29T16:48:09.415Z</time></trkpt><trkpt lat="33.9979921" lon="8.2947133"><ele>18.666666666666664</ele><time>2026-04-29T16:48:10.407Z</time></trkpt><trkpt lat="33.9980905" lon="8.294508"><ele>19.0</ele><time>2026-04-29T16:48:11.403Z</time></trkpt><trkpt lat="33.9981879" lon="8.2943024"><ele>19.0</ele><time>2026-04-29T16:48:12.414Z</time></trkpt><trkpt lat="33.9982881" lon="8.2940926"><ele>19.0</ele><time>2026-04-29T16:48:13.414Z</time></trkpt><trkpt lat="33.9983856" lon="8.2938831"><ele>19.0</ele><time>2026-04-29T16:48:14.407Z</time></trkpt><trkpt lat="33.9984822" lon="8.2936709"><ele>19.0</ele><time>2026-04-29T16:48:15.419Z</time></trkpt><trkpt lat="33.9985768" lon="8.2934626"><ele>19.0</ele><time>2026-04-29T16:48:16.416Z</time></trkpt><trkpt lat="33.9986749" lon="8.2932566"><ele>19.0</ele><time>2026-04-29T16:48:17.414Z</time></trkpt><trkpt lat="33.9987733" lon="8.2930539"><ele>19.0</ele><time>2026-04-29T16:48:18.419Z</time></trkpt><trkpt lat="33.9988663" lon="8.292849"><ele>19.0</ele><time>2026-04-29T16:48:19.419Z</time></trkpt><trkpt lat="33.9989639" lon="8.2926411"><ele>19.0</ele><time>2026-04-29T16:48:20.416Z</time></trkpt><trkpt lat="33.9990591" lon="8.2924388"><ele>19.666666666666664</ele><time>2026-04-29T16:48:21.417Z</time></trkpt><trkpt lat="33.9991556" lon="8.2922325"><ele>20.333333333333332</ele><time>2026-04-29T16:48:22.413Z</time></trkpt><trkpt lat="33.9992504" lon="8.2920278"><ele>21.0</ele><time>2026-04-29T16:48:23.413Z</time></trkpt><trkpt lat="33.9993477" lon="8.2918224"><ele>21.0</ele><time>2026-04-29T16:48:24.417Z</time></trkpt><trkpt lat="33.9994433" lon="8.2916173"><ele>21.0</ele><time>2026-04-29T16:48:25.415Z</time></trkpt><trkpt lat="33.9995418" lon="8.29141"><ele>21.0</ele><time>2026-04-29T16:48:26.43Z</time></trkpt><trkpt lat="33.9996397" lon="8.2912035"><ele>21.0</ele><time>2026-04-29T16:48:27.419Z</time></trkpt><trkpt lat="33.9997362" lon="8.2910016"><ele>21.0</ele><time>2026-04-29T16:48:28.415Z</time></trkpt><trkpt lat="33.9998356" lon="8.2907936"><ele>21.0</ele><time>2026-04-29T16:48:29.418Z</time></trkpt><trkpt lat="33.9999389" lon="8.2905863"><ele>21.0</ele><time>2026-04-29T16:48:30.417Z</time></trkpt><trkpt lat="34.0000361" lon="8.2903758"><ele>21.0</ele><time>2026-04-29T16:48:31.413Z</time></trkpt><trkpt lat="34.0001339" lon="8.2901626"><ele>21.0</ele><time>2026-04-29T16:48:32.42Z</time></trkpt><trkpt lat="34.0002344" lon="8.2899546"><ele>21.0</ele><time>2026-04-29T16:48:33.425Z</time></trkpt><trkpt lat="34.0003342" lon="8.2897415"><ele>21.0</ele><time>2026-04-29T16:48:34.419Z</time></trkpt><trkpt lat="34.0004312" lon="8.2895317"><ele>21.0</ele><time>2026-04-29T16:48:35.416Z</time></trkpt><trkpt lat="34.0005291" lon="8.289324"><ele>21.0</ele><time>2026-04-29T16:48:36.421Z</time></trkpt><trkpt lat="34.0006264" lon="8.2891184"><ele>21.0</ele><time>2026-04-29T16:48:37.417Z</time></trkpt><trkpt lat="34.0007234" lon="8.2889101"><ele>21.0</ele><time>2026-04-29T16:48:38.418Z</time></trkpt><trkpt lat="34.0008192" lon="8.2887009"><ele>21.0</ele><time>2026-04-29T16:48:39.415Z</time></trkpt><trkpt lat="34.0009167" lon="8.2884942"><ele>21.0</ele><time>2026-04-29T16:48:40.415Z</time></trkpt><trkpt lat="34.0010137" lon="8.2882872"><ele>21.0</ele><time>2026-04-29T16:48:41.409Z</time></trkpt><trkpt lat="34.0011145" lon="8.2880798"><ele>21.333333333333332</ele><time>2026-04-29T16:48:42.409Z</time></trkpt><trkpt lat="34.0012135" lon="8.2878729"><ele>21.666666666666664</ele><time>2026-04-29T16:48:43.412Z</time></trkpt><trkpt lat="34.0013118" lon="8.2876669"><ele>22.0</ele><time>2026-04-29T16:48:44.415Z</time></trkpt><trkpt lat="34.0014079" lon="8.2874588"><ele>22.0</ele><time>2026-04-29T16:48:45.409Z</time></trkpt><trkpt lat="34.0015062" lon="8.2872523"><ele>22.0</ele><time>2026-04-29T16:48:46.411Z</time></trkpt><trkpt lat="34.0016017" lon="8.2870432"><ele>22.0</ele><time>2026-04-29T16:48:47.412Z</time></trkpt><trkpt lat="34.0016987" lon="8.2868306"><ele>22.0</ele><time>2026-04-29T16:48:48.413Z</time></trkpt><trkpt lat="34.0017951" lon="8.2866189"><ele>22.0</ele><time>2026-04-29T16:48:49.422Z</time></trkpt><trkpt lat="34.0018938" lon="8.2864085"><ele>22.0</ele><time>2026-04-29T16:48:50.406Z</time></trkpt><trkpt lat="34.0019933" lon="8.2862012"><ele>22.333333333333332</ele><time>2026-04-29T16:48:51.416Z</time></trkpt><trkpt lat="34.0020928" lon="8.2859912"><ele>22.666666666666668</ele><time>2026-04-29T16:48:52.402Z</time></trkpt><trkpt lat="34.0021903" lon="8.2857806"><ele>23.0</ele><time>2026-04-29T16:48:53.422Z</time></trkpt><trkpt lat="34.0022907" lon="8.2855727"><ele>23.333333333333336</ele><time>2026-04-29T16:48:54.421Z</time></trkpt><trkpt lat="34.0023848" lon="8.2853652"><ele>23.666666666666668</ele><time>2026-04-29T16:48:55.422Z</time></trkpt><trkpt lat="34.0024833" lon="8.2851587"><ele>24.0</ele><time>2026-04-29T16:48:56.433Z</time></trkpt><trkpt lat="34.0025788" lon="8.2849523"><ele>23.666666666666668</ele><time>2026-04-29T16:48:57.408Z</time></trkpt><trkpt lat="34.002675" lon="8.2847448"><ele>23.333333333333336</ele><time>2026-04-29T16:48:58.42Z</time></trkpt><trkpt lat="34.0027722" lon="8.2845356"><ele>23.0</ele><time>2026-04-29T16:48:59.418Z</time></trkpt><trkpt lat="34.002871" lon="8.2843263"><ele>23.0</ele><time>2026-04-29T16:49:00.419Z</time></trkpt><trkpt lat="34.0029689" lon="8.2841197"><ele>23.0</ele><time>2026-04-29T16:49:01.415Z</time></trkpt><trkpt lat="34.0030671" lon="8.2839075"><ele>23.0</ele><time>2026-04-29T16:49:02.414Z</time></trkpt><trkpt lat="34.0031666" lon="8.2837007"><ele>23.0</ele><time>2026-04-29T16:49:03.418Z</time></trkpt><trkpt lat="34.0032669" lon="8.2834925"><ele>23.0</ele><time>2026-04-29T16:49:04.419Z</time></trkpt><trkpt lat="34.0033644" lon="8.2832819"><ele>23.0</ele><time>2026-04-29T16:49:05.416Z</time></trkpt><trkpt lat="34.0034629" lon="8.2830758"><ele>23.666666666666668</ele><time>2026-04-29T16:49:06.423Z</time></trkpt><trkpt lat="34.0035623" lon="8.282865"><ele>24.333333333333336</ele><time>2026-04-29T16:49:07.418Z</time></trkpt><trkpt lat="34.003662" lon="8.2826593"><ele>25.0</ele><time>2026-04-29T16:49:08.411Z</time></trkpt><trkpt lat="34.0037641" lon="8.282452"><ele>24.333333333333336</ele><time>2026-04-29T16:49:09.422Z</time></trkpt><trkpt lat="34.0038595" lon="8.2822422"><ele>23.666666666666668</ele><time>2026-04-29T16:49:10.415Z</time></trkpt><trkpt lat="34.0039574" lon="8.2820362"><ele>23.0</ele><time>2026-04-29T16:49:11.421Z</time></trkpt><trkpt lat="34.0040576" lon="8.2818266"><ele>23.0</ele><time>2026-04-29T16:49:12.418Z</time></trkpt><trkpt lat="34.0041556" lon="8.2816169"><ele>23.0</ele><time>2026-04-29T16:49:13.416Z</time></trkpt><trkpt lat="34.0042533" lon="8.2814053"><ele>23.0</ele><time>2026-04-29T16:49:14.415Z</time></trkpt><trkpt lat="34.0043558" lon="8.2811959"><ele>23.333333333333336</ele><time>2026-04-29T16:49:15.414Z</time></trkpt><trkpt lat="34.0044534" lon="8.2809861"><ele>23.666666666666668</ele><time>2026-04-29T16:49:16.417Z</time></trkpt><trkpt lat="34.0045483" lon="8.2807786"><ele>24.0</ele><time>2026-04-29T16:49:17.418Z</time></trkpt><trkpt lat="34.0046467" lon="8.2805662"><ele>24.0</ele><time>2026-04-29T16:49:18.414Z</time></trkpt><trkpt lat="34.004743" lon="8.2803594"><ele>24.0</ele><time>2026-04-29T16:49:19.412Z</time></trkpt><trkpt lat="34.0048411" lon="8.2801537"><ele>24.0</ele><time>2026-04-29T16:49:20.413Z</time></trkpt><trkpt lat="34.0049409" lon="8.2799468"><ele>23.666666666666668</ele><time>2026-04-29T16:49:21.411Z</time></trkpt><trkpt lat="34.0050422" lon="8.2797408"><ele>23.333333333333336</ele><time>2026-04-29T16:49:22.415Z</time></trkpt><trkpt lat="34.0051413" lon="8.279531"><ele>23.0</ele><time>2026-04-29T16:49:23.419Z</time></trkpt><trkpt lat="34.0052405" lon="8.2793197"><ele>23.0</ele><time>2026-04-29T16:49:24.416Z</time></trkpt><trkpt lat="34.0053367" lon="8.2791105"><ele>23.0</ele><time>2026-04-29T16:49:25.41Z</time></trkpt><trkpt lat="34.0054358" lon="8.2788991"><ele>23.0</ele><time>2026-04-29T16:49:26.417Z</time></trkpt><trkpt lat="34.0055348" lon="8.2786919"><ele>23.666666666666668</ele><time>2026-04-29T16:49:27.418Z</time></trkpt><trkpt lat="34.0056327" lon="8.2784844"><ele>24.333333333333336</ele><time>2026-04-29T16:49:28.413Z</time></trkpt><trkpt lat="34.005732" lon="8.2782766"><ele>25.0</ele><time>2026-04-29T16:49:29.416Z</time></trkpt><trkpt lat="34.0058287" lon="8.2780723"><ele>25.666666666666668</ele><time>2026-04-29T16:49:30.433Z</time></trkpt><trkpt lat="34.005926" lon="8.277861"><ele>26.333333333333336</ele><time>2026-04-29T16:49:31.417Z</time></trkpt><trkpt lat="34.0060253" lon="8.2776539"><ele>27.0</ele><time>2026-04-29T16:49:32.416Z</time></trkpt><trkpt lat="34.0061172" lon="8.2774475"><ele>27.666666666666664</ele><time>2026-04-29T16:49:33.405Z</time></trkpt><trkpt lat="34.006207" lon="8.2772535"><ele>28.333333333333332</ele><time>2026-04-29T16:49:34.423Z</time></trkpt><trkpt lat="34.0062919" lon="8.2770725"><ele>29.0</ele><time>2026-04-29T16:49:35.416Z</time></trkpt><trkpt lat="34.0063745" lon="8.2769045"><ele>29.0</ele><time>2026-04-29T16:49:36.42Z</time></trkpt><trkpt lat="34.0064572" lon="8.2767396"><ele>29.0</ele><time>2026-04-29T16:49:37.421Z</time></trkpt><trkpt lat="34.0065346" lon="8.2765818"><ele>29.0</ele><time>2026-04-29T16:49:38.401Z</time></trkpt><trkpt lat="34.0065992" lon="8.2764448"><ele>29.0</ele><time>2026-04-29T16:49:39.415Z</time></trkpt><trkpt lat="34.0066611" lon="8.276318"><ele>29.6</ele><time>2026-04-29T16:49:40.412Z</time></trkpt><trkpt lat="34.0067159" lon="8.2762033"><ele>30.2</ele><time>2026-04-29T16:49:41.407Z</time></trkpt><trkpt lat="34.0067771" lon="8.2761007"><ele>30.800000000000004</ele><time>2026-04-29T16:49:42.41Z</time></trkpt><trkpt lat="34.0068447" lon="8.2760026"><ele>31.400000000000002</ele><time>2026-04-29T16:49:43.417Z</time></trkpt><trkpt lat="34.0069145" lon="8.275903"><ele>32.0</ele><time>2026-04-29T16:49:44.416Z</time></trkpt><trkpt lat="34.0069654" lon="8.275797"><ele>32.0</ele><time>2026-04-29T16:49:45.422Z</time></trkpt><trkpt lat="34.0070103" lon="8.2756884"><ele>32.0</ele><time>2026-04-29T16:49:46.407Z</time></trkpt><trkpt lat="34.0070508" lon="8.2755669"><ele>32.0</ele><time>2026-04-29T16:49:47.407Z</time></trkpt><trkpt lat="34.0071017" lon="8.2754289"><ele>32.0</ele><time>2026-04-29T16:49:48.415Z</time></trkpt><trkpt lat="34.0071635" lon="8.2752865"><ele>31.75</ele><time>2026-04-29T16:49:49.415Z</time></trkpt><trkpt lat="34.0072302" lon="8.2751364"><ele>31.5</ele><time>2026-04-29T16:49:50.405Z</time></trkpt><trkpt lat="34.007302" lon="8.274976"><ele>31.25</ele><time>2026-04-29T16:49:51.423Z</time></trkpt><trkpt lat="34.0073735" lon="8.2748188"><ele>31.0</ele><time>2026-04-29T16:49:52.406Z</time></trkpt><trkpt lat="34.0074473" lon="8.2746535"><ele>31.333333333333336</ele><time>2026-04-29T16:49:53.42Z</time></trkpt><trkpt lat="34.0075227" lon="8.2744876"><ele>31.666666666666664</ele><time>2026-04-29T16:49:54.409Z</time></trkpt><trkpt lat="34.0076017" lon="8.274318"><ele>32.0</ele><time>2026-04-29T16:49:55.421Z</time></trkpt><trkpt lat="34.0076798" lon="8.2741464"><ele>32.0</ele><time>2026-04-29T16:49:56.413Z</time></trkpt><trkpt lat="34.0077582" lon="8.2739812"><ele>32.0</ele><time>2026-04-29T16:49:57.407Z</time></trkpt><trkpt lat="34.0078382" lon="8.2738138"><ele>32.0</ele><time>2026-04-29T16:49:58.407Z</time></trkpt><trkpt lat="34.0079174" lon="8.2736396"><ele>32.0</ele><time>2026-04-29T16:49:59.414Z</time></trkpt><trkpt lat="34.0079955" lon="8.2734723"><ele>32.0</ele><time>2026-04-29T16:50:00.418Z</time></trkpt><trkpt lat="34.008077" lon="8.2733053"><ele>32.0</ele><time>2026-04-29T16:50:01.417Z</time></trkpt><trkpt lat="34.0081569" lon="8.2731385"><ele>32.33333333333333</ele><time>2026-04-29T16:50:02.414Z</time></trkpt><trkpt lat="34.0082324" lon="8.2729734"><ele>32.666666666666664</ele><time>2026-04-29T16:50:03.409Z</time></trkpt><trkpt lat="34.0083091" lon="8.2728093"><ele>33.0</ele><time>2026-04-29T16:50:04.414Z</time></trkpt><trkpt lat="34.008385" lon="8.2726488"><ele>33.0</ele><time>2026-04-29T16:50:05.413Z</time></trkpt><trkpt lat="34.0084566" lon="8.2724924"><ele>33.0</ele><time>2026-04-29T16:50:06.41Z</time></trkpt><trkpt lat="34.0085241" lon="8.2723501"><ele>33.0</ele><time>2026-04-29T16:50:07.407Z</time></trkpt><trkpt lat="34.0085921" lon="8.2722206"><ele>33.0</ele><time>2026-04-29T16:50:08.421Z</time></trkpt><trkpt lat="34.0086491" lon="8.2720939"><ele>33.5</ele><time>2026-04-29T16:50:09.412Z</time></trkpt><trkpt lat="34.0087086" lon="8.2719676"><ele>34.0</ele><time>2026-04-29T16:50:10.416Z</time></trkpt><trkpt lat="34.0087679" lon="8.2718369"><ele>34.5</ele><time>2026-04-29T16:50:11.409Z</time></trkpt><trkpt lat="34.0088296" lon="8.2717039"><ele>35.0</ele><time>2026-04-29T16:50:12.411Z</time></trkpt><trkpt lat="34.0088974" lon="8.2715659"><ele>35.75</ele><time>2026-04-29T16:50:13.4Z</time></trkpt><trkpt lat="34.0089581" lon="8.2714274"><ele>36.5</ele><time>2026-04-29T16:50:14.413Z</time></trkpt><trkpt lat="34.0090188" lon="8.2712869"><ele>37.25</ele><time>2026-04-29T16:50:15.404Z</time></trkpt><trkpt lat="34.0090854" lon="8.27115"><ele>38.0</ele><time>2026-04-29T16:50:16.415Z</time></trkpt><trkpt lat="34.0091534" lon="8.2710082"><ele>38.0</ele><time>2026-04-29T16:50:17.412Z</time></trkpt><trkpt lat="34.0092231" lon="8.2708647"><ele>38.0</ele><time>2026-04-29T16:50:18.415Z</time></trkpt><trkpt lat="34.0092887" lon="8.270723"><ele>38.0</ele><time>2026-04-29T16:50:19.415Z</time></trkpt><trkpt lat="34.0093523" lon="8.2705826"><ele>38.0</ele><time>2026-04-29T16:50:20.419Z</time></trkpt><trkpt lat="34.0094181" lon="8.27045"><ele>38.199999999999996</ele><time>2026-04-29T16:50:21.455Z</time></trkpt><trkpt lat="34.0094784" lon="8.2703277"><ele>38.4</ele><time>2026-04-29T16:50:22.409Z</time></trkpt><trkpt lat="34.0095334" lon="8.2702134"><ele>38.599999999999994</ele><time>2026-04-29T16:50:23.44Z</time></trkpt><trkpt lat="34.0095863" lon="8.2701087"><ele>38.8</ele><time>2026-04-29T16:50:24.413Z</time></trkpt><trkpt lat="34.0096326" lon="8.270009"><ele>39.0</ele><time>2026-04-29T16:50:25.407Z</time></trkpt><trkpt lat="34.0096721" lon="8.269918"><ele>39.0</ele><time>2026-04-29T16:50:26.405Z</time></trkpt><trkpt lat="34.009714" lon="8.2698401"><ele>39.0</ele><time>2026-04-29T16:50:27.415Z</time></trkpt><trkpt lat="34.0097494" lon="8.2697628"><ele>39.0</ele><time>2026-04-29T16:50:28.411Z</time></trkpt><trkpt lat="34.0097918" lon="8.2696832"><ele>39.0</ele><time>2026-04-29T16:50:29.417Z</time></trkpt><trkpt lat="34.0098351" lon="8.2695903"><ele>39.0</ele><time>2026-04-29T16:50:30.419Z</time></trkpt><trkpt lat="34.0098811" lon="8.2694795"><ele>39.0</ele><time>2026-04-29T16:50:31.417Z</time></trkpt><trkpt lat="34.0099347" lon="8.2693698"><ele>39.4</ele><time>2026-04-29T16:50:32.415Z</time></trkpt><trkpt lat="34.0099922" lon="8.2692553"><ele>39.8</ele><time>2026-04-29T16:50:33.423Z</time></trkpt><trkpt lat="34.0100477" lon="8.2691374"><ele>40.199999999999996</ele><time>2026-04-29T16:50:34.444Z</time></trkpt><trkpt lat="34.0100993" lon="8.2690274"><ele>40.599999999999994</ele><time>2026-04-29T16:50:35.415Z</time></trkpt><trkpt lat="34.0101435" lon="8.2689219"><ele>41.0</ele><time>2026-04-29T16:50:36.418Z</time></trkpt><trkpt lat="34.010186" lon="8.268829"><ele>41.4</ele><time>2026-04-29T16:50:37.415Z</time></trkpt><trkpt lat="34.0102244" lon="8.2687468"><ele>41.8</ele><time>2026-04-29T16:50:38.418Z</time></trkpt><trkpt lat="34.0102538" lon="8.2686751"><ele>42.199999999999996</ele><time>2026-04-29T16:50:39.411Z</time></trkpt><trkpt lat="34.0103106" lon="8.2685496"><ele>42.599999999999994</ele><time>2026-04-29T16:50:41.414Z</time></trkpt><trkpt lat="34.0103692" lon="8.2684048"><ele>43.0</ele><time>2026-04-29T16:50:43.416Z</time></trkpt><trkpt lat="34.0103973" lon="8.2683238"><ele>43.0</ele><time>2026-04-29T16:50:44.415Z</time></trkpt><trkpt lat="34.0104429" lon="8.2682447"><ele>43.0</ele><time>2026-04-29T16:50:45.418Z</time></trkpt><trkpt lat="34.0104976" lon="8.2681658"><ele>43.0</ele><time>2026-04-29T16:50:46.407Z</time></trkpt><trkpt lat="34.0105545" lon="8.2680708"><ele>43.0</ele><time>2026-04-29T16:50:47.403Z</time></trkpt><trkpt lat="34.0106048" lon="8.2679631"><ele>43.0</ele><time>2026-04-29T16:50:48.427Z</time></trkpt><trkpt lat="34.0106602" lon="8.2678364"><ele>42.75</ele><time>2026-04-29T16:50:49.424Z</time></trkpt><trkpt lat="34.0107185" lon="8.2677096"><ele>42.5</ele><time>2026-04-29T16:50:50.412Z</time></trkpt><trkpt lat="34.0107778" lon="8.267579"><ele>42.25</ele><time>2026-04-29T16:50:51.423Z</time></trkpt><trkpt lat="34.0108399" lon="8.2674481"><ele>42.0</ele><time>2026-04-29T16:50:52.418Z</time></trkpt><trkpt lat="34.010899" lon="8.2673181"><ele>42.75</ele><time>2026-04-29T16:50:53.406Z</time></trkpt><trkpt lat="34.0109556" lon="8.2671846"><ele>43.5</ele><time>2026-04-29T16:50:54.415Z</time></trkpt><trkpt lat="34.0110112" lon="8.2670597"><ele>44.25</ele><time>2026-04-29T16:50:55.412Z</time></trkpt><trkpt lat="34.0110726" lon="8.266939"><ele>45.0</ele><time>2026-04-29T16:50:56.415Z</time></trkpt><trkpt lat="34.011135" lon="8.2668146"><ele>45.0</ele><time>2026-04-29T16:50:57.432Z</time></trkpt><trkpt lat="34.011197" lon="8.2666849"><ele>45.0</ele><time>2026-04-29T16:50:58.41Z</time></trkpt><trkpt lat="34.0112625" lon="8.2665568"><ele>45.0</ele><time>2026-04-29T16:50:59.402Z</time></trkpt><trkpt lat="34.0113292" lon="8.2664264"><ele>45.0</ele><time>2026-04-29T16:51:00.408Z</time></trkpt><trkpt lat="34.0113924" lon="8.2662936"><ele>46.0</ele><time>2026-04-29T16:51:01.415Z</time></trkpt><trkpt lat="34.0114603" lon="8.2661632"><ele>47.0</ele><time>2026-04-29T16:51:02.406Z</time></trkpt><trkpt lat="34.0115226" lon="8.2660337"><ele>48.0</ele><time>2026-04-29T16:51:03.415Z</time></trkpt><trkpt lat="34.0115834" lon="8.2659089"><ele>49.0</ele><time>2026-04-29T16:51:04.427Z</time></trkpt><trkpt lat="34.0116458" lon="8.2657786"><ele>49.6</ele><time>2026-04-29T16:51:05.421Z</time></trkpt><trkpt lat="34.0117178" lon="8.2656516"><ele>50.2</ele><time>2026-04-29T16:51:06.418Z</time></trkpt><trkpt lat="34.0117833" lon="8.2655334"><ele>50.800000000000004</ele><time>2026-04-29T16:51:07.455Z</time></trkpt><trkpt lat="34.0118362" lon="8.2654313"><ele>51.400000000000006</ele><time>2026-04-29T16:51:08.452Z</time></trkpt><trkpt lat="34.0118815" lon="8.265336"><ele>52.0</ele><time>2026-04-29T16:51:09.402Z</time></trkpt><trkpt lat="34.0119241" lon="8.2652459"><ele>52.33333333333333</ele><time>2026-04-29T16:51:10.441Z</time></trkpt><trkpt lat="34.0119685" lon="8.2651639"><ele>52.666666666666664</ele><time>2026-04-29T16:51:11.438Z</time></trkpt><trkpt lat="34.0120061" lon="8.2650853"><ele>53.0</ele><time>2026-04-29T16:51:12.443Z</time></trkpt><trkpt lat="34.012046" lon="8.2650086"><ele>53.33333333333333</ele><time>2026-04-29T16:51:13.416Z</time></trkpt><trkpt lat="34.0120929" lon="8.264916"><ele>53.666666666666664</ele><time>2026-04-29T16:51:14.423Z</time></trkpt><trkpt lat="34.0121477" lon="8.2647945"><ele>54.0</ele><time>2026-04-29T16:51:15.406Z</time></trkpt><trkpt lat="34.0122125" lon="8.2646631"><ele>54.75</ele><time>2026-04-29T16:51:16.401Z</time></trkpt><trkpt lat="34.0122802" lon="8.2645266"><ele>55.5</ele><time>2026-04-29T16:51:17.414Z</time></trkpt><trkpt lat="34.0123457" lon="8.2643844"><ele>56.25</ele><time>2026-04-29T16:51:18.407Z</time></trkpt><trkpt lat="34.0124128" lon="8.2642318"><ele>57.0</ele><time>2026-04-29T16:51:19.408Z</time></trkpt><trkpt lat="34.0124753" lon="8.2640714"><ele>56.66666666666667</ele><time>2026-04-29T16:51:20.411Z</time></trkpt><trkpt lat="34.0125332" lon="8.2639042"><ele>56.333333333333336</ele><time>2026-04-29T16:51:21.405Z</time></trkpt><trkpt lat="34.0125886" lon="8.2637399"><ele>56.0</ele><time>2026-04-29T16:51:22.435Z</time></trkpt><trkpt lat="34.0126301" lon="8.2635623"><ele>56.0</ele><time>2026-04-29T16:51:23.412Z</time></trkpt><trkpt lat="34.012667" lon="8.2633779"><ele>56.0</ele><time>2026-04-29T16:51:24.416Z</time></trkpt><trkpt lat="34.0127089" lon="8.2631961"><ele>56.0</ele><time>2026-04-29T16:51:25.418Z</time></trkpt><trkpt lat="34.01275" lon="8.2630093"><ele>56.66666666666667</ele><time>2026-04-29T16:51:26.42Z</time></trkpt><trkpt lat="34.0127896" lon="8.2628238"><ele>57.33333333333333</ele><time>2026-04-29T16:51:27.408Z</time></trkpt><trkpt lat="34.012824" lon="8.2626408"><ele>58.0</ele><time>2026-04-29T16:51:28.417Z</time></trkpt><trkpt lat="34.0128588" lon="8.2624581"><ele>59.0</ele><time>2026-04-29T16:51:29.428Z</time></trkpt><trkpt lat="34.0128918" lon="8.2622744"><ele>60.0</ele><time>2026-04-29T16:51:30.408Z</time></trkpt><trkpt lat="34.0129237" lon="8.262095"><ele>61.0</ele><time>2026-04-29T16:51:31.415Z</time></trkpt><trkpt lat="34.0129478" lon="8.2619194"><ele>61.0</ele><time>2026-04-29T16:51:32.414Z</time></trkpt><trkpt lat="34.0129608" lon="8.2617514"><ele>61.0</ele><time>2026-04-29T16:51:33.434Z</time></trkpt><trkpt lat="34.0129569" lon="8.2615805"><ele>61.0</ele><time>2026-04-29T16:51:34.427Z</time></trkpt><trkpt lat="34.0129502" lon="8.2614178"><ele>61.0</ele><time>2026-04-29T16:51:35.403Z</time></trkpt><trkpt lat="34.0129323" lon="8.2612585"><ele>61.75</ele><time>2026-04-29T16:51:36.41Z</time></trkpt><trkpt lat="34.0128955" lon="8.2610945"><ele>62.5</ele><time>2026-04-29T16:51:37.416Z</time></trkpt><trkpt lat="34.0128469" lon="8.260938"><ele>63.25</ele><time>2026-04-29T16:51:38.413Z</time></trkpt><trkpt lat="34.0127793" lon="8.2607784"><ele>64.0</ele><time>2026-04-29T16:51:39.417Z</time></trkpt><trkpt lat="34.012704" lon="8.2606361"><ele>64.5</ele><time>2026-04-29T16:51:40.415Z</time></trkpt><trkpt lat="34.0126157" lon="8.2604987"><ele>65.0</ele><time>2026-04-29T16:51:41.406Z</time></trkpt><trkpt lat="34.0125286" lon="8.2603618"><ele>65.5</ele><time>2026-04-29T16:51:42.409Z</time></trkpt><trkpt lat="34.0124344" lon="8.2602337"><ele>66.0</ele><time>2026-04-29T16:51:43.41Z</time></trkpt><trkpt lat="34.0123291" lon="8.2601137"><ele>65.5</ele><time>2026-04-29T16:51:44.418Z</time></trkpt><trkpt lat="34.0122242" lon="8.2599904"><ele>65.0</ele><time>2026-04-29T16:51:45.418Z</time></trkpt><trkpt lat="34.0121149" lon="8.2598658"><ele>64.5</ele><time>2026-04-29T16:51:46.419Z</time></trkpt><trkpt lat="34.0120032" lon="8.2597422"><ele>64.0</ele><time>2026-04-29T16:51:47.419Z</time></trkpt><trkpt lat="34.0118906" lon="8.2596109"><ele>64.0</ele><time>2026-04-29T16:51:48.409Z</time></trkpt><trkpt lat="34.0117824" lon="8.2594789"><ele>64.0</ele><time>2026-04-29T16:51:49.424Z</time></trkpt><trkpt lat="34.0116702" lon="8.2593481"><ele>64.0</ele><time>2026-04-29T16:51:50.424Z</time></trkpt><trkpt lat="34.0115622" lon="8.2592066"><ele>63.0</ele><time>2026-04-29T16:51:51.416Z</time></trkpt><trkpt lat="34.0114589" lon="8.2590736"><ele>62.0</ele><time>2026-04-29T16:51:52.416Z</time></trkpt><trkpt lat="34.0113625" lon="8.2589451"><ele>61.0</ele><time>2026-04-29T16:51:53.417Z</time></trkpt><trkpt lat="34.0112811" lon="8.2588207"><ele>60.0</ele><time>2026-04-29T16:51:54.416Z</time></trkpt><trkpt lat="34.0112136" lon="8.2586966"><ele>60.0</ele><time>2026-04-29T16:51:55.419Z</time></trkpt><trkpt lat="34.0111624" lon="8.258589"><ele>60.0</ele><time>2026-04-29T16:51:56.41Z</time></trkpt><trkpt lat="34.0111102" lon="8.2584827"><ele>60.0</ele><time>2026-04-29T16:51:57.414Z</time></trkpt><trkpt lat="34.0110698" lon="8.2583897"><ele>60.0</ele><time>2026-04-29T16:51:58.417Z</time></trkpt><trkpt lat="34.0110273" lon="8.2582841"><ele>60.0</ele><time>2026-04-29T16:51:59.416Z</time></trkpt><trkpt lat="34.0109856" lon="8.2581679"><ele>60.0</ele><time>2026-04-29T16:52:00.438Z</time></trkpt><trkpt lat="34.010941" lon="8.2580329"><ele>60.0</ele><time>2026-04-29T16:52:01.416Z</time></trkpt><trkpt lat="34.0108939" lon="8.2578978"><ele>60.0</ele><time>2026-04-29T16:52:02.414Z</time></trkpt><trkpt lat="34.0108416" lon="8.2577565"><ele>60.0</ele><time>2026-04-29T16:52:03.409Z</time></trkpt><trkpt lat="34.010791" lon="8.2576144"><ele>60.0</ele><time>2026-04-29T16:52:04.445Z</time></trkpt><trkpt lat="34.0107438" lon="8.2574685"><ele>60.0</ele><time>2026-04-29T16:52:05.419Z</time></trkpt><trkpt lat="34.0106914" lon="8.257321"><ele>60.0</ele><time>2026-04-29T16:52:06.412Z</time></trkpt><trkpt lat="34.0106433" lon="8.2571776"><ele>60.0</ele><time>2026-04-29T16:52:07.413Z</time></trkpt><trkpt lat="34.0105902" lon="8.2570329"><ele>60.25</ele><time>2026-04-29T16:52:08.421Z</time></trkpt><trkpt lat="34.0105376" lon="8.2568883"><ele>60.5</ele><time>2026-04-29T16:52:09.414Z</time></trkpt><trkpt lat="34.0104829" lon="8.2567431"><ele>60.75</ele><time>2026-04-29T16:52:10.411Z</time></trkpt><trkpt lat="34.0104277" lon="8.2565993"><ele>61.0</ele><time>2026-04-29T16:52:11.409Z</time></trkpt><trkpt lat="34.0103763" lon="8.2564495"><ele>61.0</ele><time>2026-04-29T16:52:12.426Z</time></trkpt><trkpt lat="34.010329" lon="8.2563014"><ele>61.0</ele><time>2026-04-29T16:52:13.422Z</time></trkpt><trkpt lat="34.010286" lon="8.2561578"><ele>61.0</ele><time>2026-04-29T16:52:14.415Z</time></trkpt><trkpt lat="34.0102506" lon="8.2560174"><ele>61.0</ele><time>2026-04-29T16:52:15.416Z</time></trkpt><trkpt lat="34.0102203" lon="8.2558849"><ele>61.0</ele><time>2026-04-29T16:52:16.415Z</time></trkpt><trkpt lat="34.0101891" lon="8.2557556"><ele>60.99999999999999</ele><time>2026-04-29T16:52:17.406Z</time></trkpt><trkpt lat="34.0101652" lon="8.255628"><ele>60.99999999999999</ele><time>2026-04-29T16:52:18.41Z</time></trkpt><trkpt lat="34.0101428" lon="8.2555136"><ele>61.0</ele><time>2026-04-29T16:52:19.411Z</time></trkpt><trkpt lat="34.010119" lon="8.2554042"><ele>61.0</ele><time>2026-04-29T16:52:20.432Z</time></trkpt><trkpt lat="34.0100947" lon="8.2553084"><ele>61.0</ele><time>2026-04-29T16:52:21.427Z</time></trkpt><trkpt lat="34.0100607" lon="8.2551667"><ele>60.99999999999999</ele><time>2026-04-29T16:52:23.413Z</time></trkpt><trkpt lat="34.0100252" lon="8.2550096"><ele>60.99999999999999</ele><time>2026-04-29T16:52:25.429Z</time></trkpt><trkpt lat="34.0100038" lon="8.2549177"><ele>61.0</ele><time>2026-04-29T16:52:26.418Z</time></trkpt><trkpt lat="34.0099734" lon="8.2548135"><ele>61.0</ele><time>2026-04-29T16:52:27.402Z</time></trkpt><trkpt lat="34.0099336" lon="8.2547014"><ele>60.599999999999994</ele><time>2026-04-29T16:52:28.42Z</time></trkpt><trkpt lat="34.0098908" lon="8.2545889"><ele>60.199999999999996</ele><time>2026-04-29T16:52:29.412Z</time></trkpt><trkpt lat="34.0098504" lon="8.2544801"><ele>59.800000000000004</ele><time>2026-04-29T16:52:30.41Z</time></trkpt><trkpt lat="34.0098087" lon="8.254373"><ele>59.400000000000006</ele><time>2026-04-29T16:52:31.419Z</time></trkpt><trkpt lat="34.0097662" lon="8.2542685"><ele>59.0</ele><time>2026-04-29T16:52:32.419Z</time></trkpt><trkpt lat="34.0097238" lon="8.2541655"><ele>59.0</ele><time>2026-04-29T16:52:33.416Z</time></trkpt><trkpt lat="34.0096826" lon="8.2540677"><ele>59.00000000000001</ele><time>2026-04-29T16:52:34.418Z</time></trkpt><trkpt lat="34.0096378" lon="8.2539726"><ele>59.00000000000001</ele><time>2026-04-29T16:52:35.428Z</time></trkpt><trkpt lat="34.0095932" lon="8.2538741"><ele>59.0</ele><time>2026-04-29T16:52:36.425Z</time></trkpt><trkpt lat="34.0095493" lon="8.2537708"><ele>59.0</ele><time>2026-04-29T16:52:37.425Z</time></trkpt><trkpt lat="34.0095138" lon="8.2536694"><ele>59.2</ele><time>2026-04-29T16:52:38.419Z</time></trkpt><trkpt lat="34.0094829" lon="8.2535716"><ele>59.400000000000006</ele><time>2026-04-29T16:52:39.437Z</time></trkpt><trkpt lat="34.0094438" lon="8.2533956"><ele>59.6</ele><time>2026-04-29T16:52:41.418Z</time></trkpt><trkpt lat="34.0094264" lon="8.2533194"><ele>59.8</ele><time>2026-04-29T16:52:42.408Z</time></trkpt><trkpt lat="34.0094036" lon="8.2531851"><ele>60.0</ele><time>2026-04-29T16:52:44.419Z</time></trkpt><trkpt lat="34.0093861" lon="8.2530416"><ele>60.333333333333336</ele><time>2026-04-29T16:52:46.415Z</time></trkpt><trkpt lat="34.0093808" lon="8.252952"><ele>60.66666666666667</ele><time>2026-04-29T16:52:47.417Z</time></trkpt><trkpt lat="34.0093737" lon="8.2528614"><ele>61.0</ele><time>2026-04-29T16:52:48.419Z</time></trkpt><trkpt lat="34.0093617" lon="8.2527644"><ele>61.333333333333336</ele><time>2026-04-29T16:52:49.416Z</time></trkpt><trkpt lat="34.009351" lon="8.2526697"><ele>61.66666666666667</ele><time>2026-04-29T16:52:50.416Z</time></trkpt><trkpt lat="34.0093406" lon="8.2525757"><ele>62.0</ele><time>2026-04-29T16:52:51.411Z</time></trkpt><trkpt lat="34.0093284" lon="8.2524883"><ele>62.0</ele><time>2026-04-29T16:52:52.418Z</time></trkpt><trkpt lat="34.0092951" lon="8.2523674"><ele>62.0</ele><time>2026-04-29T16:52:54.407Z</time></trkpt><trkpt lat="34.0092501" lon="8.2522113"><ele>62.0</ele><time>2026-04-29T16:52:56.407Z</time></trkpt><trkpt lat="34.009227" lon="8.2521145"><ele>62.0</ele><time>2026-04-29T16:52:57.417Z</time></trkpt><trkpt lat="34.009192" lon="8.2520169"><ele>62.0</ele><time>2026-04-29T16:52:58.417Z</time></trkpt><trkpt lat="34.009146" lon="8.2519201"><ele>62.00000000000001</ele><time>2026-04-29T16:52:59.421Z</time></trkpt><trkpt lat="34.0090998" lon="8.2518284"><ele>62.0</ele><time>2026-04-29T16:53:00.404Z</time></trkpt><trkpt lat="34.0090543" lon="8.2517361"><ele>62.0</ele><time>2026-04-29T16:53:01.415Z</time></trkpt><trkpt lat="34.0090153" lon="8.2516347"><ele>62.0</ele><time>2026-04-29T16:53:02.409Z</time></trkpt><trkpt lat="34.0089749" lon="8.2515415"><ele>62.00000000000001</ele><time>2026-04-29T16:53:03.419Z</time></trkpt><trkpt lat="34.008935" lon="8.2514456"><ele>62.0</ele><time>2026-04-29T16:53:04.412Z</time></trkpt><trkpt lat="34.0088913" lon="8.2513597"><ele>61.6</ele><time>2026-04-29T16:53:05.423Z</time></trkpt><trkpt lat="34.0088426" lon="8.2512784"><ele>61.2</ele><time>2026-04-29T16:53:06.407Z</time></trkpt><trkpt lat="34.0088027" lon="8.2512059"><ele>60.8</ele><time>2026-04-29T16:53:07.409Z</time></trkpt><trkpt lat="34.0087366" lon="8.2510816"><ele>60.4</ele><time>2026-04-29T16:53:09.407Z</time></trkpt><trkpt lat="34.0086693" lon="8.2509654"><ele>60.0</ele><time>2026-04-29T16:53:11.415Z</time></trkpt><trkpt lat="34.0086093" lon="8.2508566"><ele>60.0</ele><time>2026-04-29T16:53:13.414Z</time></trkpt><trkpt lat="34.0085412" lon="8.2507324"><ele>60.0</ele><time>2026-04-29T16:53:15.42Z</time></trkpt><trkpt lat="34.0085059" lon="8.2506604"><ele>60.0</ele><time>2026-04-29T16:53:16.412Z</time></trkpt><trkpt lat="34.0084675" lon="8.2505762"><ele>60.0</ele><time>2026-04-29T16:53:17.414Z</time></trkpt><trkpt lat="34.0084217" lon="8.2504936"><ele>60.0</ele><time>2026-04-29T16:53:18.418Z</time></trkpt><trkpt lat="34.0083735" lon="8.2504139"><ele>60.0</ele><time>2026-04-29T16:53:19.418Z</time></trkpt><trkpt lat="34.008327" lon="8.2503317"><ele>60.0</ele><time>2026-04-29T16:53:20.414Z</time></trkpt><trkpt lat="34.0082808" lon="8.2502554"><ele>60.0</ele><time>2026-04-29T16:53:21.421Z</time></trkpt><trkpt lat="34.0082379" lon="8.2501746"><ele>60.0</ele><time>2026-04-29T16:53:22.417Z</time></trkpt><trkpt lat="34.0081887" lon="8.2500898"><ele>60.0</ele><time>2026-04-29T16:53:23.433Z</time></trkpt><trkpt lat="34.0081399" lon="8.250001"><ele>60.0</ele><time>2026-04-29T16:53:24.427Z</time></trkpt><trkpt lat="34.0080908" lon="8.2499193"><ele>60.0</ele><time>2026-04-29T16:53:25.438Z</time></trkpt><trkpt lat="34.0080397" lon="8.249826"><ele>59.4</ele><time>2026-04-29T16:53:26.444Z</time></trkpt><trkpt lat="34.0079927" lon="8.2497299"><ele>58.8</ele><time>2026-04-29T16:53:27.421Z</time></trkpt><trkpt lat="34.0079475" lon="8.2496252"><ele>58.2</ele><time>2026-04-29T16:53:28.405Z</time></trkpt><trkpt lat="34.0079028" lon="8.2495133"><ele>57.6</ele><time>2026-04-29T16:53:29.42Z</time></trkpt><trkpt lat="34.0078725" lon="8.2494019"><ele>57.0</ele><time>2026-04-29T16:53:30.417Z</time></trkpt><trkpt lat="34.007854" lon="8.2492938"><ele>57.0</ele><time>2026-04-29T16:53:31.419Z</time></trkpt><trkpt lat="34.0078485" lon="8.2491842"><ele>57.0</ele><time>2026-04-29T16:53:32.424Z</time></trkpt><trkpt lat="34.0078571" lon="8.2490762"><ele>57.0</ele><time>2026-04-29T16:53:33.416Z</time></trkpt><trkpt lat="34.0078748" lon="8.2489706"><ele>57.0</ele><time>2026-04-29T16:53:34.424Z</time></trkpt><trkpt lat="34.0078982" lon="8.2488649"><ele>57.0</ele><time>2026-04-29T16:53:35.417Z</time></trkpt><trkpt lat="34.0079372" lon="8.2487577"><ele>57.0</ele><time>2026-04-29T16:53:36.421Z</time></trkpt><trkpt lat="34.0079894" lon="8.2486554"><ele>57.0</ele><time>2026-04-29T16:53:37.415Z</time></trkpt><trkpt lat="34.0080485" lon="8.2485569"><ele>57.0</ele><time>2026-04-29T16:53:38.414Z</time></trkpt><trkpt lat="34.0081155" lon="8.2484476"><ele>57.0</ele><time>2026-04-29T16:53:39.413Z</time></trkpt><trkpt lat="34.0081925" lon="8.2483331"><ele>57.0</ele><time>2026-04-29T16:53:40.435Z</time></trkpt><trkpt lat="34.0082874" lon="8.2482123"><ele>58.33333333333333</ele><time>2026-04-29T16:53:41.415Z</time></trkpt><trkpt lat="34.0083956" lon="8.2480798"><ele>59.666666666666664</ele><time>2026-04-29T16:53:42.412Z</time></trkpt><trkpt lat="34.0085012" lon="8.247937"><ele>61.0</ele><time>2026-04-29T16:53:43.45Z</time></trkpt><trkpt lat="34.0085959" lon="8.247815"><ele>61.0</ele><time>2026-04-29T16:53:44.433Z</time></trkpt><trkpt lat="34.0086735" lon="8.2477034"><ele>60.99999999999999</ele><time>2026-04-29T16:53:45.44Z</time></trkpt><trkpt lat="34.0087405" lon="8.2476121"><ele>60.99999999999999</ele><time>2026-04-29T16:53:46.418Z</time></trkpt><trkpt lat="34.0087964" lon="8.2475325"><ele>61.0</ele><time>2026-04-29T16:53:47.415Z</time></trkpt><trkpt lat="34.0088491" lon="8.2474658"><ele>61.0</ele><time>2026-04-29T16:53:48.408Z</time></trkpt><trkpt lat="34.008896" lon="8.2474037"><ele>61.599999999999994</ele><time>2026-04-29T16:53:49.419Z</time></trkpt><trkpt lat="34.0089522" lon="8.2472845"><ele>62.199999999999996</ele><time>2026-04-29T16:53:51.41Z</time></trkpt><trkpt lat="34.0089043" lon="8.2471589"><ele>62.800000000000004</ele><time>2026-04-29T16:53:53.419Z</time></trkpt><trkpt lat="34.0088461" lon="8.2471072"><ele>63.400000000000006</ele><time>2026-04-29T16:53:54.417Z</time></trkpt><trkpt lat="34.0087745" lon="8.2470625"><ele>64.0</ele><time>2026-04-29T16:53:55.41Z</time></trkpt><trkpt lat="34.0086966" lon="8.2470105"><ele>64.0</ele><time>2026-04-29T16:53:56.405Z</time></trkpt><trkpt lat="34.0086154" lon="8.2469376"><ele>64.0</ele><time>2026-04-29T16:53:57.416Z</time></trkpt><trkpt lat="34.008516" lon="8.246851"><ele>64.0</ele><time>2026-04-29T16:53:58.413Z</time></trkpt><trkpt lat="34.0083909" lon="8.2467436"><ele>64.0</ele><time>2026-04-29T16:53:59.415Z</time></trkpt><trkpt lat="34.0082368" lon="8.246639"><ele>63.33333333333333</ele><time>2026-04-29T16:54:00.427Z</time></trkpt><trkpt lat="34.0080824" lon="8.2465237"><ele>62.66666666666667</ele><time>2026-04-29T16:54:01.412Z</time></trkpt><trkpt lat="34.0079389" lon="8.2464094"><ele>62.0</ele><time>2026-04-29T16:54:02.408Z</time></trkpt><trkpt lat="34.0078063" lon="8.2463131"><ele>62.0</ele><time>2026-04-29T16:54:03.415Z</time></trkpt><trkpt lat="34.0076834" lon="8.2462252"><ele>62.0</ele><time>2026-04-29T16:54:04.412Z</time></trkpt><trkpt lat="34.0075649" lon="8.2461352"><ele>62.0</ele><time>2026-04-29T16:54:05.414Z</time></trkpt><trkpt lat="34.0074542" lon="8.2460512"><ele>62.0</ele><time>2026-04-29T16:54:06.419Z</time></trkpt><trkpt lat="34.0073489" lon="8.2459749"><ele>60.333333333333336</ele><time>2026-04-29T16:54:07.412Z</time></trkpt><trkpt lat="34.0071473" lon="8.2458184"><ele>58.66666666666667</ele><time>2026-04-29T16:54:09.442Z</time></trkpt><trkpt lat="34.0070448" lon="8.2457382"><ele>57.0</ele><time>2026-04-29T16:54:10.419Z</time></trkpt><trkpt lat="34.0069384" lon="8.2456471"><ele>57.25</ele><time>2026-04-29T16:54:11.415Z</time></trkpt><trkpt lat="34.0068374" lon="8.245547"><ele>57.5</ele><time>2026-04-29T16:54:12.419Z</time></trkpt><trkpt lat="34.0067464" lon="8.2454437"><ele>57.75</ele><time>2026-04-29T16:54:13.414Z</time></trkpt><trkpt lat="34.0066601" lon="8.2453429"><ele>58.0</ele><time>2026-04-29T16:54:14.416Z</time></trkpt><trkpt lat="34.0065824" lon="8.245245"><ele>57.33333333333333</ele><time>2026-04-29T16:54:15.425Z</time></trkpt><trkpt lat="34.0065176" lon="8.2451502"><ele>56.666666666666664</ele><time>2026-04-29T16:54:16.407Z</time></trkpt><trkpt lat="34.0064654" lon="8.2450792"><ele>56.0</ele><time>2026-04-29T16:54:17.414Z</time></trkpt><trkpt lat="34.0064191" lon="8.2450126"><ele>55.33333333333333</ele><time>2026-04-29T16:54:18.415Z</time></trkpt><trkpt lat="34.0063601" lon="8.2449314"><ele>54.666666666666664</ele><time>2026-04-29T16:54:19.417Z</time></trkpt><trkpt lat="34.0062989" lon="8.2448283"><ele>54.0</ele><time>2026-04-29T16:54:20.41Z</time></trkpt><trkpt lat="34.0062339" lon="8.244723"><ele>54.0</ele><time>2026-04-29T16:54:21.418Z</time></trkpt><trkpt lat="34.0061577" lon="8.2446119"><ele>54.0</ele><time>2026-04-29T16:54:22.409Z</time></trkpt><trkpt lat="34.0060704" lon="8.2444661"><ele>54.0</ele><time>2026-04-29T16:54:23.452Z</time></trkpt><trkpt lat="34.0059524" lon="8.2442753"><ele>54.0</ele><time>2026-04-29T16:54:24.407Z</time></trkpt><trkpt lat="34.0058343" lon="8.2440918"><ele>54.0</ele><time>2026-04-29T16:54:25.408Z</time></trkpt><trkpt lat="34.0057197" lon="8.243934"><ele>54.0</ele><time>2026-04-29T16:54:26.419Z</time></trkpt><trkpt lat="34.0056088" lon="8.2437922"><ele>53.75</ele><time>2026-04-29T16:54:27.413Z</time></trkpt><trkpt lat="34.0055085" lon="8.2436944"><ele>53.5</ele><time>2026-04-29T16:54:28.419Z</time></trkpt><trkpt lat="34.0054025" lon="8.2435973"><ele>53.25</ele><time>2026-04-29T16:54:29.413Z</time></trkpt><trkpt lat="34.0053014" lon="8.2435129"><ele>53.0</ele><time>2026-04-29T16:54:30.413Z</time></trkpt><trkpt lat="34.0052077" lon="8.2434372"><ele>53.0</ele><time>2026-04-29T16:54:31.414Z</time></trkpt><trkpt lat="34.0051147" lon="8.243364"><ele>53.0</ele><time>2026-04-29T16:54:32.403Z</time></trkpt><trkpt lat="34.0050367" lon="8.2432933"><ele>53.0</ele><time>2026-04-29T16:54:33.455Z</time></trkpt><trkpt lat="34.0049642" lon="8.2432283"><ele>53.0</ele><time>2026-04-29T16:54:34.413Z</time></trkpt><trkpt lat="34.0048958" lon="8.243166"><ele>53.0</ele><time>2026-04-29T16:54:35.411Z</time></trkpt><trkpt lat="34.0048212" lon="8.2430979"><ele>53.75</ele><time>2026-04-29T16:54:36.419Z</time></trkpt><trkpt lat="34.0047339" lon="8.2430164"><ele>54.5</ele><time>2026-04-29T16:54:37.413Z</time></trkpt><trkpt lat="34.0046375" lon="8.2429284"><ele>55.25</ele><time>2026-04-29T16:54:38.416Z</time></trkpt><trkpt lat="34.0045457" lon="8.2428249"><ele>56.0</ele><time>2026-04-29T16:54:39.417Z</time></trkpt><trkpt lat="34.0044599" lon="8.2427109"><ele>56.0</ele><time>2026-04-29T16:54:40.415Z</time></trkpt><trkpt lat="34.0043836" lon="8.2425863"><ele>56.0</ele><time>2026-04-29T16:54:41.413Z</time></trkpt><trkpt lat="34.004314" lon="8.2424565"><ele>56.0</ele><time>2026-04-29T16:54:42.419Z</time></trkpt><trkpt lat="34.0042428" lon="8.2423279"><ele>56.0</ele><time>2026-04-29T16:54:43.408Z</time></trkpt><trkpt lat="34.0041781" lon="8.2421989"><ele>55.5</ele><time>2026-04-29T16:54:44.416Z</time></trkpt><trkpt lat="34.0041193" lon="8.2420682"><ele>55.0</ele><time>2026-04-29T16:54:45.413Z</time></trkpt><trkpt lat="34.0040581" lon="8.2419411"><ele>54.5</ele><time>2026-04-29T16:54:46.419Z</time></trkpt><trkpt lat="34.0039947" lon="8.2418213"><ele>54.0</ele><time>2026-04-29T16:54:47.412Z</time></trkpt><trkpt lat="34.0039337" lon="8.241699"><ele>54.0</ele><time>2026-04-29T16:54:48.417Z</time></trkpt><trkpt lat="34.0038736" lon="8.2415788"><ele>54.0</ele><time>2026-04-29T16:54:49.423Z</time></trkpt><trkpt lat="34.0038166" lon="8.2414635"><ele>54.0</ele><time>2026-04-29T16:54:50.424Z</time></trkpt><trkpt lat="34.0037562" lon="8.2413412"><ele>54.0</ele><time>2026-04-29T16:54:51.424Z</time></trkpt><trkpt lat="34.0036939" lon="8.2412144"><ele>54.5</ele><time>2026-04-29T16:54:52.448Z</time></trkpt><trkpt lat="34.0036306" lon="8.241092"><ele>55.0</ele><time>2026-04-29T16:54:53.413Z</time></trkpt><trkpt lat="34.003563" lon="8.2409652"><ele>55.5</ele><time>2026-04-29T16:54:54.416Z</time></trkpt><trkpt lat="34.0034934" lon="8.2408392"><ele>56.0</ele><time>2026-04-29T16:54:55.419Z</time></trkpt><trkpt lat="34.0034159" lon="8.2407165"><ele>56.5</ele><time>2026-04-29T16:54:56.412Z</time></trkpt><trkpt lat="34.003338" lon="8.2405933"><ele>57.0</ele><time>2026-04-29T16:54:57.419Z</time></trkpt><trkpt lat="34.0032561" lon="8.2404711"><ele>57.5</ele><time>2026-04-29T16:54:58.42Z</time></trkpt><trkpt lat="34.0031662" lon="8.2403556"><ele>58.0</ele><time>2026-04-29T16:54:59.419Z</time></trkpt><trkpt lat="34.003074" lon="8.2402487"><ele>58.0</ele><time>2026-04-29T16:55:00.424Z</time></trkpt><trkpt lat="34.0029808" lon="8.2401436"><ele>58.0</ele><time>2026-04-29T16:55:01.406Z</time></trkpt><trkpt lat="34.0028792" lon="8.2400499"><ele>58.0</ele><time>2026-04-29T16:55:02.422Z</time></trkpt><trkpt lat="34.0027815" lon="8.2399541"><ele>58.0</ele><time>2026-04-29T16:55:03.414Z</time></trkpt><trkpt lat="34.0026791" lon="8.2398643"><ele>58.5</ele><time>2026-04-29T16:55:04.409Z</time></trkpt><trkpt lat="34.0025811" lon="8.2397733"><ele>59.0</ele><time>2026-04-29T16:55:05.412Z</time></trkpt><trkpt lat="34.002488" lon="8.2396917"><ele>59.5</ele><time>2026-04-29T16:55:06.414Z</time></trkpt><trkpt lat="34.0023923" lon="8.239616"><ele>60.0</ele><time>2026-04-29T16:55:07.411Z</time></trkpt><trkpt lat="34.0023019" lon="8.2395441"><ele>60.0</ele><time>2026-04-29T16:55:08.417Z</time></trkpt><trkpt lat="34.0022224" lon="8.2394826"><ele>60.0</ele><time>2026-04-29T16:55:09.402Z</time></trkpt><trkpt lat="34.0021516" lon="8.2394266"><ele>60.0</ele><time>2026-04-29T16:55:10.468Z</time></trkpt><trkpt lat="34.0020852" lon="8.2393704"><ele>60.0</ele><time>2026-04-29T16:55:11.416Z</time></trkpt><trkpt lat="34.0020279" lon="8.239317"><ele>60.0</ele><time>2026-04-29T16:55:12.408Z</time></trkpt><trkpt lat="34.001973" lon="8.2392644"><ele>60.0</ele><time>2026-04-29T16:55:13.446Z</time></trkpt><trkpt lat="34.0019171" lon="8.239219"><ele>60.0</ele><time>2026-04-29T16:55:14.411Z</time></trkpt><trkpt lat="34.0018513" lon="8.2391682"><ele>60.0</ele><time>2026-04-29T16:55:15.412Z</time></trkpt><trkpt lat="34.0017731" lon="8.239105"><ele>60.0</ele><time>2026-04-29T16:55:16.409Z</time></trkpt><trkpt lat="34.0016882" lon="8.2390375"><ele>60.0</ele><time>2026-04-29T16:55:17.413Z</time></trkpt><trkpt lat="34.0015995" lon="8.2389745"><ele>60.0</ele><time>2026-04-29T16:55:18.414Z</time></trkpt><trkpt lat="34.0015108" lon="8.2389032"><ele>60.25</ele><time>2026-04-29T16:55:19.408Z</time></trkpt><trkpt lat="34.0014242" lon="8.2388327"><ele>60.5</ele><time>2026-04-29T16:55:20.412Z</time></trkpt><trkpt lat="34.0013275" lon="8.2387554"><ele>60.75</ele><time>2026-04-29T16:55:21.409Z</time></trkpt><trkpt lat="34.0012284" lon="8.238674"><ele>61.0</ele><time>2026-04-29T16:55:22.414Z</time></trkpt><trkpt lat="34.0011362" lon="8.2385964"><ele>61.0</ele><time>2026-04-29T16:55:23.424Z</time></trkpt><trkpt lat="34.0010465" lon="8.2385261"><ele>60.99999999999999</ele><time>2026-04-29T16:55:24.422Z</time></trkpt><trkpt lat="34.0009559" lon="8.238458"><ele>60.99999999999999</ele><time>2026-04-29T16:55:25.425Z</time></trkpt><trkpt lat="34.0008623" lon="8.2383865"><ele>61.0</ele><time>2026-04-29T16:55:26.412Z</time></trkpt><trkpt lat="34.0007707" lon="8.2383178"><ele>61.0</ele><time>2026-04-29T16:55:27.414Z</time></trkpt><trkpt lat="34.0006751" lon="8.2382524"><ele>60.8</ele><time>2026-04-29T16:55:28.436Z</time></trkpt><trkpt lat="34.0005801" lon="8.238186"><ele>60.599999999999994</ele><time>2026-04-29T16:55:29.405Z</time></trkpt><trkpt lat="34.0004854" lon="8.2381213"><ele>60.4</ele><time>2026-04-29T16:55:30.403Z</time></trkpt><trkpt lat="34.0003974" lon="8.238067"><ele>60.2</ele><time>2026-04-29T16:55:31.413Z</time></trkpt><trkpt lat="34.0003143" lon="8.2380193"><ele>60.0</ele><time>2026-04-29T16:55:32.414Z</time></trkpt><trkpt lat="34.0002307" lon="8.2379847"><ele>60.0</ele><time>2026-04-29T16:55:33.411Z</time></trkpt><trkpt lat="34.0001493" lon="8.2379463"><ele>60.0</ele><time>2026-04-29T16:55:34.414Z</time></trkpt><trkpt lat="34.000086" lon="8.2379141"><ele>60.0</ele><time>2026-04-29T16:55:35.413Z</time></trkpt><trkpt lat="33.9999732" lon="8.2378716"><ele>60.0</ele><time>2026-04-29T16:55:37.423Z</time></trkpt><trkpt lat="33.9999045" lon="8.237844"><ele>60.0</ele><time>2026-04-29T16:55:38.423Z</time></trkpt><trkpt lat="33.9998204" lon="8.2378032"><ele>60.0</ele><time>2026-04-29T16:55:39.416Z</time></trkpt><trkpt lat="33.9997252" lon="8.2377511"><ele>60.0</ele><time>2026-04-29T16:55:40.413Z</time></trkpt><trkpt lat="33.999625" lon="8.2377064"><ele>60.0</ele><time>2026-04-29T16:55:41.414Z</time></trkpt><trkpt lat="33.9995265" lon="8.2376729"><ele>60.0</ele><time>2026-04-29T16:55:42.413Z</time></trkpt><trkpt lat="33.9994242" lon="8.2376385"><ele>60.0</ele><time>2026-04-29T16:55:43.413Z</time></trkpt><trkpt lat="33.9993233" lon="8.2375947"><ele>60.0</ele><time>2026-04-29T16:55:44.41Z</time></trkpt><trkpt lat="33.999222" lon="8.2375512"><ele>60.333333333333336</ele><time>2026-04-29T16:55:45.418Z</time></trkpt><trkpt lat="33.9991314" lon="8.2375078"><ele>60.66666666666667</ele><time>2026-04-29T16:55:46.422Z</time></trkpt><trkpt lat="33.9990471" lon="8.2374686"><ele>61.0</ele><time>2026-04-29T16:55:47.416Z</time></trkpt><trkpt lat="33.9989679" lon="8.2374339"><ele>61.333333333333336</ele><time>2026-04-29T16:55:48.414Z</time></trkpt><trkpt lat="33.9989039" lon="8.2373987"><ele>61.66666666666667</ele><time>2026-04-29T16:55:49.416Z</time></trkpt><trkpt lat="33.998841" lon="8.2373633"><ele>62.0</ele><time>2026-04-29T16:55:50.415Z</time></trkpt><trkpt lat="33.9987629" lon="8.2373158"><ele>62.2</ele><time>2026-04-29T16:55:51.412Z</time></trkpt><trkpt lat="33.9986821" lon="8.2372629"><ele>62.400000000000006</ele><time>2026-04-29T16:55:52.411Z</time></trkpt><trkpt lat="33.9985979" lon="8.2372054"><ele>62.599999999999994</ele><time>2026-04-29T16:55:53.414Z</time></trkpt><trkpt lat="33.9985157" lon="8.2371299"><ele>62.8</ele><time>2026-04-29T16:55:54.423Z</time></trkpt><trkpt lat="33.9984362" lon="8.237037"><ele>63.0</ele><time>2026-04-29T16:55:55.409Z</time></trkpt><trkpt lat="33.9983599" lon="8.2369366"><ele>62.5</ele><time>2026-04-29T16:55:56.416Z</time></trkpt><trkpt lat="33.9982843" lon="8.2368318"><ele>62.0</ele><time>2026-04-29T16:55:57.413Z</time></trkpt><trkpt lat="33.9982165" lon="8.2367239"><ele>61.5</ele><time>2026-04-29T16:55:58.412Z</time></trkpt><trkpt lat="33.9981505" lon="8.2366107"><ele>61.0</ele><time>2026-04-29T16:55:59.413Z</time></trkpt><trkpt lat="33.9980905" lon="8.2365002"><ele>61.0</ele><time>2026-04-29T16:56:00.417Z</time></trkpt><trkpt lat="33.9980304" lon="8.2364008"><ele>60.99999999999999</ele><time>2026-04-29T16:56:01.417Z</time></trkpt><trkpt lat="33.9979666" lon="8.2363027"><ele>60.99999999999999</ele><time>2026-04-29T16:56:02.413Z</time></trkpt><trkpt lat="33.9979042" lon="8.2362034"><ele>61.0</ele><time>2026-04-29T16:56:03.408Z</time></trkpt><trkpt lat="33.9978501" lon="8.2361062"><ele>61.0</ele><time>2026-04-29T16:56:04.43Z</time></trkpt><trkpt lat="33.9977945" lon="8.2360059"><ele>61.0</ele><time>2026-04-29T16:56:05.409Z</time></trkpt><trkpt lat="33.9977384" lon="8.2359117"><ele>60.99999999999999</ele><time>2026-04-29T16:56:06.405Z</time></trkpt><trkpt lat="33.9976861" lon="8.2358106"><ele>60.99999999999999</ele><time>2026-04-29T16:56:07.415Z</time></trkpt><trkpt lat="33.9976334" lon="8.2357106"><ele>61.0</ele><time>2026-04-29T16:56:08.417Z</time></trkpt><trkpt lat="33.9975849" lon="8.2356117"><ele>61.0</ele><time>2026-04-29T16:56:09.412Z</time></trkpt><trkpt lat="33.9975357" lon="8.2355173"><ele>61.199999999999996</ele><time>2026-04-29T16:56:10.418Z</time></trkpt><trkpt lat="33.9974804" lon="8.2354232"><ele>61.39999999999999</ele><time>2026-04-29T16:56:11.409Z</time></trkpt><trkpt lat="33.997428" lon="8.2353266"><ele>61.6</ele><time>2026-04-29T16:56:12.424Z</time></trkpt><trkpt lat="33.9973696" lon="8.235235"><ele>61.8</ele><time>2026-04-29T16:56:13.417Z</time></trkpt><trkpt lat="33.997318" lon="8.2351386"><ele>62.0</ele><time>2026-04-29T16:56:14.417Z</time></trkpt><trkpt lat="33.9972677" lon="8.2350459"><ele>62.0</ele><time>2026-04-29T16:56:15.404Z</time></trkpt><trkpt lat="33.997217" lon="8.2349552"><ele>62.0</ele><time>2026-04-29T16:56:16.419Z</time></trkpt><trkpt lat="33.9971652" lon="8.2348597"><ele>62.0</ele><time>2026-04-29T16:56:17.443Z</time></trkpt><trkpt lat="33.9971112" lon="8.2347645"><ele>62.0</ele><time>2026-04-29T16:56:18.412Z</time></trkpt><trkpt lat="33.9970612" lon="8.2346747"><ele>62.0</ele><time>2026-04-29T16:56:19.409Z</time></trkpt><trkpt lat="33.9970067" lon="8.2345815"><ele>62.50000000000001</ele><time>2026-04-29T16:56:20.417Z</time></trkpt><trkpt lat="33.9969552" lon="8.2344889"><ele>63.0</ele><time>2026-04-29T16:56:21.412Z</time></trkpt><trkpt lat="33.9969072" lon="8.2344051"><ele>63.5</ele><time>2026-04-29T16:56:22.463Z</time></trkpt><trkpt lat="33.9968629" lon="8.2343291"><ele>64.0</ele><time>2026-04-29T16:56:23.412Z</time></trkpt><trkpt lat="33.9968229" lon="8.2342579"><ele>64.5</ele><time>2026-04-29T16:56:24.42Z</time></trkpt><trkpt lat="33.9967841" lon="8.2341953"><ele>65.0</ele><time>2026-04-29T16:56:25.415Z</time></trkpt><trkpt lat="33.9967457" lon="8.2341306"><ele>65.0</ele><time>2026-04-29T16:56:26.426Z</time></trkpt><trkpt lat="33.9967004" lon="8.2340627"><ele>65.0</ele><time>2026-04-29T16:56:27.412Z</time></trkpt><trkpt lat="33.9966573" lon="8.2339942"><ele>65.0</ele><time>2026-04-29T16:56:28.414Z</time></trkpt><trkpt lat="33.9966147" lon="8.2339115"><ele>65.0</ele><time>2026-04-29T16:56:29.416Z</time></trkpt><trkpt lat="33.9965649" lon="8.2338224"><ele>65.0</ele><time>2026-04-29T16:56:30.415Z</time></trkpt><trkpt lat="33.996512" lon="8.2337331"><ele>65.0</ele><time>2026-04-29T16:56:31.415Z</time></trkpt><trkpt lat="33.9964583" lon="8.2336467"><ele>65.2</ele><time>2026-04-29T16:56:32.417Z</time></trkpt><trkpt lat="33.9964056" lon="8.2335581"><ele>65.4</ele><time>2026-04-29T16:56:33.416Z</time></trkpt><trkpt lat="33.9963485" lon="8.2334696"><ele>65.6</ele><time>2026-04-29T16:56:34.468Z</time></trkpt><trkpt lat="33.9962856" lon="8.2333788"><ele>65.8</ele><time>2026-04-29T16:56:35.417Z</time></trkpt><trkpt lat="33.9962201" lon="8.2333"><ele>66.0</ele><time>2026-04-29T16:56:36.414Z</time></trkpt><trkpt lat="33.9961513" lon="8.2332212"><ele>66.0</ele><time>2026-04-29T16:56:37.414Z</time></trkpt><trkpt lat="33.99609" lon="8.2331478"><ele>66.0</ele><time>2026-04-29T16:56:38.43Z</time></trkpt><trkpt lat="33.9960259" lon="8.2330822"><ele>66.0</ele><time>2026-04-29T16:56:39.426Z</time></trkpt><trkpt lat="33.9959636" lon="8.2330168"><ele>66.0</ele><time>2026-04-29T16:56:40.421Z</time></trkpt><trkpt lat="33.9959046" lon="8.2329575"><ele>66.0</ele><time>2026-04-29T16:56:41.41Z</time></trkpt><trkpt lat="33.9958462" lon="8.2328976"><ele>66.0</ele><time>2026-04-29T16:56:42.411Z</time></trkpt><trkpt lat="33.9957781" lon="8.2328366"><ele>66.0</ele><time>2026-04-29T16:56:43.403Z</time></trkpt><trkpt lat="33.9957194" lon="8.2327695"><ele>66.0</ele><time>2026-04-29T16:56:44.421Z</time></trkpt><trkpt lat="33.995663" lon="8.2327147"><ele>66.0</ele><time>2026-04-29T16:56:45.414Z</time></trkpt><trkpt lat="33.9956072" lon="8.2326517"><ele>66.0</ele><time>2026-04-29T16:56:46.412Z</time></trkpt><trkpt lat="33.99555" lon="8.2325904"><ele>66.0</ele><time>2026-04-29T16:56:47.408Z</time></trkpt><trkpt lat="33.9954895" lon="8.2325263"><ele>66.0</ele><time>2026-04-29T16:56:48.412Z</time></trkpt><trkpt lat="33.9954318" lon="8.2324667"><ele>66.0</ele><time>2026-04-29T16:56:49.406Z</time></trkpt><trkpt lat="33.9953664" lon="8.2324101"><ele>66.0</ele><time>2026-04-29T16:56:50.408Z</time></trkpt><trkpt lat="33.9953041" lon="8.2323465"><ele>66.0</ele><time>2026-04-29T16:56:51.408Z</time></trkpt><trkpt lat="33.9952445" lon="8.2322804"><ele>66.0</ele><time>2026-04-29T16:56:52.412Z</time></trkpt><trkpt lat="33.9951808" lon="8.2322138"><ele>66.0</ele><time>2026-04-29T16:56:53.416Z</time></trkpt><trkpt lat="33.9951088" lon="8.2321435"><ele>66.0</ele><time>2026-04-29T16:56:54.419Z</time></trkpt><trkpt lat="33.9950422" lon="8.2320814"><ele>66.16666666666667</ele><time>2026-04-29T16:56:55.416Z</time></trkpt><trkpt lat="33.9949729" lon="8.2320184"><ele>66.33333333333333</ele><time>2026-04-29T16:56:56.407Z</time></trkpt><trkpt lat="33.9949023" lon="8.231953"><ele>66.5</ele><time>2026-04-29T16:56:57.402Z</time></trkpt><trkpt lat="33.9948337" lon="8.2318861"><ele>66.66666666666666</ele><time>2026-04-29T16:56:58.426Z</time></trkpt><trkpt lat="33.9947613" lon="8.23182"><ele>66.83333333333333</ele><time>2026-04-29T16:56:59.412Z</time></trkpt><trkpt lat="33.9946949" lon="8.2317537"><ele>67.0</ele><time>2026-04-29T16:57:00.414Z</time></trkpt><trkpt lat="33.9946286" lon="8.2316862"><ele>67.0</ele><time>2026-04-29T16:57:01.422Z</time></trkpt><trkpt lat="33.9945621" lon="8.2316278"><ele>67.0</ele><time>2026-04-29T16:57:02.413Z</time></trkpt><trkpt lat="33.9945037" lon="8.2315663"><ele>67.0</ele><time>2026-04-29T16:57:03.415Z</time></trkpt><trkpt lat="33.9944502" lon="8.2315071"><ele>67.0</ele><time>2026-04-29T16:57:04.414Z</time></trkpt><trkpt lat="33.9943962" lon="8.2314526"><ele>67.0</ele><time>2026-04-29T16:57:05.415Z</time></trkpt><trkpt lat="33.9943402" lon="8.2313972"><ele>67.0</ele><time>2026-04-29T16:57:06.415Z</time></trkpt><trkpt lat="33.9942759" lon="8.2313385"><ele>67.2</ele><time>2026-04-29T16:57:07.404Z</time></trkpt><trkpt lat="33.9942049" lon="8.2312721"><ele>67.4</ele><time>2026-04-29T16:57:08.405Z</time></trkpt><trkpt lat="33.9941285" lon="8.2312023"><ele>67.6</ele><time>2026-04-29T16:57:09.409Z</time></trkpt><trkpt lat="33.9940495" lon="8.2311293"><ele>67.8</ele><time>2026-04-29T16:57:10.406Z</time></trkpt><trkpt lat="33.9939679" lon="8.2310531"><ele>68.0</ele><time>2026-04-29T16:57:11.415Z</time></trkpt><trkpt lat="33.9938796" lon="8.2309761"><ele>68.0</ele><time>2026-04-29T16:57:12.414Z</time></trkpt><trkpt lat="33.9937885" lon="8.2308962"><ele>68.0</ele><time>2026-04-29T16:57:13.409Z</time></trkpt><trkpt lat="33.9936917" lon="8.2308018"><ele>68.0</ele><time>2026-04-29T16:57:14.412Z</time></trkpt><trkpt lat="33.9935921" lon="8.2306936"><ele>68.0</ele><time>2026-04-29T16:57:15.414Z</time></trkpt><trkpt lat="33.9934985" lon="8.2305863"><ele>68.0</ele><time>2026-04-29T16:57:16.412Z</time></trkpt><trkpt lat="33.9934116" lon="8.2304729"><ele>68.0</ele><time>2026-04-29T16:57:17.416Z</time></trkpt><trkpt lat="33.9933238" lon="8.2303596"><ele>68.0</ele><time>2026-04-29T16:57:18.417Z</time></trkpt><trkpt lat="33.9932384" lon="8.2302447"><ele>68.0</ele><time>2026-04-29T16:57:19.42Z</time></trkpt><trkpt lat="33.9931563" lon="8.2301266"><ele>68.0</ele><time>2026-04-29T16:57:20.444Z</time></trkpt><trkpt lat="33.9930817" lon="8.2300028"><ele>68.0</ele><time>2026-04-29T16:57:21.406Z</time></trkpt><trkpt lat="33.9930122" lon="8.2298809"><ele>68.0</ele><time>2026-04-29T16:57:22.42Z</time></trkpt><trkpt lat="33.9929418" lon="8.2297583"><ele>68.0</ele><time>2026-04-29T16:57:23.414Z</time></trkpt><trkpt lat="33.9928676" lon="8.2296354"><ele>68.25</ele><time>2026-04-29T16:57:24.418Z</time></trkpt><trkpt lat="33.9927975" lon="8.229512"><ele>68.5</ele><time>2026-04-29T16:57:25.415Z</time></trkpt><trkpt lat="33.9927289" lon="8.2293837"><ele>68.75</ele><time>2026-04-29T16:57:26.404Z</time></trkpt><trkpt lat="33.9926668" lon="8.2292636"><ele>69.0</ele><time>2026-04-29T16:57:27.409Z</time></trkpt><trkpt lat="33.9926082" lon="8.2291466"><ele>69.0</ele><time>2026-04-29T16:57:28.43Z</time></trkpt><trkpt lat="33.9925566" lon="8.2290225"><ele>69.0</ele><time>2026-04-29T16:57:29.412Z</time></trkpt><trkpt lat="33.992512" lon="8.2288982"><ele>69.0</ele><time>2026-04-29T16:57:30.419Z</time></trkpt><trkpt lat="33.9924769" lon="8.2287816"><ele>69.0</ele><time>2026-04-29T16:57:31.414Z</time></trkpt><trkpt lat="33.9924508" lon="8.2286857"><ele>69.0</ele><time>2026-04-29T16:57:32.419Z</time></trkpt><trkpt lat="33.9924354" lon="8.2285943"><ele>69.0</ele><time>2026-04-29T16:57:33.428Z</time></trkpt><trkpt lat="33.9924221" lon="8.2285059"><ele>69.0</ele><time>2026-04-29T16:57:34.415Z</time></trkpt><trkpt lat="33.9924159" lon="8.2284031"><ele>69.0</ele><time>2026-04-29T16:57:35.413Z</time></trkpt><trkpt lat="33.9924118" lon="8.2282789"><ele>69.0</ele><time>2026-04-29T16:57:36.406Z</time></trkpt><trkpt lat="33.9924059" lon="8.2281484"><ele>69.0</ele><time>2026-04-29T16:57:37.414Z</time></trkpt><trkpt lat="33.9924139" lon="8.2279993"><ele>69.0</ele><time>2026-04-29T16:57:38.405Z</time></trkpt><trkpt lat="33.992427" lon="8.2278505"><ele>69.0</ele><time>2026-04-29T16:57:39.407Z</time></trkpt><trkpt lat="33.9924416" lon="8.2276984"><ele>69.0</ele><time>2026-04-29T16:57:40.416Z</time></trkpt><trkpt lat="33.9924528" lon="8.2275433"><ele>69.0</ele><time>2026-04-29T16:57:41.411Z</time></trkpt><trkpt lat="33.9924591" lon="8.2273845"><ele>68.25</ele><time>2026-04-29T16:57:42.411Z</time></trkpt><trkpt lat="33.9924531" lon="8.2272186"><ele>67.5</ele><time>2026-04-29T16:57:43.414Z</time></trkpt><trkpt lat="33.9924401" lon="8.2270491"><ele>66.75</ele><time>2026-04-29T16:57:44.416Z</time></trkpt><trkpt lat="33.9924153" lon="8.2268826"><ele>66.0</ele><time>2026-04-29T16:57:45.412Z</time></trkpt><trkpt lat="33.9923839" lon="8.2267194"><ele>66.0</ele><time>2026-04-29T16:57:46.411Z</time></trkpt><trkpt lat="33.9923412" lon="8.2265581"><ele>66.0</ele><time>2026-04-29T16:57:47.412Z</time></trkpt><trkpt lat="33.9922975" lon="8.2263979"><ele>66.0</ele><time>2026-04-29T16:57:48.415Z</time></trkpt><trkpt lat="33.9922566" lon="8.2262408"><ele>66.0</ele><time>2026-04-29T16:57:49.41Z</time></trkpt><trkpt lat="33.9922128" lon="8.2260931"><ele>65.75</ele><time>2026-04-29T16:57:50.406Z</time></trkpt><trkpt lat="33.992157" lon="8.2259516"><ele>65.5</ele><time>2026-04-29T16:57:51.415Z</time></trkpt><trkpt lat="33.992093" lon="8.2258198"><ele>65.25</ele><time>2026-04-29T16:57:52.414Z</time></trkpt><trkpt lat="33.9920218" lon="8.2256985"><ele>65.0</ele><time>2026-04-29T16:57:53.409Z</time></trkpt><trkpt lat="33.9919464" lon="8.2255775"><ele>66.0</ele><time>2026-04-29T16:57:54.414Z</time></trkpt><trkpt lat="33.9918622" lon="8.2254736"><ele>67.0</ele><time>2026-04-29T16:57:55.409Z</time></trkpt><trkpt lat="33.991763" lon="8.2253686"><ele>68.0</ele><time>2026-04-29T16:57:56.408Z</time></trkpt><trkpt lat="33.9916623" lon="8.2252749"><ele>69.0</ele><time>2026-04-29T16:57:57.409Z</time></trkpt><trkpt lat="33.9915617" lon="8.2251853"><ele>69.60000000000001</ele><time>2026-04-29T16:57:58.421Z</time></trkpt><trkpt lat="33.9914647" lon="8.2250981"><ele>70.2</ele><time>2026-04-29T16:57:59.468Z</time></trkpt><trkpt lat="33.9913763" lon="8.2250229"><ele>70.80000000000001</ele><time>2026-04-29T16:58:00.436Z</time></trkpt><trkpt lat="33.9912953" lon="8.2249553"><ele>71.4</ele><time>2026-04-29T16:58:01.411Z</time></trkpt><trkpt lat="33.9912195" lon="8.2248913"><ele>72.0</ele><time>2026-04-29T16:58:02.413Z</time></trkpt><trkpt lat="33.9911523" lon="8.2248395"><ele>72.4</ele><time>2026-04-29T16:58:03.418Z</time></trkpt><trkpt lat="33.9910305" lon="8.2247308"><ele>72.80000000000001</ele><time>2026-04-29T16:58:05.441Z</time></trkpt><trkpt lat="33.9909544" lon="8.2246677"><ele>73.2</ele><time>2026-04-29T16:58:06.43Z</time></trkpt><trkpt lat="33.9908671" lon="8.2245997"><ele>73.60000000000001</ele><time>2026-04-29T16:58:07.41Z</time></trkpt><trkpt lat="33.9907859" lon="8.2245267"><ele>74.0</ele><time>2026-04-29T16:58:08.402Z</time></trkpt><trkpt lat="33.9907021" lon="8.224453"><ele>74.0</ele><time>2026-04-29T16:58:09.407Z</time></trkpt><trkpt lat="33.9906139" lon="8.2243887"><ele>74.0</ele><time>2026-04-29T16:58:10.402Z</time></trkpt><trkpt lat="33.990528" lon="8.2243203"><ele>74.0</ele><time>2026-04-29T16:58:11.413Z</time></trkpt><trkpt lat="33.9904453" lon="8.2242516"><ele>74.0</ele><time>2026-04-29T16:58:12.416Z</time></trkpt><trkpt lat="33.9903591" lon="8.2241817"><ele>74.0</ele><time>2026-04-29T16:58:13.409Z</time></trkpt><trkpt lat="33.9902712" lon="8.2241161"><ele>74.0</ele><time>2026-04-29T16:58:14.41Z</time></trkpt><trkpt lat="33.9901796" lon="8.2240524"><ele>74.0</ele><time>2026-04-29T16:58:15.417Z</time></trkpt><trkpt lat="33.9900904" lon="8.2239847"><ele>74.0</ele><time>2026-04-29T16:58:16.417Z</time></trkpt><trkpt lat="33.990005" lon="8.2239168"><ele>74.0</ele><time>2026-04-29T16:58:17.436Z</time></trkpt><trkpt lat="33.9899203" lon="8.2238453"><ele>74.0</ele><time>2026-04-29T16:58:18.417Z</time></trkpt><trkpt lat="33.9898355" lon="8.2237805"><ele>73.8</ele><time>2026-04-29T16:58:19.423Z</time></trkpt><trkpt lat="33.9897492" lon="8.2237128"><ele>73.60000000000001</ele><time>2026-04-29T16:58:20.413Z</time></trkpt><trkpt lat="33.9896637" lon="8.2236443"><ele>73.4</ele><time>2026-04-29T16:58:21.417Z</time></trkpt><trkpt lat="33.9895819" lon="8.2235742"><ele>73.2</ele><time>2026-04-29T16:58:22.408Z</time></trkpt><trkpt lat="33.9894954" lon="8.2235026"><ele>73.0</ele><time>2026-04-29T16:58:23.412Z</time></trkpt><trkpt lat="33.9894125" lon="8.2234238"><ele>73.0</ele><time>2026-04-29T16:58:24.409Z</time></trkpt><trkpt lat="33.989326" lon="8.2233578"><ele>73.0</ele><time>2026-04-29T16:58:25.413Z</time></trkpt><trkpt lat="33.9892387" lon="8.2232902"><ele>73.0</ele><time>2026-04-29T16:58:26.415Z</time></trkpt><trkpt lat="33.9891499" lon="8.2232199"><ele>73.0</ele><time>2026-04-29T16:58:27.417Z</time></trkpt><trkpt lat="33.9890598" lon="8.2231471"><ele>73.0</ele><time>2026-04-29T16:58:28.419Z</time></trkpt><trkpt lat="33.9889758" lon="8.2230716"><ele>73.16666666666666</ele><time>2026-04-29T16:58:29.428Z</time></trkpt><trkpt lat="33.9888978" lon="8.2229903"><ele>73.33333333333333</ele><time>2026-04-29T16:58:30.405Z</time></trkpt><trkpt lat="33.988822" lon="8.2229146"><ele>73.5</ele><time>2026-04-29T16:58:31.421Z</time></trkpt><trkpt lat="33.9887565" lon="8.2228438"><ele>73.66666666666667</ele><time>2026-04-29T16:58:32.433Z</time></trkpt><trkpt lat="33.9886983" lon="8.2227824"><ele>73.83333333333334</ele><time>2026-04-29T16:58:33.415Z</time></trkpt><trkpt lat="33.9886456" lon="8.2227256"><ele>74.0</ele><time>2026-04-29T16:58:34.405Z</time></trkpt><trkpt lat="33.9885969" lon="8.2226774"><ele>74.0</ele><time>2026-04-29T16:58:35.42Z</time></trkpt><trkpt lat="33.9885449" lon="8.2226244"><ele>74.0</ele><time>2026-04-29T16:58:36.413Z</time></trkpt><trkpt lat="33.9884745" lon="8.2225634"><ele>74.0</ele><time>2026-04-29T16:58:37.408Z</time></trkpt><trkpt lat="33.9884019" lon="8.2224927"><ele>74.0</ele><time>2026-04-29T16:58:38.41Z</time></trkpt><trkpt lat="33.9883292" lon="8.2224117"><ele>74.0</ele><time>2026-04-29T16:58:39.417Z</time></trkpt><trkpt lat="33.9882619" lon="8.222322"><ele>74.0</ele><time>2026-04-29T16:58:40.423Z</time></trkpt><trkpt lat="33.9881912" lon="8.2222286"><ele>74.2</ele><time>2026-04-29T16:58:41.414Z</time></trkpt><trkpt lat="33.9881199" lon="8.2221356"><ele>74.4</ele><time>2026-04-29T16:58:42.422Z</time></trkpt><trkpt lat="33.9880494" lon="8.222046"><ele>74.6</ele><time>2026-04-29T16:58:43.405Z</time></trkpt><trkpt lat="33.9879829" lon="8.2219478"><ele>74.8</ele><time>2026-04-29T16:58:44.409Z</time></trkpt><trkpt lat="33.9879224" lon="8.2218486"><ele>75.0</ele><time>2026-04-29T16:58:45.414Z</time></trkpt><trkpt lat="33.9878616" lon="8.2217512"><ele>75.0</ele><time>2026-04-29T16:58:46.414Z</time></trkpt><trkpt lat="33.9878045" lon="8.2216559"><ele>75.0</ele><time>2026-04-29T16:58:47.412Z</time></trkpt><trkpt lat="33.9877442" lon="8.2215584"><ele>75.0</ele><time>2026-04-29T16:58:48.415Z</time></trkpt><trkpt lat="33.9876852" lon="8.2214578"><ele>75.0</ele><time>2026-04-29T16:58:49.408Z</time></trkpt><trkpt lat="33.9876256" lon="8.2213629"><ele>75.0</ele><time>2026-04-29T16:58:50.414Z</time></trkpt><trkpt lat="33.9875644" lon="8.2212642"><ele>74.2</ele><time>2026-04-29T16:58:51.43Z</time></trkpt><trkpt lat="33.9875066" lon="8.2211657"><ele>73.4</ele><time>2026-04-29T16:58:52.41Z</time></trkpt><trkpt lat="33.9874426" lon="8.2210619"><ele>72.6</ele><time>2026-04-29T16:58:53.407Z</time></trkpt><trkpt lat="33.9873744" lon="8.2209593"><ele>71.8</ele><time>2026-04-29T16:58:54.417Z</time></trkpt><trkpt lat="33.987304" lon="8.2208567"><ele>71.0</ele><time>2026-04-29T16:58:55.412Z</time></trkpt><trkpt lat="33.9872321" lon="8.220751"><ele>71.0</ele><time>2026-04-29T16:58:56.405Z</time></trkpt><trkpt lat="33.9871636" lon="8.2206561"><ele>71.0</ele><time>2026-04-29T16:58:57.419Z</time></trkpt><trkpt lat="33.9870946" lon="8.2205785"><ele>71.0</ele><time>2026-04-29T16:58:58.411Z</time></trkpt><trkpt lat="33.9870285" lon="8.2204982"><ele>71.0</ele><time>2026-04-29T16:58:59.419Z</time></trkpt><trkpt lat="33.9869637" lon="8.2204099"><ele>71.0</ele><time>2026-04-29T16:59:00.404Z</time></trkpt><trkpt lat="33.9868942" lon="8.2203254"><ele>71.0</ele><time>2026-04-29T16:59:01.411Z</time></trkpt><trkpt lat="33.9868241" lon="8.2202347"><ele>71.0</ele><time>2026-04-29T16:59:02.41Z</time></trkpt><trkpt lat="33.9867541" lon="8.2201449"><ele>71.0</ele><time>2026-04-29T16:59:03.406Z</time></trkpt><trkpt lat="33.9866806" lon="8.220058"><ele>71.0</ele><time>2026-04-29T16:59:04.405Z</time></trkpt><trkpt lat="33.9866099" lon="8.2199808"><ele>71.0</ele><time>2026-04-29T16:59:05.416Z</time></trkpt><trkpt lat="33.9865436" lon="8.2199086"><ele>70.8</ele><time>2026-04-29T16:59:06.405Z</time></trkpt><trkpt lat="33.9864884" lon="8.2198506"><ele>70.6</ele><time>2026-04-29T16:59:07.416Z</time></trkpt><trkpt lat="33.986411" lon="8.2197616"><ele>70.4</ele><time>2026-04-29T16:59:09.438Z</time></trkpt><trkpt lat="33.9863482" lon="8.2196877"><ele>70.2</ele><time>2026-04-29T16:59:11.412Z</time></trkpt><trkpt lat="33.9862781" lon="8.2196153"><ele>70.0</ele><time>2026-04-29T16:59:13.41Z</time></trkpt><trkpt lat="33.9862127" lon="8.2195347"><ele>70.0</ele><time>2026-04-29T16:59:15.41Z</time></trkpt><trkpt lat="33.9861412" lon="8.2194559"><ele>70.0</ele><time>2026-04-29T16:59:17.407Z</time></trkpt><trkpt lat="33.9860725" lon="8.2193605"><ele>70.0</ele><time>2026-04-29T16:59:19.416Z</time></trkpt><trkpt lat="33.9860333" lon="8.2192221"><ele>70.0</ele><time>2026-04-29T16:59:21.419Z</time></trkpt><trkpt lat="33.9860186" lon="8.2191397"><ele>70.0</ele><time>2026-04-29T16:59:22.412Z</time></trkpt><trkpt lat="33.9860065" lon="8.2190436"><ele>70.2</ele><time>2026-04-29T16:59:23.414Z</time></trkpt><trkpt lat="33.9859934" lon="8.2189446"><ele>70.4</ele><time>2026-04-29T16:59:24.415Z</time></trkpt><trkpt lat="33.9859773" lon="8.2188306"><ele>70.6</ele><time>2026-04-29T16:59:25.412Z</time></trkpt><trkpt lat="33.9859499" lon="8.218726"><ele>70.8</ele><time>2026-04-29T16:59:26.426Z</time></trkpt><trkpt lat="33.9859056" lon="8.2186144"><ele>71.0</ele><time>2026-04-29T16:59:27.403Z</time></trkpt><trkpt lat="33.9858524" lon="8.2185151"><ele>71.2</ele><time>2026-04-29T16:59:28.411Z</time></trkpt><trkpt lat="33.985791" lon="8.218426"><ele>71.39999999999999</ele><time>2026-04-29T16:59:29.419Z</time></trkpt><trkpt lat="33.9857254" lon="8.2183366"><ele>71.6</ele><time>2026-04-29T16:59:30.412Z</time></trkpt><trkpt lat="33.9856526" lon="8.218248"><ele>71.8</ele><time>2026-04-29T16:59:31.422Z</time></trkpt><trkpt lat="33.9855734" lon="8.2181517"><ele>72.0</ele><time>2026-04-29T16:59:32.426Z</time></trkpt><trkpt lat="33.985491" lon="8.2180564"><ele>72.0</ele><time>2026-04-29T16:59:33.431Z</time></trkpt><trkpt lat="33.9854058" lon="8.2179524"><ele>72.0</ele><time>2026-04-29T16:59:34.413Z</time></trkpt><trkpt lat="33.9853203" lon="8.2178564"><ele>72.0</ele><time>2026-04-29T16:59:35.408Z</time></trkpt><trkpt lat="33.9852419" lon="8.2177728"><ele>72.0</ele><time>2026-04-29T16:59:36.417Z</time></trkpt><trkpt lat="33.9851798" lon="8.2176955"><ele>72.0</ele><time>2026-04-29T16:59:37.411Z</time></trkpt><trkpt lat="33.9851348" lon="8.217633"><ele>72.0</ele><time>2026-04-29T16:59:38.415Z</time></trkpt><trkpt lat="33.985054" lon="8.2175179"><ele>72.0</ele><time>2026-04-29T16:59:40.415Z</time></trkpt><trkpt lat="33.9850062" lon="8.2174337"><ele>72.0</ele><time>2026-04-29T16:59:41.414Z</time></trkpt><trkpt lat="33.9849551" lon="8.2173305"><ele>72.0</ele><time>2026-04-29T16:59:42.412Z</time></trkpt><trkpt lat="33.984899" lon="8.2172147"><ele>72.0</ele><time>2026-04-29T16:59:43.403Z</time></trkpt><trkpt lat="33.9848403" lon="8.2171036"><ele>72.0</ele><time>2026-04-29T16:59:44.405Z</time></trkpt><trkpt lat="33.9847878" lon="8.2169901"><ele>72.0</ele><time>2026-04-29T16:59:45.41Z</time></trkpt><trkpt lat="33.9847339" lon="8.2168841"><ele>72.0</ele><time>2026-04-29T16:59:46.412Z</time></trkpt><trkpt lat="33.9846806" lon="8.2167762"><ele>72.0</ele><time>2026-04-29T16:59:47.413Z</time></trkpt><trkpt lat="33.9846325" lon="8.2166721"><ele>72.0</ele><time>2026-04-29T16:59:48.427Z</time></trkpt><trkpt lat="33.9845815" lon="8.216567"><ele>72.0</ele><time>2026-04-29T16:59:49.411Z</time></trkpt><trkpt lat="33.9845273" lon="8.2164657"><ele>72.0</ele><time>2026-04-29T16:59:50.408Z</time></trkpt><trkpt lat="33.9844773" lon="8.2163645"><ele>72.0</ele><time>2026-04-29T16:59:51.411Z</time></trkpt><trkpt lat="33.9844283" lon="8.2162654"><ele>72.0</ele><time>2026-04-29T16:59:52.417Z</time></trkpt><trkpt lat="33.9843815" lon="8.216166"><ele>72.0</ele><time>2026-04-29T16:59:53.415Z</time></trkpt><trkpt lat="33.9843326" lon="8.2160603"><ele>72.0</ele><time>2026-04-29T16:59:54.418Z</time></trkpt><trkpt lat="33.9842843" lon="8.2159528"><ele>72.0</ele><time>2026-04-29T16:59:55.411Z</time></trkpt><trkpt lat="33.9842292" lon="8.2158468"><ele>72.0</ele><time>2026-04-29T16:59:56.406Z</time></trkpt><trkpt lat="33.9841741" lon="8.2157397"><ele>72.0</ele><time>2026-04-29T16:59:57.406Z</time></trkpt><trkpt lat="33.984115" lon="8.2156388"><ele>72.0</ele><time>2026-04-29T16:59:58.417Z</time></trkpt><trkpt lat="33.9840498" lon="8.2155499"><ele>72.0</ele><time>2026-04-29T16:59:59.416Z</time></trkpt><trkpt lat="33.9839799" lon="8.2154589"><ele>72.0</ele><time>2026-04-29T17:00:00.414Z</time></trkpt><trkpt lat="33.9839173" lon="8.2153665"><ele>72.0</ele><time>2026-04-29T17:00:01.417Z</time></trkpt><trkpt lat="33.9838543" lon="8.2152815"><ele>72.0</ele><time>2026-04-29T17:00:02.414Z</time></trkpt><trkpt lat="33.983795" lon="8.2151988"><ele>72.0</ele><time>2026-04-29T17:00:03.414Z</time></trkpt><trkpt lat="33.9837382" lon="8.2151161"><ele>72.0</ele><time>2026-04-29T17:00:04.416Z</time></trkpt><trkpt lat="33.9836774" lon="8.2150292"><ele>72.0</ele><time>2026-04-29T17:00:05.438Z</time></trkpt><trkpt lat="33.9836153" lon="8.2149458"><ele>72.0</ele><time>2026-04-29T17:00:06.415Z</time></trkpt><trkpt lat="33.9835521" lon="8.2148621"><ele>72.0</ele><time>2026-04-29T17:00:07.413Z</time></trkpt><trkpt lat="33.9834909" lon="8.214778"><ele>72.0</ele><time>2026-04-29T17:00:08.417Z</time></trkpt><trkpt lat="33.983432" lon="8.2146914"><ele>72.16666666666667</ele><time>2026-04-29T17:00:09.409Z</time></trkpt><trkpt lat="33.9833726" lon="8.2146048"><ele>72.33333333333333</ele><time>2026-04-29T17:00:10.428Z</time></trkpt><trkpt lat="33.9833198" lon="8.2145217"><ele>72.5</ele><time>2026-04-29T17:00:11.414Z</time></trkpt><trkpt lat="33.9832669" lon="8.2144353"><ele>72.66666666666666</ele><time>2026-04-29T17:00:12.419Z</time></trkpt><trkpt lat="33.9832142" lon="8.2143551"><ele>72.83333333333333</ele><time>2026-04-29T17:00:13.407Z</time></trkpt><trkpt lat="33.9831608" lon="8.2142701"><ele>73.0</ele><time>2026-04-29T17:00:14.413Z</time></trkpt><trkpt lat="33.983104" lon="8.2141862"><ele>73.0</ele><time>2026-04-29T17:00:15.408Z</time></trkpt><trkpt lat="33.9830437" lon="8.2140983"><ele>73.0</ele><time>2026-04-29T17:00:16.419Z</time></trkpt><trkpt lat="33.982988" lon="8.2140094"><ele>73.0</ele><time>2026-04-29T17:00:17.411Z</time></trkpt><trkpt lat="33.9829286" lon="8.2139254"><ele>73.0</ele><time>2026-04-29T17:00:18.413Z</time></trkpt><trkpt lat="33.9828639" lon="8.2138326"><ele>73.0</ele><time>2026-04-29T17:00:19.413Z</time></trkpt><trkpt lat="33.9827962" lon="8.2137406"><ele>72.83333333333333</ele><time>2026-04-29T17:00:20.412Z</time></trkpt><trkpt lat="33.9827346" lon="8.213649"><ele>72.66666666666666</ele><time>2026-04-29T17:00:21.409Z</time></trkpt><trkpt lat="33.9826749" lon="8.2135632"><ele>72.5</ele><time>2026-04-29T17:00:22.426Z</time></trkpt><trkpt lat="33.9826202" lon="8.2134854"><ele>72.33333333333333</ele><time>2026-04-29T17:00:23.421Z</time></trkpt><trkpt lat="33.9825689" lon="8.2134148"><ele>72.16666666666667</ele><time>2026-04-29T17:00:24.418Z</time></trkpt><trkpt lat="33.982522" lon="8.2133474"><ele>72.0</ele><time>2026-04-29T17:00:25.413Z</time></trkpt><trkpt lat="33.982469" lon="8.2132779"><ele>71.66666666666667</ele><time>2026-04-29T17:00:26.402Z</time></trkpt><trkpt lat="33.9824151" lon="8.2132008"><ele>71.33333333333333</ele><time>2026-04-29T17:00:27.412Z</time></trkpt><trkpt lat="33.9823632" lon="8.2131245"><ele>71.0</ele><time>2026-04-29T17:00:28.41Z</time></trkpt><trkpt lat="33.9823079" lon="8.213046"><ele>70.66666666666666</ele><time>2026-04-29T17:00:29.415Z</time></trkpt><trkpt lat="33.9822506" lon="8.2129576"><ele>70.33333333333333</ele><time>2026-04-29T17:00:30.417Z</time></trkpt><trkpt lat="33.9821885" lon="8.212867"><ele>70.0</ele><time>2026-04-29T17:00:31.411Z</time></trkpt><trkpt lat="33.9821258" lon="8.2127791"><ele>71.0</ele><time>2026-04-29T17:00:32.409Z</time></trkpt><trkpt lat="33.98206" lon="8.2126871"><ele>72.0</ele><time>2026-04-29T17:00:33.432Z</time></trkpt><trkpt lat="33.9819927" lon="8.2125949"><ele>73.0</ele><time>2026-04-29T17:00:34.469Z</time></trkpt><trkpt lat="33.981927" lon="8.2124951"><ele>74.0</ele><time>2026-04-29T17:00:35.409Z</time></trkpt><trkpt lat="33.9818613" lon="8.2124016"><ele>75.0</ele><time>2026-04-29T17:00:36.414Z</time></trkpt><trkpt lat="33.9817958" lon="8.2123084"><ele>75.25</ele><time>2026-04-29T17:00:37.419Z</time></trkpt><trkpt lat="33.9817292" lon="8.2122107"><ele>75.5</ele><time>2026-04-29T17:00:38.409Z</time></trkpt><trkpt lat="33.9816594" lon="8.2121074"><ele>75.75</ele><time>2026-04-29T17:00:39.417Z</time></trkpt><trkpt lat="33.9815827" lon="8.2120032"><ele>76.0</ele><time>2026-04-29T17:00:40.409Z</time></trkpt><trkpt lat="33.9815007" lon="8.2118971"><ele>75.75</ele><time>2026-04-29T17:00:41.417Z</time></trkpt><trkpt lat="33.981419" lon="8.2117844"><ele>75.5</ele><time>2026-04-29T17:00:42.401Z</time></trkpt><trkpt lat="33.9813355" lon="8.2116689"><ele>75.25</ele><time>2026-04-29T17:00:43.411Z</time></trkpt><trkpt lat="33.9812497" lon="8.2115552"><ele>75.0</ele><time>2026-04-29T17:00:44.414Z</time></trkpt><trkpt lat="33.9811693" lon="8.2114369"><ele>75.0</ele><time>2026-04-29T17:00:45.419Z</time></trkpt><trkpt lat="33.9810863" lon="8.2113202"><ele>75.0</ele><time>2026-04-29T17:00:46.408Z</time></trkpt><trkpt lat="33.9810044" lon="8.2112056"><ele>75.0</ele><time>2026-04-29T17:00:47.458Z</time></trkpt><trkpt lat="33.9809215" lon="8.2110901"><ele>75.0</ele><time>2026-04-29T17:00:48.409Z</time></trkpt><trkpt lat="33.980845" lon="8.2109785"><ele>74.4</ele><time>2026-04-29T17:00:49.417Z</time></trkpt><trkpt lat="33.9807708" lon="8.2108708"><ele>73.8</ele><time>2026-04-29T17:00:50.417Z</time></trkpt><trkpt lat="33.9806993" lon="8.2107724"><ele>73.2</ele><time>2026-04-29T17:00:51.414Z</time></trkpt><trkpt lat="33.9806284" lon="8.2106798"><ele>72.6</ele><time>2026-04-29T17:00:52.412Z</time></trkpt><trkpt lat="33.9805682" lon="8.2105956"><ele>72.0</ele><time>2026-04-29T17:00:53.415Z</time></trkpt><trkpt lat="33.980509" lon="8.2105186"><ele>72.0</ele><time>2026-04-29T17:00:54.413Z</time></trkpt><trkpt lat="33.9804479" lon="8.2104404"><ele>72.0</ele><time>2026-04-29T17:00:55.414Z</time></trkpt><trkpt lat="33.9803691" lon="8.2103506"><ele>72.0</ele><time>2026-04-29T17:00:56.413Z</time></trkpt><trkpt lat="33.9802861" lon="8.2102621"><ele>72.0</ele><time>2026-04-29T17:00:57.415Z</time></trkpt><trkpt lat="33.9802012" lon="8.2101721"><ele>72.0</ele><time>2026-04-29T17:00:58.414Z</time></trkpt><trkpt lat="33.9801153" lon="8.2100836"><ele>72.0</ele><time>2026-04-29T17:00:59.405Z</time></trkpt><trkpt lat="33.9800276" lon="8.2099969"><ele>72.0</ele><time>2026-04-29T17:01:00.416Z</time></trkpt><trkpt lat="33.9799358" lon="8.2099163"><ele>72.0</ele><time>2026-04-29T17:01:01.422Z</time></trkpt><trkpt lat="33.9798381" lon="8.2098312"><ele>72.0</ele><time>2026-04-29T17:01:02.414Z</time></trkpt><trkpt lat="33.9797383" lon="8.2097402"><ele>72.0</ele><time>2026-04-29T17:01:03.428Z</time></trkpt><trkpt lat="33.9796397" lon="8.2096537"><ele>72.0</ele><time>2026-04-29T17:01:04.437Z</time></trkpt><trkpt lat="33.9795395" lon="8.2095644"><ele>72.0</ele><time>2026-04-29T17:01:05.412Z</time></trkpt><trkpt lat="33.9794352" lon="8.2094673"><ele>72.0</ele><time>2026-04-29T17:01:06.427Z</time></trkpt><trkpt lat="33.9793337" lon="8.2093739"><ele>72.0</ele><time>2026-04-29T17:01:07.422Z</time></trkpt><trkpt lat="33.9792277" lon="8.2092759"><ele>72.0</ele><time>2026-04-29T17:01:08.412Z</time></trkpt><trkpt lat="33.9791235" lon="8.2091809"><ele>72.0</ele><time>2026-04-29T17:01:09.408Z</time></trkpt><trkpt lat="33.9790178" lon="8.2090798"><ele>72.0</ele><time>2026-04-29T17:01:10.413Z</time></trkpt><trkpt lat="33.9789173" lon="8.2089771"><ele>71.4</ele><time>2026-04-29T17:01:11.413Z</time></trkpt><trkpt lat="33.978827" lon="8.2088802"><ele>70.80000000000001</ele><time>2026-04-29T17:01:12.412Z</time></trkpt><trkpt lat="33.9787361" lon="8.2087916"><ele>70.2</ele><time>2026-04-29T17:01:13.41Z</time></trkpt><trkpt lat="33.9786531" lon="8.2087149"><ele>69.60000000000001</ele><time>2026-04-29T17:01:14.415Z</time></trkpt><trkpt lat="33.9785747" lon="8.2086432"><ele>69.0</ele><time>2026-04-29T17:01:15.414Z</time></trkpt><trkpt lat="33.978506" lon="8.2085792"><ele>69.0</ele><time>2026-04-29T17:01:16.418Z</time></trkpt><trkpt lat="33.9784416" lon="8.2085143"><ele>69.0</ele><time>2026-04-29T17:01:17.412Z</time></trkpt><trkpt lat="33.9783831" lon="8.2084585"><ele>69.0</ele><time>2026-04-29T17:01:18.4Z</time></trkpt><trkpt lat="33.9783306" lon="8.2084087"><ele>69.0</ele><time>2026-04-29T17:01:19.444Z</time></trkpt><trkpt lat="33.9782801" lon="8.2083586"><ele>69.0</ele><time>2026-04-29T17:01:20.465Z</time></trkpt><trkpt lat="33.9782207" lon="8.2082847"><ele>69.0</ele><time>2026-04-29T17:01:22.459Z</time></trkpt><trkpt lat="33.9781919" lon="8.208199"><ele>68.42857142857143</ele><time>2026-04-29T17:01:24.474Z</time></trkpt><trkpt lat="33.9781804" lon="8.2081218"><ele>67.85714285714286</ele><time>2026-04-29T17:01:26.461Z</time></trkpt><trkpt lat="33.9781912" lon="8.208026"><ele>67.28571428571429</ele><time>2026-04-29T17:01:30.452Z</time></trkpt><trkpt lat="33.9782008" lon="8.2079502"><ele>66.71428571428572</ele><time>2026-04-29T17:03:31.411Z</time></trkpt><trkpt lat="33.978144" lon="8.2078949"><ele>66.14285714285714</ele><time>2026-04-29T17:03:34.457Z</time></trkpt><trkpt lat="33.9780579" lon="8.2079129"><ele>65.57142857142858</ele><time>2026-04-29T17:03:37.461Z</time></trkpt><trkpt lat="33.9779943" lon="8.2079502"><ele>65.0</ele><time>2026-04-29T17:03:39.429Z</time></trkpt><trkpt lat="33.9779288" lon="8.2079883"><ele>65.0</ele><time>2026-04-29T17:03:41.434Z</time></trkpt><trkpt lat="33.9778562" lon="8.2079919"><ele>65.0</ele><time>2026-04-29T17:03:44.446Z</time></trkpt><trkpt lat="33.9777683" lon="8.2078955"><ele>65.0</ele><time>2026-04-29T17:03:46.427Z</time></trkpt><trkpt lat="33.9777056" lon="8.207845"><ele>65.0</ele><time>2026-04-29T17:03:47.443Z</time></trkpt><trkpt lat="33.9776369" lon="8.207772"><ele>65.0</ele><time>2026-04-29T17:03:48.427Z</time></trkpt><trkpt lat="33.977563" lon="8.2077058"><ele>64.5</ele><time>2026-04-29T17:03:49.424Z</time></trkpt><trkpt lat="33.9774716" lon="8.2076282"><ele>64.0</ele><time>2026-04-29T17:03:50.432Z</time></trkpt><trkpt lat="33.9773793" lon="8.2075473"><ele>63.5</ele><time>2026-04-29T17:03:51.419Z</time></trkpt><trkpt lat="33.9772726" lon="8.2074556"><ele>63.0</ele><time>2026-04-29T17:03:52.421Z</time></trkpt><trkpt lat="33.9771572" lon="8.2073478"><ele>59.0</ele><time>2026-04-29T17:03:53.409Z</time></trkpt><trkpt lat="33.9766734" lon="8.2069052"><ele>59.0</ele><time>2026-04-29T17:03:57.435Z</time></trkpt><trkpt lat="33.9764173" lon="8.2066838"><ele>59.0</ele><time>2026-04-29T17:03:59.444Z</time></trkpt><trkpt lat="33.9759509" lon="8.2062547"><ele>58.75</ele><time>2026-04-29T17:04:03.405Z</time></trkpt><trkpt lat="33.9758439" lon="8.2061579"><ele>58.5</ele><time>2026-04-29T17:04:04.399Z</time></trkpt><trkpt lat="33.9757426" lon="8.2060666"><ele>58.25</ele><time>2026-04-29T17:04:05.403Z</time></trkpt><trkpt lat="33.9756427" lon="8.2059767"><ele>58.0</ele><time>2026-04-29T17:04:06.416Z</time></trkpt><trkpt lat="33.9755491" lon="8.2058903"><ele>58.0</ele><time>2026-04-29T17:04:07.395Z</time></trkpt><trkpt lat="33.9754594" lon="8.2058117"><ele>58.0</ele><time>2026-04-29T17:04:08.395Z</time></trkpt><trkpt lat="33.9753665" lon="8.2057308"><ele>58.0</ele><time>2026-04-29T17:04:09.408Z</time></trkpt><trkpt lat="33.975273" lon="8.2056483"><ele>58.0</ele><time>2026-04-29T17:04:10.46Z</time></trkpt><trkpt lat="33.9751729" lon="8.2055593"><ele>58.0</ele><time>2026-04-29T17:04:11.414Z</time></trkpt><trkpt lat="33.9750727" lon="8.2054753"><ele>58.0</ele><time>2026-04-29T17:04:12.405Z</time></trkpt><trkpt lat="33.9749749" lon="8.2053783"><ele>58.0</ele><time>2026-04-29T17:04:13.396Z</time></trkpt><trkpt lat="33.9748745" lon="8.2052795"><ele>58.0</ele><time>2026-04-29T17:04:14.401Z</time></trkpt><trkpt lat="33.9747721" lon="8.2051814"><ele>58.0</ele><time>2026-04-29T17:04:15.402Z</time></trkpt><trkpt lat="33.9746648" lon="8.20508"><ele>58.0</ele><time>2026-04-29T17:04:16.469Z</time></trkpt><trkpt lat="33.9744563" lon="8.2048862"><ele>58.0</ele><time>2026-04-29T17:04:18.399Z</time></trkpt><trkpt lat="33.974352" lon="8.2047889"><ele>58.0</ele><time>2026-04-29T17:04:19.438Z</time></trkpt><trkpt lat="33.974247" lon="8.2046877"><ele>58.0</ele><time>2026-04-29T17:04:20.399Z</time></trkpt><trkpt lat="33.9741326" lon="8.2045873"><ele>58.0</ele><time>2026-04-29T17:04:21.419Z</time></trkpt><trkpt lat="33.9740236" lon="8.204488"><ele>58.0</ele><time>2026-04-29T17:04:22.437Z</time></trkpt><trkpt lat="33.9739141" lon="8.2043868"><ele>57.75</ele><time>2026-04-29T17:04:23.44Z</time></trkpt><trkpt lat="33.9738046" lon="8.2042838"><ele>57.5</ele><time>2026-04-29T17:04:24.43Z</time></trkpt><trkpt lat="33.9736963" lon="8.2041809"><ele>57.25</ele><time>2026-04-29T17:04:25.435Z</time></trkpt><trkpt lat="33.9735835" lon="8.2040824"><ele>57.0</ele><time>2026-04-29T17:04:26.446Z</time></trkpt><trkpt lat="33.973471" lon="8.2039893"><ele>57.0</ele><time>2026-04-29T17:04:27.436Z</time></trkpt><trkpt lat="33.9733579" lon="8.2038931"><ele>57.0</ele><time>2026-04-29T17:04:28.437Z</time></trkpt><trkpt lat="33.9732426" lon="8.2037875"><ele>57.0</ele><time>2026-04-29T17:04:29.43Z</time></trkpt><trkpt lat="33.9731281" lon="8.2036791"><ele>57.0</ele><time>2026-04-29T17:04:30.461Z</time></trkpt><trkpt lat="33.9730139" lon="8.2035754"><ele>57.0</ele><time>2026-04-29T17:04:31.421Z</time></trkpt><trkpt lat="33.9728984" lon="8.2034644"><ele>57.0</ele><time>2026-04-29T17:04:32.414Z</time></trkpt><trkpt lat="33.9727792" lon="8.2033523"><ele>57.0</ele><time>2026-04-29T17:04:33.435Z</time></trkpt><trkpt lat="33.9726551" lon="8.2032378"><ele>57.33333333333333</ele><time>2026-04-29T17:04:34.455Z</time></trkpt><trkpt lat="33.9725293" lon="8.2031303"><ele>57.666666666666664</ele><time>2026-04-29T17:04:35.428Z</time></trkpt><trkpt lat="33.9724016" lon="8.2030189"><ele>58.0</ele><time>2026-04-29T17:04:36.419Z</time></trkpt><trkpt lat="33.9722727" lon="8.202901"><ele>58.666666666666664</ele><time>2026-04-29T17:04:37.433Z</time></trkpt><trkpt lat="33.9721455" lon="8.2027774"><ele>59.33333333333333</ele><time>2026-04-29T17:04:38.429Z</time></trkpt><trkpt lat="33.9720143" lon="8.202658"><ele>60.0</ele><time>2026-04-29T17:04:39.433Z</time></trkpt><trkpt lat="33.9718839" lon="8.2025361"><ele>60.0</ele><time>2026-04-29T17:04:40.417Z</time></trkpt><trkpt lat="33.9717519" lon="8.202422"><ele>60.0</ele><time>2026-04-29T17:04:41.431Z</time></trkpt><trkpt lat="33.9716154" lon="8.2023011"><ele>60.0</ele><time>2026-04-29T17:04:42.42Z</time></trkpt><trkpt lat="33.9714823" lon="8.2021821"><ele>60.33333333333333</ele><time>2026-04-29T17:04:43.449Z</time></trkpt><trkpt lat="33.9713488" lon="8.202059"><ele>60.666666666666664</ele><time>2026-04-29T17:04:44.432Z</time></trkpt><trkpt lat="33.9712181" lon="8.2019382"><ele>61.0</ele><time>2026-04-29T17:04:45.414Z</time></trkpt><trkpt lat="33.9710901" lon="8.2018178"><ele>61.0</ele><time>2026-04-29T17:04:46.438Z</time></trkpt><trkpt lat="33.9709611" lon="8.2016971"><ele>61.0</ele><time>2026-04-29T17:04:47.427Z</time></trkpt><trkpt lat="33.9708271" lon="8.2015791"><ele>61.0</ele><time>2026-04-29T17:04:48.447Z</time></trkpt><trkpt lat="33.9706938" lon="8.2014544"><ele>59.666666666666664</ele><time>2026-04-29T17:04:49.43Z</time></trkpt><trkpt lat="33.9705623" lon="8.2013302"><ele>58.33333333333333</ele><time>2026-04-29T17:04:50.436Z</time></trkpt><trkpt lat="33.9704278" lon="8.2012072"><ele>57.0</ele><time>2026-04-29T17:04:51.43Z</time></trkpt><trkpt lat="33.970294" lon="8.2010872"><ele>57.0</ele><time>2026-04-29T17:04:52.429Z</time></trkpt><trkpt lat="33.9701634" lon="8.2009636"><ele>57.0</ele><time>2026-04-29T17:04:53.431Z</time></trkpt><trkpt lat="33.9700333" lon="8.2008428"><ele>57.0</ele><time>2026-04-29T17:04:54.429Z</time></trkpt><trkpt lat="33.969902" lon="8.2007233"><ele>57.66666666666667</ele><time>2026-04-29T17:04:55.433Z</time></trkpt><trkpt lat="33.9697728" lon="8.2006044"><ele>58.333333333333336</ele><time>2026-04-29T17:04:56.446Z</time></trkpt><trkpt lat="33.9696383" lon="8.2004863"><ele>59.0</ele><time>2026-04-29T17:04:57.422Z</time></trkpt><trkpt lat="33.9695064" lon="8.2003682"><ele>59.0</ele><time>2026-04-29T17:04:58.444Z</time></trkpt><trkpt lat="33.9693749" lon="8.2002446"><ele>59.0</ele><time>2026-04-29T17:04:59.423Z</time></trkpt><trkpt lat="33.9692444" lon="8.2001294"><ele>59.0</ele><time>2026-04-29T17:05:00.416Z</time></trkpt><trkpt lat="33.9691117" lon="8.2000161"><ele>58.5</ele><time>2026-04-29T17:05:01.434Z</time></trkpt><trkpt lat="33.9689819" lon="8.1999043"><ele>58.0</ele><time>2026-04-29T17:05:02.468Z</time></trkpt><trkpt lat="33.9687224" lon="8.1996731"><ele>57.666666666666664</ele><time>2026-04-29T17:05:04.424Z</time></trkpt><trkpt lat="33.9685934" lon="8.1995587"><ele>57.33333333333333</ele><time>2026-04-29T17:05:05.433Z</time></trkpt><trkpt lat="33.9684645" lon="8.1994465"><ele>57.0</ele><time>2026-04-29T17:05:06.436Z</time></trkpt><trkpt lat="33.9683343" lon="8.1993263"><ele>57.0</ele><time>2026-04-29T17:05:07.416Z</time></trkpt><trkpt lat="33.9682063" lon="8.1992043"><ele>57.0</ele><time>2026-04-29T17:05:08.443Z</time></trkpt><trkpt lat="33.9680767" lon="8.1990814"><ele>57.0</ele><time>2026-04-29T17:05:09.443Z</time></trkpt><trkpt lat="33.967949" lon="8.1989607"><ele>57.66666666666667</ele><time>2026-04-29T17:05:10.423Z</time></trkpt><trkpt lat="33.9678139" lon="8.198838"><ele>58.333333333333336</ele><time>2026-04-29T17:05:11.414Z</time></trkpt><trkpt lat="33.9676785" lon="8.1987135"><ele>59.0</ele><time>2026-04-29T17:05:12.45Z</time></trkpt><trkpt lat="33.9675432" lon="8.1985811"><ele>59.0</ele><time>2026-04-29T17:05:13.41Z</time></trkpt><trkpt lat="33.9674047" lon="8.1984516"><ele>59.0</ele><time>2026-04-29T17:05:14.437Z</time></trkpt><trkpt lat="33.9672637" lon="8.1983227"><ele>59.0</ele><time>2026-04-29T17:05:15.441Z</time></trkpt><trkpt lat="33.9671206" lon="8.1981929"><ele>59.0</ele><time>2026-04-29T17:05:16.422Z</time></trkpt><trkpt lat="33.9669758" lon="8.1980593"><ele>59.0</ele><time>2026-04-29T17:05:17.42Z</time></trkpt><trkpt lat="33.9668294" lon="8.1979269"><ele>59.0</ele><time>2026-04-29T17:05:18.414Z</time></trkpt><trkpt lat="33.9666836" lon="8.1977978"><ele>59.0</ele><time>2026-04-29T17:05:19.424Z</time></trkpt><trkpt lat="33.9665367" lon="8.1976669"><ele>59.0</ele><time>2026-04-29T17:05:20.42Z</time></trkpt><trkpt lat="33.9663925" lon="8.1975332"><ele>59.0</ele><time>2026-04-29T17:05:21.426Z</time></trkpt><trkpt lat="33.9662451" lon="8.1974005"><ele>59.0</ele><time>2026-04-29T17:05:22.441Z</time></trkpt><trkpt lat="33.9660945" lon="8.1972675"><ele>59.0</ele><time>2026-04-29T17:05:23.445Z</time></trkpt><trkpt lat="33.965949" lon="8.1971353"><ele>59.0</ele><time>2026-04-29T17:05:24.443Z</time></trkpt><trkpt lat="33.9658012" lon="8.196995"><ele>59.0</ele><time>2026-04-29T17:05:25.431Z</time></trkpt><trkpt lat="33.9656594" lon="8.1968451"><ele>59.0</ele><time>2026-04-29T17:05:26.436Z</time></trkpt><trkpt lat="33.9655181" lon="8.1966929"><ele>59.0</ele><time>2026-04-29T17:05:27.429Z</time></trkpt><trkpt lat="33.9653829" lon="8.1965338"><ele>58.66666666666667</ele><time>2026-04-29T17:05:28.435Z</time></trkpt><trkpt lat="33.9652469" lon="8.1963654"><ele>58.33333333333333</ele><time>2026-04-29T17:05:29.439Z</time></trkpt><trkpt lat="33.9651137" lon="8.1962008"><ele>58.0</ele><time>2026-04-29T17:05:30.428Z</time></trkpt><trkpt lat="33.9649838" lon="8.1960292"><ele>58.0</ele><time>2026-04-29T17:05:31.426Z</time></trkpt><trkpt lat="33.9648576" lon="8.195856"><ele>58.0</ele><time>2026-04-29T17:05:32.435Z</time></trkpt><trkpt lat="33.9647282" lon="8.1956891"><ele>58.0</ele><time>2026-04-29T17:05:33.437Z</time></trkpt><trkpt lat="33.9645946" lon="8.195521"><ele>59.0</ele><time>2026-04-29T17:05:34.426Z</time></trkpt><trkpt lat="33.9644628" lon="8.1953492"><ele>60.0</ele><time>2026-04-29T17:05:35.442Z</time></trkpt><trkpt lat="33.9643284" lon="8.1951806"><ele>61.0</ele><time>2026-04-29T17:05:36.445Z</time></trkpt><trkpt lat="33.9641996" lon="8.1950122"><ele>61.0</ele><time>2026-04-29T17:05:37.446Z</time></trkpt><trkpt lat="33.9640705" lon="8.1948462"><ele>61.0</ele><time>2026-04-29T17:05:38.44Z</time></trkpt><trkpt lat="33.9639401" lon="8.1946775"><ele>61.0</ele><time>2026-04-29T17:05:39.425Z</time></trkpt><trkpt lat="33.9638105" lon="8.1945069"><ele>61.0</ele><time>2026-04-29T17:05:40.44Z</time></trkpt><trkpt lat="33.96368" lon="8.1943365"><ele>61.0</ele><time>2026-04-29T17:05:41.441Z</time></trkpt><trkpt lat="33.9635494" lon="8.194164"><ele>61.0</ele><time>2026-04-29T17:05:42.424Z</time></trkpt><trkpt lat="33.9634181" lon="8.1939939"><ele>60.666666666666664</ele><time>2026-04-29T17:05:43.447Z</time></trkpt><trkpt lat="33.9632834" lon="8.1938239"><ele>60.33333333333333</ele><time>2026-04-29T17:05:44.446Z</time></trkpt><trkpt lat="33.9631515" lon="8.1936608"><ele>60.0</ele><time>2026-04-29T17:05:45.431Z</time></trkpt><trkpt lat="33.9630227" lon="8.1934914"><ele>60.0</ele><time>2026-04-29T17:05:46.425Z</time></trkpt><trkpt lat="33.9628925" lon="8.1933225"><ele>60.0</ele><time>2026-04-29T17:05:47.436Z</time></trkpt><trkpt lat="33.9627609" lon="8.1931494"><ele>60.0</ele><time>2026-04-29T17:05:48.447Z</time></trkpt><trkpt lat="33.962631" lon="8.1929793"><ele>59.33333333333333</ele><time>2026-04-29T17:05:49.439Z</time></trkpt><trkpt lat="33.9625022" lon="8.1928105"><ele>58.666666666666664</ele><time>2026-04-29T17:05:50.429Z</time></trkpt><trkpt lat="33.9623752" lon="8.1926387"><ele>58.0</ele><time>2026-04-29T17:05:51.435Z</time></trkpt><trkpt lat="33.9622445" lon="8.1924628"><ele>58.666666666666664</ele><time>2026-04-29T17:05:52.444Z</time></trkpt><trkpt lat="33.9621142" lon="8.1922933"><ele>59.33333333333333</ele><time>2026-04-29T17:05:53.434Z</time></trkpt><trkpt lat="33.9619826" lon="8.1921298"><ele>60.0</ele><time>2026-04-29T17:05:54.445Z</time></trkpt><trkpt lat="33.96185" lon="8.191964"><ele>60.0</ele><time>2026-04-29T17:05:55.441Z</time></trkpt><trkpt lat="33.9617203" lon="8.1917932"><ele>60.0</ele><time>2026-04-29T17:05:56.43Z</time></trkpt><trkpt lat="33.9615856" lon="8.1916174"><ele>60.0</ele><time>2026-04-29T17:05:57.454Z</time></trkpt><trkpt lat="33.961453" lon="8.1914431"><ele>60.66666666666667</ele><time>2026-04-29T17:05:58.441Z</time></trkpt><trkpt lat="33.9613219" lon="8.1912755"><ele>61.333333333333336</ele><time>2026-04-29T17:05:59.44Z</time></trkpt><trkpt lat="33.9611913" lon="8.1911124"><ele>62.0</ele><time>2026-04-29T17:06:00.432Z</time></trkpt><trkpt lat="33.9610567" lon="8.1909467"><ele>62.0</ele><time>2026-04-29T17:06:01.431Z</time></trkpt><trkpt lat="33.9609228" lon="8.1907775"><ele>62.0</ele><time>2026-04-29T17:06:02.436Z</time></trkpt><trkpt lat="33.9607928" lon="8.1906077"><ele>62.0</ele><time>2026-04-29T17:06:03.441Z</time></trkpt><trkpt lat="33.960661" lon="8.1904396"><ele>61.333333333333336</ele><time>2026-04-29T17:06:04.444Z</time></trkpt><trkpt lat="33.960533" lon="8.1902692"><ele>60.66666666666667</ele><time>2026-04-29T17:06:05.419Z</time></trkpt><trkpt lat="33.9604034" lon="8.190101"><ele>60.0</ele><time>2026-04-29T17:06:06.436Z</time></trkpt><trkpt lat="33.9602732" lon="8.1899299"><ele>59.66666666666667</ele><time>2026-04-29T17:06:07.42Z</time></trkpt><trkpt lat="33.9601415" lon="8.1897606"><ele>59.333333333333336</ele><time>2026-04-29T17:06:08.428Z</time></trkpt><trkpt lat="33.9600088" lon="8.1895891"><ele>59.0</ele><time>2026-04-29T17:06:09.435Z</time></trkpt><trkpt lat="33.9598749" lon="8.189418"><ele>59.0</ele><time>2026-04-29T17:06:10.44Z</time></trkpt><trkpt lat="33.9597364" lon="8.1892435"><ele>59.0</ele><time>2026-04-29T17:06:11.436Z</time></trkpt><trkpt lat="33.9595927" lon="8.189062"><ele>59.0</ele><time>2026-04-29T17:06:12.435Z</time></trkpt><trkpt lat="33.9594495" lon="8.1888763"><ele>59.66666666666667</ele><time>2026-04-29T17:06:13.428Z</time></trkpt><trkpt lat="33.9593034" lon="8.1886882"><ele>60.33333333333333</ele><time>2026-04-29T17:06:14.426Z</time></trkpt><trkpt lat="33.9591586" lon="8.1885017"><ele>61.0</ele><time>2026-04-29T17:06:15.441Z</time></trkpt><trkpt lat="33.9590189" lon="8.1883163"><ele>60.666666666666664</ele><time>2026-04-29T17:06:16.442Z</time></trkpt><trkpt lat="33.9588801" lon="8.1881323"><ele>60.33333333333333</ele><time>2026-04-29T17:06:17.494Z</time></trkpt><trkpt lat="33.958736" lon="8.187951"><ele>60.0</ele><time>2026-04-29T17:06:18.51Z</time></trkpt><trkpt lat="33.9585977" lon="8.1877671"><ele>60.0</ele><time>2026-04-29T17:06:19.467Z</time></trkpt><trkpt lat="33.9584505" lon="8.1875805"><ele>60.0</ele><time>2026-04-29T17:06:20.44Z</time></trkpt><trkpt lat="33.9583105" lon="8.187394"><ele>60.0</ele><time>2026-04-29T17:06:21.44Z</time></trkpt><trkpt lat="33.9581682" lon="8.1872131"><ele>59.0</ele><time>2026-04-29T17:06:22.425Z</time></trkpt><trkpt lat="33.9580279" lon="8.1870258"><ele>58.0</ele><time>2026-04-29T17:06:23.436Z</time></trkpt><trkpt lat="33.9578898" lon="8.1868402"><ele>57.0</ele><time>2026-04-29T17:06:24.443Z</time></trkpt><trkpt lat="33.9577541" lon="8.186662"><ele>57.33333333333333</ele><time>2026-04-29T17:06:25.441Z</time></trkpt><trkpt lat="33.9576227" lon="8.186492"><ele>57.666666666666664</ele><time>2026-04-29T17:06:26.458Z</time></trkpt><trkpt lat="33.9574886" lon="8.1863318"><ele>58.0</ele><time>2026-04-29T17:06:27.424Z</time></trkpt><trkpt lat="33.9573593" lon="8.186168"><ele>57.666666666666664</ele><time>2026-04-29T17:06:28.472Z</time></trkpt><trkpt lat="33.9572306" lon="8.1859953"><ele>57.33333333333333</ele><time>2026-04-29T17:06:29.436Z</time></trkpt><trkpt lat="33.9570994" lon="8.1858269"><ele>57.0</ele><time>2026-04-29T17:06:30.445Z</time></trkpt><trkpt lat="33.9569666" lon="8.1856604"><ele>57.0</ele><time>2026-04-29T17:06:31.426Z</time></trkpt><trkpt lat="33.9568343" lon="8.185492"><ele>57.0</ele><time>2026-04-29T17:06:32.433Z</time></trkpt><trkpt lat="33.9567028" lon="8.185325"><ele>57.0</ele><time>2026-04-29T17:06:33.459Z</time></trkpt><trkpt lat="33.9565733" lon="8.1851539"><ele>56.33333333333333</ele><time>2026-04-29T17:06:34.438Z</time></trkpt><trkpt lat="33.9564427" lon="8.1849808"><ele>55.666666666666664</ele><time>2026-04-29T17:06:35.424Z</time></trkpt><trkpt lat="33.9563121" lon="8.1848118"><ele>55.0</ele><time>2026-04-29T17:06:36.437Z</time></trkpt><trkpt lat="33.9561769" lon="8.1846442"><ele>54.666666666666664</ele><time>2026-04-29T17:06:37.438Z</time></trkpt><trkpt lat="33.9560469" lon="8.1844732"><ele>54.33333333333333</ele><time>2026-04-29T17:06:38.432Z</time></trkpt><trkpt lat="33.9559103" lon="8.1842996"><ele>54.0</ele><time>2026-04-29T17:06:39.424Z</time></trkpt><trkpt lat="33.9557752" lon="8.1841234"><ele>54.33333333333333</ele><time>2026-04-29T17:06:40.45Z</time></trkpt><trkpt lat="33.9556393" lon="8.183946"><ele>54.666666666666664</ele><time>2026-04-29T17:06:41.427Z</time></trkpt><trkpt lat="33.9555029" lon="8.1837659"><ele>55.0</ele><time>2026-04-29T17:06:42.428Z</time></trkpt><trkpt lat="33.9553642" lon="8.1835868"><ele>55.0</ele><time>2026-04-29T17:06:43.428Z</time></trkpt><trkpt lat="33.9552214" lon="8.1834019"><ele>55.0</ele><time>2026-04-29T17:06:44.429Z</time></trkpt><trkpt lat="33.9550774" lon="8.1832185"><ele>55.0</ele><time>2026-04-29T17:06:45.439Z</time></trkpt><trkpt lat="33.9549327" lon="8.1830335"><ele>54.0</ele><time>2026-04-29T17:06:46.433Z</time></trkpt><trkpt lat="33.9547901" lon="8.1828485"><ele>53.0</ele><time>2026-04-29T17:06:47.425Z</time></trkpt><trkpt lat="33.9546458" lon="8.1826626"><ele>52.0</ele><time>2026-04-29T17:06:48.48Z</time></trkpt><trkpt lat="33.9545018" lon="8.1824743"><ele>51.33333333333333</ele><time>2026-04-29T17:06:49.443Z</time></trkpt><trkpt lat="33.9543552" lon="8.1822896"><ele>50.66666666666667</ele><time>2026-04-29T17:06:50.443Z</time></trkpt><trkpt lat="33.9542088" lon="8.1821089"><ele>50.0</ele><time>2026-04-29T17:06:51.426Z</time></trkpt><trkpt lat="33.9540697" lon="8.1819276"><ele>50.0</ele><time>2026-04-29T17:06:52.43Z</time></trkpt><trkpt lat="33.9539263" lon="8.1817383"><ele>50.0</ele><time>2026-04-29T17:06:53.442Z</time></trkpt><trkpt lat="33.9537841" lon="8.1815515"><ele>50.0</ele><time>2026-04-29T17:06:54.455Z</time></trkpt><trkpt lat="33.9536429" lon="8.181364"><ele>50.333333333333336</ele><time>2026-04-29T17:06:55.444Z</time></trkpt><trkpt lat="33.9535001" lon="8.181179"><ele>50.66666666666667</ele><time>2026-04-29T17:06:56.42Z</time></trkpt><trkpt lat="33.9533585" lon="8.1809906"><ele>51.0</ele><time>2026-04-29T17:06:57.441Z</time></trkpt><trkpt lat="33.9532144" lon="8.1807989"><ele>49.666666666666664</ele><time>2026-04-29T17:06:58.454Z</time></trkpt><trkpt lat="33.9530655" lon="8.1806134"><ele>48.33333333333333</ele><time>2026-04-29T17:06:59.436Z</time></trkpt><trkpt lat="33.9529203" lon="8.1804263"><ele>47.0</ele><time>2026-04-29T17:07:00.45Z</time></trkpt><trkpt lat="33.9527765" lon="8.1802415"><ele>47.0</ele><time>2026-04-29T17:07:01.438Z</time></trkpt><trkpt lat="33.9526326" lon="8.180056"><ele>47.0</ele><time>2026-04-29T17:07:02.436Z</time></trkpt><trkpt lat="33.9524898" lon="8.1798708"><ele>47.0</ele><time>2026-04-29T17:07:03.432Z</time></trkpt><trkpt lat="33.9523476" lon="8.1796872"><ele>47.0</ele><time>2026-04-29T17:07:04.458Z</time></trkpt><trkpt lat="33.9522057" lon="8.1795016"><ele>47.0</ele><time>2026-04-29T17:07:05.416Z</time></trkpt><trkpt lat="33.9520669" lon="8.1793199"><ele>47.0</ele><time>2026-04-29T17:07:06.431Z</time></trkpt><trkpt lat="33.9519267" lon="8.1791411"><ele>47.33333333333333</ele><time>2026-04-29T17:07:07.441Z</time></trkpt><trkpt lat="33.9517903" lon="8.1789603"><ele>47.666666666666664</ele><time>2026-04-29T17:07:08.424Z</time></trkpt><trkpt lat="33.9516533" lon="8.1787876"><ele>48.0</ele><time>2026-04-29T17:07:09.438Z</time></trkpt><trkpt lat="33.9515157" lon="8.1786129"><ele>47.666666666666664</ele><time>2026-04-29T17:07:10.434Z</time></trkpt><trkpt lat="33.9513774" lon="8.1784346"><ele>47.33333333333333</ele><time>2026-04-29T17:07:11.451Z</time></trkpt><trkpt lat="33.951239" lon="8.1782561"><ele>47.0</ele><time>2026-04-29T17:07:12.433Z</time></trkpt><trkpt lat="33.9511034" lon="8.1780782"><ele>47.0</ele><time>2026-04-29T17:07:13.422Z</time></trkpt><trkpt lat="33.9509624" lon="8.1778992"><ele>47.0</ele><time>2026-04-29T17:07:14.446Z</time></trkpt><trkpt lat="33.9508229" lon="8.177716"><ele>47.0</ele><time>2026-04-29T17:07:15.418Z</time></trkpt><trkpt lat="33.950682" lon="8.1775308"><ele>46.33333333333333</ele><time>2026-04-29T17:07:16.435Z</time></trkpt><trkpt lat="33.9505411" lon="8.1773471"><ele>45.666666666666664</ele><time>2026-04-29T17:07:17.427Z</time></trkpt><trkpt lat="33.9504003" lon="8.1771667"><ele>45.0</ele><time>2026-04-29T17:07:18.446Z</time></trkpt><trkpt lat="33.9502584" lon="8.1769866"><ele>45.0</ele><time>2026-04-29T17:07:19.436Z</time></trkpt><trkpt lat="33.9501171" lon="8.1768027"><ele>45.0</ele><time>2026-04-29T17:07:20.433Z</time></trkpt><trkpt lat="33.9499733" lon="8.1766189"><ele>45.0</ele><time>2026-04-29T17:07:21.429Z</time></trkpt><trkpt lat="33.9498316" lon="8.1764409"><ele>45.333333333333336</ele><time>2026-04-29T17:07:22.444Z</time></trkpt><trkpt lat="33.9496911" lon="8.1762554"><ele>45.66666666666667</ele><time>2026-04-29T17:07:23.437Z</time></trkpt><trkpt lat="33.9495502" lon="8.1760741"><ele>46.0</ele><time>2026-04-29T17:07:24.433Z</time></trkpt><trkpt lat="33.9494108" lon="8.1758913"><ele>46.0</ele><time>2026-04-29T17:07:25.44Z</time></trkpt><trkpt lat="33.9492728" lon="8.1757138"><ele>46.0</ele><time>2026-04-29T17:07:26.44Z</time></trkpt><trkpt lat="33.9491382" lon="8.1755412"><ele>46.0</ele><time>2026-04-29T17:07:27.423Z</time></trkpt><trkpt lat="33.9490081" lon="8.1753786"><ele>45.66666666666667</ele><time>2026-04-29T17:07:28.432Z</time></trkpt><trkpt lat="33.9488884" lon="8.175227"><ele>45.333333333333336</ele><time>2026-04-29T17:07:29.426Z</time></trkpt><trkpt lat="33.9487748" lon="8.175076"><ele>45.0</ele><time>2026-04-29T17:07:30.426Z</time></trkpt><trkpt lat="33.9486669" lon="8.1749329"><ele>45.0</ele><time>2026-04-29T17:07:31.425Z</time></trkpt><trkpt lat="33.9485675" lon="8.1748014"><ele>45.0</ele><time>2026-04-29T17:07:32.407Z</time></trkpt><trkpt lat="33.9484733" lon="8.1746836"><ele>45.0</ele><time>2026-04-29T17:07:33.441Z</time></trkpt><trkpt lat="33.948389" lon="8.1745749"><ele>45.0</ele><time>2026-04-29T17:07:34.427Z</time></trkpt><trkpt lat="33.9483181" lon="8.1744803"><ele>45.0</ele><time>2026-04-29T17:07:35.418Z</time></trkpt><trkpt lat="33.9482593" lon="8.1744062"><ele>45.0</ele><time>2026-04-29T17:07:36.458Z</time></trkpt><trkpt lat="33.9482105" lon="8.1743418"><ele>45.0</ele><time>2026-04-29T17:07:37.452Z</time></trkpt><trkpt lat="33.948158" lon="8.1742793"><ele>45.0</ele><time>2026-04-29T17:07:38.441Z</time></trkpt><trkpt lat="33.9481122" lon="8.1742203"><ele>45.0</ele><time>2026-04-29T17:07:39.434Z</time></trkpt><trkpt lat="33.9480552" lon="8.1741496"><ele>45.0</ele><time>2026-04-29T17:07:40.44Z</time></trkpt><trkpt lat="33.9479922" lon="8.1740642"><ele>45.4</ele><time>2026-04-29T17:07:41.436Z</time></trkpt><trkpt lat="33.947922" lon="8.1739715"><ele>45.8</ele><time>2026-04-29T17:07:42.441Z</time></trkpt><trkpt lat="33.9478488" lon="8.1738781"><ele>46.2</ele><time>2026-04-29T17:07:43.424Z</time></trkpt><trkpt lat="33.947776" lon="8.1737789"><ele>46.6</ele><time>2026-04-29T17:07:44.447Z</time></trkpt><trkpt lat="33.9477014" lon="8.1736816"><ele>47.0</ele><time>2026-04-29T17:07:45.449Z</time></trkpt><trkpt lat="33.9476319" lon="8.1735876"><ele>47.0</ele><time>2026-04-29T17:07:46.431Z</time></trkpt><trkpt lat="33.9475669" lon="8.1734998"><ele>47.0</ele><time>2026-04-29T17:07:47.424Z</time></trkpt><trkpt lat="33.9475074" lon="8.173427"><ele>47.0</ele><time>2026-04-29T17:07:48.442Z</time></trkpt><trkpt lat="33.9474517" lon="8.1733537"><ele>47.0</ele><time>2026-04-29T17:07:49.436Z</time></trkpt><trkpt lat="33.9473982" lon="8.1732877"><ele>47.0</ele><time>2026-04-29T17:07:50.443Z</time></trkpt><trkpt lat="33.9473475" lon="8.1732269"><ele>47.0</ele><time>2026-04-29T17:07:51.438Z</time></trkpt><trkpt lat="33.9472947" lon="8.1731617"><ele>46.25</ele><time>2026-04-29T17:07:52.431Z</time></trkpt><trkpt lat="33.9472361" lon="8.1730861"><ele>45.5</ele><time>2026-04-29T17:07:53.423Z</time></trkpt><trkpt lat="33.9471625" lon="8.1729929"><ele>44.75</ele><time>2026-04-29T17:07:54.446Z</time></trkpt><trkpt lat="33.9470679" lon="8.1728858"><ele>44.0</ele><time>2026-04-29T17:07:55.43Z</time></trkpt><trkpt lat="33.9469658" lon="8.1727787"><ele>44.0</ele><time>2026-04-29T17:07:56.422Z</time></trkpt><trkpt lat="33.9468658" lon="8.1726741"><ele>44.0</ele><time>2026-04-29T17:07:57.414Z</time></trkpt><trkpt lat="33.9467649" lon="8.1725706"><ele>44.0</ele><time>2026-04-29T17:07:58.434Z</time></trkpt><trkpt lat="33.946658" lon="8.172475"><ele>44.0</ele><time>2026-04-29T17:07:59.423Z</time></trkpt><trkpt lat="33.9465428" lon="8.1723731"><ele>44.33333333333333</ele><time>2026-04-29T17:08:00.517Z</time></trkpt><trkpt lat="33.946304" lon="8.1721789"><ele>44.666666666666664</ele><time>2026-04-29T17:08:02.415Z</time></trkpt><trkpt lat="33.9461832" lon="8.1720822"><ele>45.0</ele><time>2026-04-29T17:08:03.467Z</time></trkpt><trkpt lat="33.9460583" lon="8.1719868"><ele>45.0</ele><time>2026-04-29T17:08:04.459Z</time></trkpt><trkpt lat="33.9459321" lon="8.1719051"><ele>45.0</ele><time>2026-04-29T17:08:05.402Z</time></trkpt><trkpt lat="33.945803" lon="8.1718201"><ele>45.0</ele><time>2026-04-29T17:08:06.438Z</time></trkpt><trkpt lat="33.9456762" lon="8.1717346"><ele>45.0</ele><time>2026-04-29T17:08:07.413Z</time></trkpt><trkpt lat="33.9455426" lon="8.171647"><ele>44.333333333333336</ele><time>2026-04-29T17:08:08.437Z</time></trkpt><trkpt lat="33.9454067" lon="8.1715667"><ele>43.66666666666667</ele><time>2026-04-29T17:08:09.424Z</time></trkpt><trkpt lat="33.9452726" lon="8.1714824"><ele>43.0</ele><time>2026-04-29T17:08:10.456Z</time></trkpt><trkpt lat="33.9451388" lon="8.1714001"><ele>42.66666666666667</ele><time>2026-04-29T17:08:11.416Z</time></trkpt><trkpt lat="33.9450007" lon="8.171309"><ele>42.333333333333336</ele><time>2026-04-29T17:08:12.437Z</time></trkpt><trkpt lat="33.9448618" lon="8.1712268"><ele>42.0</ele><time>2026-04-29T17:08:13.429Z</time></trkpt><trkpt lat="33.9447229" lon="8.171138"><ele>42.0</ele><time>2026-04-29T17:08:14.413Z</time></trkpt><trkpt lat="33.9445798" lon="8.1710406"><ele>42.0</ele><time>2026-04-29T17:08:15.43Z</time></trkpt><trkpt lat="33.9444381" lon="8.1709448"><ele>42.0</ele><time>2026-04-29T17:08:16.429Z</time></trkpt><trkpt lat="33.9442921" lon="8.1708523"><ele>41.0</ele><time>2026-04-29T17:08:17.423Z</time></trkpt><trkpt lat="33.9441415" lon="8.1707527"><ele>40.0</ele><time>2026-04-29T17:08:18.432Z</time></trkpt><trkpt lat="33.9439913" lon="8.1706592"><ele>39.0</ele><time>2026-04-29T17:08:19.421Z</time></trkpt><trkpt lat="33.9438378" lon="8.1705612"><ele>39.0</ele><time>2026-04-29T17:08:20.432Z</time></trkpt><trkpt lat="33.9436849" lon="8.1704658"><ele>39.0</ele><time>2026-04-29T17:08:21.428Z</time></trkpt><trkpt lat="33.9435262" lon="8.1703657"><ele>39.0</ele><time>2026-04-29T17:08:22.42Z</time></trkpt><trkpt lat="33.9433627" lon="8.170268"><ele>37.666666666666664</ele><time>2026-04-29T17:08:23.43Z</time></trkpt><trkpt lat="33.9431991" lon="8.1701653"><ele>36.33333333333333</ele><time>2026-04-29T17:08:24.427Z</time></trkpt><trkpt lat="33.9430346" lon="8.1700568"><ele>35.0</ele><time>2026-04-29T17:08:25.435Z</time></trkpt><trkpt lat="33.9428657" lon="8.1699512"><ele>34.33333333333333</ele><time>2026-04-29T17:08:26.442Z</time></trkpt><trkpt lat="33.9426967" lon="8.1698438"><ele>33.666666666666664</ele><time>2026-04-29T17:08:27.436Z</time></trkpt><trkpt lat="33.9425249" lon="8.1697291"><ele>33.0</ele><time>2026-04-29T17:08:28.426Z</time></trkpt><trkpt lat="33.942353" lon="8.1696127"><ele>33.0</ele><time>2026-04-29T17:08:29.434Z</time></trkpt><trkpt lat="33.9421745" lon="8.1694981"><ele>33.0</ele><time>2026-04-29T17:08:30.415Z</time></trkpt><trkpt lat="33.9419952" lon="8.1693821"><ele>33.0</ele><time>2026-04-29T17:08:31.439Z</time></trkpt><trkpt lat="33.9418165" lon="8.1692659"><ele>32.333333333333336</ele><time>2026-04-29T17:08:32.421Z</time></trkpt><trkpt lat="33.9416376" lon="8.1691493"><ele>31.666666666666668</ele><time>2026-04-29T17:08:33.426Z</time></trkpt><trkpt lat="33.9414584" lon="8.1690223"><ele>31.0</ele><time>2026-04-29T17:08:34.442Z</time></trkpt><trkpt lat="33.9412883" lon="8.1688989"><ele>30.666666666666668</ele><time>2026-04-29T17:08:35.467Z</time></trkpt><trkpt lat="33.9411322" lon="8.1687683"><ele>30.333333333333336</ele><time>2026-04-29T17:08:36.43Z</time></trkpt><trkpt lat="33.9409839" lon="8.1686339"><ele>30.0</ele><time>2026-04-29T17:08:37.426Z</time></trkpt><trkpt lat="33.940842" lon="8.1684982"><ele>30.0</ele><time>2026-04-29T17:08:38.439Z</time></trkpt><trkpt lat="33.9407105" lon="8.1683459"><ele>30.0</ele><time>2026-04-29T17:08:39.436Z</time></trkpt><trkpt lat="33.9405878" lon="8.1681955"><ele>30.0</ele><time>2026-04-29T17:08:40.438Z</time></trkpt><trkpt lat="33.9404645" lon="8.1680449"><ele>30.0</ele><time>2026-04-29T17:08:41.436Z</time></trkpt><trkpt lat="33.9403493" lon="8.1678946"><ele>30.0</ele><time>2026-04-29T17:08:42.427Z</time></trkpt><trkpt lat="33.9402381" lon="8.1677274"><ele>30.0</ele><time>2026-04-29T17:08:43.419Z</time></trkpt><trkpt lat="33.9401324" lon="8.1675534"><ele>29.666666666666664</ele><time>2026-04-29T17:08:44.443Z</time></trkpt><trkpt lat="33.9400259" lon="8.1673689"><ele>29.333333333333332</ele><time>2026-04-29T17:08:45.427Z</time></trkpt><trkpt lat="33.9399185" lon="8.167182"><ele>29.0</ele><time>2026-04-29T17:08:46.43Z</time></trkpt><trkpt lat="33.9398094" lon="8.1669989"><ele>28.666666666666664</ele><time>2026-04-29T17:08:47.427Z</time></trkpt><trkpt lat="33.9397006" lon="8.1668126"><ele>28.333333333333336</ele><time>2026-04-29T17:08:48.432Z</time></trkpt><trkpt lat="33.9395893" lon="8.1666215"><ele>28.0</ele><time>2026-04-29T17:08:49.428Z</time></trkpt><trkpt lat="33.9394773" lon="8.1664375"><ele>28.333333333333336</ele><time>2026-04-29T17:08:50.438Z</time></trkpt><trkpt lat="33.9393661" lon="8.1662536"><ele>28.666666666666664</ele><time>2026-04-29T17:08:51.422Z</time></trkpt><trkpt lat="33.9392524" lon="8.1660673"><ele>29.0</ele><time>2026-04-29T17:08:52.417Z</time></trkpt><trkpt lat="33.939142" lon="8.1658784"><ele>29.333333333333332</ele><time>2026-04-29T17:08:53.424Z</time></trkpt><trkpt lat="33.9390297" lon="8.165688"><ele>29.666666666666664</ele><time>2026-04-29T17:08:54.416Z</time></trkpt><trkpt lat="33.9389204" lon="8.165495"><ele>30.0</ele><time>2026-04-29T17:08:55.434Z</time></trkpt><trkpt lat="33.9388064" lon="8.1653033"><ele>30.0</ele><time>2026-04-29T17:08:56.444Z</time></trkpt><trkpt lat="33.9386971" lon="8.1651164"><ele>30.0</ele><time>2026-04-29T17:08:57.433Z</time></trkpt><trkpt lat="33.9385833" lon="8.1649272"><ele>30.0</ele><time>2026-04-29T17:08:58.442Z</time></trkpt><trkpt lat="33.9384702" lon="8.1647354"><ele>30.333333333333336</ele><time>2026-04-29T17:08:59.444Z</time></trkpt><trkpt lat="33.9383583" lon="8.1645443"><ele>30.666666666666668</ele><time>2026-04-29T17:09:00.43Z</time></trkpt><trkpt lat="33.9382417" lon="8.1643582"><ele>31.0</ele><time>2026-04-29T17:09:01.419Z</time></trkpt><trkpt lat="33.9381276" lon="8.1641673"><ele>31.333333333333336</ele><time>2026-04-29T17:09:02.429Z</time></trkpt><trkpt lat="33.9380115" lon="8.1639751"><ele>31.666666666666664</ele><time>2026-04-29T17:09:03.425Z</time></trkpt><trkpt lat="33.9378972" lon="8.1637842"><ele>32.0</ele><time>2026-04-29T17:09:04.418Z</time></trkpt><trkpt lat="33.9377831" lon="8.1635876"><ele>32.0</ele><time>2026-04-29T17:09:05.416Z</time></trkpt><trkpt lat="33.9376717" lon="8.1633952"><ele>32.0</ele><time>2026-04-29T17:09:06.421Z</time></trkpt><trkpt lat="33.9375557" lon="8.1632031"><ele>32.0</ele><time>2026-04-29T17:09:07.411Z</time></trkpt><trkpt lat="33.9374414" lon="8.1630098"><ele>31.666666666666664</ele><time>2026-04-29T17:09:08.428Z</time></trkpt><trkpt lat="33.9373268" lon="8.1628191"><ele>31.333333333333336</ele><time>2026-04-29T17:09:09.428Z</time></trkpt><trkpt lat="33.9372159" lon="8.1626397"><ele>31.0</ele><time>2026-04-29T17:09:10.422Z</time></trkpt><trkpt lat="33.9371187" lon="8.1624673"><ele>31.666666666666668</ele><time>2026-04-29T17:09:11.422Z</time></trkpt><trkpt lat="33.9370205" lon="8.1623075"><ele>32.333333333333336</ele><time>2026-04-29T17:09:12.44Z</time></trkpt><trkpt lat="33.9369194" lon="8.1621557"><ele>33.0</ele><time>2026-04-29T17:09:13.431Z</time></trkpt><trkpt lat="33.9368156" lon="8.1620107"><ele>33.0</ele><time>2026-04-29T17:09:14.429Z</time></trkpt><trkpt lat="33.9367145" lon="8.1618627"><ele>33.0</ele><time>2026-04-29T17:09:15.431Z</time></trkpt><trkpt lat="33.9366034" lon="8.1617196"><ele>33.0</ele><time>2026-04-29T17:09:16.431Z</time></trkpt><trkpt lat="33.9364947" lon="8.1615773"><ele>33.666666666666664</ele><time>2026-04-29T17:09:17.423Z</time></trkpt><trkpt lat="33.9363846" lon="8.1614356"><ele>34.33333333333333</ele><time>2026-04-29T17:09:18.44Z</time></trkpt><trkpt lat="33.936273" lon="8.1612906"><ele>35.0</ele><time>2026-04-29T17:09:19.429Z</time></trkpt><trkpt lat="33.9361622" lon="8.1611464"><ele>35.0</ele><time>2026-04-29T17:09:20.43Z</time></trkpt><trkpt lat="33.9360455" lon="8.1610016"><ele>35.0</ele><time>2026-04-29T17:09:21.42Z</time></trkpt><trkpt lat="33.9359319" lon="8.1608579"><ele>35.0</ele><time>2026-04-29T17:09:22.444Z</time></trkpt><trkpt lat="33.9358174" lon="8.1607141"><ele>34.0</ele><time>2026-04-29T17:09:23.437Z</time></trkpt><trkpt lat="33.9357038" lon="8.1605723"><ele>33.0</ele><time>2026-04-29T17:09:24.424Z</time></trkpt><trkpt lat="33.9355869" lon="8.160425"><ele>32.0</ele><time>2026-04-29T17:09:25.426Z</time></trkpt><trkpt lat="33.9354736" lon="8.1602812"><ele>32.0</ele><time>2026-04-29T17:09:26.427Z</time></trkpt><trkpt lat="33.9353598" lon="8.1601397"><ele>32.0</ele><time>2026-04-29T17:09:27.436Z</time></trkpt><trkpt lat="33.9352495" lon="8.1599984"><ele>32.0</ele><time>2026-04-29T17:09:28.426Z</time></trkpt><trkpt lat="33.9351366" lon="8.1598562"><ele>31.666666666666664</ele><time>2026-04-29T17:09:29.448Z</time></trkpt><trkpt lat="33.9350192" lon="8.1597167"><ele>31.333333333333336</ele><time>2026-04-29T17:09:30.469Z</time></trkpt><trkpt lat="33.9349126" lon="8.1595696"><ele>31.0</ele><time>2026-04-29T17:09:31.431Z</time></trkpt><trkpt lat="33.9348097" lon="8.1594174"><ele>31.0</ele><time>2026-04-29T17:09:32.481Z</time></trkpt><trkpt lat="33.9347076" lon="8.1592645"><ele>31.0</ele><time>2026-04-29T17:09:33.433Z</time></trkpt><trkpt lat="33.9346095" lon="8.1591098"><ele>31.0</ele><time>2026-04-29T17:09:34.455Z</time></trkpt><trkpt lat="33.9345074" lon="8.158959"><ele>31.666666666666668</ele><time>2026-04-29T17:09:35.44Z</time></trkpt><trkpt lat="33.9344131" lon="8.1588099"><ele>32.333333333333336</ele><time>2026-04-29T17:09:36.438Z</time></trkpt><trkpt lat="33.9343194" lon="8.1586603"><ele>33.0</ele><time>2026-04-29T17:09:37.44Z</time></trkpt><trkpt lat="33.9342311" lon="8.1585142"><ele>32.75</ele><time>2026-04-29T17:09:38.435Z</time></trkpt><trkpt lat="33.9341521" lon="8.158383"><ele>32.5</ele><time>2026-04-29T17:09:39.436Z</time></trkpt><trkpt lat="33.9340795" lon="8.1582571"><ele>32.25</ele><time>2026-04-29T17:09:40.436Z</time></trkpt><trkpt lat="33.9340146" lon="8.1581448"><ele>32.0</ele><time>2026-04-29T17:09:41.444Z</time></trkpt><trkpt lat="33.9339492" lon="8.1580362"><ele>32.0</ele><time>2026-04-29T17:09:42.429Z</time></trkpt><trkpt lat="33.933887" lon="8.1579298"><ele>32.0</ele><time>2026-04-29T17:09:43.456Z</time></trkpt><trkpt lat="33.9338325" lon="8.1578326"><ele>32.0</ele><time>2026-04-29T17:09:44.432Z</time></trkpt><trkpt lat="33.9337819" lon="8.1577462"><ele>32.0</ele><time>2026-04-29T17:09:45.439Z</time></trkpt><trkpt lat="33.9337304" lon="8.1576665"><ele>32.0</ele><time>2026-04-29T17:09:46.433Z</time></trkpt><trkpt lat="33.9336835" lon="8.1575908"><ele>32.0</ele><time>2026-04-29T17:09:47.426Z</time></trkpt><trkpt lat="33.9336358" lon="8.1575079"><ele>32.0</ele><time>2026-04-29T17:09:48.423Z</time></trkpt><trkpt lat="33.9335821" lon="8.157423"><ele>32.0</ele><time>2026-04-29T17:09:49.43Z</time></trkpt><trkpt lat="33.9335229" lon="8.1573298"><ele>32.0</ele><time>2026-04-29T17:09:50.424Z</time></trkpt><trkpt lat="33.933462" lon="8.1572391"><ele>32.0</ele><time>2026-04-29T17:09:51.448Z</time></trkpt><trkpt lat="33.9333987" lon="8.1571346"><ele>31.8</ele><time>2026-04-29T17:09:52.432Z</time></trkpt><trkpt lat="33.9333367" lon="8.1570372"><ele>31.6</ele><time>2026-04-29T17:09:53.417Z</time></trkpt><trkpt lat="33.9332766" lon="8.1569314"><ele>31.400000000000002</ele><time>2026-04-29T17:09:54.421Z</time></trkpt><trkpt lat="33.933211" lon="8.1568212"><ele>31.200000000000003</ele><time>2026-04-29T17:09:55.423Z</time></trkpt><trkpt lat="33.9331452" lon="8.1567135"><ele>31.0</ele><time>2026-04-29T17:09:56.445Z</time></trkpt><trkpt lat="33.9330819" lon="8.1566034"><ele>31.500000000000004</ele><time>2026-04-29T17:09:57.406Z</time></trkpt><trkpt lat="33.9330218" lon="8.1565129"><ele>32.0</ele><time>2026-04-29T17:09:58.45Z</time></trkpt><trkpt lat="33.9329727" lon="8.1564298"><ele>32.5</ele><time>2026-04-29T17:09:59.442Z</time></trkpt><trkpt lat="33.932929" lon="8.1563497"><ele>33.0</ele><time>2026-04-29T17:10:00.416Z</time></trkpt><trkpt lat="33.9328826" lon="8.1562706"><ele>33.5</ele><time>2026-04-29T17:10:01.413Z</time></trkpt><trkpt lat="33.9328333" lon="8.1561851"><ele>34.0</ele><time>2026-04-29T17:10:02.437Z</time></trkpt><trkpt lat="33.9327822" lon="8.1560903"><ele>34.0</ele><time>2026-04-29T17:10:03.44Z</time></trkpt><trkpt lat="33.9327227" lon="8.155996"><ele>34.0</ele><time>2026-04-29T17:10:04.445Z</time></trkpt><trkpt lat="33.9326588" lon="8.1558928"><ele>34.0</ele><time>2026-04-29T17:10:05.448Z</time></trkpt><trkpt lat="33.9325913" lon="8.1557899"><ele>34.0</ele><time>2026-04-29T17:10:06.441Z</time></trkpt><trkpt lat="33.9325226" lon="8.1556775"><ele>34.0</ele><time>2026-04-29T17:10:07.425Z</time></trkpt><trkpt lat="33.9324517" lon="8.1555581"><ele>33.75</ele><time>2026-04-29T17:10:08.438Z</time></trkpt><trkpt lat="33.932374" lon="8.1554364"><ele>33.5</ele><time>2026-04-29T17:10:09.434Z</time></trkpt><trkpt lat="33.9322911" lon="8.1553019"><ele>33.25</ele><time>2026-04-29T17:10:10.418Z</time></trkpt><trkpt lat="33.9322055" lon="8.1551681"><ele>33.0</ele><time>2026-04-29T17:10:11.43Z</time></trkpt><trkpt lat="33.9321204" lon="8.1550251"><ele>33.0</ele><time>2026-04-29T17:10:12.432Z</time></trkpt><trkpt lat="33.932034" lon="8.1548771"><ele>33.0</ele><time>2026-04-29T17:10:13.425Z</time></trkpt><trkpt lat="33.9319415" lon="8.1547289"><ele>33.0</ele><time>2026-04-29T17:10:14.434Z</time></trkpt><trkpt lat="33.9318515" lon="8.1545747"><ele>33.333333333333336</ele><time>2026-04-29T17:10:15.431Z</time></trkpt><trkpt lat="33.9317574" lon="8.1544207"><ele>33.66666666666667</ele><time>2026-04-29T17:10:16.455Z</time></trkpt><trkpt lat="33.9316611" lon="8.154265"><ele>34.0</ele><time>2026-04-29T17:10:17.446Z</time></trkpt><trkpt lat="33.9315664" lon="8.1541001"><ele>34.333333333333336</ele><time>2026-04-29T17:10:18.427Z</time></trkpt><trkpt lat="33.9314681" lon="8.1539366"><ele>34.666666666666664</ele><time>2026-04-29T17:10:19.441Z</time></trkpt><trkpt lat="33.9313734" lon="8.1537751"><ele>35.0</ele><time>2026-04-29T17:10:20.459Z</time></trkpt><trkpt lat="33.9312752" lon="8.1536066"><ele>35.0</ele><time>2026-04-29T17:10:21.432Z</time></trkpt><trkpt lat="33.931179" lon="8.153436"><ele>35.0</ele><time>2026-04-29T17:10:22.433Z</time></trkpt><trkpt lat="33.9310799" lon="8.1532629"><ele>35.0</ele><time>2026-04-29T17:10:23.427Z</time></trkpt><trkpt lat="33.9309811" lon="8.1530903"><ele>35.33333333333333</ele><time>2026-04-29T17:10:24.423Z</time></trkpt><trkpt lat="33.9308819" lon="8.1529176"><ele>35.666666666666664</ele><time>2026-04-29T17:10:25.434Z</time></trkpt><trkpt lat="33.9307783" lon="8.1527508"><ele>36.0</ele><time>2026-04-29T17:10:26.43Z</time></trkpt><trkpt lat="33.9306759" lon="8.1525873"><ele>36.0</ele><time>2026-04-29T17:10:27.432Z</time></trkpt><trkpt lat="33.930572" lon="8.1524235"><ele>36.0</ele><time>2026-04-29T17:10:28.453Z</time></trkpt><trkpt lat="33.9304731" lon="8.1522587"><ele>36.0</ele><time>2026-04-29T17:10:29.442Z</time></trkpt><trkpt lat="33.9303752" lon="8.1520873"><ele>36.333333333333336</ele><time>2026-04-29T17:10:30.46Z</time></trkpt><trkpt lat="33.9302752" lon="8.1519222"><ele>36.66666666666667</ele><time>2026-04-29T17:10:31.421Z</time></trkpt><trkpt lat="33.9301739" lon="8.1517554"><ele>37.0</ele><time>2026-04-29T17:10:32.429Z</time></trkpt><trkpt lat="33.9300766" lon="8.1515899"><ele>36.66666666666667</ele><time>2026-04-29T17:10:33.444Z</time></trkpt><trkpt lat="33.9299787" lon="8.1514275"><ele>36.333333333333336</ele><time>2026-04-29T17:10:34.443Z</time></trkpt><trkpt lat="33.9298853" lon="8.151265"><ele>36.0</ele><time>2026-04-29T17:10:35.419Z</time></trkpt><trkpt lat="33.9297924" lon="8.1511051"><ele>36.0</ele><time>2026-04-29T17:10:36.431Z</time></trkpt><trkpt lat="33.9297079" lon="8.1509569"><ele>36.0</ele><time>2026-04-29T17:10:37.433Z</time></trkpt><trkpt lat="33.92962" lon="8.1508196"><ele>36.0</ele><time>2026-04-29T17:10:38.441Z</time></trkpt><trkpt lat="33.9295389" lon="8.1506846"><ele>36.0</ele><time>2026-04-29T17:10:39.438Z</time></trkpt><trkpt lat="33.9294613" lon="8.1505505"><ele>36.25</ele><time>2026-04-29T17:10:40.448Z</time></trkpt><trkpt lat="33.9293902" lon="8.1504121"><ele>36.5</ele><time>2026-04-29T17:10:41.452Z</time></trkpt><trkpt lat="33.9293162" lon="8.1502744"><ele>36.75</ele><time>2026-04-29T17:10:42.433Z</time></trkpt><trkpt lat="33.9292442" lon="8.1501385"><ele>37.0</ele><time>2026-04-29T17:10:43.442Z</time></trkpt><trkpt lat="33.9291699" lon="8.1500034"><ele>37.0</ele><time>2026-04-29T17:10:44.417Z</time></trkpt><trkpt lat="33.9291006" lon="8.1498635"><ele>37.0</ele><time>2026-04-29T17:10:45.441Z</time></trkpt><trkpt lat="33.9290324" lon="8.149722"><ele>37.0</ele><time>2026-04-29T17:10:46.445Z</time></trkpt><trkpt lat="33.9289676" lon="8.1495742"><ele>37.0</ele><time>2026-04-29T17:10:47.421Z</time></trkpt><trkpt lat="33.9289045" lon="8.1494308"><ele>37.0</ele><time>2026-04-29T17:10:48.416Z</time></trkpt><trkpt lat="33.9288445" lon="8.1492936"><ele>37.0</ele><time>2026-04-29T17:10:49.442Z</time></trkpt><trkpt lat="33.9287888" lon="8.1491624"><ele>37.0</ele><time>2026-04-29T17:10:50.444Z</time></trkpt><trkpt lat="33.9287353" lon="8.1490379"><ele>37.0</ele><time>2026-04-29T17:10:51.421Z</time></trkpt><trkpt lat="33.9286891" lon="8.1489235"><ele>37.4</ele><time>2026-04-29T17:10:52.436Z</time></trkpt><trkpt lat="33.9286447" lon="8.1488174"><ele>37.800000000000004</ele><time>2026-04-29T17:10:53.442Z</time></trkpt><trkpt lat="33.9286067" lon="8.1487118"><ele>38.2</ele><time>2026-04-29T17:10:54.44Z</time></trkpt><trkpt lat="33.9285677" lon="8.148614"><ele>38.6</ele><time>2026-04-29T17:10:55.433Z</time></trkpt><trkpt lat="33.9285306" lon="8.1485127"><ele>39.0</ele><time>2026-04-29T17:10:56.429Z</time></trkpt><trkpt lat="33.9284964" lon="8.1484227"><ele>39.0</ele><time>2026-04-29T17:10:57.44Z</time></trkpt><trkpt lat="33.9284666" lon="8.1483363"><ele>39.0</ele><time>2026-04-29T17:10:58.434Z</time></trkpt><trkpt lat="33.9284359" lon="8.1482528"><ele>39.0</ele><time>2026-04-29T17:10:59.421Z</time></trkpt><trkpt lat="33.9284067" lon="8.1481844"><ele>39.0</ele><time>2026-04-29T17:11:00.457Z</time></trkpt><trkpt lat="33.9283636" lon="8.1480815"><ele>39.0</ele><time>2026-04-29T17:11:02.423Z</time></trkpt><trkpt lat="33.9283282" lon="8.1479993"><ele>39.0</ele><time>2026-04-29T17:11:05.443Z</time></trkpt><trkpt lat="33.9282979" lon="8.1479264"><ele>38.8</ele><time>2026-04-29T17:11:08.439Z</time></trkpt><trkpt lat="33.9282535" lon="8.1478268"><ele>38.599999999999994</ele><time>2026-04-29T17:11:10.431Z</time></trkpt><trkpt lat="33.9282063" lon="8.147728"><ele>38.4</ele><time>2026-04-29T17:11:12.438Z</time></trkpt><trkpt lat="33.928161" lon="8.1476333"><ele>38.199999999999996</ele><time>2026-04-29T17:11:14.438Z</time></trkpt><trkpt lat="33.9281207" lon="8.1475246"><ele>38.0</ele><time>2026-04-29T17:11:16.464Z</time></trkpt><trkpt lat="33.9280738" lon="8.1473838"><ele>38.0</ele><time>2026-04-29T17:11:18.44Z</time></trkpt><trkpt lat="33.928046" lon="8.1473033"><ele>38.0</ele><time>2026-04-29T17:11:19.429Z</time></trkpt><trkpt lat="33.9280102" lon="8.1472021"><ele>38.0</ele><time>2026-04-29T17:11:20.444Z</time></trkpt><trkpt lat="33.9279774" lon="8.147098"><ele>38.0</ele><time>2026-04-29T17:11:21.438Z</time></trkpt><trkpt lat="33.927936" lon="8.1469904"><ele>38.0</ele><time>2026-04-29T17:11:22.443Z</time></trkpt><trkpt lat="33.9278909" lon="8.1468775"><ele>38.0</ele><time>2026-04-29T17:11:23.435Z</time></trkpt><trkpt lat="33.9278412" lon="8.1467559"><ele>38.0</ele><time>2026-04-29T17:11:24.434Z</time></trkpt><trkpt lat="33.9277922" lon="8.1466371"><ele>38.0</ele><time>2026-04-29T17:11:25.423Z</time></trkpt><trkpt lat="33.9277476" lon="8.1465146"><ele>38.0</ele><time>2026-04-29T17:11:26.437Z</time></trkpt><trkpt lat="33.9276984" lon="8.1463963"><ele>38.0</ele><time>2026-04-29T17:11:27.437Z</time></trkpt><trkpt lat="33.9276517" lon="8.1462766"><ele>38.0</ele><time>2026-04-29T17:11:28.429Z</time></trkpt><trkpt lat="33.9276067" lon="8.1461585"><ele>38.0</ele><time>2026-04-29T17:11:29.426Z</time></trkpt><trkpt lat="33.9275632" lon="8.1460428"><ele>38.0</ele><time>2026-04-29T17:11:30.43Z</time></trkpt><trkpt lat="33.9275183" lon="8.1459256"><ele>38.0</ele><time>2026-04-29T17:11:31.442Z</time></trkpt><trkpt lat="33.9274714" lon="8.14581"><ele>38.0</ele><time>2026-04-29T17:11:32.423Z</time></trkpt><trkpt lat="33.9274215" lon="8.1456933"><ele>38.0</ele><time>2026-04-29T17:11:33.434Z</time></trkpt><trkpt lat="33.9273712" lon="8.1455749"><ele>38.0</ele><time>2026-04-29T17:11:34.445Z</time></trkpt><trkpt lat="33.9273223" lon="8.1454566"><ele>38.0</ele><time>2026-04-29T17:11:35.43Z</time></trkpt><trkpt lat="33.927273" lon="8.1453327"><ele>38.0</ele><time>2026-04-29T17:11:36.447Z</time></trkpt><trkpt lat="33.9272271" lon="8.1452161"><ele>38.0</ele><time>2026-04-29T17:11:37.435Z</time></trkpt><trkpt lat="33.9271832" lon="8.1451012"><ele>38.0</ele><time>2026-04-29T17:11:38.427Z</time></trkpt><trkpt lat="33.9271357" lon="8.1449847"><ele>38.0</ele><time>2026-04-29T17:11:39.429Z</time></trkpt><trkpt lat="33.9270874" lon="8.1448623"><ele>38.0</ele><time>2026-04-29T17:11:40.423Z</time></trkpt><trkpt lat="33.9270382" lon="8.1447418"><ele>38.0</ele><time>2026-04-29T17:11:41.432Z</time></trkpt><trkpt lat="33.92699" lon="8.1446211"><ele>38.0</ele><time>2026-04-29T17:11:42.438Z</time></trkpt><trkpt lat="33.9269447" lon="8.1444976"><ele>38.5</ele><time>2026-04-29T17:11:43.444Z</time></trkpt><trkpt lat="33.9268958" lon="8.1443767"><ele>39.0</ele><time>2026-04-29T17:11:44.431Z</time></trkpt><trkpt lat="33.9268484" lon="8.1442496"><ele>39.5</ele><time>2026-04-29T17:11:45.429Z</time></trkpt><trkpt lat="33.9267997" lon="8.1441217"><ele>40.0</ele><time>2026-04-29T17:11:46.436Z</time></trkpt><trkpt lat="33.9267484" lon="8.1439924"><ele>40.25</ele><time>2026-04-29T17:11:47.446Z</time></trkpt><trkpt lat="33.9266939" lon="8.1438579"><ele>40.5</ele><time>2026-04-29T17:11:48.44Z</time></trkpt><trkpt lat="33.9266368" lon="8.1437256"><ele>40.75</ele><time>2026-04-29T17:11:49.432Z</time></trkpt><trkpt lat="33.9265799" lon="8.1435926"><ele>41.0</ele><time>2026-04-29T17:11:50.434Z</time></trkpt><trkpt lat="33.9265202" lon="8.1434555"><ele>41.0</ele><time>2026-04-29T17:11:51.417Z</time></trkpt><trkpt lat="33.9264648" lon="8.1433131"><ele>41.0</ele><time>2026-04-29T17:11:52.42Z</time></trkpt><trkpt lat="33.9264124" lon="8.1431696"><ele>41.0</ele><time>2026-04-29T17:11:53.432Z</time></trkpt><trkpt lat="33.9263617" lon="8.1430303"><ele>41.0</ele><time>2026-04-29T17:11:54.444Z</time></trkpt><trkpt lat="33.9263069" lon="8.1428955"><ele>41.0</ele><time>2026-04-29T17:11:55.435Z</time></trkpt><trkpt lat="33.9262505" lon="8.1427603"><ele>41.0</ele><time>2026-04-29T17:11:56.444Z</time></trkpt><trkpt lat="33.926198" lon="8.1426283"><ele>41.0</ele><time>2026-04-29T17:11:57.435Z</time></trkpt><trkpt lat="33.9261463" lon="8.142492"><ele>41.0</ele><time>2026-04-29T17:11:58.43Z</time></trkpt><trkpt lat="33.9260907" lon="8.1423536"><ele>41.25</ele><time>2026-04-29T17:11:59.435Z</time></trkpt><trkpt lat="33.9260392" lon="8.1422154"><ele>41.5</ele><time>2026-04-29T17:12:00.42Z</time></trkpt><trkpt lat="33.9259884" lon="8.1420845"><ele>41.75</ele><time>2026-04-29T17:12:01.435Z</time></trkpt><trkpt lat="33.9259357" lon="8.1419497"><ele>42.0</ele><time>2026-04-29T17:12:02.431Z</time></trkpt><trkpt lat="33.925881" lon="8.1418177"><ele>42.0</ele><time>2026-04-29T17:12:03.422Z</time></trkpt><trkpt lat="33.9258251" lon="8.1416867"><ele>42.0</ele><time>2026-04-29T17:12:04.441Z</time></trkpt><trkpt lat="33.9257658" lon="8.1415549"><ele>42.0</ele><time>2026-04-29T17:12:05.439Z</time></trkpt><trkpt lat="33.9257118" lon="8.1414248"><ele>42.0</ele><time>2026-04-29T17:12:06.431Z</time></trkpt><trkpt lat="33.9256533" lon="8.1412919"><ele>42.0</ele><time>2026-04-29T17:12:07.442Z</time></trkpt><trkpt lat="33.9255987" lon="8.1411588"><ele>42.0</ele><time>2026-04-29T17:12:08.449Z</time></trkpt><trkpt lat="33.9255502" lon="8.1410241"><ele>42.0</ele><time>2026-04-29T17:12:09.417Z</time></trkpt><trkpt lat="33.9254995" lon="8.1408883"><ele>42.0</ele><time>2026-04-29T17:12:10.425Z</time></trkpt><trkpt lat="33.9254492" lon="8.1407562"><ele>42.2</ele><time>2026-04-29T17:12:11.43Z</time></trkpt><trkpt lat="33.9253972" lon="8.140628"><ele>42.400000000000006</ele><time>2026-04-29T17:12:12.444Z</time></trkpt><trkpt lat="33.9253414" lon="8.1405066"><ele>42.599999999999994</ele><time>2026-04-29T17:12:13.429Z</time></trkpt><trkpt lat="33.9252871" lon="8.1403927"><ele>42.8</ele><time>2026-04-29T17:12:14.443Z</time></trkpt><trkpt lat="33.9252425" lon="8.140276"><ele>43.0</ele><time>2026-04-29T17:12:15.433Z</time></trkpt><trkpt lat="33.9252042" lon="8.1401669"><ele>43.0</ele><time>2026-04-29T17:12:16.43Z</time></trkpt><trkpt lat="33.9251615" lon="8.140067"><ele>43.0</ele><time>2026-04-29T17:12:17.447Z</time></trkpt><trkpt lat="33.9251274" lon="8.139972"><ele>43.0</ele><time>2026-04-29T17:12:18.428Z</time></trkpt><trkpt lat="33.92509" lon="8.1398809"><ele>43.0</ele><time>2026-04-29T17:12:19.423Z</time></trkpt><trkpt lat="33.9250533" lon="8.1397932"><ele>43.0</ele><time>2026-04-29T17:12:20.448Z</time></trkpt><trkpt lat="33.9250141" lon="8.1397056"><ele>43.0</ele><time>2026-04-29T17:12:21.457Z</time></trkpt><trkpt lat="33.924978" lon="8.1396224"><ele>43.0</ele><time>2026-04-29T17:12:22.449Z</time></trkpt><trkpt lat="33.9249318" lon="8.1395001"><ele>43.0</ele><time>2026-04-29T17:12:24.444Z</time></trkpt><trkpt lat="33.9248863" lon="8.1393769"><ele>43.0</ele><time>2026-04-29T17:12:26.453Z</time></trkpt><trkpt lat="33.9248413" lon="8.139256"><ele>43.0</ele><time>2026-04-29T17:12:28.434Z</time></trkpt><trkpt lat="33.9247955" lon="8.1391286"><ele>43.0</ele><time>2026-04-29T17:12:30.436Z</time></trkpt><trkpt lat="33.9247419" lon="8.1389923"><ele>43.0</ele><time>2026-04-29T17:12:32.428Z</time></trkpt><trkpt lat="33.9247138" lon="8.1389146"><ele>43.0</ele><time>2026-04-29T17:12:33.436Z</time></trkpt><trkpt lat="33.9246596" lon="8.1387761"><ele>43.0</ele><time>2026-04-29T17:12:35.431Z</time></trkpt><trkpt lat="33.924634" lon="8.1387048"><ele>43.0</ele><time>2026-04-29T17:12:36.458Z</time></trkpt><trkpt lat="33.9245821" lon="8.138588"><ele>43.0</ele><time>2026-04-29T17:12:38.439Z</time></trkpt><trkpt lat="33.9245399" lon="8.138495"><ele>43.0</ele><time>2026-04-29T17:12:40.438Z</time></trkpt><trkpt lat="33.9244891" lon="8.138366"><ele>43.0</ele><time>2026-04-29T17:12:42.428Z</time></trkpt><trkpt lat="33.9244546" lon="8.1382816"><ele>43.0</ele><time>2026-04-29T17:12:43.436Z</time></trkpt><trkpt lat="33.9244158" lon="8.1381923"><ele>43.0</ele><time>2026-04-29T17:12:44.435Z</time></trkpt><trkpt lat="33.9243769" lon="8.1381012"><ele>43.0</ele><time>2026-04-29T17:12:45.438Z</time></trkpt><trkpt lat="33.9243365" lon="8.138009"><ele>43.4</ele><time>2026-04-29T17:12:46.435Z</time></trkpt><trkpt lat="33.9242924" lon="8.1379184"><ele>43.8</ele><time>2026-04-29T17:12:47.42Z</time></trkpt><trkpt lat="33.9242554" lon="8.1378299"><ele>44.2</ele><time>2026-04-29T17:12:48.438Z</time></trkpt><trkpt lat="33.9242251" lon="8.137752"><ele>44.6</ele><time>2026-04-29T17:12:49.493Z</time></trkpt><trkpt lat="33.9241756" lon="8.1376175"><ele>45.0</ele><time>2026-04-29T17:12:51.445Z</time></trkpt><trkpt lat="33.9241368" lon="8.137511"><ele>45.166666666666664</ele><time>2026-04-29T17:12:53.437Z</time></trkpt><trkpt lat="33.9241078" lon="8.1374357"><ele>45.333333333333336</ele><time>2026-04-29T17:12:55.439Z</time></trkpt><trkpt lat="33.9240968" lon="8.1373492"><ele>45.5</ele><time>2026-04-29T17:12:57.425Z</time></trkpt><trkpt lat="33.9240696" lon="8.137232"><ele>45.66666666666667</ele><time>2026-04-29T17:12:59.425Z</time></trkpt><trkpt lat="33.924064" lon="8.1371478"><ele>45.833333333333336</ele><time>2026-04-29T17:13:02.429Z</time></trkpt><trkpt lat="33.9240363" lon="8.1370197"><ele>46.0</ele><time>2026-04-29T17:13:06.416Z</time></trkpt><trkpt lat="33.9239983" lon="8.1369484"><ele>46.333333333333336</ele><time>2026-04-29T17:13:07.444Z</time></trkpt><trkpt lat="33.9239508" lon="8.1368746"><ele>46.66666666666667</ele><time>2026-04-29T17:13:08.434Z</time></trkpt><trkpt lat="33.9239056" lon="8.1367986"><ele>47.0</ele><time>2026-04-29T17:13:09.448Z</time></trkpt><trkpt lat="33.9238713" lon="8.136721"><ele>47.333333333333336</ele><time>2026-04-29T17:13:10.418Z</time></trkpt><trkpt lat="33.9238396" lon="8.1366412"><ele>47.666666666666664</ele><time>2026-04-29T17:13:11.441Z</time></trkpt><trkpt lat="33.9238084" lon="8.1365582"><ele>48.0</ele><time>2026-04-29T17:13:12.434Z</time></trkpt><trkpt lat="33.9237713" lon="8.1364758"><ele>48.166666666666664</ele><time>2026-04-29T17:13:13.43Z</time></trkpt><trkpt lat="33.9237296" lon="8.136389"><ele>48.33333333333333</ele><time>2026-04-29T17:13:14.439Z</time></trkpt><trkpt lat="33.9236891" lon="8.1363044"><ele>48.5</ele><time>2026-04-29T17:13:15.436Z</time></trkpt><trkpt lat="33.9236519" lon="8.1362145"><ele>48.666666666666664</ele><time>2026-04-29T17:13:16.445Z</time></trkpt><trkpt lat="33.9236179" lon="8.1361242"><ele>48.83333333333333</ele><time>2026-04-29T17:13:17.431Z</time></trkpt><trkpt lat="33.9235782" lon="8.1360389"><ele>49.0</ele><time>2026-04-29T17:13:18.439Z</time></trkpt><trkpt lat="33.9235389" lon="8.1359583"><ele>48.99999999999999</ele><time>2026-04-29T17:13:19.439Z</time></trkpt><trkpt lat="33.9235054" lon="8.1358803"><ele>49.0</ele><time>2026-04-29T17:13:20.438Z</time></trkpt><trkpt lat="33.9234683" lon="8.1357997"><ele>49.0</ele><time>2026-04-29T17:13:21.43Z</time></trkpt><trkpt lat="33.9234318" lon="8.1357104"><ele>49.0</ele><time>2026-04-29T17:13:22.437Z</time></trkpt><trkpt lat="33.923397" lon="8.1356266"><ele>48.99999999999999</ele><time>2026-04-29T17:13:23.427Z</time></trkpt><trkpt lat="33.923357" lon="8.135547"><ele>49.0</ele><time>2026-04-29T17:13:24.432Z</time></trkpt><trkpt lat="33.9233176" lon="8.1354739"><ele>49.285714285714285</ele><time>2026-04-29T17:13:25.458Z</time></trkpt><trkpt lat="33.9232795" lon="8.1354082"><ele>49.57142857142857</ele><time>2026-04-29T17:13:26.421Z</time></trkpt><trkpt lat="33.9232459" lon="8.1353433"><ele>49.85714285714286</ele><time>2026-04-29T17:13:27.426Z</time></trkpt><trkpt lat="33.9232071" lon="8.1352763"><ele>50.14285714285714</ele><time>2026-04-29T17:13:28.434Z</time></trkpt><trkpt lat="33.9231747" lon="8.1352106"><ele>50.42857142857143</ele><time>2026-04-29T17:13:29.43Z</time></trkpt><trkpt lat="33.923139" lon="8.135138"><ele>50.714285714285715</ele><time>2026-04-29T17:13:30.456Z</time></trkpt><trkpt lat="33.9231034" lon="8.1350679"><ele>51.0</ele><time>2026-04-29T17:13:31.449Z</time></trkpt><trkpt lat="33.9230668" lon="8.1349981"><ele>51.0</ele><time>2026-04-29T17:13:32.442Z</time></trkpt><trkpt lat="33.9230234" lon="8.1349234"><ele>51.0</ele><time>2026-04-29T17:13:33.434Z</time></trkpt><trkpt lat="33.9229819" lon="8.1348523"><ele>51.0</ele><time>2026-04-29T17:13:34.429Z</time></trkpt><trkpt lat="33.9229433" lon="8.1347841"><ele>51.0</ele><time>2026-04-29T17:13:35.45Z</time></trkpt><trkpt lat="33.92291" lon="8.1347189"><ele>51.0</ele><time>2026-04-29T17:13:36.453Z</time></trkpt><trkpt lat="33.922877" lon="8.1346514"><ele>51.0</ele><time>2026-04-29T17:13:37.439Z</time></trkpt><trkpt lat="33.9228152" lon="8.1345275"><ele>51.0</ele><time>2026-04-29T17:13:39.433Z</time></trkpt><trkpt lat="33.9227452" lon="8.1344044"><ele>51.0</ele><time>2026-04-29T17:13:41.425Z</time></trkpt><trkpt lat="33.9227065" lon="8.1343318"><ele>51.0</ele><time>2026-04-29T17:13:42.458Z</time></trkpt><trkpt lat="33.922668" lon="8.1342573"><ele>51.0</ele><time>2026-04-29T17:13:43.431Z</time></trkpt><trkpt lat="33.9226365" lon="8.1341813"><ele>51.0</ele><time>2026-04-29T17:13:44.44Z</time></trkpt><trkpt lat="33.9226012" lon="8.1341135"><ele>51.0</ele><time>2026-04-29T17:13:45.432Z</time></trkpt><trkpt lat="33.9225393" lon="8.1340033"><ele>51.0</ele><time>2026-04-29T17:13:47.435Z</time></trkpt><trkpt lat="33.9224768" lon="8.1338767"><ele>51.0</ele><time>2026-04-29T17:13:49.435Z</time></trkpt><trkpt lat="33.9224375" lon="8.1338014"><ele>51.0</ele><time>2026-04-29T17:13:50.424Z</time></trkpt><trkpt lat="33.922403" lon="8.1337274"><ele>51.0</ele><time>2026-04-29T17:13:51.439Z</time></trkpt><trkpt lat="33.9223755" lon="8.1336438"><ele>51.0</ele><time>2026-04-29T17:13:52.431Z</time></trkpt><trkpt lat="33.9223455" lon="8.1335646"><ele>51.0</ele><time>2026-04-29T17:13:53.441Z</time></trkpt><trkpt lat="33.9223167" lon="8.1334823"><ele>51.0</ele><time>2026-04-29T17:13:54.425Z</time></trkpt><trkpt lat="33.922291" lon="8.1333935"><ele>51.0</ele><time>2026-04-29T17:13:55.44Z</time></trkpt><trkpt lat="33.9222601" lon="8.1333109"><ele>51.0</ele><time>2026-04-29T17:13:56.429Z</time></trkpt><trkpt lat="33.9222297" lon="8.1332233"><ele>51.0</ele><time>2026-04-29T17:13:57.433Z</time></trkpt><trkpt lat="33.9221982" lon="8.1331302"><ele>51.0</ele><time>2026-04-29T17:13:58.45Z</time></trkpt><trkpt lat="33.9221725" lon="8.133042"><ele>51.0</ele><time>2026-04-29T17:13:59.444Z</time></trkpt><trkpt lat="33.9221476" lon="8.1329627"><ele>50.599999999999994</ele><time>2026-04-29T17:14:00.433Z</time></trkpt><trkpt lat="33.9221243" lon="8.1328912"><ele>50.2</ele><time>2026-04-29T17:14:01.439Z</time></trkpt><trkpt lat="33.9220936" lon="8.1327704"><ele>49.8</ele><time>2026-04-29T17:14:03.425Z</time></trkpt><trkpt lat="33.9220553" lon="8.1326455"><ele>49.400000000000006</ele><time>2026-04-29T17:14:05.442Z</time></trkpt><trkpt lat="33.9220117" lon="8.1325025"><ele>49.0</ele><time>2026-04-29T17:14:07.44Z</time></trkpt><trkpt lat="33.9219843" lon="8.1324236"><ele>48.49999999999999</ele><time>2026-04-29T17:14:08.42Z</time></trkpt><trkpt lat="33.9219563" lon="8.1323371"><ele>48.0</ele><time>2026-04-29T17:14:09.424Z</time></trkpt><trkpt lat="33.9219291" lon="8.1322542"><ele>47.5</ele><time>2026-04-29T17:14:10.435Z</time></trkpt><trkpt lat="33.921901" lon="8.1321773"><ele>47.0</ele><time>2026-04-29T17:14:11.426Z</time></trkpt><trkpt lat="33.9218827" lon="8.1321038"><ele>46.5</ele><time>2026-04-29T17:14:12.451Z</time></trkpt><trkpt lat="33.9218427" lon="8.131969"><ele>46.0</ele><time>2026-04-29T17:14:14.429Z</time></trkpt><trkpt lat="33.9218096" lon="8.1318527"><ele>46.0</ele><time>2026-04-29T17:14:16.43Z</time></trkpt><trkpt lat="33.9217793" lon="8.1317377"><ele>46.0</ele><time>2026-04-29T17:14:18.424Z</time></trkpt><trkpt lat="33.9217418" lon="8.1316081"><ele>46.0</ele><time>2026-04-29T17:14:20.435Z</time></trkpt><trkpt lat="33.9217043" lon="8.1314731"><ele>46.0</ele><time>2026-04-29T17:14:22.439Z</time></trkpt><trkpt lat="33.9216644" lon="8.1313548"><ele>46.0</ele><time>2026-04-29T17:14:24.433Z</time></trkpt><trkpt lat="33.9216419" lon="8.1312332"><ele>46.16666666666667</ele><time>2026-04-29T17:14:26.447Z</time></trkpt><trkpt lat="33.9216213" lon="8.1311284"><ele>46.333333333333336</ele><time>2026-04-29T17:14:28.439Z</time></trkpt><trkpt lat="33.9216051" lon="8.1310243"><ele>46.5</ele><time>2026-04-29T17:14:30.437Z</time></trkpt><trkpt lat="33.921591" lon="8.1309217"><ele>46.666666666666664</ele><time>2026-04-29T17:14:32.441Z</time></trkpt><trkpt lat="33.9215854" lon="8.1308332"><ele>46.83333333333333</ele><time>2026-04-29T17:14:34.43Z</time></trkpt><trkpt lat="33.9215727" lon="8.1307329"><ele>47.0</ele><time>2026-04-29T17:14:37.429Z</time></trkpt><trkpt lat="33.9215251" lon="8.1307922"><ele>47.0</ele><time>2026-04-29T17:14:43.432Z</time></trkpt><trkpt lat="33.9215379" lon="8.13087"><ele>47.0</ele><time>2026-04-29T17:14:54.452Z</time></trkpt><trkpt lat="33.9215441" lon="8.1309556"><ele>47.0</ele><time>2026-04-29T17:29:40.426Z</time></trkpt><trkpt lat="33.9215902" lon="8.1310609"><ele>47.0</ele><time>2026-04-29T17:29:44.401Z</time></trkpt><trkpt lat="33.9216607" lon="8.1310991"><ele>47.0</ele><time>2026-04-29T17:29:46.423Z</time></trkpt><trkpt lat="33.9217564" lon="8.1311195"><ele>47.0</ele><time>2026-04-29T17:29:48.43Z</time></trkpt><trkpt lat="33.9218266" lon="8.1311895"><ele>44.0</ele><time>2026-04-29T17:29:50.426Z</time></trkpt><trkpt lat="33.921894" lon="8.1312809"><ele>44.0</ele><time>2026-04-29T17:29:52.428Z</time></trkpt><trkpt lat="33.9219408" lon="8.1313328"><ele>44.0</ele><time>2026-04-29T17:29:54.425Z</time></trkpt><trkpt lat="33.9219995" lon="8.1313812"><ele>44.0</ele><time>2026-04-29T17:29:59.416Z</time></trkpt><trkpt lat="33.9219846" lon="8.1314587"><ele>44.0</ele><time>2026-04-29T17:30:10.427Z</time></trkpt><trkpt lat="33.9219331" lon="8.1315093"><ele>44.0</ele><time>2026-04-29T17:30:14.399Z</time></trkpt><trkpt lat="33.9218734" lon="8.131541"><ele>44.0</ele><time>2026-04-29T17:30:19.437Z</time></trkpt></trkseg></trk></gpx>